<?xml version="1.0" encoding="UTF-8" standalone="no" ?>
<gpx xmlns="http://www.topografix.com/GPX/1/1" xmlns:xsi="http://www.w3.org/2001/XMLSchema-instance" xsi:schemaLocation="http://www.topografix.com/GPX/1/1 http://www.topografix.com/GPX/1/1/gpx.xsd" version="1.1" creator="VisuGPX - https://www.visugpx.com">
  <metadata>
    <name>Traversée des Alpes Maritimes en 3 jours</name>
    <desc><![CDATA[Jour 1, 2 et 3]]></desc>
  </metadata>
  <trk>
    <name><![CDATA[j1]]></name>
    <trkseg>
      <trkpt lat="44.20249" lon="7.14989">
        <ele>2366</ele>
        <time>2013-09-20T07:05:51Z</time>
      </trkpt>
      <trkpt lat="44.20244" lon="7.14993">
        <ele>2366</ele>
        <time>2013-09-20T07:05:59Z</time>
      </trkpt>
      <trkpt lat="44.20244" lon="7.14984">
        <ele>2365</ele>
        <time>2013-09-20T07:06:04Z</time>
      </trkpt>
      <trkpt lat="44.20245" lon="7.14959">
        <ele>2365</ele>
        <time>2013-09-20T07:06:13Z</time>
      </trkpt>
      <trkpt lat="44.20243" lon="7.14954">
        <ele>2365</ele>
        <time>2013-09-20T07:06:18Z</time>
      </trkpt>
      <trkpt lat="44.20246" lon="7.14965">
        <ele>2365</ele>
        <time>2013-09-20T07:06:29Z</time>
      </trkpt>
      <trkpt lat="44.20251" lon="7.14985">
        <ele>2365</ele>
        <time>2013-09-20T07:06:36Z</time>
      </trkpt>
      <trkpt lat="44.20257" lon="7.14966">
        <ele>2364</ele>
        <time>2013-09-20T07:06:43Z</time>
      </trkpt>
      <trkpt lat="44.20242" lon="7.14901">
        <ele>2363</ele>
        <time>2013-09-20T07:06:55Z</time>
      </trkpt>
      <trkpt lat="44.20229" lon="7.14832">
        <ele>2363</ele>
        <time>2013-09-20T07:07:04Z</time>
      </trkpt>
      <trkpt lat="44.20229" lon="7.14799">
        <ele>2362</ele>
        <time>2013-09-20T07:07:11Z</time>
      </trkpt>
      <trkpt lat="44.20227" lon="7.14767">
        <ele>2362</ele>
        <time>2013-09-20T07:07:19Z</time>
      </trkpt>
      <trkpt lat="44.20221" lon="7.14721">
        <ele>2361</ele>
        <time>2013-09-20T07:07:32Z</time>
      </trkpt>
      <trkpt lat="44.20211" lon="7.14677">
        <ele>2361</ele>
        <time>2013-09-20T07:07:47Z</time>
      </trkpt>
      <trkpt lat="44.20209" lon="7.14628">
        <ele>2361</ele>
        <time>2013-09-20T07:08:03Z</time>
      </trkpt>
      <trkpt lat="44.20192" lon="7.14587">
        <ele>2361</ele>
        <time>2013-09-20T07:08:18Z</time>
      </trkpt>
      <trkpt lat="44.20171" lon="7.14546">
        <ele>2362</ele>
        <time>2013-09-20T07:08:35Z</time>
      </trkpt>
      <trkpt lat="44.20161" lon="7.14501">
        <ele>2364</ele>
        <time>2013-09-20T07:08:51Z</time>
      </trkpt>
      <trkpt lat="44.20172" lon="7.14455">
        <ele>2365</ele>
        <time>2013-09-20T07:09:08Z</time>
      </trkpt>
      <trkpt lat="44.20177" lon="7.14406">
        <ele>2367</ele>
        <time>2013-09-20T07:09:25Z</time>
      </trkpt>
      <trkpt lat="44.20175" lon="7.14368">
        <ele>2369</ele>
        <time>2013-09-20T07:09:39Z</time>
      </trkpt>
      <trkpt lat="44.20182" lon="7.14329">
        <ele>2371</ele>
        <time>2013-09-20T07:09:53Z</time>
      </trkpt>
      <trkpt lat="44.20201" lon="7.14292">
        <ele>2373</ele>
        <time>2013-09-20T07:10:09Z</time>
      </trkpt>
      <trkpt lat="44.20221" lon="7.14254">
        <ele>2374</ele>
        <time>2013-09-20T07:10:25Z</time>
      </trkpt>
      <trkpt lat="44.20232" lon="7.14223">
        <ele>2375</ele>
        <time>2013-09-20T07:10:37Z</time>
      </trkpt>
      <trkpt lat="44.20242" lon="7.14175">
        <ele>2377</ele>
        <time>2013-09-20T07:10:53Z</time>
      </trkpt>
      <trkpt lat="44.20248" lon="7.1413">
        <ele>2379</ele>
        <time>2013-09-20T07:11:07Z</time>
      </trkpt>
      <trkpt lat="44.20245" lon="7.14073">
        <ele>2381</ele>
        <time>2013-09-20T07:11:25Z</time>
      </trkpt>
      <trkpt lat="44.20244" lon="7.14024">
        <ele>2382</ele>
        <time>2013-09-20T07:11:40Z</time>
      </trkpt>
      <trkpt lat="44.2025" lon="7.13984">
        <ele>2384</ele>
        <time>2013-09-20T07:11:53Z</time>
      </trkpt>
      <trkpt lat="44.20265" lon="7.1395">
        <ele>2385</ele>
        <time>2013-09-20T07:12:05Z</time>
      </trkpt>
      <trkpt lat="44.20271" lon="7.13898">
        <ele>2387</ele>
        <time>2013-09-20T07:12:21Z</time>
      </trkpt>
      <trkpt lat="44.20267" lon="7.13886">
        <ele>2388</ele>
        <time>2013-09-20T07:12:27Z</time>
      </trkpt>
      <trkpt lat="44.20261" lon="7.1387">
        <ele>2389</ele>
        <time>2013-09-20T07:12:36Z</time>
      </trkpt>
      <trkpt lat="44.20267" lon="7.13846">
        <ele>2390</ele>
        <time>2013-09-20T07:12:45Z</time>
      </trkpt>
      <trkpt lat="44.20273" lon="7.13823">
        <ele>2391</ele>
        <time>2013-09-20T07:12:56Z</time>
      </trkpt>
      <trkpt lat="44.20274" lon="7.13822">
        <ele>2393</ele>
        <time>2013-09-20T07:13:09Z</time>
      </trkpt>
      <trkpt lat="44.20298" lon="7.1381">
        <ele>2394</ele>
        <time>2013-09-20T07:14:20Z</time>
      </trkpt>
      <trkpt lat="44.20321" lon="7.13799">
        <ele>2394</ele>
        <time>2013-09-20T07:14:26Z</time>
      </trkpt>
      <trkpt lat="44.20346" lon="7.13788">
        <ele>2394</ele>
        <time>2013-09-20T07:14:32Z</time>
      </trkpt>
      <trkpt lat="44.2036" lon="7.13781">
        <ele>2393</ele>
        <time>2013-09-20T07:14:35Z</time>
      </trkpt>
      <trkpt lat="44.20372" lon="7.1377">
        <ele>2393</ele>
        <time>2013-09-20T07:14:38Z</time>
      </trkpt>
      <trkpt lat="44.20409" lon="7.13738">
        <ele>2392</ele>
        <time>2013-09-20T07:14:44Z</time>
      </trkpt>
      <trkpt lat="44.20462" lon="7.13662">
        <ele>2390</ele>
        <time>2013-09-20T07:14:56Z</time>
      </trkpt>
      <trkpt lat="44.20499" lon="7.13613">
        <ele>2389</ele>
        <time>2013-09-20T07:15:03Z</time>
      </trkpt>
      <trkpt lat="44.20531" lon="7.13563">
        <ele>2387</ele>
        <time>2013-09-20T07:15:10Z</time>
      </trkpt>
      <trkpt lat="44.20541" lon="7.13534">
        <ele>2386</ele>
        <time>2013-09-20T07:15:14Z</time>
      </trkpt>
      <trkpt lat="44.20546" lon="7.13481">
        <ele>2385</ele>
        <time>2013-09-20T07:15:20Z</time>
      </trkpt>
      <trkpt lat="44.20547" lon="7.13459">
        <ele>2384</ele>
        <time>2013-09-20T07:15:23Z</time>
      </trkpt>
      <trkpt lat="44.20546" lon="7.13412">
        <ele>2383</ele>
        <time>2013-09-20T07:15:29Z</time>
      </trkpt>
      <trkpt lat="44.20566" lon="7.13355">
        <ele>2380</ele>
        <time>2013-09-20T07:15:37Z</time>
      </trkpt>
      <trkpt lat="44.20577" lon="7.13313">
        <ele>2378</ele>
        <time>2013-09-20T07:15:42Z</time>
      </trkpt>
      <trkpt lat="44.2059" lon="7.13284">
        <ele>2377</ele>
        <time>2013-09-20T07:15:46Z</time>
      </trkpt>
      <trkpt lat="44.20602" lon="7.13267">
        <ele>2376</ele>
        <time>2013-09-20T07:15:50Z</time>
      </trkpt>
      <trkpt lat="44.20612" lon="7.13246">
        <ele>2374</ele>
        <time>2013-09-20T07:15:55Z</time>
      </trkpt>
      <trkpt lat="44.2062" lon="7.13227">
        <ele>2373</ele>
        <time>2013-09-20T07:16:00Z</time>
      </trkpt>
      <trkpt lat="44.20622" lon="7.13223">
        <ele>2371</ele>
        <time>2013-09-20T07:16:04Z</time>
      </trkpt>
      <trkpt lat="44.20625" lon="7.13215">
        <ele>2366</ele>
        <time>2013-09-20T07:16:26Z</time>
      </trkpt>
      <trkpt lat="44.20644" lon="7.13188">
        <ele>2364</ele>
        <time>2013-09-20T07:16:33Z</time>
      </trkpt>
      <trkpt lat="44.20658" lon="7.13151">
        <ele>2361</ele>
        <time>2013-09-20T07:16:43Z</time>
      </trkpt>
      <trkpt lat="44.2068" lon="7.13105">
        <ele>2358</ele>
        <time>2013-09-20T07:16:52Z</time>
      </trkpt>
      <trkpt lat="44.20719" lon="7.13045">
        <ele>2355</ele>
        <time>2013-09-20T07:17:02Z</time>
      </trkpt>
      <trkpt lat="44.20731" lon="7.1303">
        <ele>2353</ele>
        <time>2013-09-20T07:17:06Z</time>
      </trkpt>
      <trkpt lat="44.20744" lon="7.1302">
        <ele>2351</ele>
        <time>2013-09-20T07:17:12Z</time>
      </trkpt>
      <trkpt lat="44.20759" lon="7.13004">
        <ele>2348</ele>
        <time>2013-09-20T07:17:24Z</time>
      </trkpt>
      <trkpt lat="44.20775" lon="7.12978">
        <ele>2345</ele>
        <time>2013-09-20T07:17:40Z</time>
      </trkpt>
      <trkpt lat="44.20791" lon="7.12951">
        <ele>2342</ele>
        <time>2013-09-20T07:17:56Z</time>
      </trkpt>
      <trkpt lat="44.20817" lon="7.12931">
        <ele>2340</ele>
        <time>2013-09-20T07:18:10Z</time>
      </trkpt>
      <trkpt lat="44.20855" lon="7.12897">
        <ele>2339</ele>
        <time>2013-09-20T07:18:27Z</time>
      </trkpt>
      <trkpt lat="44.2088" lon="7.12879">
        <ele>2337</ele>
        <time>2013-09-20T07:18:42Z</time>
      </trkpt>
      <trkpt lat="44.20898" lon="7.12866">
        <ele>2337</ele>
        <time>2013-09-20T07:18:57Z</time>
      </trkpt>
      <trkpt lat="44.20898" lon="7.12864">
        <ele>2336</ele>
        <time>2013-09-20T07:19:23Z</time>
      </trkpt>
      <trkpt lat="44.20899" lon="7.12859">
        <ele>2336</ele>
        <time>2013-09-20T07:19:35Z</time>
      </trkpt>
      <trkpt lat="44.20896" lon="7.12858">
        <ele>2335</ele>
        <time>2013-09-20T07:19:49Z</time>
      </trkpt>
      <trkpt lat="44.20897" lon="7.12867">
        <ele>2335</ele>
        <time>2013-09-20T07:20:26Z</time>
      </trkpt>
      <trkpt lat="44.20897" lon="7.12863">
        <ele>2335</ele>
        <time>2013-09-20T07:25:13Z</time>
      </trkpt>
      <trkpt lat="44.20897" lon="7.12863">
        <ele>2336</ele>
        <time>2013-09-20T07:26:12Z</time>
      </trkpt>
      <trkpt lat="44.20897" lon="7.12865">
        <ele>2334</ele>
        <time>2013-09-20T07:27:55Z</time>
      </trkpt>
      <trkpt lat="44.20898" lon="7.12863">
        <ele>2333</ele>
        <time>2013-09-20T07:35:07Z</time>
      </trkpt>
      <trkpt lat="44.20903" lon="7.12859">
        <ele>2332</ele>
        <time>2013-09-20T07:35:30Z</time>
      </trkpt>
      <trkpt lat="44.20912" lon="7.1285">
        <ele>2332</ele>
        <time>2013-09-20T07:35:36Z</time>
      </trkpt>
      <trkpt lat="44.2094" lon="7.12821">
        <ele>2332</ele>
        <time>2013-09-20T07:35:50Z</time>
      </trkpt>
      <trkpt lat="44.20965" lon="7.12783">
        <ele>2332</ele>
        <time>2013-09-20T07:36:02Z</time>
      </trkpt>
      <trkpt lat="44.20988" lon="7.12754">
        <ele>2332</ele>
        <time>2013-09-20T07:36:13Z</time>
      </trkpt>
      <trkpt lat="44.21022" lon="7.12723">
        <ele>2332</ele>
        <time>2013-09-20T07:36:23Z</time>
      </trkpt>
      <trkpt lat="44.21066" lon="7.12681">
        <ele>2331</ele>
        <time>2013-09-20T07:36:32Z</time>
      </trkpt>
      <trkpt lat="44.2108" lon="7.12654">
        <ele>2331</ele>
        <time>2013-09-20T07:36:37Z</time>
      </trkpt>
      <trkpt lat="44.21086" lon="7.12644">
        <ele>2331</ele>
        <time>2013-09-20T07:36:39Z</time>
      </trkpt>
      <trkpt lat="44.21095" lon="7.12622">
        <ele>2331</ele>
        <time>2013-09-20T07:36:45Z</time>
      </trkpt>
      <trkpt lat="44.21111" lon="7.12593">
        <ele>2331</ele>
        <time>2013-09-20T07:36:52Z</time>
      </trkpt>
      <trkpt lat="44.21127" lon="7.12562">
        <ele>2330</ele>
        <time>2013-09-20T07:37:02Z</time>
      </trkpt>
      <trkpt lat="44.21134" lon="7.12529">
        <ele>2330</ele>
        <time>2013-09-20T07:37:11Z</time>
      </trkpt>
      <trkpt lat="44.21128" lon="7.12511">
        <ele>2329</ele>
        <time>2013-09-20T07:37:15Z</time>
      </trkpt>
      <trkpt lat="44.21129" lon="7.12467">
        <ele>2328</ele>
        <time>2013-09-20T07:37:22Z</time>
      </trkpt>
      <trkpt lat="44.21134" lon="7.1244">
        <ele>2328</ele>
        <time>2013-09-20T07:37:26Z</time>
      </trkpt>
      <trkpt lat="44.21137" lon="7.12421">
        <ele>2327</ele>
        <time>2013-09-20T07:37:30Z</time>
      </trkpt>
      <trkpt lat="44.21141" lon="7.12403">
        <ele>2326</ele>
        <time>2013-09-20T07:37:35Z</time>
      </trkpt>
      <trkpt lat="44.21149" lon="7.12395">
        <ele>2326</ele>
        <time>2013-09-20T07:37:39Z</time>
      </trkpt>
      <trkpt lat="44.21159" lon="7.12386">
        <ele>2325</ele>
        <time>2013-09-20T07:37:46Z</time>
      </trkpt>
      <trkpt lat="44.21157" lon="7.12387">
        <ele>2309</ele>
        <time>2013-09-20T07:43:37Z</time>
      </trkpt>
      <trkpt lat="44.21171" lon="7.12383">
        <ele>2309</ele>
        <time>2013-09-20T07:43:44Z</time>
      </trkpt>
      <trkpt lat="44.21196" lon="7.12339">
        <ele>2309</ele>
        <time>2013-09-20T07:43:53Z</time>
      </trkpt>
      <trkpt lat="44.21206" lon="7.12311">
        <ele>2309</ele>
        <time>2013-09-20T07:43:57Z</time>
      </trkpt>
      <trkpt lat="44.21215" lon="7.12277">
        <ele>2308</ele>
        <time>2013-09-20T07:44:01Z</time>
      </trkpt>
      <trkpt lat="44.21221" lon="7.12214">
        <ele>2308</ele>
        <time>2013-09-20T07:44:08Z</time>
      </trkpt>
      <trkpt lat="44.21224" lon="7.12195">
        <ele>2307</ele>
        <time>2013-09-20T07:44:11Z</time>
      </trkpt>
      <trkpt lat="44.21227" lon="7.12145">
        <ele>2307</ele>
        <time>2013-09-20T07:44:17Z</time>
      </trkpt>
      <trkpt lat="44.21243" lon="7.12094">
        <ele>2306</ele>
        <time>2013-09-20T07:44:24Z</time>
      </trkpt>
      <trkpt lat="44.21255" lon="7.12066">
        <ele>2306</ele>
        <time>2013-09-20T07:44:27Z</time>
      </trkpt>
      <trkpt lat="44.21277" lon="7.12035">
        <ele>2305</ele>
        <time>2013-09-20T07:44:33Z</time>
      </trkpt>
      <trkpt lat="44.21288" lon="7.12021">
        <ele>2305</ele>
        <time>2013-09-20T07:44:38Z</time>
      </trkpt>
      <trkpt lat="44.21312" lon="7.11979">
        <ele>2304</ele>
        <time>2013-09-20T07:44:47Z</time>
      </trkpt>
      <trkpt lat="44.21344" lon="7.11928">
        <ele>2303</ele>
        <time>2013-09-20T07:45:02Z</time>
      </trkpt>
      <trkpt lat="44.21373" lon="7.11899">
        <ele>2303</ele>
        <time>2013-09-20T07:45:15Z</time>
      </trkpt>
      <trkpt lat="44.21399" lon="7.11881">
        <ele>2303</ele>
        <time>2013-09-20T07:45:29Z</time>
      </trkpt>
      <trkpt lat="44.21408" lon="7.11875">
        <ele>2303</ele>
        <time>2013-09-20T07:45:37Z</time>
      </trkpt>
      <trkpt lat="44.2142" lon="7.11875">
        <ele>2303</ele>
        <time>2013-09-20T07:45:49Z</time>
      </trkpt>
      <trkpt lat="44.2143" lon="7.11866">
        <ele>2304</ele>
        <time>2013-09-20T07:46:06Z</time>
      </trkpt>
      <trkpt lat="44.21435" lon="7.11856">
        <ele>2305</ele>
        <time>2013-09-20T07:46:25Z</time>
      </trkpt>
      <trkpt lat="44.2144" lon="7.11852">
        <ele>2307</ele>
        <time>2013-09-20T07:46:39Z</time>
      </trkpt>
      <trkpt lat="44.21448" lon="7.11847">
        <ele>2309</ele>
        <time>2013-09-20T07:46:55Z</time>
      </trkpt>
      <trkpt lat="44.21455" lon="7.11839">
        <ele>2310</ele>
        <time>2013-09-20T07:47:11Z</time>
      </trkpt>
      <trkpt lat="44.21464" lon="7.11829">
        <ele>2312</ele>
        <time>2013-09-20T07:47:27Z</time>
      </trkpt>
      <trkpt lat="44.21473" lon="7.11824">
        <ele>2314</ele>
        <time>2013-09-20T07:47:42Z</time>
      </trkpt>
      <trkpt lat="44.21482" lon="7.11819">
        <ele>2316</ele>
        <time>2013-09-20T07:47:55Z</time>
      </trkpt>
      <trkpt lat="44.21486" lon="7.11813">
        <ele>2317</ele>
        <time>2013-09-20T07:48:07Z</time>
      </trkpt>
      <trkpt lat="44.21491" lon="7.11805">
        <ele>2320</ele>
        <time>2013-09-20T07:48:22Z</time>
      </trkpt>
      <trkpt lat="44.21497" lon="7.11795">
        <ele>2323</ele>
        <time>2013-09-20T07:48:38Z</time>
      </trkpt>
      <trkpt lat="44.21505" lon="7.11791">
        <ele>2326</ele>
        <time>2013-09-20T07:48:54Z</time>
      </trkpt>
      <trkpt lat="44.21511" lon="7.11785">
        <ele>2328</ele>
        <time>2013-09-20T07:49:07Z</time>
      </trkpt>
      <trkpt lat="44.21519" lon="7.11775">
        <ele>2331</ele>
        <time>2013-09-20T07:49:24Z</time>
      </trkpt>
      <trkpt lat="44.21523" lon="7.11761">
        <ele>2335</ele>
        <time>2013-09-20T07:49:42Z</time>
      </trkpt>
      <trkpt lat="44.21527" lon="7.11748">
        <ele>2337</ele>
        <time>2013-09-20T07:49:55Z</time>
      </trkpt>
      <trkpt lat="44.21535" lon="7.11737">
        <ele>2340</ele>
        <time>2013-09-20T07:50:10Z</time>
      </trkpt>
      <trkpt lat="44.21536" lon="7.11733">
        <ele>2340</ele>
        <time>2013-09-20T07:50:16Z</time>
      </trkpt>
      <trkpt lat="44.21547" lon="7.11711">
        <ele>2343</ele>
        <time>2013-09-20T07:50:31Z</time>
      </trkpt>
      <trkpt lat="44.2155" lon="7.11705">
        <ele>2343</ele>
        <time>2013-09-20T07:50:35Z</time>
      </trkpt>
      <trkpt lat="44.21561" lon="7.11691">
        <ele>2345</ele>
        <time>2013-09-20T07:50:45Z</time>
      </trkpt>
      <trkpt lat="44.21572" lon="7.11684">
        <ele>2346</ele>
        <time>2013-09-20T07:50:54Z</time>
      </trkpt>
      <trkpt lat="44.21577" lon="7.11674">
        <ele>2349</ele>
        <time>2013-09-20T07:51:06Z</time>
      </trkpt>
      <trkpt lat="44.21587" lon="7.11664">
        <ele>2351</ele>
        <time>2013-09-20T07:51:18Z</time>
      </trkpt>
      <trkpt lat="44.21612" lon="7.11646">
        <ele>2353</ele>
        <time>2013-09-20T07:51:33Z</time>
      </trkpt>
      <trkpt lat="44.21632" lon="7.11617">
        <ele>2353</ele>
        <time>2013-09-20T07:51:41Z</time>
      </trkpt>
      <trkpt lat="44.21652" lon="7.11578">
        <ele>2352</ele>
        <time>2013-09-20T07:51:49Z</time>
      </trkpt>
      <trkpt lat="44.21664" lon="7.11559">
        <ele>2352</ele>
        <time>2013-09-20T07:51:54Z</time>
      </trkpt>
      <trkpt lat="44.21675" lon="7.11515">
        <ele>2351</ele>
        <time>2013-09-20T07:52:04Z</time>
      </trkpt>
      <trkpt lat="44.21694" lon="7.11478">
        <ele>2350</ele>
        <time>2013-09-20T07:52:14Z</time>
      </trkpt>
      <trkpt lat="44.21718" lon="7.1145">
        <ele>2349</ele>
        <time>2013-09-20T07:52:20Z</time>
      </trkpt>
      <trkpt lat="44.21723" lon="7.11447">
        <ele>2349</ele>
        <time>2013-09-20T07:52:24Z</time>
      </trkpt>
      <trkpt lat="44.21734" lon="7.11434">
        <ele>2348</ele>
        <time>2013-09-20T07:52:33Z</time>
      </trkpt>
      <trkpt lat="44.21743" lon="7.11425">
        <ele>2347</ele>
        <time>2013-09-20T07:52:42Z</time>
      </trkpt>
      <trkpt lat="44.21756" lon="7.11414">
        <ele>2346</ele>
        <time>2013-09-20T07:52:55Z</time>
      </trkpt>
      <trkpt lat="44.21765" lon="7.11404">
        <ele>2346</ele>
        <time>2013-09-20T07:53:04Z</time>
      </trkpt>
      <trkpt lat="44.21771" lon="7.11395">
        <ele>2346</ele>
        <time>2013-09-20T07:53:12Z</time>
      </trkpt>
      <trkpt lat="44.21772" lon="7.11388">
        <ele>2346</ele>
        <time>2013-09-20T07:53:18Z</time>
      </trkpt>
      <trkpt lat="44.2178" lon="7.11377">
        <ele>2346</ele>
        <time>2013-09-20T07:53:30Z</time>
      </trkpt>
      <trkpt lat="44.21787" lon="7.11362">
        <ele>2347</ele>
        <time>2013-09-20T07:53:48Z</time>
      </trkpt>
      <trkpt lat="44.21796" lon="7.11346">
        <ele>2349</ele>
        <time>2013-09-20T07:54:07Z</time>
      </trkpt>
      <trkpt lat="44.21803" lon="7.11334">
        <ele>2351</ele>
        <time>2013-09-20T07:54:24Z</time>
      </trkpt>
      <trkpt lat="44.21811" lon="7.11321">
        <ele>2353</ele>
        <time>2013-09-20T07:54:43Z</time>
      </trkpt>
      <trkpt lat="44.21817" lon="7.11311">
        <ele>2356</ele>
        <time>2013-09-20T07:55:00Z</time>
      </trkpt>
      <trkpt lat="44.21815" lon="7.11306">
        <ele>2358</ele>
        <time>2013-09-20T07:55:11Z</time>
      </trkpt>
      <trkpt lat="44.21815" lon="7.11291">
        <ele>2361</ele>
        <time>2013-09-20T07:55:27Z</time>
      </trkpt>
      <trkpt lat="44.21827" lon="7.11271">
        <ele>2364</ele>
        <time>2013-09-20T07:55:47Z</time>
      </trkpt>
      <trkpt lat="44.21835" lon="7.11254">
        <ele>2367</ele>
        <time>2013-09-20T07:56:05Z</time>
      </trkpt>
      <trkpt lat="44.21835" lon="7.11253">
        <ele>2368</ele>
        <time>2013-09-20T07:56:17Z</time>
      </trkpt>
      <trkpt lat="44.21833" lon="7.11255">
        <ele>2371</ele>
        <time>2013-09-20T07:56:39Z</time>
      </trkpt>
      <trkpt lat="44.21836" lon="7.11253">
        <ele>2372</ele>
        <time>2013-09-20T07:56:55Z</time>
      </trkpt>
      <trkpt lat="44.21836" lon="7.11252">
        <ele>2373</ele>
        <time>2013-09-20T07:57:12Z</time>
      </trkpt>
      <trkpt lat="44.21842" lon="7.11244">
        <ele>2374</ele>
        <time>2013-09-20T07:57:45Z</time>
      </trkpt>
      <trkpt lat="44.21843" lon="7.11242">
        <ele>2374</ele>
        <time>2013-09-20T07:58:01Z</time>
      </trkpt>
      <trkpt lat="44.21842" lon="7.11244">
        <ele>2375</ele>
        <time>2013-09-20T07:58:56Z</time>
      </trkpt>
      <trkpt lat="44.21846" lon="7.11239">
        <ele>2375</ele>
        <time>2013-09-20T07:59:02Z</time>
      </trkpt>
      <trkpt lat="44.21843" lon="7.11242">
        <ele>2375</ele>
        <time>2013-09-20T07:59:26Z</time>
      </trkpt>
      <trkpt lat="44.21846" lon="7.11239">
        <ele>2374</ele>
        <time>2013-09-20T07:59:52Z</time>
      </trkpt>
      <trkpt lat="44.21846" lon="7.11242">
        <ele>2374</ele>
        <time>2013-09-20T07:59:56Z</time>
      </trkpt>
      <trkpt lat="44.21846" lon="7.11247">
        <ele>2374</ele>
        <time>2013-09-20T08:00:07Z</time>
      </trkpt>
      <trkpt lat="44.21845" lon="7.11247">
        <ele>2374</ele>
        <time>2013-09-20T08:00:39Z</time>
      </trkpt>
      <trkpt lat="44.21845" lon="7.11245">
        <ele>2374</ele>
        <time>2013-09-20T08:01:45Z</time>
      </trkpt>
      <trkpt lat="44.21844" lon="7.11243">
        <ele>2374</ele>
        <time>2013-09-20T08:02:03Z</time>
      </trkpt>
      <trkpt lat="44.2189" lon="7.11184">
        <ele>2369</ele>
        <time>2013-09-20T08:03:25Z</time>
      </trkpt>
      <trkpt lat="44.21895" lon="7.11178">
        <ele>2367</ele>
        <time>2013-09-20T08:03:39Z</time>
      </trkpt>
      <trkpt lat="44.21902" lon="7.11176">
        <ele>2366</ele>
        <time>2013-09-20T08:03:51Z</time>
      </trkpt>
      <trkpt lat="44.2191" lon="7.11167">
        <ele>2364</ele>
        <time>2013-09-20T08:04:03Z</time>
      </trkpt>
      <trkpt lat="44.21912" lon="7.11163">
        <ele>2364</ele>
        <time>2013-09-20T08:04:08Z</time>
      </trkpt>
      <trkpt lat="44.21923" lon="7.11154">
        <ele>2363</ele>
        <time>2013-09-20T08:04:19Z</time>
      </trkpt>
      <trkpt lat="44.21944" lon="7.1114">
        <ele>2361</ele>
        <time>2013-09-20T08:04:30Z</time>
      </trkpt>
      <trkpt lat="44.21946" lon="7.11137">
        <ele>2360</ele>
        <time>2013-09-20T08:04:40Z</time>
      </trkpt>
      <trkpt lat="44.21923" lon="7.11134">
        <ele>2358</ele>
        <time>2013-09-20T08:04:49Z</time>
      </trkpt>
      <trkpt lat="44.21898" lon="7.11128">
        <ele>2356</ele>
        <time>2013-09-20T08:04:58Z</time>
      </trkpt>
      <trkpt lat="44.21898" lon="7.11124">
        <ele>2356</ele>
        <time>2013-09-20T08:05:00Z</time>
      </trkpt>
      <trkpt lat="44.21909" lon="7.11112">
        <ele>2355</ele>
        <time>2013-09-20T08:05:06Z</time>
      </trkpt>
      <trkpt lat="44.21933" lon="7.11088">
        <ele>2352</ele>
        <time>2013-09-20T08:05:18Z</time>
      </trkpt>
      <trkpt lat="44.21952" lon="7.11062">
        <ele>2349</ele>
        <time>2013-09-20T08:05:30Z</time>
      </trkpt>
      <trkpt lat="44.21953" lon="7.11063">
        <ele>2348</ele>
        <time>2013-09-20T08:05:36Z</time>
      </trkpt>
      <trkpt lat="44.21965" lon="7.11055">
        <ele>2343</ele>
        <time>2013-09-20T08:05:54Z</time>
      </trkpt>
      <trkpt lat="44.21973" lon="7.11046">
        <ele>2339</ele>
        <time>2013-09-20T08:06:07Z</time>
      </trkpt>
      <trkpt lat="44.21976" lon="7.11043">
        <ele>2338</ele>
        <time>2013-09-20T08:06:10Z</time>
      </trkpt>
      <trkpt lat="44.21982" lon="7.11037">
        <ele>2336</ele>
        <time>2013-09-20T08:06:15Z</time>
      </trkpt>
      <trkpt lat="44.21991" lon="7.11034">
        <ele>2334</ele>
        <time>2013-09-20T08:06:23Z</time>
      </trkpt>
      <trkpt lat="44.2201" lon="7.11027">
        <ele>2331</ele>
        <time>2013-09-20T08:06:32Z</time>
      </trkpt>
      <trkpt lat="44.22017" lon="7.11019">
        <ele>2329</ele>
        <time>2013-09-20T08:06:39Z</time>
      </trkpt>
      <trkpt lat="44.22028" lon="7.1102">
        <ele>2328</ele>
        <time>2013-09-20T08:06:44Z</time>
      </trkpt>
      <trkpt lat="44.22043" lon="7.11012">
        <ele>2325</ele>
        <time>2013-09-20T08:06:53Z</time>
      </trkpt>
      <trkpt lat="44.2205" lon="7.11015">
        <ele>2323</ele>
        <time>2013-09-20T08:07:00Z</time>
      </trkpt>
      <trkpt lat="44.22067" lon="7.1101">
        <ele>2319</ele>
        <time>2013-09-20T08:07:09Z</time>
      </trkpt>
      <trkpt lat="44.22073" lon="7.11016">
        <ele>2318</ele>
        <time>2013-09-20T08:07:13Z</time>
      </trkpt>
      <trkpt lat="44.22081" lon="7.11016">
        <ele>2316</ele>
        <time>2013-09-20T08:07:18Z</time>
      </trkpt>
      <trkpt lat="44.22087" lon="7.11013">
        <ele>2315</ele>
        <time>2013-09-20T08:07:21Z</time>
      </trkpt>
      <trkpt lat="44.22094" lon="7.11008">
        <ele>2312</ele>
        <time>2013-09-20T08:07:27Z</time>
      </trkpt>
      <trkpt lat="44.22099" lon="7.11005">
        <ele>2311</ele>
        <time>2013-09-20T08:07:31Z</time>
      </trkpt>
      <trkpt lat="44.22111" lon="7.11002">
        <ele>2308</ele>
        <time>2013-09-20T08:07:37Z</time>
      </trkpt>
      <trkpt lat="44.22123" lon="7.10985">
        <ele>2304</ele>
        <time>2013-09-20T08:07:45Z</time>
      </trkpt>
      <trkpt lat="44.22124" lon="7.10986">
        <ele>2302</ele>
        <time>2013-09-20T08:07:50Z</time>
      </trkpt>
      <trkpt lat="44.22128" lon="7.10999">
        <ele>2297</ele>
        <time>2013-09-20T08:08:03Z</time>
      </trkpt>
      <trkpt lat="44.22134" lon="7.10995">
        <ele>2295</ele>
        <time>2013-09-20T08:08:07Z</time>
      </trkpt>
      <trkpt lat="44.22143" lon="7.10979">
        <ele>2293</ele>
        <time>2013-09-20T08:08:13Z</time>
      </trkpt>
      <trkpt lat="44.22148" lon="7.10982">
        <ele>2291</ele>
        <time>2013-09-20T08:08:18Z</time>
      </trkpt>
      <trkpt lat="44.22153" lon="7.10988">
        <ele>2289</ele>
        <time>2013-09-20T08:08:23Z</time>
      </trkpt>
      <trkpt lat="44.22165" lon="7.10985">
        <ele>2286</ele>
        <time>2013-09-20T08:08:30Z</time>
      </trkpt>
      <trkpt lat="44.22173" lon="7.10976">
        <ele>2283</ele>
        <time>2013-09-20T08:08:35Z</time>
      </trkpt>
      <trkpt lat="44.22179" lon="7.10977">
        <ele>2279</ele>
        <time>2013-09-20T08:08:46Z</time>
      </trkpt>
      <trkpt lat="44.22184" lon="7.10972">
        <ele>2273</ele>
        <time>2013-09-20T08:08:59Z</time>
      </trkpt>
      <trkpt lat="44.22187" lon="7.10972">
        <ele>2268</ele>
        <time>2013-09-20T08:09:14Z</time>
      </trkpt>
      <trkpt lat="44.22188" lon="7.10969">
        <ele>2262</ele>
        <time>2013-09-20T08:09:29Z</time>
      </trkpt>
      <trkpt lat="44.22193" lon="7.10967">
        <ele>2259</ele>
        <time>2013-09-20T08:09:39Z</time>
      </trkpt>
      <trkpt lat="44.22198" lon="7.1097">
        <ele>2254</ele>
        <time>2013-09-20T08:09:54Z</time>
      </trkpt>
      <trkpt lat="44.22199" lon="7.10963">
        <ele>2250</ele>
        <time>2013-09-20T08:10:06Z</time>
      </trkpt>
      <trkpt lat="44.22199" lon="7.10951">
        <ele>2246</ele>
        <time>2013-09-20T08:10:20Z</time>
      </trkpt>
      <trkpt lat="44.22199" lon="7.10945">
        <ele>2242</ele>
        <time>2013-09-20T08:10:35Z</time>
      </trkpt>
      <trkpt lat="44.22202" lon="7.10947">
        <ele>2231</ele>
        <time>2013-09-20T08:11:24Z</time>
      </trkpt>
      <trkpt lat="44.2221" lon="7.10959">
        <ele>2226</ele>
        <time>2013-09-20T08:11:48Z</time>
      </trkpt>
      <trkpt lat="44.22211" lon="7.10957">
        <ele>2225</ele>
        <time>2013-09-20T08:11:52Z</time>
      </trkpt>
      <trkpt lat="44.22209" lon="7.10949">
        <ele>2223</ele>
        <time>2013-09-20T08:12:02Z</time>
      </trkpt>
      <trkpt lat="44.22208" lon="7.10945">
        <ele>2223</ele>
        <time>2013-09-20T08:12:07Z</time>
      </trkpt>
      <trkpt lat="44.22212" lon="7.10944">
        <ele>2222</ele>
        <time>2013-09-20T08:12:11Z</time>
      </trkpt>
      <trkpt lat="44.22224" lon="7.10953">
        <ele>2220</ele>
        <time>2013-09-20T08:12:21Z</time>
      </trkpt>
      <trkpt lat="44.22233" lon="7.10952">
        <ele>2219</ele>
        <time>2013-09-20T08:12:26Z</time>
      </trkpt>
      <trkpt lat="44.2222" lon="7.10929">
        <ele>2217</ele>
        <time>2013-09-20T08:12:38Z</time>
      </trkpt>
      <trkpt lat="44.22232" lon="7.10935">
        <ele>2216</ele>
        <time>2013-09-20T08:12:45Z</time>
      </trkpt>
      <trkpt lat="44.22229" lon="7.10915">
        <ele>2214</ele>
        <time>2013-09-20T08:12:52Z</time>
      </trkpt>
      <trkpt lat="44.22221" lon="7.10906">
        <ele>2213</ele>
        <time>2013-09-20T08:12:55Z</time>
      </trkpt>
      <trkpt lat="44.22205" lon="7.1089">
        <ele>2212</ele>
        <time>2013-09-20T08:13:01Z</time>
      </trkpt>
      <trkpt lat="44.22201" lon="7.10875">
        <ele>2211</ele>
        <time>2013-09-20T08:13:05Z</time>
      </trkpt>
      <trkpt lat="44.22204" lon="7.10868">
        <ele>2210</ele>
        <time>2013-09-20T08:13:08Z</time>
      </trkpt>
      <trkpt lat="44.2221" lon="7.1085">
        <ele>2209</ele>
        <time>2013-09-20T08:13:13Z</time>
      </trkpt>
      <trkpt lat="44.22213" lon="7.10831">
        <ele>2207</ele>
        <time>2013-09-20T08:13:17Z</time>
      </trkpt>
      <trkpt lat="44.22244" lon="7.10789">
        <ele>2205</ele>
        <time>2013-09-20T08:13:27Z</time>
      </trkpt>
      <trkpt lat="44.22253" lon="7.1078">
        <ele>2204</ele>
        <time>2013-09-20T08:13:30Z</time>
      </trkpt>
      <trkpt lat="44.22275" lon="7.10771">
        <ele>2203</ele>
        <time>2013-09-20T08:13:34Z</time>
      </trkpt>
      <trkpt lat="44.22297" lon="7.10771">
        <ele>2201</ele>
        <time>2013-09-20T08:13:39Z</time>
      </trkpt>
      <trkpt lat="44.22298" lon="7.1077">
        <ele>2200</ele>
        <time>2013-09-20T08:13:42Z</time>
      </trkpt>
      <trkpt lat="44.22302" lon="7.10771">
        <ele>2199</ele>
        <time>2013-09-20T08:13:47Z</time>
      </trkpt>
      <trkpt lat="44.22304" lon="7.10769">
        <ele>2198</ele>
        <time>2013-09-20T08:13:52Z</time>
      </trkpt>
      <trkpt lat="44.22327" lon="7.10749">
        <ele>2194</ele>
        <time>2013-09-20T08:14:08Z</time>
      </trkpt>
      <trkpt lat="44.22347" lon="7.10717">
        <ele>2191</ele>
        <time>2013-09-20T08:14:18Z</time>
      </trkpt>
      <trkpt lat="44.22357" lon="7.10699">
        <ele>2190</ele>
        <time>2013-09-20T08:14:24Z</time>
      </trkpt>
      <trkpt lat="44.22347" lon="7.1069">
        <ele>2188</ele>
        <time>2013-09-20T08:14:33Z</time>
      </trkpt>
      <trkpt lat="44.22326" lon="7.10679">
        <ele>2185</ele>
        <time>2013-09-20T08:14:49Z</time>
      </trkpt>
      <trkpt lat="44.22314" lon="7.10672">
        <ele>2184</ele>
        <time>2013-09-20T08:14:58Z</time>
      </trkpt>
      <trkpt lat="44.22313" lon="7.10664">
        <ele>2184</ele>
        <time>2013-09-20T08:15:02Z</time>
      </trkpt>
      <trkpt lat="44.22318" lon="7.1066">
        <ele>2183</ele>
        <time>2013-09-20T08:15:06Z</time>
      </trkpt>
      <trkpt lat="44.22329" lon="7.10655">
        <ele>2182</ele>
        <time>2013-09-20T08:15:14Z</time>
      </trkpt>
      <trkpt lat="44.22331" lon="7.10646">
        <ele>2182</ele>
        <time>2013-09-20T08:15:18Z</time>
      </trkpt>
      <trkpt lat="44.22327" lon="7.10639">
        <ele>2181</ele>
        <time>2013-09-20T08:15:22Z</time>
      </trkpt>
      <trkpt lat="44.22308" lon="7.10638">
        <ele>2180</ele>
        <time>2013-09-20T08:15:36Z</time>
      </trkpt>
      <trkpt lat="44.22284" lon="7.10643">
        <ele>2180</ele>
        <time>2013-09-20T08:15:55Z</time>
      </trkpt>
      <trkpt lat="44.22271" lon="7.10653">
        <ele>2179</ele>
        <time>2013-09-20T08:16:08Z</time>
      </trkpt>
      <trkpt lat="44.22258" lon="7.10657">
        <ele>2180</ele>
        <time>2013-09-20T08:16:19Z</time>
      </trkpt>
      <trkpt lat="44.22255" lon="7.10657">
        <ele>2180</ele>
        <time>2013-09-20T08:16:25Z</time>
      </trkpt>
      <trkpt lat="44.22249" lon="7.10659">
        <ele>2181</ele>
        <time>2013-09-20T08:16:37Z</time>
      </trkpt>
      <trkpt lat="44.22232" lon="7.10663">
        <ele>2181</ele>
        <time>2013-09-20T08:16:50Z</time>
      </trkpt>
      <trkpt lat="44.22217" lon="7.10682">
        <ele>2183</ele>
        <time>2013-09-20T08:17:05Z</time>
      </trkpt>
      <trkpt lat="44.22205" lon="7.10703">
        <ele>2183</ele>
        <time>2013-09-20T08:17:17Z</time>
      </trkpt>
      <trkpt lat="44.22199" lon="7.1072">
        <ele>2184</ele>
        <time>2013-09-20T08:17:25Z</time>
      </trkpt>
      <trkpt lat="44.22202" lon="7.10742">
        <ele>2185</ele>
        <time>2013-09-20T08:17:37Z</time>
      </trkpt>
      <trkpt lat="44.22202" lon="7.10755">
        <ele>2186</ele>
        <time>2013-09-20T08:17:43Z</time>
      </trkpt>
      <trkpt lat="44.22189" lon="7.10778">
        <ele>2188</ele>
        <time>2013-09-20T08:17:59Z</time>
      </trkpt>
      <trkpt lat="44.22179" lon="7.10792">
        <ele>2189</ele>
        <time>2013-09-20T08:18:11Z</time>
      </trkpt>
      <trkpt lat="44.22168" lon="7.10813">
        <ele>2192</ele>
        <time>2013-09-20T08:18:27Z</time>
      </trkpt>
      <trkpt lat="44.22162" lon="7.10838">
        <ele>2194</ele>
        <time>2013-09-20T08:18:43Z</time>
      </trkpt>
      <trkpt lat="44.22153" lon="7.10859">
        <ele>2197</ele>
        <time>2013-09-20T08:18:58Z</time>
      </trkpt>
      <trkpt lat="44.22143" lon="7.1087">
        <ele>2198</ele>
        <time>2013-09-20T08:19:09Z</time>
      </trkpt>
      <trkpt lat="44.22141" lon="7.10881">
        <ele>2200</ele>
        <time>2013-09-20T08:19:18Z</time>
      </trkpt>
      <trkpt lat="44.22142" lon="7.10887">
        <ele>2201</ele>
        <time>2013-09-20T08:19:29Z</time>
      </trkpt>
      <trkpt lat="44.22144" lon="7.10892">
        <ele>2203</ele>
        <time>2013-09-20T08:19:36Z</time>
      </trkpt>
      <trkpt lat="44.22136" lon="7.10902">
        <ele>2204</ele>
        <time>2013-09-20T08:19:47Z</time>
      </trkpt>
      <trkpt lat="44.22131" lon="7.10895">
        <ele>2205</ele>
        <time>2013-09-20T08:19:52Z</time>
      </trkpt>
      <trkpt lat="44.22128" lon="7.10883">
        <ele>2206</ele>
        <time>2013-09-20T08:19:59Z</time>
      </trkpt>
      <trkpt lat="44.2213" lon="7.10862">
        <ele>2208</ele>
        <time>2013-09-20T08:20:10Z</time>
      </trkpt>
      <trkpt lat="44.22134" lon="7.10846">
        <ele>2209</ele>
        <time>2013-09-20T08:20:18Z</time>
      </trkpt>
      <trkpt lat="44.2214" lon="7.10815">
        <ele>2211</ele>
        <time>2013-09-20T08:20:33Z</time>
      </trkpt>
      <trkpt lat="44.22138" lon="7.10805">
        <ele>2212</ele>
        <time>2013-09-20T08:20:38Z</time>
      </trkpt>
      <trkpt lat="44.22129" lon="7.10798">
        <ele>2213</ele>
        <time>2013-09-20T08:20:45Z</time>
      </trkpt>
      <trkpt lat="44.22118" lon="7.10774">
        <ele>2215</ele>
        <time>2013-09-20T08:20:59Z</time>
      </trkpt>
      <trkpt lat="44.22107" lon="7.10748">
        <ele>2218</ele>
        <time>2013-09-20T08:21:15Z</time>
      </trkpt>
      <trkpt lat="44.22112" lon="7.10737">
        <ele>2219</ele>
        <time>2013-09-20T08:21:22Z</time>
      </trkpt>
      <trkpt lat="44.22123" lon="7.10729">
        <ele>2221</ele>
        <time>2013-09-20T08:21:32Z</time>
      </trkpt>
      <trkpt lat="44.22125" lon="7.1072">
        <ele>2222</ele>
        <time>2013-09-20T08:21:38Z</time>
      </trkpt>
      <trkpt lat="44.22113" lon="7.10714">
        <ele>2224</ele>
        <time>2013-09-20T08:21:49Z</time>
      </trkpt>
      <trkpt lat="44.22104" lon="7.10714">
        <ele>2225</ele>
        <time>2013-09-20T08:21:55Z</time>
      </trkpt>
      <trkpt lat="44.22081" lon="7.10715">
        <ele>2227</ele>
        <time>2013-09-20T08:22:11Z</time>
      </trkpt>
      <trkpt lat="44.22063" lon="7.10711">
        <ele>2229</ele>
        <time>2013-09-20T08:22:24Z</time>
      </trkpt>
      <trkpt lat="44.22046" lon="7.10705">
        <ele>2231</ele>
        <time>2013-09-20T08:22:37Z</time>
      </trkpt>
      <trkpt lat="44.22025" lon="7.10693">
        <ele>2234</ele>
        <time>2013-09-20T08:22:54Z</time>
      </trkpt>
      <trkpt lat="44.22009" lon="7.10681">
        <ele>2236</ele>
        <time>2013-09-20T08:23:09Z</time>
      </trkpt>
      <trkpt lat="44.21997" lon="7.10671">
        <ele>2238</ele>
        <time>2013-09-20T08:23:20Z</time>
      </trkpt>
      <trkpt lat="44.21993" lon="7.1067">
        <ele>2239</ele>
        <time>2013-09-20T08:23:24Z</time>
      </trkpt>
      <trkpt lat="44.2199" lon="7.10665">
        <ele>2241</ele>
        <time>2013-09-20T08:23:36Z</time>
      </trkpt>
      <trkpt lat="44.21983" lon="7.1064">
        <ele>2243</ele>
        <time>2013-09-20T08:23:50Z</time>
      </trkpt>
      <trkpt lat="44.2199" lon="7.10614">
        <ele>2245</ele>
        <time>2013-09-20T08:24:06Z</time>
      </trkpt>
      <trkpt lat="44.22002" lon="7.10592">
        <ele>2247</ele>
        <time>2013-09-20T08:24:21Z</time>
      </trkpt>
      <trkpt lat="44.22018" lon="7.10572">
        <ele>2250</ele>
        <time>2013-09-20T08:24:37Z</time>
      </trkpt>
      <trkpt lat="44.22038" lon="7.10558">
        <ele>2253</ele>
        <time>2013-09-20T08:24:54Z</time>
      </trkpt>
      <trkpt lat="44.22045" lon="7.10547">
        <ele>2254</ele>
        <time>2013-09-20T08:25:02Z</time>
      </trkpt>
      <trkpt lat="44.22034" lon="7.10545">
        <ele>2255</ele>
        <time>2013-09-20T08:25:11Z</time>
      </trkpt>
      <trkpt lat="44.22025" lon="7.10548">
        <ele>2257</ele>
        <time>2013-09-20T08:25:19Z</time>
      </trkpt>
      <trkpt lat="44.22021" lon="7.10548">
        <ele>2258</ele>
        <time>2013-09-20T08:25:23Z</time>
      </trkpt>
      <trkpt lat="44.22018" lon="7.10552">
        <ele>2259</ele>
        <time>2013-09-20T08:25:32Z</time>
      </trkpt>
      <trkpt lat="44.22013" lon="7.10549">
        <ele>2260</ele>
        <time>2013-09-20T08:25:39Z</time>
      </trkpt>
      <trkpt lat="44.22012" lon="7.10545">
        <ele>2262</ele>
        <time>2013-09-20T08:25:46Z</time>
      </trkpt>
      <trkpt lat="44.22015" lon="7.10539">
        <ele>2262</ele>
        <time>2013-09-20T08:25:50Z</time>
      </trkpt>
      <trkpt lat="44.22032" lon="7.10533">
        <ele>2264</ele>
        <time>2013-09-20T08:26:01Z</time>
      </trkpt>
      <trkpt lat="44.22036" lon="7.10524">
        <ele>2265</ele>
        <time>2013-09-20T08:26:07Z</time>
      </trkpt>
      <trkpt lat="44.22028" lon="7.10525">
        <ele>2266</ele>
        <time>2013-09-20T08:26:14Z</time>
      </trkpt>
      <trkpt lat="44.22011" lon="7.10531">
        <ele>2268</ele>
        <time>2013-09-20T08:26:27Z</time>
      </trkpt>
      <trkpt lat="44.21989" lon="7.10536">
        <ele>2271</ele>
        <time>2013-09-20T08:26:43Z</time>
      </trkpt>
      <trkpt lat="44.21968" lon="7.10549">
        <ele>2273</ele>
        <time>2013-09-20T08:26:59Z</time>
      </trkpt>
      <trkpt lat="44.21955" lon="7.10561">
        <ele>2275</ele>
        <time>2013-09-20T08:27:10Z</time>
      </trkpt>
      <trkpt lat="44.21952" lon="7.10548">
        <ele>2276</ele>
        <time>2013-09-20T08:27:18Z</time>
      </trkpt>
      <trkpt lat="44.21961" lon="7.10543">
        <ele>2277</ele>
        <time>2013-09-20T08:27:24Z</time>
      </trkpt>
      <trkpt lat="44.21975" lon="7.10525">
        <ele>2279</ele>
        <time>2013-09-20T08:27:37Z</time>
      </trkpt>
      <trkpt lat="44.21984" lon="7.10512">
        <ele>2281</ele>
        <time>2013-09-20T08:27:46Z</time>
      </trkpt>
      <trkpt lat="44.21998" lon="7.10499">
        <ele>2283</ele>
        <time>2013-09-20T08:27:58Z</time>
      </trkpt>
      <trkpt lat="44.21993" lon="7.10494">
        <ele>2284</ele>
        <time>2013-09-20T08:28:03Z</time>
      </trkpt>
      <trkpt lat="44.21985" lon="7.10502">
        <ele>2285</ele>
        <time>2013-09-20T08:28:09Z</time>
      </trkpt>
      <trkpt lat="44.2196" lon="7.10519">
        <ele>2287</ele>
        <time>2013-09-20T08:28:25Z</time>
      </trkpt>
      <trkpt lat="44.21943" lon="7.10535">
        <ele>2289</ele>
        <time>2013-09-20T08:28:38Z</time>
      </trkpt>
      <trkpt lat="44.21939" lon="7.10533">
        <ele>2289</ele>
        <time>2013-09-20T08:28:40Z</time>
      </trkpt>
      <trkpt lat="44.21944" lon="7.10521">
        <ele>2290</ele>
        <time>2013-09-20T08:28:47Z</time>
      </trkpt>
      <trkpt lat="44.21967" lon="7.10497">
        <ele>2292</ele>
        <time>2013-09-20T08:29:03Z</time>
      </trkpt>
      <trkpt lat="44.2198" lon="7.1048">
        <ele>2293</ele>
        <time>2013-09-20T08:29:13Z</time>
      </trkpt>
      <trkpt lat="44.21979" lon="7.10471">
        <ele>2294</ele>
        <time>2013-09-20T08:29:18Z</time>
      </trkpt>
      <trkpt lat="44.21964" lon="7.1047">
        <ele>2295</ele>
        <time>2013-09-20T08:29:29Z</time>
      </trkpt>
      <trkpt lat="44.21943" lon="7.10472">
        <ele>2298</ele>
        <time>2013-09-20T08:29:46Z</time>
      </trkpt>
      <trkpt lat="44.21929" lon="7.10468">
        <ele>2300</ele>
        <time>2013-09-20T08:29:57Z</time>
      </trkpt>
      <trkpt lat="44.21929" lon="7.1045">
        <ele>2302</ele>
        <time>2013-09-20T08:30:08Z</time>
      </trkpt>
      <trkpt lat="44.21934" lon="7.10442">
        <ele>2304</ele>
        <time>2013-09-20T08:30:21Z</time>
      </trkpt>
      <trkpt lat="44.21929" lon="7.10439">
        <ele>2306</ele>
        <time>2013-09-20T08:30:32Z</time>
      </trkpt>
      <trkpt lat="44.21926" lon="7.10433">
        <ele>2309</ele>
        <time>2013-09-20T08:31:42Z</time>
      </trkpt>
      <trkpt lat="44.21926" lon="7.10431">
        <ele>2309</ele>
        <time>2013-09-20T08:31:46Z</time>
      </trkpt>
      <trkpt lat="44.21927" lon="7.10436">
        <ele>2310</ele>
        <time>2013-09-20T08:31:54Z</time>
      </trkpt>
      <trkpt lat="44.21935" lon="7.10434">
        <ele>2312</ele>
        <time>2013-09-20T08:34:59Z</time>
      </trkpt>
      <trkpt lat="44.21937" lon="7.10428">
        <ele>2312</ele>
        <time>2013-09-20T08:35:03Z</time>
      </trkpt>
      <trkpt lat="44.21939" lon="7.10416">
        <ele>2313</ele>
        <time>2013-09-20T08:35:10Z</time>
      </trkpt>
      <trkpt lat="44.21951" lon="7.10408">
        <ele>2313</ele>
        <time>2013-09-20T08:35:22Z</time>
      </trkpt>
      <trkpt lat="44.21971" lon="7.10413">
        <ele>2314</ele>
        <time>2013-09-20T08:35:37Z</time>
      </trkpt>
      <trkpt lat="44.21974" lon="7.10415">
        <ele>2315</ele>
        <time>2013-09-20T08:35:42Z</time>
      </trkpt>
      <trkpt lat="44.21987" lon="7.10418">
        <ele>2316</ele>
        <time>2013-09-20T08:35:57Z</time>
      </trkpt>
      <trkpt lat="44.21982" lon="7.10401">
        <ele>2318</ele>
        <time>2013-09-20T08:36:10Z</time>
      </trkpt>
      <trkpt lat="44.2197" lon="7.10385">
        <ele>2320</ele>
        <time>2013-09-20T08:36:24Z</time>
      </trkpt>
      <trkpt lat="44.21972" lon="7.10374">
        <ele>2321</ele>
        <time>2013-09-20T08:36:31Z</time>
      </trkpt>
      <trkpt lat="44.21978" lon="7.10374">
        <ele>2322</ele>
        <time>2013-09-20T08:36:36Z</time>
      </trkpt>
      <trkpt lat="44.21993" lon="7.10383">
        <ele>2324</ele>
        <time>2013-09-20T08:36:50Z</time>
      </trkpt>
      <trkpt lat="44.22009" lon="7.10378">
        <ele>2326</ele>
        <time>2013-09-20T08:37:04Z</time>
      </trkpt>
      <trkpt lat="44.2203" lon="7.10368">
        <ele>2328</ele>
        <time>2013-09-20T08:37:19Z</time>
      </trkpt>
      <trkpt lat="44.22049" lon="7.10384">
        <ele>2330</ele>
        <time>2013-09-20T08:37:33Z</time>
      </trkpt>
      <trkpt lat="44.22079" lon="7.10384">
        <ele>2332</ele>
        <time>2013-09-20T08:37:47Z</time>
      </trkpt>
      <trkpt lat="44.22086" lon="7.10376">
        <ele>2332</ele>
        <time>2013-09-20T08:37:52Z</time>
      </trkpt>
      <trkpt lat="44.22081" lon="7.10358">
        <ele>2333</ele>
        <time>2013-09-20T08:37:58Z</time>
      </trkpt>
      <trkpt lat="44.22097" lon="7.10324">
        <ele>2335</ele>
        <time>2013-09-20T08:38:11Z</time>
      </trkpt>
      <trkpt lat="44.22115" lon="7.10289">
        <ele>2337</ele>
        <time>2013-09-20T08:38:27Z</time>
      </trkpt>
      <trkpt lat="44.22114" lon="7.10255">
        <ele>2338</ele>
        <time>2013-09-20T08:38:38Z</time>
      </trkpt>
      <trkpt lat="44.22112" lon="7.10228">
        <ele>2338</ele>
        <time>2013-09-20T08:38:44Z</time>
      </trkpt>
      <trkpt lat="44.22132" lon="7.10206">
        <ele>2339</ele>
        <time>2013-09-20T08:38:58Z</time>
      </trkpt>
      <trkpt lat="44.22144" lon="7.10166">
        <ele>2341</ele>
        <time>2013-09-20T08:39:15Z</time>
      </trkpt>
      <trkpt lat="44.22155" lon="7.10137">
        <ele>2343</ele>
        <time>2013-09-20T08:39:27Z</time>
      </trkpt>
      <trkpt lat="44.22174" lon="7.10112">
        <ele>2345</ele>
        <time>2013-09-20T08:39:42Z</time>
      </trkpt>
      <trkpt lat="44.22191" lon="7.10098">
        <ele>2346</ele>
        <time>2013-09-20T08:39:56Z</time>
      </trkpt>
      <trkpt lat="44.22216" lon="7.10094">
        <ele>2348</ele>
        <time>2013-09-20T08:40:14Z</time>
      </trkpt>
      <trkpt lat="44.22235" lon="7.10098">
        <ele>2349</ele>
        <time>2013-09-20T08:40:27Z</time>
      </trkpt>
      <trkpt lat="44.22246" lon="7.10103">
        <ele>2351</ele>
        <time>2013-09-20T08:40:34Z</time>
      </trkpt>
      <trkpt lat="44.22249" lon="7.10097">
        <ele>2351</ele>
        <time>2013-09-20T08:40:39Z</time>
      </trkpt>
      <trkpt lat="44.22244" lon="7.10091">
        <ele>2352</ele>
        <time>2013-09-20T08:40:45Z</time>
      </trkpt>
      <trkpt lat="44.22227" lon="7.10084">
        <ele>2355</ele>
        <time>2013-09-20T08:40:59Z</time>
      </trkpt>
      <trkpt lat="44.2221" lon="7.10081">
        <ele>2358</ele>
        <time>2013-09-20T08:41:14Z</time>
      </trkpt>
      <trkpt lat="44.22209" lon="7.10081">
        <ele>2359</ele>
        <time>2013-09-20T08:41:18Z</time>
      </trkpt>
      <trkpt lat="44.22198" lon="7.10078">
        <ele>2362</ele>
        <time>2013-09-20T08:41:34Z</time>
      </trkpt>
      <trkpt lat="44.22192" lon="7.10076">
        <ele>2363</ele>
        <time>2013-09-20T08:41:42Z</time>
      </trkpt>
      <trkpt lat="44.22196" lon="7.10068">
        <ele>2365</ele>
        <time>2013-09-20T08:41:54Z</time>
      </trkpt>
      <trkpt lat="44.22212" lon="7.10068">
        <ele>2367</ele>
        <time>2013-09-20T08:42:11Z</time>
      </trkpt>
      <trkpt lat="44.22226" lon="7.10059">
        <ele>2369</ele>
        <time>2013-09-20T08:42:29Z</time>
      </trkpt>
      <trkpt lat="44.2222" lon="7.10046">
        <ele>2371</ele>
        <time>2013-09-20T08:42:44Z</time>
      </trkpt>
      <trkpt lat="44.22209" lon="7.10025">
        <ele>2371</ele>
        <time>2013-09-20T08:42:54Z</time>
      </trkpt>
      <trkpt lat="44.22191" lon="7.1">
        <ele>2371</ele>
        <time>2013-09-20T08:43:03Z</time>
      </trkpt>
      <trkpt lat="44.22162" lon="7.09976">
        <ele>2371</ele>
        <time>2013-09-20T08:43:12Z</time>
      </trkpt>
      <trkpt lat="44.22142" lon="7.09959">
        <ele>2371</ele>
        <time>2013-09-20T08:43:17Z</time>
      </trkpt>
      <trkpt lat="44.22132" lon="7.09939">
        <ele>2371</ele>
        <time>2013-09-20T08:43:21Z</time>
      </trkpt>
      <trkpt lat="44.22111" lon="7.09911">
        <ele>2371</ele>
        <time>2013-09-20T08:43:26Z</time>
      </trkpt>
      <trkpt lat="44.22105" lon="7.09866">
        <ele>2370</ele>
        <time>2013-09-20T08:43:32Z</time>
      </trkpt>
      <trkpt lat="44.2211" lon="7.09843">
        <ele>2370</ele>
        <time>2013-09-20T08:43:36Z</time>
      </trkpt>
      <trkpt lat="44.22114" lon="7.09828">
        <ele>2370</ele>
        <time>2013-09-20T08:43:40Z</time>
      </trkpt>
      <trkpt lat="44.22121" lon="7.09792">
        <ele>2369</ele>
        <time>2013-09-20T08:43:48Z</time>
      </trkpt>
      <trkpt lat="44.22134" lon="7.09768">
        <ele>2368</ele>
        <time>2013-09-20T08:43:59Z</time>
      </trkpt>
      <trkpt lat="44.22141" lon="7.0976">
        <ele>2368</ele>
        <time>2013-09-20T08:44:04Z</time>
      </trkpt>
      <trkpt lat="44.22146" lon="7.09738">
        <ele>2367</ele>
        <time>2013-09-20T08:44:15Z</time>
      </trkpt>
      <trkpt lat="44.22152" lon="7.09715">
        <ele>2366</ele>
        <time>2013-09-20T08:44:26Z</time>
      </trkpt>
      <trkpt lat="44.22169" lon="7.09703">
        <ele>2366</ele>
        <time>2013-09-20T08:44:40Z</time>
      </trkpt>
      <trkpt lat="44.22175" lon="7.09691">
        <ele>2365</ele>
        <time>2013-09-20T08:44:51Z</time>
      </trkpt>
      <trkpt lat="44.22178" lon="7.09688">
        <ele>2365</ele>
        <time>2013-09-20T08:45:15Z</time>
      </trkpt>
      <trkpt lat="44.2218" lon="7.09679">
        <ele>2365</ele>
        <time>2013-09-20T08:45:26Z</time>
      </trkpt>
      <trkpt lat="44.22184" lon="7.09665">
        <ele>2365</ele>
        <time>2013-09-20T08:45:38Z</time>
      </trkpt>
      <trkpt lat="44.22187" lon="7.09656">
        <ele>2365</ele>
        <time>2013-09-20T08:45:46Z</time>
      </trkpt>
      <trkpt lat="44.22189" lon="7.09648">
        <ele>2364</ele>
        <time>2013-09-20T08:45:53Z</time>
      </trkpt>
      <trkpt lat="44.22189" lon="7.0963">
        <ele>2365</ele>
        <time>2013-09-20T08:46:05Z</time>
      </trkpt>
      <trkpt lat="44.22191" lon="7.09616">
        <ele>2365</ele>
        <time>2013-09-20T08:46:16Z</time>
      </trkpt>
      <trkpt lat="44.22192" lon="7.09609">
        <ele>2365</ele>
        <time>2013-09-20T08:46:22Z</time>
      </trkpt>
      <trkpt lat="44.22195" lon="7.09598">
        <ele>2366</ele>
        <time>2013-09-20T08:46:33Z</time>
      </trkpt>
      <trkpt lat="44.22198" lon="7.09586">
        <ele>2367</ele>
        <time>2013-09-20T08:46:40Z</time>
      </trkpt>
      <trkpt lat="44.22202" lon="7.09558">
        <ele>2368</ele>
        <time>2013-09-20T08:46:55Z</time>
      </trkpt>
      <trkpt lat="44.22213" lon="7.09548">
        <ele>2369</ele>
        <time>2013-09-20T08:47:04Z</time>
      </trkpt>
      <trkpt lat="44.22224" lon="7.09542">
        <ele>2370</ele>
        <time>2013-09-20T08:47:12Z</time>
      </trkpt>
      <trkpt lat="44.22231" lon="7.09537">
        <ele>2370</ele>
        <time>2013-09-20T08:47:18Z</time>
      </trkpt>
      <trkpt lat="44.22238" lon="7.0953">
        <ele>2371</ele>
        <time>2013-09-20T08:47:24Z</time>
      </trkpt>
      <trkpt lat="44.22241" lon="7.09525">
        <ele>2372</ele>
        <time>2013-09-20T08:47:34Z</time>
      </trkpt>
      <trkpt lat="44.22253" lon="7.09512">
        <ele>2373</ele>
        <time>2013-09-20T08:47:51Z</time>
      </trkpt>
      <trkpt lat="44.22268" lon="7.09511">
        <ele>2375</ele>
        <time>2013-09-20T08:48:07Z</time>
      </trkpt>
      <trkpt lat="44.22282" lon="7.09511">
        <ele>2377</ele>
        <time>2013-09-20T08:48:21Z</time>
      </trkpt>
      <trkpt lat="44.22299" lon="7.09503">
        <ele>2378</ele>
        <time>2013-09-20T08:48:33Z</time>
      </trkpt>
      <trkpt lat="44.22314" lon="7.09504">
        <ele>2379</ele>
        <time>2013-09-20T08:48:44Z</time>
      </trkpt>
      <trkpt lat="44.22326" lon="7.09504">
        <ele>2381</ele>
        <time>2013-09-20T08:49:00Z</time>
      </trkpt>
      <trkpt lat="44.22337" lon="7.09506">
        <ele>2382</ele>
        <time>2013-09-20T08:49:14Z</time>
      </trkpt>
      <trkpt lat="44.22351" lon="7.0951">
        <ele>2385</ele>
        <time>2013-09-20T08:49:30Z</time>
      </trkpt>
      <trkpt lat="44.2237" lon="7.09506">
        <ele>2387</ele>
        <time>2013-09-20T08:49:43Z</time>
      </trkpt>
      <trkpt lat="44.22379" lon="7.09498">
        <ele>2389</ele>
        <time>2013-09-20T08:49:53Z</time>
      </trkpt>
      <trkpt lat="44.22375" lon="7.0949">
        <ele>2389</ele>
        <time>2013-09-20T08:49:59Z</time>
      </trkpt>
      <trkpt lat="44.22358" lon="7.09479">
        <ele>2390</ele>
        <time>2013-09-20T08:50:05Z</time>
      </trkpt>
      <trkpt lat="44.22328" lon="7.09463">
        <ele>2390</ele>
        <time>2013-09-20T08:50:16Z</time>
      </trkpt>
      <trkpt lat="44.2229" lon="7.09442">
        <ele>2390</ele>
        <time>2013-09-20T08:50:25Z</time>
      </trkpt>
      <trkpt lat="44.22272" lon="7.09436">
        <ele>2390</ele>
        <time>2013-09-20T08:50:31Z</time>
      </trkpt>
      <trkpt lat="44.22257" lon="7.09421">
        <ele>2390</ele>
        <time>2013-09-20T08:50:37Z</time>
      </trkpt>
      <trkpt lat="44.22236" lon="7.09409">
        <ele>2391</ele>
        <time>2013-09-20T08:50:47Z</time>
      </trkpt>
      <trkpt lat="44.22226" lon="7.09384">
        <ele>2391</ele>
        <time>2013-09-20T08:50:57Z</time>
      </trkpt>
      <trkpt lat="44.22223" lon="7.09371">
        <ele>2392</ele>
        <time>2013-09-20T08:51:02Z</time>
      </trkpt>
      <trkpt lat="44.22221" lon="7.09369">
        <ele>2392</ele>
        <time>2013-09-20T08:51:06Z</time>
      </trkpt>
      <trkpt lat="44.22217" lon="7.09364">
        <ele>2393</ele>
        <time>2013-09-20T08:51:11Z</time>
      </trkpt>
      <trkpt lat="44.22206" lon="7.09356">
        <ele>2394</ele>
        <time>2013-09-20T08:51:23Z</time>
      </trkpt>
      <trkpt lat="44.22198" lon="7.09338">
        <ele>2395</ele>
        <time>2013-09-20T08:51:34Z</time>
      </trkpt>
      <trkpt lat="44.2219" lon="7.09315">
        <ele>2396</ele>
        <time>2013-09-20T08:51:48Z</time>
      </trkpt>
      <trkpt lat="44.22183" lon="7.09291">
        <ele>2398</ele>
        <time>2013-09-20T08:52:02Z</time>
      </trkpt>
      <trkpt lat="44.22182" lon="7.09281">
        <ele>2400</ele>
        <time>2013-09-20T08:52:17Z</time>
      </trkpt>
      <trkpt lat="44.22181" lon="7.09273">
        <ele>2401</ele>
        <time>2013-09-20T08:52:28Z</time>
      </trkpt>
      <trkpt lat="44.22179" lon="7.09263">
        <ele>2402</ele>
        <time>2013-09-20T08:52:39Z</time>
      </trkpt>
      <trkpt lat="44.22178" lon="7.09253">
        <ele>2404</ele>
        <time>2013-09-20T08:52:52Z</time>
      </trkpt>
      <trkpt lat="44.22177" lon="7.09248">
        <ele>2404</ele>
        <time>2013-09-20T08:52:57Z</time>
      </trkpt>
      <trkpt lat="44.22173" lon="7.09231">
        <ele>2406</ele>
        <time>2013-09-20T08:53:12Z</time>
      </trkpt>
      <trkpt lat="44.22171" lon="7.09224">
        <ele>2407</ele>
        <time>2013-09-20T08:53:19Z</time>
      </trkpt>
      <trkpt lat="44.22169" lon="7.09206">
        <ele>2408</ele>
        <time>2013-09-20T08:53:35Z</time>
      </trkpt>
      <trkpt lat="44.22167" lon="7.09193">
        <ele>2410</ele>
        <time>2013-09-20T08:53:47Z</time>
      </trkpt>
      <trkpt lat="44.22165" lon="7.09187">
        <ele>2410</ele>
        <time>2013-09-20T08:53:54Z</time>
      </trkpt>
      <trkpt lat="44.22164" lon="7.09174">
        <ele>2412</ele>
        <time>2013-09-20T08:54:07Z</time>
      </trkpt>
      <trkpt lat="44.22162" lon="7.09163">
        <ele>2413</ele>
        <time>2013-09-20T08:54:17Z</time>
      </trkpt>
      <trkpt lat="44.22161" lon="7.09153">
        <ele>2414</ele>
        <time>2013-09-20T08:54:25Z</time>
      </trkpt>
      <trkpt lat="44.22169" lon="7.09132">
        <ele>2416</ele>
        <time>2013-09-20T08:54:42Z</time>
      </trkpt>
      <trkpt lat="44.22182" lon="7.09116">
        <ele>2418</ele>
        <time>2013-09-20T08:54:58Z</time>
      </trkpt>
      <trkpt lat="44.22192" lon="7.09112">
        <ele>2420</ele>
        <time>2013-09-20T08:55:10Z</time>
      </trkpt>
      <trkpt lat="44.22188" lon="7.09109">
        <ele>2421</ele>
        <time>2013-09-20T08:55:18Z</time>
      </trkpt>
      <trkpt lat="44.22179" lon="7.09102">
        <ele>2424</ele>
        <time>2013-09-20T08:55:34Z</time>
      </trkpt>
      <trkpt lat="44.22172" lon="7.09097">
        <ele>2427</ele>
        <time>2013-09-20T08:55:49Z</time>
      </trkpt>
      <trkpt lat="44.22172" lon="7.09092">
        <ele>2430</ele>
        <time>2013-09-20T08:56:02Z</time>
      </trkpt>
      <trkpt lat="44.22178" lon="7.09097">
        <ele>2431</ele>
        <time>2013-09-20T08:56:16Z</time>
      </trkpt>
      <trkpt lat="44.22279" lon="7.08819">
        <ele>2415</ele>
        <time>2013-09-20T09:10:07Z</time>
      </trkpt>
      <trkpt lat="44.22288" lon="7.08789">
        <ele>2412</ele>
        <time>2013-09-20T09:11:09Z</time>
      </trkpt>
      <trkpt lat="44.22294" lon="7.08768">
        <ele>2412</ele>
        <time>2013-09-20T09:11:15Z</time>
      </trkpt>
      <trkpt lat="44.22301" lon="7.0876">
        <ele>2412</ele>
        <time>2013-09-20T09:11:24Z</time>
      </trkpt>
      <trkpt lat="44.22305" lon="7.08752">
        <ele>2412</ele>
        <time>2013-09-20T09:11:29Z</time>
      </trkpt>
      <trkpt lat="44.22315" lon="7.08744">
        <ele>2411</ele>
        <time>2013-09-20T09:11:33Z</time>
      </trkpt>
      <trkpt lat="44.22326" lon="7.08748">
        <ele>2411</ele>
        <time>2013-09-20T09:11:36Z</time>
      </trkpt>
      <trkpt lat="44.22337" lon="7.08746">
        <ele>2411</ele>
        <time>2013-09-20T09:11:40Z</time>
      </trkpt>
      <trkpt lat="44.22363" lon="7.0873">
        <ele>2410</ele>
        <time>2013-09-20T09:11:49Z</time>
      </trkpt>
      <trkpt lat="44.22385" lon="7.08718">
        <ele>2409</ele>
        <time>2013-09-20T09:11:59Z</time>
      </trkpt>
      <trkpt lat="44.22399" lon="7.08709">
        <ele>2406</ele>
        <time>2013-09-20T09:12:21Z</time>
      </trkpt>
      <trkpt lat="44.22404" lon="7.08701">
        <ele>2406</ele>
        <time>2013-09-20T09:12:25Z</time>
      </trkpt>
      <trkpt lat="44.2242" lon="7.08684">
        <ele>2406</ele>
        <time>2013-09-20T09:12:32Z</time>
      </trkpt>
      <trkpt lat="44.22434" lon="7.08668">
        <ele>2405</ele>
        <time>2013-09-20T09:12:36Z</time>
      </trkpt>
      <trkpt lat="44.22448" lon="7.08653">
        <ele>2405</ele>
        <time>2013-09-20T09:12:43Z</time>
      </trkpt>
      <trkpt lat="44.2245" lon="7.08647">
        <ele>2404</ele>
        <time>2013-09-20T09:12:49Z</time>
      </trkpt>
      <trkpt lat="44.22453" lon="7.08644">
        <ele>2404</ele>
        <time>2013-09-20T09:12:54Z</time>
      </trkpt>
      <trkpt lat="44.22471" lon="7.08645">
        <ele>2405</ele>
        <time>2013-09-20T09:13:08Z</time>
      </trkpt>
      <trkpt lat="44.22435" lon="7.0864">
        <ele>2399</ele>
        <time>2013-09-20T09:13:49Z</time>
      </trkpt>
      <trkpt lat="44.22433" lon="7.08634">
        <ele>2398</ele>
        <time>2013-09-20T09:13:55Z</time>
      </trkpt>
      <trkpt lat="44.22433" lon="7.0863">
        <ele>2397</ele>
        <time>2013-09-20T09:13:58Z</time>
      </trkpt>
      <trkpt lat="44.22434" lon="7.08631">
        <ele>2395</ele>
        <time>2013-09-20T09:14:11Z</time>
      </trkpt>
      <trkpt lat="44.2244" lon="7.08628">
        <ele>2393</ele>
        <time>2013-09-20T09:14:22Z</time>
      </trkpt>
      <trkpt lat="44.22443" lon="7.08625">
        <ele>2391</ele>
        <time>2013-09-20T09:14:30Z</time>
      </trkpt>
      <trkpt lat="44.22447" lon="7.08615">
        <ele>2389</ele>
        <time>2013-09-20T09:14:40Z</time>
      </trkpt>
      <trkpt lat="44.22452" lon="7.08613">
        <ele>2388</ele>
        <time>2013-09-20T09:14:47Z</time>
      </trkpt>
      <trkpt lat="44.22456" lon="7.08607">
        <ele>2387</ele>
        <time>2013-09-20T09:14:56Z</time>
      </trkpt>
      <trkpt lat="44.22472" lon="7.08597">
        <ele>2385</ele>
        <time>2013-09-20T09:15:10Z</time>
      </trkpt>
      <trkpt lat="44.22493" lon="7.08595">
        <ele>2383</ele>
        <time>2013-09-20T09:15:21Z</time>
      </trkpt>
      <trkpt lat="44.22516" lon="7.08585">
        <ele>2382</ele>
        <time>2013-09-20T09:15:31Z</time>
      </trkpt>
      <trkpt lat="44.22546" lon="7.0857">
        <ele>2381</ele>
        <time>2013-09-20T09:15:41Z</time>
      </trkpt>
      <trkpt lat="44.22567" lon="7.0857">
        <ele>2380</ele>
        <time>2013-09-20T09:15:52Z</time>
      </trkpt>
      <trkpt lat="44.22573" lon="7.08569">
        <ele>2378</ele>
        <time>2013-09-20T09:16:07Z</time>
      </trkpt>
      <trkpt lat="44.22577" lon="7.08556">
        <ele>2377</ele>
        <time>2013-09-20T09:16:21Z</time>
      </trkpt>
      <trkpt lat="44.2258" lon="7.08556">
        <ele>2377</ele>
        <time>2013-09-20T09:16:33Z</time>
      </trkpt>
      <trkpt lat="44.22588" lon="7.08555">
        <ele>2376</ele>
        <time>2013-09-20T09:16:46Z</time>
      </trkpt>
      <trkpt lat="44.22595" lon="7.08556">
        <ele>2376</ele>
        <time>2013-09-20T09:16:55Z</time>
      </trkpt>
      <trkpt lat="44.22599" lon="7.08562">
        <ele>2376</ele>
        <time>2013-09-20T09:17:11Z</time>
      </trkpt>
      <trkpt lat="44.22604" lon="7.08569">
        <ele>2376</ele>
        <time>2013-09-20T09:17:24Z</time>
      </trkpt>
      <trkpt lat="44.22608" lon="7.0857">
        <ele>2376</ele>
        <time>2013-09-20T09:17:36Z</time>
      </trkpt>
      <trkpt lat="44.22614" lon="7.08567">
        <ele>2377</ele>
        <time>2013-09-20T09:17:49Z</time>
      </trkpt>
      <trkpt lat="44.2262" lon="7.0857">
        <ele>2377</ele>
        <time>2013-09-20T09:18:00Z</time>
      </trkpt>
      <trkpt lat="44.22625" lon="7.08567">
        <ele>2379</ele>
        <time>2013-09-20T09:18:14Z</time>
      </trkpt>
      <trkpt lat="44.22625" lon="7.08552">
        <ele>2381</ele>
        <time>2013-09-20T09:18:31Z</time>
      </trkpt>
      <trkpt lat="44.22631" lon="7.08556">
        <ele>2382</ele>
        <time>2013-09-20T09:18:43Z</time>
      </trkpt>
      <trkpt lat="44.22638" lon="7.08564">
        <ele>2384</ele>
        <time>2013-09-20T09:18:57Z</time>
      </trkpt>
      <trkpt lat="44.22643" lon="7.0856">
        <ele>2385</ele>
        <time>2013-09-20T09:19:09Z</time>
      </trkpt>
      <trkpt lat="44.22646" lon="7.08548">
        <ele>2387</ele>
        <time>2013-09-20T09:19:26Z</time>
      </trkpt>
      <trkpt lat="44.2265" lon="7.08543">
        <ele>2390</ele>
        <time>2013-09-20T09:19:40Z</time>
      </trkpt>
      <trkpt lat="44.22652" lon="7.08536">
        <ele>2392</ele>
        <time>2013-09-20T09:19:53Z</time>
      </trkpt>
      <trkpt lat="44.22653" lon="7.08529">
        <ele>2393</ele>
        <time>2013-09-20T09:20:04Z</time>
      </trkpt>
      <trkpt lat="44.22654" lon="7.08518">
        <ele>2395</ele>
        <time>2013-09-20T09:20:18Z</time>
      </trkpt>
      <trkpt lat="44.22657" lon="7.08507">
        <ele>2398</ele>
        <time>2013-09-20T09:20:34Z</time>
      </trkpt>
      <trkpt lat="44.22661" lon="7.08501">
        <ele>2400</ele>
        <time>2013-09-20T09:20:48Z</time>
      </trkpt>
      <trkpt lat="44.22667" lon="7.08496">
        <ele>2401</ele>
        <time>2013-09-20T09:20:58Z</time>
      </trkpt>
      <trkpt lat="44.22675" lon="7.08492">
        <ele>2403</ele>
        <time>2013-09-20T09:21:12Z</time>
      </trkpt>
      <trkpt lat="44.22679" lon="7.08483">
        <ele>2405</ele>
        <time>2013-09-20T09:21:24Z</time>
      </trkpt>
      <trkpt lat="44.22683" lon="7.08476">
        <ele>2406</ele>
        <time>2013-09-20T09:21:35Z</time>
      </trkpt>
      <trkpt lat="44.22695" lon="7.08461">
        <ele>2407</ele>
        <time>2013-09-20T09:21:43Z</time>
      </trkpt>
      <trkpt lat="44.22706" lon="7.08443">
        <ele>2408</ele>
        <time>2013-09-20T09:21:51Z</time>
      </trkpt>
      <trkpt lat="44.22719" lon="7.08432">
        <ele>2409</ele>
        <time>2013-09-20T09:21:58Z</time>
      </trkpt>
      <trkpt lat="44.22723" lon="7.08429">
        <ele>2409</ele>
        <time>2013-09-20T09:22:03Z</time>
      </trkpt>
      <trkpt lat="44.22727" lon="7.08421">
        <ele>2411</ele>
        <time>2013-09-20T09:22:13Z</time>
      </trkpt>
      <trkpt lat="44.22729" lon="7.08417">
        <ele>2412</ele>
        <time>2013-09-20T09:22:23Z</time>
      </trkpt>
      <trkpt lat="44.22738" lon="7.08407">
        <ele>2415</ele>
        <time>2013-09-20T09:22:39Z</time>
      </trkpt>
      <trkpt lat="44.22747" lon="7.08397">
        <ele>2417</ele>
        <time>2013-09-20T09:22:54Z</time>
      </trkpt>
      <trkpt lat="44.22756" lon="7.08389">
        <ele>2420</ele>
        <time>2013-09-20T09:23:10Z</time>
      </trkpt>
      <trkpt lat="44.22763" lon="7.08383">
        <ele>2422</ele>
        <time>2013-09-20T09:23:21Z</time>
      </trkpt>
      <trkpt lat="44.2277" lon="7.08376">
        <ele>2425</ele>
        <time>2013-09-20T09:23:35Z</time>
      </trkpt>
      <trkpt lat="44.22778" lon="7.08367">
        <ele>2427</ele>
        <time>2013-09-20T09:23:49Z</time>
      </trkpt>
      <trkpt lat="44.2278" lon="7.0836">
        <ele>2429</ele>
        <time>2013-09-20T09:23:59Z</time>
      </trkpt>
      <trkpt lat="44.22788" lon="7.08355">
        <ele>2431</ele>
        <time>2013-09-20T09:24:12Z</time>
      </trkpt>
      <trkpt lat="44.22793" lon="7.08345">
        <ele>2433</ele>
        <time>2013-09-20T09:24:26Z</time>
      </trkpt>
      <trkpt lat="44.22802" lon="7.08337">
        <ele>2436</ele>
        <time>2013-09-20T09:24:41Z</time>
      </trkpt>
      <trkpt lat="44.22816" lon="7.0833">
        <ele>2439</ele>
        <time>2013-09-20T09:25:00Z</time>
      </trkpt>
      <trkpt lat="44.22822" lon="7.08322">
        <ele>2441</ele>
        <time>2013-09-20T09:25:16Z</time>
      </trkpt>
      <trkpt lat="44.22827" lon="7.08318">
        <ele>2443</ele>
        <time>2013-09-20T09:25:28Z</time>
      </trkpt>
      <trkpt lat="44.22828" lon="7.08309">
        <ele>2445</ele>
        <time>2013-09-20T09:25:41Z</time>
      </trkpt>
      <trkpt lat="44.22837" lon="7.0831">
        <ele>2446</ele>
        <time>2013-09-20T09:25:56Z</time>
      </trkpt>
      <trkpt lat="44.22839" lon="7.083">
        <ele>2448</ele>
        <time>2013-09-20T09:26:09Z</time>
      </trkpt>
      <trkpt lat="44.22843" lon="7.08294">
        <ele>2450</ele>
        <time>2013-09-20T09:26:24Z</time>
      </trkpt>
      <trkpt lat="44.22846" lon="7.08285">
        <ele>2452</ele>
        <time>2013-09-20T09:26:37Z</time>
      </trkpt>
      <trkpt lat="44.22849" lon="7.08283">
        <ele>2453</ele>
        <time>2013-09-20T09:26:43Z</time>
      </trkpt>
      <trkpt lat="44.22859" lon="7.08287">
        <ele>2454</ele>
        <time>2013-09-20T09:26:58Z</time>
      </trkpt>
      <trkpt lat="44.22854" lon="7.0827">
        <ele>2456</ele>
        <time>2013-09-20T09:27:12Z</time>
      </trkpt>
      <trkpt lat="44.22856" lon="7.08268">
        <ele>2457</ele>
        <time>2013-09-20T09:27:15Z</time>
      </trkpt>
      <trkpt lat="44.22866" lon="7.08273">
        <ele>2458</ele>
        <time>2013-09-20T09:27:26Z</time>
      </trkpt>
      <trkpt lat="44.22869" lon="7.08271">
        <ele>2459</ele>
        <time>2013-09-20T09:27:32Z</time>
      </trkpt>
      <trkpt lat="44.22867" lon="7.08257">
        <ele>2461</ele>
        <time>2013-09-20T09:27:48Z</time>
      </trkpt>
      <trkpt lat="44.22865" lon="7.08245">
        <ele>2463</ele>
        <time>2013-09-20T09:28:03Z</time>
      </trkpt>
      <trkpt lat="44.22861" lon="7.08244">
        <ele>2469</ele>
        <time>2013-09-20T09:29:08Z</time>
      </trkpt>
      <trkpt lat="44.22861" lon="7.08245">
        <ele>2472</ele>
        <time>2013-09-20T09:30:12Z</time>
      </trkpt>
      <trkpt lat="44.22865" lon="7.08241">
        <ele>2477</ele>
        <time>2013-09-20T09:32:31Z</time>
      </trkpt>
      <trkpt lat="44.22901" lon="7.08215">
        <ele>2477</ele>
        <time>2013-09-20T09:32:41Z</time>
      </trkpt>
      <trkpt lat="44.22923" lon="7.08196">
        <ele>2477</ele>
        <time>2013-09-20T09:32:50Z</time>
      </trkpt>
      <trkpt lat="44.22939" lon="7.08178">
        <ele>2477</ele>
        <time>2013-09-20T09:32:59Z</time>
      </trkpt>
      <trkpt lat="44.22945" lon="7.08168">
        <ele>2477</ele>
        <time>2013-09-20T09:33:14Z</time>
      </trkpt>
      <trkpt lat="44.22952" lon="7.08158">
        <ele>2477</ele>
        <time>2013-09-20T09:33:18Z</time>
      </trkpt>
      <trkpt lat="44.22963" lon="7.08154">
        <ele>2477</ele>
        <time>2013-09-20T09:33:23Z</time>
      </trkpt>
      <trkpt lat="44.22985" lon="7.08138">
        <ele>2477</ele>
        <time>2013-09-20T09:33:33Z</time>
      </trkpt>
      <trkpt lat="44.23009" lon="7.08116">
        <ele>2477</ele>
        <time>2013-09-20T09:33:43Z</time>
      </trkpt>
      <trkpt lat="44.23018" lon="7.08103">
        <ele>2477</ele>
        <time>2013-09-20T09:33:48Z</time>
      </trkpt>
      <trkpt lat="44.23042" lon="7.08072">
        <ele>2477</ele>
        <time>2013-09-20T09:33:58Z</time>
      </trkpt>
      <trkpt lat="44.23042" lon="7.08071">
        <ele>2477</ele>
        <time>2013-09-20T09:34:01Z</time>
      </trkpt>
      <trkpt lat="44.23044" lon="7.08069">
        <ele>2477</ele>
        <time>2013-09-20T09:34:09Z</time>
      </trkpt>
      <trkpt lat="44.23046" lon="7.08068">
        <ele>2476</ele>
        <time>2013-09-20T09:34:22Z</time>
      </trkpt>
      <trkpt lat="44.2305" lon="7.0806">
        <ele>2473</ele>
        <time>2013-09-20T09:35:11Z</time>
      </trkpt>
      <trkpt lat="44.23047" lon="7.08067">
        <ele>2473</ele>
        <time>2013-09-20T09:35:33Z</time>
      </trkpt>
      <trkpt lat="44.23047" lon="7.08068">
        <ele>2471</ele>
        <time>2013-09-20T09:36:08Z</time>
      </trkpt>
      <trkpt lat="44.23049" lon="7.08074">
        <ele>2471</ele>
        <time>2013-09-20T09:36:13Z</time>
      </trkpt>
      <trkpt lat="44.23055" lon="7.08075">
        <ele>2471</ele>
        <time>2013-09-20T09:36:17Z</time>
      </trkpt>
      <trkpt lat="44.23061" lon="7.08095">
        <ele>2470</ele>
        <time>2013-09-20T09:36:23Z</time>
      </trkpt>
      <trkpt lat="44.23081" lon="7.08123">
        <ele>2469</ele>
        <time>2013-09-20T09:36:33Z</time>
      </trkpt>
      <trkpt lat="44.23089" lon="7.08156">
        <ele>2468</ele>
        <time>2013-09-20T09:36:42Z</time>
      </trkpt>
      <trkpt lat="44.23084" lon="7.08172">
        <ele>2467</ele>
        <time>2013-09-20T09:36:46Z</time>
      </trkpt>
      <trkpt lat="44.23083" lon="7.08212">
        <ele>2465</ele>
        <time>2013-09-20T09:36:56Z</time>
      </trkpt>
      <trkpt lat="44.23078" lon="7.08218">
        <ele>2465</ele>
        <time>2013-09-20T09:37:00Z</time>
      </trkpt>
      <trkpt lat="44.23078" lon="7.08248">
        <ele>2463</ele>
        <time>2013-09-20T09:37:09Z</time>
      </trkpt>
      <trkpt lat="44.23086" lon="7.08295">
        <ele>2462</ele>
        <time>2013-09-20T09:37:19Z</time>
      </trkpt>
      <trkpt lat="44.23082" lon="7.08334">
        <ele>2460</ele>
        <time>2013-09-20T09:37:28Z</time>
      </trkpt>
      <trkpt lat="44.23066" lon="7.0837">
        <ele>2459</ele>
        <time>2013-09-20T09:37:37Z</time>
      </trkpt>
      <trkpt lat="44.23057" lon="7.08391">
        <ele>2458</ele>
        <time>2013-09-20T09:37:41Z</time>
      </trkpt>
      <trkpt lat="44.23063" lon="7.08441">
        <ele>2457</ele>
        <time>2013-09-20T09:37:49Z</time>
      </trkpt>
      <trkpt lat="44.23073" lon="7.08462">
        <ele>2456</ele>
        <time>2013-09-20T09:37:54Z</time>
      </trkpt>
      <trkpt lat="44.23077" lon="7.0848">
        <ele>2455</ele>
        <time>2013-09-20T09:37:59Z</time>
      </trkpt>
      <trkpt lat="44.23088" lon="7.08519">
        <ele>2454</ele>
        <time>2013-09-20T09:38:08Z</time>
      </trkpt>
      <trkpt lat="44.23104" lon="7.08557">
        <ele>2452</ele>
        <time>2013-09-20T09:38:18Z</time>
      </trkpt>
      <trkpt lat="44.23106" lon="7.08567">
        <ele>2446</ele>
        <time>2013-09-20T09:38:56Z</time>
      </trkpt>
      <trkpt lat="44.23107" lon="7.08576">
        <ele>2445</ele>
        <time>2013-09-20T09:39:00Z</time>
      </trkpt>
      <trkpt lat="44.23112" lon="7.08613">
        <ele>2443</ele>
        <time>2013-09-20T09:39:10Z</time>
      </trkpt>
      <trkpt lat="44.23124" lon="7.08658">
        <ele>2441</ele>
        <time>2013-09-20T09:39:23Z</time>
      </trkpt>
      <trkpt lat="44.23132" lon="7.08689">
        <ele>2439</ele>
        <time>2013-09-20T09:39:35Z</time>
      </trkpt>
      <trkpt lat="44.23139" lon="7.08732">
        <ele>2438</ele>
        <time>2013-09-20T09:39:47Z</time>
      </trkpt>
      <trkpt lat="44.23149" lon="7.08743">
        <ele>2437</ele>
        <time>2013-09-20T09:39:51Z</time>
      </trkpt>
      <trkpt lat="44.23175" lon="7.08784">
        <ele>2436</ele>
        <time>2013-09-20T09:40:03Z</time>
      </trkpt>
      <trkpt lat="44.23191" lon="7.08831">
        <ele>2434</ele>
        <time>2013-09-20T09:40:15Z</time>
      </trkpt>
      <trkpt lat="44.23214" lon="7.0887">
        <ele>2433</ele>
        <time>2013-09-20T09:40:23Z</time>
      </trkpt>
      <trkpt lat="44.23228" lon="7.08882">
        <ele>2432</ele>
        <time>2013-09-20T09:40:26Z</time>
      </trkpt>
      <trkpt lat="44.23244" lon="7.08905">
        <ele>2431</ele>
        <time>2013-09-20T09:40:34Z</time>
      </trkpt>
      <trkpt lat="44.23299" lon="7.08948">
        <ele>2428</ele>
        <time>2013-09-20T09:40:52Z</time>
      </trkpt>
      <trkpt lat="44.2333" lon="7.08949">
        <ele>2427</ele>
        <time>2013-09-20T09:40:59Z</time>
      </trkpt>
      <trkpt lat="44.23346" lon="7.08949">
        <ele>2427</ele>
        <time>2013-09-20T09:41:04Z</time>
      </trkpt>
      <trkpt lat="44.23369" lon="7.08952">
        <ele>2426</ele>
        <time>2013-09-20T09:41:14Z</time>
      </trkpt>
      <trkpt lat="44.23411" lon="7.08967">
        <ele>2426</ele>
        <time>2013-09-20T09:41:27Z</time>
      </trkpt>
      <trkpt lat="44.23417" lon="7.08984">
        <ele>2425</ele>
        <time>2013-09-20T09:41:33Z</time>
      </trkpt>
      <trkpt lat="44.23412" lon="7.09001">
        <ele>2424</ele>
        <time>2013-09-20T09:41:40Z</time>
      </trkpt>
      <trkpt lat="44.23413" lon="7.08994">
        <ele>2424</ele>
        <time>2013-09-20T09:41:48Z</time>
      </trkpt>
      <trkpt lat="44.23416" lon="7.08986">
        <ele>2422</ele>
        <time>2013-09-20T09:41:57Z</time>
      </trkpt>
      <trkpt lat="44.23415" lon="7.08986">
        <ele>2420</ele>
        <time>2013-09-20T09:42:18Z</time>
      </trkpt>
      <trkpt lat="44.23415" lon="7.08985">
        <ele>2419</ele>
        <time>2013-09-20T09:42:28Z</time>
      </trkpt>
      <trkpt lat="44.23412" lon="7.08992">
        <ele>2417</ele>
        <time>2013-09-20T09:42:47Z</time>
      </trkpt>
      <trkpt lat="44.23409" lon="7.08993">
        <ele>2416</ele>
        <time>2013-09-20T09:42:54Z</time>
      </trkpt>
      <trkpt lat="44.23406" lon="7.09002">
        <ele>2415</ele>
        <time>2013-09-20T09:43:02Z</time>
      </trkpt>
      <trkpt lat="44.23405" lon="7.09007">
        <ele>2415</ele>
        <time>2013-09-20T09:43:06Z</time>
      </trkpt>
      <trkpt lat="44.23406" lon="7.09018">
        <ele>2413</ele>
        <time>2013-09-20T09:43:20Z</time>
      </trkpt>
      <trkpt lat="44.23574" lon="7.09016">
        <ele>2411</ele>
        <time>2013-09-20T09:43:48Z</time>
      </trkpt>
      <trkpt lat="44.23512" lon="7.09062">
        <ele>2410</ele>
        <time>2013-09-20T09:43:54Z</time>
      </trkpt>
      <trkpt lat="44.23473" lon="7.09095">
        <ele>2409</ele>
        <time>2013-09-20T09:44:03Z</time>
      </trkpt>
      <trkpt lat="44.23469" lon="7.09099">
        <ele>2408</ele>
        <time>2013-09-20T09:44:07Z</time>
      </trkpt>
      <trkpt lat="44.2346" lon="7.09111">
        <ele>2398</ele>
        <time>2013-09-20T09:45:44Z</time>
      </trkpt>
      <trkpt lat="44.2346" lon="7.09112">
        <ele>2397</ele>
        <time>2013-09-20T09:46:27Z</time>
      </trkpt>
      <trkpt lat="44.2346" lon="7.0911">
        <ele>2397</ele>
        <time>2013-09-20T09:46:44Z</time>
      </trkpt>
      <trkpt lat="44.23458" lon="7.09113">
        <ele>2397</ele>
        <time>2013-09-20T09:47:16Z</time>
      </trkpt>
      <trkpt lat="44.2346" lon="7.09113">
        <ele>2398</ele>
        <time>2013-09-20T09:47:34Z</time>
      </trkpt>
      <trkpt lat="44.23469" lon="7.09116">
        <ele>2398</ele>
        <time>2013-09-20T09:47:51Z</time>
      </trkpt>
      <trkpt lat="44.23463" lon="7.0911">
        <ele>2398</ele>
        <time>2013-09-20T09:47:55Z</time>
      </trkpt>
      <trkpt lat="44.23462" lon="7.09105">
        <ele>2398</ele>
        <time>2013-09-20T09:47:57Z</time>
      </trkpt>
      <trkpt lat="44.23473" lon="7.09104">
        <ele>2398</ele>
        <time>2013-09-20T09:48:02Z</time>
      </trkpt>
      <trkpt lat="44.2348" lon="7.09103">
        <ele>2398</ele>
        <time>2013-09-20T09:48:07Z</time>
      </trkpt>
      <trkpt lat="44.23483" lon="7.09101">
        <ele>2398</ele>
        <time>2013-09-20T09:48:16Z</time>
      </trkpt>
      <trkpt lat="44.23492" lon="7.09095">
        <ele>2398</ele>
        <time>2013-09-20T09:48:30Z</time>
      </trkpt>
      <trkpt lat="44.2351" lon="7.09084">
        <ele>2398</ele>
        <time>2013-09-20T09:48:39Z</time>
      </trkpt>
      <trkpt lat="44.2352" lon="7.09076">
        <ele>2398</ele>
        <time>2013-09-20T09:48:45Z</time>
      </trkpt>
      <trkpt lat="44.23525" lon="7.09072">
        <ele>2398</ele>
        <time>2013-09-20T09:48:49Z</time>
      </trkpt>
      <trkpt lat="44.23521" lon="7.09064">
        <ele>2398</ele>
        <time>2013-09-20T09:48:57Z</time>
      </trkpt>
      <trkpt lat="44.23531" lon="7.09057">
        <ele>2398</ele>
        <time>2013-09-20T09:49:05Z</time>
      </trkpt>
      <trkpt lat="44.23543" lon="7.09038">
        <ele>2398</ele>
        <time>2013-09-20T09:49:14Z</time>
      </trkpt>
      <trkpt lat="44.23551" lon="7.09036">
        <ele>2398</ele>
        <time>2013-09-20T09:49:19Z</time>
      </trkpt>
      <trkpt lat="44.23555" lon="7.0903">
        <ele>2398</ele>
        <time>2013-09-20T09:49:27Z</time>
      </trkpt>
      <trkpt lat="44.23557" lon="7.09027">
        <ele>2398</ele>
        <time>2013-09-20T09:49:30Z</time>
      </trkpt>
      <trkpt lat="44.23561" lon="7.09026">
        <ele>2398</ele>
        <time>2013-09-20T09:49:32Z</time>
      </trkpt>
      <trkpt lat="44.23565" lon="7.09024">
        <ele>2398</ele>
        <time>2013-09-20T09:49:36Z</time>
      </trkpt>
      <trkpt lat="44.23577" lon="7.09009">
        <ele>2398</ele>
        <time>2013-09-20T09:49:43Z</time>
      </trkpt>
      <trkpt lat="44.23597" lon="7.08988">
        <ele>2398</ele>
        <time>2013-09-20T09:49:55Z</time>
      </trkpt>
      <trkpt lat="44.23603" lon="7.08984">
        <ele>2398</ele>
        <time>2013-09-20T09:49:59Z</time>
      </trkpt>
      <trkpt lat="44.23605" lon="7.08986">
        <ele>2398</ele>
        <time>2013-09-20T09:50:03Z</time>
      </trkpt>
      <trkpt lat="44.23607" lon="7.08988">
        <ele>2398</ele>
        <time>2013-09-20T09:50:06Z</time>
      </trkpt>
      <trkpt lat="44.23606" lon="7.08987">
        <ele>2398</ele>
        <time>2013-09-20T09:50:18Z</time>
      </trkpt>
      <trkpt lat="44.23622" lon="7.08979">
        <ele>2398</ele>
        <time>2013-09-20T09:50:39Z</time>
      </trkpt>
      <trkpt lat="44.23632" lon="7.08971">
        <ele>2398</ele>
        <time>2013-09-20T09:50:48Z</time>
      </trkpt>
      <trkpt lat="44.23621" lon="7.08963">
        <ele>2398</ele>
        <time>2013-09-20T09:50:54Z</time>
      </trkpt>
      <trkpt lat="44.23623" lon="7.0896">
        <ele>2398</ele>
        <time>2013-09-20T09:51:01Z</time>
      </trkpt>
      <trkpt lat="44.23629" lon="7.08958">
        <ele>2398</ele>
        <time>2013-09-20T09:51:05Z</time>
      </trkpt>
      <trkpt lat="44.23645" lon="7.08958">
        <ele>2398</ele>
        <time>2013-09-20T09:51:11Z</time>
      </trkpt>
      <trkpt lat="44.23653" lon="7.08959">
        <ele>2398</ele>
        <time>2013-09-20T09:51:16Z</time>
      </trkpt>
      <trkpt lat="44.23651" lon="7.08956">
        <ele>2398</ele>
        <time>2013-09-20T09:51:20Z</time>
      </trkpt>
      <trkpt lat="44.23652" lon="7.08952">
        <ele>2398</ele>
        <time>2013-09-20T09:51:27Z</time>
      </trkpt>
      <trkpt lat="44.23665" lon="7.0896">
        <ele>2398</ele>
        <time>2013-09-20T09:51:39Z</time>
      </trkpt>
      <trkpt lat="44.23716" lon="7.08961">
        <ele>2398</ele>
        <time>2013-09-20T09:52:22Z</time>
      </trkpt>
      <trkpt lat="44.23716" lon="7.08956">
        <ele>2398</ele>
        <time>2013-09-20T09:52:31Z</time>
      </trkpt>
      <trkpt lat="44.23724" lon="7.08957">
        <ele>2398</ele>
        <time>2013-09-20T09:52:44Z</time>
      </trkpt>
      <trkpt lat="44.23743" lon="7.08966">
        <ele>2398</ele>
        <time>2013-09-20T09:52:54Z</time>
      </trkpt>
      <trkpt lat="44.23752" lon="7.08963">
        <ele>2398</ele>
        <time>2013-09-20T09:52:59Z</time>
      </trkpt>
      <trkpt lat="44.23762" lon="7.08958">
        <ele>2398</ele>
        <time>2013-09-20T09:53:03Z</time>
      </trkpt>
      <trkpt lat="44.23775" lon="7.08953">
        <ele>2398</ele>
        <time>2013-09-20T09:53:10Z</time>
      </trkpt>
      <trkpt lat="44.23785" lon="7.08947">
        <ele>2398</ele>
        <time>2013-09-20T09:53:14Z</time>
      </trkpt>
      <trkpt lat="44.23792" lon="7.08944">
        <ele>2398</ele>
        <time>2013-09-20T09:53:17Z</time>
      </trkpt>
      <trkpt lat="44.23793" lon="7.08943">
        <ele>2397</ele>
        <time>2013-09-20T09:53:19Z</time>
      </trkpt>
      <trkpt lat="44.23791" lon="7.08938">
        <ele>2397</ele>
        <time>2013-09-20T09:53:26Z</time>
      </trkpt>
      <trkpt lat="44.23795" lon="7.08934">
        <ele>2395</ele>
        <time>2013-09-20T09:53:35Z</time>
      </trkpt>
      <trkpt lat="44.23802" lon="7.08929">
        <ele>2394</ele>
        <time>2013-09-20T09:53:40Z</time>
      </trkpt>
      <trkpt lat="44.23808" lon="7.08928">
        <ele>2392</ele>
        <time>2013-09-20T09:53:47Z</time>
      </trkpt>
      <trkpt lat="44.23816" lon="7.08926">
        <ele>2388</ele>
        <time>2013-09-20T09:54:02Z</time>
      </trkpt>
      <trkpt lat="44.23823" lon="7.08923">
        <ele>2384</ele>
        <time>2013-09-20T09:54:12Z</time>
      </trkpt>
      <trkpt lat="44.23829" lon="7.08928">
        <ele>2383</ele>
        <time>2013-09-20T09:54:16Z</time>
      </trkpt>
      <trkpt lat="44.23845" lon="7.08926">
        <ele>2381</ele>
        <time>2013-09-20T09:54:22Z</time>
      </trkpt>
      <trkpt lat="44.23854" lon="7.08918">
        <ele>2379</ele>
        <time>2013-09-20T09:54:26Z</time>
      </trkpt>
      <trkpt lat="44.23866" lon="7.08905">
        <ele>2376</ele>
        <time>2013-09-20T09:54:31Z</time>
      </trkpt>
      <trkpt lat="44.23869" lon="7.08903">
        <ele>2373</ele>
        <time>2013-09-20T09:54:36Z</time>
      </trkpt>
      <trkpt lat="44.23876" lon="7.08898">
        <ele>2366</ele>
        <time>2013-09-20T09:54:47Z</time>
      </trkpt>
      <trkpt lat="44.23883" lon="7.08896">
        <ele>2362</ele>
        <time>2013-09-20T09:54:53Z</time>
      </trkpt>
      <trkpt lat="44.23908" lon="7.08886">
        <ele>2355</ele>
        <time>2013-09-20T09:55:02Z</time>
      </trkpt>
      <trkpt lat="44.23937" lon="7.08868">
        <ele>2348</ele>
        <time>2013-09-20T09:55:10Z</time>
      </trkpt>
      <trkpt lat="44.23955" lon="7.08856">
        <ele>2339</ele>
        <time>2013-09-20T09:55:19Z</time>
      </trkpt>
      <trkpt lat="44.23958" lon="7.08855">
        <ele>2332</ele>
        <time>2013-09-20T09:55:26Z</time>
      </trkpt>
      <trkpt lat="44.23961" lon="7.08856">
        <ele>2319</ele>
        <time>2013-09-20T09:55:39Z</time>
      </trkpt>
      <trkpt lat="44.23962" lon="7.08856">
        <ele>2305</ele>
        <time>2013-09-20T09:55:54Z</time>
      </trkpt>
      <trkpt lat="44.23975" lon="7.08837">
        <ele>2297</ele>
        <time>2013-09-20T09:56:03Z</time>
      </trkpt>
      <trkpt lat="44.2399" lon="7.08831">
        <ele>2290</ele>
        <time>2013-09-20T09:56:11Z</time>
      </trkpt>
      <trkpt lat="44.23991" lon="7.08829">
        <ele>2287</ele>
        <time>2013-09-20T09:56:15Z</time>
      </trkpt>
      <trkpt lat="44.2399" lon="7.08832">
        <ele>2269</ele>
        <time>2013-09-20T09:56:39Z</time>
      </trkpt>
      <trkpt lat="44.23991" lon="7.08839">
        <ele>2238</ele>
        <time>2013-09-20T09:57:30Z</time>
      </trkpt>
      <trkpt lat="44.23991" lon="7.08839">
        <ele>2219</ele>
        <time>2013-09-20T09:58:16Z</time>
      </trkpt>
      <trkpt lat="44.23996" lon="7.08843">
        <ele>2204</ele>
        <time>2013-09-20T09:59:11Z</time>
      </trkpt>
      <trkpt lat="44.23996" lon="7.08841">
        <ele>2192</ele>
        <time>2013-09-20T10:00:23Z</time>
      </trkpt>
      <trkpt lat="44.23998" lon="7.08837">
        <ele>2187</ele>
        <time>2013-09-20T10:01:34Z</time>
      </trkpt>
      <trkpt lat="44.24016" lon="7.08833">
        <ele>2186</ele>
        <time>2013-09-20T10:01:47Z</time>
      </trkpt>
      <trkpt lat="44.24027" lon="7.08823">
        <ele>2186</ele>
        <time>2013-09-20T10:01:55Z</time>
      </trkpt>
      <trkpt lat="44.24032" lon="7.08818">
        <ele>2185</ele>
        <time>2013-09-20T10:02:07Z</time>
      </trkpt>
      <trkpt lat="44.24037" lon="7.08812">
        <ele>2184</ele>
        <time>2013-09-20T10:02:11Z</time>
      </trkpt>
      <trkpt lat="44.24063" lon="7.08798">
        <ele>2183</ele>
        <time>2013-09-20T10:02:21Z</time>
      </trkpt>
      <trkpt lat="44.24073" lon="7.08791">
        <ele>2183</ele>
        <time>2013-09-20T10:02:27Z</time>
      </trkpt>
      <trkpt lat="44.24073" lon="7.08763">
        <ele>2182</ele>
        <time>2013-09-20T10:02:34Z</time>
      </trkpt>
      <trkpt lat="44.24073" lon="7.08745">
        <ele>2181</ele>
        <time>2013-09-20T10:02:39Z</time>
      </trkpt>
      <trkpt lat="44.24063" lon="7.08735">
        <ele>2180</ele>
        <time>2013-09-20T10:02:48Z</time>
      </trkpt>
      <trkpt lat="44.2405" lon="7.08731">
        <ele>2180</ele>
        <time>2013-09-20T10:02:54Z</time>
      </trkpt>
      <trkpt lat="44.24042" lon="7.08726">
        <ele>2179</ele>
        <time>2013-09-20T10:02:58Z</time>
      </trkpt>
      <trkpt lat="44.24026" lon="7.08709">
        <ele>2178</ele>
        <time>2013-09-20T10:03:04Z</time>
      </trkpt>
      <trkpt lat="44.2403" lon="7.087">
        <ele>2178</ele>
        <time>2013-09-20T10:03:07Z</time>
      </trkpt>
      <trkpt lat="44.24048" lon="7.08685">
        <ele>2177</ele>
        <time>2013-09-20T10:03:14Z</time>
      </trkpt>
      <trkpt lat="44.24055" lon="7.08658">
        <ele>2175</ele>
        <time>2013-09-20T10:03:25Z</time>
      </trkpt>
      <trkpt lat="44.24066" lon="7.08634">
        <ele>2174</ele>
        <time>2013-09-20T10:03:38Z</time>
      </trkpt>
      <trkpt lat="44.24068" lon="7.08632">
        <ele>2173</ele>
        <time>2013-09-20T10:03:43Z</time>
      </trkpt>
      <trkpt lat="44.24083" lon="7.08625">
        <ele>2171</ele>
        <time>2013-09-20T10:04:02Z</time>
      </trkpt>
      <trkpt lat="44.24091" lon="7.08617">
        <ele>2171</ele>
        <time>2013-09-20T10:04:07Z</time>
      </trkpt>
      <trkpt lat="44.24096" lon="7.0859">
        <ele>2170</ele>
        <time>2013-09-20T10:04:17Z</time>
      </trkpt>
      <trkpt lat="44.24099" lon="7.08565">
        <ele>2169</ele>
        <time>2013-09-20T10:04:27Z</time>
      </trkpt>
      <trkpt lat="44.24118" lon="7.08545">
        <ele>2168</ele>
        <time>2013-09-20T10:04:40Z</time>
      </trkpt>
      <trkpt lat="44.24129" lon="7.08529">
        <ele>2167</ele>
        <time>2013-09-20T10:04:53Z</time>
      </trkpt>
      <trkpt lat="44.24146" lon="7.08504">
        <ele>2166</ele>
        <time>2013-09-20T10:05:07Z</time>
      </trkpt>
      <trkpt lat="44.24159" lon="7.08477">
        <ele>2166</ele>
        <time>2013-09-20T10:05:21Z</time>
      </trkpt>
      <trkpt lat="44.24162" lon="7.08466">
        <ele>2165</ele>
        <time>2013-09-20T10:05:32Z</time>
      </trkpt>
      <trkpt lat="44.24166" lon="7.0846">
        <ele>2165</ele>
        <time>2013-09-20T10:05:40Z</time>
      </trkpt>
      <trkpt lat="44.24168" lon="7.08449">
        <ele>2165</ele>
        <time>2013-09-20T10:05:53Z</time>
      </trkpt>
      <trkpt lat="44.24174" lon="7.08436">
        <ele>2166</ele>
        <time>2013-09-20T10:06:09Z</time>
      </trkpt>
      <trkpt lat="44.24178" lon="7.08417">
        <ele>2167</ele>
        <time>2013-09-20T10:06:25Z</time>
      </trkpt>
      <trkpt lat="44.24179" lon="7.08393">
        <ele>2167</ele>
        <time>2013-09-20T10:06:36Z</time>
      </trkpt>
      <trkpt lat="44.24185" lon="7.08384">
        <ele>2167</ele>
        <time>2013-09-20T10:06:46Z</time>
      </trkpt>
      <trkpt lat="44.24188" lon="7.08371">
        <ele>2168</ele>
        <time>2013-09-20T10:07:01Z</time>
      </trkpt>
      <trkpt lat="44.24191" lon="7.08351">
        <ele>2169</ele>
        <time>2013-09-20T10:07:15Z</time>
      </trkpt>
      <trkpt lat="44.24192" lon="7.08344">
        <ele>2170</ele>
        <time>2013-09-20T10:07:25Z</time>
      </trkpt>
      <trkpt lat="44.242" lon="7.08329">
        <ele>2171</ele>
        <time>2013-09-20T10:07:35Z</time>
      </trkpt>
      <trkpt lat="44.24209" lon="7.08318">
        <ele>2171</ele>
        <time>2013-09-20T10:07:46Z</time>
      </trkpt>
      <trkpt lat="44.24215" lon="7.0831">
        <ele>2174</ele>
        <time>2013-09-20T10:08:39Z</time>
      </trkpt>
      <trkpt lat="44.2423" lon="7.08292">
        <ele>2174</ele>
        <time>2013-09-20T10:08:48Z</time>
      </trkpt>
      <trkpt lat="44.24249" lon="7.08265">
        <ele>2174</ele>
        <time>2013-09-20T10:08:57Z</time>
      </trkpt>
      <trkpt lat="44.24261" lon="7.08244">
        <ele>2174</ele>
        <time>2013-09-20T10:09:07Z</time>
      </trkpt>
      <trkpt lat="44.24265" lon="7.08244">
        <ele>2174</ele>
        <time>2013-09-20T10:09:11Z</time>
      </trkpt>
      <trkpt lat="44.2427" lon="7.08243">
        <ele>2173</ele>
        <time>2013-09-20T10:09:24Z</time>
      </trkpt>
      <trkpt lat="44.24274" lon="7.08236">
        <ele>2172</ele>
        <time>2013-09-20T10:09:37Z</time>
      </trkpt>
      <trkpt lat="44.24276" lon="7.08235">
        <ele>2172</ele>
        <time>2013-09-20T10:09:39Z</time>
      </trkpt>
      <trkpt lat="44.2428" lon="7.08228">
        <ele>2171</ele>
        <time>2013-09-20T10:09:48Z</time>
      </trkpt>
      <trkpt lat="44.24274" lon="7.08228">
        <ele>2171</ele>
        <time>2013-09-20T10:09:54Z</time>
      </trkpt>
      <trkpt lat="44.24277" lon="7.08225">
        <ele>2170</ele>
        <time>2013-09-20T10:09:58Z</time>
      </trkpt>
      <trkpt lat="44.24281" lon="7.08221">
        <ele>2170</ele>
        <time>2013-09-20T10:10:05Z</time>
      </trkpt>
      <trkpt lat="44.24276" lon="7.08217">
        <ele>2168</ele>
        <time>2013-09-20T10:10:16Z</time>
      </trkpt>
      <trkpt lat="44.24277" lon="7.08213">
        <ele>2167</ele>
        <time>2013-09-20T10:10:30Z</time>
      </trkpt>
      <trkpt lat="44.24274" lon="7.08211">
        <ele>2166</ele>
        <time>2013-09-20T10:10:38Z</time>
      </trkpt>
      <trkpt lat="44.24264" lon="7.08208">
        <ele>2165</ele>
        <time>2013-09-20T10:10:44Z</time>
      </trkpt>
      <trkpt lat="44.24258" lon="7.08202">
        <ele>2164</ele>
        <time>2013-09-20T10:10:48Z</time>
      </trkpt>
      <trkpt lat="44.24257" lon="7.08198">
        <ele>2163</ele>
        <time>2013-09-20T10:10:59Z</time>
      </trkpt>
      <trkpt lat="44.24254" lon="7.08195">
        <ele>2162</ele>
        <time>2013-09-20T10:11:04Z</time>
      </trkpt>
      <trkpt lat="44.24266" lon="7.08172">
        <ele>2160</ele>
        <time>2013-09-20T10:11:14Z</time>
      </trkpt>
      <trkpt lat="44.24263" lon="7.08153">
        <ele>2158</ele>
        <time>2013-09-20T10:11:22Z</time>
      </trkpt>
      <trkpt lat="44.24255" lon="7.08141">
        <ele>2156</ele>
        <time>2013-09-20T10:11:29Z</time>
      </trkpt>
      <trkpt lat="44.24246" lon="7.08133">
        <ele>2154</ele>
        <time>2013-09-20T10:11:37Z</time>
      </trkpt>
      <trkpt lat="44.24238" lon="7.08124">
        <ele>2128</ele>
        <time>2013-09-20T10:13:36Z</time>
      </trkpt>
      <trkpt lat="44.24223" lon="7.08106">
        <ele>2127</ele>
        <time>2013-09-20T10:13:44Z</time>
      </trkpt>
      <trkpt lat="44.24223" lon="7.08089">
        <ele>2126</ele>
        <time>2013-09-20T10:13:48Z</time>
      </trkpt>
      <trkpt lat="44.24236" lon="7.08059">
        <ele>2124</ele>
        <time>2013-09-20T10:13:55Z</time>
      </trkpt>
      <trkpt lat="44.24245" lon="7.08053">
        <ele>2123</ele>
        <time>2013-09-20T10:13:59Z</time>
      </trkpt>
      <trkpt lat="44.24245" lon="7.08052">
        <ele>2122</ele>
        <time>2013-09-20T10:14:02Z</time>
      </trkpt>
      <trkpt lat="44.2425" lon="7.08043">
        <ele>2120</ele>
        <time>2013-09-20T10:14:12Z</time>
      </trkpt>
      <trkpt lat="44.24252" lon="7.08043">
        <ele>2119</ele>
        <time>2013-09-20T10:14:17Z</time>
      </trkpt>
      <trkpt lat="44.24256" lon="7.08034">
        <ele>2117</ele>
        <time>2013-09-20T10:14:25Z</time>
      </trkpt>
      <trkpt lat="44.24259" lon="7.08034">
        <ele>2116</ele>
        <time>2013-09-20T10:14:29Z</time>
      </trkpt>
      <trkpt lat="44.24265" lon="7.08035">
        <ele>2109</ele>
        <time>2013-09-20T10:14:59Z</time>
      </trkpt>
      <trkpt lat="44.24269" lon="7.08038">
        <ele>2108</ele>
        <time>2013-09-20T10:15:05Z</time>
      </trkpt>
      <trkpt lat="44.24272" lon="7.08031">
        <ele>2106</ele>
        <time>2013-09-20T10:15:16Z</time>
      </trkpt>
      <trkpt lat="44.24273" lon="7.0802">
        <ele>2103</ele>
        <time>2013-09-20T10:15:32Z</time>
      </trkpt>
      <trkpt lat="44.2427" lon="7.08012">
        <ele>2101</ele>
        <time>2013-09-20T10:15:38Z</time>
      </trkpt>
      <trkpt lat="44.24265" lon="7.08007">
        <ele>2101</ele>
        <time>2013-09-20T10:15:43Z</time>
      </trkpt>
      <trkpt lat="44.24264" lon="7.08008">
        <ele>2100</ele>
        <time>2013-09-20T10:15:48Z</time>
      </trkpt>
      <trkpt lat="44.24264" lon="7.08009">
        <ele>2097</ele>
        <time>2013-09-20T10:16:00Z</time>
      </trkpt>
      <trkpt lat="44.24264" lon="7.08011">
        <ele>2087</ele>
        <time>2013-09-20T10:17:03Z</time>
      </trkpt>
      <trkpt lat="44.24262" lon="7.08007">
        <ele>2085</ele>
        <time>2013-09-20T10:17:23Z</time>
      </trkpt>
      <trkpt lat="44.24248" lon="7.07987">
        <ele>2083</ele>
        <time>2013-09-20T10:17:32Z</time>
      </trkpt>
      <trkpt lat="44.24228" lon="7.07958">
        <ele>2082</ele>
        <time>2013-09-20T10:17:41Z</time>
      </trkpt>
      <trkpt lat="44.24231" lon="7.07951">
        <ele>2082</ele>
        <time>2013-09-20T10:17:44Z</time>
      </trkpt>
      <trkpt lat="44.24244" lon="7.07952">
        <ele>2081</ele>
        <time>2013-09-20T10:17:52Z</time>
      </trkpt>
      <trkpt lat="44.24248" lon="7.0795">
        <ele>2080</ele>
        <time>2013-09-20T10:17:57Z</time>
      </trkpt>
      <trkpt lat="44.24264" lon="7.07941">
        <ele>2076</ele>
        <time>2013-09-20T10:18:38Z</time>
      </trkpt>
      <trkpt lat="44.24271" lon="7.07942">
        <ele>2075</ele>
        <time>2013-09-20T10:18:43Z</time>
      </trkpt>
      <trkpt lat="44.24282" lon="7.07939">
        <ele>2074</ele>
        <time>2013-09-20T10:19:00Z</time>
      </trkpt>
      <trkpt lat="44.24284" lon="7.07939">
        <ele>2074</ele>
        <time>2013-09-20T10:19:02Z</time>
      </trkpt>
      <trkpt lat="44.24278" lon="7.07929">
        <ele>2073</ele>
        <time>2013-09-20T10:19:13Z</time>
      </trkpt>
      <trkpt lat="44.24272" lon="7.07907">
        <ele>2073</ele>
        <time>2013-09-20T10:19:23Z</time>
      </trkpt>
      <trkpt lat="44.24274" lon="7.07893">
        <ele>2072</ele>
        <time>2013-09-20T10:19:37Z</time>
      </trkpt>
      <trkpt lat="44.24289" lon="7.07877">
        <ele>2071</ele>
        <time>2013-09-20T10:19:44Z</time>
      </trkpt>
      <trkpt lat="44.243" lon="7.0787">
        <ele>2071</ele>
        <time>2013-09-20T10:19:48Z</time>
      </trkpt>
      <trkpt lat="44.2432" lon="7.07861">
        <ele>2071</ele>
        <time>2013-09-20T10:19:52Z</time>
      </trkpt>
      <trkpt lat="44.24345" lon="7.07868">
        <ele>2071</ele>
        <time>2013-09-20T10:19:58Z</time>
      </trkpt>
      <trkpt lat="44.2435" lon="7.07873">
        <ele>2071</ele>
        <time>2013-09-20T10:20:01Z</time>
      </trkpt>
      <trkpt lat="44.24353" lon="7.07877">
        <ele>2067</ele>
        <time>2013-09-20T10:21:32Z</time>
      </trkpt>
      <trkpt lat="44.24361" lon="7.07883">
        <ele>2065</ele>
        <time>2013-09-20T10:23:42Z</time>
      </trkpt>
      <trkpt lat="44.24364" lon="7.0788">
        <ele>2064</ele>
        <time>2013-09-20T10:23:51Z</time>
      </trkpt>
      <trkpt lat="44.24367" lon="7.07871">
        <ele>2064</ele>
        <time>2013-09-20T10:24:05Z</time>
      </trkpt>
      <trkpt lat="44.24371" lon="7.07873">
        <ele>2064</ele>
        <time>2013-09-20T10:24:11Z</time>
      </trkpt>
      <trkpt lat="44.24379" lon="7.0788">
        <ele>2064</ele>
        <time>2013-09-20T10:24:25Z</time>
      </trkpt>
      <trkpt lat="44.24385" lon="7.07888">
        <ele>2064</ele>
        <time>2013-09-20T10:24:29Z</time>
      </trkpt>
      <trkpt lat="44.24385" lon="7.0789">
        <ele>2063</ele>
        <time>2013-09-20T10:24:34Z</time>
      </trkpt>
      <trkpt lat="44.2439" lon="7.07894">
        <ele>2063</ele>
        <time>2013-09-20T10:24:54Z</time>
      </trkpt>
      <trkpt lat="44.24399" lon="7.07899">
        <ele>2063</ele>
        <time>2013-09-20T10:25:13Z</time>
      </trkpt>
      <trkpt lat="44.24404" lon="7.07892">
        <ele>2062</ele>
        <time>2013-09-20T10:25:22Z</time>
      </trkpt>
      <trkpt lat="44.24423" lon="7.07893">
        <ele>2062</ele>
        <time>2013-09-20T10:25:31Z</time>
      </trkpt>
      <trkpt lat="44.24436" lon="7.07887">
        <ele>2062</ele>
        <time>2013-09-20T10:25:35Z</time>
      </trkpt>
      <trkpt lat="44.24447" lon="7.07888">
        <ele>2062</ele>
        <time>2013-09-20T10:25:39Z</time>
      </trkpt>
      <trkpt lat="44.24453" lon="7.07901">
        <ele>2062</ele>
        <time>2013-09-20T10:25:43Z</time>
      </trkpt>
      <trkpt lat="44.24463" lon="7.07903">
        <ele>2062</ele>
        <time>2013-09-20T10:25:47Z</time>
      </trkpt>
      <trkpt lat="44.24467" lon="7.07911">
        <ele>2062</ele>
        <time>2013-09-20T10:25:52Z</time>
      </trkpt>
      <trkpt lat="44.24469" lon="7.07908">
        <ele>2061</ele>
        <time>2013-09-20T10:25:57Z</time>
      </trkpt>
      <trkpt lat="44.24474" lon="7.07903">
        <ele>2061</ele>
        <time>2013-09-20T10:26:02Z</time>
      </trkpt>
      <trkpt lat="44.24476" lon="7.07902">
        <ele>2061</ele>
        <time>2013-09-20T10:26:05Z</time>
      </trkpt>
      <trkpt lat="44.24482" lon="7.07896">
        <ele>2061</ele>
        <time>2013-09-20T10:26:10Z</time>
      </trkpt>
      <trkpt lat="44.2449" lon="7.07889">
        <ele>2061</ele>
        <time>2013-09-20T10:26:18Z</time>
      </trkpt>
      <trkpt lat="44.24507" lon="7.07899">
        <ele>2060</ele>
        <time>2013-09-20T10:26:27Z</time>
      </trkpt>
      <trkpt lat="44.2453" lon="7.07895">
        <ele>2060</ele>
        <time>2013-09-20T10:26:38Z</time>
      </trkpt>
      <trkpt lat="44.24533" lon="7.07896">
        <ele>2060</ele>
        <time>2013-09-20T10:26:42Z</time>
      </trkpt>
      <trkpt lat="44.24536" lon="7.07893">
        <ele>2060</ele>
        <time>2013-09-20T10:26:50Z</time>
      </trkpt>
      <trkpt lat="44.24537" lon="7.07891">
        <ele>2059</ele>
        <time>2013-09-20T10:26:52Z</time>
      </trkpt>
      <trkpt lat="44.24543" lon="7.0789">
        <ele>2059</ele>
        <time>2013-09-20T10:27:06Z</time>
      </trkpt>
      <trkpt lat="44.24563" lon="7.07898">
        <ele>2059</ele>
        <time>2013-09-20T10:27:13Z</time>
      </trkpt>
      <trkpt lat="44.2457" lon="7.07897">
        <ele>2059</ele>
        <time>2013-09-20T10:27:15Z</time>
      </trkpt>
      <trkpt lat="44.24578" lon="7.07896">
        <ele>2059</ele>
        <time>2013-09-20T10:27:18Z</time>
      </trkpt>
      <trkpt lat="44.24588" lon="7.0789">
        <ele>2058</ele>
        <time>2013-09-20T10:27:24Z</time>
      </trkpt>
      <trkpt lat="44.24602" lon="7.07891">
        <ele>2058</ele>
        <time>2013-09-20T10:27:30Z</time>
      </trkpt>
      <trkpt lat="44.24617" lon="7.07896">
        <ele>2058</ele>
        <time>2013-09-20T10:27:35Z</time>
      </trkpt>
      <trkpt lat="44.24647" lon="7.07894">
        <ele>2057</ele>
        <time>2013-09-20T10:27:42Z</time>
      </trkpt>
      <trkpt lat="44.24664" lon="7.07889">
        <ele>2057</ele>
        <time>2013-09-20T10:27:45Z</time>
      </trkpt>
      <trkpt lat="44.24688" lon="7.07893">
        <ele>2057</ele>
        <time>2013-09-20T10:27:50Z</time>
      </trkpt>
      <trkpt lat="44.24705" lon="7.07893">
        <ele>2057</ele>
        <time>2013-09-20T10:27:54Z</time>
      </trkpt>
      <trkpt lat="44.24728" lon="7.0789">
        <ele>2057</ele>
        <time>2013-09-20T10:27:59Z</time>
      </trkpt>
      <trkpt lat="44.2476" lon="7.07889">
        <ele>2056</ele>
        <time>2013-09-20T10:28:07Z</time>
      </trkpt>
      <trkpt lat="44.24778" lon="7.07895">
        <ele>2056</ele>
        <time>2013-09-20T10:28:12Z</time>
      </trkpt>
      <trkpt lat="44.24821" lon="7.07889">
        <ele>2055</ele>
        <time>2013-09-20T10:28:23Z</time>
      </trkpt>
      <trkpt lat="44.24833" lon="7.07887">
        <ele>2055</ele>
        <time>2013-09-20T10:28:28Z</time>
      </trkpt>
      <trkpt lat="44.24852" lon="7.07882">
        <ele>2054</ele>
        <time>2013-09-20T10:28:35Z</time>
      </trkpt>
      <trkpt lat="44.249" lon="7.07869">
        <ele>2053</ele>
        <time>2013-09-20T10:28:48Z</time>
      </trkpt>
      <trkpt lat="44.24925" lon="7.0786">
        <ele>2053</ele>
        <time>2013-09-20T10:28:54Z</time>
      </trkpt>
      <trkpt lat="44.24963" lon="7.07849">
        <ele>2052</ele>
        <time>2013-09-20T10:29:02Z</time>
      </trkpt>
      <trkpt lat="44.24977" lon="7.07852">
        <ele>2052</ele>
        <time>2013-09-20T10:29:05Z</time>
      </trkpt>
      <trkpt lat="44.24991" lon="7.07853">
        <ele>2052</ele>
        <time>2013-09-20T10:29:08Z</time>
      </trkpt>
      <trkpt lat="44.25021" lon="7.07855">
        <ele>2051</ele>
        <time>2013-09-20T10:29:15Z</time>
      </trkpt>
      <trkpt lat="44.25035" lon="7.07852">
        <ele>2051</ele>
        <time>2013-09-20T10:29:19Z</time>
      </trkpt>
      <trkpt lat="44.25051" lon="7.07848">
        <ele>2050</ele>
        <time>2013-09-20T10:29:35Z</time>
      </trkpt>
      <trkpt lat="44.2506" lon="7.07848">
        <ele>2048</ele>
        <time>2013-09-20T10:29:47Z</time>
      </trkpt>
      <trkpt lat="44.25063" lon="7.07851">
        <ele>2048</ele>
        <time>2013-09-20T10:29:51Z</time>
      </trkpt>
      <trkpt lat="44.25067" lon="7.07845">
        <ele>2047</ele>
        <time>2013-09-20T10:29:59Z</time>
      </trkpt>
      <trkpt lat="44.25072" lon="7.07836">
        <ele>2046</ele>
        <time>2013-09-20T10:30:06Z</time>
      </trkpt>
      <trkpt lat="44.25081" lon="7.07832">
        <ele>2044</ele>
        <time>2013-09-20T10:30:15Z</time>
      </trkpt>
      <trkpt lat="44.25087" lon="7.0783">
        <ele>2043</ele>
        <time>2013-09-20T10:30:23Z</time>
      </trkpt>
      <trkpt lat="44.25094" lon="7.07833">
        <ele>2040</ele>
        <time>2013-09-20T10:30:37Z</time>
      </trkpt>
      <trkpt lat="44.25099" lon="7.07829">
        <ele>2039</ele>
        <time>2013-09-20T10:30:42Z</time>
      </trkpt>
      <trkpt lat="44.25106" lon="7.07824">
        <ele>2038</ele>
        <time>2013-09-20T10:30:48Z</time>
      </trkpt>
      <trkpt lat="44.25115" lon="7.07819">
        <ele>2036</ele>
        <time>2013-09-20T10:30:58Z</time>
      </trkpt>
      <trkpt lat="44.25118" lon="7.07818">
        <ele>2036</ele>
        <time>2013-09-20T10:31:00Z</time>
      </trkpt>
      <trkpt lat="44.25124" lon="7.07812">
        <ele>2034</ele>
        <time>2013-09-20T10:31:08Z</time>
      </trkpt>
      <trkpt lat="44.25129" lon="7.07811">
        <ele>2032</ele>
        <time>2013-09-20T10:31:14Z</time>
      </trkpt>
      <trkpt lat="44.25137" lon="7.0782">
        <ele>2030</ele>
        <time>2013-09-20T10:31:22Z</time>
      </trkpt>
      <trkpt lat="44.25149" lon="7.07829">
        <ele>2028</ele>
        <time>2013-09-20T10:31:31Z</time>
      </trkpt>
      <trkpt lat="44.25154" lon="7.07831">
        <ele>2025</ele>
        <time>2013-09-20T10:31:41Z</time>
      </trkpt>
      <trkpt lat="44.25163" lon="7.07844">
        <ele>2021</ele>
        <time>2013-09-20T10:31:57Z</time>
      </trkpt>
      <trkpt lat="44.25166" lon="7.07848">
        <ele>2018</ele>
        <time>2013-09-20T10:32:05Z</time>
      </trkpt>
      <trkpt lat="44.25185" lon="7.07857">
        <ele>2016</ele>
        <time>2013-09-20T10:32:13Z</time>
      </trkpt>
      <trkpt lat="44.25203" lon="7.07858">
        <ele>2015</ele>
        <time>2013-09-20T10:32:20Z</time>
      </trkpt>
      <trkpt lat="44.25235" lon="7.07836">
        <ele>2013</ele>
        <time>2013-09-20T10:32:27Z</time>
      </trkpt>
      <trkpt lat="44.25254" lon="7.07827">
        <ele>2010</ele>
        <time>2013-09-20T10:32:35Z</time>
      </trkpt>
      <trkpt lat="44.25261" lon="7.07823">
        <ele>2009</ele>
        <time>2013-09-20T10:32:41Z</time>
      </trkpt>
      <trkpt lat="44.25265" lon="7.07823">
        <ele>2006</ele>
        <time>2013-09-20T10:32:50Z</time>
      </trkpt>
      <trkpt lat="44.25272" lon="7.0782">
        <ele>2004</ele>
        <time>2013-09-20T10:32:58Z</time>
      </trkpt>
      <trkpt lat="44.25294" lon="7.07809">
        <ele>2001</ele>
        <time>2013-09-20T10:33:07Z</time>
      </trkpt>
      <trkpt lat="44.25309" lon="7.07787">
        <ele>1999</ele>
        <time>2013-09-20T10:33:13Z</time>
      </trkpt>
      <trkpt lat="44.25315" lon="7.07774">
        <ele>1980</ele>
        <time>2013-09-20T10:34:39Z</time>
      </trkpt>
      <trkpt lat="44.2534" lon="7.07771">
        <ele>1907</ele>
        <time>2013-09-20T10:48:29Z</time>
      </trkpt>
      <trkpt lat="44.25372" lon="7.07764">
        <ele>1908</ele>
        <time>2013-09-20T10:48:40Z</time>
      </trkpt>
      <trkpt lat="44.25384" lon="7.07762">
        <ele>1909</ele>
        <time>2013-09-20T10:48:48Z</time>
      </trkpt>
      <trkpt lat="44.25401" lon="7.0777">
        <ele>1909</ele>
        <time>2013-09-20T10:48:56Z</time>
      </trkpt>
      <trkpt lat="44.25421" lon="7.07778">
        <ele>1909</ele>
        <time>2013-09-20T10:49:04Z</time>
      </trkpt>
      <trkpt lat="44.25432" lon="7.07775">
        <ele>1909</ele>
        <time>2013-09-20T10:49:09Z</time>
      </trkpt>
      <trkpt lat="44.25463" lon="7.07751">
        <ele>1909</ele>
        <time>2013-09-20T10:49:18Z</time>
      </trkpt>
      <trkpt lat="44.25503" lon="7.07748">
        <ele>1911</ele>
        <time>2013-09-20T11:24:17Z</time>
      </trkpt>
      <trkpt lat="44.25518" lon="7.07745">
        <ele>1910</ele>
        <time>2013-09-20T11:24:23Z</time>
      </trkpt>
      <trkpt lat="44.25525" lon="7.07742">
        <ele>1910</ele>
        <time>2013-09-20T11:24:27Z</time>
      </trkpt>
      <trkpt lat="44.25541" lon="7.07739">
        <ele>1909</ele>
        <time>2013-09-20T11:24:35Z</time>
      </trkpt>
      <trkpt lat="44.25561" lon="7.07729">
        <ele>1909</ele>
        <time>2013-09-20T11:24:42Z</time>
      </trkpt>
      <trkpt lat="44.25564" lon="7.07725">
        <ele>1908</ele>
        <time>2013-09-20T11:24:47Z</time>
      </trkpt>
      <trkpt lat="44.2557" lon="7.07724">
        <ele>1908</ele>
        <time>2013-09-20T11:24:54Z</time>
      </trkpt>
      <trkpt lat="44.25581" lon="7.07723">
        <ele>1907</ele>
        <time>2013-09-20T11:25:04Z</time>
      </trkpt>
      <trkpt lat="44.25589" lon="7.07723">
        <ele>1907</ele>
        <time>2013-09-20T11:25:16Z</time>
      </trkpt>
      <trkpt lat="44.25601" lon="7.07725">
        <ele>1909</ele>
        <time>2013-09-20T11:25:35Z</time>
      </trkpt>
      <trkpt lat="44.2561" lon="7.07727">
        <ele>1912</ele>
        <time>2013-09-20T11:25:46Z</time>
      </trkpt>
      <trkpt lat="44.25619" lon="7.07726">
        <ele>1914</ele>
        <time>2013-09-20T11:25:53Z</time>
      </trkpt>
      <trkpt lat="44.25632" lon="7.07726">
        <ele>1917</ele>
        <time>2013-09-20T11:26:01Z</time>
      </trkpt>
      <trkpt lat="44.25644" lon="7.07722">
        <ele>1921</ele>
        <time>2013-09-20T11:26:09Z</time>
      </trkpt>
      <trkpt lat="44.25647" lon="7.07723">
        <ele>1922</ele>
        <time>2013-09-20T11:26:12Z</time>
      </trkpt>
      <trkpt lat="44.25655" lon="7.07723">
        <ele>1924</ele>
        <time>2013-09-20T11:26:18Z</time>
      </trkpt>
      <trkpt lat="44.25666" lon="7.07719">
        <ele>1927</ele>
        <time>2013-09-20T11:26:26Z</time>
      </trkpt>
      <trkpt lat="44.25694" lon="7.07711">
        <ele>1930</ele>
        <time>2013-09-20T11:26:36Z</time>
      </trkpt>
      <trkpt lat="44.25704" lon="7.07707">
        <ele>1932</ele>
        <time>2013-09-20T11:26:43Z</time>
      </trkpt>
      <trkpt lat="44.25706" lon="7.07707">
        <ele>1933</ele>
        <time>2013-09-20T11:26:53Z</time>
      </trkpt>
      <trkpt lat="44.25702" lon="7.07704">
        <ele>1933</ele>
        <time>2013-09-20T11:27:05Z</time>
      </trkpt>
      <trkpt lat="44.25694" lon="7.07706">
        <ele>1932</ele>
        <time>2013-09-20T11:27:14Z</time>
      </trkpt>
      <trkpt lat="44.25701" lon="7.07704">
        <ele>1932</ele>
        <time>2013-09-20T11:27:29Z</time>
      </trkpt>
      <trkpt lat="44.25711" lon="7.07702">
        <ele>1932</ele>
        <time>2013-09-20T11:27:33Z</time>
      </trkpt>
      <trkpt lat="44.25733" lon="7.07694">
        <ele>1931</ele>
        <time>2013-09-20T11:27:41Z</time>
      </trkpt>
      <trkpt lat="44.25771" lon="7.07685">
        <ele>1931</ele>
        <time>2013-09-20T11:27:50Z</time>
      </trkpt>
      <trkpt lat="44.258" lon="7.07689">
        <ele>1930</ele>
        <time>2013-09-20T11:27:57Z</time>
      </trkpt>
      <trkpt lat="44.25818" lon="7.07691">
        <ele>1930</ele>
        <time>2013-09-20T11:28:03Z</time>
      </trkpt>
      <trkpt lat="44.25829" lon="7.07689">
        <ele>1930</ele>
        <time>2013-09-20T11:28:07Z</time>
      </trkpt>
      <trkpt lat="44.25838" lon="7.07686">
        <ele>1930</ele>
        <time>2013-09-20T11:28:11Z</time>
      </trkpt>
      <trkpt lat="44.25851" lon="7.07668">
        <ele>1930</ele>
        <time>2013-09-20T11:28:19Z</time>
      </trkpt>
      <trkpt lat="44.2586" lon="7.07663">
        <ele>1930</ele>
        <time>2013-09-20T11:28:23Z</time>
      </trkpt>
      <trkpt lat="44.25865" lon="7.07661">
        <ele>1930</ele>
        <time>2013-09-20T11:28:28Z</time>
      </trkpt>
      <trkpt lat="44.25873" lon="7.07655">
        <ele>1931</ele>
        <time>2013-09-20T11:28:33Z</time>
      </trkpt>
      <trkpt lat="44.25888" lon="7.07646">
        <ele>1932</ele>
        <time>2013-09-20T11:28:41Z</time>
      </trkpt>
      <trkpt lat="44.25897" lon="7.07648">
        <ele>1932</ele>
        <time>2013-09-20T11:28:45Z</time>
      </trkpt>
      <trkpt lat="44.25908" lon="7.07647">
        <ele>1932</ele>
        <time>2013-09-20T11:28:49Z</time>
      </trkpt>
      <trkpt lat="44.2593" lon="7.0763">
        <ele>1932</ele>
        <time>2013-09-20T11:28:58Z</time>
      </trkpt>
      <trkpt lat="44.25951" lon="7.076">
        <ele>1932</ele>
        <time>2013-09-20T11:29:07Z</time>
      </trkpt>
      <trkpt lat="44.25967" lon="7.07581">
        <ele>1932</ele>
        <time>2013-09-20T11:29:15Z</time>
      </trkpt>
      <trkpt lat="44.25992" lon="7.07585">
        <ele>1932</ele>
        <time>2013-09-20T11:29:25Z</time>
      </trkpt>
      <trkpt lat="44.26002" lon="7.07586">
        <ele>1932</ele>
        <time>2013-09-20T11:29:33Z</time>
      </trkpt>
      <trkpt lat="44.26007" lon="7.07584">
        <ele>1932</ele>
        <time>2013-09-20T11:29:38Z</time>
      </trkpt>
      <trkpt lat="44.26014" lon="7.07586">
        <ele>1932</ele>
        <time>2013-09-20T11:29:44Z</time>
      </trkpt>
      <trkpt lat="44.26045" lon="7.07593">
        <ele>1931</ele>
        <time>2013-09-20T11:29:51Z</time>
      </trkpt>
      <trkpt lat="44.26078" lon="7.07599">
        <ele>1931</ele>
        <time>2013-09-20T11:29:57Z</time>
      </trkpt>
      <trkpt lat="44.26113" lon="7.07611">
        <ele>1931</ele>
        <time>2013-09-20T11:30:03Z</time>
      </trkpt>
      <trkpt lat="44.26128" lon="7.07614">
        <ele>1931</ele>
        <time>2013-09-20T11:30:08Z</time>
      </trkpt>
      <trkpt lat="44.26146" lon="7.07611">
        <ele>1931</ele>
        <time>2013-09-20T11:30:13Z</time>
      </trkpt>
      <trkpt lat="44.26157" lon="7.07615">
        <ele>1931</ele>
        <time>2013-09-20T11:30:20Z</time>
      </trkpt>
      <trkpt lat="44.26157" lon="7.07606">
        <ele>1931</ele>
        <time>2013-09-20T11:30:24Z</time>
      </trkpt>
      <trkpt lat="44.26158" lon="7.07601">
        <ele>1931</ele>
        <time>2013-09-20T11:30:27Z</time>
      </trkpt>
      <trkpt lat="44.26158" lon="7.07591">
        <ele>1930</ele>
        <time>2013-09-20T11:30:34Z</time>
      </trkpt>
      <trkpt lat="44.26161" lon="7.07583">
        <ele>1930</ele>
        <time>2013-09-20T11:30:37Z</time>
      </trkpt>
      <trkpt lat="44.26159" lon="7.07568">
        <ele>1930</ele>
        <time>2013-09-20T11:30:43Z</time>
      </trkpt>
      <trkpt lat="44.26155" lon="7.07546">
        <ele>1930</ele>
        <time>2013-09-20T11:30:49Z</time>
      </trkpt>
      <trkpt lat="44.26149" lon="7.0753">
        <ele>1930</ele>
        <time>2013-09-20T11:30:54Z</time>
      </trkpt>
      <trkpt lat="44.26144" lon="7.07513">
        <ele>1930</ele>
        <time>2013-09-20T11:30:57Z</time>
      </trkpt>
      <trkpt lat="44.26137" lon="7.07485">
        <ele>1930</ele>
        <time>2013-09-20T11:31:03Z</time>
      </trkpt>
      <trkpt lat="44.26135" lon="7.07478">
        <ele>1930</ele>
        <time>2013-09-20T11:31:05Z</time>
      </trkpt>
      <trkpt lat="44.26108" lon="7.07449">
        <ele>1930</ele>
        <time>2013-09-20T11:31:10Z</time>
      </trkpt>
      <trkpt lat="44.26085" lon="7.07428">
        <ele>1929</ele>
        <time>2013-09-20T11:31:16Z</time>
      </trkpt>
      <trkpt lat="44.26064" lon="7.07409">
        <ele>1929</ele>
        <time>2013-09-20T11:31:23Z</time>
      </trkpt>
      <trkpt lat="44.26052" lon="7.07387">
        <ele>1929</ele>
        <time>2013-09-20T11:31:28Z</time>
      </trkpt>
      <trkpt lat="44.26043" lon="7.07376">
        <ele>1929</ele>
        <time>2013-09-20T11:31:32Z</time>
      </trkpt>
      <trkpt lat="44.26037" lon="7.07368">
        <ele>1929</ele>
        <time>2013-09-20T11:31:38Z</time>
      </trkpt>
      <trkpt lat="44.26032" lon="7.07355">
        <ele>1929</ele>
        <time>2013-09-20T11:31:45Z</time>
      </trkpt>
      <trkpt lat="44.26028" lon="7.07348">
        <ele>1929</ele>
        <time>2013-09-20T11:31:49Z</time>
      </trkpt>
      <trkpt lat="44.26025" lon="7.07343">
        <ele>1928</ele>
        <time>2013-09-20T11:31:53Z</time>
      </trkpt>
      <trkpt lat="44.26017" lon="7.07331">
        <ele>1928</ele>
        <time>2013-09-20T11:32:01Z</time>
      </trkpt>
      <trkpt lat="44.2601" lon="7.07315">
        <ele>1928</ele>
        <time>2013-09-20T11:32:11Z</time>
      </trkpt>
      <trkpt lat="44.26001" lon="7.07294">
        <ele>1928</ele>
        <time>2013-09-20T11:32:23Z</time>
      </trkpt>
      <trkpt lat="44.25985" lon="7.07244">
        <ele>1928</ele>
        <time>2013-09-20T11:32:35Z</time>
      </trkpt>
      <trkpt lat="44.25975" lon="7.07215">
        <ele>1927</ele>
        <time>2013-09-20T11:32:46Z</time>
      </trkpt>
      <trkpt lat="44.2597" lon="7.07183">
        <ele>1927</ele>
        <time>2013-09-20T11:32:54Z</time>
      </trkpt>
      <trkpt lat="44.25973" lon="7.07182">
        <ele>1927</ele>
        <time>2013-09-20T11:33:05Z</time>
      </trkpt>
      <trkpt lat="44.25985" lon="7.07166">
        <ele>1927</ele>
        <time>2013-09-20T11:33:13Z</time>
      </trkpt>
      <trkpt lat="44.25985" lon="7.07164">
        <ele>1927</ele>
        <time>2013-09-20T11:33:18Z</time>
      </trkpt>
      <trkpt lat="44.25985" lon="7.07156">
        <ele>1926</ele>
        <time>2013-09-20T11:33:28Z</time>
      </trkpt>
      <trkpt lat="44.25975" lon="7.07137">
        <ele>1926</ele>
        <time>2013-09-20T11:33:38Z</time>
      </trkpt>
      <trkpt lat="44.25978" lon="7.07123">
        <ele>1926</ele>
        <time>2013-09-20T11:33:52Z</time>
      </trkpt>
      <trkpt lat="44.2598" lon="7.07116">
        <ele>1925</ele>
        <time>2013-09-20T11:33:56Z</time>
      </trkpt>
      <trkpt lat="44.2598" lon="7.07106">
        <ele>1925</ele>
        <time>2013-09-20T11:34:06Z</time>
      </trkpt>
      <trkpt lat="44.25979" lon="7.07095">
        <ele>1925</ele>
        <time>2013-09-20T11:34:12Z</time>
      </trkpt>
      <trkpt lat="44.2598" lon="7.07091">
        <ele>1925</ele>
        <time>2013-09-20T11:34:16Z</time>
      </trkpt>
      <trkpt lat="44.26" lon="7.0705">
        <ele>1925</ele>
        <time>2013-09-20T11:34:41Z</time>
      </trkpt>
      <trkpt lat="44.2602" lon="7.06992">
        <ele>1925</ele>
        <time>2013-09-20T11:34:59Z</time>
      </trkpt>
      <trkpt lat="44.26036" lon="7.06985">
        <ele>1925</ele>
        <time>2013-09-20T11:35:04Z</time>
      </trkpt>
      <trkpt lat="44.26042" lon="7.06977">
        <ele>1924</ele>
        <time>2013-09-20T11:35:07Z</time>
      </trkpt>
      <trkpt lat="44.26059" lon="7.06965">
        <ele>1924</ele>
        <time>2013-09-20T11:35:14Z</time>
      </trkpt>
      <trkpt lat="44.26072" lon="7.06956">
        <ele>1924</ele>
        <time>2013-09-20T11:35:19Z</time>
      </trkpt>
      <trkpt lat="44.26087" lon="7.06945">
        <ele>1923</ele>
        <time>2013-09-20T11:35:26Z</time>
      </trkpt>
      <trkpt lat="44.26097" lon="7.06925">
        <ele>1923</ele>
        <time>2013-09-20T11:35:31Z</time>
      </trkpt>
      <trkpt lat="44.2612" lon="7.06889">
        <ele>1922</ele>
        <time>2013-09-20T11:35:39Z</time>
      </trkpt>
      <trkpt lat="44.26132" lon="7.06867">
        <ele>1921</ele>
        <time>2013-09-20T11:35:45Z</time>
      </trkpt>
      <trkpt lat="44.26144" lon="7.06847">
        <ele>1921</ele>
        <time>2013-09-20T11:35:49Z</time>
      </trkpt>
      <trkpt lat="44.26152" lon="7.06835">
        <ele>1919</ele>
        <time>2013-09-20T11:35:54Z</time>
      </trkpt>
      <trkpt lat="44.26163" lon="7.06848">
        <ele>1915</ele>
        <time>2013-09-20T11:36:05Z</time>
      </trkpt>
      <trkpt lat="44.26179" lon="7.06829">
        <ele>1910</ele>
        <time>2013-09-20T11:36:15Z</time>
      </trkpt>
      <trkpt lat="44.26195" lon="7.0682">
        <ele>1904</ele>
        <time>2013-09-20T11:36:25Z</time>
      </trkpt>
      <trkpt lat="44.26217" lon="7.06814">
        <ele>1897</ele>
        <time>2013-09-20T11:36:33Z</time>
      </trkpt>
      <trkpt lat="44.2623" lon="7.06805">
        <ele>1892</ele>
        <time>2013-09-20T11:36:39Z</time>
      </trkpt>
      <trkpt lat="44.26263" lon="7.06779">
        <ele>1885</ele>
        <time>2013-09-20T11:36:48Z</time>
      </trkpt>
      <trkpt lat="44.26277" lon="7.0675">
        <ele>1879</ele>
        <time>2013-09-20T11:36:55Z</time>
      </trkpt>
      <trkpt lat="44.26291" lon="7.06721">
        <ele>1872</ele>
        <time>2013-09-20T11:37:03Z</time>
      </trkpt>
      <trkpt lat="44.26323" lon="7.06703">
        <ele>1863</ele>
        <time>2013-09-20T11:37:13Z</time>
      </trkpt>
      <trkpt lat="44.26352" lon="7.06684">
        <ele>1854</ele>
        <time>2013-09-20T11:37:23Z</time>
      </trkpt>
      <trkpt lat="44.26362" lon="7.06663">
        <ele>1848</ele>
        <time>2013-09-20T11:37:29Z</time>
      </trkpt>
      <trkpt lat="44.26384" lon="7.06666">
        <ele>1808</ele>
        <time>2013-09-20T11:38:11Z</time>
      </trkpt>
      <trkpt lat="44.26388" lon="7.06648">
        <ele>1801</ele>
        <time>2013-09-20T11:38:18Z</time>
      </trkpt>
      <trkpt lat="44.26405" lon="7.06629">
        <ele>1794</ele>
        <time>2013-09-20T11:38:27Z</time>
      </trkpt>
      <trkpt lat="44.26433" lon="7.06612">
        <ele>1786</ele>
        <time>2013-09-20T11:38:36Z</time>
      </trkpt>
      <trkpt lat="44.26464" lon="7.06579">
        <ele>1779</ele>
        <time>2013-09-20T11:38:46Z</time>
      </trkpt>
      <trkpt lat="44.26484" lon="7.06555">
        <ele>1773</ele>
        <time>2013-09-20T11:38:55Z</time>
      </trkpt>
      <trkpt lat="44.26485" lon="7.06502">
        <ele>1766</ele>
        <time>2013-09-20T11:39:04Z</time>
      </trkpt>
      <trkpt lat="44.26489" lon="7.06479">
        <ele>1764</ele>
        <time>2013-09-20T11:39:08Z</time>
      </trkpt>
      <trkpt lat="44.26495" lon="7.06445">
        <ele>1760</ele>
        <time>2013-09-20T11:39:14Z</time>
      </trkpt>
      <trkpt lat="44.26505" lon="7.06434">
        <ele>1758</ele>
        <time>2013-09-20T11:39:17Z</time>
      </trkpt>
      <trkpt lat="44.26515" lon="7.06405">
        <ele>1755</ele>
        <time>2013-09-20T11:39:23Z</time>
      </trkpt>
      <trkpt lat="44.26516" lon="7.06383">
        <ele>1752</ele>
        <time>2013-09-20T11:39:27Z</time>
      </trkpt>
      <trkpt lat="44.2652" lon="7.06348">
        <ele>1748</ele>
        <time>2013-09-20T11:39:35Z</time>
      </trkpt>
      <trkpt lat="44.26523" lon="7.06323">
        <ele>1745</ele>
        <time>2013-09-20T11:39:41Z</time>
      </trkpt>
      <trkpt lat="44.26532" lon="7.06309">
        <ele>1742</ele>
        <time>2013-09-20T11:39:46Z</time>
      </trkpt>
      <trkpt lat="44.26553" lon="7.06284">
        <ele>1738</ele>
        <time>2013-09-20T11:39:54Z</time>
      </trkpt>
      <trkpt lat="44.26574" lon="7.06255">
        <ele>1733</ele>
        <time>2013-09-20T11:40:03Z</time>
      </trkpt>
      <trkpt lat="44.26593" lon="7.06226">
        <ele>1730</ele>
        <time>2013-09-20T11:40:10Z</time>
      </trkpt>
      <trkpt lat="44.26598" lon="7.06197">
        <ele>1728</ele>
        <time>2013-09-20T11:40:15Z</time>
      </trkpt>
      <trkpt lat="44.26592" lon="7.06172">
        <ele>1726</ele>
        <time>2013-09-20T11:40:19Z</time>
      </trkpt>
      <trkpt lat="44.2659" lon="7.06136">
        <ele>1723</ele>
        <time>2013-09-20T11:40:26Z</time>
      </trkpt>
      <trkpt lat="44.26584" lon="7.06116">
        <ele>1721</ele>
        <time>2013-09-20T11:40:29Z</time>
      </trkpt>
      <trkpt lat="44.2658" lon="7.06101">
        <ele>1721</ele>
        <time>2013-09-20T11:40:31Z</time>
      </trkpt>
      <trkpt lat="44.26578" lon="7.0608">
        <ele>1719</ele>
        <time>2013-09-20T11:40:35Z</time>
      </trkpt>
      <trkpt lat="44.26577" lon="7.06063">
        <ele>1717</ele>
        <time>2013-09-20T11:40:40Z</time>
      </trkpt>
      <trkpt lat="44.26574" lon="7.06048">
        <ele>1710</ele>
        <time>2013-09-20T11:41:03Z</time>
      </trkpt>
      <trkpt lat="44.26564" lon="7.06043">
        <ele>1690</ele>
        <time>2013-09-20T11:43:05Z</time>
      </trkpt>
      <trkpt lat="44.26566" lon="7.0605">
        <ele>1689</ele>
        <time>2013-09-20T11:43:18Z</time>
      </trkpt>
      <trkpt lat="44.26567" lon="7.06035">
        <ele>1685</ele>
        <time>2013-09-20T11:44:19Z</time>
      </trkpt>
      <trkpt lat="44.26572" lon="7.06031">
        <ele>1684</ele>
        <time>2013-09-20T11:44:28Z</time>
      </trkpt>
      <trkpt lat="44.26567" lon="7.06049">
        <ele>1682</ele>
        <time>2013-09-20T11:45:14Z</time>
      </trkpt>
      <trkpt lat="44.26553" lon="7.06059">
        <ele>1682</ele>
        <time>2013-09-20T11:45:21Z</time>
      </trkpt>
      <trkpt lat="44.26558" lon="7.06049">
        <ele>1682</ele>
        <time>2013-09-20T11:45:39Z</time>
      </trkpt>
      <trkpt lat="44.26563" lon="7.06044">
        <ele>1681</ele>
        <time>2013-09-20T11:45:49Z</time>
      </trkpt>
      <trkpt lat="44.2657" lon="7.06043">
        <ele>1681</ele>
        <time>2013-09-20T11:46:01Z</time>
      </trkpt>
      <trkpt lat="44.26565" lon="7.06033">
        <ele>1681</ele>
        <time>2013-09-20T11:46:10Z</time>
      </trkpt>
      <trkpt lat="44.26562" lon="7.06013">
        <ele>1681</ele>
        <time>2013-09-20T11:46:14Z</time>
      </trkpt>
      <trkpt lat="44.2656" lon="7.05994">
        <ele>1681</ele>
        <time>2013-09-20T11:46:18Z</time>
      </trkpt>
      <trkpt lat="44.26551" lon="7.05965">
        <ele>1681</ele>
        <time>2013-09-20T11:46:26Z</time>
      </trkpt>
      <trkpt lat="44.26545" lon="7.05952">
        <ele>1680</ele>
        <time>2013-09-20T11:46:30Z</time>
      </trkpt>
      <trkpt lat="44.2654" lon="7.0593">
        <ele>1680</ele>
        <time>2013-09-20T11:46:34Z</time>
      </trkpt>
      <trkpt lat="44.26532" lon="7.05886">
        <ele>1680</ele>
        <time>2013-09-20T11:46:41Z</time>
      </trkpt>
      <trkpt lat="44.26527" lon="7.05858">
        <ele>1680</ele>
        <time>2013-09-20T11:46:48Z</time>
      </trkpt>
      <trkpt lat="44.26522" lon="7.0584">
        <ele>1680</ele>
        <time>2013-09-20T11:46:56Z</time>
      </trkpt>
      <trkpt lat="44.26519" lon="7.0583">
        <ele>1680</ele>
        <time>2013-09-20T11:47:00Z</time>
      </trkpt>
      <trkpt lat="44.26512" lon="7.0581">
        <ele>1680</ele>
        <time>2013-09-20T11:47:05Z</time>
      </trkpt>
      <trkpt lat="44.26504" lon="7.05776">
        <ele>1680</ele>
        <time>2013-09-20T11:47:13Z</time>
      </trkpt>
      <trkpt lat="44.26502" lon="7.05757">
        <ele>1680</ele>
        <time>2013-09-20T11:47:17Z</time>
      </trkpt>
      <trkpt lat="44.265" lon="7.05736">
        <ele>1679</ele>
        <time>2013-09-20T11:47:22Z</time>
      </trkpt>
      <trkpt lat="44.26496" lon="7.05718">
        <ele>1679</ele>
        <time>2013-09-20T11:47:26Z</time>
      </trkpt>
      <trkpt lat="44.26483" lon="7.05703">
        <ele>1679</ele>
        <time>2013-09-20T11:47:30Z</time>
      </trkpt>
      <trkpt lat="44.26455" lon="7.05662">
        <ele>1679</ele>
        <time>2013-09-20T11:47:35Z</time>
      </trkpt>
      <trkpt lat="44.26441" lon="7.05641">
        <ele>1679</ele>
        <time>2013-09-20T11:47:38Z</time>
      </trkpt>
      <trkpt lat="44.26413" lon="7.05605">
        <ele>1679</ele>
        <time>2013-09-20T11:47:43Z</time>
      </trkpt>
      <trkpt lat="44.26398" lon="7.05573">
        <ele>1679</ele>
        <time>2013-09-20T11:47:48Z</time>
      </trkpt>
      <trkpt lat="44.26384" lon="7.05552">
        <ele>1679</ele>
        <time>2013-09-20T11:47:51Z</time>
      </trkpt>
      <trkpt lat="44.26324" lon="7.05474">
        <ele>1678</ele>
        <time>2013-09-20T11:48:01Z</time>
      </trkpt>
      <trkpt lat="44.26318" lon="7.05465">
        <ele>1678</ele>
        <time>2013-09-20T11:48:04Z</time>
      </trkpt>
      <trkpt lat="44.26326" lon="7.05454">
        <ele>1676</ele>
        <time>2013-09-20T11:48:56Z</time>
      </trkpt>
      <trkpt lat="44.26322" lon="7.05429">
        <ele>1676</ele>
        <time>2013-09-20T11:49:06Z</time>
      </trkpt>
      <trkpt lat="44.26325" lon="7.05425">
        <ele>1676</ele>
        <time>2013-09-20T11:49:09Z</time>
      </trkpt>
      <trkpt lat="44.26323" lon="7.05419">
        <ele>1675</ele>
        <time>2013-09-20T11:49:17Z</time>
      </trkpt>
      <trkpt lat="44.2632" lon="7.05415">
        <ele>1674</ele>
        <time>2013-09-20T11:49:23Z</time>
      </trkpt>
      <trkpt lat="44.26318" lon="7.05412">
        <ele>1674</ele>
        <time>2013-09-20T11:49:27Z</time>
      </trkpt>
      <trkpt lat="44.26314" lon="7.05407">
        <ele>1672</ele>
        <time>2013-09-20T11:49:36Z</time>
      </trkpt>
      <trkpt lat="44.26316" lon="7.05407">
        <ele>1667</ele>
        <time>2013-09-20T11:49:49Z</time>
      </trkpt>
      <trkpt lat="44.26323" lon="7.05405">
        <ele>1660</ele>
        <time>2013-09-20T11:50:01Z</time>
      </trkpt>
      <trkpt lat="44.26324" lon="7.05413">
        <ele>1654</ele>
        <time>2013-09-20T11:50:10Z</time>
      </trkpt>
      <trkpt lat="44.26329" lon="7.05437">
        <ele>1647</ele>
        <time>2013-09-20T11:50:18Z</time>
      </trkpt>
      <trkpt lat="44.2633" lon="7.05459">
        <ele>1640</ele>
        <time>2013-09-20T11:50:27Z</time>
      </trkpt>
      <trkpt lat="44.26326" lon="7.0548">
        <ele>1630</ele>
        <time>2013-09-20T11:50:37Z</time>
      </trkpt>
      <trkpt lat="44.26323" lon="7.05494">
        <ele>1623</ele>
        <time>2013-09-20T11:50:44Z</time>
      </trkpt>
      <trkpt lat="44.26313" lon="7.05499">
        <ele>1618</ele>
        <time>2013-09-20T11:50:50Z</time>
      </trkpt>
      <trkpt lat="44.26313" lon="7.0551">
        <ele>1612</ele>
        <time>2013-09-20T11:50:56Z</time>
      </trkpt>
      <trkpt lat="44.26312" lon="7.0552">
        <ele>1604</ele>
        <time>2013-09-20T11:51:06Z</time>
      </trkpt>
      <trkpt lat="44.26312" lon="7.05527">
        <ele>1600</ele>
        <time>2013-09-20T11:51:12Z</time>
      </trkpt>
      <trkpt lat="44.26313" lon="7.05538">
        <ele>1595</ele>
        <time>2013-09-20T11:51:19Z</time>
      </trkpt>
      <trkpt lat="44.2631" lon="7.05542">
        <ele>1593</ele>
        <time>2013-09-20T11:51:22Z</time>
      </trkpt>
      <trkpt lat="44.26304" lon="7.05543">
        <ele>1591</ele>
        <time>2013-09-20T11:51:26Z</time>
      </trkpt>
      <trkpt lat="44.26299" lon="7.05538">
        <ele>1588</ele>
        <time>2013-09-20T11:51:31Z</time>
      </trkpt>
      <trkpt lat="44.26295" lon="7.05529">
        <ele>1584</ele>
        <time>2013-09-20T11:51:37Z</time>
      </trkpt>
      <trkpt lat="44.26291" lon="7.05519">
        <ele>1580</ele>
        <time>2013-09-20T11:51:44Z</time>
      </trkpt>
      <trkpt lat="44.26284" lon="7.05507">
        <ele>1575</ele>
        <time>2013-09-20T11:51:55Z</time>
      </trkpt>
      <trkpt lat="44.26283" lon="7.05501">
        <ele>1573</ele>
        <time>2013-09-20T11:51:59Z</time>
      </trkpt>
      <trkpt lat="44.26281" lon="7.05498">
        <ele>1572</ele>
        <time>2013-09-20T11:52:02Z</time>
      </trkpt>
      <trkpt lat="44.26279" lon="7.05485">
        <ele>1567</ele>
        <time>2013-09-20T11:52:13Z</time>
      </trkpt>
      <trkpt lat="44.26281" lon="7.05481">
        <ele>1565</ele>
        <time>2013-09-20T11:52:18Z</time>
      </trkpt>
      <trkpt lat="44.26281" lon="7.05471">
        <ele>1561</ele>
        <time>2013-09-20T11:52:27Z</time>
      </trkpt>
      <trkpt lat="44.26287" lon="7.05464">
        <ele>1557</ele>
        <time>2013-09-20T11:52:37Z</time>
      </trkpt>
      <trkpt lat="44.26287" lon="7.05458">
        <ele>1555</ele>
        <time>2013-09-20T11:52:43Z</time>
      </trkpt>
      <trkpt lat="44.26284" lon="7.05455">
        <ele>1554</ele>
        <time>2013-09-20T11:52:46Z</time>
      </trkpt>
      <trkpt lat="44.26281" lon="7.05444">
        <ele>1550</ele>
        <time>2013-09-20T11:52:55Z</time>
      </trkpt>
      <trkpt lat="44.26281" lon="7.05442">
        <ele>1549</ele>
        <time>2013-09-20T11:52:58Z</time>
      </trkpt>
      <trkpt lat="44.26278" lon="7.05433">
        <ele>1546</ele>
        <time>2013-09-20T11:53:07Z</time>
      </trkpt>
      <trkpt lat="44.26274" lon="7.05425">
        <ele>1544</ele>
        <time>2013-09-20T11:53:14Z</time>
      </trkpt>
      <trkpt lat="44.26268" lon="7.05413">
        <ele>1541</ele>
        <time>2013-09-20T11:53:24Z</time>
      </trkpt>
      <trkpt lat="44.26262" lon="7.05409">
        <ele>1539</ele>
        <time>2013-09-20T11:53:31Z</time>
      </trkpt>
      <trkpt lat="44.26256" lon="7.05407">
        <ele>1538</ele>
        <time>2013-09-20T11:53:36Z</time>
      </trkpt>
      <trkpt lat="44.26244" lon="7.05402">
        <ele>1536</ele>
        <time>2013-09-20T11:53:47Z</time>
      </trkpt>
      <trkpt lat="44.26234" lon="7.054">
        <ele>1535</ele>
        <time>2013-09-20T11:53:59Z</time>
      </trkpt>
      <trkpt lat="44.26219" lon="7.05396">
        <ele>1534</ele>
        <time>2013-09-20T11:54:12Z</time>
      </trkpt>
      <trkpt lat="44.26215" lon="7.05396">
        <ele>1533</ele>
        <time>2013-09-20T11:54:18Z</time>
      </trkpt>
      <trkpt lat="44.26206" lon="7.0539">
        <ele>1532</ele>
        <time>2013-09-20T11:54:36Z</time>
      </trkpt>
      <trkpt lat="44.262" lon="7.05384">
        <ele>1532</ele>
        <time>2013-09-20T11:54:42Z</time>
      </trkpt>
      <trkpt lat="44.26189" lon="7.05378">
        <ele>1532</ele>
        <time>2013-09-20T11:54:49Z</time>
      </trkpt>
      <trkpt lat="44.26177" lon="7.05375">
        <ele>1532</ele>
        <time>2013-09-20T11:54:58Z</time>
      </trkpt>
      <trkpt lat="44.26175" lon="7.05376">
        <ele>1532</ele>
        <time>2013-09-20T11:55:07Z</time>
      </trkpt>
      <trkpt lat="44.26168" lon="7.0537">
        <ele>1532</ele>
        <time>2013-09-20T11:55:17Z</time>
      </trkpt>
      <trkpt lat="44.2616" lon="7.05363">
        <ele>1531</ele>
        <time>2013-09-20T11:55:27Z</time>
      </trkpt>
      <trkpt lat="44.2615" lon="7.05355">
        <ele>1531</ele>
        <time>2013-09-20T11:55:39Z</time>
      </trkpt>
      <trkpt lat="44.26146" lon="7.05351">
        <ele>1531</ele>
        <time>2013-09-20T11:55:45Z</time>
      </trkpt>
      <trkpt lat="44.26142" lon="7.0534">
        <ele>1530</ele>
        <time>2013-09-20T11:56:10Z</time>
      </trkpt>
      <trkpt lat="44.26131" lon="7.05343">
        <ele>1530</ele>
        <time>2013-09-20T11:56:39Z</time>
      </trkpt>
      <trkpt lat="44.26122" lon="7.05342">
        <ele>1530</ele>
        <time>2013-09-20T11:56:44Z</time>
      </trkpt>
      <trkpt lat="44.26112" lon="7.05341">
        <ele>1530</ele>
        <time>2013-09-20T11:56:50Z</time>
      </trkpt>
      <trkpt lat="44.26097" lon="7.05344">
        <ele>1529</ele>
        <time>2013-09-20T11:57:00Z</time>
      </trkpt>
      <trkpt lat="44.26092" lon="7.05342">
        <ele>1529</ele>
        <time>2013-09-20T11:57:04Z</time>
      </trkpt>
      <trkpt lat="44.26084" lon="7.05334">
        <ele>1529</ele>
        <time>2013-09-20T11:57:13Z</time>
      </trkpt>
      <trkpt lat="44.26085" lon="7.0533">
        <ele>1529</ele>
        <time>2013-09-20T11:57:18Z</time>
      </trkpt>
      <trkpt lat="44.26084" lon="7.05325">
        <ele>1529</ele>
        <time>2013-09-20T11:57:22Z</time>
      </trkpt>
      <trkpt lat="44.2608" lon="7.0532">
        <ele>1529</ele>
        <time>2013-09-20T11:57:26Z</time>
      </trkpt>
      <trkpt lat="44.26076" lon="7.05315">
        <ele>1529</ele>
        <time>2013-09-20T11:57:31Z</time>
      </trkpt>
      <trkpt lat="44.26069" lon="7.0531">
        <ele>1529</ele>
        <time>2013-09-20T11:57:37Z</time>
      </trkpt>
      <trkpt lat="44.26067" lon="7.05305">
        <ele>1529</ele>
        <time>2013-09-20T11:57:41Z</time>
      </trkpt>
      <trkpt lat="44.26064" lon="7.05299">
        <ele>1529</ele>
        <time>2013-09-20T11:57:48Z</time>
      </trkpt>
      <trkpt lat="44.26061" lon="7.05296">
        <ele>1529</ele>
        <time>2013-09-20T11:57:54Z</time>
      </trkpt>
      <trkpt lat="44.26057" lon="7.0529">
        <ele>1529</ele>
        <time>2013-09-20T11:58:03Z</time>
      </trkpt>
      <trkpt lat="44.26052" lon="7.05282">
        <ele>1528</ele>
        <time>2013-09-20T11:58:12Z</time>
      </trkpt>
      <trkpt lat="44.26038" lon="7.05271">
        <ele>1528</ele>
        <time>2013-09-20T11:58:24Z</time>
      </trkpt>
      <trkpt lat="44.26033" lon="7.05267">
        <ele>1528</ele>
        <time>2013-09-20T11:58:28Z</time>
      </trkpt>
      <trkpt lat="44.26015" lon="7.05259">
        <ele>1528</ele>
        <time>2013-09-20T11:58:39Z</time>
      </trkpt>
      <trkpt lat="44.26001" lon="7.05249">
        <ele>1528</ele>
        <time>2013-09-20T11:58:50Z</time>
      </trkpt>
      <trkpt lat="44.25997" lon="7.05244">
        <ele>1528</ele>
        <time>2013-09-20T11:58:54Z</time>
      </trkpt>
      <trkpt lat="44.25997" lon="7.05239">
        <ele>1528</ele>
        <time>2013-09-20T11:58:58Z</time>
      </trkpt>
      <trkpt lat="44.2599" lon="7.05231">
        <ele>1528</ele>
        <time>2013-09-20T11:59:04Z</time>
      </trkpt>
      <trkpt lat="44.25988" lon="7.05224">
        <ele>1528</ele>
        <time>2013-09-20T11:59:09Z</time>
      </trkpt>
      <trkpt lat="44.25979" lon="7.05213">
        <ele>1528</ele>
        <time>2013-09-20T11:59:18Z</time>
      </trkpt>
      <trkpt lat="44.25972" lon="7.05207">
        <ele>1528</ele>
        <time>2013-09-20T11:59:23Z</time>
      </trkpt>
      <trkpt lat="44.25955" lon="7.052">
        <ele>1528</ele>
        <time>2013-09-20T11:59:32Z</time>
      </trkpt>
      <trkpt lat="44.25953" lon="7.05196">
        <ele>1528</ele>
        <time>2013-09-20T11:59:37Z</time>
      </trkpt>
      <trkpt lat="44.25941" lon="7.05195">
        <ele>1528</ele>
        <time>2013-09-20T11:59:47Z</time>
      </trkpt>
      <trkpt lat="44.25946" lon="7.05199">
        <ele>1528</ele>
        <time>2013-09-20T11:59:54Z</time>
      </trkpt>
      <trkpt lat="44.25939" lon="7.05198">
        <ele>1528</ele>
        <time>2013-09-20T11:59:59Z</time>
      </trkpt>
      <trkpt lat="44.25956" lon="7.05207">
        <ele>1529</ele>
        <time>2013-09-20T12:00:13Z</time>
      </trkpt>
      <trkpt lat="44.25958" lon="7.05214">
        <ele>1529</ele>
        <time>2013-09-20T12:00:24Z</time>
      </trkpt>
      <trkpt lat="44.25961" lon="7.05225">
        <ele>1529</ele>
        <time>2013-09-20T12:00:32Z</time>
      </trkpt>
      <trkpt lat="44.25956" lon="7.05228">
        <ele>1529</ele>
        <time>2013-09-20T12:00:36Z</time>
      </trkpt>
      <trkpt lat="44.25962" lon="7.05241">
        <ele>1529</ele>
        <time>2013-09-20T12:00:44Z</time>
      </trkpt>
      <trkpt lat="44.25971" lon="7.05249">
        <ele>1529</ele>
        <time>2013-09-20T12:00:48Z</time>
      </trkpt>
      <trkpt lat="44.25977" lon="7.05258">
        <ele>1529</ele>
        <time>2013-09-20T12:00:54Z</time>
      </trkpt>
      <trkpt lat="44.25979" lon="7.05266">
        <ele>1529</ele>
        <time>2013-09-20T12:01:00Z</time>
      </trkpt>
      <trkpt lat="44.25982" lon="7.05271">
        <ele>1529</ele>
        <time>2013-09-20T12:01:04Z</time>
      </trkpt>
      <trkpt lat="44.25982" lon="7.05274">
        <ele>1529</ele>
        <time>2013-09-20T12:01:08Z</time>
      </trkpt>
      <trkpt lat="44.25994" lon="7.05287">
        <ele>1529</ele>
        <time>2013-09-20T12:01:18Z</time>
      </trkpt>
      <trkpt lat="44.25999" lon="7.05297">
        <ele>1529</ele>
        <time>2013-09-20T12:01:25Z</time>
      </trkpt>
      <trkpt lat="44.26003" lon="7.05306">
        <ele>1529</ele>
        <time>2013-09-20T12:01:30Z</time>
      </trkpt>
      <trkpt lat="44.26007" lon="7.05314">
        <ele>1529</ele>
        <time>2013-09-20T12:01:35Z</time>
      </trkpt>
      <trkpt lat="44.26013" lon="7.0532">
        <ele>1529</ele>
        <time>2013-09-20T12:01:38Z</time>
      </trkpt>
      <trkpt lat="44.26012" lon="7.0532">
        <ele>1529</ele>
        <time>2013-09-20T12:01:46Z</time>
      </trkpt>
      <trkpt lat="44.26004" lon="7.05307">
        <ele>1529</ele>
        <time>2013-09-20T12:02:00Z</time>
      </trkpt>
      <trkpt lat="44.25999" lon="7.05303">
        <ele>1529</ele>
        <time>2013-09-20T12:02:04Z</time>
      </trkpt>
      <trkpt lat="44.25991" lon="7.05295">
        <ele>1529</ele>
        <time>2013-09-20T12:02:17Z</time>
      </trkpt>
      <trkpt lat="44.25985" lon="7.05291">
        <ele>1529</ele>
        <time>2013-09-20T12:02:26Z</time>
      </trkpt>
      <trkpt lat="44.25984" lon="7.05289">
        <ele>1529</ele>
        <time>2013-09-20T12:02:38Z</time>
      </trkpt>
      <trkpt lat="44.2597" lon="7.05272">
        <ele>1529</ele>
        <time>2013-09-20T12:03:04Z</time>
      </trkpt>
      <trkpt lat="44.25955" lon="7.05268">
        <ele>1529</ele>
        <time>2013-09-20T12:03:14Z</time>
      </trkpt>
      <trkpt lat="44.25944" lon="7.05265">
        <ele>1529</ele>
        <time>2013-09-20T12:03:25Z</time>
      </trkpt>
      <trkpt lat="44.2594" lon="7.05265">
        <ele>1529</ele>
        <time>2013-09-20T12:03:38Z</time>
      </trkpt>
      <trkpt lat="44.25932" lon="7.05261">
        <ele>1529</ele>
        <time>2013-09-20T12:03:44Z</time>
      </trkpt>
      <trkpt lat="44.2591" lon="7.0526">
        <ele>1529</ele>
        <time>2013-09-20T12:03:54Z</time>
      </trkpt>
      <trkpt lat="44.25896" lon="7.05258">
        <ele>1529</ele>
        <time>2013-09-20T12:04:04Z</time>
      </trkpt>
      <trkpt lat="44.25877" lon="7.05263">
        <ele>1529</ele>
        <time>2013-09-20T12:04:19Z</time>
      </trkpt>
      <trkpt lat="44.25861" lon="7.05261">
        <ele>1529</ele>
        <time>2013-09-20T12:04:29Z</time>
      </trkpt>
      <trkpt lat="44.25861" lon="7.05259">
        <ele>1529</ele>
        <time>2013-09-20T12:04:33Z</time>
      </trkpt>
      <trkpt lat="44.25853" lon="7.05254">
        <ele>1529</ele>
        <time>2013-09-20T12:04:42Z</time>
      </trkpt>
      <trkpt lat="44.2583" lon="7.05242">
        <ele>1529</ele>
        <time>2013-09-20T12:04:53Z</time>
      </trkpt>
      <trkpt lat="44.25834" lon="7.05238">
        <ele>1529</ele>
        <time>2013-09-20T12:04:56Z</time>
      </trkpt>
      <trkpt lat="44.25835" lon="7.05222">
        <ele>1529</ele>
        <time>2013-09-20T12:05:03Z</time>
      </trkpt>
      <trkpt lat="44.25837" lon="7.05216">
        <ele>1529</ele>
        <time>2013-09-20T12:05:06Z</time>
      </trkpt>
      <trkpt lat="44.25845" lon="7.05208">
        <ele>1529</ele>
        <time>2013-09-20T12:05:11Z</time>
      </trkpt>
      <trkpt lat="44.25847" lon="7.05194">
        <ele>1529</ele>
        <time>2013-09-20T12:05:18Z</time>
      </trkpt>
      <trkpt lat="44.25839" lon="7.05181">
        <ele>1529</ele>
        <time>2013-09-20T12:05:26Z</time>
      </trkpt>
      <trkpt lat="44.25847" lon="7.05159">
        <ele>1529</ele>
        <time>2013-09-20T12:05:35Z</time>
      </trkpt>
      <trkpt lat="44.25853" lon="7.05152">
        <ele>1530</ele>
        <time>2013-09-20T12:05:42Z</time>
      </trkpt>
      <trkpt lat="44.2585" lon="7.05146">
        <ele>1530</ele>
        <time>2013-09-20T12:05:47Z</time>
      </trkpt>
      <trkpt lat="44.25846" lon="7.05151">
        <ele>1530</ele>
        <time>2013-09-20T12:05:52Z</time>
      </trkpt>
      <trkpt lat="44.2585" lon="7.05151">
        <ele>1530</ele>
        <time>2013-09-20T12:05:57Z</time>
      </trkpt>
      <trkpt lat="44.2585" lon="7.05149">
        <ele>1530</ele>
        <time>2013-09-20T12:06:00Z</time>
      </trkpt>
      <trkpt lat="44.2585" lon="7.05152">
        <ele>1530</ele>
        <time>2013-09-20T12:06:03Z</time>
      </trkpt>
      <trkpt lat="44.25852" lon="7.05146">
        <ele>1530</ele>
        <time>2013-09-20T12:06:07Z</time>
      </trkpt>
      <trkpt lat="44.25853" lon="7.05129">
        <ele>1530</ele>
        <time>2013-09-20T12:06:13Z</time>
      </trkpt>
      <trkpt lat="44.25847" lon="7.05102">
        <ele>1531</ele>
        <time>2013-09-20T12:06:21Z</time>
      </trkpt>
      <trkpt lat="44.25842" lon="7.05084">
        <ele>1531</ele>
        <time>2013-09-20T12:06:26Z</time>
      </trkpt>
      <trkpt lat="44.25848" lon="7.0506">
        <ele>1533</ele>
        <time>2013-09-20T12:06:33Z</time>
      </trkpt>
      <trkpt lat="44.25842" lon="7.0504">
        <ele>1535</ele>
        <time>2013-09-20T12:06:39Z</time>
      </trkpt>
      <trkpt lat="44.25843" lon="7.05024">
        <ele>1536</ele>
        <time>2013-09-20T12:06:43Z</time>
      </trkpt>
      <trkpt lat="44.25843" lon="7.05013">
        <ele>1538</ele>
        <time>2013-09-20T12:06:46Z</time>
      </trkpt>
      <trkpt lat="44.25851" lon="7.04993">
        <ele>1540</ele>
        <time>2013-09-20T12:06:52Z</time>
      </trkpt>
      <trkpt lat="44.2585" lon="7.04983">
        <ele>1542</ele>
        <time>2013-09-20T12:06:55Z</time>
      </trkpt>
      <trkpt lat="44.25845" lon="7.04963">
        <ele>1545</ele>
        <time>2013-09-20T12:07:01Z</time>
      </trkpt>
      <trkpt lat="44.25842" lon="7.04925">
        <ele>1551</ele>
        <time>2013-09-20T12:07:11Z</time>
      </trkpt>
      <trkpt lat="44.25829" lon="7.04897">
        <ele>1557</ele>
        <time>2013-09-20T12:07:18Z</time>
      </trkpt>
      <trkpt lat="44.25833" lon="7.04879">
        <ele>1563</ele>
        <time>2013-09-20T12:07:25Z</time>
      </trkpt>
      <trkpt lat="44.25838" lon="7.0486">
        <ele>1568</ele>
        <time>2013-09-20T12:07:31Z</time>
      </trkpt>
      <trkpt lat="44.25839" lon="7.04849">
        <ele>1571</ele>
        <time>2013-09-20T12:07:35Z</time>
      </trkpt>
      <trkpt lat="44.25844" lon="7.0483">
        <ele>1578</ele>
        <time>2013-09-20T12:07:43Z</time>
      </trkpt>
      <trkpt lat="44.25847" lon="7.04816">
        <ele>1582</ele>
        <time>2013-09-20T12:07:49Z</time>
      </trkpt>
      <trkpt lat="44.25847" lon="7.04796">
        <ele>1586</ele>
        <time>2013-09-20T12:07:56Z</time>
      </trkpt>
      <trkpt lat="44.25847" lon="7.04776">
        <ele>1591</ele>
        <time>2013-09-20T12:08:03Z</time>
      </trkpt>
      <trkpt lat="44.25848" lon="7.04754">
        <ele>1595</ele>
        <time>2013-09-20T12:08:10Z</time>
      </trkpt>
      <trkpt lat="44.25849" lon="7.04724">
        <ele>1601</ele>
        <time>2013-09-20T12:08:20Z</time>
      </trkpt>
      <trkpt lat="44.25851" lon="7.04696">
        <ele>1605</ele>
        <time>2013-09-20T12:08:29Z</time>
      </trkpt>
      <trkpt lat="44.25863" lon="7.04659">
        <ele>1612</ele>
        <time>2013-09-20T12:08:44Z</time>
      </trkpt>
      <trkpt lat="44.25872" lon="7.04635">
        <ele>1616</ele>
        <time>2013-09-20T12:08:57Z</time>
      </trkpt>
      <trkpt lat="44.25876" lon="7.04626">
        <ele>1618</ele>
        <time>2013-09-20T12:09:02Z</time>
      </trkpt>
      <trkpt lat="44.25878" lon="7.04623">
        <ele>1618</ele>
        <time>2013-09-20T12:09:04Z</time>
      </trkpt>
      <trkpt lat="44.25881" lon="7.04613">
        <ele>1619</ele>
        <time>2013-09-20T12:09:10Z</time>
      </trkpt>
      <trkpt lat="44.25885" lon="7.04596">
        <ele>1621</ele>
        <time>2013-09-20T12:09:20Z</time>
      </trkpt>
      <trkpt lat="44.25888" lon="7.04586">
        <ele>1623</ele>
        <time>2013-09-20T12:09:27Z</time>
      </trkpt>
      <trkpt lat="44.25889" lon="7.04577">
        <ele>1624</ele>
        <time>2013-09-20T12:09:33Z</time>
      </trkpt>
      <trkpt lat="44.2589" lon="7.04568">
        <ele>1625</ele>
        <time>2013-09-20T12:09:39Z</time>
      </trkpt>
      <trkpt lat="44.25893" lon="7.04549">
        <ele>1627</ele>
        <time>2013-09-20T12:09:52Z</time>
      </trkpt>
      <trkpt lat="44.25894" lon="7.04543">
        <ele>1628</ele>
        <time>2013-09-20T12:09:57Z</time>
      </trkpt>
      <trkpt lat="44.25896" lon="7.04533">
        <ele>1629</ele>
        <time>2013-09-20T12:10:03Z</time>
      </trkpt>
      <trkpt lat="44.25898" lon="7.04526">
        <ele>1629</ele>
        <time>2013-09-20T12:10:08Z</time>
      </trkpt>
      <trkpt lat="44.25898" lon="7.04513">
        <ele>1631</ele>
        <time>2013-09-20T12:10:15Z</time>
      </trkpt>
      <trkpt lat="44.25893" lon="7.04511">
        <ele>1631</ele>
        <time>2013-09-20T12:10:21Z</time>
      </trkpt>
      <trkpt lat="44.25874" lon="7.04513">
        <ele>1643</ele>
        <time>2013-09-20T12:11:27Z</time>
      </trkpt>
      <trkpt lat="44.25879" lon="7.04514">
        <ele>1643</ele>
        <time>2013-09-20T12:11:34Z</time>
      </trkpt>
      <trkpt lat="44.25867" lon="7.04512">
        <ele>1646</ele>
        <time>2013-09-20T12:12:11Z</time>
      </trkpt>
      <trkpt lat="44.25871" lon="7.04511">
        <ele>1646</ele>
        <time>2013-09-20T12:12:33Z</time>
      </trkpt>
      <trkpt lat="44.25868" lon="7.04508">
        <ele>1647</ele>
        <time>2013-09-20T12:12:55Z</time>
      </trkpt>
      <trkpt lat="44.25849" lon="7.04522">
        <ele>1647</ele>
        <time>2013-09-20T12:14:27Z</time>
      </trkpt>
      <trkpt lat="44.25844" lon="7.04533">
        <ele>1647</ele>
        <time>2013-09-20T12:14:36Z</time>
      </trkpt>
      <trkpt lat="44.25839" lon="7.04551">
        <ele>1647</ele>
        <time>2013-09-20T12:14:49Z</time>
      </trkpt>
      <trkpt lat="44.25832" lon="7.04563">
        <ele>1647</ele>
        <time>2013-09-20T12:14:59Z</time>
      </trkpt>
      <trkpt lat="44.2582" lon="7.04574">
        <ele>1647</ele>
        <time>2013-09-20T12:15:12Z</time>
      </trkpt>
      <trkpt lat="44.25813" lon="7.04588">
        <ele>1647</ele>
        <time>2013-09-20T12:15:23Z</time>
      </trkpt>
      <trkpt lat="44.2581" lon="7.04595">
        <ele>1647</ele>
        <time>2013-09-20T12:15:29Z</time>
      </trkpt>
      <trkpt lat="44.25807" lon="7.04601">
        <ele>1647</ele>
        <time>2013-09-20T12:15:34Z</time>
      </trkpt>
      <trkpt lat="44.25804" lon="7.04615">
        <ele>1648</ele>
        <time>2013-09-20T12:15:43Z</time>
      </trkpt>
      <trkpt lat="44.258" lon="7.04626">
        <ele>1649</ele>
        <time>2013-09-20T12:15:51Z</time>
      </trkpt>
      <trkpt lat="44.25799" lon="7.04636">
        <ele>1649</ele>
        <time>2013-09-20T12:15:57Z</time>
      </trkpt>
      <trkpt lat="44.25798" lon="7.0465">
        <ele>1651</ele>
        <time>2013-09-20T12:16:07Z</time>
      </trkpt>
      <trkpt lat="44.25796" lon="7.04668">
        <ele>1652</ele>
        <time>2013-09-20T12:16:18Z</time>
      </trkpt>
      <trkpt lat="44.2579" lon="7.04675">
        <ele>1653</ele>
        <time>2013-09-20T12:16:24Z</time>
      </trkpt>
      <trkpt lat="44.25782" lon="7.04683">
        <ele>1654</ele>
        <time>2013-09-20T12:16:31Z</time>
      </trkpt>
      <trkpt lat="44.25778" lon="7.0469">
        <ele>1655</ele>
        <time>2013-09-20T12:16:36Z</time>
      </trkpt>
      <trkpt lat="44.25776" lon="7.04697">
        <ele>1655</ele>
        <time>2013-09-20T12:16:40Z</time>
      </trkpt>
      <trkpt lat="44.25772" lon="7.04703">
        <ele>1656</ele>
        <time>2013-09-20T12:16:45Z</time>
      </trkpt>
      <trkpt lat="44.25768" lon="7.04716">
        <ele>1657</ele>
        <time>2013-09-20T12:16:53Z</time>
      </trkpt>
      <trkpt lat="44.25766" lon="7.04721">
        <ele>1658</ele>
        <time>2013-09-20T12:16:57Z</time>
      </trkpt>
      <trkpt lat="44.25765" lon="7.04726">
        <ele>1658</ele>
        <time>2013-09-20T12:17:00Z</time>
      </trkpt>
      <trkpt lat="44.25764" lon="7.04728">
        <ele>1658</ele>
        <time>2013-09-20T12:17:03Z</time>
      </trkpt>
      <trkpt lat="44.25756" lon="7.04736">
        <ele>1660</ele>
        <time>2013-09-20T12:17:11Z</time>
      </trkpt>
      <trkpt lat="44.25751" lon="7.04743">
        <ele>1661</ele>
        <time>2013-09-20T12:17:17Z</time>
      </trkpt>
      <trkpt lat="44.25747" lon="7.04749">
        <ele>1662</ele>
        <time>2013-09-20T12:17:22Z</time>
      </trkpt>
      <trkpt lat="44.2574" lon="7.04761">
        <ele>1664</ele>
        <time>2013-09-20T12:17:32Z</time>
      </trkpt>
      <trkpt lat="44.25737" lon="7.04764">
        <ele>1664</ele>
        <time>2013-09-20T12:17:35Z</time>
      </trkpt>
      <trkpt lat="44.25735" lon="7.04767">
        <ele>1665</ele>
        <time>2013-09-20T12:17:38Z</time>
      </trkpt>
      <trkpt lat="44.25729" lon="7.04773">
        <ele>1667</ele>
        <time>2013-09-20T12:17:45Z</time>
      </trkpt>
      <trkpt lat="44.25727" lon="7.04775">
        <ele>1667</ele>
        <time>2013-09-20T12:17:48Z</time>
      </trkpt>
      <trkpt lat="44.25725" lon="7.04781">
        <ele>1668</ele>
        <time>2013-09-20T12:17:52Z</time>
      </trkpt>
      <trkpt lat="44.25723" lon="7.04785">
        <ele>1669</ele>
        <time>2013-09-20T12:17:56Z</time>
      </trkpt>
      <trkpt lat="44.2571" lon="7.04789">
        <ele>1671</ele>
        <time>2013-09-20T12:18:05Z</time>
      </trkpt>
      <trkpt lat="44.25704" lon="7.0479">
        <ele>1672</ele>
        <time>2013-09-20T12:18:10Z</time>
      </trkpt>
      <trkpt lat="44.25695" lon="7.04791">
        <ele>1675</ele>
        <time>2013-09-20T12:18:20Z</time>
      </trkpt>
      <trkpt lat="44.2569" lon="7.04795">
        <ele>1677</ele>
        <time>2013-09-20T12:18:26Z</time>
      </trkpt>
      <trkpt lat="44.25686" lon="7.04797">
        <ele>1679</ele>
        <time>2013-09-20T12:18:32Z</time>
      </trkpt>
      <trkpt lat="44.25682" lon="7.048">
        <ele>1680</ele>
        <time>2013-09-20T12:18:36Z</time>
      </trkpt>
      <trkpt lat="44.25672" lon="7.04811">
        <ele>1683</ele>
        <time>2013-09-20T12:18:46Z</time>
      </trkpt>
      <trkpt lat="44.25664" lon="7.0483">
        <ele>1686</ele>
        <time>2013-09-20T12:18:57Z</time>
      </trkpt>
      <trkpt lat="44.25652" lon="7.04839">
        <ele>1690</ele>
        <time>2013-09-20T12:19:09Z</time>
      </trkpt>
      <trkpt lat="44.2564" lon="7.04845">
        <ele>1694</ele>
        <time>2013-09-20T12:19:20Z</time>
      </trkpt>
      <trkpt lat="44.25631" lon="7.04853">
        <ele>1696</ele>
        <time>2013-09-20T12:19:29Z</time>
      </trkpt>
      <trkpt lat="44.25623" lon="7.04859">
        <ele>1698</ele>
        <time>2013-09-20T12:19:36Z</time>
      </trkpt>
      <trkpt lat="44.25618" lon="7.04863">
        <ele>1700</ele>
        <time>2013-09-20T12:19:41Z</time>
      </trkpt>
      <trkpt lat="44.25609" lon="7.04869">
        <ele>1702</ele>
        <time>2013-09-20T12:19:51Z</time>
      </trkpt>
      <trkpt lat="44.25605" lon="7.04872">
        <ele>1703</ele>
        <time>2013-09-20T12:19:54Z</time>
      </trkpt>
      <trkpt lat="44.25598" lon="7.04876">
        <ele>1705</ele>
        <time>2013-09-20T12:19:59Z</time>
      </trkpt>
      <trkpt lat="44.25589" lon="7.04884">
        <ele>1708</ele>
        <time>2013-09-20T12:20:07Z</time>
      </trkpt>
      <trkpt lat="44.25587" lon="7.04889">
        <ele>1709</ele>
        <time>2013-09-20T12:20:10Z</time>
      </trkpt>
      <trkpt lat="44.25581" lon="7.04896">
        <ele>1711</ele>
        <time>2013-09-20T12:20:16Z</time>
      </trkpt>
      <trkpt lat="44.25574" lon="7.04906">
        <ele>1714</ele>
        <time>2013-09-20T12:20:24Z</time>
      </trkpt>
      <trkpt lat="44.25572" lon="7.0491">
        <ele>1715</ele>
        <time>2013-09-20T12:20:28Z</time>
      </trkpt>
      <trkpt lat="44.25561" lon="7.04928">
        <ele>1718</ele>
        <time>2013-09-20T12:20:42Z</time>
      </trkpt>
      <trkpt lat="44.25557" lon="7.04944">
        <ele>1719</ele>
        <time>2013-09-20T12:20:52Z</time>
      </trkpt>
      <trkpt lat="44.25549" lon="7.04939">
        <ele>1720</ele>
        <time>2013-09-20T12:21:00Z</time>
      </trkpt>
      <trkpt lat="44.25552" lon="7.04928">
        <ele>1721</ele>
        <time>2013-09-20T12:21:09Z</time>
      </trkpt>
      <trkpt lat="44.25556" lon="7.04917">
        <ele>1722</ele>
        <time>2013-09-20T12:21:19Z</time>
      </trkpt>
      <trkpt lat="44.25557" lon="7.04905">
        <ele>1723</ele>
        <time>2013-09-20T12:21:29Z</time>
      </trkpt>
      <trkpt lat="44.25555" lon="7.04902">
        <ele>1723</ele>
        <time>2013-09-20T12:21:32Z</time>
      </trkpt>
      <trkpt lat="44.25555" lon="7.04895">
        <ele>1724</ele>
        <time>2013-09-20T12:21:36Z</time>
      </trkpt>
      <trkpt lat="44.25547" lon="7.04881">
        <ele>1725</ele>
        <time>2013-09-20T12:21:45Z</time>
      </trkpt>
      <trkpt lat="44.2555" lon="7.04875">
        <ele>1726</ele>
        <time>2013-09-20T12:21:49Z</time>
      </trkpt>
      <trkpt lat="44.25555" lon="7.04869">
        <ele>1727</ele>
        <time>2013-09-20T12:21:54Z</time>
      </trkpt>
      <trkpt lat="44.25557" lon="7.04865">
        <ele>1727</ele>
        <time>2013-09-20T12:21:57Z</time>
      </trkpt>
      <trkpt lat="44.25558" lon="7.04859">
        <ele>1728</ele>
        <time>2013-09-20T12:22:01Z</time>
      </trkpt>
      <trkpt lat="44.25561" lon="7.04853">
        <ele>1729</ele>
        <time>2013-09-20T12:22:06Z</time>
      </trkpt>
      <trkpt lat="44.25563" lon="7.04843">
        <ele>1730</ele>
        <time>2013-09-20T12:22:13Z</time>
      </trkpt>
      <trkpt lat="44.25568" lon="7.04835">
        <ele>1732</ele>
        <time>2013-09-20T12:22:20Z</time>
      </trkpt>
      <trkpt lat="44.25576" lon="7.04832">
        <ele>1733</ele>
        <time>2013-09-20T12:22:25Z</time>
      </trkpt>
      <trkpt lat="44.25579" lon="7.0483">
        <ele>1733</ele>
        <time>2013-09-20T12:22:29Z</time>
      </trkpt>
      <trkpt lat="44.25582" lon="7.04828">
        <ele>1734</ele>
        <time>2013-09-20T12:22:32Z</time>
      </trkpt>
      <trkpt lat="44.25592" lon="7.04817">
        <ele>1735</ele>
        <time>2013-09-20T12:22:43Z</time>
      </trkpt>
      <trkpt lat="44.25594" lon="7.04813">
        <ele>1736</ele>
        <time>2013-09-20T12:22:47Z</time>
      </trkpt>
      <trkpt lat="44.25601" lon="7.04803">
        <ele>1737</ele>
        <time>2013-09-20T12:22:56Z</time>
      </trkpt>
      <trkpt lat="44.25603" lon="7.04798">
        <ele>1737</ele>
        <time>2013-09-20T12:23:00Z</time>
      </trkpt>
      <trkpt lat="44.256" lon="7.04789">
        <ele>1738</ele>
        <time>2013-09-20T12:23:06Z</time>
      </trkpt>
      <trkpt lat="44.25597" lon="7.04787">
        <ele>1739</ele>
        <time>2013-09-20T12:23:09Z</time>
      </trkpt>
      <trkpt lat="44.25591" lon="7.04791">
        <ele>1740</ele>
        <time>2013-09-20T12:23:15Z</time>
      </trkpt>
      <trkpt lat="44.2559" lon="7.04795">
        <ele>1740</ele>
        <time>2013-09-20T12:23:18Z</time>
      </trkpt>
      <trkpt lat="44.25589" lon="7.04806">
        <ele>1742</ele>
        <time>2013-09-20T12:23:26Z</time>
      </trkpt>
      <trkpt lat="44.25585" lon="7.04807">
        <ele>1742</ele>
        <time>2013-09-20T12:23:30Z</time>
      </trkpt>
      <trkpt lat="44.25578" lon="7.04808">
        <ele>1743</ele>
        <time>2013-09-20T12:23:36Z</time>
      </trkpt>
      <trkpt lat="44.2557" lon="7.04813">
        <ele>1744</ele>
        <time>2013-09-20T12:23:44Z</time>
      </trkpt>
      <trkpt lat="44.25563" lon="7.04816">
        <ele>1745</ele>
        <time>2013-09-20T12:23:50Z</time>
      </trkpt>
      <trkpt lat="44.25558" lon="7.04819">
        <ele>1746</ele>
        <time>2013-09-20T12:23:55Z</time>
      </trkpt>
      <trkpt lat="44.25556" lon="7.0482">
        <ele>1746</ele>
        <time>2013-09-20T12:23:57Z</time>
      </trkpt>
      <trkpt lat="44.25548" lon="7.04834">
        <ele>1748</ele>
        <time>2013-09-20T12:24:07Z</time>
      </trkpt>
      <trkpt lat="44.25542" lon="7.04836">
        <ele>1748</ele>
        <time>2013-09-20T12:24:11Z</time>
      </trkpt>
      <trkpt lat="44.25534" lon="7.04841">
        <ele>1750</ele>
        <time>2013-09-20T12:24:18Z</time>
      </trkpt>
      <trkpt lat="44.25526" lon="7.04844">
        <ele>1751</ele>
        <time>2013-09-20T12:24:24Z</time>
      </trkpt>
      <trkpt lat="44.25516" lon="7.04846">
        <ele>1753</ele>
        <time>2013-09-20T12:24:32Z</time>
      </trkpt>
      <trkpt lat="44.25507" lon="7.0485">
        <ele>1755</ele>
        <time>2013-09-20T12:24:40Z</time>
      </trkpt>
      <trkpt lat="44.25499" lon="7.04857">
        <ele>1757</ele>
        <time>2013-09-20T12:24:48Z</time>
      </trkpt>
      <trkpt lat="44.255" lon="7.04862">
        <ele>1758</ele>
        <time>2013-09-20T12:24:52Z</time>
      </trkpt>
      <trkpt lat="44.25499" lon="7.04874">
        <ele>1760</ele>
        <time>2013-09-20T12:25:01Z</time>
      </trkpt>
      <trkpt lat="44.25499" lon="7.04875">
        <ele>1760</ele>
        <time>2013-09-20T12:25:04Z</time>
      </trkpt>
      <trkpt lat="44.25491" lon="7.04874">
        <ele>1763</ele>
        <time>2013-09-20T12:25:20Z</time>
      </trkpt>
      <trkpt lat="44.25494" lon="7.04897">
        <ele>1769</ele>
        <time>2013-09-20T12:26:00Z</time>
      </trkpt>
      <trkpt lat="44.25491" lon="7.04903">
        <ele>1769</ele>
        <time>2013-09-20T12:26:05Z</time>
      </trkpt>
      <trkpt lat="44.25485" lon="7.04912">
        <ele>1769</ele>
        <time>2013-09-20T12:26:15Z</time>
      </trkpt>
      <trkpt lat="44.25483" lon="7.04917">
        <ele>1770</ele>
        <time>2013-09-20T12:26:20Z</time>
      </trkpt>
      <trkpt lat="44.25482" lon="7.04922">
        <ele>1770</ele>
        <time>2013-09-20T12:26:24Z</time>
      </trkpt>
      <trkpt lat="44.25481" lon="7.0493">
        <ele>1770</ele>
        <time>2013-09-20T12:26:28Z</time>
      </trkpt>
      <trkpt lat="44.2548" lon="7.04949">
        <ele>1770</ele>
        <time>2013-09-20T12:26:40Z</time>
      </trkpt>
      <trkpt lat="44.25479" lon="7.04958">
        <ele>1770</ele>
        <time>2013-09-20T12:26:45Z</time>
      </trkpt>
      <trkpt lat="44.25467" lon="7.04954">
        <ele>1770</ele>
        <time>2013-09-20T12:26:53Z</time>
      </trkpt>
      <trkpt lat="44.25466" lon="7.04951">
        <ele>1771</ele>
        <time>2013-09-20T12:26:55Z</time>
      </trkpt>
      <trkpt lat="44.25463" lon="7.04939">
        <ele>1771</ele>
        <time>2013-09-20T12:27:02Z</time>
      </trkpt>
      <trkpt lat="44.25463" lon="7.04935">
        <ele>1771</ele>
        <time>2013-09-20T12:27:05Z</time>
      </trkpt>
      <trkpt lat="44.25462" lon="7.04921">
        <ele>1771</ele>
        <time>2013-09-20T12:27:14Z</time>
      </trkpt>
      <trkpt lat="44.25463" lon="7.04909">
        <ele>1772</ele>
        <time>2013-09-20T12:27:22Z</time>
      </trkpt>
      <trkpt lat="44.25463" lon="7.04898">
        <ele>1772</ele>
        <time>2013-09-20T12:27:28Z</time>
      </trkpt>
      <trkpt lat="44.25466" lon="7.04887">
        <ele>1772</ele>
        <time>2013-09-20T12:27:35Z</time>
      </trkpt>
      <trkpt lat="44.25467" lon="7.04877">
        <ele>1773</ele>
        <time>2013-09-20T12:27:41Z</time>
      </trkpt>
      <trkpt lat="44.25466" lon="7.04858">
        <ele>1774</ele>
        <time>2013-09-20T12:27:52Z</time>
      </trkpt>
      <trkpt lat="44.25465" lon="7.04849">
        <ele>1774</ele>
        <time>2013-09-20T12:27:57Z</time>
      </trkpt>
      <trkpt lat="44.25464" lon="7.04836">
        <ele>1775</ele>
        <time>2013-09-20T12:28:05Z</time>
      </trkpt>
      <trkpt lat="44.25468" lon="7.04828">
        <ele>1776</ele>
        <time>2013-09-20T12:28:11Z</time>
      </trkpt>
      <trkpt lat="44.25473" lon="7.04821">
        <ele>1777</ele>
        <time>2013-09-20T12:28:17Z</time>
      </trkpt>
      <trkpt lat="44.25479" lon="7.04815">
        <ele>1778</ele>
        <time>2013-09-20T12:28:23Z</time>
      </trkpt>
      <trkpt lat="44.25485" lon="7.04808">
        <ele>1779</ele>
        <time>2013-09-20T12:28:30Z</time>
      </trkpt>
      <trkpt lat="44.25486" lon="7.04804">
        <ele>1779</ele>
        <time>2013-09-20T12:28:33Z</time>
      </trkpt>
      <trkpt lat="44.25491" lon="7.04799">
        <ele>1780</ele>
        <time>2013-09-20T12:28:40Z</time>
      </trkpt>
      <trkpt lat="44.25495" lon="7.04793">
        <ele>1782</ele>
        <time>2013-09-20T12:28:46Z</time>
      </trkpt>
      <trkpt lat="44.255" lon="7.04787">
        <ele>1784</ele>
        <time>2013-09-20T12:29:05Z</time>
      </trkpt>
      <trkpt lat="44.25505" lon="7.04782">
        <ele>1785</ele>
        <time>2013-09-20T12:29:10Z</time>
      </trkpt>
      <trkpt lat="44.2551" lon="7.04775">
        <ele>1786</ele>
        <time>2013-09-20T12:29:17Z</time>
      </trkpt>
      <trkpt lat="44.25511" lon="7.04769">
        <ele>1787</ele>
        <time>2013-09-20T12:29:23Z</time>
      </trkpt>
      <trkpt lat="44.25514" lon="7.04768">
        <ele>1788</ele>
        <time>2013-09-20T12:29:27Z</time>
      </trkpt>
      <trkpt lat="44.25515" lon="7.0476">
        <ele>1789</ele>
        <time>2013-09-20T12:29:32Z</time>
      </trkpt>
      <trkpt lat="44.25509" lon="7.04755">
        <ele>1790</ele>
        <time>2013-09-20T12:29:38Z</time>
      </trkpt>
      <trkpt lat="44.25501" lon="7.04759">
        <ele>1792</ele>
        <time>2013-09-20T12:29:48Z</time>
      </trkpt>
      <trkpt lat="44.25497" lon="7.04762">
        <ele>1793</ele>
        <time>2013-09-20T12:29:52Z</time>
      </trkpt>
      <trkpt lat="44.25489" lon="7.04767">
        <ele>1795</ele>
        <time>2013-09-20T12:30:01Z</time>
      </trkpt>
      <trkpt lat="44.25485" lon="7.0477">
        <ele>1795</ele>
        <time>2013-09-20T12:30:06Z</time>
      </trkpt>
      <trkpt lat="44.25479" lon="7.04775">
        <ele>1797</ele>
        <time>2013-09-20T12:30:15Z</time>
      </trkpt>
      <trkpt lat="44.25475" lon="7.04774">
        <ele>1797</ele>
        <time>2013-09-20T12:30:19Z</time>
      </trkpt>
      <trkpt lat="44.25468" lon="7.04774">
        <ele>1798</ele>
        <time>2013-09-20T12:30:24Z</time>
      </trkpt>
      <trkpt lat="44.25465" lon="7.04772">
        <ele>1798</ele>
        <time>2013-09-20T12:30:26Z</time>
      </trkpt>
      <trkpt lat="44.2546" lon="7.04773">
        <ele>1799</ele>
        <time>2013-09-20T12:30:31Z</time>
      </trkpt>
      <trkpt lat="44.25454" lon="7.04774">
        <ele>1799</ele>
        <time>2013-09-20T12:30:37Z</time>
      </trkpt>
      <trkpt lat="44.2545" lon="7.04774">
        <ele>1800</ele>
        <time>2013-09-20T12:30:41Z</time>
      </trkpt>
      <trkpt lat="44.2544" lon="7.04776">
        <ele>1801</ele>
        <time>2013-09-20T12:30:51Z</time>
      </trkpt>
      <trkpt lat="44.25435" lon="7.04777">
        <ele>1801</ele>
        <time>2013-09-20T12:30:56Z</time>
      </trkpt>
      <trkpt lat="44.2543" lon="7.04775">
        <ele>1802</ele>
        <time>2013-09-20T12:31:01Z</time>
      </trkpt>
      <trkpt lat="44.25424" lon="7.04772">
        <ele>1802</ele>
        <time>2013-09-20T12:31:06Z</time>
      </trkpt>
      <trkpt lat="44.25419" lon="7.0477">
        <ele>1803</ele>
        <time>2013-09-20T12:31:12Z</time>
      </trkpt>
      <trkpt lat="44.2541" lon="7.04768">
        <ele>1804</ele>
        <time>2013-09-20T12:31:23Z</time>
      </trkpt>
      <trkpt lat="44.25405" lon="7.04766">
        <ele>1804</ele>
        <time>2013-09-20T12:31:28Z</time>
      </trkpt>
      <trkpt lat="44.25392" lon="7.04762">
        <ele>1806</ele>
        <time>2013-09-20T12:31:40Z</time>
      </trkpt>
      <trkpt lat="44.25373" lon="7.04759">
        <ele>1808</ele>
        <time>2013-09-20T12:31:57Z</time>
      </trkpt>
      <trkpt lat="44.25362" lon="7.04758">
        <ele>1809</ele>
        <time>2013-09-20T12:32:07Z</time>
      </trkpt>
      <trkpt lat="44.25356" lon="7.04757">
        <ele>1810</ele>
        <time>2013-09-20T12:32:13Z</time>
      </trkpt>
      <trkpt lat="44.25348" lon="7.04757">
        <ele>1810</ele>
        <time>2013-09-20T12:32:20Z</time>
      </trkpt>
      <trkpt lat="44.25341" lon="7.04761">
        <ele>1811</ele>
        <time>2013-09-20T12:32:27Z</time>
      </trkpt>
      <trkpt lat="44.25336" lon="7.04766">
        <ele>1812</ele>
        <time>2013-09-20T12:32:33Z</time>
      </trkpt>
      <trkpt lat="44.25329" lon="7.04773">
        <ele>1813</ele>
        <time>2013-09-20T12:32:40Z</time>
      </trkpt>
      <trkpt lat="44.25324" lon="7.04764">
        <ele>1814</ele>
        <time>2013-09-20T12:32:51Z</time>
      </trkpt>
      <trkpt lat="44.25331" lon="7.04762">
        <ele>1815</ele>
        <time>2013-09-20T12:32:56Z</time>
      </trkpt>
      <trkpt lat="44.25337" lon="7.04758">
        <ele>1815</ele>
        <time>2013-09-20T12:33:02Z</time>
      </trkpt>
      <trkpt lat="44.25341" lon="7.04753">
        <ele>1816</ele>
        <time>2013-09-20T12:33:07Z</time>
      </trkpt>
      <trkpt lat="44.25345" lon="7.04747">
        <ele>1817</ele>
        <time>2013-09-20T12:33:13Z</time>
      </trkpt>
      <trkpt lat="44.25356" lon="7.04736">
        <ele>1820</ele>
        <time>2013-09-20T12:33:26Z</time>
      </trkpt>
      <trkpt lat="44.25359" lon="7.04733">
        <ele>1821</ele>
        <time>2013-09-20T12:33:30Z</time>
      </trkpt>
      <trkpt lat="44.25361" lon="7.0473">
        <ele>1821</ele>
        <time>2013-09-20T12:33:33Z</time>
      </trkpt>
      <trkpt lat="44.25366" lon="7.04725">
        <ele>1823</ele>
        <time>2013-09-20T12:33:40Z</time>
      </trkpt>
      <trkpt lat="44.25372" lon="7.04721">
        <ele>1824</ele>
        <time>2013-09-20T12:33:46Z</time>
      </trkpt>
      <trkpt lat="44.25377" lon="7.04716">
        <ele>1825</ele>
        <time>2013-09-20T12:33:51Z</time>
      </trkpt>
      <trkpt lat="44.25384" lon="7.04706">
        <ele>1826</ele>
        <time>2013-09-20T12:33:59Z</time>
      </trkpt>
      <trkpt lat="44.25389" lon="7.04703">
        <ele>1828</ele>
        <time>2013-09-20T12:34:05Z</time>
      </trkpt>
      <trkpt lat="44.25396" lon="7.04703">
        <ele>1829</ele>
        <time>2013-09-20T12:34:12Z</time>
      </trkpt>
      <trkpt lat="44.25407" lon="7.04704">
        <ele>1830</ele>
        <time>2013-09-20T12:34:23Z</time>
      </trkpt>
      <trkpt lat="44.25415" lon="7.04702">
        <ele>1831</ele>
        <time>2013-09-20T12:34:32Z</time>
      </trkpt>
      <trkpt lat="44.25419" lon="7.04699">
        <ele>1832</ele>
        <time>2013-09-20T12:34:38Z</time>
      </trkpt>
      <trkpt lat="44.25425" lon="7.04688">
        <ele>1833</ele>
        <time>2013-09-20T12:34:48Z</time>
      </trkpt>
      <trkpt lat="44.25418" lon="7.04685">
        <ele>1834</ele>
        <time>2013-09-20T12:34:55Z</time>
      </trkpt>
      <trkpt lat="44.25414" lon="7.04689">
        <ele>1835</ele>
        <time>2013-09-20T12:35:02Z</time>
      </trkpt>
      <trkpt lat="44.25406" lon="7.04692">
        <ele>1836</ele>
        <time>2013-09-20T12:35:11Z</time>
      </trkpt>
      <trkpt lat="44.25396" lon="7.04686">
        <ele>1837</ele>
        <time>2013-09-20T12:35:20Z</time>
      </trkpt>
      <trkpt lat="44.25385" lon="7.04677">
        <ele>1838</ele>
        <time>2013-09-20T12:35:31Z</time>
      </trkpt>
      <trkpt lat="44.25381" lon="7.04672">
        <ele>1839</ele>
        <time>2013-09-20T12:35:37Z</time>
      </trkpt>
      <trkpt lat="44.25371" lon="7.04668">
        <ele>1841</ele>
        <time>2013-09-20T12:35:46Z</time>
      </trkpt>
      <trkpt lat="44.25352" lon="7.04673">
        <ele>1843</ele>
        <time>2013-09-20T12:36:03Z</time>
      </trkpt>
      <trkpt lat="44.25345" lon="7.04677">
        <ele>1844</ele>
        <time>2013-09-20T12:36:11Z</time>
      </trkpt>
      <trkpt lat="44.25339" lon="7.04684">
        <ele>1853</ele>
        <time>2013-09-20T12:36:53Z</time>
      </trkpt>
      <trkpt lat="44.25328" lon="7.04691">
        <ele>1855</ele>
        <time>2013-09-20T12:37:05Z</time>
      </trkpt>
      <trkpt lat="44.2532" lon="7.04691">
        <ele>1855</ele>
        <time>2013-09-20T12:37:12Z</time>
      </trkpt>
      <trkpt lat="44.25309" lon="7.04696">
        <ele>1856</ele>
        <time>2013-09-20T12:37:23Z</time>
      </trkpt>
      <trkpt lat="44.25304" lon="7.04701">
        <ele>1856</ele>
        <time>2013-09-20T12:37:29Z</time>
      </trkpt>
      <trkpt lat="44.25298" lon="7.04698">
        <ele>1857</ele>
        <time>2013-09-20T12:37:36Z</time>
      </trkpt>
      <trkpt lat="44.25294" lon="7.04691">
        <ele>1857</ele>
        <time>2013-09-20T12:37:43Z</time>
      </trkpt>
      <trkpt lat="44.2529" lon="7.04686">
        <ele>1858</ele>
        <time>2013-09-20T12:37:49Z</time>
      </trkpt>
      <trkpt lat="44.25278" lon="7.04669">
        <ele>1859</ele>
        <time>2013-09-20T12:38:05Z</time>
      </trkpt>
      <trkpt lat="44.25269" lon="7.04655">
        <ele>1860</ele>
        <time>2013-09-20T12:38:19Z</time>
      </trkpt>
      <trkpt lat="44.25257" lon="7.04642">
        <ele>1862</ele>
        <time>2013-09-20T12:38:33Z</time>
      </trkpt>
      <trkpt lat="44.25247" lon="7.04635">
        <ele>1863</ele>
        <time>2013-09-20T12:38:44Z</time>
      </trkpt>
      <trkpt lat="44.2524" lon="7.04629">
        <ele>1864</ele>
        <time>2013-09-20T12:38:58Z</time>
      </trkpt>
      <trkpt lat="44.2523" lon="7.04614">
        <ele>1866</ele>
        <time>2013-09-20T12:39:14Z</time>
      </trkpt>
      <trkpt lat="44.25215" lon="7.046">
        <ele>1869</ele>
        <time>2013-09-20T12:39:34Z</time>
      </trkpt>
      <trkpt lat="44.25201" lon="7.04595">
        <ele>1871</ele>
        <time>2013-09-20T12:39:50Z</time>
      </trkpt>
      <trkpt lat="44.25185" lon="7.04592">
        <ele>1873</ele>
        <time>2013-09-20T12:40:08Z</time>
      </trkpt>
      <trkpt lat="44.25167" lon="7.04582">
        <ele>1876</ele>
        <time>2013-09-20T12:40:27Z</time>
      </trkpt>
      <trkpt lat="44.25149" lon="7.04584">
        <ele>1879</ele>
        <time>2013-09-20T12:40:47Z</time>
      </trkpt>
      <trkpt lat="44.25132" lon="7.04595">
        <ele>1882</ele>
        <time>2013-09-20T12:41:06Z</time>
      </trkpt>
      <trkpt lat="44.25115" lon="7.04606">
        <ele>1886</ele>
        <time>2013-09-20T12:41:27Z</time>
      </trkpt>
      <trkpt lat="44.25111" lon="7.04626">
        <ele>1888</ele>
        <time>2013-09-20T12:41:43Z</time>
      </trkpt>
      <trkpt lat="44.25102" lon="7.04648">
        <ele>1891</ele>
        <time>2013-09-20T12:42:03Z</time>
      </trkpt>
      <trkpt lat="44.25087" lon="7.04657">
        <ele>1894</ele>
        <time>2013-09-20T12:42:20Z</time>
      </trkpt>
      <trkpt lat="44.25079" lon="7.04656">
        <ele>1897</ele>
        <time>2013-09-20T12:42:38Z</time>
      </trkpt>
      <trkpt lat="44.25079" lon="7.04655">
        <ele>1899</ele>
        <time>2013-09-20T12:43:02Z</time>
      </trkpt>
      <trkpt lat="44.25077" lon="7.04656">
        <ele>1909</ele>
        <time>2013-09-20T12:45:54Z</time>
      </trkpt>
      <trkpt lat="44.25076" lon="7.04655">
        <ele>1910</ele>
        <time>2013-09-20T12:46:35Z</time>
      </trkpt>
      <trkpt lat="44.25074" lon="7.04656">
        <ele>1910</ele>
        <time>2013-09-20T12:47:01Z</time>
      </trkpt>
      <trkpt lat="44.25076" lon="7.0466">
        <ele>1910</ele>
        <time>2013-09-20T12:47:49Z</time>
      </trkpt>
      <trkpt lat="44.25073" lon="7.04658">
        <ele>1912</ele>
        <time>2013-09-20T12:48:21Z</time>
      </trkpt>
      <trkpt lat="44.25072" lon="7.04652">
        <ele>1913</ele>
        <time>2013-09-20T12:48:41Z</time>
      </trkpt>
      <trkpt lat="44.25072" lon="7.04659">
        <ele>1906</ele>
        <time>2013-09-20T13:02:04Z</time>
      </trkpt>
      <trkpt lat="44.25064" lon="7.04662">
        <ele>1906</ele>
        <time>2013-09-20T13:02:17Z</time>
      </trkpt>
      <trkpt lat="44.25058" lon="7.0466">
        <ele>1907</ele>
        <time>2013-09-20T13:02:30Z</time>
      </trkpt>
      <trkpt lat="44.25045" lon="7.04663">
        <ele>1908</ele>
        <time>2013-09-20T13:02:47Z</time>
      </trkpt>
      <trkpt lat="44.25029" lon="7.0467">
        <ele>1909</ele>
        <time>2013-09-20T13:03:09Z</time>
      </trkpt>
      <trkpt lat="44.25018" lon="7.04678">
        <ele>1911</ele>
        <time>2013-09-20T13:03:26Z</time>
      </trkpt>
      <trkpt lat="44.25008" lon="7.04684">
        <ele>1912</ele>
        <time>2013-09-20T13:03:41Z</time>
      </trkpt>
      <trkpt lat="44.25" lon="7.04691">
        <ele>1914</ele>
        <time>2013-09-20T13:03:56Z</time>
      </trkpt>
      <trkpt lat="44.24988" lon="7.04698">
        <ele>1917</ele>
        <time>2013-09-20T13:04:15Z</time>
      </trkpt>
      <trkpt lat="44.24977" lon="7.047">
        <ele>1918</ele>
        <time>2013-09-20T13:04:30Z</time>
      </trkpt>
      <trkpt lat="44.24966" lon="7.04703">
        <ele>1920</ele>
        <time>2013-09-20T13:04:45Z</time>
      </trkpt>
      <trkpt lat="44.24951" lon="7.04707">
        <ele>1923</ele>
        <time>2013-09-20T13:05:07Z</time>
      </trkpt>
      <trkpt lat="44.24935" lon="7.04711">
        <ele>1925</ele>
        <time>2013-09-20T13:05:26Z</time>
      </trkpt>
      <trkpt lat="44.24925" lon="7.04715">
        <ele>1927</ele>
        <time>2013-09-20T13:05:43Z</time>
      </trkpt>
      <trkpt lat="44.24918" lon="7.04716">
        <ele>1927</ele>
        <time>2013-09-20T13:05:48Z</time>
      </trkpt>
      <trkpt lat="44.24905" lon="7.04721">
        <ele>1928</ele>
        <time>2013-09-20T13:05:56Z</time>
      </trkpt>
      <trkpt lat="44.2488" lon="7.04728">
        <ele>1930</ele>
        <time>2013-09-20T13:06:11Z</time>
      </trkpt>
      <trkpt lat="44.24856" lon="7.04729">
        <ele>1931</ele>
        <time>2013-09-20T13:06:24Z</time>
      </trkpt>
      <trkpt lat="44.24846" lon="7.0475">
        <ele>1931</ele>
        <time>2013-09-20T13:06:31Z</time>
      </trkpt>
      <trkpt lat="44.24842" lon="7.04775">
        <ele>1932</ele>
        <time>2013-09-20T13:06:41Z</time>
      </trkpt>
      <trkpt lat="44.24836" lon="7.04815">
        <ele>1932</ele>
        <time>2013-09-20T13:06:50Z</time>
      </trkpt>
      <trkpt lat="44.24827" lon="7.048">
        <ele>1931</ele>
        <time>2013-09-20T13:06:55Z</time>
      </trkpt>
      <trkpt lat="44.24823" lon="7.04772">
        <ele>1931</ele>
        <time>2013-09-20T13:07:01Z</time>
      </trkpt>
      <trkpt lat="44.24799" lon="7.04745">
        <ele>1931</ele>
        <time>2013-09-20T13:07:08Z</time>
      </trkpt>
      <trkpt lat="44.24772" lon="7.04734">
        <ele>1931</ele>
        <time>2013-09-20T13:07:12Z</time>
      </trkpt>
      <trkpt lat="44.24736" lon="7.04711">
        <ele>1930</ele>
        <time>2013-09-20T13:07:21Z</time>
      </trkpt>
      <trkpt lat="44.24726" lon="7.04707">
        <ele>1930</ele>
        <time>2013-09-20T13:07:26Z</time>
      </trkpt>
      <trkpt lat="44.24699" lon="7.04705">
        <ele>1930</ele>
        <time>2013-09-20T13:07:41Z</time>
      </trkpt>
      <trkpt lat="44.24657" lon="7.04703">
        <ele>1929</ele>
        <time>2013-09-20T13:08:00Z</time>
      </trkpt>
      <trkpt lat="44.24622" lon="7.04699">
        <ele>1929</ele>
        <time>2013-09-20T13:08:17Z</time>
      </trkpt>
      <trkpt lat="44.24596" lon="7.04699">
        <ele>1929</ele>
        <time>2013-09-20T13:08:32Z</time>
      </trkpt>
      <trkpt lat="44.24579" lon="7.04703">
        <ele>1929</ele>
        <time>2013-09-20T13:08:43Z</time>
      </trkpt>
      <trkpt lat="44.24569" lon="7.04695">
        <ele>1929</ele>
        <time>2013-09-20T13:08:52Z</time>
      </trkpt>
      <trkpt lat="44.24554" lon="7.04692">
        <ele>1930</ele>
        <time>2013-09-20T13:09:04Z</time>
      </trkpt>
      <trkpt lat="44.24546" lon="7.04684">
        <ele>1930</ele>
        <time>2013-09-20T13:09:11Z</time>
      </trkpt>
      <trkpt lat="44.24533" lon="7.04678">
        <ele>1931</ele>
        <time>2013-09-20T13:09:25Z</time>
      </trkpt>
      <trkpt lat="44.24528" lon="7.04669">
        <ele>1932</ele>
        <time>2013-09-20T13:09:32Z</time>
      </trkpt>
      <trkpt lat="44.24517" lon="7.04653">
        <ele>1933</ele>
        <time>2013-09-20T13:09:47Z</time>
      </trkpt>
      <trkpt lat="44.24511" lon="7.04632">
        <ele>1935</ele>
        <time>2013-09-20T13:10:02Z</time>
      </trkpt>
      <trkpt lat="44.24508" lon="7.04629">
        <ele>1935</ele>
        <time>2013-09-20T13:10:08Z</time>
      </trkpt>
      <trkpt lat="44.24492" lon="7.04617">
        <ele>1937</ele>
        <time>2013-09-20T13:10:23Z</time>
      </trkpt>
      <trkpt lat="44.24489" lon="7.04607">
        <ele>1938</ele>
        <time>2013-09-20T13:10:34Z</time>
      </trkpt>
      <trkpt lat="44.24481" lon="7.04588">
        <ele>1940</ele>
        <time>2013-09-20T13:10:53Z</time>
      </trkpt>
      <trkpt lat="44.24474" lon="7.04573">
        <ele>1942</ele>
        <time>2013-09-20T13:11:11Z</time>
      </trkpt>
      <trkpt lat="44.24485" lon="7.04567">
        <ele>1944</ele>
        <time>2013-09-20T13:11:27Z</time>
      </trkpt>
      <trkpt lat="44.2448" lon="7.04558">
        <ele>1945</ele>
        <time>2013-09-20T13:11:42Z</time>
      </trkpt>
      <trkpt lat="44.24466" lon="7.04554">
        <ele>1946</ele>
        <time>2013-09-20T13:11:59Z</time>
      </trkpt>
      <trkpt lat="44.24453" lon="7.04541">
        <ele>1948</ele>
        <time>2013-09-20T13:12:18Z</time>
      </trkpt>
      <trkpt lat="44.24438" lon="7.04539">
        <ele>1950</ele>
        <time>2013-09-20T13:12:36Z</time>
      </trkpt>
      <trkpt lat="44.2442" lon="7.04529">
        <ele>1952</ele>
        <time>2013-09-20T13:12:58Z</time>
      </trkpt>
      <trkpt lat="44.24404" lon="7.04516">
        <ele>1954</ele>
        <time>2013-09-20T13:13:19Z</time>
      </trkpt>
      <trkpt lat="44.24391" lon="7.04509">
        <ele>1956</ele>
        <time>2013-09-20T13:13:37Z</time>
      </trkpt>
      <trkpt lat="44.24384" lon="7.04508">
        <ele>1957</ele>
        <time>2013-09-20T13:13:42Z</time>
      </trkpt>
      <trkpt lat="44.24371" lon="7.04505">
        <ele>1958</ele>
        <time>2013-09-20T13:13:52Z</time>
      </trkpt>
      <trkpt lat="44.24349" lon="7.04495">
        <ele>1960</ele>
        <time>2013-09-20T13:14:08Z</time>
      </trkpt>
      <trkpt lat="44.24334" lon="7.04479">
        <ele>1962</ele>
        <time>2013-09-20T13:14:23Z</time>
      </trkpt>
      <trkpt lat="44.24316" lon="7.04467">
        <ele>1964</ele>
        <time>2013-09-20T13:14:41Z</time>
      </trkpt>
      <trkpt lat="44.24305" lon="7.04455">
        <ele>1966</ele>
        <time>2013-09-20T13:14:55Z</time>
      </trkpt>
      <trkpt lat="44.24292" lon="7.04447">
        <ele>1969</ele>
        <time>2013-09-20T13:15:11Z</time>
      </trkpt>
      <trkpt lat="44.24286" lon="7.04441">
        <ele>1970</ele>
        <time>2013-09-20T13:15:19Z</time>
      </trkpt>
      <trkpt lat="44.24275" lon="7.04432">
        <ele>1972</ele>
        <time>2013-09-20T13:15:32Z</time>
      </trkpt>
      <trkpt lat="44.24263" lon="7.0442">
        <ele>1974</ele>
        <time>2013-09-20T13:15:48Z</time>
      </trkpt>
      <trkpt lat="44.24251" lon="7.04409">
        <ele>1976</ele>
        <time>2013-09-20T13:16:03Z</time>
      </trkpt>
      <trkpt lat="44.24241" lon="7.04402">
        <ele>1979</ele>
        <time>2013-09-20T13:16:22Z</time>
      </trkpt>
      <trkpt lat="44.24231" lon="7.04402">
        <ele>1981</ele>
        <time>2013-09-20T13:16:38Z</time>
      </trkpt>
      <trkpt lat="44.24213" lon="7.04402">
        <ele>1984</ele>
        <time>2013-09-20T13:16:57Z</time>
      </trkpt>
      <trkpt lat="44.242" lon="7.04396">
        <ele>1988</ele>
        <time>2013-09-20T13:17:14Z</time>
      </trkpt>
      <trkpt lat="44.24194" lon="7.04394">
        <ele>1989</ele>
        <time>2013-09-20T13:17:22Z</time>
      </trkpt>
      <trkpt lat="44.2418" lon="7.04385">
        <ele>1992</ele>
        <time>2013-09-20T13:17:40Z</time>
      </trkpt>
      <trkpt lat="44.24164" lon="7.04376">
        <ele>1995</ele>
        <time>2013-09-20T13:17:58Z</time>
      </trkpt>
      <trkpt lat="44.24148" lon="7.04372">
        <ele>1998</ele>
        <time>2013-09-20T13:18:17Z</time>
      </trkpt>
      <trkpt lat="44.24131" lon="7.04369">
        <ele>2001</ele>
        <time>2013-09-20T13:18:36Z</time>
      </trkpt>
      <trkpt lat="44.24113" lon="7.04359">
        <ele>2003</ele>
        <time>2013-09-20T13:18:52Z</time>
      </trkpt>
      <trkpt lat="44.24092" lon="7.04347">
        <ele>2005</ele>
        <time>2013-09-20T13:19:08Z</time>
      </trkpt>
      <trkpt lat="44.24076" lon="7.04334">
        <ele>2006</ele>
        <time>2013-09-20T13:19:23Z</time>
      </trkpt>
      <trkpt lat="44.24055" lon="7.04328">
        <ele>2008</ele>
        <time>2013-09-20T13:19:41Z</time>
      </trkpt>
      <trkpt lat="44.24041" lon="7.04322">
        <ele>2010</ele>
        <time>2013-09-20T13:19:54Z</time>
      </trkpt>
      <trkpt lat="44.2402" lon="7.04308">
        <ele>2011</ele>
        <time>2013-09-20T13:20:10Z</time>
      </trkpt>
      <trkpt lat="44.2401" lon="7.04298">
        <ele>2012</ele>
        <time>2013-09-20T13:20:20Z</time>
      </trkpt>
      <trkpt lat="44.24002" lon="7.04285">
        <ele>2014</ele>
        <time>2013-09-20T13:20:32Z</time>
      </trkpt>
      <trkpt lat="44.23989" lon="7.04271">
        <ele>2015</ele>
        <time>2013-09-20T13:20:48Z</time>
      </trkpt>
      <trkpt lat="44.24" lon="7.04256">
        <ele>2017</ele>
        <time>2013-09-20T13:21:03Z</time>
      </trkpt>
      <trkpt lat="44.24" lon="7.0425">
        <ele>2018</ele>
        <time>2013-09-20T13:21:09Z</time>
      </trkpt>
      <trkpt lat="44.23997" lon="7.04247">
        <ele>2019</ele>
        <time>2013-09-20T13:21:15Z</time>
      </trkpt>
      <trkpt lat="44.23987" lon="7.04234">
        <ele>2021</ele>
        <time>2013-09-20T13:21:32Z</time>
      </trkpt>
      <trkpt lat="44.2398" lon="7.04226">
        <ele>2023</ele>
        <time>2013-09-20T13:21:47Z</time>
      </trkpt>
      <trkpt lat="44.23972" lon="7.04215">
        <ele>2025</ele>
        <time>2013-09-20T13:22:03Z</time>
      </trkpt>
      <trkpt lat="44.23961" lon="7.04197">
        <ele>2028</ele>
        <time>2013-09-20T13:22:25Z</time>
      </trkpt>
      <trkpt lat="44.23949" lon="7.04186">
        <ele>2031</ele>
        <time>2013-09-20T13:22:43Z</time>
      </trkpt>
      <trkpt lat="44.23937" lon="7.04168">
        <ele>2034</ele>
        <time>2013-09-20T13:23:03Z</time>
      </trkpt>
      <trkpt lat="44.23927" lon="7.04147">
        <ele>2036</ele>
        <time>2013-09-20T13:23:22Z</time>
      </trkpt>
      <trkpt lat="44.23915" lon="7.04131">
        <ele>2038</ele>
        <time>2013-09-20T13:23:41Z</time>
      </trkpt>
      <trkpt lat="44.23904" lon="7.04125">
        <ele>2040</ele>
        <time>2013-09-20T13:23:57Z</time>
      </trkpt>
      <trkpt lat="44.23893" lon="7.04117">
        <ele>2042</ele>
        <time>2013-09-20T13:24:14Z</time>
      </trkpt>
      <trkpt lat="44.23879" lon="7.04107">
        <ele>2045</ele>
        <time>2013-09-20T13:24:35Z</time>
      </trkpt>
      <trkpt lat="44.23868" lon="7.04098">
        <ele>2047</ele>
        <time>2013-09-20T13:24:53Z</time>
      </trkpt>
      <trkpt lat="44.23856" lon="7.041">
        <ele>2049</ele>
        <time>2013-09-20T13:25:11Z</time>
      </trkpt>
      <trkpt lat="44.23853" lon="7.04088">
        <ele>2051</ele>
        <time>2013-09-20T13:25:26Z</time>
      </trkpt>
      <trkpt lat="44.2386" lon="7.04078">
        <ele>2052</ele>
        <time>2013-09-20T13:25:38Z</time>
      </trkpt>
      <trkpt lat="44.23853" lon="7.04076">
        <ele>2053</ele>
        <time>2013-09-20T13:25:46Z</time>
      </trkpt>
      <trkpt lat="44.23847" lon="7.0408">
        <ele>2054</ele>
        <time>2013-09-20T13:25:53Z</time>
      </trkpt>
      <trkpt lat="44.23841" lon="7.04081">
        <ele>2055</ele>
        <time>2013-09-20T13:26:01Z</time>
      </trkpt>
      <trkpt lat="44.23839" lon="7.0407">
        <ele>2056</ele>
        <time>2013-09-20T13:26:11Z</time>
      </trkpt>
      <trkpt lat="44.23841" lon="7.04069">
        <ele>2056</ele>
        <time>2013-09-20T13:26:13Z</time>
      </trkpt>
      <trkpt lat="44.23845" lon="7.0406">
        <ele>2058</ele>
        <time>2013-09-20T13:26:24Z</time>
      </trkpt>
      <trkpt lat="44.23839" lon="7.04059">
        <ele>2059</ele>
        <time>2013-09-20T13:26:31Z</time>
      </trkpt>
      <trkpt lat="44.23826" lon="7.04065">
        <ele>2061</ele>
        <time>2013-09-20T13:26:47Z</time>
      </trkpt>
      <trkpt lat="44.23822" lon="7.0406">
        <ele>2062</ele>
        <time>2013-09-20T13:26:53Z</time>
      </trkpt>
      <trkpt lat="44.23827" lon="7.04053">
        <ele>2063</ele>
        <time>2013-09-20T13:27:00Z</time>
      </trkpt>
      <trkpt lat="44.23827" lon="7.04051">
        <ele>2063</ele>
        <time>2013-09-20T13:27:02Z</time>
      </trkpt>
      <trkpt lat="44.23821" lon="7.04049">
        <ele>2064</ele>
        <time>2013-09-20T13:27:14Z</time>
      </trkpt>
      <trkpt lat="44.23817" lon="7.0404">
        <ele>2066</ele>
        <time>2013-09-20T13:27:26Z</time>
      </trkpt>
      <trkpt lat="44.23822" lon="7.04035">
        <ele>2067</ele>
        <time>2013-09-20T13:27:33Z</time>
      </trkpt>
      <trkpt lat="44.23819" lon="7.04034">
        <ele>2067</ele>
        <time>2013-09-20T13:27:38Z</time>
      </trkpt>
      <trkpt lat="44.23808" lon="7.04037">
        <ele>2070</ele>
        <time>2013-09-20T13:27:56Z</time>
      </trkpt>
      <trkpt lat="44.23801" lon="7.04025">
        <ele>2073</ele>
        <time>2013-09-20T13:28:20Z</time>
      </trkpt>
      <trkpt lat="44.23794" lon="7.04016">
        <ele>2075</ele>
        <time>2013-09-20T13:28:34Z</time>
      </trkpt>
      <trkpt lat="44.23777" lon="7.04019">
        <ele>2077</ele>
        <time>2013-09-20T13:28:52Z</time>
      </trkpt>
      <trkpt lat="44.23763" lon="7.04007">
        <ele>2080</ele>
        <time>2013-09-20T13:29:10Z</time>
      </trkpt>
      <trkpt lat="44.23751" lon="7.03996">
        <ele>2082</ele>
        <time>2013-09-20T13:29:27Z</time>
      </trkpt>
      <trkpt lat="44.23751" lon="7.03983">
        <ele>2084</ele>
        <time>2013-09-20T13:29:38Z</time>
      </trkpt>
      <trkpt lat="44.23758" lon="7.03984">
        <ele>2085</ele>
        <time>2013-09-20T13:29:45Z</time>
      </trkpt>
      <trkpt lat="44.23761" lon="7.03976">
        <ele>2086</ele>
        <time>2013-09-20T13:29:57Z</time>
      </trkpt>
      <trkpt lat="44.23749" lon="7.0397">
        <ele>2088</ele>
        <time>2013-09-20T13:30:13Z</time>
      </trkpt>
      <trkpt lat="44.23737" lon="7.03959">
        <ele>2091</ele>
        <time>2013-09-20T13:30:32Z</time>
      </trkpt>
      <trkpt lat="44.23727" lon="7.03947">
        <ele>2093</ele>
        <time>2013-09-20T13:30:49Z</time>
      </trkpt>
      <trkpt lat="44.23716" lon="7.03932">
        <ele>2095</ele>
        <time>2013-09-20T13:31:09Z</time>
      </trkpt>
      <trkpt lat="44.23703" lon="7.03914">
        <ele>2098</ele>
        <time>2013-09-20T13:31:31Z</time>
      </trkpt>
      <trkpt lat="44.23687" lon="7.03909">
        <ele>2101</ele>
        <time>2013-09-20T13:31:52Z</time>
      </trkpt>
      <trkpt lat="44.23674" lon="7.03925">
        <ele>2103</ele>
        <time>2013-09-20T13:32:11Z</time>
      </trkpt>
      <trkpt lat="44.23664" lon="7.03943">
        <ele>2105</ele>
        <time>2013-09-20T13:32:29Z</time>
      </trkpt>
      <trkpt lat="44.23647" lon="7.03948">
        <ele>2108</ele>
        <time>2013-09-20T13:32:51Z</time>
      </trkpt>
      <trkpt lat="44.23634" lon="7.03962">
        <ele>2110</ele>
        <time>2013-09-20T13:33:11Z</time>
      </trkpt>
      <trkpt lat="44.23618" lon="7.03969">
        <ele>2112</ele>
        <time>2013-09-20T13:33:30Z</time>
      </trkpt>
      <trkpt lat="44.23599" lon="7.03977">
        <ele>2115</ele>
        <time>2013-09-20T13:33:53Z</time>
      </trkpt>
      <trkpt lat="44.23594" lon="7.03972">
        <ele>2116</ele>
        <time>2013-09-20T13:34:01Z</time>
      </trkpt>
      <trkpt lat="44.23594" lon="7.03961">
        <ele>2118</ele>
        <time>2013-09-20T13:34:12Z</time>
      </trkpt>
      <trkpt lat="44.23605" lon="7.03949">
        <ele>2120</ele>
        <time>2013-09-20T13:34:30Z</time>
      </trkpt>
      <trkpt lat="44.23603" lon="7.03932">
        <ele>2122</ele>
        <time>2013-09-20T13:34:47Z</time>
      </trkpt>
      <trkpt lat="44.23599" lon="7.03912">
        <ele>2125</ele>
        <time>2013-09-20T13:35:06Z</time>
      </trkpt>
      <trkpt lat="44.23599" lon="7.03882">
        <ele>2129</ele>
        <time>2013-09-20T13:35:28Z</time>
      </trkpt>
      <trkpt lat="44.23597" lon="7.03857">
        <ele>2132</ele>
        <time>2013-09-20T13:35:47Z</time>
      </trkpt>
      <trkpt lat="44.23593" lon="7.03848">
        <ele>2133</ele>
        <time>2013-09-20T13:35:56Z</time>
      </trkpt>
      <trkpt lat="44.23586" lon="7.03826">
        <ele>2137</ele>
        <time>2013-09-20T13:36:17Z</time>
      </trkpt>
      <trkpt lat="44.23573" lon="7.03822">
        <ele>2140</ele>
        <time>2013-09-20T13:36:38Z</time>
      </trkpt>
      <trkpt lat="44.23568" lon="7.03846">
        <ele>2143</ele>
        <time>2013-09-20T13:37:00Z</time>
      </trkpt>
      <trkpt lat="44.23564" lon="7.03869">
        <ele>2145</ele>
        <time>2013-09-20T13:37:19Z</time>
      </trkpt>
      <trkpt lat="44.2356" lon="7.03882">
        <ele>2146</ele>
        <time>2013-09-20T13:37:30Z</time>
      </trkpt>
      <trkpt lat="44.23554" lon="7.0389">
        <ele>2148</ele>
        <time>2013-09-20T13:37:40Z</time>
      </trkpt>
      <trkpt lat="44.23546" lon="7.03874">
        <ele>2150</ele>
        <time>2013-09-20T13:37:59Z</time>
      </trkpt>
      <trkpt lat="44.23536" lon="7.03856">
        <ele>2153</ele>
        <time>2013-09-20T13:38:19Z</time>
      </trkpt>
      <trkpt lat="44.23524" lon="7.0385">
        <ele>2155</ele>
        <time>2013-09-20T13:38:37Z</time>
      </trkpt>
      <trkpt lat="44.23524" lon="7.0383">
        <ele>2158</ele>
        <time>2013-09-20T13:38:55Z</time>
      </trkpt>
      <trkpt lat="44.23516" lon="7.03807">
        <ele>2160</ele>
        <time>2013-09-20T13:39:15Z</time>
      </trkpt>
      <trkpt lat="44.23508" lon="7.03794">
        <ele>2162</ele>
        <time>2013-09-20T13:39:33Z</time>
      </trkpt>
      <trkpt lat="44.23492" lon="7.03789">
        <ele>2165</ele>
        <time>2013-09-20T13:39:53Z</time>
      </trkpt>
      <trkpt lat="44.23478" lon="7.03792">
        <ele>2167</ele>
        <time>2013-09-20T13:40:11Z</time>
      </trkpt>
      <trkpt lat="44.23474" lon="7.03805">
        <ele>2169</ele>
        <time>2013-09-20T13:40:25Z</time>
      </trkpt>
      <trkpt lat="44.23466" lon="7.03793">
        <ele>2171</ele>
        <time>2013-09-20T13:40:41Z</time>
      </trkpt>
      <trkpt lat="44.23468" lon="7.03779">
        <ele>2172</ele>
        <time>2013-09-20T13:40:54Z</time>
      </trkpt>
      <trkpt lat="44.23458" lon="7.03767">
        <ele>2174</ele>
        <time>2013-09-20T13:41:12Z</time>
      </trkpt>
      <trkpt lat="44.23449" lon="7.03763">
        <ele>2176</ele>
        <time>2013-09-20T13:41:27Z</time>
      </trkpt>
      <trkpt lat="44.23444" lon="7.03756">
        <ele>2178</ele>
        <time>2013-09-20T13:41:36Z</time>
      </trkpt>
      <trkpt lat="44.2345" lon="7.03741">
        <ele>2179</ele>
        <time>2013-09-20T13:41:51Z</time>
      </trkpt>
      <trkpt lat="44.23451" lon="7.03717">
        <ele>2179</ele>
        <time>2013-09-20T13:42:13Z</time>
      </trkpt>
      <trkpt lat="44.23437" lon="7.03722">
        <ele>2180</ele>
        <time>2013-09-20T13:42:32Z</time>
      </trkpt>
      <trkpt lat="44.23425" lon="7.03727">
        <ele>2181</ele>
        <time>2013-09-20T13:42:49Z</time>
      </trkpt>
      <trkpt lat="44.23416" lon="7.03718">
        <ele>2184</ele>
        <time>2013-09-20T13:43:07Z</time>
      </trkpt>
      <trkpt lat="44.23416" lon="7.03704">
        <ele>2187</ele>
        <time>2013-09-20T13:43:22Z</time>
      </trkpt>
      <trkpt lat="44.2341" lon="7.0371">
        <ele>2189</ele>
        <time>2013-09-20T13:43:31Z</time>
      </trkpt>
      <trkpt lat="44.23404" lon="7.03719">
        <ele>2191</ele>
        <time>2013-09-20T13:43:42Z</time>
      </trkpt>
      <trkpt lat="44.23394" lon="7.03717">
        <ele>2193</ele>
        <time>2013-09-20T13:43:54Z</time>
      </trkpt>
      <trkpt lat="44.23397" lon="7.03699">
        <ele>2196</ele>
        <time>2013-09-20T13:44:09Z</time>
      </trkpt>
      <trkpt lat="44.23398" lon="7.03683">
        <ele>2198</ele>
        <time>2013-09-20T13:44:22Z</time>
      </trkpt>
      <trkpt lat="44.23391" lon="7.03685">
        <ele>2199</ele>
        <time>2013-09-20T13:44:30Z</time>
      </trkpt>
      <trkpt lat="44.23382" lon="7.03691">
        <ele>2201</ele>
        <time>2013-09-20T13:44:42Z</time>
      </trkpt>
      <trkpt lat="44.23371" lon="7.03694">
        <ele>2203</ele>
        <time>2013-09-20T13:44:56Z</time>
      </trkpt>
      <trkpt lat="44.23371" lon="7.03684">
        <ele>2204</ele>
        <time>2013-09-20T13:45:04Z</time>
      </trkpt>
      <trkpt lat="44.23374" lon="7.0367">
        <ele>2206</ele>
        <time>2013-09-20T13:45:17Z</time>
      </trkpt>
      <trkpt lat="44.23367" lon="7.03665">
        <ele>2207</ele>
        <time>2013-09-20T13:45:26Z</time>
      </trkpt>
      <trkpt lat="44.23359" lon="7.03674">
        <ele>2208</ele>
        <time>2013-09-20T13:45:37Z</time>
      </trkpt>
      <trkpt lat="44.23346" lon="7.03691">
        <ele>2211</ele>
        <time>2013-09-20T13:45:58Z</time>
      </trkpt>
      <trkpt lat="44.23341" lon="7.03688">
        <ele>2212</ele>
        <time>2013-09-20T13:46:04Z</time>
      </trkpt>
      <trkpt lat="44.23343" lon="7.03679">
        <ele>2213</ele>
        <time>2013-09-20T13:46:11Z</time>
      </trkpt>
      <trkpt lat="44.23349" lon="7.03659">
        <ele>2215</ele>
        <time>2013-09-20T13:46:28Z</time>
      </trkpt>
      <trkpt lat="44.23345" lon="7.03647">
        <ele>2217</ele>
        <time>2013-09-20T13:46:45Z</time>
      </trkpt>
      <trkpt lat="44.23336" lon="7.03665">
        <ele>2219</ele>
        <time>2013-09-20T13:47:02Z</time>
      </trkpt>
      <trkpt lat="44.23324" lon="7.03691">
        <ele>2222</ele>
        <time>2013-09-20T13:47:25Z</time>
      </trkpt>
      <trkpt lat="44.23322" lon="7.03695">
        <ele>2222</ele>
        <time>2013-09-20T13:47:28Z</time>
      </trkpt>
      <trkpt lat="44.23319" lon="7.03695">
        <ele>2223</ele>
        <time>2013-09-20T13:47:31Z</time>
      </trkpt>
      <trkpt lat="44.23317" lon="7.0369">
        <ele>2223</ele>
        <time>2013-09-20T13:47:35Z</time>
      </trkpt>
      <trkpt lat="44.2332" lon="7.03669">
        <ele>2225</ele>
        <time>2013-09-20T13:47:51Z</time>
      </trkpt>
      <trkpt lat="44.2332" lon="7.03655">
        <ele>2226</ele>
        <time>2013-09-20T13:48:01Z</time>
      </trkpt>
      <trkpt lat="44.23323" lon="7.03639">
        <ele>2228</ele>
        <time>2013-09-20T13:48:13Z</time>
      </trkpt>
      <trkpt lat="44.23326" lon="7.03612">
        <ele>2231</ele>
        <time>2013-09-20T13:48:32Z</time>
      </trkpt>
      <trkpt lat="44.23325" lon="7.0361">
        <ele>2231</ele>
        <time>2013-09-20T13:48:34Z</time>
      </trkpt>
      <trkpt lat="44.23322" lon="7.03609">
        <ele>2232</ele>
        <time>2013-09-20T13:48:38Z</time>
      </trkpt>
      <trkpt lat="44.23312" lon="7.03629">
        <ele>2234</ele>
        <time>2013-09-20T13:48:56Z</time>
      </trkpt>
      <trkpt lat="44.23304" lon="7.03646">
        <ele>2237</ele>
        <time>2013-09-20T13:49:17Z</time>
      </trkpt>
      <trkpt lat="44.23302" lon="7.03638">
        <ele>2237</ele>
        <time>2013-09-20T13:49:24Z</time>
      </trkpt>
      <trkpt lat="44.23307" lon="7.03607">
        <ele>2240</ele>
        <time>2013-09-20T13:49:45Z</time>
      </trkpt>
      <trkpt lat="44.23308" lon="7.03588">
        <ele>2241</ele>
        <time>2013-09-20T13:49:58Z</time>
      </trkpt>
      <trkpt lat="44.23302" lon="7.03591">
        <ele>2242</ele>
        <time>2013-09-20T13:50:06Z</time>
      </trkpt>
      <trkpt lat="44.23302" lon="7.03598">
        <ele>2242</ele>
        <time>2013-09-20T13:50:11Z</time>
      </trkpt>
      <trkpt lat="44.23293" lon="7.03618">
        <ele>2244</ele>
        <time>2013-09-20T13:50:28Z</time>
      </trkpt>
      <trkpt lat="44.23283" lon="7.03647">
        <ele>2247</ele>
        <time>2013-09-20T13:50:51Z</time>
      </trkpt>
      <trkpt lat="44.23276" lon="7.03665">
        <ele>2249</ele>
        <time>2013-09-20T13:51:06Z</time>
      </trkpt>
      <trkpt lat="44.23272" lon="7.03662">
        <ele>2249</ele>
        <time>2013-09-20T13:51:11Z</time>
      </trkpt>
      <trkpt lat="44.23273" lon="7.03646">
        <ele>2251</ele>
        <time>2013-09-20T13:51:24Z</time>
      </trkpt>
      <trkpt lat="44.23274" lon="7.0362">
        <ele>2253</ele>
        <time>2013-09-20T13:51:43Z</time>
      </trkpt>
      <trkpt lat="44.23276" lon="7.0359">
        <ele>2256</ele>
        <time>2013-09-20T13:52:03Z</time>
      </trkpt>
      <trkpt lat="44.23278" lon="7.03561">
        <ele>2259</ele>
        <time>2013-09-20T13:52:24Z</time>
      </trkpt>
      <trkpt lat="44.23277" lon="7.03559">
        <ele>2259</ele>
        <time>2013-09-20T13:52:26Z</time>
      </trkpt>
      <trkpt lat="44.23274" lon="7.03558">
        <ele>2260</ele>
        <time>2013-09-20T13:52:31Z</time>
      </trkpt>
      <trkpt lat="44.23272" lon="7.03561">
        <ele>2260</ele>
        <time>2013-09-20T13:52:34Z</time>
      </trkpt>
      <trkpt lat="44.23267" lon="7.03578">
        <ele>2262</ele>
        <time>2013-09-20T13:52:48Z</time>
      </trkpt>
      <trkpt lat="44.23254" lon="7.03605">
        <ele>2265</ele>
        <time>2013-09-20T13:53:13Z</time>
      </trkpt>
      <trkpt lat="44.23242" lon="7.03626">
        <ele>2267</ele>
        <time>2013-09-20T13:53:34Z</time>
      </trkpt>
      <trkpt lat="44.23238" lon="7.0365">
        <ele>2270</ele>
        <time>2013-09-20T13:53:54Z</time>
      </trkpt>
      <trkpt lat="44.23235" lon="7.03677">
        <ele>2273</ele>
        <time>2013-09-20T13:54:17Z</time>
      </trkpt>
      <trkpt lat="44.23218" lon="7.037">
        <ele>2275</ele>
        <time>2013-09-20T13:54:41Z</time>
      </trkpt>
      <trkpt lat="44.2321" lon="7.03724">
        <ele>2278</ele>
        <time>2013-09-20T13:55:02Z</time>
      </trkpt>
      <trkpt lat="44.23203" lon="7.03744">
        <ele>2280</ele>
        <time>2013-09-20T13:55:19Z</time>
      </trkpt>
      <trkpt lat="44.23199" lon="7.03741">
        <ele>2281</ele>
        <time>2013-09-20T13:55:26Z</time>
      </trkpt>
      <trkpt lat="44.232" lon="7.03735">
        <ele>2282</ele>
        <time>2013-09-20T13:55:31Z</time>
      </trkpt>
      <trkpt lat="44.23201" lon="7.0373">
        <ele>2282</ele>
        <time>2013-09-20T13:55:36Z</time>
      </trkpt>
      <trkpt lat="44.23202" lon="7.03725">
        <ele>2283</ele>
        <time>2013-09-20T13:55:40Z</time>
      </trkpt>
      <trkpt lat="44.23201" lon="7.03717">
        <ele>2283</ele>
        <time>2013-09-20T13:55:46Z</time>
      </trkpt>
      <trkpt lat="44.23198" lon="7.03687">
        <ele>2286</ele>
        <time>2013-09-20T13:56:09Z</time>
      </trkpt>
      <trkpt lat="44.23202" lon="7.03661">
        <ele>2289</ele>
        <time>2013-09-20T13:56:30Z</time>
      </trkpt>
      <trkpt lat="44.23206" lon="7.03645">
        <ele>2290</ele>
        <time>2013-09-20T13:56:44Z</time>
      </trkpt>
      <trkpt lat="44.23207" lon="7.03635">
        <ele>2292</ele>
        <time>2013-09-20T13:56:56Z</time>
      </trkpt>
      <trkpt lat="44.23207" lon="7.03615">
        <ele>2293</ele>
        <time>2013-09-20T13:57:10Z</time>
      </trkpt>
      <trkpt lat="44.23207" lon="7.03599">
        <ele>2294</ele>
        <time>2013-09-20T13:57:19Z</time>
      </trkpt>
      <trkpt lat="44.23207" lon="7.03591">
        <ele>2295</ele>
        <time>2013-09-20T13:57:23Z</time>
      </trkpt>
      <trkpt lat="44.23201" lon="7.0358">
        <ele>2295</ele>
        <time>2013-09-20T13:57:30Z</time>
      </trkpt>
      <trkpt lat="44.23195" lon="7.03574">
        <ele>2296</ele>
        <time>2013-09-20T13:57:36Z</time>
      </trkpt>
      <trkpt lat="44.23179" lon="7.03555">
        <ele>2298</ele>
        <time>2013-09-20T13:57:53Z</time>
      </trkpt>
      <trkpt lat="44.23172" lon="7.03545">
        <ele>2299</ele>
        <time>2013-09-20T13:58:01Z</time>
      </trkpt>
      <trkpt lat="44.23165" lon="7.03539">
        <ele>2300</ele>
        <time>2013-09-20T13:58:08Z</time>
      </trkpt>
      <trkpt lat="44.23159" lon="7.03534">
        <ele>2301</ele>
        <time>2013-09-20T13:58:14Z</time>
      </trkpt>
      <trkpt lat="44.23152" lon="7.0353">
        <ele>2302</ele>
        <time>2013-09-20T13:58:22Z</time>
      </trkpt>
      <trkpt lat="44.23137" lon="7.03539">
        <ele>2305</ele>
        <time>2013-09-20T13:58:41Z</time>
      </trkpt>
      <trkpt lat="44.23121" lon="7.0355">
        <ele>2306</ele>
        <time>2013-09-20T13:58:55Z</time>
      </trkpt>
      <trkpt lat="44.23094" lon="7.03568">
        <ele>2308</ele>
        <time>2013-09-20T13:59:11Z</time>
      </trkpt>
      <trkpt lat="44.23078" lon="7.03577">
        <ele>2309</ele>
        <time>2013-09-20T13:59:23Z</time>
      </trkpt>
      <trkpt lat="44.23066" lon="7.03576">
        <ele>2310</ele>
        <time>2013-09-20T13:59:30Z</time>
      </trkpt>
      <trkpt lat="44.23038" lon="7.03574">
        <ele>2311</ele>
        <time>2013-09-20T13:59:45Z</time>
      </trkpt>
      <trkpt lat="44.23015" lon="7.03568">
        <ele>2313</ele>
        <time>2013-09-20T13:59:59Z</time>
      </trkpt>
      <trkpt lat="44.22998" lon="7.03573">
        <ele>2314</ele>
        <time>2013-09-20T14:00:11Z</time>
      </trkpt>
      <trkpt lat="44.22995" lon="7.03581">
        <ele>2314</ele>
        <time>2013-09-20T14:00:16Z</time>
      </trkpt>
      <trkpt lat="44.22995" lon="7.03595">
        <ele>2315</ele>
        <time>2013-09-20T14:00:24Z</time>
      </trkpt>
      <trkpt lat="44.22993" lon="7.03629">
        <ele>2317</ele>
        <time>2013-09-20T14:00:41Z</time>
      </trkpt>
      <trkpt lat="44.22979" lon="7.03649">
        <ele>2319</ele>
        <time>2013-09-20T14:00:54Z</time>
      </trkpt>
      <trkpt lat="44.22962" lon="7.03679">
        <ele>2320</ele>
        <time>2013-09-20T14:01:11Z</time>
      </trkpt>
      <trkpt lat="44.22942" lon="7.03681">
        <ele>2322</ele>
        <time>2013-09-20T14:01:25Z</time>
      </trkpt>
      <trkpt lat="44.22924" lon="7.03672">
        <ele>2323</ele>
        <time>2013-09-20T14:01:39Z</time>
      </trkpt>
      <trkpt lat="44.2292" lon="7.03664">
        <ele>2324</ele>
        <time>2013-09-20T14:01:44Z</time>
      </trkpt>
      <trkpt lat="44.22923" lon="7.03656">
        <ele>2325</ele>
        <time>2013-09-20T14:01:49Z</time>
      </trkpt>
      <trkpt lat="44.2293" lon="7.03654">
        <ele>2325</ele>
        <time>2013-09-20T14:01:54Z</time>
      </trkpt>
      <trkpt lat="44.22951" lon="7.0365">
        <ele>2327</ele>
        <time>2013-09-20T14:02:10Z</time>
      </trkpt>
      <trkpt lat="44.22958" lon="7.03627">
        <ele>2329</ele>
        <time>2013-09-20T14:02:25Z</time>
      </trkpt>
      <trkpt lat="44.22952" lon="7.036">
        <ele>2331</ele>
        <time>2013-09-20T14:02:41Z</time>
      </trkpt>
      <trkpt lat="44.22944" lon="7.03593">
        <ele>2332</ele>
        <time>2013-09-20T14:02:48Z</time>
      </trkpt>
      <trkpt lat="44.22924" lon="7.03583">
        <ele>2334</ele>
        <time>2013-09-20T14:03:04Z</time>
      </trkpt>
      <trkpt lat="44.22898" lon="7.03587">
        <ele>2336</ele>
        <time>2013-09-20T14:03:20Z</time>
      </trkpt>
      <trkpt lat="44.22873" lon="7.03596">
        <ele>2338</ele>
        <time>2013-09-20T14:03:38Z</time>
      </trkpt>
      <trkpt lat="44.22857" lon="7.03576">
        <ele>2339</ele>
        <time>2013-09-20T14:03:55Z</time>
      </trkpt>
      <trkpt lat="44.2286" lon="7.03552">
        <ele>2341</ele>
        <time>2013-09-20T14:04:09Z</time>
      </trkpt>
      <trkpt lat="44.22872" lon="7.0353">
        <ele>2343</ele>
        <time>2013-09-20T14:04:25Z</time>
      </trkpt>
      <trkpt lat="44.22886" lon="7.03517">
        <ele>2344</ele>
        <time>2013-09-20T14:04:39Z</time>
      </trkpt>
      <trkpt lat="44.22896" lon="7.03509">
        <ele>2346</ele>
        <time>2013-09-20T14:04:52Z</time>
      </trkpt>
      <trkpt lat="44.22906" lon="7.03501">
        <ele>2347</ele>
        <time>2013-09-20T14:05:01Z</time>
      </trkpt>
      <trkpt lat="44.229" lon="7.03497">
        <ele>2348</ele>
        <time>2013-09-20T14:05:07Z</time>
      </trkpt>
      <trkpt lat="44.22884" lon="7.0349">
        <ele>2350</ele>
        <time>2013-09-20T14:05:21Z</time>
      </trkpt>
      <trkpt lat="44.22884" lon="7.03482">
        <ele>2350</ele>
        <time>2013-09-20T14:05:26Z</time>
      </trkpt>
      <trkpt lat="44.22889" lon="7.03473">
        <ele>2351</ele>
        <time>2013-09-20T14:05:32Z</time>
      </trkpt>
      <trkpt lat="44.22901" lon="7.03448">
        <ele>2353</ele>
        <time>2013-09-20T14:05:49Z</time>
      </trkpt>
      <trkpt lat="44.22916" lon="7.03432">
        <ele>2355</ele>
        <time>2013-09-20T14:06:02Z</time>
      </trkpt>
      <trkpt lat="44.22926" lon="7.03419">
        <ele>2356</ele>
        <time>2013-09-20T14:06:12Z</time>
      </trkpt>
      <trkpt lat="44.22921" lon="7.03414">
        <ele>2357</ele>
        <time>2013-09-20T14:06:20Z</time>
      </trkpt>
      <trkpt lat="44.22909" lon="7.03424">
        <ele>2359</ele>
        <time>2013-09-20T14:06:32Z</time>
      </trkpt>
      <trkpt lat="44.22898" lon="7.03429">
        <ele>2360</ele>
        <time>2013-09-20T14:06:40Z</time>
      </trkpt>
      <trkpt lat="44.22882" lon="7.03443">
        <ele>2362</ele>
        <time>2013-09-20T14:06:56Z</time>
      </trkpt>
      <trkpt lat="44.22867" lon="7.03453">
        <ele>2363</ele>
        <time>2013-09-20T14:07:10Z</time>
      </trkpt>
      <trkpt lat="44.22849" lon="7.03462">
        <ele>2365</ele>
        <time>2013-09-20T14:07:24Z</time>
      </trkpt>
      <trkpt lat="44.22833" lon="7.03474">
        <ele>2367</ele>
        <time>2013-09-20T14:07:39Z</time>
      </trkpt>
      <trkpt lat="44.22823" lon="7.03483">
        <ele>2368</ele>
        <time>2013-09-20T14:07:53Z</time>
      </trkpt>
      <trkpt lat="44.22807" lon="7.03479">
        <ele>2370</ele>
        <time>2013-09-20T14:08:10Z</time>
      </trkpt>
      <trkpt lat="44.22789" lon="7.0346">
        <ele>2373</ele>
        <time>2013-09-20T14:08:30Z</time>
      </trkpt>
      <trkpt lat="44.22771" lon="7.03452">
        <ele>2375</ele>
        <time>2013-09-20T14:08:49Z</time>
      </trkpt>
      <trkpt lat="44.22753" lon="7.03449">
        <ele>2377</ele>
        <time>2013-09-20T14:09:06Z</time>
      </trkpt>
      <trkpt lat="44.22733" lon="7.03444">
        <ele>2380</ele>
        <time>2013-09-20T14:09:26Z</time>
      </trkpt>
      <trkpt lat="44.22713" lon="7.03438">
        <ele>2383</ele>
        <time>2013-09-20T14:09:45Z</time>
      </trkpt>
      <trkpt lat="44.22692" lon="7.03418">
        <ele>2385</ele>
        <time>2013-09-20T14:10:07Z</time>
      </trkpt>
      <trkpt lat="44.22678" lon="7.03406">
        <ele>2387</ele>
        <time>2013-09-20T14:10:23Z</time>
      </trkpt>
      <trkpt lat="44.22664" lon="7.03397">
        <ele>2389</ele>
        <time>2013-09-20T14:10:39Z</time>
      </trkpt>
      <trkpt lat="44.22646" lon="7.03392">
        <ele>2392</ele>
        <time>2013-09-20T14:10:56Z</time>
      </trkpt>
      <trkpt lat="44.22642" lon="7.03384">
        <ele>2393</ele>
        <time>2013-09-20T14:11:04Z</time>
      </trkpt>
      <trkpt lat="44.22645" lon="7.03376">
        <ele>2394</ele>
        <time>2013-09-20T14:11:10Z</time>
      </trkpt>
      <trkpt lat="44.22662" lon="7.03364">
        <ele>2396</ele>
        <time>2013-09-20T14:11:27Z</time>
      </trkpt>
      <trkpt lat="44.22683" lon="7.03358">
        <ele>2398</ele>
        <time>2013-09-20T14:11:45Z</time>
      </trkpt>
      <trkpt lat="44.22703" lon="7.03357">
        <ele>2400</ele>
        <time>2013-09-20T14:12:03Z</time>
      </trkpt>
      <trkpt lat="44.22708" lon="7.0335">
        <ele>2401</ele>
        <time>2013-09-20T14:12:10Z</time>
      </trkpt>
      <trkpt lat="44.2272" lon="7.03341">
        <ele>2402</ele>
        <time>2013-09-20T14:12:24Z</time>
      </trkpt>
      <trkpt lat="44.22717" lon="7.03333">
        <ele>2404</ele>
        <time>2013-09-20T14:12:34Z</time>
      </trkpt>
      <trkpt lat="44.22708" lon="7.03327">
        <ele>2405</ele>
        <time>2013-09-20T14:12:44Z</time>
      </trkpt>
      <trkpt lat="44.22699" lon="7.03318">
        <ele>2407</ele>
        <time>2013-09-20T14:12:59Z</time>
      </trkpt>
      <trkpt lat="44.22696" lon="7.0331">
        <ele>2408</ele>
        <time>2013-09-20T14:13:13Z</time>
      </trkpt>
      <trkpt lat="44.22679" lon="7.03317">
        <ele>2411</ele>
        <time>2013-09-20T14:13:31Z</time>
      </trkpt>
      <trkpt lat="44.22662" lon="7.03321">
        <ele>2412</ele>
        <time>2013-09-20T14:13:44Z</time>
      </trkpt>
      <trkpt lat="44.22636" lon="7.03322">
        <ele>2414</ele>
        <time>2013-09-20T14:14:02Z</time>
      </trkpt>
      <trkpt lat="44.22619" lon="7.03342">
        <ele>2415</ele>
        <time>2013-09-20T14:14:17Z</time>
      </trkpt>
      <trkpt lat="44.22616" lon="7.03344">
        <ele>2416</ele>
        <time>2013-09-20T14:14:22Z</time>
      </trkpt>
      <trkpt lat="44.22601" lon="7.03341">
        <ele>2418</ele>
        <time>2013-09-20T14:14:37Z</time>
      </trkpt>
      <trkpt lat="44.22595" lon="7.0334">
        <ele>2419</ele>
        <time>2013-09-20T14:14:44Z</time>
      </trkpt>
      <trkpt lat="44.2259" lon="7.03337">
        <ele>2420</ele>
        <time>2013-09-20T14:14:51Z</time>
      </trkpt>
      <trkpt lat="44.22579" lon="7.03331">
        <ele>2422</ele>
        <time>2013-09-20T14:15:09Z</time>
      </trkpt>
      <trkpt lat="44.22571" lon="7.03327">
        <ele>2425</ele>
        <time>2013-09-20T14:15:23Z</time>
      </trkpt>
      <trkpt lat="44.22561" lon="7.03331">
        <ele>2427</ele>
        <time>2013-09-20T14:15:39Z</time>
      </trkpt>
      <trkpt lat="44.22549" lon="7.03338">
        <ele>2430</ele>
        <time>2013-09-20T14:15:55Z</time>
      </trkpt>
      <trkpt lat="44.22535" lon="7.03341">
        <ele>2432</ele>
        <time>2013-09-20T14:16:12Z</time>
      </trkpt>
      <trkpt lat="44.2253" lon="7.03361">
        <ele>2435</ele>
        <time>2013-09-20T14:16:28Z</time>
      </trkpt>
      <trkpt lat="44.22525" lon="7.03363">
        <ele>2435</ele>
        <time>2013-09-20T14:16:34Z</time>
      </trkpt>
      <trkpt lat="44.22525" lon="7.03343">
        <ele>2437</ele>
        <time>2013-09-20T14:16:48Z</time>
      </trkpt>
      <trkpt lat="44.22527" lon="7.03321">
        <ele>2440</ele>
        <time>2013-09-20T14:17:07Z</time>
      </trkpt>
      <trkpt lat="44.22526" lon="7.03313">
        <ele>2440</ele>
        <time>2013-09-20T14:17:13Z</time>
      </trkpt>
      <trkpt lat="44.22528" lon="7.03289">
        <ele>2441</ele>
        <time>2013-09-20T14:17:22Z</time>
      </trkpt>
      <trkpt lat="44.22535" lon="7.03277">
        <ele>2441</ele>
        <time>2013-09-20T14:17:26Z</time>
      </trkpt>
      <trkpt lat="44.22553" lon="7.03225">
        <ele>2442</ele>
        <time>2013-09-20T14:17:35Z</time>
      </trkpt>
      <trkpt lat="44.2254" lon="7.0316">
        <ele>2442</ele>
        <time>2013-09-20T14:17:44Z</time>
      </trkpt>
      <trkpt lat="44.22537" lon="7.03153">
        <ele>2442</ele>
        <time>2013-09-20T14:17:48Z</time>
      </trkpt>
      <trkpt lat="44.22533" lon="7.03145">
        <ele>2442</ele>
        <time>2013-09-20T14:17:54Z</time>
      </trkpt>
      <trkpt lat="44.22522" lon="7.03132">
        <ele>2443</ele>
        <time>2013-09-20T14:18:07Z</time>
      </trkpt>
      <trkpt lat="44.22518" lon="7.03133">
        <ele>2444</ele>
        <time>2013-09-20T14:18:13Z</time>
      </trkpt>
      <trkpt lat="44.22506" lon="7.03141">
        <ele>2446</ele>
        <time>2013-09-20T14:18:29Z</time>
      </trkpt>
      <trkpt lat="44.22501" lon="7.03127">
        <ele>2448</ele>
        <time>2013-09-20T14:18:45Z</time>
      </trkpt>
      <trkpt lat="44.22495" lon="7.03127">
        <ele>2450</ele>
        <time>2013-09-20T14:19:00Z</time>
      </trkpt>
      <trkpt lat="44.22488" lon="7.0312">
        <ele>2452</ele>
        <time>2013-09-20T14:19:14Z</time>
      </trkpt>
      <trkpt lat="44.22486" lon="7.03109">
        <ele>2455</ele>
        <time>2013-09-20T14:19:30Z</time>
      </trkpt>
      <trkpt lat="44.22487" lon="7.03101">
        <ele>2457</ele>
        <time>2013-09-20T14:19:44Z</time>
      </trkpt>
      <trkpt lat="44.22483" lon="7.03102">
        <ele>2459</ele>
        <time>2013-09-20T14:20:13Z</time>
      </trkpt>
      <trkpt lat="44.22482" lon="7.03092">
        <ele>2461</ele>
        <time>2013-09-20T14:20:27Z</time>
      </trkpt>
      <trkpt lat="44.22482" lon="7.03082">
        <ele>2463</ele>
        <time>2013-09-20T14:20:39Z</time>
      </trkpt>
      <trkpt lat="44.22483" lon="7.03067">
        <ele>2465</ele>
        <time>2013-09-20T14:20:54Z</time>
      </trkpt>
      <trkpt lat="44.22482" lon="7.03053">
        <ele>2467</ele>
        <time>2013-09-20T14:21:12Z</time>
      </trkpt>
      <trkpt lat="44.22482" lon="7.03043">
        <ele>2468</ele>
        <time>2013-09-20T14:21:26Z</time>
      </trkpt>
      <trkpt lat="44.22483" lon="7.03035">
        <ele>2469</ele>
        <time>2013-09-20T14:21:38Z</time>
      </trkpt>
      <trkpt lat="44.22483" lon="7.03028">
        <ele>2471</ele>
        <time>2013-09-20T14:21:49Z</time>
      </trkpt>
      <trkpt lat="44.22476" lon="7.03031">
        <ele>2472</ele>
        <time>2013-09-20T14:22:01Z</time>
      </trkpt>
      <trkpt lat="44.22472" lon="7.03022">
        <ele>2473</ele>
        <time>2013-09-20T14:22:15Z</time>
      </trkpt>
      <trkpt lat="44.22472" lon="7.03009">
        <ele>2475</ele>
        <time>2013-09-20T14:22:31Z</time>
      </trkpt>
      <trkpt lat="44.22472" lon="7.02999">
        <ele>2477</ele>
        <time>2013-09-20T14:22:45Z</time>
      </trkpt>
      <trkpt lat="44.2247" lon="7.02994">
        <ele>2479</ele>
        <time>2013-09-20T14:22:58Z</time>
      </trkpt>
      <trkpt lat="44.22466" lon="7.03">
        <ele>2481</ele>
        <time>2013-09-20T14:23:17Z</time>
      </trkpt>
      <trkpt lat="44.22461" lon="7.03005">
        <ele>2483</ele>
        <time>2013-09-20T14:23:31Z</time>
      </trkpt>
      <trkpt lat="44.22457" lon="7.03011">
        <ele>2485</ele>
        <time>2013-09-20T14:23:45Z</time>
      </trkpt>
      <trkpt lat="44.22452" lon="7.03013">
        <ele>2486</ele>
        <time>2013-09-20T14:23:57Z</time>
      </trkpt>
      <trkpt lat="44.22448" lon="7.03015">
        <ele>2488</ele>
        <time>2013-09-20T14:24:10Z</time>
      </trkpt>
      <trkpt lat="44.22443" lon="7.0302">
        <ele>2489</ele>
        <time>2013-09-20T14:24:23Z</time>
      </trkpt>
      <trkpt lat="44.2244" lon="7.03024">
        <ele>2490</ele>
        <time>2013-09-20T14:24:35Z</time>
      </trkpt>
      <trkpt lat="44.22436" lon="7.03029">
        <ele>2492</ele>
        <time>2013-09-20T14:24:46Z</time>
      </trkpt>
      <trkpt lat="44.22434" lon="7.03034">
        <ele>2493</ele>
        <time>2013-09-20T14:24:57Z</time>
      </trkpt>
      <trkpt lat="44.2243" lon="7.03039">
        <ele>2495</ele>
        <time>2013-09-20T14:25:11Z</time>
      </trkpt>
      <trkpt lat="44.22425" lon="7.03046">
        <ele>2497</ele>
        <time>2013-09-20T14:25:26Z</time>
      </trkpt>
      <trkpt lat="44.22422" lon="7.03053">
        <ele>2499</ele>
        <time>2013-09-20T14:25:40Z</time>
      </trkpt>
      <trkpt lat="44.22419" lon="7.03061">
        <ele>2502</ele>
        <time>2013-09-20T14:25:55Z</time>
      </trkpt>
      <trkpt lat="44.22412" lon="7.03071">
        <ele>2505</ele>
        <time>2013-09-20T14:26:13Z</time>
      </trkpt>
      <trkpt lat="44.22405" lon="7.03081">
        <ele>2508</ele>
        <time>2013-09-20T14:26:32Z</time>
      </trkpt>
      <trkpt lat="44.224" lon="7.0309">
        <ele>2511</ele>
        <time>2013-09-20T14:26:48Z</time>
      </trkpt>
      <trkpt lat="44.22396" lon="7.031">
        <ele>2514</ele>
        <time>2013-09-20T14:27:05Z</time>
      </trkpt>
      <trkpt lat="44.22392" lon="7.0311">
        <ele>2517</ele>
        <time>2013-09-20T14:27:19Z</time>
      </trkpt>
      <trkpt lat="44.22387" lon="7.0312">
        <ele>2519</ele>
        <time>2013-09-20T14:27:34Z</time>
      </trkpt>
      <trkpt lat="44.22384" lon="7.03134">
        <ele>2522</ele>
        <time>2013-09-20T14:27:51Z</time>
      </trkpt>
      <trkpt lat="44.22382" lon="7.03141">
        <ele>2524</ele>
        <time>2013-09-20T14:28:02Z</time>
      </trkpt>
      <trkpt lat="44.22379" lon="7.03156">
        <ele>2526</ele>
        <time>2013-09-20T14:28:22Z</time>
      </trkpt>
      <trkpt lat="44.22378" lon="7.03169">
        <ele>2528</ele>
        <time>2013-09-20T14:28:40Z</time>
      </trkpt>
      <trkpt lat="44.22376" lon="7.03179">
        <ele>2530</ele>
        <time>2013-09-20T14:28:54Z</time>
      </trkpt>
      <trkpt lat="44.22371" lon="7.03182">
        <ele>2532</ele>
        <time>2013-09-20T14:29:12Z</time>
      </trkpt>
      <trkpt lat="44.2237" lon="7.03174">
        <ele>2533</ele>
        <time>2013-09-20T14:29:26Z</time>
      </trkpt>
      <trkpt lat="44.22368" lon="7.03163">
        <ele>2535</ele>
        <time>2013-09-20T14:29:39Z</time>
      </trkpt>
      <trkpt lat="44.22366" lon="7.0314">
        <ele>2535</ele>
        <time>2013-09-20T14:29:48Z</time>
      </trkpt>
      <trkpt lat="44.2236" lon="7.03133">
        <ele>2536</ele>
        <time>2013-09-20T14:29:55Z</time>
      </trkpt>
      <trkpt lat="44.22359" lon="7.0313">
        <ele>2536</ele>
        <time>2013-09-20T14:30:00Z</time>
      </trkpt>
      <trkpt lat="44.22356" lon="7.03124">
        <ele>2537</ele>
        <time>2013-09-20T14:30:13Z</time>
      </trkpt>
      <trkpt lat="44.22351" lon="7.03117">
        <ele>2539</ele>
        <time>2013-09-20T14:30:27Z</time>
      </trkpt>
      <trkpt lat="44.22349" lon="7.031">
        <ele>2540</ele>
        <time>2013-09-20T14:30:43Z</time>
      </trkpt>
      <trkpt lat="44.2235" lon="7.03089">
        <ele>2541</ele>
        <time>2013-09-20T14:30:56Z</time>
      </trkpt>
      <trkpt lat="44.22353" lon="7.03087">
        <ele>2548</ele>
        <time>2013-09-20T14:57:44Z</time>
      </trkpt>
      <trkpt lat="44.2235" lon="7.03085">
        <ele>2548</ele>
        <time>2013-09-20T14:57:47Z</time>
      </trkpt>
      <trkpt lat="44.2235" lon="7.03064">
        <ele>2548</ele>
        <time>2013-09-20T14:57:56Z</time>
      </trkpt>
      <trkpt lat="44.22346" lon="7.03022">
        <ele>2548</ele>
        <time>2013-09-20T14:58:07Z</time>
      </trkpt>
      <trkpt lat="44.22356" lon="7.02995">
        <ele>2548</ele>
        <time>2013-09-20T14:58:21Z</time>
      </trkpt>
      <trkpt lat="44.22366" lon="7.02987">
        <ele>2548</ele>
        <time>2013-09-20T14:58:29Z</time>
      </trkpt>
      <trkpt lat="44.22365" lon="7.02981">
        <ele>2548</ele>
        <time>2013-09-20T14:58:34Z</time>
      </trkpt>
      <trkpt lat="44.22364" lon="7.02961">
        <ele>2549</ele>
        <time>2013-09-20T14:58:46Z</time>
      </trkpt>
      <trkpt lat="44.22357" lon="7.02939">
        <ele>2550</ele>
        <time>2013-09-20T14:59:00Z</time>
      </trkpt>
      <trkpt lat="44.22363" lon="7.02913">
        <ele>2551</ele>
        <time>2013-09-20T14:59:14Z</time>
      </trkpt>
      <trkpt lat="44.22367" lon="7.02885">
        <ele>2551</ele>
        <time>2013-09-20T14:59:25Z</time>
      </trkpt>
      <trkpt lat="44.22367" lon="7.02847">
        <ele>2552</ele>
        <time>2013-09-20T14:59:40Z</time>
      </trkpt>
      <trkpt lat="44.22359" lon="7.02829">
        <ele>2552</ele>
        <time>2013-09-20T14:59:53Z</time>
      </trkpt>
      <trkpt lat="44.22358" lon="7.02817">
        <ele>2553</ele>
        <time>2013-09-20T15:00:09Z</time>
      </trkpt>
      <trkpt lat="44.2235" lon="7.02805">
        <ele>2552</ele>
        <time>2013-09-20T15:00:12Z</time>
      </trkpt>
      <trkpt lat="44.22348" lon="7.02791">
        <ele>2552</ele>
        <time>2013-09-20T15:00:16Z</time>
      </trkpt>
      <trkpt lat="44.22349" lon="7.02784">
        <ele>2552</ele>
        <time>2013-09-20T15:00:21Z</time>
      </trkpt>
      <trkpt lat="44.22349" lon="7.02756">
        <ele>2551</ele>
        <time>2013-09-20T15:00:36Z</time>
      </trkpt>
      <trkpt lat="44.22348" lon="7.02743">
        <ele>2549</ele>
        <time>2013-09-20T15:01:57Z</time>
      </trkpt>
      <trkpt lat="44.22338" lon="7.02684">
        <ele>2549</ele>
        <time>2013-09-20T15:02:07Z</time>
      </trkpt>
      <trkpt lat="44.22338" lon="7.02666">
        <ele>2549</ele>
        <time>2013-09-20T15:02:11Z</time>
      </trkpt>
      <trkpt lat="44.2233" lon="7.02644">
        <ele>2548</ele>
        <time>2013-09-20T15:02:15Z</time>
      </trkpt>
      <trkpt lat="44.22318" lon="7.02605">
        <ele>2548</ele>
        <time>2013-09-20T15:02:23Z</time>
      </trkpt>
      <trkpt lat="44.22316" lon="7.02597">
        <ele>2547</ele>
        <time>2013-09-20T15:02:27Z</time>
      </trkpt>
      <trkpt lat="44.22316" lon="7.02596">
        <ele>2546</ele>
        <time>2013-09-20T15:02:48Z</time>
      </trkpt>
      <trkpt lat="44.22302" lon="7.02373">
        <ele>2535</ele>
        <time>2013-09-20T15:09:02Z</time>
      </trkpt>
      <trkpt lat="44.22306" lon="7.02359">
        <ele>2536</ele>
        <time>2013-09-20T15:09:14Z</time>
      </trkpt>
      <trkpt lat="44.22308" lon="7.02352">
        <ele>2537</ele>
        <time>2013-09-20T15:09:22Z</time>
      </trkpt>
      <trkpt lat="44.22314" lon="7.02339">
        <ele>2539</ele>
        <time>2013-09-20T15:09:38Z</time>
      </trkpt>
      <trkpt lat="44.22319" lon="7.02319">
        <ele>2541</ele>
        <time>2013-09-20T15:09:57Z</time>
      </trkpt>
      <trkpt lat="44.22325" lon="7.02301">
        <ele>2542</ele>
        <time>2013-09-20T15:10:10Z</time>
      </trkpt>
      <trkpt lat="44.22332" lon="7.02275">
        <ele>2543</ele>
        <time>2013-09-20T15:10:25Z</time>
      </trkpt>
      <trkpt lat="44.22332" lon="7.02262">
        <ele>2544</ele>
        <time>2013-09-20T15:10:37Z</time>
      </trkpt>
      <trkpt lat="44.22333" lon="7.0225">
        <ele>2544</ele>
        <time>2013-09-20T15:10:49Z</time>
      </trkpt>
      <trkpt lat="44.22337" lon="7.02236">
        <ele>2545</ele>
        <time>2013-09-20T15:11:07Z</time>
      </trkpt>
      <trkpt lat="44.22347" lon="7.02207">
        <ele>2545</ele>
        <time>2013-09-20T15:11:17Z</time>
      </trkpt>
      <trkpt lat="44.22359" lon="7.02171">
        <ele>2545</ele>
        <time>2013-09-20T15:11:29Z</time>
      </trkpt>
      <trkpt lat="44.22357" lon="7.0214">
        <ele>2545</ele>
        <time>2013-09-20T15:11:38Z</time>
      </trkpt>
      <trkpt lat="44.22357" lon="7.02139">
        <ele>2544</ele>
        <time>2013-09-20T15:12:15Z</time>
      </trkpt>
      <trkpt lat="44.22354" lon="7.02127">
        <ele>2543</ele>
        <time>2013-09-20T15:13:13Z</time>
      </trkpt>
      <trkpt lat="44.22358" lon="7.02111">
        <ele>2543</ele>
        <time>2013-09-20T15:13:17Z</time>
      </trkpt>
      <trkpt lat="44.22363" lon="7.02064">
        <ele>2542</ele>
        <time>2013-09-20T15:13:25Z</time>
      </trkpt>
      <trkpt lat="44.22372" lon="7.02044">
        <ele>2542</ele>
        <time>2013-09-20T15:13:29Z</time>
      </trkpt>
      <trkpt lat="44.22385" lon="7.02036">
        <ele>2542</ele>
        <time>2013-09-20T15:13:33Z</time>
      </trkpt>
      <trkpt lat="44.22404" lon="7.01999">
        <ele>2541</ele>
        <time>2013-09-20T15:13:41Z</time>
      </trkpt>
      <trkpt lat="44.224" lon="7.01987">
        <ele>2541</ele>
        <time>2013-09-20T15:13:45Z</time>
      </trkpt>
      <trkpt lat="44.22396" lon="7.02001">
        <ele>2541</ele>
        <time>2013-09-20T15:13:49Z</time>
      </trkpt>
      <trkpt lat="44.22393" lon="7.02">
        <ele>2540</ele>
        <time>2013-09-20T15:13:51Z</time>
      </trkpt>
      <trkpt lat="44.22388" lon="7.01963">
        <ele>2539</ele>
        <time>2013-09-20T15:13:58Z</time>
      </trkpt>
      <trkpt lat="44.22376" lon="7.01938">
        <ele>2538</ele>
        <time>2013-09-20T15:14:07Z</time>
      </trkpt>
      <trkpt lat="44.22371" lon="7.01945">
        <ele>2537</ele>
        <time>2013-09-20T15:14:13Z</time>
      </trkpt>
      <trkpt lat="44.22377" lon="7.01914">
        <ele>2535</ele>
        <time>2013-09-20T15:14:21Z</time>
      </trkpt>
      <trkpt lat="44.22381" lon="7.01909">
        <ele>2534</ele>
        <time>2013-09-20T15:14:26Z</time>
      </trkpt>
      <trkpt lat="44.22383" lon="7.01903">
        <ele>2533</ele>
        <time>2013-09-20T15:14:33Z</time>
      </trkpt>
      <trkpt lat="44.22389" lon="7.01895">
        <ele>2531</ele>
        <time>2013-09-20T15:14:41Z</time>
      </trkpt>
      <trkpt lat="44.22392" lon="7.01892">
        <ele>2530</ele>
        <time>2013-09-20T15:14:46Z</time>
      </trkpt>
      <trkpt lat="44.22396" lon="7.01884">
        <ele>2529</ele>
        <time>2013-09-20T15:14:54Z</time>
      </trkpt>
      <trkpt lat="44.22403" lon="7.01872">
        <ele>2527</ele>
        <time>2013-09-20T15:15:02Z</time>
      </trkpt>
      <trkpt lat="44.22404" lon="7.01857">
        <ele>2526</ele>
        <time>2013-09-20T15:15:09Z</time>
      </trkpt>
      <trkpt lat="44.22403" lon="7.01851">
        <ele>2524</ele>
        <time>2013-09-20T15:15:15Z</time>
      </trkpt>
      <trkpt lat="44.224" lon="7.01834">
        <ele>2520</ele>
        <time>2013-09-20T15:15:35Z</time>
      </trkpt>
      <trkpt lat="44.22396" lon="7.01834">
        <ele>2518</ele>
        <time>2013-09-20T15:15:45Z</time>
      </trkpt>
      <trkpt lat="44.22393" lon="7.01844">
        <ele>2515</ele>
        <time>2013-09-20T15:15:58Z</time>
      </trkpt>
      <trkpt lat="44.22391" lon="7.01842">
        <ele>2512</ele>
        <time>2013-09-20T15:16:09Z</time>
      </trkpt>
      <trkpt lat="44.22385" lon="7.01828">
        <ele>2508</ele>
        <time>2013-09-20T15:16:24Z</time>
      </trkpt>
      <trkpt lat="44.22379" lon="7.01809">
        <ele>2504</ele>
        <time>2013-09-20T15:16:39Z</time>
      </trkpt>
      <trkpt lat="44.22374" lon="7.01798">
        <ele>2501</ele>
        <time>2013-09-20T15:16:50Z</time>
      </trkpt>
      <trkpt lat="44.22373" lon="7.01766">
        <ele>2499</ele>
        <time>2013-09-20T15:16:58Z</time>
      </trkpt>
      <trkpt lat="44.22373" lon="7.01761">
        <ele>2493</ele>
        <time>2013-09-20T15:17:17Z</time>
      </trkpt>
      <trkpt lat="44.22372" lon="7.01758">
        <ele>2487</ele>
        <time>2013-09-20T15:17:44Z</time>
      </trkpt>
      <trkpt lat="44.22367" lon="7.01753">
        <ele>2485</ele>
        <time>2013-09-20T15:17:54Z</time>
      </trkpt>
      <trkpt lat="44.2236" lon="7.01743">
        <ele>2482</ele>
        <time>2013-09-20T15:18:07Z</time>
      </trkpt>
      <trkpt lat="44.2235" lon="7.01716">
        <ele>2480</ele>
        <time>2013-09-20T15:18:16Z</time>
      </trkpt>
      <trkpt lat="44.22342" lon="7.01699">
        <ele>2477</ele>
        <time>2013-09-20T15:18:25Z</time>
      </trkpt>
      <trkpt lat="44.22331" lon="7.0168">
        <ele>2475</ele>
        <time>2013-09-20T15:18:33Z</time>
      </trkpt>
      <trkpt lat="44.22321" lon="7.01664">
        <ele>2473</ele>
        <time>2013-09-20T15:18:38Z</time>
      </trkpt>
      <trkpt lat="44.22303" lon="7.01632">
        <ele>2470</ele>
        <time>2013-09-20T15:18:49Z</time>
      </trkpt>
      <trkpt lat="44.22298" lon="7.01626">
        <ele>2469</ele>
        <time>2013-09-20T15:18:55Z</time>
      </trkpt>
      <trkpt lat="44.22296" lon="7.01624">
        <ele>2469</ele>
        <time>2013-09-20T15:18:57Z</time>
      </trkpt>
      <trkpt lat="44.22291" lon="7.01611">
        <ele>2467</ele>
        <time>2013-09-20T15:19:02Z</time>
      </trkpt>
      <trkpt lat="44.22265" lon="7.0159">
        <ele>2465</ele>
        <time>2013-09-20T15:19:12Z</time>
      </trkpt>
      <trkpt lat="44.22258" lon="7.01574">
        <ele>2463</ele>
        <time>2013-09-20T15:19:18Z</time>
      </trkpt>
      <trkpt lat="44.22253" lon="7.01567">
        <ele>2462</ele>
        <time>2013-09-20T15:19:22Z</time>
      </trkpt>
      <trkpt lat="44.22241" lon="7.01542">
        <ele>2460</ele>
        <time>2013-09-20T15:19:31Z</time>
      </trkpt>
      <trkpt lat="44.22234" lon="7.01536">
        <ele>2458</ele>
        <time>2013-09-20T15:19:39Z</time>
      </trkpt>
      <trkpt lat="44.22226" lon="7.0153">
        <ele>2456</ele>
        <time>2013-09-20T15:19:48Z</time>
      </trkpt>
      <trkpt lat="44.22218" lon="7.01525">
        <ele>2454</ele>
        <time>2013-09-20T15:19:53Z</time>
      </trkpt>
      <trkpt lat="44.22204" lon="7.01511">
        <ele>2452</ele>
        <time>2013-09-20T15:20:03Z</time>
      </trkpt>
      <trkpt lat="44.22185" lon="7.0149">
        <ele>2449</ele>
        <time>2013-09-20T15:20:13Z</time>
      </trkpt>
      <trkpt lat="44.22161" lon="7.01469">
        <ele>2446</ele>
        <time>2013-09-20T15:20:24Z</time>
      </trkpt>
      <trkpt lat="44.22145" lon="7.01442">
        <ele>2444</ele>
        <time>2013-09-20T15:20:35Z</time>
      </trkpt>
      <trkpt lat="44.22129" lon="7.01413">
        <ele>2441</ele>
        <time>2013-09-20T15:20:46Z</time>
      </trkpt>
      <trkpt lat="44.22126" lon="7.01376">
        <ele>2439</ele>
        <time>2013-09-20T15:20:56Z</time>
      </trkpt>
      <trkpt lat="44.22126" lon="7.01371">
        <ele>2434</ele>
        <time>2013-09-20T15:21:23Z</time>
      </trkpt>
      <trkpt lat="44.22126" lon="7.01371">
        <ele>2431</ele>
        <time>2013-09-20T15:21:43Z</time>
      </trkpt>
      <trkpt lat="44.22128" lon="7.01356">
        <ele>2429</ele>
        <time>2013-09-20T15:21:57Z</time>
      </trkpt>
      <trkpt lat="44.22131" lon="7.01335">
        <ele>2427</ele>
        <time>2013-09-20T15:22:04Z</time>
      </trkpt>
      <trkpt lat="44.22123" lon="7.01334">
        <ele>2427</ele>
        <time>2013-09-20T15:22:08Z</time>
      </trkpt>
      <trkpt lat="44.2212" lon="7.01325">
        <ele>2426</ele>
        <time>2013-09-20T15:22:11Z</time>
      </trkpt>
      <trkpt lat="44.22124" lon="7.01295">
        <ele>2424</ele>
        <time>2013-09-20T15:22:22Z</time>
      </trkpt>
      <trkpt lat="44.22124" lon="7.01287">
        <ele>2419</ele>
        <time>2013-09-20T15:22:47Z</time>
      </trkpt>
      <trkpt lat="44.22134" lon="7.01253">
        <ele>2417</ele>
        <time>2013-09-20T15:22:55Z</time>
      </trkpt>
      <trkpt lat="44.22143" lon="7.01224">
        <ele>2415</ele>
        <time>2013-09-20T15:23:02Z</time>
      </trkpt>
      <trkpt lat="44.22157" lon="7.01196">
        <ele>2414</ele>
        <time>2013-09-20T15:23:08Z</time>
      </trkpt>
      <trkpt lat="44.22175" lon="7.01155">
        <ele>2411</ele>
        <time>2013-09-20T15:23:18Z</time>
      </trkpt>
      <trkpt lat="44.22194" lon="7.01117">
        <ele>2410</ele>
        <time>2013-09-20T15:23:25Z</time>
      </trkpt>
      <trkpt lat="44.22201" lon="7.01093">
        <ele>2408</ele>
        <time>2013-09-20T15:23:29Z</time>
      </trkpt>
      <trkpt lat="44.22207" lon="7.0107">
        <ele>2407</ele>
        <time>2013-09-20T15:23:33Z</time>
      </trkpt>
      <trkpt lat="44.22212" lon="7.0104">
        <ele>2406</ele>
        <time>2013-09-20T15:23:38Z</time>
      </trkpt>
      <trkpt lat="44.22213" lon="7.01001">
        <ele>2404</ele>
        <time>2013-09-20T15:23:46Z</time>
      </trkpt>
      <trkpt lat="44.22211" lon="7.00984">
        <ele>2402</ele>
        <time>2013-09-20T15:23:52Z</time>
      </trkpt>
      <trkpt lat="44.22212" lon="7.00963">
        <ele>2400</ele>
        <time>2013-09-20T15:23:58Z</time>
      </trkpt>
      <trkpt lat="44.22212" lon="7.00929">
        <ele>2398</ele>
        <time>2013-09-20T15:24:06Z</time>
      </trkpt>
      <trkpt lat="44.22212" lon="7.00916">
        <ele>2397</ele>
        <time>2013-09-20T15:24:10Z</time>
      </trkpt>
      <trkpt lat="44.22212" lon="7.00907">
        <ele>2395</ele>
        <time>2013-09-20T15:24:16Z</time>
      </trkpt>
      <trkpt lat="44.22212" lon="7.00897">
        <ele>2391</ele>
        <time>2013-09-20T15:24:30Z</time>
      </trkpt>
      <trkpt lat="44.22201" lon="7.009">
        <ele>2389</ele>
        <time>2013-09-20T15:24:36Z</time>
      </trkpt>
      <trkpt lat="44.2218" lon="7.00938">
        <ele>2386</ele>
        <time>2013-09-20T15:24:45Z</time>
      </trkpt>
      <trkpt lat="44.2216" lon="7.00968">
        <ele>2384</ele>
        <time>2013-09-20T15:24:51Z</time>
      </trkpt>
      <trkpt lat="44.22153" lon="7.00983">
        <ele>2382</ele>
        <time>2013-09-20T15:24:54Z</time>
      </trkpt>
      <trkpt lat="44.22149" lon="7.00955">
        <ele>2380</ele>
        <time>2013-09-20T15:25:01Z</time>
      </trkpt>
      <trkpt lat="44.22152" lon="7.00885">
        <ele>2377</ele>
        <time>2013-09-20T15:25:10Z</time>
      </trkpt>
      <trkpt lat="44.22148" lon="7.00866">
        <ele>2376</ele>
        <time>2013-09-20T15:25:13Z</time>
      </trkpt>
      <trkpt lat="44.22146" lon="7.00836">
        <ele>2374</ele>
        <time>2013-09-20T15:25:17Z</time>
      </trkpt>
      <trkpt lat="44.22152" lon="7.00799">
        <ele>2372</ele>
        <time>2013-09-20T15:25:22Z</time>
      </trkpt>
      <trkpt lat="44.22148" lon="7.00773">
        <ele>2371</ele>
        <time>2013-09-20T15:25:26Z</time>
      </trkpt>
      <trkpt lat="44.22149" lon="7.00746">
        <ele>2369</ele>
        <time>2013-09-20T15:25:30Z</time>
      </trkpt>
      <trkpt lat="44.22152" lon="7.00719">
        <ele>2367</ele>
        <time>2013-09-20T15:25:34Z</time>
      </trkpt>
      <trkpt lat="44.22158" lon="7.00686">
        <ele>2365</ele>
        <time>2013-09-20T15:25:39Z</time>
      </trkpt>
      <trkpt lat="44.2216" lon="7.00652">
        <ele>2363</ele>
        <time>2013-09-20T15:25:44Z</time>
      </trkpt>
      <trkpt lat="44.22165" lon="7.00607">
        <ele>2360</ele>
        <time>2013-09-20T15:25:50Z</time>
      </trkpt>
      <trkpt lat="44.22175" lon="7.00539">
        <ele>2357</ele>
        <time>2013-09-20T15:25:58Z</time>
      </trkpt>
      <trkpt lat="44.22188" lon="7.00444">
        <ele>2352</ele>
        <time>2013-09-20T15:26:07Z</time>
      </trkpt>
      <trkpt lat="44.2219" lon="7.00419">
        <ele>2351</ele>
        <time>2013-09-20T15:26:10Z</time>
      </trkpt>
      <trkpt lat="44.222" lon="7.00383">
        <ele>2349</ele>
        <time>2013-09-20T15:26:14Z</time>
      </trkpt>
      <trkpt lat="44.22208" lon="7.00334">
        <ele>2346</ele>
        <time>2013-09-20T15:26:19Z</time>
      </trkpt>
      <trkpt lat="44.22216" lon="7.00308">
        <ele>2345</ele>
        <time>2013-09-20T15:26:22Z</time>
      </trkpt>
      <trkpt lat="44.22226" lon="7.00272">
        <ele>2343</ele>
        <time>2013-09-20T15:26:26Z</time>
      </trkpt>
      <trkpt lat="44.22231" lon="7.00243">
        <ele>2341</ele>
        <time>2013-09-20T15:26:30Z</time>
      </trkpt>
      <trkpt lat="44.22234" lon="7.00215">
        <ele>2339</ele>
        <time>2013-09-20T15:26:34Z</time>
      </trkpt>
      <trkpt lat="44.22251" lon="7.00178">
        <ele>2336</ele>
        <time>2013-09-20T15:26:39Z</time>
      </trkpt>
      <trkpt lat="44.22255" lon="7.0016">
        <ele>2334</ele>
        <time>2013-09-20T15:26:42Z</time>
      </trkpt>
      <trkpt lat="44.2227" lon="7.00142">
        <ele>2332</ele>
        <time>2013-09-20T15:26:46Z</time>
      </trkpt>
      <trkpt lat="44.22275" lon="7.0013">
        <ele>2331</ele>
        <time>2013-09-20T15:26:49Z</time>
      </trkpt>
      <trkpt lat="44.22278" lon="7.00124">
        <ele>2328</ele>
        <time>2013-09-20T15:26:53Z</time>
      </trkpt>
      <trkpt lat="44.2228" lon="7.0011">
        <ele>2326</ele>
        <time>2013-09-20T15:26:58Z</time>
      </trkpt>
      <trkpt lat="44.22306" lon="7.00068">
        <ele>2321</ele>
        <time>2013-09-20T15:27:07Z</time>
      </trkpt>
      <trkpt lat="44.22324" lon="7.00047">
        <ele>2319</ele>
        <time>2013-09-20T15:27:11Z</time>
      </trkpt>
      <trkpt lat="44.22339" lon="7.00048">
        <ele>2316</ele>
        <time>2013-09-20T15:27:17Z</time>
      </trkpt>
      <trkpt lat="44.22345" lon="7.00064">
        <ele>2313</ele>
        <time>2013-09-20T15:27:22Z</time>
      </trkpt>
      <trkpt lat="44.22355" lon="7.001">
        <ele>2308</ele>
        <time>2013-09-20T15:27:32Z</time>
      </trkpt>
      <trkpt lat="44.22366" lon="7.00153">
        <ele>2301</ele>
        <time>2013-09-20T15:27:44Z</time>
      </trkpt>
      <trkpt lat="44.22384" lon="7.00188">
        <ele>2295</ele>
        <time>2013-09-20T15:27:55Z</time>
      </trkpt>
      <trkpt lat="44.22403" lon="7.00214">
        <ele>2290</ele>
        <time>2013-09-20T15:28:05Z</time>
      </trkpt>
      <trkpt lat="44.2243" lon="7.00214">
        <ele>2286</ele>
        <time>2013-09-20T15:28:14Z</time>
      </trkpt>
      <trkpt lat="44.2244" lon="7.00211">
        <ele>2283</ele>
        <time>2013-09-20T15:28:18Z</time>
      </trkpt>
      <trkpt lat="44.22448" lon="7.00212">
        <ele>2281</ele>
        <time>2013-09-20T15:28:22Z</time>
      </trkpt>
      <trkpt lat="44.22475" lon="7.00199">
        <ele>2275</ele>
        <time>2013-09-20T15:28:33Z</time>
      </trkpt>
      <trkpt lat="44.2251" lon="7.00169">
        <ele>2271</ele>
        <time>2013-09-20T15:28:41Z</time>
      </trkpt>
      <trkpt lat="44.22522" lon="7.00139">
        <ele>2268</ele>
        <time>2013-09-20T15:28:46Z</time>
      </trkpt>
      <trkpt lat="44.22527" lon="7.0011">
        <ele>2266</ele>
        <time>2013-09-20T15:28:51Z</time>
      </trkpt>
      <trkpt lat="44.22536" lon="7.00087">
        <ele>2264</ele>
        <time>2013-09-20T15:28:55Z</time>
      </trkpt>
      <trkpt lat="44.22538" lon="7.00075">
        <ele>2263</ele>
        <time>2013-09-20T15:28:57Z</time>
      </trkpt>
      <trkpt lat="44.22548" lon="7.00046">
        <ele>2260</ele>
        <time>2013-09-20T15:29:03Z</time>
      </trkpt>
      <trkpt lat="44.22554" lon="7.00028">
        <ele>2257</ele>
        <time>2013-09-20T15:29:08Z</time>
      </trkpt>
      <trkpt lat="44.22556" lon="7.00023">
        <ele>2241</ele>
        <time>2013-09-20T15:29:49Z</time>
      </trkpt>
      <trkpt lat="44.22557" lon="7.00026">
        <ele>2235</ele>
        <time>2013-09-20T15:30:08Z</time>
      </trkpt>
      <trkpt lat="44.22556" lon="7.00028">
        <ele>2210</ele>
        <time>2013-09-20T15:32:57Z</time>
      </trkpt>
      <trkpt lat="44.22554" lon="7.00024">
        <ele>2207</ele>
        <time>2013-09-20T15:33:39Z</time>
      </trkpt>
      <trkpt lat="44.2256" lon="7.00009">
        <ele>2206</ele>
        <time>2013-09-20T15:33:55Z</time>
      </trkpt>
      <trkpt lat="44.22565" lon="6.99986">
        <ele>2206</ele>
        <time>2013-09-20T15:34:03Z</time>
      </trkpt>
      <trkpt lat="44.22566" lon="6.99964">
        <ele>2205</ele>
        <time>2013-09-20T15:34:12Z</time>
      </trkpt>
      <trkpt lat="44.22568" lon="6.99932">
        <ele>2205</ele>
        <time>2013-09-20T15:34:25Z</time>
      </trkpt>
      <trkpt lat="44.22578" lon="6.99907">
        <ele>2205</ele>
        <time>2013-09-20T15:34:37Z</time>
      </trkpt>
      <trkpt lat="44.22597" lon="6.99878">
        <ele>2204</ele>
        <time>2013-09-20T15:34:49Z</time>
      </trkpt>
      <trkpt lat="44.22621" lon="6.99839">
        <ele>2204</ele>
        <time>2013-09-20T15:35:01Z</time>
      </trkpt>
      <trkpt lat="44.22646" lon="6.99824">
        <ele>2204</ele>
        <time>2013-09-20T15:35:10Z</time>
      </trkpt>
      <trkpt lat="44.22662" lon="6.99812">
        <ele>2203</ele>
        <time>2013-09-20T15:35:17Z</time>
      </trkpt>
      <trkpt lat="44.22667" lon="6.99806">
        <ele>2203</ele>
        <time>2013-09-20T15:35:20Z</time>
      </trkpt>
      <trkpt lat="44.22672" lon="6.99809">
        <ele>2203</ele>
        <time>2013-09-20T15:35:23Z</time>
      </trkpt>
      <trkpt lat="44.22675" lon="6.99812">
        <ele>2202</ele>
        <time>2013-09-20T15:35:26Z</time>
      </trkpt>
      <trkpt lat="44.22677" lon="6.9981">
        <ele>2202</ele>
        <time>2013-09-20T15:35:31Z</time>
      </trkpt>
      <trkpt lat="44.22682" lon="6.99804">
        <ele>2201</ele>
        <time>2013-09-20T15:35:36Z</time>
      </trkpt>
      <trkpt lat="44.22679" lon="6.99793">
        <ele>2200</ele>
        <time>2013-09-20T15:35:42Z</time>
      </trkpt>
      <trkpt lat="44.22681" lon="6.99792">
        <ele>2199</ele>
        <time>2013-09-20T15:35:49Z</time>
      </trkpt>
      <trkpt lat="44.22692" lon="6.99799">
        <ele>2198</ele>
        <time>2013-09-20T15:35:57Z</time>
      </trkpt>
      <trkpt lat="44.22696" lon="6.99797">
        <ele>2198</ele>
        <time>2013-09-20T15:36:01Z</time>
      </trkpt>
      <trkpt lat="44.22696" lon="6.99787">
        <ele>2197</ele>
        <time>2013-09-20T15:36:06Z</time>
      </trkpt>
      <trkpt lat="44.22705" lon="6.99795">
        <ele>2196</ele>
        <time>2013-09-20T15:36:11Z</time>
      </trkpt>
      <trkpt lat="44.22729" lon="6.99786">
        <ele>2195</ele>
        <time>2013-09-20T15:36:19Z</time>
      </trkpt>
      <trkpt lat="44.22738" lon="6.9979">
        <ele>2194</ele>
        <time>2013-09-20T15:36:23Z</time>
      </trkpt>
      <trkpt lat="44.22742" lon="6.99781">
        <ele>2194</ele>
        <time>2013-09-20T15:36:27Z</time>
      </trkpt>
      <trkpt lat="44.22758" lon="6.99762">
        <ele>2191</ele>
        <time>2013-09-20T15:36:37Z</time>
      </trkpt>
      <trkpt lat="44.22768" lon="6.99747">
        <ele>2190</ele>
        <time>2013-09-20T15:36:43Z</time>
      </trkpt>
      <trkpt lat="44.22778" lon="6.99732">
        <ele>2188</ele>
        <time>2013-09-20T15:36:50Z</time>
      </trkpt>
      <trkpt lat="44.22774" lon="6.99731">
        <ele>2187</ele>
        <time>2013-09-20T15:36:52Z</time>
      </trkpt>
      <trkpt lat="44.22768" lon="6.99726">
        <ele>2186</ele>
        <time>2013-09-20T15:36:57Z</time>
      </trkpt>
      <trkpt lat="44.22775" lon="6.99713">
        <ele>2184</ele>
        <time>2013-09-20T15:37:02Z</time>
      </trkpt>
      <trkpt lat="44.22781" lon="6.99704">
        <ele>2183</ele>
        <time>2013-09-20T15:37:06Z</time>
      </trkpt>
      <trkpt lat="44.22783" lon="6.99703">
        <ele>2178</ele>
        <time>2013-09-20T15:37:23Z</time>
      </trkpt>
      <trkpt lat="44.22787" lon="6.99691">
        <ele>2176</ele>
        <time>2013-09-20T15:37:29Z</time>
      </trkpt>
      <trkpt lat="44.22796" lon="6.99675">
        <ele>2172</ele>
        <time>2013-09-20T15:37:39Z</time>
      </trkpt>
      <trkpt lat="44.22803" lon="6.99663">
        <ele>2170</ele>
        <time>2013-09-20T15:37:46Z</time>
      </trkpt>
      <trkpt lat="44.22802" lon="6.99662">
        <ele>2168</ele>
        <time>2013-09-20T15:37:51Z</time>
      </trkpt>
      <trkpt lat="44.22798" lon="6.99663">
        <ele>2165</ele>
        <time>2013-09-20T15:38:01Z</time>
      </trkpt>
      <trkpt lat="44.22781" lon="6.99657">
        <ele>2162</ele>
        <time>2013-09-20T15:38:09Z</time>
      </trkpt>
      <trkpt lat="44.22763" lon="6.99638">
        <ele>2159</ele>
        <time>2013-09-20T15:38:18Z</time>
      </trkpt>
      <trkpt lat="44.22759" lon="6.9963">
        <ele>2158</ele>
        <time>2013-09-20T15:38:21Z</time>
      </trkpt>
      <trkpt lat="44.22759" lon="6.99621">
        <ele>2157</ele>
        <time>2013-09-20T15:38:25Z</time>
      </trkpt>
      <trkpt lat="44.22768" lon="6.99616">
        <ele>2155</ele>
        <time>2013-09-20T15:38:29Z</time>
      </trkpt>
      <trkpt lat="44.22775" lon="6.99612">
        <ele>2154</ele>
        <time>2013-09-20T15:38:33Z</time>
      </trkpt>
      <trkpt lat="44.2279" lon="6.99599">
        <ele>2152</ele>
        <time>2013-09-20T15:38:38Z</time>
      </trkpt>
      <trkpt lat="44.2281" lon="6.9958">
        <ele>2149</ele>
        <time>2013-09-20T15:38:45Z</time>
      </trkpt>
      <trkpt lat="44.22822" lon="6.99554">
        <ele>2147</ele>
        <time>2013-09-20T15:38:51Z</time>
      </trkpt>
      <trkpt lat="44.22848" lon="6.99533">
        <ele>2143</ele>
        <time>2013-09-20T15:38:59Z</time>
      </trkpt>
      <trkpt lat="44.22857" lon="6.99506">
        <ele>2140</ele>
        <time>2013-09-20T15:39:06Z</time>
      </trkpt>
      <trkpt lat="44.22861" lon="6.99476">
        <ele>2135</ele>
        <time>2013-09-20T15:39:16Z</time>
      </trkpt>
      <trkpt lat="44.22858" lon="6.99477">
        <ele>2126</ele>
        <time>2013-09-20T15:39:36Z</time>
      </trkpt>
      <trkpt lat="44.22851" lon="6.99481">
        <ele>2124</ele>
        <time>2013-09-20T15:39:39Z</time>
      </trkpt>
      <trkpt lat="44.22836" lon="6.99478">
        <ele>2121</ele>
        <time>2013-09-20T15:39:46Z</time>
      </trkpt>
      <trkpt lat="44.22836" lon="6.99466">
        <ele>2120</ele>
        <time>2013-09-20T15:39:50Z</time>
      </trkpt>
      <trkpt lat="44.22832" lon="6.99457">
        <ele>2118</ele>
        <time>2013-09-20T15:39:53Z</time>
      </trkpt>
      <trkpt lat="44.22833" lon="6.99446">
        <ele>2117</ele>
        <time>2013-09-20T15:39:57Z</time>
      </trkpt>
      <trkpt lat="44.22828" lon="6.99437">
        <ele>2115</ele>
        <time>2013-09-20T15:40:01Z</time>
      </trkpt>
      <trkpt lat="44.22816" lon="6.99431">
        <ele>2112</ele>
        <time>2013-09-20T15:40:07Z</time>
      </trkpt>
      <trkpt lat="44.22818" lon="6.99429">
        <ele>2111</ele>
        <time>2013-09-20T15:40:09Z</time>
      </trkpt>
      <trkpt lat="44.22824" lon="6.99424">
        <ele>2107</ele>
        <time>2013-09-20T15:40:17Z</time>
      </trkpt>
      <trkpt lat="44.22833" lon="6.99415">
        <ele>2105</ele>
        <time>2013-09-20T15:40:22Z</time>
      </trkpt>
      <trkpt lat="44.22837" lon="6.99387">
        <ele>2102</ele>
        <time>2013-09-20T15:40:29Z</time>
      </trkpt>
      <trkpt lat="44.2284" lon="6.99363">
        <ele>2098</ele>
        <time>2013-09-20T15:40:36Z</time>
      </trkpt>
      <trkpt lat="44.22847" lon="6.99354">
        <ele>2096</ele>
        <time>2013-09-20T15:40:40Z</time>
      </trkpt>
      <trkpt lat="44.22844" lon="6.99351">
        <ele>2095</ele>
        <time>2013-09-20T15:40:42Z</time>
      </trkpt>
      <trkpt lat="44.22814" lon="6.99346">
        <ele>2090</ele>
        <time>2013-09-20T15:40:52Z</time>
      </trkpt>
      <trkpt lat="44.22805" lon="6.9933">
        <ele>2085</ele>
        <time>2013-09-20T15:41:01Z</time>
      </trkpt>
      <trkpt lat="44.22813" lon="6.99317">
        <ele>2082</ele>
        <time>2013-09-20T15:41:06Z</time>
      </trkpt>
      <trkpt lat="44.22827" lon="6.99293">
        <ele>2077</ele>
        <time>2013-09-20T15:41:15Z</time>
      </trkpt>
      <trkpt lat="44.22838" lon="6.99275">
        <ele>2075</ele>
        <time>2013-09-20T15:41:19Z</time>
      </trkpt>
      <trkpt lat="44.22846" lon="6.99264">
        <ele>2073</ele>
        <time>2013-09-20T15:41:22Z</time>
      </trkpt>
      <trkpt lat="44.2285" lon="6.99236">
        <ele>2070</ele>
        <time>2013-09-20T15:41:28Z</time>
      </trkpt>
      <trkpt lat="44.22852" lon="6.99225">
        <ele>2060</ele>
        <time>2013-09-20T15:41:48Z</time>
      </trkpt>
      <trkpt lat="44.22851" lon="6.99219">
        <ele>2036</ele>
        <time>2013-09-20T15:43:02Z</time>
      </trkpt>
      <trkpt lat="44.22851" lon="6.99218">
        <ele>2029</ele>
        <time>2013-09-20T15:43:37Z</time>
      </trkpt>
      <trkpt lat="44.22852" lon="6.99224">
        <ele>2026</ele>
        <time>2013-09-20T15:43:55Z</time>
      </trkpt>
      <trkpt lat="44.2285" lon="6.99227">
        <ele>2015</ele>
        <time>2013-09-20T15:45:27Z</time>
      </trkpt>
      <trkpt lat="44.22855" lon="6.99223">
        <ele>2010</ele>
        <time>2013-09-20T16:01:40Z</time>
      </trkpt>
      <trkpt lat="44.2286" lon="6.99203">
        <ele>2010</ele>
        <time>2013-09-20T16:01:49Z</time>
      </trkpt>
      <trkpt lat="44.2287" lon="6.99185">
        <ele>2009</ele>
        <time>2013-09-20T16:01:55Z</time>
      </trkpt>
      <trkpt lat="44.22887" lon="6.99155">
        <ele>2008</ele>
        <time>2013-09-20T16:02:05Z</time>
      </trkpt>
      <trkpt lat="44.22903" lon="6.99135">
        <ele>2007</ele>
        <time>2013-09-20T16:02:13Z</time>
      </trkpt>
      <trkpt lat="44.22911" lon="6.99125">
        <ele>2007</ele>
        <time>2013-09-20T16:02:17Z</time>
      </trkpt>
      <trkpt lat="44.2292" lon="6.99101">
        <ele>2005</ele>
        <time>2013-09-20T16:02:24Z</time>
      </trkpt>
      <trkpt lat="44.22931" lon="6.99072">
        <ele>2004</ele>
        <time>2013-09-20T16:02:33Z</time>
      </trkpt>
      <trkpt lat="44.22927" lon="6.99062">
        <ele>2002</ele>
        <time>2013-09-20T16:02:41Z</time>
      </trkpt>
      <trkpt lat="44.2292" lon="6.99066">
        <ele>2001</ele>
        <time>2013-09-20T16:02:45Z</time>
      </trkpt>
      <trkpt lat="44.2292" lon="6.99061">
        <ele>2000</ele>
        <time>2013-09-20T16:02:49Z</time>
      </trkpt>
      <trkpt lat="44.22921" lon="6.99053">
        <ele>1998</ele>
        <time>2013-09-20T16:02:58Z</time>
      </trkpt>
      <trkpt lat="44.22927" lon="6.99014">
        <ele>1995</ele>
        <time>2013-09-20T16:03:10Z</time>
      </trkpt>
      <trkpt lat="44.22933" lon="6.98979">
        <ele>1992</ele>
        <time>2013-09-20T16:03:20Z</time>
      </trkpt>
      <trkpt lat="44.22936" lon="6.98942">
        <ele>1989</ele>
        <time>2013-09-20T16:03:30Z</time>
      </trkpt>
      <trkpt lat="44.22934" lon="6.98912">
        <ele>1986</ele>
        <time>2013-09-20T16:03:38Z</time>
      </trkpt>
      <trkpt lat="44.22927" lon="6.98867">
        <ele>1983</ele>
        <time>2013-09-20T16:03:46Z</time>
      </trkpt>
      <trkpt lat="44.22918" lon="6.98833">
        <ele>1981</ele>
        <time>2013-09-20T16:03:54Z</time>
      </trkpt>
      <trkpt lat="44.22919" lon="6.98823">
        <ele>1980</ele>
        <time>2013-09-20T16:03:57Z</time>
      </trkpt>
      <trkpt lat="44.22923" lon="6.98802">
        <ele>1977</ele>
        <time>2013-09-20T16:04:04Z</time>
      </trkpt>
      <trkpt lat="44.22921" lon="6.98791">
        <ele>1975</ele>
        <time>2013-09-20T16:04:09Z</time>
      </trkpt>
      <trkpt lat="44.22922" lon="6.98791">
        <ele>1967</ele>
        <time>2013-09-20T16:04:36Z</time>
      </trkpt>
      <trkpt lat="44.22929" lon="6.98784">
        <ele>1954</ele>
        <time>2013-09-20T16:05:32Z</time>
      </trkpt>
      <trkpt lat="44.22937" lon="6.98773">
        <ele>1953</ele>
        <time>2013-09-20T16:05:37Z</time>
      </trkpt>
      <trkpt lat="44.2295" lon="6.98764">
        <ele>1951</ele>
        <time>2013-09-20T16:05:44Z</time>
      </trkpt>
      <trkpt lat="44.2296" lon="6.98749">
        <ele>1949</ele>
        <time>2013-09-20T16:05:49Z</time>
      </trkpt>
      <trkpt lat="44.22969" lon="6.98738">
        <ele>1948</ele>
        <time>2013-09-20T16:05:54Z</time>
      </trkpt>
      <trkpt lat="44.22976" lon="6.98734">
        <ele>1947</ele>
        <time>2013-09-20T16:05:57Z</time>
      </trkpt>
      <trkpt lat="44.2299" lon="6.98724">
        <ele>1944</ele>
        <time>2013-09-20T16:06:05Z</time>
      </trkpt>
      <trkpt lat="44.22991" lon="6.98718">
        <ele>1943</ele>
        <time>2013-09-20T16:06:09Z</time>
      </trkpt>
      <trkpt lat="44.22997" lon="6.98713">
        <ele>1939</ele>
        <time>2013-09-20T16:06:20Z</time>
      </trkpt>
      <trkpt lat="44.22999" lon="6.98706">
        <ele>1938</ele>
        <time>2013-09-20T16:06:24Z</time>
      </trkpt>
      <trkpt lat="44.23008" lon="6.98699">
        <ele>1936</ele>
        <time>2013-09-20T16:06:29Z</time>
      </trkpt>
      <trkpt lat="44.2301" lon="6.98697">
        <ele>1935</ele>
        <time>2013-09-20T16:06:32Z</time>
      </trkpt>
      <trkpt lat="44.23021" lon="6.98693">
        <ele>1933</ele>
        <time>2013-09-20T16:06:38Z</time>
      </trkpt>
      <trkpt lat="44.23027" lon="6.9869">
        <ele>1930</ele>
        <time>2013-09-20T16:06:46Z</time>
      </trkpt>
      <trkpt lat="44.23033" lon="6.98691">
        <ele>1927</ele>
        <time>2013-09-20T16:06:59Z</time>
      </trkpt>
      <trkpt lat="44.23038" lon="6.98674">
        <ele>1924</ele>
        <time>2013-09-20T16:07:09Z</time>
      </trkpt>
      <trkpt lat="44.23042" lon="6.98635">
        <ele>1921</ele>
        <time>2013-09-20T16:07:20Z</time>
      </trkpt>
      <trkpt lat="44.23039" lon="6.98591">
        <ele>1919</ele>
        <time>2013-09-20T16:07:33Z</time>
      </trkpt>
      <trkpt lat="44.23035" lon="6.98547">
        <ele>1916</ele>
        <time>2013-09-20T16:07:45Z</time>
      </trkpt>
      <trkpt lat="44.23035" lon="6.9854">
        <ele>1916</ele>
        <time>2013-09-20T16:07:48Z</time>
      </trkpt>
      <trkpt lat="44.23037" lon="6.98537">
        <ele>1907</ele>
        <time>2013-09-20T16:08:58Z</time>
      </trkpt>
      <trkpt lat="44.23051" lon="6.98509">
        <ele>1905</ele>
        <time>2013-09-20T16:09:08Z</time>
      </trkpt>
      <trkpt lat="44.23058" lon="6.98496">
        <ele>1904</ele>
        <time>2013-09-20T16:09:13Z</time>
      </trkpt>
      <trkpt lat="44.23077" lon="6.98455">
        <ele>1903</ele>
        <time>2013-09-20T16:09:22Z</time>
      </trkpt>
      <trkpt lat="44.23083" lon="6.98448">
        <ele>1902</ele>
        <time>2013-09-20T16:09:25Z</time>
      </trkpt>
      <trkpt lat="44.2308" lon="6.98435">
        <ele>1901</ele>
        <time>2013-09-20T16:09:30Z</time>
      </trkpt>
      <trkpt lat="44.23071" lon="6.98393">
        <ele>1899</ele>
        <time>2013-09-20T16:09:39Z</time>
      </trkpt>
      <trkpt lat="44.23068" lon="6.98362">
        <ele>1898</ele>
        <time>2013-09-20T16:09:44Z</time>
      </trkpt>
      <trkpt lat="44.23069" lon="6.98338">
        <ele>1896</ele>
        <time>2013-09-20T16:09:50Z</time>
      </trkpt>
      <trkpt lat="44.23073" lon="6.98324">
        <ele>1895</ele>
        <time>2013-09-20T16:09:55Z</time>
      </trkpt>
      <trkpt lat="44.23072" lon="6.98316">
        <ele>1894</ele>
        <time>2013-09-20T16:09:59Z</time>
      </trkpt>
      <trkpt lat="44.23071" lon="6.98312">
        <ele>1892</ele>
        <time>2013-09-20T16:10:05Z</time>
      </trkpt>
      <trkpt lat="44.23063" lon="6.98283">
        <ele>1889</ele>
        <time>2013-09-20T16:10:16Z</time>
      </trkpt>
      <trkpt lat="44.23054" lon="6.98246">
        <ele>1886</ele>
        <time>2013-09-20T16:10:26Z</time>
      </trkpt>
      <trkpt lat="44.23041" lon="6.98203">
        <ele>1883</ele>
        <time>2013-09-20T16:10:35Z</time>
      </trkpt>
      <trkpt lat="44.23025" lon="6.98168">
        <ele>1880</ele>
        <time>2013-09-20T16:10:42Z</time>
      </trkpt>
      <trkpt lat="44.2302" lon="6.98153">
        <ele>1879</ele>
        <time>2013-09-20T16:10:45Z</time>
      </trkpt>
      <trkpt lat="44.23008" lon="6.9813">
        <ele>1876</ele>
        <time>2013-09-20T16:10:51Z</time>
      </trkpt>
      <trkpt lat="44.23003" lon="6.98108">
        <ele>1874</ele>
        <time>2013-09-20T16:10:57Z</time>
      </trkpt>
      <trkpt lat="44.23001" lon="6.98073">
        <ele>1869</ele>
        <time>2013-09-20T16:11:06Z</time>
      </trkpt>
      <trkpt lat="44.22998" lon="6.98057">
        <ele>1867</ele>
        <time>2013-09-20T16:11:11Z</time>
      </trkpt>
      <trkpt lat="44.22997" lon="6.98052">
        <ele>1866</ele>
        <time>2013-09-20T16:11:14Z</time>
      </trkpt>
      <trkpt lat="44.22996" lon="6.98039">
        <ele>1855</ele>
        <time>2013-09-20T16:11:37Z</time>
      </trkpt>
      <trkpt lat="44.22992" lon="6.98025">
        <ele>1853</ele>
        <time>2013-09-20T16:11:42Z</time>
      </trkpt>
      <trkpt lat="44.2299" lon="6.98003">
        <ele>1849</ele>
        <time>2013-09-20T16:11:49Z</time>
      </trkpt>
      <trkpt lat="44.2298" lon="6.98007">
        <ele>1846</ele>
        <time>2013-09-20T16:11:56Z</time>
      </trkpt>
      <trkpt lat="44.22971" lon="6.97997">
        <ele>1843</ele>
        <time>2013-09-20T16:12:03Z</time>
      </trkpt>
      <trkpt lat="44.22968" lon="6.97974">
        <ele>1839</ele>
        <time>2013-09-20T16:12:10Z</time>
      </trkpt>
      <trkpt lat="44.22968" lon="6.97945">
        <ele>1834</ele>
        <time>2013-09-20T16:12:19Z</time>
      </trkpt>
      <trkpt lat="44.22957" lon="6.97949">
        <ele>1831</ele>
        <time>2013-09-20T16:12:25Z</time>
      </trkpt>
      <trkpt lat="44.22959" lon="6.97939">
        <ele>1829</ele>
        <time>2013-09-20T16:12:29Z</time>
      </trkpt>
      <trkpt lat="44.22958" lon="6.97931">
        <ele>1827</ele>
        <time>2013-09-20T16:12:34Z</time>
      </trkpt>
      <trkpt lat="44.22951" lon="6.97928">
        <ele>1825</ele>
        <time>2013-09-20T16:12:38Z</time>
      </trkpt>
      <trkpt lat="44.22943" lon="6.97931">
        <ele>1822</ele>
        <time>2013-09-20T16:12:42Z</time>
      </trkpt>
      <trkpt lat="44.22932" lon="6.97937">
        <ele>1820</ele>
        <time>2013-09-20T16:12:47Z</time>
      </trkpt>
      <trkpt lat="44.22931" lon="6.97937">
        <ele>1817</ele>
        <time>2013-09-20T16:12:53Z</time>
      </trkpt>
      <trkpt lat="44.22927" lon="6.97935">
        <ele>1811</ele>
        <time>2013-09-20T16:13:05Z</time>
      </trkpt>
      <trkpt lat="44.22937" lon="6.97904">
        <ele>1807</ele>
        <time>2013-09-20T16:13:14Z</time>
      </trkpt>
      <trkpt lat="44.22937" lon="6.979">
        <ele>1802</ele>
        <time>2013-09-20T16:13:23Z</time>
      </trkpt>
      <trkpt lat="44.22929" lon="6.979">
        <ele>1800</ele>
        <time>2013-09-20T16:13:28Z</time>
      </trkpt>
      <trkpt lat="44.22905" lon="6.97888">
        <ele>1795</ele>
        <time>2013-09-20T16:13:38Z</time>
      </trkpt>
      <trkpt lat="44.22893" lon="6.97878">
        <ele>1793</ele>
        <time>2013-09-20T16:13:43Z</time>
      </trkpt>
      <trkpt lat="44.22884" lon="6.9786">
        <ele>1790</ele>
        <time>2013-09-20T16:13:49Z</time>
      </trkpt>
      <trkpt lat="44.22876" lon="6.97854">
        <ele>1787</ele>
        <time>2013-09-20T16:13:54Z</time>
      </trkpt>
      <trkpt lat="44.22867" lon="6.97851">
        <ele>1784</ele>
        <time>2013-09-20T16:14:00Z</time>
      </trkpt>
      <trkpt lat="44.2286" lon="6.97849">
        <ele>1781</ele>
        <time>2013-09-20T16:14:06Z</time>
      </trkpt>
      <trkpt lat="44.22869" lon="6.9783">
        <ele>1777</ele>
        <time>2013-09-20T16:14:14Z</time>
      </trkpt>
      <trkpt lat="44.22862" lon="6.97814">
        <ele>1772</ele>
        <time>2013-09-20T16:14:22Z</time>
      </trkpt>
      <trkpt lat="44.22854" lon="6.97803">
        <ele>1770</ele>
        <time>2013-09-20T16:14:27Z</time>
      </trkpt>
      <trkpt lat="44.2285" lon="6.97792">
        <ele>1768</ele>
        <time>2013-09-20T16:14:31Z</time>
      </trkpt>
      <trkpt lat="44.22852" lon="6.97778">
        <ele>1763</ele>
        <time>2013-09-20T16:14:39Z</time>
      </trkpt>
      <trkpt lat="44.22856" lon="6.97768">
        <ele>1759</ele>
        <time>2013-09-20T16:14:49Z</time>
      </trkpt>
      <trkpt lat="44.22841" lon="6.97753">
        <ele>1753</ele>
        <time>2013-09-20T16:15:00Z</time>
      </trkpt>
      <trkpt lat="44.22836" lon="6.97743">
        <ele>1736</ele>
        <time>2013-09-20T16:15:37Z</time>
      </trkpt>
      <trkpt lat="44.22827" lon="6.97734">
        <ele>1734</ele>
        <time>2013-09-20T16:15:42Z</time>
      </trkpt>
      <trkpt lat="44.22818" lon="6.97724">
        <ele>1732</ele>
        <time>2013-09-20T16:15:47Z</time>
      </trkpt>
      <trkpt lat="44.22812" lon="6.97718">
        <ele>1730</ele>
        <time>2013-09-20T16:15:51Z</time>
      </trkpt>
      <trkpt lat="44.22803" lon="6.97711">
        <ele>1728</ele>
        <time>2013-09-20T16:15:56Z</time>
      </trkpt>
      <trkpt lat="44.22782" lon="6.97709">
        <ele>1724</ele>
        <time>2013-09-20T16:16:05Z</time>
      </trkpt>
      <trkpt lat="44.22755" lon="6.9771">
        <ele>1719</ele>
        <time>2013-09-20T16:16:15Z</time>
      </trkpt>
      <trkpt lat="44.22745" lon="6.97711">
        <ele>1717</ele>
        <time>2013-09-20T16:16:19Z</time>
      </trkpt>
      <trkpt lat="44.22728" lon="6.97721">
        <ele>1715</ele>
        <time>2013-09-20T16:16:25Z</time>
      </trkpt>
      <trkpt lat="44.22709" lon="6.97731">
        <ele>1711</ele>
        <time>2013-09-20T16:16:32Z</time>
      </trkpt>
      <trkpt lat="44.22699" lon="6.97739">
        <ele>1708</ele>
        <time>2013-09-20T16:16:38Z</time>
      </trkpt>
      <trkpt lat="44.22694" lon="6.97737">
        <ele>1704</ele>
        <time>2013-09-20T16:16:46Z</time>
      </trkpt>
      <trkpt lat="44.22693" lon="6.97736">
        <ele>1698</ele>
        <time>2013-09-20T16:17:00Z</time>
      </trkpt>
      <trkpt lat="44.22694" lon="6.97727">
        <ele>1674</ele>
        <time>2013-09-20T16:18:12Z</time>
      </trkpt>
      <trkpt lat="44.22698" lon="6.97714">
        <ele>1673</ele>
        <time>2013-09-20T16:18:16Z</time>
      </trkpt>
      <trkpt lat="44.22698" lon="6.9769">
        <ele>1671</ele>
        <time>2013-09-20T16:18:24Z</time>
      </trkpt>
      <trkpt lat="44.22697" lon="6.97674">
        <ele>1669</ele>
        <time>2013-09-20T16:18:30Z</time>
      </trkpt>
      <trkpt lat="44.22695" lon="6.97675">
        <ele>1667</ele>
        <time>2013-09-20T16:18:38Z</time>
      </trkpt>
      <trkpt lat="44.22683" lon="6.97692">
        <ele>1664</ele>
        <time>2013-09-20T16:18:46Z</time>
      </trkpt>
      <trkpt lat="44.22664" lon="6.97714">
        <ele>1662</ele>
        <time>2013-09-20T16:18:54Z</time>
      </trkpt>
      <trkpt lat="44.22646" lon="6.97738">
        <ele>1660</ele>
        <time>2013-09-20T16:19:02Z</time>
      </trkpt>
      <trkpt lat="44.22639" lon="6.97742">
        <ele>1658</ele>
        <time>2013-09-20T16:19:06Z</time>
      </trkpt>
      <trkpt lat="44.22636" lon="6.97742">
        <ele>1658</ele>
        <time>2013-09-20T16:19:08Z</time>
      </trkpt>
      <trkpt lat="44.22617" lon="6.97753">
        <ele>1654</ele>
        <time>2013-09-20T16:19:18Z</time>
      </trkpt>
      <trkpt lat="44.2261" lon="6.97765">
        <ele>1652</ele>
        <time>2013-09-20T16:19:24Z</time>
      </trkpt>
      <trkpt lat="44.22599" lon="6.97756">
        <ele>1649</ele>
        <time>2013-09-20T16:19:31Z</time>
      </trkpt>
      <trkpt lat="44.22589" lon="6.97752">
        <ele>1646</ele>
        <time>2013-09-20T16:19:38Z</time>
      </trkpt>
      <trkpt lat="44.22586" lon="6.97758">
        <ele>1644</ele>
        <time>2013-09-20T16:19:43Z</time>
      </trkpt>
      <trkpt lat="44.22584" lon="6.97756">
        <ele>1637</ele>
        <time>2013-09-20T16:20:03Z</time>
      </trkpt>
      <trkpt lat="44.22582" lon="6.97743">
        <ele>1635</ele>
        <time>2013-09-20T16:20:09Z</time>
      </trkpt>
      <trkpt lat="44.22577" lon="6.97742">
        <ele>1634</ele>
        <time>2013-09-20T16:20:13Z</time>
      </trkpt>
      <trkpt lat="44.2257" lon="6.97749">
        <ele>1632</ele>
        <time>2013-09-20T16:20:17Z</time>
      </trkpt>
      <trkpt lat="44.2256" lon="6.97735">
        <ele>1629</ele>
        <time>2013-09-20T16:20:24Z</time>
      </trkpt>
      <trkpt lat="44.22551" lon="6.97729">
        <ele>1627</ele>
        <time>2013-09-20T16:20:29Z</time>
      </trkpt>
      <trkpt lat="44.22536" lon="6.97707">
        <ele>1624</ele>
        <time>2013-09-20T16:20:37Z</time>
      </trkpt>
      <trkpt lat="44.2253" lon="6.97692">
        <ele>1622</ele>
        <time>2013-09-20T16:20:42Z</time>
      </trkpt>
      <trkpt lat="44.22527" lon="6.97685">
        <ele>1620</ele>
        <time>2013-09-20T16:20:47Z</time>
      </trkpt>
      <trkpt lat="44.22522" lon="6.97683">
        <ele>1617</ele>
        <time>2013-09-20T16:20:52Z</time>
      </trkpt>
      <trkpt lat="44.22511" lon="6.97703">
        <ele>1615</ele>
        <time>2013-09-20T16:20:58Z</time>
      </trkpt>
      <trkpt lat="44.22496" lon="6.97699">
        <ele>1612</ele>
        <time>2013-09-20T16:21:03Z</time>
      </trkpt>
      <trkpt lat="44.22494" lon="6.97691">
        <ele>1611</ele>
        <time>2013-09-20T16:21:06Z</time>
      </trkpt>
      <trkpt lat="44.22499" lon="6.97679">
        <ele>1609</ele>
        <time>2013-09-20T16:21:10Z</time>
      </trkpt>
      <trkpt lat="44.22501" lon="6.97666">
        <ele>1607</ele>
        <time>2013-09-20T16:21:14Z</time>
      </trkpt>
      <trkpt lat="44.22501" lon="6.97631">
        <ele>1602</ele>
        <time>2013-09-20T16:21:24Z</time>
      </trkpt>
      <trkpt lat="44.22501" lon="6.97626">
        <ele>1600</ele>
        <time>2013-09-20T16:21:28Z</time>
      </trkpt>
      <trkpt lat="44.22498" lon="6.97622">
        <ele>1597</ele>
        <time>2013-09-20T16:21:33Z</time>
      </trkpt>
      <trkpt lat="44.22491" lon="6.97599">
        <ele>1593</ele>
        <time>2013-09-20T16:21:41Z</time>
      </trkpt>
      <trkpt lat="44.22486" lon="6.9758">
        <ele>1590</ele>
        <time>2013-09-20T16:21:46Z</time>
      </trkpt>
      <trkpt lat="44.22472" lon="6.97546">
        <ele>1585</ele>
        <time>2013-09-20T16:21:56Z</time>
      </trkpt>
      <trkpt lat="44.22466" lon="6.97531">
        <ele>1580</ele>
        <time>2013-09-20T16:22:04Z</time>
      </trkpt>
      <trkpt lat="44.22459" lon="6.97514">
        <ele>1577</ele>
        <time>2013-09-20T16:22:10Z</time>
      </trkpt>
      <trkpt lat="44.22454" lon="6.97511">
        <ele>1574</ele>
        <time>2013-09-20T16:22:16Z</time>
      </trkpt>
      <trkpt lat="44.22439" lon="6.97502">
        <ele>1570</ele>
        <time>2013-09-20T16:22:23Z</time>
      </trkpt>
      <trkpt lat="44.22427" lon="6.97516">
        <ele>1566</ele>
        <time>2013-09-20T16:22:30Z</time>
      </trkpt>
      <trkpt lat="44.2242" lon="6.97514">
        <ele>1562</ele>
        <time>2013-09-20T16:22:36Z</time>
      </trkpt>
      <trkpt lat="44.22414" lon="6.97497">
        <ele>1559</ele>
        <time>2013-09-20T16:22:41Z</time>
      </trkpt>
      <trkpt lat="44.22408" lon="6.97487">
        <ele>1554</ele>
        <time>2013-09-20T16:22:50Z</time>
      </trkpt>
      <trkpt lat="44.22404" lon="6.97477">
        <ele>1491</ele>
        <time>2013-09-20T16:29:14Z</time>
      </trkpt>
      <trkpt lat="44.22395" lon="6.97448">
        <ele>1490</ele>
        <time>2013-09-20T16:29:24Z</time>
      </trkpt>
      <trkpt lat="44.2239" lon="6.97455">
        <ele>1490</ele>
        <time>2013-09-20T16:29:29Z</time>
      </trkpt>
      <trkpt lat="44.22385" lon="6.97453">
        <ele>1489</ele>
        <time>2013-09-20T16:29:33Z</time>
      </trkpt>
      <trkpt lat="44.2238" lon="6.97447">
        <ele>1488</ele>
        <time>2013-09-20T16:29:43Z</time>
      </trkpt>
      <trkpt lat="44.22379" lon="6.9745">
        <ele>1487</ele>
        <time>2013-09-20T16:29:55Z</time>
      </trkpt>
      <trkpt lat="44.22368" lon="6.97447">
        <ele>1486</ele>
        <time>2013-09-20T16:30:02Z</time>
      </trkpt>
      <trkpt lat="44.22368" lon="6.97442">
        <ele>1485</ele>
        <time>2013-09-20T16:30:06Z</time>
      </trkpt>
      <trkpt lat="44.22361" lon="6.9745">
        <ele>1485</ele>
        <time>2013-09-20T16:30:11Z</time>
      </trkpt>
      <trkpt lat="44.22354" lon="6.97465">
        <ele>1484</ele>
        <time>2013-09-20T16:30:16Z</time>
      </trkpt>
      <trkpt lat="44.22352" lon="6.97475">
        <ele>1483</ele>
        <time>2013-09-20T16:30:19Z</time>
      </trkpt>
      <trkpt lat="44.22332" lon="6.97467">
        <ele>1482</ele>
        <time>2013-09-20T16:30:25Z</time>
      </trkpt>
      <trkpt lat="44.22327" lon="6.9745">
        <ele>1480</ele>
        <time>2013-09-20T16:30:31Z</time>
      </trkpt>
      <trkpt lat="44.22326" lon="6.97441">
        <ele>1475</ele>
        <time>2013-09-20T16:30:56Z</time>
      </trkpt>
      <trkpt lat="44.22342" lon="6.97392">
        <ele>1473</ele>
        <time>2013-09-20T16:31:05Z</time>
      </trkpt>
      <trkpt lat="44.22355" lon="6.97363">
        <ele>1472</ele>
        <time>2013-09-20T16:31:11Z</time>
      </trkpt>
      <trkpt lat="44.2236" lon="6.97357">
        <ele>1471</ele>
        <time>2013-09-20T16:31:14Z</time>
      </trkpt>
      <trkpt lat="44.22362" lon="6.97354">
        <ele>1470</ele>
        <time>2013-09-20T16:31:19Z</time>
      </trkpt>
      <trkpt lat="44.22365" lon="6.97347">
        <ele>1468</ele>
        <time>2013-09-20T16:31:31Z</time>
      </trkpt>
      <trkpt lat="44.22385" lon="6.97319">
        <ele>1466</ele>
        <time>2013-09-20T16:31:43Z</time>
      </trkpt>
      <trkpt lat="44.22409" lon="6.97272">
        <ele>1463</ele>
        <time>2013-09-20T16:31:55Z</time>
      </trkpt>
      <trkpt lat="44.22432" lon="6.97244">
        <ele>1462</ele>
        <time>2013-09-20T16:32:03Z</time>
      </trkpt>
      <trkpt lat="44.22449" lon="6.97222">
        <ele>1460</ele>
        <time>2013-09-20T16:32:10Z</time>
      </trkpt>
      <trkpt lat="44.2249" lon="6.97167">
        <ele>1458</ele>
        <time>2013-09-20T16:32:20Z</time>
      </trkpt>
      <trkpt lat="44.22512" lon="6.97134">
        <ele>1457</ele>
        <time>2013-09-20T16:32:26Z</time>
      </trkpt>
      <trkpt lat="44.22527" lon="6.97117">
        <ele>1456</ele>
        <time>2013-09-20T16:32:29Z</time>
      </trkpt>
      <trkpt lat="44.2256" lon="6.97092">
        <ele>1454</ele>
        <time>2013-09-20T16:32:34Z</time>
      </trkpt>
      <trkpt lat="44.22586" lon="6.97072">
        <ele>1453</ele>
        <time>2013-09-20T16:32:38Z</time>
      </trkpt>
      <trkpt lat="44.22672" lon="6.97026">
        <ele>1449</ele>
        <time>2013-09-20T16:32:49Z</time>
      </trkpt>
      <trkpt lat="44.22723" lon="6.96995">
        <ele>1447</ele>
        <time>2013-09-20T16:32:56Z</time>
      </trkpt>
      <trkpt lat="44.22745" lon="6.96976">
        <ele>1445</ele>
        <time>2013-09-20T16:33:00Z</time>
      </trkpt>
      <trkpt lat="44.22755" lon="6.96969">
        <ele>1444</ele>
        <time>2013-09-20T16:33:03Z</time>
      </trkpt>
      <trkpt lat="44.22756" lon="6.96962">
        <ele>1442</ele>
        <time>2013-09-20T16:33:08Z</time>
      </trkpt>
      <trkpt lat="44.22758" lon="6.96967">
        <ele>1421</ele>
        <time>2013-09-20T16:34:38Z</time>
      </trkpt>
      <trkpt lat="44.22747" lon="6.96968">
        <ele>1410</ele>
        <time>2013-09-20T16:37:30Z</time>
      </trkpt>
      <trkpt lat="44.22698" lon="6.96979">
        <ele>1410</ele>
        <time>2013-09-20T16:37:38Z</time>
      </trkpt>
      <trkpt lat="44.22673" lon="6.96987">
        <ele>1409</ele>
        <time>2013-09-20T16:37:42Z</time>
      </trkpt>
      <trkpt lat="44.22649" lon="6.96997">
        <ele>1409</ele>
        <time>2013-09-20T16:37:46Z</time>
      </trkpt>
      <trkpt lat="44.22618" lon="6.96991">
        <ele>1408</ele>
        <time>2013-09-20T16:37:50Z</time>
      </trkpt>
      <trkpt lat="44.22554" lon="6.96991">
        <ele>1407</ele>
        <time>2013-09-20T16:37:58Z</time>
      </trkpt>
      <trkpt lat="44.2251" lon="6.96989">
        <ele>1405</ele>
        <time>2013-09-20T16:38:05Z</time>
      </trkpt>
      <trkpt lat="44.22473" lon="6.97006">
        <ele>1404</ele>
        <time>2013-09-20T16:38:10Z</time>
      </trkpt>
      <trkpt lat="44.22431" lon="6.97022">
        <ele>1403</ele>
        <time>2013-09-20T16:38:15Z</time>
      </trkpt>
      <trkpt lat="44.22393" lon="6.97036">
        <ele>1402</ele>
        <time>2013-09-20T16:38:20Z</time>
      </trkpt>
      <trkpt lat="44.22316" lon="6.97099">
        <ele>1398</ele>
        <time>2013-09-20T16:38:31Z</time>
      </trkpt>
      <trkpt lat="44.22263" lon="6.97138">
        <ele>1396</ele>
        <time>2013-09-20T16:38:38Z</time>
      </trkpt>
      <trkpt lat="44.22206" lon="6.97172">
        <ele>1393</ele>
        <time>2013-09-20T16:38:45Z</time>
      </trkpt>
      <trkpt lat="44.22182" lon="6.97192">
        <ele>1391</ele>
        <time>2013-09-20T16:38:49Z</time>
      </trkpt>
      <trkpt lat="44.22181" lon="6.97197">
        <ele>1386</ele>
        <time>2013-09-20T16:39:03Z</time>
      </trkpt>
      <trkpt lat="44.22178" lon="6.97189">
        <ele>1380</ele>
        <time>2013-09-20T16:39:19Z</time>
      </trkpt>
      <trkpt lat="44.22164" lon="6.9716">
        <ele>1378</ele>
        <time>2013-09-20T16:39:25Z</time>
      </trkpt>
      <trkpt lat="44.22167" lon="6.97143">
        <ele>1376</ele>
        <time>2013-09-20T16:39:30Z</time>
      </trkpt>
      <trkpt lat="44.22169" lon="6.97117">
        <ele>1373</ele>
        <time>2013-09-20T16:39:38Z</time>
      </trkpt>
      <trkpt lat="44.22146" lon="6.97122">
        <ele>1370</ele>
        <time>2013-09-20T16:39:45Z</time>
      </trkpt>
      <trkpt lat="44.22107" lon="6.97134">
        <ele>1366</ele>
        <time>2013-09-20T16:39:54Z</time>
      </trkpt>
      <trkpt lat="44.22094" lon="6.97133">
        <ele>1364</ele>
        <time>2013-09-20T16:39:58Z</time>
      </trkpt>
      <trkpt lat="44.22101" lon="6.97094">
        <ele>1361</ele>
        <time>2013-09-20T16:40:04Z</time>
      </trkpt>
      <trkpt lat="44.22107" lon="6.97077">
        <ele>1360</ele>
        <time>2013-09-20T16:40:07Z</time>
      </trkpt>
      <trkpt lat="44.22118" lon="6.97056">
        <ele>1356</ele>
        <time>2013-09-20T16:40:13Z</time>
      </trkpt>
      <trkpt lat="44.22119" lon="6.97054">
        <ele>1352</ele>
        <time>2013-09-20T16:40:22Z</time>
      </trkpt>
      <trkpt lat="44.22124" lon="6.9705">
        <ele>1340</ele>
        <time>2013-09-20T16:40:46Z</time>
      </trkpt>
      <trkpt lat="44.22153" lon="6.97012">
        <ele>1337</ele>
        <time>2013-09-20T16:40:53Z</time>
      </trkpt>
      <trkpt lat="44.22181" lon="6.96979">
        <ele>1335</ele>
        <time>2013-09-20T16:40:57Z</time>
      </trkpt>
      <trkpt lat="44.22193" lon="6.96948">
        <ele>1334</ele>
        <time>2013-09-20T16:41:00Z</time>
      </trkpt>
      <trkpt lat="44.22209" lon="6.96901">
        <ele>1332</ele>
        <time>2013-09-20T16:41:04Z</time>
      </trkpt>
      <trkpt lat="44.2226" lon="6.96838">
        <ele>1328</ele>
        <time>2013-09-20T16:41:11Z</time>
      </trkpt>
      <trkpt lat="44.22291" lon="6.96796">
        <ele>1326</ele>
        <time>2013-09-20T16:41:15Z</time>
      </trkpt>
      <trkpt lat="44.22332" lon="6.96767">
        <ele>1323</ele>
        <time>2013-09-20T16:41:19Z</time>
      </trkpt>
      <trkpt lat="44.22409" lon="6.96711">
        <ele>1318</ele>
        <time>2013-09-20T16:41:27Z</time>
      </trkpt>
      <trkpt lat="44.22424" lon="6.96698">
        <ele>1316</ele>
        <time>2013-09-20T16:41:31Z</time>
      </trkpt>
      <trkpt lat="44.22435" lon="6.96688">
        <ele>1312</ele>
        <time>2013-09-20T16:41:37Z</time>
      </trkpt>
      <trkpt lat="44.22434" lon="6.96685">
        <ele>1310</ele>
        <time>2013-09-20T16:41:41Z</time>
      </trkpt>
      <trkpt lat="44.2243" lon="6.9669">
        <ele>1303</ele>
        <time>2013-09-20T16:41:53Z</time>
      </trkpt>
      <trkpt lat="44.2243" lon="6.96687">
        <ele>1297</ele>
        <time>2013-09-20T16:42:05Z</time>
      </trkpt>
      <trkpt lat="44.22449" lon="6.96664">
        <ele>1293</ele>
        <time>2013-09-20T16:42:13Z</time>
      </trkpt>
      <trkpt lat="44.22474" lon="6.96649">
        <ele>1290</ele>
        <time>2013-09-20T16:42:20Z</time>
      </trkpt>
      <trkpt lat="44.22487" lon="6.96637">
        <ele>1287</ele>
        <time>2013-09-20T16:42:25Z</time>
      </trkpt>
      <trkpt lat="44.22494" lon="6.96625">
        <ele>1285</ele>
        <time>2013-09-20T16:42:28Z</time>
      </trkpt>
      <trkpt lat="44.2252" lon="6.96601">
        <ele>1282</ele>
        <time>2013-09-20T16:42:35Z</time>
      </trkpt>
      <trkpt lat="44.22532" lon="6.96587">
        <ele>1279</ele>
        <time>2013-09-20T16:42:39Z</time>
      </trkpt>
      <trkpt lat="44.22548" lon="6.96576">
        <ele>1277</ele>
        <time>2013-09-20T16:42:43Z</time>
      </trkpt>
      <trkpt lat="44.22564" lon="6.96561">
        <ele>1274</ele>
        <time>2013-09-20T16:42:49Z</time>
      </trkpt>
      <trkpt lat="44.22574" lon="6.96553">
        <ele>1272</ele>
        <time>2013-09-20T16:42:52Z</time>
      </trkpt>
      <trkpt lat="44.22589" lon="6.96535">
        <ele>1270</ele>
        <time>2013-09-20T16:42:56Z</time>
      </trkpt>
      <trkpt lat="44.22596" lon="6.96527">
        <ele>1268</ele>
        <time>2013-09-20T16:42:59Z</time>
      </trkpt>
      <trkpt lat="44.22626" lon="6.96502">
        <ele>1263</ele>
        <time>2013-09-20T16:43:08Z</time>
      </trkpt>
      <trkpt lat="44.22644" lon="6.96481">
        <ele>1258</ele>
        <time>2013-09-20T16:43:16Z</time>
      </trkpt>
      <trkpt lat="44.2264" lon="6.96481">
        <ele>1254</ele>
        <time>2013-09-20T16:43:24Z</time>
      </trkpt>
      <trkpt lat="44.22644" lon="6.96482">
        <ele>1242</ele>
        <time>2013-09-20T16:43:49Z</time>
      </trkpt>
      <trkpt lat="44.22656" lon="6.96465">
        <ele>1234</ele>
        <time>2013-09-20T16:44:08Z</time>
      </trkpt>
      <trkpt lat="44.22672" lon="6.96454">
        <ele>1232</ele>
        <time>2013-09-20T16:44:13Z</time>
      </trkpt>
      <trkpt lat="44.22678" lon="6.96452">
        <ele>1230</ele>
        <time>2013-09-20T16:44:17Z</time>
      </trkpt>
      <trkpt lat="44.22681" lon="6.96453">
        <ele>1226</ele>
        <time>2013-09-20T16:44:30Z</time>
      </trkpt>
      <trkpt lat="44.22676" lon="6.96448">
        <ele>1223</ele>
        <time>2013-09-20T16:44:38Z</time>
      </trkpt>
      <trkpt lat="44.22662" lon="6.96436">
        <ele>1220</ele>
        <time>2013-09-20T16:44:45Z</time>
      </trkpt>
      <trkpt lat="44.22648" lon="6.96429">
        <ele>1218</ele>
        <time>2013-09-20T16:44:50Z</time>
      </trkpt>
      <trkpt lat="44.22639" lon="6.96437">
        <ele>1215</ele>
        <time>2013-09-20T16:44:58Z</time>
      </trkpt>
      <trkpt lat="44.22623" lon="6.96444">
        <ele>1213</ele>
        <time>2013-09-20T16:45:04Z</time>
      </trkpt>
      <trkpt lat="44.22604" lon="6.9645">
        <ele>1209</ele>
        <time>2013-09-20T16:45:13Z</time>
      </trkpt>
      <trkpt lat="44.22607" lon="6.96448">
        <ele>1203</ele>
        <time>2013-09-20T16:45:26Z</time>
      </trkpt>
      <trkpt lat="44.22604" lon="6.96449">
        <ele>1199</ele>
        <time>2013-09-20T16:45:36Z</time>
      </trkpt>
      <trkpt lat="44.22601" lon="6.96445">
        <ele>1195</ele>
        <time>2013-09-20T16:45:45Z</time>
      </trkpt>
      <trkpt lat="44.22598" lon="6.96436">
        <ele>1193</ele>
        <time>2013-09-20T16:45:51Z</time>
      </trkpt>
      <trkpt lat="44.2261" lon="6.96419">
        <ele>1190</ele>
        <time>2013-09-20T16:45:58Z</time>
      </trkpt>
      <trkpt lat="44.2261" lon="6.96416">
        <ele>1189</ele>
        <time>2013-09-20T16:46:00Z</time>
      </trkpt>
      <trkpt lat="44.22618" lon="6.96397">
        <ele>1186</ele>
        <time>2013-09-20T16:46:06Z</time>
      </trkpt>
      <trkpt lat="44.22638" lon="6.96358">
        <ele>1181</ele>
        <time>2013-09-20T16:46:16Z</time>
      </trkpt>
      <trkpt lat="44.22649" lon="6.96354">
        <ele>1179</ele>
        <time>2013-09-20T16:46:20Z</time>
      </trkpt>
      <trkpt lat="44.22663" lon="6.9635">
        <ele>1177</ele>
        <time>2013-09-20T16:46:24Z</time>
      </trkpt>
      <trkpt lat="44.22668" lon="6.96341">
        <ele>1175</ele>
        <time>2013-09-20T16:46:27Z</time>
      </trkpt>
      <trkpt lat="44.22668" lon="6.96326">
        <ele>1174</ele>
        <time>2013-09-20T16:46:30Z</time>
      </trkpt>
      <trkpt lat="44.22676" lon="6.96311">
        <ele>1171</ele>
        <time>2013-09-20T16:46:34Z</time>
      </trkpt>
      <trkpt lat="44.22672" lon="6.96295">
        <ele>1169</ele>
        <time>2013-09-20T16:46:38Z</time>
      </trkpt>
      <trkpt lat="44.22679" lon="6.96281">
        <ele>1165</ele>
        <time>2013-09-20T16:46:45Z</time>
      </trkpt>
      <trkpt lat="44.22666" lon="6.9627">
        <ele>1161</ele>
        <time>2013-09-20T16:46:53Z</time>
      </trkpt>
      <trkpt lat="44.22664" lon="6.96266">
        <ele>1159</ele>
        <time>2013-09-20T16:46:56Z</time>
      </trkpt>
      <trkpt lat="44.22671" lon="6.9626">
        <ele>1155</ele>
        <time>2013-09-20T16:47:04Z</time>
      </trkpt>
      <trkpt lat="44.22669" lon="6.96264">
        <ele>1143</ele>
        <time>2013-09-20T16:47:29Z</time>
      </trkpt>
      <trkpt lat="44.22676" lon="6.96261">
        <ele>1138</ele>
        <time>2013-09-20T16:47:45Z</time>
      </trkpt>
      <trkpt lat="44.22667" lon="6.96266">
        <ele>1126</ele>
        <time>2013-09-20T16:48:24Z</time>
      </trkpt>
      <trkpt lat="44.22647" lon="6.96284">
        <ele>1124</ele>
        <time>2013-09-20T16:48:31Z</time>
      </trkpt>
      <trkpt lat="44.22645" lon="6.96302">
        <ele>1123</ele>
        <time>2013-09-20T16:48:35Z</time>
      </trkpt>
      <trkpt lat="44.22622" lon="6.96283">
        <ele>1122</ele>
        <time>2013-09-20T16:48:40Z</time>
      </trkpt>
      <trkpt lat="44.22593" lon="6.96257">
        <ele>1119</ele>
        <time>2013-09-20T16:48:46Z</time>
      </trkpt>
      <trkpt lat="44.22568" lon="6.9624">
        <ele>1118</ele>
        <time>2013-09-20T16:48:50Z</time>
      </trkpt>
      <trkpt lat="44.22544" lon="6.96215">
        <ele>1116</ele>
        <time>2013-09-20T16:48:54Z</time>
      </trkpt>
      <trkpt lat="44.22526" lon="6.96197">
        <ele>1114</ele>
        <time>2013-09-20T16:48:58Z</time>
      </trkpt>
      <trkpt lat="44.22518" lon="6.96186">
        <ele>1112</ele>
        <time>2013-09-20T16:49:02Z</time>
      </trkpt>
      <trkpt lat="44.22518" lon="6.96181">
        <ele>1109</ele>
        <time>2013-09-20T16:49:08Z</time>
      </trkpt>
      <trkpt lat="44.22519" lon="6.96181">
        <ele>1096</ele>
        <time>2013-09-20T16:49:41Z</time>
      </trkpt>
      <trkpt lat="44.2252" lon="6.96182">
        <ele>1073</ele>
        <time>2013-09-20T16:51:19Z</time>
      </trkpt>
      <trkpt lat="44.22522" lon="6.96183">
        <ele>1066</ele>
        <time>2013-09-20T16:52:23Z</time>
      </trkpt>
      <trkpt lat="44.22519" lon="6.96177">
        <ele>1062</ele>
        <time>2013-09-20T16:53:17Z</time>
      </trkpt>
      <trkpt lat="44.22521" lon="6.96165">
        <ele>1062</ele>
        <time>2013-09-20T16:53:22Z</time>
      </trkpt>
      <trkpt lat="44.22526" lon="6.96141">
        <ele>1062</ele>
        <time>2013-09-20T16:53:29Z</time>
      </trkpt>
      <trkpt lat="44.22536" lon="6.9608">
        <ele>1061</ele>
        <time>2013-09-20T16:53:45Z</time>
      </trkpt>
      <trkpt lat="44.22539" lon="6.96037">
        <ele>1061</ele>
        <time>2013-09-20T16:53:55Z</time>
      </trkpt>
      <trkpt lat="44.22576" lon="6.95978">
        <ele>1061</ele>
        <time>2013-09-20T16:54:12Z</time>
      </trkpt>
      <trkpt lat="44.22588" lon="6.95971">
        <ele>1066</ele>
        <time>2013-09-20T16:57:11Z</time>
      </trkpt>
      <trkpt lat="44.22628" lon="6.95948">
        <ele>1066</ele>
        <time>2013-09-20T16:57:24Z</time>
      </trkpt>
      <trkpt lat="44.22684" lon="6.95917">
        <ele>1066</ele>
        <time>2013-09-20T16:57:36Z</time>
      </trkpt>
      <trkpt lat="44.2275" lon="6.95869">
        <ele>1066</ele>
        <time>2013-09-20T16:57:45Z</time>
      </trkpt>
      <trkpt lat="44.22771" lon="6.95851">
        <ele>1066</ele>
        <time>2013-09-20T16:57:49Z</time>
      </trkpt>
      <trkpt lat="44.22834" lon="6.95817">
        <ele>1066</ele>
        <time>2013-09-20T16:58:04Z</time>
      </trkpt>
      <trkpt lat="44.22893" lon="6.95794">
        <ele>1065</ele>
        <time>2013-09-20T16:58:17Z</time>
      </trkpt>
      <trkpt lat="44.2296" lon="6.9573">
        <ele>1065</ele>
        <time>2013-09-20T16:58:30Z</time>
      </trkpt>
      <trkpt lat="44.23012" lon="6.95647">
        <ele>1065</ele>
        <time>2013-09-20T16:58:43Z</time>
      </trkpt>
      <trkpt lat="44.23046" lon="6.95575">
        <ele>1065</ele>
        <time>2013-09-20T16:58:54Z</time>
      </trkpt>
      <trkpt lat="44.23054" lon="6.95567">
        <ele>1065</ele>
        <time>2013-09-20T16:58:59Z</time>
      </trkpt>
      <trkpt lat="44.23053" lon="6.95567">
        <ele>1065</ele>
        <time>2013-09-20T16:59:11Z</time>
      </trkpt>
      <trkpt lat="44.23052" lon="6.95568">
        <ele>1066</ele>
        <time>2013-09-20T17:00:13Z</time>
      </trkpt>
      <trkpt lat="44.23053" lon="6.95569">
        <ele>1066</ele>
        <time>2013-09-20T17:00:30Z</time>
      </trkpt>
      <trkpt lat="44.23051" lon="6.95569">
        <ele>1066</ele>
        <time>2013-09-20T17:01:47Z</time>
      </trkpt>
      <trkpt lat="44.23054" lon="6.95567">
        <ele>1066</ele>
        <time>2013-09-20T17:02:30Z</time>
      </trkpt>
      <trkpt lat="44.23059" lon="6.95561">
        <ele>1066</ele>
        <time>2013-09-20T17:02:34Z</time>
      </trkpt>
      <trkpt lat="44.23079" lon="6.9553">
        <ele>1066</ele>
        <time>2013-09-20T17:02:46Z</time>
      </trkpt>
      <trkpt lat="44.23111" lon="6.95481">
        <ele>1066</ele>
        <time>2013-09-20T17:03:04Z</time>
      </trkpt>
      <trkpt lat="44.23137" lon="6.95439">
        <ele>1066</ele>
        <time>2013-09-20T17:03:19Z</time>
      </trkpt>
      <trkpt lat="44.23164" lon="6.95398">
        <ele>1066</ele>
        <time>2013-09-20T17:03:34Z</time>
      </trkpt>
      <trkpt lat="44.23194" lon="6.95339">
        <ele>1066</ele>
        <time>2013-09-20T17:03:52Z</time>
      </trkpt>
      <trkpt lat="44.23222" lon="6.95257">
        <ele>1067</ele>
        <time>2013-09-20T17:04:13Z</time>
      </trkpt>
      <trkpt lat="44.23252" lon="6.95179">
        <ele>1068</ele>
        <time>2013-09-20T17:04:34Z</time>
      </trkpt>
      <trkpt lat="44.23269" lon="6.95148">
        <ele>1068</ele>
        <time>2013-09-20T17:04:45Z</time>
      </trkpt>
      <trkpt lat="44.23278" lon="6.95138">
        <ele>1068</ele>
        <time>2013-09-20T17:04:49Z</time>
      </trkpt>
      <trkpt lat="44.23305" lon="6.95085">
        <ele>1069</ele>
        <time>2013-09-20T17:05:04Z</time>
      </trkpt>
      <trkpt lat="44.23308" lon="6.95068">
        <ele>1070</ele>
        <time>2013-09-20T17:05:09Z</time>
      </trkpt>
      <trkpt lat="44.23317" lon="6.95056">
        <ele>1070</ele>
        <time>2013-09-20T17:05:13Z</time>
      </trkpt>
      <trkpt lat="44.23335" lon="6.95016">
        <ele>1070</ele>
        <time>2013-09-20T17:05:24Z</time>
      </trkpt>
      <trkpt lat="44.23372" lon="6.94936">
        <ele>1072</ele>
        <time>2013-09-20T17:05:42Z</time>
      </trkpt>
      <trkpt lat="44.23423" lon="6.94867">
        <ele>1073</ele>
        <time>2013-09-20T17:06:01Z</time>
      </trkpt>
      <trkpt lat="44.2347" lon="6.94839">
        <ele>1074</ele>
        <time>2013-09-20T17:06:17Z</time>
      </trkpt>
      <trkpt lat="44.23491" lon="6.94802">
        <ele>1075</ele>
        <time>2013-09-20T17:06:28Z</time>
      </trkpt>
      <trkpt lat="44.23547" lon="6.94746">
        <ele>1075</ele>
        <time>2013-09-20T17:06:40Z</time>
      </trkpt>
      <trkpt lat="44.23585" lon="6.94686">
        <ele>1076</ele>
        <time>2013-09-20T17:06:53Z</time>
      </trkpt>
      <trkpt lat="44.23626" lon="6.9463">
        <ele>1076</ele>
        <time>2013-09-20T17:07:08Z</time>
      </trkpt>
      <trkpt lat="44.23677" lon="6.94579">
        <ele>1077</ele>
        <time>2013-09-20T17:07:24Z</time>
      </trkpt>
      <trkpt lat="44.23719" lon="6.94542">
        <ele>1078</ele>
        <time>2013-09-20T17:07:37Z</time>
      </trkpt>
      <trkpt lat="44.23775" lon="6.94539">
        <ele>1079</ele>
        <time>2013-09-20T17:07:52Z</time>
      </trkpt>
      <trkpt lat="44.23848" lon="6.94535">
        <ele>1080</ele>
        <time>2013-09-20T17:08:12Z</time>
      </trkpt>
      <trkpt lat="44.23917" lon="6.94509">
        <ele>1082</ele>
        <time>2013-09-20T17:08:32Z</time>
      </trkpt>
      <trkpt lat="44.23944" lon="6.94475">
        <ele>1084</ele>
        <time>2013-09-20T17:08:47Z</time>
      </trkpt>
      <trkpt lat="44.23977" lon="6.9446">
        <ele>1085</ele>
        <time>2013-09-20T17:09:05Z</time>
      </trkpt>
      <trkpt lat="44.23991" lon="6.94449">
        <ele>1086</ele>
        <time>2013-09-20T17:09:12Z</time>
      </trkpt>
      <trkpt lat="44.24" lon="6.94408">
        <ele>1086</ele>
        <time>2013-09-20T17:09:24Z</time>
      </trkpt>
      <trkpt lat="44.24015" lon="6.94357">
        <ele>1087</ele>
        <time>2013-09-20T17:09:39Z</time>
      </trkpt>
      <trkpt lat="44.24039" lon="6.94296">
        <ele>1089</ele>
        <time>2013-09-20T17:09:57Z</time>
      </trkpt>
      <trkpt lat="44.24068" lon="6.94233">
        <ele>1091</ele>
        <time>2013-09-20T17:10:16Z</time>
      </trkpt>
      <trkpt lat="44.24116" lon="6.94181">
        <ele>1094</ele>
        <time>2013-09-20T17:10:35Z</time>
      </trkpt>
      <trkpt lat="44.24157" lon="6.94138">
        <ele>1096</ele>
        <time>2013-09-20T17:10:50Z</time>
      </trkpt>
      <trkpt lat="44.24206" lon="6.94096">
        <ele>1099</ele>
        <time>2013-09-20T17:11:08Z</time>
      </trkpt>
      <trkpt lat="44.24229" lon="6.94068">
        <ele>1100</ele>
        <time>2013-09-20T17:11:18Z</time>
      </trkpt>
      <trkpt lat="44.24264" lon="6.9403">
        <ele>1104</ele>
        <time>2013-09-20T17:11:33Z</time>
      </trkpt>
      <trkpt lat="44.2431" lon="6.93998">
        <ele>1110</ele>
        <time>2013-09-20T17:11:51Z</time>
      </trkpt>
      <trkpt lat="44.24362" lon="6.93956">
        <ele>1115</ele>
        <time>2013-09-20T17:12:12Z</time>
      </trkpt>
      <trkpt lat="44.24391" lon="6.93915">
        <ele>1119</ele>
        <time>2013-09-20T17:12:27Z</time>
      </trkpt>
      <trkpt lat="44.24414" lon="6.93879">
        <ele>1122</ele>
        <time>2013-09-20T17:12:39Z</time>
      </trkpt>
      <trkpt lat="44.24445" lon="6.93833">
        <ele>1126</ele>
        <time>2013-09-20T17:12:56Z</time>
      </trkpt>
      <trkpt lat="44.24463" lon="6.93805">
        <ele>1128</ele>
        <time>2013-09-20T17:13:08Z</time>
      </trkpt>
      <trkpt lat="44.24477" lon="6.93779">
        <ele>1130</ele>
        <time>2013-09-20T17:13:20Z</time>
      </trkpt>
      <trkpt lat="44.24489" lon="6.93746">
        <ele>1130</ele>
        <time>2013-09-20T17:13:36Z</time>
      </trkpt>
      <trkpt lat="44.24512" lon="6.93715">
        <ele>1130</ele>
        <time>2013-09-20T17:13:55Z</time>
      </trkpt>
      <trkpt lat="44.24535" lon="6.93693">
        <ele>1131</ele>
        <time>2013-09-20T17:14:12Z</time>
      </trkpt>
      <trkpt lat="44.24556" lon="6.93661">
        <ele>1132</ele>
        <time>2013-09-20T17:14:30Z</time>
      </trkpt>
      <trkpt lat="44.24567" lon="6.93632">
        <ele>1133</ele>
        <time>2013-09-20T17:14:43Z</time>
      </trkpt>
      <trkpt lat="44.24603" lon="6.93608">
        <ele>1135</ele>
        <time>2013-09-20T17:15:03Z</time>
      </trkpt>
      <trkpt lat="44.24628" lon="6.93559">
        <ele>1137</ele>
        <time>2013-09-20T17:15:18Z</time>
      </trkpt>
      <trkpt lat="44.24643" lon="6.93518">
        <ele>1138</ele>
        <time>2013-09-20T17:15:24Z</time>
      </trkpt>
      <trkpt lat="44.24682" lon="6.93473">
        <ele>1137</ele>
        <time>2013-09-20T17:15:30Z</time>
      </trkpt>
      <trkpt lat="44.24735" lon="6.93414">
        <ele>1137</ele>
        <time>2013-09-20T17:15:36Z</time>
      </trkpt>
      <trkpt lat="44.24754" lon="6.9337">
        <ele>1136</ele>
        <time>2013-09-20T17:15:39Z</time>
      </trkpt>
      <trkpt lat="44.24793" lon="6.93349">
        <ele>1136</ele>
        <time>2013-09-20T17:15:43Z</time>
      </trkpt>
      <trkpt lat="44.24831" lon="6.93359">
        <ele>1135</ele>
        <time>2013-09-20T17:15:47Z</time>
      </trkpt>
      <trkpt lat="44.24857" lon="6.93329">
        <ele>1134</ele>
        <time>2013-09-20T17:15:51Z</time>
      </trkpt>
      <trkpt lat="44.24895" lon="6.93275">
        <ele>1133</ele>
        <time>2013-09-20T17:15:58Z</time>
      </trkpt>
      <trkpt lat="44.24943" lon="6.9321">
        <ele>1132</ele>
        <time>2013-09-20T17:16:10Z</time>
      </trkpt>
      <trkpt lat="44.24964" lon="6.93198">
        <ele>1132</ele>
        <time>2013-09-20T17:16:15Z</time>
      </trkpt>
      <trkpt lat="44.25017" lon="6.9316">
        <ele>1132</ele>
        <time>2013-09-20T17:16:31Z</time>
      </trkpt>
      <trkpt lat="44.25056" lon="6.93201">
        <ele>1131</ele>
        <time>2013-09-20T17:16:41Z</time>
      </trkpt>
      <trkpt lat="44.25078" lon="6.93211">
        <ele>1131</ele>
        <time>2013-09-20T17:16:45Z</time>
      </trkpt>
      <trkpt lat="44.25103" lon="6.93159">
        <ele>1130</ele>
        <time>2013-09-20T17:16:53Z</time>
      </trkpt>
      <trkpt lat="44.25127" lon="6.93108">
        <ele>1130</ele>
        <time>2013-09-20T17:17:07Z</time>
      </trkpt>
      <trkpt lat="44.25158" lon="6.93062">
        <ele>1130</ele>
        <time>2013-09-20T17:17:25Z</time>
      </trkpt>
      <trkpt lat="44.25183" lon="6.93012">
        <ele>1130</ele>
        <time>2013-09-20T17:17:41Z</time>
      </trkpt>
      <trkpt lat="44.25219" lon="6.92962">
        <ele>1131</ele>
        <time>2013-09-20T17:17:59Z</time>
      </trkpt>
      <trkpt lat="44.25254" lon="6.92903">
        <ele>1132</ele>
        <time>2013-09-20T17:18:18Z</time>
      </trkpt>
      <trkpt lat="44.25291" lon="6.92858">
        <ele>1134</ele>
        <time>2013-09-20T17:18:36Z</time>
      </trkpt>
      <trkpt lat="44.25325" lon="6.92803">
        <ele>1136</ele>
        <time>2013-09-20T17:18:54Z</time>
      </trkpt>
      <trkpt lat="44.25353" lon="6.92772">
        <ele>1138</ele>
        <time>2013-09-20T17:19:07Z</time>
      </trkpt>
      <trkpt lat="44.254" lon="6.92757">
        <ele>1139</ele>
        <time>2013-09-20T17:19:24Z</time>
      </trkpt>
      <trkpt lat="44.25443" lon="6.92734">
        <ele>1140</ele>
        <time>2013-09-20T17:19:40Z</time>
      </trkpt>
      <trkpt lat="44.25481" lon="6.92699">
        <ele>1141</ele>
        <time>2013-09-20T17:19:56Z</time>
      </trkpt>
      <trkpt lat="44.25519" lon="6.92662">
        <ele>1142</ele>
        <time>2013-09-20T17:20:12Z</time>
      </trkpt>
      <trkpt lat="44.25543" lon="6.92626">
        <ele>1144</ele>
        <time>2013-09-20T17:20:26Z</time>
      </trkpt>
      <trkpt lat="44.25556" lon="6.92599">
        <ele>1144</ele>
        <time>2013-09-20T17:20:37Z</time>
      </trkpt>
      <trkpt lat="44.2557" lon="6.92585">
        <ele>1145</ele>
        <time>2013-09-20T17:20:49Z</time>
      </trkpt>
      <trkpt lat="44.2557" lon="6.92579">
        <ele>1146</ele>
        <time>2013-09-20T17:20:54Z</time>
      </trkpt>
      <trkpt lat="44.2557" lon="6.9258">
        <ele>1146</ele>
        <time>2013-09-20T17:20:58Z</time>
      </trkpt>
    </trkseg>
  </trk>
  <trk>
    <name><![CDATA[j2]]></name>
    <trkseg>
      <trkpt lat="44.25671" lon="6.92527">
        <ele>1191</ele>
        <time>2013-09-21T06:42:48Z</time>
      </trkpt>
      <trkpt lat="44.25669" lon="6.92553">
        <ele>1190</ele>
        <time>2013-09-21T06:42:55Z</time>
      </trkpt>
      <trkpt lat="44.2566" lon="6.92558">
        <ele>1190</ele>
        <time>2013-09-21T06:42:58Z</time>
      </trkpt>
      <trkpt lat="44.25646" lon="6.92557">
        <ele>1190</ele>
        <time>2013-09-21T06:43:02Z</time>
      </trkpt>
      <trkpt lat="44.25608" lon="6.92552">
        <ele>1189</ele>
        <time>2013-09-21T06:43:15Z</time>
      </trkpt>
      <trkpt lat="44.25595" lon="6.92548">
        <ele>1189</ele>
        <time>2013-09-21T06:43:20Z</time>
      </trkpt>
      <trkpt lat="44.25581" lon="6.92549">
        <ele>1189</ele>
        <time>2013-09-21T06:43:26Z</time>
      </trkpt>
      <trkpt lat="44.25567" lon="6.92553">
        <ele>1189</ele>
        <time>2013-09-21T06:43:32Z</time>
      </trkpt>
      <trkpt lat="44.25555" lon="6.92565">
        <ele>1189</ele>
        <time>2013-09-21T06:43:37Z</time>
      </trkpt>
      <trkpt lat="44.25546" lon="6.9257">
        <ele>1188</ele>
        <time>2013-09-21T06:43:41Z</time>
      </trkpt>
      <trkpt lat="44.25539" lon="6.92584">
        <ele>1188</ele>
        <time>2013-09-21T06:43:45Z</time>
      </trkpt>
      <trkpt lat="44.25532" lon="6.92612">
        <ele>1187</ele>
        <time>2013-09-21T06:43:54Z</time>
      </trkpt>
      <trkpt lat="44.25528" lon="6.92615">
        <ele>1184</ele>
        <time>2013-09-21T06:44:14Z</time>
      </trkpt>
      <trkpt lat="44.25515" lon="6.92638">
        <ele>1183</ele>
        <time>2013-09-21T06:44:25Z</time>
      </trkpt>
      <trkpt lat="44.25512" lon="6.92651">
        <ele>1181</ele>
        <time>2013-09-21T06:44:31Z</time>
      </trkpt>
      <trkpt lat="44.25507" lon="6.92656">
        <ele>1180</ele>
        <time>2013-09-21T06:44:43Z</time>
      </trkpt>
      <trkpt lat="44.25476" lon="6.92681">
        <ele>1178</ele>
        <time>2013-09-21T06:44:55Z</time>
      </trkpt>
      <trkpt lat="44.25426" lon="6.92732">
        <ele>1175</ele>
        <time>2013-09-21T06:45:10Z</time>
      </trkpt>
      <trkpt lat="44.25405" lon="6.92745">
        <ele>1175</ele>
        <time>2013-09-21T06:45:15Z</time>
      </trkpt>
      <trkpt lat="44.2537" lon="6.92753">
        <ele>1173</ele>
        <time>2013-09-21T06:45:24Z</time>
      </trkpt>
      <trkpt lat="44.25322" lon="6.92787">
        <ele>1171</ele>
        <time>2013-09-21T06:45:38Z</time>
      </trkpt>
      <trkpt lat="44.2529" lon="6.9284">
        <ele>1170</ele>
        <time>2013-09-21T06:45:51Z</time>
      </trkpt>
      <trkpt lat="44.25246" lon="6.92897">
        <ele>1168</ele>
        <time>2013-09-21T06:46:03Z</time>
      </trkpt>
      <trkpt lat="44.25201" lon="6.92973">
        <ele>1166</ele>
        <time>2013-09-21T06:46:14Z</time>
      </trkpt>
      <trkpt lat="44.25171" lon="6.93013">
        <ele>1165</ele>
        <time>2013-09-21T06:46:20Z</time>
      </trkpt>
      <trkpt lat="44.25138" lon="6.93076">
        <ele>1164</ele>
        <time>2013-09-21T06:46:27Z</time>
      </trkpt>
      <trkpt lat="44.25115" lon="6.93113">
        <ele>1163</ele>
        <time>2013-09-21T06:46:31Z</time>
      </trkpt>
      <trkpt lat="44.2508" lon="6.93191">
        <ele>1161</ele>
        <time>2013-09-21T06:46:39Z</time>
      </trkpt>
      <trkpt lat="44.25061" lon="6.93218">
        <ele>1160</ele>
        <time>2013-09-21T06:46:44Z</time>
      </trkpt>
      <trkpt lat="44.25035" lon="6.93183">
        <ele>1159</ele>
        <time>2013-09-21T06:46:55Z</time>
      </trkpt>
      <trkpt lat="44.2501" lon="6.93161">
        <ele>1157</ele>
        <time>2013-09-21T06:47:08Z</time>
      </trkpt>
      <trkpt lat="44.24969" lon="6.93192">
        <ele>1155</ele>
        <time>2013-09-21T06:47:21Z</time>
      </trkpt>
      <trkpt lat="44.24905" lon="6.93257">
        <ele>1153</ele>
        <time>2013-09-21T06:47:33Z</time>
      </trkpt>
      <trkpt lat="44.24838" lon="6.93354">
        <ele>1151</ele>
        <time>2013-09-21T06:47:44Z</time>
      </trkpt>
      <trkpt lat="44.24799" lon="6.9336">
        <ele>1150</ele>
        <time>2013-09-21T06:47:49Z</time>
      </trkpt>
      <trkpt lat="44.24781" lon="6.9335">
        <ele>1149</ele>
        <time>2013-09-21T06:47:52Z</time>
      </trkpt>
      <trkpt lat="44.24764" lon="6.93356">
        <ele>1149</ele>
        <time>2013-09-21T06:47:56Z</time>
      </trkpt>
      <trkpt lat="44.24754" lon="6.93366">
        <ele>1148</ele>
        <time>2013-09-21T06:48:00Z</time>
      </trkpt>
      <trkpt lat="44.24741" lon="6.93385">
        <ele>1147</ele>
        <time>2013-09-21T06:48:08Z</time>
      </trkpt>
      <trkpt lat="44.24724" lon="6.93422">
        <ele>1146</ele>
        <time>2013-09-21T06:48:23Z</time>
      </trkpt>
      <trkpt lat="44.24697" lon="6.93449">
        <ele>1144</ele>
        <time>2013-09-21T06:48:41Z</time>
      </trkpt>
      <trkpt lat="44.24675" lon="6.93474">
        <ele>1144</ele>
        <time>2013-09-21T06:48:59Z</time>
      </trkpt>
      <trkpt lat="44.24654" lon="6.93499">
        <ele>1144</ele>
        <time>2013-09-21T06:49:18Z</time>
      </trkpt>
      <trkpt lat="44.24631" lon="6.9353">
        <ele>1146</ele>
        <time>2013-09-21T06:49:37Z</time>
      </trkpt>
      <trkpt lat="44.24619" lon="6.93567">
        <ele>1148</ele>
        <time>2013-09-21T06:49:52Z</time>
      </trkpt>
      <trkpt lat="44.24591" lon="6.9361">
        <ele>1149</ele>
        <time>2013-09-21T06:50:04Z</time>
      </trkpt>
      <trkpt lat="44.24565" lon="6.93626">
        <ele>1149</ele>
        <time>2013-09-21T06:50:08Z</time>
      </trkpt>
      <trkpt lat="44.24554" lon="6.93645">
        <ele>1149</ele>
        <time>2013-09-21T06:50:10Z</time>
      </trkpt>
      <trkpt lat="44.24516" lon="6.93699">
        <ele>1148</ele>
        <time>2013-09-21T06:50:15Z</time>
      </trkpt>
      <trkpt lat="44.24485" lon="6.93734">
        <ele>1148</ele>
        <time>2013-09-21T06:50:18Z</time>
      </trkpt>
      <trkpt lat="44.2444" lon="6.93815">
        <ele>1147</ele>
        <time>2013-09-21T06:50:23Z</time>
      </trkpt>
      <trkpt lat="44.24389" lon="6.9389">
        <ele>1146</ele>
        <time>2013-09-21T06:50:28Z</time>
      </trkpt>
      <trkpt lat="44.2434" lon="6.93954">
        <ele>1145</ele>
        <time>2013-09-21T06:50:33Z</time>
      </trkpt>
      <trkpt lat="44.2423" lon="6.94041">
        <ele>1142</ele>
        <time>2013-09-21T06:50:44Z</time>
      </trkpt>
      <trkpt lat="44.24181" lon="6.9411">
        <ele>1140</ele>
        <time>2013-09-21T06:50:51Z</time>
      </trkpt>
      <trkpt lat="44.24122" lon="6.94161">
        <ele>1138</ele>
        <time>2013-09-21T06:50:59Z</time>
      </trkpt>
      <trkpt lat="44.24073" lon="6.94214">
        <ele>1137</ele>
        <time>2013-09-21T06:51:07Z</time>
      </trkpt>
      <trkpt lat="44.24043" lon="6.9426">
        <ele>1135</ele>
        <time>2013-09-21T06:51:13Z</time>
      </trkpt>
      <trkpt lat="44.24023" lon="6.94317">
        <ele>1133</ele>
        <time>2013-09-21T06:51:21Z</time>
      </trkpt>
      <trkpt lat="44.24019" lon="6.94325">
        <ele>1133</ele>
        <time>2013-09-21T06:51:23Z</time>
      </trkpt>
      <trkpt lat="44.24019" lon="6.9433">
        <ele>1131</ele>
        <time>2013-09-21T06:51:29Z</time>
      </trkpt>
      <trkpt lat="44.24009" lon="6.9436">
        <ele>1122</ele>
        <time>2013-09-21T06:52:26Z</time>
      </trkpt>
      <trkpt lat="44.23992" lon="6.94423">
        <ele>1120</ele>
        <time>2013-09-21T06:52:34Z</time>
      </trkpt>
      <trkpt lat="44.23981" lon="6.94455">
        <ele>1120</ele>
        <time>2013-09-21T06:52:38Z</time>
      </trkpt>
      <trkpt lat="44.23961" lon="6.94467">
        <ele>1119</ele>
        <time>2013-09-21T06:52:42Z</time>
      </trkpt>
      <trkpt lat="44.23934" lon="6.9448">
        <ele>1119</ele>
        <time>2013-09-21T06:52:47Z</time>
      </trkpt>
      <trkpt lat="44.23888" lon="6.94523">
        <ele>1117</ele>
        <time>2013-09-21T06:52:55Z</time>
      </trkpt>
      <trkpt lat="44.23794" lon="6.94533">
        <ele>1115</ele>
        <time>2013-09-21T06:53:08Z</time>
      </trkpt>
      <trkpt lat="44.23718" lon="6.94537">
        <ele>1113</ele>
        <time>2013-09-21T06:53:20Z</time>
      </trkpt>
      <trkpt lat="44.23692" lon="6.94556">
        <ele>1113</ele>
        <time>2013-09-21T06:53:25Z</time>
      </trkpt>
      <trkpt lat="44.23679" lon="6.94571">
        <ele>1112</ele>
        <time>2013-09-21T06:53:28Z</time>
      </trkpt>
      <trkpt lat="44.23645" lon="6.94598">
        <ele>1111</ele>
        <time>2013-09-21T06:53:35Z</time>
      </trkpt>
      <trkpt lat="44.23606" lon="6.94646">
        <ele>1110</ele>
        <time>2013-09-21T06:53:44Z</time>
      </trkpt>
      <trkpt lat="44.23555" lon="6.94731">
        <ele>1108</ele>
        <time>2013-09-21T06:53:57Z</time>
      </trkpt>
      <trkpt lat="44.23492" lon="6.94799">
        <ele>1106</ele>
        <time>2013-09-21T06:54:10Z</time>
      </trkpt>
      <trkpt lat="44.23471" lon="6.94825">
        <ele>1105</ele>
        <time>2013-09-21T06:54:17Z</time>
      </trkpt>
      <trkpt lat="44.23452" lon="6.9484">
        <ele>1104</ele>
        <time>2013-09-21T06:54:23Z</time>
      </trkpt>
      <trkpt lat="44.23421" lon="6.94855">
        <ele>1103</ele>
        <time>2013-09-21T06:54:31Z</time>
      </trkpt>
      <trkpt lat="44.23361" lon="6.94933">
        <ele>1102</ele>
        <time>2013-09-21T06:54:45Z</time>
      </trkpt>
      <trkpt lat="44.23309" lon="6.95049">
        <ele>1100</ele>
        <time>2013-09-21T06:55:01Z</time>
      </trkpt>
      <trkpt lat="44.23277" lon="6.95121">
        <ele>1099</ele>
        <time>2013-09-21T06:55:11Z</time>
      </trkpt>
      <trkpt lat="44.23248" lon="6.95177">
        <ele>1098</ele>
        <time>2013-09-21T06:55:19Z</time>
      </trkpt>
      <trkpt lat="44.23198" lon="6.95313">
        <ele>1096</ele>
        <time>2013-09-21T06:55:36Z</time>
      </trkpt>
      <trkpt lat="44.23137" lon="6.95434">
        <ele>1094</ele>
        <time>2013-09-21T06:55:52Z</time>
      </trkpt>
      <trkpt lat="44.23059" lon="6.95552">
        <ele>1092</ele>
        <time>2013-09-21T06:56:08Z</time>
      </trkpt>
      <trkpt lat="44.2303" lon="6.95595">
        <ele>1091</ele>
        <time>2013-09-21T06:56:14Z</time>
      </trkpt>
      <trkpt lat="44.22992" lon="6.95675">
        <ele>1090</ele>
        <time>2013-09-21T06:56:25Z</time>
      </trkpt>
      <trkpt lat="44.2291" lon="6.95781">
        <ele>1088</ele>
        <time>2013-09-21T06:56:43Z</time>
      </trkpt>
      <trkpt lat="44.22867" lon="6.95806">
        <ele>1087</ele>
        <time>2013-09-21T06:56:50Z</time>
      </trkpt>
      <trkpt lat="44.22798" lon="6.95831">
        <ele>1086</ele>
        <time>2013-09-21T06:57:01Z</time>
      </trkpt>
      <trkpt lat="44.22721" lon="6.9589">
        <ele>1084</ele>
        <time>2013-09-21T06:57:15Z</time>
      </trkpt>
      <trkpt lat="44.22631" lon="6.95946">
        <ele>1082</ele>
        <time>2013-09-21T06:57:32Z</time>
      </trkpt>
      <trkpt lat="44.22551" lon="6.96">
        <ele>1081</ele>
        <time>2013-09-21T06:57:46Z</time>
      </trkpt>
      <trkpt lat="44.22533" lon="6.96041">
        <ele>1080</ele>
        <time>2013-09-21T06:57:51Z</time>
      </trkpt>
      <trkpt lat="44.22516" lon="6.96126">
        <ele>1079</ele>
        <time>2013-09-21T06:58:01Z</time>
      </trkpt>
      <trkpt lat="44.22495" lon="6.96133">
        <ele>1078</ele>
        <time>2013-09-21T06:58:07Z</time>
      </trkpt>
      <trkpt lat="44.22475" lon="6.96118">
        <ele>1078</ele>
        <time>2013-09-21T06:58:14Z</time>
      </trkpt>
      <trkpt lat="44.22411" lon="6.96071">
        <ele>1076</ele>
        <time>2013-09-21T06:58:30Z</time>
      </trkpt>
      <trkpt lat="44.22365" lon="6.96019">
        <ele>1075</ele>
        <time>2013-09-21T06:58:43Z</time>
      </trkpt>
      <trkpt lat="44.22343" lon="6.95997">
        <ele>1074</ele>
        <time>2013-09-21T06:58:56Z</time>
      </trkpt>
      <trkpt lat="44.22319" lon="6.95997">
        <ele>1073</ele>
        <time>2013-09-21T06:59:09Z</time>
      </trkpt>
      <trkpt lat="44.22292" lon="6.96007">
        <ele>1073</ele>
        <time>2013-09-21T06:59:24Z</time>
      </trkpt>
      <trkpt lat="44.2227" lon="6.96018">
        <ele>1073</ele>
        <time>2013-09-21T06:59:36Z</time>
      </trkpt>
      <trkpt lat="44.22247" lon="6.96033">
        <ele>1073</ele>
        <time>2013-09-21T06:59:51Z</time>
      </trkpt>
      <trkpt lat="44.22221" lon="6.96041">
        <ele>1074</ele>
        <time>2013-09-21T07:00:07Z</time>
      </trkpt>
      <trkpt lat="44.22197" lon="6.96038">
        <ele>1075</ele>
        <time>2013-09-21T07:00:23Z</time>
      </trkpt>
      <trkpt lat="44.22192" lon="6.96039">
        <ele>1076</ele>
        <time>2013-09-21T07:00:42Z</time>
      </trkpt>
      <trkpt lat="44.2219" lon="6.9604">
        <ele>1079</ele>
        <time>2013-09-21T07:01:28Z</time>
      </trkpt>
      <trkpt lat="44.2219" lon="6.96039">
        <ele>1081</ele>
        <time>2013-09-21T07:01:46Z</time>
      </trkpt>
      <trkpt lat="44.22196" lon="6.96038">
        <ele>1081</ele>
        <time>2013-09-21T07:01:52Z</time>
      </trkpt>
      <trkpt lat="44.22194" lon="6.9604">
        <ele>1084</ele>
        <time>2013-09-21T07:02:23Z</time>
      </trkpt>
      <trkpt lat="44.22191" lon="6.96041">
        <ele>1085</ele>
        <time>2013-09-21T07:02:33Z</time>
      </trkpt>
      <trkpt lat="44.22188" lon="6.96043">
        <ele>1086</ele>
        <time>2013-09-21T07:02:47Z</time>
      </trkpt>
      <trkpt lat="44.22166" lon="6.96055">
        <ele>1087</ele>
        <time>2013-09-21T07:03:01Z</time>
      </trkpt>
      <trkpt lat="44.22136" lon="6.9607">
        <ele>1089</ele>
        <time>2013-09-21T07:03:21Z</time>
      </trkpt>
      <trkpt lat="44.22113" lon="6.96075">
        <ele>1090</ele>
        <time>2013-09-21T07:03:34Z</time>
      </trkpt>
      <trkpt lat="44.2209" lon="6.96092">
        <ele>1092</ele>
        <time>2013-09-21T07:03:49Z</time>
      </trkpt>
      <trkpt lat="44.22063" lon="6.96106">
        <ele>1094</ele>
        <time>2013-09-21T07:04:05Z</time>
      </trkpt>
      <trkpt lat="44.22041" lon="6.96122">
        <ele>1096</ele>
        <time>2013-09-21T07:04:20Z</time>
      </trkpt>
      <trkpt lat="44.22029" lon="6.96133">
        <ele>1096</ele>
        <time>2013-09-21T07:04:28Z</time>
      </trkpt>
      <trkpt lat="44.2201" lon="6.96145">
        <ele>1098</ele>
        <time>2013-09-21T07:04:40Z</time>
      </trkpt>
      <trkpt lat="44.21981" lon="6.96161">
        <ele>1099</ele>
        <time>2013-09-21T07:04:58Z</time>
      </trkpt>
      <trkpt lat="44.21958" lon="6.96174">
        <ele>1101</ele>
        <time>2013-09-21T07:05:12Z</time>
      </trkpt>
      <trkpt lat="44.21936" lon="6.96187">
        <ele>1103</ele>
        <time>2013-09-21T07:05:26Z</time>
      </trkpt>
      <trkpt lat="44.21912" lon="6.96196">
        <ele>1105</ele>
        <time>2013-09-21T07:05:40Z</time>
      </trkpt>
      <trkpt lat="44.21891" lon="6.962">
        <ele>1107</ele>
        <time>2013-09-21T07:05:52Z</time>
      </trkpt>
      <trkpt lat="44.21867" lon="6.96228">
        <ele>1110</ele>
        <time>2013-09-21T07:06:09Z</time>
      </trkpt>
      <trkpt lat="44.21848" lon="6.96247">
        <ele>1112</ele>
        <time>2013-09-21T07:06:22Z</time>
      </trkpt>
      <trkpt lat="44.2183" lon="6.96271">
        <ele>1115</ele>
        <time>2013-09-21T07:06:36Z</time>
      </trkpt>
      <trkpt lat="44.21822" lon="6.9628">
        <ele>1116</ele>
        <time>2013-09-21T07:06:42Z</time>
      </trkpt>
      <trkpt lat="44.21797" lon="6.96299">
        <ele>1119</ele>
        <time>2013-09-21T07:06:58Z</time>
      </trkpt>
      <trkpt lat="44.2177" lon="6.96315">
        <ele>1122</ele>
        <time>2013-09-21T07:07:14Z</time>
      </trkpt>
      <trkpt lat="44.21744" lon="6.96336">
        <ele>1124</ele>
        <time>2013-09-21T07:07:31Z</time>
      </trkpt>
      <trkpt lat="44.21719" lon="6.96366">
        <ele>1127</ele>
        <time>2013-09-21T07:07:49Z</time>
      </trkpt>
      <trkpt lat="44.21711" lon="6.96373">
        <ele>1128</ele>
        <time>2013-09-21T07:07:54Z</time>
      </trkpt>
      <trkpt lat="44.2169" lon="6.96402">
        <ele>1130</ele>
        <time>2013-09-21T07:08:11Z</time>
      </trkpt>
      <trkpt lat="44.21672" lon="6.96424">
        <ele>1132</ele>
        <time>2013-09-21T07:08:25Z</time>
      </trkpt>
      <trkpt lat="44.2165" lon="6.96439">
        <ele>1134</ele>
        <time>2013-09-21T07:08:40Z</time>
      </trkpt>
      <trkpt lat="44.21626" lon="6.96415">
        <ele>1137</ele>
        <time>2013-09-21T07:08:57Z</time>
      </trkpt>
      <trkpt lat="44.21605" lon="6.96392">
        <ele>1139</ele>
        <time>2013-09-21T07:09:11Z</time>
      </trkpt>
      <trkpt lat="44.2158" lon="6.96405">
        <ele>1141</ele>
        <time>2013-09-21T07:09:23Z</time>
      </trkpt>
      <trkpt lat="44.21578" lon="6.96442">
        <ele>1143</ele>
        <time>2013-09-21T07:09:34Z</time>
      </trkpt>
      <trkpt lat="44.21568" lon="6.96491">
        <ele>1145</ele>
        <time>2013-09-21T07:09:51Z</time>
      </trkpt>
      <trkpt lat="44.2156" lon="6.96535">
        <ele>1147</ele>
        <time>2013-09-21T07:10:07Z</time>
      </trkpt>
      <trkpt lat="44.21534" lon="6.96557">
        <ele>1148</ele>
        <time>2013-09-21T07:10:22Z</time>
      </trkpt>
      <trkpt lat="44.21529" lon="6.96595">
        <ele>1150</ele>
        <time>2013-09-21T07:10:36Z</time>
      </trkpt>
      <trkpt lat="44.21526" lon="6.96639">
        <ele>1153</ele>
        <time>2013-09-21T07:10:52Z</time>
      </trkpt>
      <trkpt lat="44.21517" lon="6.96677">
        <ele>1155</ele>
        <time>2013-09-21T07:11:08Z</time>
      </trkpt>
      <trkpt lat="44.21491" lon="6.96705">
        <ele>1157</ele>
        <time>2013-09-21T07:11:25Z</time>
      </trkpt>
      <trkpt lat="44.21466" lon="6.96733">
        <ele>1160</ele>
        <time>2013-09-21T07:11:41Z</time>
      </trkpt>
      <trkpt lat="44.21449" lon="6.9675">
        <ele>1161</ele>
        <time>2013-09-21T07:11:52Z</time>
      </trkpt>
      <trkpt lat="44.21436" lon="6.96757">
        <ele>1162</ele>
        <time>2013-09-21T07:11:59Z</time>
      </trkpt>
      <trkpt lat="44.2142" lon="6.96763">
        <ele>1164</ele>
        <time>2013-09-21T07:12:08Z</time>
      </trkpt>
      <trkpt lat="44.21384" lon="6.96776">
        <ele>1167</ele>
        <time>2013-09-21T07:12:27Z</time>
      </trkpt>
      <trkpt lat="44.21348" lon="6.96781">
        <ele>1170</ele>
        <time>2013-09-21T07:12:46Z</time>
      </trkpt>
      <trkpt lat="44.21321" lon="6.96776">
        <ele>1172</ele>
        <time>2013-09-21T07:13:00Z</time>
      </trkpt>
      <trkpt lat="44.21289" lon="6.96772">
        <ele>1175</ele>
        <time>2013-09-21T07:13:17Z</time>
      </trkpt>
      <trkpt lat="44.21264" lon="6.96787">
        <ele>1177</ele>
        <time>2013-09-21T07:13:31Z</time>
      </trkpt>
      <trkpt lat="44.21238" lon="6.96802">
        <ele>1180</ele>
        <time>2013-09-21T07:13:46Z</time>
      </trkpt>
      <trkpt lat="44.21226" lon="6.96812">
        <ele>1182</ele>
        <time>2013-09-21T07:13:53Z</time>
      </trkpt>
      <trkpt lat="44.21199" lon="6.96845">
        <ele>1186</ele>
        <time>2013-09-21T07:14:11Z</time>
      </trkpt>
      <trkpt lat="44.21162" lon="6.96883">
        <ele>1191</ele>
        <time>2013-09-21T07:14:33Z</time>
      </trkpt>
      <trkpt lat="44.21133" lon="6.96911">
        <ele>1195</ele>
        <time>2013-09-21T07:14:50Z</time>
      </trkpt>
      <trkpt lat="44.21101" lon="6.96931">
        <ele>1198</ele>
        <time>2013-09-21T07:15:07Z</time>
      </trkpt>
      <trkpt lat="44.21067" lon="6.96933">
        <ele>1202</ele>
        <time>2013-09-21T07:15:24Z</time>
      </trkpt>
      <trkpt lat="44.21033" lon="6.96922">
        <ele>1205</ele>
        <time>2013-09-21T07:15:41Z</time>
      </trkpt>
      <trkpt lat="44.20994" lon="6.9691">
        <ele>1208</ele>
        <time>2013-09-21T07:16:01Z</time>
      </trkpt>
      <trkpt lat="44.20955" lon="6.96898">
        <ele>1212</ele>
        <time>2013-09-21T07:16:22Z</time>
      </trkpt>
      <trkpt lat="44.20925" lon="6.96871">
        <ele>1215</ele>
        <time>2013-09-21T07:16:40Z</time>
      </trkpt>
      <trkpt lat="44.20905" lon="6.96841">
        <ele>1217</ele>
        <time>2013-09-21T07:16:56Z</time>
      </trkpt>
      <trkpt lat="44.20874" lon="6.9684">
        <ele>1220</ele>
        <time>2013-09-21T07:17:13Z</time>
      </trkpt>
      <trkpt lat="44.20852" lon="6.96824">
        <ele>1221</ele>
        <time>2013-09-21T07:17:28Z</time>
      </trkpt>
      <trkpt lat="44.20827" lon="6.96815">
        <ele>1223</ele>
        <time>2013-09-21T07:17:44Z</time>
      </trkpt>
      <trkpt lat="44.20803" lon="6.96809">
        <ele>1225</ele>
        <time>2013-09-21T07:17:59Z</time>
      </trkpt>
      <trkpt lat="44.20792" lon="6.96802">
        <ele>1226</ele>
        <time>2013-09-21T07:18:06Z</time>
      </trkpt>
      <trkpt lat="44.20759" lon="6.96789">
        <ele>1228</ele>
        <time>2013-09-21T07:18:24Z</time>
      </trkpt>
      <trkpt lat="44.20722" lon="6.96765">
        <ele>1231</ele>
        <time>2013-09-21T07:18:45Z</time>
      </trkpt>
      <trkpt lat="44.2069" lon="6.96747">
        <ele>1233</ele>
        <time>2013-09-21T07:19:04Z</time>
      </trkpt>
      <trkpt lat="44.20665" lon="6.96723">
        <ele>1235</ele>
        <time>2013-09-21T07:19:21Z</time>
      </trkpt>
      <trkpt lat="44.20656" lon="6.96691">
        <ele>1237</ele>
        <time>2013-09-21T07:19:35Z</time>
      </trkpt>
      <trkpt lat="44.20631" lon="6.96689">
        <ele>1239</ele>
        <time>2013-09-21T07:19:51Z</time>
      </trkpt>
      <trkpt lat="44.20596" lon="6.96686">
        <ele>1241</ele>
        <time>2013-09-21T07:20:10Z</time>
      </trkpt>
      <trkpt lat="44.20556" lon="6.96669">
        <ele>1243</ele>
        <time>2013-09-21T07:20:32Z</time>
      </trkpt>
      <trkpt lat="44.20536" lon="6.9664">
        <ele>1245</ele>
        <time>2013-09-21T07:20:48Z</time>
      </trkpt>
      <trkpt lat="44.2055" lon="6.96612">
        <ele>1247</ele>
        <time>2013-09-21T07:21:01Z</time>
      </trkpt>
      <trkpt lat="44.20558" lon="6.96581">
        <ele>1248</ele>
        <time>2013-09-21T07:21:14Z</time>
      </trkpt>
      <trkpt lat="44.20556" lon="6.9654">
        <ele>1249</ele>
        <time>2013-09-21T07:21:29Z</time>
      </trkpt>
      <trkpt lat="44.20545" lon="6.96504">
        <ele>1252</ele>
        <time>2013-09-21T07:21:45Z</time>
      </trkpt>
      <trkpt lat="44.20515" lon="6.96481">
        <ele>1257</ele>
        <time>2013-09-21T07:22:03Z</time>
      </trkpt>
      <trkpt lat="44.20493" lon="6.96457">
        <ele>1260</ele>
        <time>2013-09-21T07:22:18Z</time>
      </trkpt>
      <trkpt lat="44.20468" lon="6.96462">
        <ele>1263</ele>
        <time>2013-09-21T07:22:32Z</time>
      </trkpt>
      <trkpt lat="44.20437" lon="6.96465">
        <ele>1267</ele>
        <time>2013-09-21T07:22:47Z</time>
      </trkpt>
      <trkpt lat="44.20426" lon="6.96427">
        <ele>1270</ele>
        <time>2013-09-21T07:23:00Z</time>
      </trkpt>
      <trkpt lat="44.20413" lon="6.96388">
        <ele>1274</ele>
        <time>2013-09-21T07:23:17Z</time>
      </trkpt>
      <trkpt lat="44.20381" lon="6.96375">
        <ele>1278</ele>
        <time>2013-09-21T07:23:34Z</time>
      </trkpt>
      <trkpt lat="44.20366" lon="6.96342">
        <ele>1281</ele>
        <time>2013-09-21T07:23:48Z</time>
      </trkpt>
      <trkpt lat="44.20351" lon="6.96309">
        <ele>1283</ele>
        <time>2013-09-21T07:24:02Z</time>
      </trkpt>
      <trkpt lat="44.20332" lon="6.96299">
        <ele>1285</ele>
        <time>2013-09-21T07:24:13Z</time>
      </trkpt>
      <trkpt lat="44.2031" lon="6.96307">
        <ele>1286</ele>
        <time>2013-09-21T07:24:25Z</time>
      </trkpt>
      <trkpt lat="44.20276" lon="6.96293">
        <ele>1289</ele>
        <time>2013-09-21T07:24:42Z</time>
      </trkpt>
      <trkpt lat="44.20263" lon="6.96268">
        <ele>1290</ele>
        <time>2013-09-21T07:24:55Z</time>
      </trkpt>
      <trkpt lat="44.20251" lon="6.96241">
        <ele>1292</ele>
        <time>2013-09-21T07:25:08Z</time>
      </trkpt>
      <trkpt lat="44.20229" lon="6.96229">
        <ele>1293</ele>
        <time>2013-09-21T07:25:21Z</time>
      </trkpt>
      <trkpt lat="44.20208" lon="6.96176">
        <ele>1295</ele>
        <time>2013-09-21T07:25:42Z</time>
      </trkpt>
      <trkpt lat="44.20201" lon="6.96133">
        <ele>1296</ele>
        <time>2013-09-21T07:25:58Z</time>
      </trkpt>
      <trkpt lat="44.20176" lon="6.96123">
        <ele>1297</ele>
        <time>2013-09-21T07:26:11Z</time>
      </trkpt>
      <trkpt lat="44.20165" lon="6.96095">
        <ele>1299</ele>
        <time>2013-09-21T07:26:23Z</time>
      </trkpt>
      <trkpt lat="44.20134" lon="6.96075">
        <ele>1301</ele>
        <time>2013-09-21T07:26:40Z</time>
      </trkpt>
      <trkpt lat="44.20102" lon="6.96051">
        <ele>1303</ele>
        <time>2013-09-21T07:26:59Z</time>
      </trkpt>
      <trkpt lat="44.20074" lon="6.96044">
        <ele>1305</ele>
        <time>2013-09-21T07:27:13Z</time>
      </trkpt>
      <trkpt lat="44.20047" lon="6.96018">
        <ele>1307</ele>
        <time>2013-09-21T07:27:29Z</time>
      </trkpt>
      <trkpt lat="44.20029" lon="6.95982">
        <ele>1309</ele>
        <time>2013-09-21T07:27:45Z</time>
      </trkpt>
      <trkpt lat="44.20014" lon="6.95962">
        <ele>1310</ele>
        <time>2013-09-21T07:27:55Z</time>
      </trkpt>
      <trkpt lat="44.20005" lon="6.95951">
        <ele>1311</ele>
        <time>2013-09-21T07:28:01Z</time>
      </trkpt>
      <trkpt lat="44.19995" lon="6.95919">
        <ele>1312</ele>
        <time>2013-09-21T07:28:14Z</time>
      </trkpt>
      <trkpt lat="44.19977" lon="6.95894">
        <ele>1313</ele>
        <time>2013-09-21T07:28:28Z</time>
      </trkpt>
      <trkpt lat="44.19975" lon="6.95893">
        <ele>1314</ele>
        <time>2013-09-21T07:28:35Z</time>
      </trkpt>
      <trkpt lat="44.1997" lon="6.95893">
        <ele>1318</ele>
        <time>2013-09-21T07:29:09Z</time>
      </trkpt>
      <trkpt lat="44.19948" lon="6.95892">
        <ele>1319</ele>
        <time>2013-09-21T07:29:24Z</time>
      </trkpt>
      <trkpt lat="44.19931" lon="6.9586">
        <ele>1320</ele>
        <time>2013-09-21T07:29:39Z</time>
      </trkpt>
      <trkpt lat="44.19923" lon="6.95831">
        <ele>1321</ele>
        <time>2013-09-21T07:29:52Z</time>
      </trkpt>
      <trkpt lat="44.19905" lon="6.958">
        <ele>1322</ele>
        <time>2013-09-21T07:30:07Z</time>
      </trkpt>
      <trkpt lat="44.19884" lon="6.95763">
        <ele>1324</ele>
        <time>2013-09-21T07:30:25Z</time>
      </trkpt>
      <trkpt lat="44.19881" lon="6.95724">
        <ele>1325</ele>
        <time>2013-09-21T07:30:39Z</time>
      </trkpt>
      <trkpt lat="44.19878" lon="6.95712">
        <ele>1326</ele>
        <time>2013-09-21T07:30:44Z</time>
      </trkpt>
      <trkpt lat="44.19872" lon="6.95691">
        <ele>1326</ele>
        <time>2013-09-21T07:30:52Z</time>
      </trkpt>
      <trkpt lat="44.19865" lon="6.9566">
        <ele>1327</ele>
        <time>2013-09-21T07:31:03Z</time>
      </trkpt>
      <trkpt lat="44.1986" lon="6.95619">
        <ele>1329</ele>
        <time>2013-09-21T07:31:17Z</time>
      </trkpt>
      <trkpt lat="44.19852" lon="6.95575">
        <ele>1331</ele>
        <time>2013-09-21T07:31:33Z</time>
      </trkpt>
      <trkpt lat="44.19845" lon="6.95537">
        <ele>1332</ele>
        <time>2013-09-21T07:31:48Z</time>
      </trkpt>
      <trkpt lat="44.19836" lon="6.95495">
        <ele>1334</ele>
        <time>2013-09-21T07:32:04Z</time>
      </trkpt>
      <trkpt lat="44.19825" lon="6.95457">
        <ele>1337</ele>
        <time>2013-09-21T07:32:20Z</time>
      </trkpt>
      <trkpt lat="44.19816" lon="6.95412">
        <ele>1340</ele>
        <time>2013-09-21T07:32:37Z</time>
      </trkpt>
      <trkpt lat="44.19795" lon="6.95358">
        <ele>1344</ele>
        <time>2013-09-21T07:32:57Z</time>
      </trkpt>
      <trkpt lat="44.19793" lon="6.95307">
        <ele>1347</ele>
        <time>2013-09-21T07:33:14Z</time>
      </trkpt>
      <trkpt lat="44.19788" lon="6.95254">
        <ele>1350</ele>
        <time>2013-09-21T07:33:31Z</time>
      </trkpt>
      <trkpt lat="44.19781" lon="6.95201">
        <ele>1351</ele>
        <time>2013-09-21T07:33:49Z</time>
      </trkpt>
      <trkpt lat="44.19785" lon="6.95155">
        <ele>1353</ele>
        <time>2013-09-21T07:34:05Z</time>
      </trkpt>
      <trkpt lat="44.19778" lon="6.95122">
        <ele>1354</ele>
        <time>2013-09-21T07:34:19Z</time>
      </trkpt>
      <trkpt lat="44.19754" lon="6.95099">
        <ele>1355</ele>
        <time>2013-09-21T07:34:37Z</time>
      </trkpt>
      <trkpt lat="44.19734" lon="6.95071">
        <ele>1357</ele>
        <time>2013-09-21T07:34:54Z</time>
      </trkpt>
      <trkpt lat="44.19714" lon="6.95034">
        <ele>1358</ele>
        <time>2013-09-21T07:35:13Z</time>
      </trkpt>
      <trkpt lat="44.19706" lon="6.94995">
        <ele>1361</ele>
        <time>2013-09-21T07:35:31Z</time>
      </trkpt>
      <trkpt lat="44.19689" lon="6.94954">
        <ele>1363</ele>
        <time>2013-09-21T07:35:51Z</time>
      </trkpt>
      <trkpt lat="44.19682" lon="6.94918">
        <ele>1366</ele>
        <time>2013-09-21T07:36:07Z</time>
      </trkpt>
      <trkpt lat="44.19665" lon="6.9489">
        <ele>1369</ele>
        <time>2013-09-21T07:36:22Z</time>
      </trkpt>
      <trkpt lat="44.19651" lon="6.94853">
        <ele>1373</ele>
        <time>2013-09-21T07:36:39Z</time>
      </trkpt>
      <trkpt lat="44.19634" lon="6.9481">
        <ele>1377</ele>
        <time>2013-09-21T07:37:00Z</time>
      </trkpt>
      <trkpt lat="44.19618" lon="6.94767">
        <ele>1380</ele>
        <time>2013-09-21T07:37:20Z</time>
      </trkpt>
      <trkpt lat="44.19604" lon="6.94723">
        <ele>1383</ele>
        <time>2013-09-21T07:37:40Z</time>
      </trkpt>
      <trkpt lat="44.196" lon="6.94684">
        <ele>1385</ele>
        <time>2013-09-21T07:37:56Z</time>
      </trkpt>
      <trkpt lat="44.19574" lon="6.94654">
        <ele>1388</ele>
        <time>2013-09-21T07:38:14Z</time>
      </trkpt>
      <trkpt lat="44.19555" lon="6.94605">
        <ele>1391</ele>
        <time>2013-09-21T07:38:36Z</time>
      </trkpt>
      <trkpt lat="44.19537" lon="6.9456">
        <ele>1393</ele>
        <time>2013-09-21T07:38:53Z</time>
      </trkpt>
      <trkpt lat="44.1952" lon="6.9454">
        <ele>1395</ele>
        <time>2013-09-21T07:39:04Z</time>
      </trkpt>
      <trkpt lat="44.19499" lon="6.94512">
        <ele>1398</ele>
        <time>2013-09-21T07:39:21Z</time>
      </trkpt>
      <trkpt lat="44.19494" lon="6.94467">
        <ele>1400</ele>
        <time>2013-09-21T07:39:38Z</time>
      </trkpt>
      <trkpt lat="44.19484" lon="6.9442">
        <ele>1402</ele>
        <time>2013-09-21T07:39:55Z</time>
      </trkpt>
      <trkpt lat="44.19472" lon="6.94378">
        <ele>1403</ele>
        <time>2013-09-21T07:40:11Z</time>
      </trkpt>
      <trkpt lat="44.1945" lon="6.94331">
        <ele>1405</ele>
        <time>2013-09-21T07:40:29Z</time>
      </trkpt>
      <trkpt lat="44.19437" lon="6.94292">
        <ele>1407</ele>
        <time>2013-09-21T07:40:44Z</time>
      </trkpt>
      <trkpt lat="44.19419" lon="6.94246">
        <ele>1410</ele>
        <time>2013-09-21T07:41:03Z</time>
      </trkpt>
      <trkpt lat="44.19395" lon="6.94202">
        <ele>1413</ele>
        <time>2013-09-21T07:41:22Z</time>
      </trkpt>
      <trkpt lat="44.19373" lon="6.94175">
        <ele>1416</ele>
        <time>2013-09-21T07:41:36Z</time>
      </trkpt>
      <trkpt lat="44.19345" lon="6.94137">
        <ele>1419</ele>
        <time>2013-09-21T07:41:55Z</time>
      </trkpt>
      <trkpt lat="44.19324" lon="6.94082">
        <ele>1422</ele>
        <time>2013-09-21T07:42:16Z</time>
      </trkpt>
      <trkpt lat="44.19305" lon="6.94039">
        <ele>1424</ele>
        <time>2013-09-21T07:42:32Z</time>
      </trkpt>
      <trkpt lat="44.19284" lon="6.94">
        <ele>1426</ele>
        <time>2013-09-21T07:42:49Z</time>
      </trkpt>
      <trkpt lat="44.19268" lon="6.93957">
        <ele>1428</ele>
        <time>2013-09-21T07:43:06Z</time>
      </trkpt>
      <trkpt lat="44.19252" lon="6.9392">
        <ele>1429</ele>
        <time>2013-09-21T07:43:21Z</time>
      </trkpt>
      <trkpt lat="44.19238" lon="6.93876">
        <ele>1431</ele>
        <time>2013-09-21T07:43:38Z</time>
      </trkpt>
      <trkpt lat="44.19222" lon="6.93836">
        <ele>1433</ele>
        <time>2013-09-21T07:43:54Z</time>
      </trkpt>
      <trkpt lat="44.1921" lon="6.93787">
        <ele>1436</ele>
        <time>2013-09-21T07:44:13Z</time>
      </trkpt>
      <trkpt lat="44.19193" lon="6.9375">
        <ele>1438</ele>
        <time>2013-09-21T07:44:30Z</time>
      </trkpt>
      <trkpt lat="44.19175" lon="6.93704">
        <ele>1441</ele>
        <time>2013-09-21T07:44:51Z</time>
      </trkpt>
      <trkpt lat="44.19162" lon="6.93665">
        <ele>1443</ele>
        <time>2013-09-21T07:45:08Z</time>
      </trkpt>
      <trkpt lat="44.19148" lon="6.9362">
        <ele>1446</ele>
        <time>2013-09-21T07:45:27Z</time>
      </trkpt>
      <trkpt lat="44.19145" lon="6.93567">
        <ele>1450</ele>
        <time>2013-09-21T07:45:47Z</time>
      </trkpt>
      <trkpt lat="44.1915" lon="6.93526">
        <ele>1452</ele>
        <time>2013-09-21T07:46:03Z</time>
      </trkpt>
      <trkpt lat="44.19137" lon="6.93488">
        <ele>1454</ele>
        <time>2013-09-21T07:46:19Z</time>
      </trkpt>
      <trkpt lat="44.19115" lon="6.93456">
        <ele>1457</ele>
        <time>2013-09-21T07:46:36Z</time>
      </trkpt>
      <trkpt lat="44.19102" lon="6.93417">
        <ele>1459</ele>
        <time>2013-09-21T07:46:54Z</time>
      </trkpt>
      <trkpt lat="44.19082" lon="6.93364">
        <ele>1463</ele>
        <time>2013-09-21T07:47:18Z</time>
      </trkpt>
      <trkpt lat="44.19074" lon="6.93326">
        <ele>1466</ele>
        <time>2013-09-21T07:47:34Z</time>
      </trkpt>
      <trkpt lat="44.1906" lon="6.93299">
        <ele>1468</ele>
        <time>2013-09-21T07:47:48Z</time>
      </trkpt>
      <trkpt lat="44.19041" lon="6.93258">
        <ele>1471</ele>
        <time>2013-09-21T07:48:07Z</time>
      </trkpt>
      <trkpt lat="44.19026" lon="6.93226">
        <ele>1473</ele>
        <time>2013-09-21T07:48:24Z</time>
      </trkpt>
      <trkpt lat="44.19023" lon="6.93184">
        <ele>1475</ele>
        <time>2013-09-21T07:48:41Z</time>
      </trkpt>
      <trkpt lat="44.19015" lon="6.93141">
        <ele>1477</ele>
        <time>2013-09-21T07:49:00Z</time>
      </trkpt>
      <trkpt lat="44.19001" lon="6.93101">
        <ele>1480</ele>
        <time>2013-09-21T07:49:18Z</time>
      </trkpt>
      <trkpt lat="44.18993" lon="6.93061">
        <ele>1482</ele>
        <time>2013-09-21T07:49:35Z</time>
      </trkpt>
      <trkpt lat="44.18986" lon="6.93027">
        <ele>1484</ele>
        <time>2013-09-21T07:49:49Z</time>
      </trkpt>
      <trkpt lat="44.18974" lon="6.92981">
        <ele>1488</ele>
        <time>2013-09-21T07:50:10Z</time>
      </trkpt>
      <trkpt lat="44.18955" lon="6.92943">
        <ele>1492</ele>
        <time>2013-09-21T07:50:29Z</time>
      </trkpt>
      <trkpt lat="44.18938" lon="6.929">
        <ele>1494</ele>
        <time>2013-09-21T07:50:49Z</time>
      </trkpt>
      <trkpt lat="44.18931" lon="6.92876">
        <ele>1495</ele>
        <time>2013-09-21T07:51:03Z</time>
      </trkpt>
      <trkpt lat="44.18932" lon="6.92873">
        <ele>1495</ele>
        <time>2013-09-21T07:51:09Z</time>
      </trkpt>
      <trkpt lat="44.18948" lon="6.92873">
        <ele>1525</ele>
        <time>2013-09-21T08:05:46Z</time>
      </trkpt>
      <trkpt lat="44.18954" lon="6.9286">
        <ele>1525</ele>
        <time>2013-09-21T08:05:55Z</time>
      </trkpt>
      <trkpt lat="44.18957" lon="6.92855">
        <ele>1525</ele>
        <time>2013-09-21T08:05:59Z</time>
      </trkpt>
      <trkpt lat="44.18961" lon="6.92833">
        <ele>1524</ele>
        <time>2013-09-21T08:06:15Z</time>
      </trkpt>
      <trkpt lat="44.18958" lon="6.92807">
        <ele>1524</ele>
        <time>2013-09-21T08:06:32Z</time>
      </trkpt>
      <trkpt lat="44.18959" lon="6.9279">
        <ele>1524</ele>
        <time>2013-09-21T08:06:43Z</time>
      </trkpt>
      <trkpt lat="44.18959" lon="6.92779">
        <ele>1524</ele>
        <time>2013-09-21T08:06:49Z</time>
      </trkpt>
      <trkpt lat="44.18961" lon="6.92756">
        <ele>1525</ele>
        <time>2013-09-21T08:07:04Z</time>
      </trkpt>
      <trkpt lat="44.18962" lon="6.9272">
        <ele>1526</ele>
        <time>2013-09-21T08:07:23Z</time>
      </trkpt>
      <trkpt lat="44.18969" lon="6.92692">
        <ele>1528</ele>
        <time>2013-09-21T08:07:37Z</time>
      </trkpt>
      <trkpt lat="44.18959" lon="6.92676">
        <ele>1529</ele>
        <time>2013-09-21T08:07:48Z</time>
      </trkpt>
      <trkpt lat="44.1895" lon="6.92639">
        <ele>1531</ele>
        <time>2013-09-21T08:08:07Z</time>
      </trkpt>
      <trkpt lat="44.18954" lon="6.92614">
        <ele>1532</ele>
        <time>2013-09-21T08:08:21Z</time>
      </trkpt>
      <trkpt lat="44.18961" lon="6.92618">
        <ele>1533</ele>
        <time>2013-09-21T08:08:26Z</time>
      </trkpt>
      <trkpt lat="44.1898" lon="6.92644">
        <ele>1535</ele>
        <time>2013-09-21T08:08:43Z</time>
      </trkpt>
      <trkpt lat="44.19006" lon="6.92676">
        <ele>1538</ele>
        <time>2013-09-21T08:09:04Z</time>
      </trkpt>
      <trkpt lat="44.19024" lon="6.92703">
        <ele>1540</ele>
        <time>2013-09-21T08:09:21Z</time>
      </trkpt>
      <trkpt lat="44.19034" lon="6.92719">
        <ele>1541</ele>
        <time>2013-09-21T08:09:31Z</time>
      </trkpt>
      <trkpt lat="44.19037" lon="6.92707">
        <ele>1542</ele>
        <time>2013-09-21T08:09:38Z</time>
      </trkpt>
      <trkpt lat="44.19031" lon="6.9269">
        <ele>1543</ele>
        <time>2013-09-21T08:09:48Z</time>
      </trkpt>
      <trkpt lat="44.19024" lon="6.92658">
        <ele>1546</ele>
        <time>2013-09-21T08:10:05Z</time>
      </trkpt>
      <trkpt lat="44.19025" lon="6.92615">
        <ele>1549</ele>
        <time>2013-09-21T08:10:27Z</time>
      </trkpt>
      <trkpt lat="44.19019" lon="6.92577">
        <ele>1552</ele>
        <time>2013-09-21T08:10:47Z</time>
      </trkpt>
      <trkpt lat="44.19018" lon="6.92564">
        <ele>1553</ele>
        <time>2013-09-21T08:10:53Z</time>
      </trkpt>
      <trkpt lat="44.19013" lon="6.92522">
        <ele>1557</ele>
        <time>2013-09-21T08:11:14Z</time>
      </trkpt>
      <trkpt lat="44.19007" lon="6.92479">
        <ele>1560</ele>
        <time>2013-09-21T08:11:35Z</time>
      </trkpt>
      <trkpt lat="44.19001" lon="6.9243">
        <ele>1564</ele>
        <time>2013-09-21T08:11:58Z</time>
      </trkpt>
      <trkpt lat="44.18996" lon="6.92389">
        <ele>1567</ele>
        <time>2013-09-21T08:12:18Z</time>
      </trkpt>
      <trkpt lat="44.18991" lon="6.92346">
        <ele>1570</ele>
        <time>2013-09-21T08:12:38Z</time>
      </trkpt>
      <trkpt lat="44.18985" lon="6.92313">
        <ele>1573</ele>
        <time>2013-09-21T08:12:54Z</time>
      </trkpt>
      <trkpt lat="44.18991" lon="6.92278">
        <ele>1575</ele>
        <time>2013-09-21T08:13:10Z</time>
      </trkpt>
      <trkpt lat="44.19001" lon="6.92229">
        <ele>1578</ele>
        <time>2013-09-21T08:13:32Z</time>
      </trkpt>
      <trkpt lat="44.18999" lon="6.92175">
        <ele>1582</ele>
        <time>2013-09-21T08:13:55Z</time>
      </trkpt>
      <trkpt lat="44.18983" lon="6.92129">
        <ele>1585</ele>
        <time>2013-09-21T08:14:16Z</time>
      </trkpt>
      <trkpt lat="44.18962" lon="6.9209">
        <ele>1588</ele>
        <time>2013-09-21T08:14:36Z</time>
      </trkpt>
      <trkpt lat="44.18947" lon="6.92049">
        <ele>1591</ele>
        <time>2013-09-21T08:14:54Z</time>
      </trkpt>
      <trkpt lat="44.18958" lon="6.92017">
        <ele>1592</ele>
        <time>2013-09-21T08:15:07Z</time>
      </trkpt>
      <trkpt lat="44.1897" lon="6.91988">
        <ele>1594</ele>
        <time>2013-09-21T08:15:20Z</time>
      </trkpt>
      <trkpt lat="44.18972" lon="6.91983">
        <ele>1596</ele>
        <time>2013-09-21T08:15:38Z</time>
      </trkpt>
      <trkpt lat="44.1897" lon="6.91984">
        <ele>1601</ele>
        <time>2013-09-21T08:16:39Z</time>
      </trkpt>
      <trkpt lat="44.18982" lon="6.91978">
        <ele>1601</ele>
        <time>2013-09-21T08:16:56Z</time>
      </trkpt>
      <trkpt lat="44.19018" lon="6.91947">
        <ele>1601</ele>
        <time>2013-09-21T08:17:09Z</time>
      </trkpt>
      <trkpt lat="44.19041" lon="6.91938">
        <ele>1600</ele>
        <time>2013-09-21T08:17:14Z</time>
      </trkpt>
      <trkpt lat="44.19043" lon="6.91912">
        <ele>1600</ele>
        <time>2013-09-21T08:17:19Z</time>
      </trkpt>
      <trkpt lat="44.19039" lon="6.91905">
        <ele>1600</ele>
        <time>2013-09-21T08:17:21Z</time>
      </trkpt>
      <trkpt lat="44.19019" lon="6.9189">
        <ele>1600</ele>
        <time>2013-09-21T08:17:29Z</time>
      </trkpt>
      <trkpt lat="44.19014" lon="6.91844">
        <ele>1600</ele>
        <time>2013-09-21T08:17:43Z</time>
      </trkpt>
      <trkpt lat="44.18998" lon="6.91809">
        <ele>1600</ele>
        <time>2013-09-21T08:17:55Z</time>
      </trkpt>
      <trkpt lat="44.18996" lon="6.91767">
        <ele>1601</ele>
        <time>2013-09-21T08:18:11Z</time>
      </trkpt>
      <trkpt lat="44.19003" lon="6.91723">
        <ele>1602</ele>
        <time>2013-09-21T08:18:28Z</time>
      </trkpt>
      <trkpt lat="44.19017" lon="6.91676">
        <ele>1603</ele>
        <time>2013-09-21T08:18:45Z</time>
      </trkpt>
      <trkpt lat="44.19016" lon="6.91613">
        <ele>1604</ele>
        <time>2013-09-21T08:18:57Z</time>
      </trkpt>
      <trkpt lat="44.19017" lon="6.91573">
        <ele>1604</ele>
        <time>2013-09-21T08:19:04Z</time>
      </trkpt>
      <trkpt lat="44.19025" lon="6.91561">
        <ele>1604</ele>
        <time>2013-09-21T08:19:07Z</time>
      </trkpt>
      <trkpt lat="44.19027" lon="6.91535">
        <ele>1604</ele>
        <time>2013-09-21T08:19:12Z</time>
      </trkpt>
      <trkpt lat="44.19024" lon="6.91482">
        <ele>1604</ele>
        <time>2013-09-21T08:19:19Z</time>
      </trkpt>
      <trkpt lat="44.19015" lon="6.91447">
        <ele>1604</ele>
        <time>2013-09-21T08:19:23Z</time>
      </trkpt>
      <trkpt lat="44.19006" lon="6.91425">
        <ele>1604</ele>
        <time>2013-09-21T08:19:27Z</time>
      </trkpt>
      <trkpt lat="44.19003" lon="6.9141">
        <ele>1604</ele>
        <time>2013-09-21T08:19:32Z</time>
      </trkpt>
      <trkpt lat="44.18992" lon="6.91388">
        <ele>1605</ele>
        <time>2013-09-21T08:19:44Z</time>
      </trkpt>
      <trkpt lat="44.18983" lon="6.91356">
        <ele>1608</ele>
        <time>2013-09-21T08:19:58Z</time>
      </trkpt>
      <trkpt lat="44.18989" lon="6.91318">
        <ele>1609</ele>
        <time>2013-09-21T08:20:07Z</time>
      </trkpt>
      <trkpt lat="44.19016" lon="6.91299">
        <ele>1610</ele>
        <time>2013-09-21T08:20:13Z</time>
      </trkpt>
      <trkpt lat="44.19029" lon="6.91297">
        <ele>1610</ele>
        <time>2013-09-21T08:20:16Z</time>
      </trkpt>
      <trkpt lat="44.19039" lon="6.91289">
        <ele>1610</ele>
        <time>2013-09-21T08:20:19Z</time>
      </trkpt>
      <trkpt lat="44.19032" lon="6.91256">
        <ele>1611</ele>
        <time>2013-09-21T08:20:26Z</time>
      </trkpt>
      <trkpt lat="44.18997" lon="6.91222">
        <ele>1612</ele>
        <time>2013-09-21T08:20:36Z</time>
      </trkpt>
      <trkpt lat="44.18987" lon="6.91209">
        <ele>1612</ele>
        <time>2013-09-21T08:20:39Z</time>
      </trkpt>
      <trkpt lat="44.1899" lon="6.91167">
        <ele>1612</ele>
        <time>2013-09-21T08:20:46Z</time>
      </trkpt>
      <trkpt lat="44.18997" lon="6.91144">
        <ele>1612</ele>
        <time>2013-09-21T08:20:50Z</time>
      </trkpt>
      <trkpt lat="44.19" lon="6.91129">
        <ele>1612</ele>
        <time>2013-09-21T08:20:53Z</time>
      </trkpt>
      <trkpt lat="44.19006" lon="6.9111">
        <ele>1612</ele>
        <time>2013-09-21T08:20:57Z</time>
      </trkpt>
      <trkpt lat="44.1904" lon="6.91074">
        <ele>1613</ele>
        <time>2013-09-21T08:21:10Z</time>
      </trkpt>
      <trkpt lat="44.19051" lon="6.91035">
        <ele>1614</ele>
        <time>2013-09-21T08:21:22Z</time>
      </trkpt>
      <trkpt lat="44.19058" lon="6.91007">
        <ele>1615</ele>
        <time>2013-09-21T08:21:34Z</time>
      </trkpt>
      <trkpt lat="44.19057" lon="6.91004">
        <ele>1615</ele>
        <time>2013-09-21T08:21:40Z</time>
      </trkpt>
      <trkpt lat="44.19057" lon="6.91002">
        <ele>1616</ele>
        <time>2013-09-21T08:21:49Z</time>
      </trkpt>
      <trkpt lat="44.19018" lon="6.90989">
        <ele>1613</ele>
        <time>2013-09-21T08:27:38Z</time>
      </trkpt>
      <trkpt lat="44.19017" lon="6.90987">
        <ele>1612</ele>
        <time>2013-09-21T08:27:42Z</time>
      </trkpt>
      <trkpt lat="44.18998" lon="6.9097">
        <ele>1611</ele>
        <time>2013-09-21T08:27:51Z</time>
      </trkpt>
      <trkpt lat="44.1899" lon="6.90954">
        <ele>1610</ele>
        <time>2013-09-21T08:27:56Z</time>
      </trkpt>
      <trkpt lat="44.18973" lon="6.90908">
        <ele>1609</ele>
        <time>2013-09-21T08:28:08Z</time>
      </trkpt>
      <trkpt lat="44.18967" lon="6.90898">
        <ele>1608</ele>
        <time>2013-09-21T08:28:14Z</time>
      </trkpt>
      <trkpt lat="44.18954" lon="6.9091">
        <ele>1600</ele>
        <time>2013-09-21T08:36:46Z</time>
      </trkpt>
      <trkpt lat="44.18948" lon="6.90912">
        <ele>1600</ele>
        <time>2013-09-21T08:36:54Z</time>
      </trkpt>
      <trkpt lat="44.18942" lon="6.90909">
        <ele>1601</ele>
        <time>2013-09-21T08:37:10Z</time>
      </trkpt>
      <trkpt lat="44.18936" lon="6.90907">
        <ele>1601</ele>
        <time>2013-09-21T08:37:21Z</time>
      </trkpt>
      <trkpt lat="44.18932" lon="6.90903">
        <ele>1601</ele>
        <time>2013-09-21T08:37:30Z</time>
      </trkpt>
      <trkpt lat="44.18926" lon="6.90887">
        <ele>1602</ele>
        <time>2013-09-21T08:37:47Z</time>
      </trkpt>
      <trkpt lat="44.18925" lon="6.90883">
        <ele>1602</ele>
        <time>2013-09-21T08:38:03Z</time>
      </trkpt>
      <trkpt lat="44.18924" lon="6.90867">
        <ele>1602</ele>
        <time>2013-09-21T08:38:32Z</time>
      </trkpt>
      <trkpt lat="44.18924" lon="6.90864">
        <ele>1602</ele>
        <time>2013-09-21T08:38:35Z</time>
      </trkpt>
      <trkpt lat="44.18924" lon="6.90862">
        <ele>1601</ele>
        <time>2013-09-21T08:38:38Z</time>
      </trkpt>
      <trkpt lat="44.18924" lon="6.90849">
        <ele>1601</ele>
        <time>2013-09-21T08:38:49Z</time>
      </trkpt>
      <trkpt lat="44.18924" lon="6.90841">
        <ele>1601</ele>
        <time>2013-09-21T08:38:54Z</time>
      </trkpt>
      <trkpt lat="44.18925" lon="6.90836">
        <ele>1601</ele>
        <time>2013-09-21T08:38:58Z</time>
      </trkpt>
      <trkpt lat="44.18928" lon="6.9083">
        <ele>1602</ele>
        <time>2013-09-21T08:39:05Z</time>
      </trkpt>
      <trkpt lat="44.18932" lon="6.90819">
        <ele>1603</ele>
        <time>2013-09-21T08:39:20Z</time>
      </trkpt>
      <trkpt lat="44.18932" lon="6.90799">
        <ele>1606</ele>
        <time>2013-09-21T08:39:41Z</time>
      </trkpt>
      <trkpt lat="44.18938" lon="6.90768">
        <ele>1611</ele>
        <time>2013-09-21T08:40:14Z</time>
      </trkpt>
      <trkpt lat="44.18936" lon="6.90762">
        <ele>1612</ele>
        <time>2013-09-21T08:40:22Z</time>
      </trkpt>
      <trkpt lat="44.18935" lon="6.90755">
        <ele>1614</ele>
        <time>2013-09-21T08:40:33Z</time>
      </trkpt>
      <trkpt lat="44.18934" lon="6.90736">
        <ele>1616</ele>
        <time>2013-09-21T08:40:57Z</time>
      </trkpt>
      <trkpt lat="44.18937" lon="6.90728">
        <ele>1618</ele>
        <time>2013-09-21T08:41:10Z</time>
      </trkpt>
      <trkpt lat="44.18942" lon="6.90708">
        <ele>1620</ele>
        <time>2013-09-21T08:41:37Z</time>
      </trkpt>
      <trkpt lat="44.18949" lon="6.90676">
        <ele>1623</ele>
        <time>2013-09-21T08:42:10Z</time>
      </trkpt>
      <trkpt lat="44.1895" lon="6.90666">
        <ele>1625</ele>
        <time>2013-09-21T08:42:23Z</time>
      </trkpt>
      <trkpt lat="44.18948" lon="6.90647">
        <ele>1627</ele>
        <time>2013-09-21T08:42:45Z</time>
      </trkpt>
      <trkpt lat="44.18948" lon="6.90623">
        <ele>1631</ele>
        <time>2013-09-21T08:43:16Z</time>
      </trkpt>
      <trkpt lat="44.18943" lon="6.90605">
        <ele>1637</ele>
        <time>2013-09-21T08:43:49Z</time>
      </trkpt>
      <trkpt lat="44.18936" lon="6.90603">
        <ele>1638</ele>
        <time>2013-09-21T08:44:04Z</time>
      </trkpt>
      <trkpt lat="44.18931" lon="6.90595">
        <ele>1640</ele>
        <time>2013-09-21T08:44:19Z</time>
      </trkpt>
      <trkpt lat="44.18927" lon="6.90589">
        <ele>1641</ele>
        <time>2013-09-21T08:44:30Z</time>
      </trkpt>
      <trkpt lat="44.18921" lon="6.90585">
        <ele>1642</ele>
        <time>2013-09-21T08:44:45Z</time>
      </trkpt>
      <trkpt lat="44.18915" lon="6.9059">
        <ele>1644</ele>
        <time>2013-09-21T08:44:57Z</time>
      </trkpt>
      <trkpt lat="44.18901" lon="6.90592">
        <ele>1646</ele>
        <time>2013-09-21T08:45:12Z</time>
      </trkpt>
      <trkpt lat="44.18892" lon="6.90594">
        <ele>1648</ele>
        <time>2013-09-21T08:45:26Z</time>
      </trkpt>
      <trkpt lat="44.18882" lon="6.90597">
        <ele>1649</ele>
        <time>2013-09-21T08:45:39Z</time>
      </trkpt>
      <trkpt lat="44.18875" lon="6.90596">
        <ele>1650</ele>
        <time>2013-09-21T08:45:51Z</time>
      </trkpt>
      <trkpt lat="44.18866" lon="6.90594">
        <ele>1651</ele>
        <time>2013-09-21T08:46:04Z</time>
      </trkpt>
      <trkpt lat="44.18858" lon="6.90592">
        <ele>1652</ele>
        <time>2013-09-21T08:46:18Z</time>
      </trkpt>
      <trkpt lat="44.18848" lon="6.90593">
        <ele>1654</ele>
        <time>2013-09-21T08:46:33Z</time>
      </trkpt>
      <trkpt lat="44.18834" lon="6.90596">
        <ele>1655</ele>
        <time>2013-09-21T08:46:57Z</time>
      </trkpt>
      <trkpt lat="44.18823" lon="6.90594">
        <ele>1656</ele>
        <time>2013-09-21T08:47:11Z</time>
      </trkpt>
      <trkpt lat="44.18815" lon="6.90592">
        <ele>1657</ele>
        <time>2013-09-21T08:47:27Z</time>
      </trkpt>
      <trkpt lat="44.18806" lon="6.90592">
        <ele>1658</ele>
        <time>2013-09-21T08:47:39Z</time>
      </trkpt>
      <trkpt lat="44.18792" lon="6.90593">
        <ele>1660</ele>
        <time>2013-09-21T08:47:56Z</time>
      </trkpt>
      <trkpt lat="44.18783" lon="6.90592">
        <ele>1661</ele>
        <time>2013-09-21T08:48:08Z</time>
      </trkpt>
      <trkpt lat="44.18777" lon="6.90587">
        <ele>1662</ele>
        <time>2013-09-21T08:48:18Z</time>
      </trkpt>
      <trkpt lat="44.18768" lon="6.9058">
        <ele>1663</ele>
        <time>2013-09-21T08:48:33Z</time>
      </trkpt>
      <trkpt lat="44.18765" lon="6.90566">
        <ele>1665</ele>
        <time>2013-09-21T08:48:56Z</time>
      </trkpt>
      <trkpt lat="44.1876" lon="6.90563">
        <ele>1666</ele>
        <time>2013-09-21T08:49:05Z</time>
      </trkpt>
      <trkpt lat="44.18754" lon="6.90557">
        <ele>1667</ele>
        <time>2013-09-21T08:49:19Z</time>
      </trkpt>
      <trkpt lat="44.18747" lon="6.90553">
        <ele>1668</ele>
        <time>2013-09-21T08:49:33Z</time>
      </trkpt>
      <trkpt lat="44.18748" lon="6.90548">
        <ele>1669</ele>
        <time>2013-09-21T08:49:45Z</time>
      </trkpt>
      <trkpt lat="44.18745" lon="6.90543">
        <ele>1670</ele>
        <time>2013-09-21T08:49:59Z</time>
      </trkpt>
      <trkpt lat="44.18739" lon="6.90542">
        <ele>1671</ele>
        <time>2013-09-21T08:50:09Z</time>
      </trkpt>
      <trkpt lat="44.18729" lon="6.90539">
        <ele>1672</ele>
        <time>2013-09-21T08:50:22Z</time>
      </trkpt>
      <trkpt lat="44.18723" lon="6.90535">
        <ele>1672</ele>
        <time>2013-09-21T08:50:32Z</time>
      </trkpt>
      <trkpt lat="44.18716" lon="6.90534">
        <ele>1673</ele>
        <time>2013-09-21T08:50:43Z</time>
      </trkpt>
      <trkpt lat="44.18707" lon="6.90531">
        <ele>1673</ele>
        <time>2013-09-21T08:50:55Z</time>
      </trkpt>
      <trkpt lat="44.18703" lon="6.90529">
        <ele>1674</ele>
        <time>2013-09-21T08:51:01Z</time>
      </trkpt>
      <trkpt lat="44.18698" lon="6.90526">
        <ele>1675</ele>
        <time>2013-09-21T08:51:11Z</time>
      </trkpt>
      <trkpt lat="44.1869" lon="6.90524">
        <ele>1677</ele>
        <time>2013-09-21T08:51:25Z</time>
      </trkpt>
      <trkpt lat="44.18687" lon="6.90521">
        <ele>1680</ele>
        <time>2013-09-21T08:51:46Z</time>
      </trkpt>
      <trkpt lat="44.18681" lon="6.90519">
        <ele>1681</ele>
        <time>2013-09-21T08:51:58Z</time>
      </trkpt>
      <trkpt lat="44.18673" lon="6.90519">
        <ele>1684</ele>
        <time>2013-09-21T08:52:10Z</time>
      </trkpt>
      <trkpt lat="44.18666" lon="6.90517">
        <ele>1686</ele>
        <time>2013-09-21T08:52:22Z</time>
      </trkpt>
      <trkpt lat="44.1866" lon="6.90513">
        <ele>1689</ele>
        <time>2013-09-21T08:52:36Z</time>
      </trkpt>
      <trkpt lat="44.18654" lon="6.90505">
        <ele>1691</ele>
        <time>2013-09-21T08:52:47Z</time>
      </trkpt>
      <trkpt lat="44.18648" lon="6.90502">
        <ele>1694</ele>
        <time>2013-09-21T08:53:00Z</time>
      </trkpt>
      <trkpt lat="44.18639" lon="6.90497">
        <ele>1697</ele>
        <time>2013-09-21T08:53:17Z</time>
      </trkpt>
      <trkpt lat="44.18632" lon="6.90492">
        <ele>1700</ele>
        <time>2013-09-21T08:53:29Z</time>
      </trkpt>
      <trkpt lat="44.18625" lon="6.90484">
        <ele>1704</ele>
        <time>2013-09-21T08:53:51Z</time>
      </trkpt>
      <trkpt lat="44.18621" lon="6.90477">
        <ele>1706</ele>
        <time>2013-09-21T08:54:05Z</time>
      </trkpt>
      <trkpt lat="44.1862" lon="6.90472">
        <ele>1708</ele>
        <time>2013-09-21T08:54:17Z</time>
      </trkpt>
      <trkpt lat="44.18612" lon="6.90462">
        <ele>1711</ele>
        <time>2013-09-21T08:54:38Z</time>
      </trkpt>
      <trkpt lat="44.1861" lon="6.90461">
        <ele>1712</ele>
        <time>2013-09-21T08:54:41Z</time>
      </trkpt>
      <trkpt lat="44.18601" lon="6.90454">
        <ele>1714</ele>
        <time>2013-09-21T08:54:54Z</time>
      </trkpt>
      <trkpt lat="44.18594" lon="6.90446">
        <ele>1716</ele>
        <time>2013-09-21T08:55:09Z</time>
      </trkpt>
      <trkpt lat="44.18588" lon="6.90442">
        <ele>1718</ele>
        <time>2013-09-21T08:55:20Z</time>
      </trkpt>
      <trkpt lat="44.18579" lon="6.90437">
        <ele>1721</ele>
        <time>2013-09-21T08:55:32Z</time>
      </trkpt>
      <trkpt lat="44.18573" lon="6.90436">
        <ele>1723</ele>
        <time>2013-09-21T08:55:42Z</time>
      </trkpt>
      <trkpt lat="44.18568" lon="6.90432">
        <ele>1725</ele>
        <time>2013-09-21T08:55:54Z</time>
      </trkpt>
      <trkpt lat="44.18565" lon="6.90426">
        <ele>1727</ele>
        <time>2013-09-21T08:56:07Z</time>
      </trkpt>
      <trkpt lat="44.1856" lon="6.90423">
        <ele>1729</ele>
        <time>2013-09-21T08:56:19Z</time>
      </trkpt>
      <trkpt lat="44.18556" lon="6.90421">
        <ele>1731</ele>
        <time>2013-09-21T08:56:31Z</time>
      </trkpt>
      <trkpt lat="44.18548" lon="6.90416">
        <ele>1734</ele>
        <time>2013-09-21T08:56:47Z</time>
      </trkpt>
      <trkpt lat="44.18535" lon="6.90414">
        <ele>1737</ele>
        <time>2013-09-21T08:57:08Z</time>
      </trkpt>
      <trkpt lat="44.18529" lon="6.90415">
        <ele>1738</ele>
        <time>2013-09-21T08:57:18Z</time>
      </trkpt>
      <trkpt lat="44.18518" lon="6.90411">
        <ele>1741</ele>
        <time>2013-09-21T08:57:41Z</time>
      </trkpt>
      <trkpt lat="44.18514" lon="6.90408">
        <ele>1742</ele>
        <time>2013-09-21T08:57:48Z</time>
      </trkpt>
      <trkpt lat="44.1851" lon="6.90402">
        <ele>1744</ele>
        <time>2013-09-21T08:58:04Z</time>
      </trkpt>
      <trkpt lat="44.18505" lon="6.90399">
        <ele>1745</ele>
        <time>2013-09-21T08:58:14Z</time>
      </trkpt>
      <trkpt lat="44.185" lon="6.90394">
        <ele>1746</ele>
        <time>2013-09-21T08:58:26Z</time>
      </trkpt>
      <trkpt lat="44.18495" lon="6.90389">
        <ele>1746</ele>
        <time>2013-09-21T08:58:34Z</time>
      </trkpt>
      <trkpt lat="44.18491" lon="6.90385">
        <ele>1747</ele>
        <time>2013-09-21T08:58:39Z</time>
      </trkpt>
      <trkpt lat="44.18493" lon="6.90382">
        <ele>1748</ele>
        <time>2013-09-21T08:58:52Z</time>
      </trkpt>
      <trkpt lat="44.18502" lon="6.90377">
        <ele>1751</ele>
        <time>2013-09-21T08:59:16Z</time>
      </trkpt>
      <trkpt lat="44.18499" lon="6.90372">
        <ele>1754</ele>
        <time>2013-09-21T08:59:30Z</time>
      </trkpt>
      <trkpt lat="44.18492" lon="6.90366">
        <ele>1756</ele>
        <time>2013-09-21T08:59:39Z</time>
      </trkpt>
      <trkpt lat="44.18491" lon="6.90361">
        <ele>1758</ele>
        <time>2013-09-21T08:59:50Z</time>
      </trkpt>
      <trkpt lat="44.18494" lon="6.9036">
        <ele>1760</ele>
        <time>2013-09-21T08:59:58Z</time>
      </trkpt>
      <trkpt lat="44.18498" lon="6.9036">
        <ele>1762</ele>
        <time>2013-09-21T09:00:08Z</time>
      </trkpt>
      <trkpt lat="44.18499" lon="6.90355">
        <ele>1764</ele>
        <time>2013-09-21T09:00:19Z</time>
      </trkpt>
      <trkpt lat="44.18498" lon="6.90347">
        <ele>1766</ele>
        <time>2013-09-21T09:00:41Z</time>
      </trkpt>
      <trkpt lat="44.18503" lon="6.90347">
        <ele>1766</ele>
        <time>2013-09-21T09:00:48Z</time>
      </trkpt>
      <trkpt lat="44.1851" lon="6.90351">
        <ele>1767</ele>
        <time>2013-09-21T09:01:00Z</time>
      </trkpt>
      <trkpt lat="44.18518" lon="6.90351">
        <ele>1769</ele>
        <time>2013-09-21T09:01:15Z</time>
      </trkpt>
      <trkpt lat="44.18514" lon="6.90345">
        <ele>1770</ele>
        <time>2013-09-21T09:01:28Z</time>
      </trkpt>
      <trkpt lat="44.18496" lon="6.90318">
        <ele>1772</ele>
        <time>2013-09-21T09:02:22Z</time>
      </trkpt>
      <trkpt lat="44.18493" lon="6.90315">
        <ele>1773</ele>
        <time>2013-09-21T09:02:30Z</time>
      </trkpt>
      <trkpt lat="44.18486" lon="6.90312">
        <ele>1774</ele>
        <time>2013-09-21T09:02:40Z</time>
      </trkpt>
      <trkpt lat="44.18478" lon="6.90308">
        <ele>1775</ele>
        <time>2013-09-21T09:02:56Z</time>
      </trkpt>
      <trkpt lat="44.18471" lon="6.90306">
        <ele>1777</ele>
        <time>2013-09-21T09:03:13Z</time>
      </trkpt>
      <trkpt lat="44.18463" lon="6.90307">
        <ele>1778</ele>
        <time>2013-09-21T09:03:26Z</time>
      </trkpt>
      <trkpt lat="44.18456" lon="6.90309">
        <ele>1780</ele>
        <time>2013-09-21T09:03:44Z</time>
      </trkpt>
      <trkpt lat="44.1845" lon="6.90313">
        <ele>1782</ele>
        <time>2013-09-21T09:03:58Z</time>
      </trkpt>
      <trkpt lat="44.18446" lon="6.90322">
        <ele>1784</ele>
        <time>2013-09-21T09:04:12Z</time>
      </trkpt>
      <trkpt lat="44.18443" lon="6.90328">
        <ele>1785</ele>
        <time>2013-09-21T09:04:24Z</time>
      </trkpt>
      <trkpt lat="44.18434" lon="6.90325">
        <ele>1788</ele>
        <time>2013-09-21T09:04:51Z</time>
      </trkpt>
      <trkpt lat="44.18431" lon="6.90319">
        <ele>1789</ele>
        <time>2013-09-21T09:05:01Z</time>
      </trkpt>
      <trkpt lat="44.18423" lon="6.90318">
        <ele>1789</ele>
        <time>2013-09-21T09:05:10Z</time>
      </trkpt>
      <trkpt lat="44.18421" lon="6.90321">
        <ele>1788</ele>
        <time>2013-09-21T09:05:15Z</time>
      </trkpt>
      <trkpt lat="44.18419" lon="6.90328">
        <ele>1788</ele>
        <time>2013-09-21T09:05:27Z</time>
      </trkpt>
      <trkpt lat="44.18422" lon="6.90341">
        <ele>1788</ele>
        <time>2013-09-21T09:05:41Z</time>
      </trkpt>
      <trkpt lat="44.18423" lon="6.90348">
        <ele>1788</ele>
        <time>2013-09-21T09:05:54Z</time>
      </trkpt>
      <trkpt lat="44.18418" lon="6.90359">
        <ele>1789</ele>
        <time>2013-09-21T09:06:08Z</time>
      </trkpt>
      <trkpt lat="44.1841" lon="6.9037">
        <ele>1792</ele>
        <time>2013-09-21T09:06:26Z</time>
      </trkpt>
      <trkpt lat="44.18401" lon="6.90379">
        <ele>1795</ele>
        <time>2013-09-21T09:06:46Z</time>
      </trkpt>
      <trkpt lat="44.18397" lon="6.90384">
        <ele>1798</ele>
        <time>2013-09-21T09:07:01Z</time>
      </trkpt>
      <trkpt lat="44.18389" lon="6.90393">
        <ele>1805</ele>
        <time>2013-09-21T09:07:28Z</time>
      </trkpt>
      <trkpt lat="44.18385" lon="6.904">
        <ele>1809</ele>
        <time>2013-09-21T09:07:39Z</time>
      </trkpt>
      <trkpt lat="44.18383" lon="6.90397">
        <ele>1812</ele>
        <time>2013-09-21T09:07:51Z</time>
      </trkpt>
      <trkpt lat="44.18392" lon="6.90391">
        <ele>1816</ele>
        <time>2013-09-21T09:08:05Z</time>
      </trkpt>
      <trkpt lat="44.18395" lon="6.90382">
        <ele>1818</ele>
        <time>2013-09-21T09:08:15Z</time>
      </trkpt>
      <trkpt lat="44.18395" lon="6.90373">
        <ele>1821</ele>
        <time>2013-09-21T09:08:26Z</time>
      </trkpt>
      <trkpt lat="44.18386" lon="6.90362">
        <ele>1823</ele>
        <time>2013-09-21T09:08:35Z</time>
      </trkpt>
      <trkpt lat="44.18388" lon="6.90353">
        <ele>1824</ele>
        <time>2013-09-21T09:08:48Z</time>
      </trkpt>
      <trkpt lat="44.1839" lon="6.90347">
        <ele>1826</ele>
        <time>2013-09-21T09:08:59Z</time>
      </trkpt>
      <trkpt lat="44.18383" lon="6.90341">
        <ele>1828</ele>
        <time>2013-09-21T09:09:12Z</time>
      </trkpt>
      <trkpt lat="44.18379" lon="6.90336">
        <ele>1829</ele>
        <time>2013-09-21T09:09:21Z</time>
      </trkpt>
      <trkpt lat="44.18378" lon="6.90333">
        <ele>1829</ele>
        <time>2013-09-21T09:09:24Z</time>
      </trkpt>
      <trkpt lat="44.18378" lon="6.90327">
        <ele>1831</ele>
        <time>2013-09-21T09:09:33Z</time>
      </trkpt>
      <trkpt lat="44.18371" lon="6.90323">
        <ele>1832</ele>
        <time>2013-09-21T09:09:44Z</time>
      </trkpt>
      <trkpt lat="44.18372" lon="6.90314">
        <ele>1834</ele>
        <time>2013-09-21T09:09:57Z</time>
      </trkpt>
      <trkpt lat="44.18367" lon="6.9031">
        <ele>1837</ele>
        <time>2013-09-21T09:10:12Z</time>
      </trkpt>
      <trkpt lat="44.18365" lon="6.90302">
        <ele>1838</ele>
        <time>2013-09-21T09:10:23Z</time>
      </trkpt>
      <trkpt lat="44.18361" lon="6.90302">
        <ele>1840</ele>
        <time>2013-09-21T09:10:41Z</time>
      </trkpt>
      <trkpt lat="44.18354" lon="6.90301">
        <ele>1841</ele>
        <time>2013-09-21T09:10:56Z</time>
      </trkpt>
      <trkpt lat="44.18348" lon="6.90315">
        <ele>1843</ele>
        <time>2013-09-21T09:11:12Z</time>
      </trkpt>
      <trkpt lat="44.18346" lon="6.90305">
        <ele>1845</ele>
        <time>2013-09-21T09:11:26Z</time>
      </trkpt>
      <trkpt lat="44.18338" lon="6.90307">
        <ele>1847</ele>
        <time>2013-09-21T09:11:42Z</time>
      </trkpt>
      <trkpt lat="44.18333" lon="6.90302">
        <ele>1848</ele>
        <time>2013-09-21T09:11:54Z</time>
      </trkpt>
      <trkpt lat="44.1832" lon="6.90301">
        <ele>1850</ele>
        <time>2013-09-21T09:12:13Z</time>
      </trkpt>
      <trkpt lat="44.18314" lon="6.90304">
        <ele>1852</ele>
        <time>2013-09-21T09:12:30Z</time>
      </trkpt>
      <trkpt lat="44.18309" lon="6.903">
        <ele>1853</ele>
        <time>2013-09-21T09:12:40Z</time>
      </trkpt>
      <trkpt lat="44.18306" lon="6.90293">
        <ele>1854</ele>
        <time>2013-09-21T09:12:49Z</time>
      </trkpt>
      <trkpt lat="44.18299" lon="6.9028">
        <ele>1855</ele>
        <time>2013-09-21T09:13:06Z</time>
      </trkpt>
      <trkpt lat="44.18298" lon="6.90268">
        <ele>1857</ele>
        <time>2013-09-21T09:13:21Z</time>
      </trkpt>
      <trkpt lat="44.18309" lon="6.90262">
        <ele>1859</ele>
        <time>2013-09-21T09:13:40Z</time>
      </trkpt>
      <trkpt lat="44.18316" lon="6.9025">
        <ele>1862</ele>
        <time>2013-09-21T09:13:58Z</time>
      </trkpt>
      <trkpt lat="44.18306" lon="6.90243">
        <ele>1863</ele>
        <time>2013-09-21T09:14:15Z</time>
      </trkpt>
      <trkpt lat="44.18299" lon="6.90238">
        <ele>1865</ele>
        <time>2013-09-21T09:14:33Z</time>
      </trkpt>
      <trkpt lat="44.18289" lon="6.90229">
        <ele>1867</ele>
        <time>2013-09-21T09:14:53Z</time>
      </trkpt>
      <trkpt lat="44.18282" lon="6.90219">
        <ele>1868</ele>
        <time>2013-09-21T09:15:11Z</time>
      </trkpt>
      <trkpt lat="44.18277" lon="6.90205">
        <ele>1870</ele>
        <time>2013-09-21T09:15:30Z</time>
      </trkpt>
      <trkpt lat="44.1827" lon="6.90197">
        <ele>1872</ele>
        <time>2013-09-21T09:15:44Z</time>
      </trkpt>
      <trkpt lat="44.18256" lon="6.90185">
        <ele>1875</ele>
        <time>2013-09-21T09:16:04Z</time>
      </trkpt>
      <trkpt lat="44.18245" lon="6.90173">
        <ele>1877</ele>
        <time>2013-09-21T09:16:22Z</time>
      </trkpt>
      <trkpt lat="44.18242" lon="6.90169">
        <ele>1878</ele>
        <time>2013-09-21T09:16:29Z</time>
      </trkpt>
      <trkpt lat="44.18237" lon="6.90164">
        <ele>1879</ele>
        <time>2013-09-21T09:16:43Z</time>
      </trkpt>
      <trkpt lat="44.18229" lon="6.90171">
        <ele>1881</ele>
        <time>2013-09-21T09:17:07Z</time>
      </trkpt>
      <trkpt lat="44.18217" lon="6.90181">
        <ele>1882</ele>
        <time>2013-09-21T09:17:26Z</time>
      </trkpt>
      <trkpt lat="44.18209" lon="6.90188">
        <ele>1883</ele>
        <time>2013-09-21T09:17:41Z</time>
      </trkpt>
      <trkpt lat="44.182" lon="6.90189">
        <ele>1885</ele>
        <time>2013-09-21T09:17:57Z</time>
      </trkpt>
      <trkpt lat="44.18194" lon="6.90187">
        <ele>1886</ele>
        <time>2013-09-21T09:18:09Z</time>
      </trkpt>
      <trkpt lat="44.18185" lon="6.90183">
        <ele>1888</ele>
        <time>2013-09-21T09:18:28Z</time>
      </trkpt>
      <trkpt lat="44.18178" lon="6.90179">
        <ele>1889</ele>
        <time>2013-09-21T09:18:45Z</time>
      </trkpt>
      <trkpt lat="44.1817" lon="6.90176">
        <ele>1891</ele>
        <time>2013-09-21T09:19:00Z</time>
      </trkpt>
      <trkpt lat="44.18163" lon="6.90171">
        <ele>1892</ele>
        <time>2013-09-21T09:19:15Z</time>
      </trkpt>
      <trkpt lat="44.18159" lon="6.90163">
        <ele>1892</ele>
        <time>2013-09-21T09:19:29Z</time>
      </trkpt>
      <trkpt lat="44.18155" lon="6.90154">
        <ele>1892</ele>
        <time>2013-09-21T09:19:45Z</time>
      </trkpt>
      <trkpt lat="44.1815" lon="6.90148">
        <ele>1892</ele>
        <time>2013-09-21T09:19:58Z</time>
      </trkpt>
      <trkpt lat="44.18145" lon="6.90141">
        <ele>1892</ele>
        <time>2013-09-21T09:20:14Z</time>
      </trkpt>
      <trkpt lat="44.18142" lon="6.90135">
        <ele>1893</ele>
        <time>2013-09-21T09:20:27Z</time>
      </trkpt>
      <trkpt lat="44.18137" lon="6.90127">
        <ele>1894</ele>
        <time>2013-09-21T09:20:41Z</time>
      </trkpt>
      <trkpt lat="44.18129" lon="6.90121">
        <ele>1895</ele>
        <time>2013-09-21T09:20:55Z</time>
      </trkpt>
      <trkpt lat="44.18118" lon="6.90112">
        <ele>1897</ele>
        <time>2013-09-21T09:21:15Z</time>
      </trkpt>
      <trkpt lat="44.18107" lon="6.90104">
        <ele>1899</ele>
        <time>2013-09-21T09:21:34Z</time>
      </trkpt>
      <trkpt lat="44.18098" lon="6.90099">
        <ele>1901</ele>
        <time>2013-09-21T09:21:48Z</time>
      </trkpt>
      <trkpt lat="44.18086" lon="6.9009">
        <ele>1904</ele>
        <time>2013-09-21T09:22:06Z</time>
      </trkpt>
      <trkpt lat="44.18078" lon="6.90078">
        <ele>1906</ele>
        <time>2013-09-21T09:22:22Z</time>
      </trkpt>
      <trkpt lat="44.18072" lon="6.90068">
        <ele>1909</ele>
        <time>2013-09-21T09:22:38Z</time>
      </trkpt>
      <trkpt lat="44.18064" lon="6.90057">
        <ele>1911</ele>
        <time>2013-09-21T09:22:53Z</time>
      </trkpt>
      <trkpt lat="44.18059" lon="6.90047">
        <ele>1912</ele>
        <time>2013-09-21T09:23:03Z</time>
      </trkpt>
      <trkpt lat="44.18056" lon="6.90039">
        <ele>1913</ele>
        <time>2013-09-21T09:23:11Z</time>
      </trkpt>
      <trkpt lat="44.18049" lon="6.90022">
        <ele>1915</ele>
        <time>2013-09-21T09:23:28Z</time>
      </trkpt>
      <trkpt lat="44.18045" lon="6.90013">
        <ele>1916</ele>
        <time>2013-09-21T09:23:46Z</time>
      </trkpt>
      <trkpt lat="44.18041" lon="6.89993">
        <ele>1916</ele>
        <time>2013-09-21T09:24:04Z</time>
      </trkpt>
      <trkpt lat="44.18032" lon="6.8998">
        <ele>1917</ele>
        <time>2013-09-21T09:24:23Z</time>
      </trkpt>
      <trkpt lat="44.18026" lon="6.89966">
        <ele>1918</ele>
        <time>2013-09-21T09:24:38Z</time>
      </trkpt>
      <trkpt lat="44.18019" lon="6.89952">
        <ele>1919</ele>
        <time>2013-09-21T09:24:54Z</time>
      </trkpt>
      <trkpt lat="44.18009" lon="6.89941">
        <ele>1921</ele>
        <time>2013-09-21T09:25:11Z</time>
      </trkpt>
      <trkpt lat="44.18006" lon="6.89926">
        <ele>1923</ele>
        <time>2013-09-21T09:25:27Z</time>
      </trkpt>
      <trkpt lat="44.17997" lon="6.89913">
        <ele>1924</ele>
        <time>2013-09-21T09:25:45Z</time>
      </trkpt>
      <trkpt lat="44.17991" lon="6.89899">
        <ele>1926</ele>
        <time>2013-09-21T09:26:01Z</time>
      </trkpt>
      <trkpt lat="44.17991" lon="6.89882">
        <ele>1927</ele>
        <time>2013-09-21T09:26:17Z</time>
      </trkpt>
      <trkpt lat="44.17983" lon="6.89868">
        <ele>1929</ele>
        <time>2013-09-21T09:26:34Z</time>
      </trkpt>
      <trkpt lat="44.17978" lon="6.89854">
        <ele>1930</ele>
        <time>2013-09-21T09:26:50Z</time>
      </trkpt>
      <trkpt lat="44.17968" lon="6.89849">
        <ele>1932</ele>
        <time>2013-09-21T09:27:05Z</time>
      </trkpt>
      <trkpt lat="44.17966" lon="6.89837">
        <ele>1934</ele>
        <time>2013-09-21T09:27:18Z</time>
      </trkpt>
      <trkpt lat="44.17966" lon="6.89825">
        <ele>1935</ele>
        <time>2013-09-21T09:27:32Z</time>
      </trkpt>
      <trkpt lat="44.17964" lon="6.89814">
        <ele>1937</ele>
        <time>2013-09-21T09:27:46Z</time>
      </trkpt>
      <trkpt lat="44.1796" lon="6.89799">
        <ele>1939</ele>
        <time>2013-09-21T09:28:03Z</time>
      </trkpt>
      <trkpt lat="44.17959" lon="6.8979">
        <ele>1941</ele>
        <time>2013-09-21T09:28:15Z</time>
      </trkpt>
      <trkpt lat="44.17956" lon="6.89782">
        <ele>1942</ele>
        <time>2013-09-21T09:28:26Z</time>
      </trkpt>
      <trkpt lat="44.17951" lon="6.89772">
        <ele>1944</ele>
        <time>2013-09-21T09:28:36Z</time>
      </trkpt>
      <trkpt lat="44.17942" lon="6.89759">
        <ele>1945</ele>
        <time>2013-09-21T09:28:51Z</time>
      </trkpt>
      <trkpt lat="44.17937" lon="6.89746">
        <ele>1947</ele>
        <time>2013-09-21T09:29:08Z</time>
      </trkpt>
      <trkpt lat="44.17931" lon="6.89737">
        <ele>1948</ele>
        <time>2013-09-21T09:29:22Z</time>
      </trkpt>
      <trkpt lat="44.17925" lon="6.89732">
        <ele>1949</ele>
        <time>2013-09-21T09:29:35Z</time>
      </trkpt>
      <trkpt lat="44.17916" lon="6.89736">
        <ele>1950</ele>
        <time>2013-09-21T09:29:51Z</time>
      </trkpt>
      <trkpt lat="44.17908" lon="6.89741">
        <ele>1952</ele>
        <time>2013-09-21T09:30:06Z</time>
      </trkpt>
      <trkpt lat="44.17902" lon="6.89747">
        <ele>1953</ele>
        <time>2013-09-21T09:30:18Z</time>
      </trkpt>
      <trkpt lat="44.17897" lon="6.89753">
        <ele>1954</ele>
        <time>2013-09-21T09:30:32Z</time>
      </trkpt>
      <trkpt lat="44.17897" lon="6.89764">
        <ele>1956</ele>
        <time>2013-09-21T09:30:49Z</time>
      </trkpt>
      <trkpt lat="44.17896" lon="6.8978">
        <ele>1957</ele>
        <time>2013-09-21T09:31:08Z</time>
      </trkpt>
      <trkpt lat="44.17891" lon="6.89793">
        <ele>1958</ele>
        <time>2013-09-21T09:31:25Z</time>
      </trkpt>
      <trkpt lat="44.17886" lon="6.89804">
        <ele>1959</ele>
        <time>2013-09-21T09:31:43Z</time>
      </trkpt>
      <trkpt lat="44.17878" lon="6.89814">
        <ele>1961</ele>
        <time>2013-09-21T09:31:59Z</time>
      </trkpt>
      <trkpt lat="44.17875" lon="6.89828">
        <ele>1963</ele>
        <time>2013-09-21T09:32:17Z</time>
      </trkpt>
      <trkpt lat="44.1787" lon="6.89838">
        <ele>1964</ele>
        <time>2013-09-21T09:32:32Z</time>
      </trkpt>
      <trkpt lat="44.17859" lon="6.89847">
        <ele>1967</ele>
        <time>2013-09-21T09:32:51Z</time>
      </trkpt>
      <trkpt lat="44.17852" lon="6.89851">
        <ele>1968</ele>
        <time>2013-09-21T09:33:06Z</time>
      </trkpt>
      <trkpt lat="44.17848" lon="6.89857">
        <ele>1970</ele>
        <time>2013-09-21T09:33:20Z</time>
      </trkpt>
      <trkpt lat="44.17837" lon="6.89864">
        <ele>1972</ele>
        <time>2013-09-21T09:33:38Z</time>
      </trkpt>
      <trkpt lat="44.17826" lon="6.89873">
        <ele>1974</ele>
        <time>2013-09-21T09:33:56Z</time>
      </trkpt>
      <trkpt lat="44.17819" lon="6.89887">
        <ele>1976</ele>
        <time>2013-09-21T09:34:16Z</time>
      </trkpt>
      <trkpt lat="44.17813" lon="6.89894">
        <ele>1977</ele>
        <time>2013-09-21T09:34:31Z</time>
      </trkpt>
      <trkpt lat="44.17807" lon="6.899">
        <ele>1979</ele>
        <time>2013-09-21T09:34:43Z</time>
      </trkpt>
      <trkpt lat="44.17799" lon="6.89902">
        <ele>1980</ele>
        <time>2013-09-21T09:34:57Z</time>
      </trkpt>
      <trkpt lat="44.17796" lon="6.89909">
        <ele>1982</ele>
        <time>2013-09-21T09:35:10Z</time>
      </trkpt>
      <trkpt lat="44.17796" lon="6.89923">
        <ele>1983</ele>
        <time>2013-09-21T09:35:26Z</time>
      </trkpt>
      <trkpt lat="44.17797" lon="6.89932">
        <ele>1984</ele>
        <time>2013-09-21T09:35:34Z</time>
      </trkpt>
      <trkpt lat="44.17801" lon="6.8994">
        <ele>1984</ele>
        <time>2013-09-21T09:35:43Z</time>
      </trkpt>
      <trkpt lat="44.17805" lon="6.89949">
        <ele>1985</ele>
        <time>2013-09-21T09:35:56Z</time>
      </trkpt>
      <trkpt lat="44.17811" lon="6.89959">
        <ele>1986</ele>
        <time>2013-09-21T09:36:11Z</time>
      </trkpt>
      <trkpt lat="44.17815" lon="6.89969">
        <ele>1987</ele>
        <time>2013-09-21T09:36:25Z</time>
      </trkpt>
      <trkpt lat="44.1782" lon="6.89984">
        <ele>1989</ele>
        <time>2013-09-21T09:36:46Z</time>
      </trkpt>
      <trkpt lat="44.17822" lon="6.89992">
        <ele>1990</ele>
        <time>2013-09-21T09:36:55Z</time>
      </trkpt>
      <trkpt lat="44.17826" lon="6.90008">
        <ele>1992</ele>
        <time>2013-09-21T09:37:12Z</time>
      </trkpt>
      <trkpt lat="44.17827" lon="6.90017">
        <ele>1994</ele>
        <time>2013-09-21T09:37:29Z</time>
      </trkpt>
      <trkpt lat="44.17827" lon="6.90029">
        <ele>1996</ele>
        <time>2013-09-21T09:37:46Z</time>
      </trkpt>
      <trkpt lat="44.17822" lon="6.90036">
        <ele>1997</ele>
        <time>2013-09-21T09:37:59Z</time>
      </trkpt>
      <trkpt lat="44.17811" lon="6.90036">
        <ele>1999</ele>
        <time>2013-09-21T09:38:15Z</time>
      </trkpt>
      <trkpt lat="44.17801" lon="6.9003">
        <ele>2002</ele>
        <time>2013-09-21T09:38:31Z</time>
      </trkpt>
      <trkpt lat="44.17795" lon="6.90028">
        <ele>2003</ele>
        <time>2013-09-21T09:38:41Z</time>
      </trkpt>
      <trkpt lat="44.17786" lon="6.90022">
        <ele>2005</ele>
        <time>2013-09-21T09:38:57Z</time>
      </trkpt>
      <trkpt lat="44.17776" lon="6.90015">
        <ele>2007</ele>
        <time>2013-09-21T09:39:14Z</time>
      </trkpt>
      <trkpt lat="44.17766" lon="6.90004">
        <ele>2009</ele>
        <time>2013-09-21T09:39:32Z</time>
      </trkpt>
      <trkpt lat="44.1776" lon="6.89995">
        <ele>2010</ele>
        <time>2013-09-21T09:39:46Z</time>
      </trkpt>
      <trkpt lat="44.17752" lon="6.89987">
        <ele>2010</ele>
        <time>2013-09-21T09:40:00Z</time>
      </trkpt>
      <trkpt lat="44.17741" lon="6.89982">
        <ele>2012</ele>
        <time>2013-09-21T09:40:17Z</time>
      </trkpt>
      <trkpt lat="44.1773" lon="6.89975">
        <ele>2013</ele>
        <time>2013-09-21T09:40:34Z</time>
      </trkpt>
      <trkpt lat="44.1772" lon="6.89971">
        <ele>2016</ele>
        <time>2013-09-21T09:40:52Z</time>
      </trkpt>
      <trkpt lat="44.17708" lon="6.89962">
        <ele>2018</ele>
        <time>2013-09-21T09:41:11Z</time>
      </trkpt>
      <trkpt lat="44.17696" lon="6.89956">
        <ele>2020</ele>
        <time>2013-09-21T09:41:27Z</time>
      </trkpt>
      <trkpt lat="44.17688" lon="6.89949">
        <ele>2022</ele>
        <time>2013-09-21T09:41:40Z</time>
      </trkpt>
      <trkpt lat="44.17676" lon="6.89943">
        <ele>2024</ele>
        <time>2013-09-21T09:41:57Z</time>
      </trkpt>
      <trkpt lat="44.17665" lon="6.89937">
        <ele>2026</ele>
        <time>2013-09-21T09:42:12Z</time>
      </trkpt>
      <trkpt lat="44.17653" lon="6.8993">
        <ele>2028</ele>
        <time>2013-09-21T09:42:29Z</time>
      </trkpt>
      <trkpt lat="44.1764" lon="6.89923">
        <ele>2030</ele>
        <time>2013-09-21T09:42:46Z</time>
      </trkpt>
      <trkpt lat="44.17622" lon="6.89916">
        <ele>2032</ele>
        <time>2013-09-21T09:43:06Z</time>
      </trkpt>
      <trkpt lat="44.17605" lon="6.89909">
        <ele>2034</ele>
        <time>2013-09-21T09:43:26Z</time>
      </trkpt>
      <trkpt lat="44.1759" lon="6.89904">
        <ele>2035</ele>
        <time>2013-09-21T09:43:43Z</time>
      </trkpt>
      <trkpt lat="44.17584" lon="6.89915">
        <ele>2035</ele>
        <time>2013-09-21T09:43:58Z</time>
      </trkpt>
      <trkpt lat="44.17584" lon="6.89932">
        <ele>2037</ele>
        <time>2013-09-21T09:44:16Z</time>
      </trkpt>
      <trkpt lat="44.17584" lon="6.89943">
        <ele>2037</ele>
        <time>2013-09-21T09:44:29Z</time>
      </trkpt>
      <trkpt lat="44.17581" lon="6.89958">
        <ele>2038</ele>
        <time>2013-09-21T09:44:46Z</time>
      </trkpt>
      <trkpt lat="44.17572" lon="6.89965">
        <ele>2040</ele>
        <time>2013-09-21T09:45:03Z</time>
      </trkpt>
      <trkpt lat="44.17575" lon="6.89979">
        <ele>2041</ele>
        <time>2013-09-21T09:45:18Z</time>
      </trkpt>
      <trkpt lat="44.17579" lon="6.8999">
        <ele>2042</ele>
        <time>2013-09-21T09:45:33Z</time>
      </trkpt>
      <trkpt lat="44.17578" lon="6.90004">
        <ele>2044</ele>
        <time>2013-09-21T09:45:48Z</time>
      </trkpt>
      <trkpt lat="44.17578" lon="6.90017">
        <ele>2045</ele>
        <time>2013-09-21T09:46:03Z</time>
      </trkpt>
      <trkpt lat="44.17574" lon="6.90026">
        <ele>2046</ele>
        <time>2013-09-21T09:46:15Z</time>
      </trkpt>
      <trkpt lat="44.17578" lon="6.90034">
        <ele>2047</ele>
        <time>2013-09-21T09:46:33Z</time>
      </trkpt>
      <trkpt lat="44.17584" lon="6.90046">
        <ele>2049</ele>
        <time>2013-09-21T09:47:07Z</time>
      </trkpt>
      <trkpt lat="44.17583" lon="6.90058">
        <ele>2050</ele>
        <time>2013-09-21T09:47:23Z</time>
      </trkpt>
      <trkpt lat="44.17581" lon="6.90066">
        <ele>2052</ele>
        <time>2013-09-21T09:47:35Z</time>
      </trkpt>
      <trkpt lat="44.17578" lon="6.90078">
        <ele>2053</ele>
        <time>2013-09-21T09:47:49Z</time>
      </trkpt>
      <trkpt lat="44.17576" lon="6.90085">
        <ele>2055</ele>
        <time>2013-09-21T09:48:01Z</time>
      </trkpt>
      <trkpt lat="44.17578" lon="6.90091">
        <ele>2056</ele>
        <time>2013-09-21T09:48:09Z</time>
      </trkpt>
      <trkpt lat="44.17575" lon="6.90098">
        <ele>2057</ele>
        <time>2013-09-21T09:48:20Z</time>
      </trkpt>
      <trkpt lat="44.17565" lon="6.90101">
        <ele>2058</ele>
        <time>2013-09-21T09:48:36Z</time>
      </trkpt>
      <trkpt lat="44.1755" lon="6.90101">
        <ele>2060</ele>
        <time>2013-09-21T09:48:56Z</time>
      </trkpt>
      <trkpt lat="44.17542" lon="6.90097">
        <ele>2061</ele>
        <time>2013-09-21T09:49:12Z</time>
      </trkpt>
      <trkpt lat="44.17535" lon="6.90098">
        <ele>2063</ele>
        <time>2013-09-21T09:49:26Z</time>
      </trkpt>
      <trkpt lat="44.17529" lon="6.90101">
        <ele>2064</ele>
        <time>2013-09-21T09:49:39Z</time>
      </trkpt>
      <trkpt lat="44.17522" lon="6.90101">
        <ele>2066</ele>
        <time>2013-09-21T09:49:53Z</time>
      </trkpt>
      <trkpt lat="44.17518" lon="6.90101">
        <ele>2067</ele>
        <time>2013-09-21T09:50:02Z</time>
      </trkpt>
      <trkpt lat="44.17508" lon="6.90102">
        <ele>2069</ele>
        <time>2013-09-21T09:50:19Z</time>
      </trkpt>
      <trkpt lat="44.17498" lon="6.90107">
        <ele>2072</ele>
        <time>2013-09-21T09:50:36Z</time>
      </trkpt>
      <trkpt lat="44.1749" lon="6.9011">
        <ele>2074</ele>
        <time>2013-09-21T09:50:53Z</time>
      </trkpt>
      <trkpt lat="44.17484" lon="6.90109">
        <ele>2076</ele>
        <time>2013-09-21T09:51:06Z</time>
      </trkpt>
      <trkpt lat="44.17477" lon="6.90102">
        <ele>2078</ele>
        <time>2013-09-21T09:51:22Z</time>
      </trkpt>
      <trkpt lat="44.17461" lon="6.90098">
        <ele>2080</ele>
        <time>2013-09-21T09:51:41Z</time>
      </trkpt>
      <trkpt lat="44.17443" lon="6.90096">
        <ele>2081</ele>
        <time>2013-09-21T09:52:00Z</time>
      </trkpt>
      <trkpt lat="44.17425" lon="6.90094">
        <ele>2083</ele>
        <time>2013-09-21T09:52:20Z</time>
      </trkpt>
      <trkpt lat="44.1742" lon="6.90093">
        <ele>2083</ele>
        <time>2013-09-21T09:52:27Z</time>
      </trkpt>
      <trkpt lat="44.17412" lon="6.90094">
        <ele>2083</ele>
        <time>2013-09-21T09:52:35Z</time>
      </trkpt>
      <trkpt lat="44.17399" lon="6.90094">
        <ele>2084</ele>
        <time>2013-09-21T09:52:52Z</time>
      </trkpt>
      <trkpt lat="44.17387" lon="6.90098">
        <ele>2085</ele>
        <time>2013-09-21T09:53:05Z</time>
      </trkpt>
      <trkpt lat="44.17382" lon="6.90096">
        <ele>2085</ele>
        <time>2013-09-21T09:53:11Z</time>
      </trkpt>
      <trkpt lat="44.17375" lon="6.90095">
        <ele>2086</ele>
        <time>2013-09-21T09:53:20Z</time>
      </trkpt>
      <trkpt lat="44.17363" lon="6.90098">
        <ele>2086</ele>
        <time>2013-09-21T09:53:36Z</time>
      </trkpt>
      <trkpt lat="44.17352" lon="6.90102">
        <ele>2087</ele>
        <time>2013-09-21T09:53:53Z</time>
      </trkpt>
      <trkpt lat="44.17342" lon="6.90108">
        <ele>2088</ele>
        <time>2013-09-21T09:54:08Z</time>
      </trkpt>
      <trkpt lat="44.17332" lon="6.90117">
        <ele>2089</ele>
        <time>2013-09-21T09:54:23Z</time>
      </trkpt>
      <trkpt lat="44.17321" lon="6.90127">
        <ele>2091</ele>
        <time>2013-09-21T09:54:40Z</time>
      </trkpt>
      <trkpt lat="44.17309" lon="6.90134">
        <ele>2092</ele>
        <time>2013-09-21T09:54:54Z</time>
      </trkpt>
      <trkpt lat="44.17299" lon="6.90135">
        <ele>2093</ele>
        <time>2013-09-21T09:55:06Z</time>
      </trkpt>
      <trkpt lat="44.17292" lon="6.90137">
        <ele>2093</ele>
        <time>2013-09-21T09:55:14Z</time>
      </trkpt>
      <trkpt lat="44.17287" lon="6.90139">
        <ele>2094</ele>
        <time>2013-09-21T09:55:20Z</time>
      </trkpt>
      <trkpt lat="44.17279" lon="6.90146">
        <ele>2094</ele>
        <time>2013-09-21T09:55:31Z</time>
      </trkpt>
      <trkpt lat="44.17269" lon="6.90156">
        <ele>2095</ele>
        <time>2013-09-21T09:55:48Z</time>
      </trkpt>
      <trkpt lat="44.17255" lon="6.90161">
        <ele>2096</ele>
        <time>2013-09-21T09:56:04Z</time>
      </trkpt>
      <trkpt lat="44.17245" lon="6.9016">
        <ele>2097</ele>
        <time>2013-09-21T09:56:21Z</time>
      </trkpt>
      <trkpt lat="44.17236" lon="6.90159">
        <ele>2098</ele>
        <time>2013-09-21T09:56:38Z</time>
      </trkpt>
      <trkpt lat="44.17232" lon="6.90162">
        <ele>2099</ele>
        <time>2013-09-21T09:56:48Z</time>
      </trkpt>
      <trkpt lat="44.1722" lon="6.90166">
        <ele>2100</ele>
        <time>2013-09-21T09:57:05Z</time>
      </trkpt>
      <trkpt lat="44.17211" lon="6.90164">
        <ele>2101</ele>
        <time>2013-09-21T09:57:20Z</time>
      </trkpt>
      <trkpt lat="44.17198" lon="6.90173">
        <ele>2103</ele>
        <time>2013-09-21T09:57:38Z</time>
      </trkpt>
      <trkpt lat="44.17184" lon="6.9018">
        <ele>2104</ele>
        <time>2013-09-21T09:57:56Z</time>
      </trkpt>
      <trkpt lat="44.17173" lon="6.90185">
        <ele>2105</ele>
        <time>2013-09-21T09:58:10Z</time>
      </trkpt>
      <trkpt lat="44.17162" lon="6.90189">
        <ele>2105</ele>
        <time>2013-09-21T09:58:22Z</time>
      </trkpt>
      <trkpt lat="44.17151" lon="6.90192">
        <ele>2105</ele>
        <time>2013-09-21T09:58:34Z</time>
      </trkpt>
      <trkpt lat="44.17145" lon="6.90191">
        <ele>2106</ele>
        <time>2013-09-21T09:58:41Z</time>
      </trkpt>
      <trkpt lat="44.17134" lon="6.90193">
        <ele>2106</ele>
        <time>2013-09-21T09:58:54Z</time>
      </trkpt>
      <trkpt lat="44.17122" lon="6.90194">
        <ele>2106</ele>
        <time>2013-09-21T09:59:11Z</time>
      </trkpt>
      <trkpt lat="44.17115" lon="6.90194">
        <ele>2106</ele>
        <time>2013-09-21T09:59:19Z</time>
      </trkpt>
      <trkpt lat="44.17106" lon="6.90197">
        <ele>2107</ele>
        <time>2013-09-21T09:59:33Z</time>
      </trkpt>
      <trkpt lat="44.17099" lon="6.90198">
        <ele>2108</ele>
        <time>2013-09-21T09:59:49Z</time>
      </trkpt>
      <trkpt lat="44.17089" lon="6.90203">
        <ele>2109</ele>
        <time>2013-09-21T10:00:04Z</time>
      </trkpt>
      <trkpt lat="44.17082" lon="6.90202">
        <ele>2110</ele>
        <time>2013-09-21T10:00:17Z</time>
      </trkpt>
      <trkpt lat="44.17073" lon="6.90203">
        <ele>2111</ele>
        <time>2013-09-21T10:00:33Z</time>
      </trkpt>
      <trkpt lat="44.17067" lon="6.90212">
        <ele>2112</ele>
        <time>2013-09-21T10:00:48Z</time>
      </trkpt>
      <trkpt lat="44.1706" lon="6.9022">
        <ele>2113</ele>
        <time>2013-09-21T10:01:04Z</time>
      </trkpt>
      <trkpt lat="44.17054" lon="6.90219">
        <ele>2113</ele>
        <time>2013-09-21T10:01:15Z</time>
      </trkpt>
      <trkpt lat="44.17046" lon="6.90224">
        <ele>2114</ele>
        <time>2013-09-21T10:01:29Z</time>
      </trkpt>
      <trkpt lat="44.17036" lon="6.90228">
        <ele>2115</ele>
        <time>2013-09-21T10:01:45Z</time>
      </trkpt>
      <trkpt lat="44.1703" lon="6.90231">
        <ele>2115</ele>
        <time>2013-09-21T10:01:56Z</time>
      </trkpt>
      <trkpt lat="44.1702" lon="6.90237">
        <ele>2115</ele>
        <time>2013-09-21T10:02:13Z</time>
      </trkpt>
      <trkpt lat="44.17009" lon="6.90238">
        <ele>2115</ele>
        <time>2013-09-21T10:02:31Z</time>
      </trkpt>
      <trkpt lat="44.17001" lon="6.90241">
        <ele>2115</ele>
        <time>2013-09-21T10:02:46Z</time>
      </trkpt>
      <trkpt lat="44.16991" lon="6.90249">
        <ele>2115</ele>
        <time>2013-09-21T10:03:02Z</time>
      </trkpt>
      <trkpt lat="44.16983" lon="6.90254">
        <ele>2115</ele>
        <time>2013-09-21T10:03:17Z</time>
      </trkpt>
      <trkpt lat="44.16975" lon="6.90257">
        <ele>2116</ele>
        <time>2013-09-21T10:03:29Z</time>
      </trkpt>
      <trkpt lat="44.16962" lon="6.90263">
        <ele>2117</ele>
        <time>2013-09-21T10:03:48Z</time>
      </trkpt>
      <trkpt lat="44.16952" lon="6.90266">
        <ele>2117</ele>
        <time>2013-09-21T10:04:03Z</time>
      </trkpt>
      <trkpt lat="44.16946" lon="6.90268">
        <ele>2118</ele>
        <time>2013-09-21T10:04:16Z</time>
      </trkpt>
      <trkpt lat="44.16933" lon="6.9027">
        <ele>2119</ele>
        <time>2013-09-21T10:04:31Z</time>
      </trkpt>
      <trkpt lat="44.16923" lon="6.90277">
        <ele>2121</ele>
        <time>2013-09-21T10:04:49Z</time>
      </trkpt>
      <trkpt lat="44.16917" lon="6.90285">
        <ele>2122</ele>
        <time>2013-09-21T10:05:01Z</time>
      </trkpt>
      <trkpt lat="44.16911" lon="6.90293">
        <ele>2124</ele>
        <time>2013-09-21T10:05:14Z</time>
      </trkpt>
      <trkpt lat="44.16904" lon="6.903">
        <ele>2126</ele>
        <time>2013-09-21T10:05:27Z</time>
      </trkpt>
      <trkpt lat="44.16899" lon="6.90305">
        <ele>2128</ele>
        <time>2013-09-21T10:05:37Z</time>
      </trkpt>
      <trkpt lat="44.16894" lon="6.90296">
        <ele>2130</ele>
        <time>2013-09-21T10:05:50Z</time>
      </trkpt>
      <trkpt lat="44.16891" lon="6.90283">
        <ele>2132</ele>
        <time>2013-09-21T10:06:06Z</time>
      </trkpt>
      <trkpt lat="44.16885" lon="6.90284">
        <ele>2134</ele>
        <time>2013-09-21T10:06:21Z</time>
      </trkpt>
      <trkpt lat="44.16875" lon="6.90286">
        <ele>2138</ele>
        <time>2013-09-21T10:06:38Z</time>
      </trkpt>
      <trkpt lat="44.16866" lon="6.90289">
        <ele>2141</ele>
        <time>2013-09-21T10:06:53Z</time>
      </trkpt>
      <trkpt lat="44.16854" lon="6.90293">
        <ele>2145</ele>
        <time>2013-09-21T10:07:11Z</time>
      </trkpt>
      <trkpt lat="44.1684" lon="6.90298">
        <ele>2149</ele>
        <time>2013-09-21T10:07:30Z</time>
      </trkpt>
      <trkpt lat="44.1683" lon="6.90306">
        <ele>2152</ele>
        <time>2013-09-21T10:07:47Z</time>
      </trkpt>
      <trkpt lat="44.16819" lon="6.90313">
        <ele>2155</ele>
        <time>2013-09-21T10:08:04Z</time>
      </trkpt>
      <trkpt lat="44.16816" lon="6.90325">
        <ele>2157</ele>
        <time>2013-09-21T10:08:20Z</time>
      </trkpt>
      <trkpt lat="44.1682" lon="6.90339">
        <ele>2160</ele>
        <time>2013-09-21T10:08:36Z</time>
      </trkpt>
      <trkpt lat="44.16817" lon="6.90354">
        <ele>2162</ele>
        <time>2013-09-21T10:08:53Z</time>
      </trkpt>
      <trkpt lat="44.16808" lon="6.90356">
        <ele>2164</ele>
        <time>2013-09-21T10:09:09Z</time>
      </trkpt>
      <trkpt lat="44.16797" lon="6.9036">
        <ele>2166</ele>
        <time>2013-09-21T10:09:26Z</time>
      </trkpt>
      <trkpt lat="44.16798" lon="6.90377">
        <ele>2167</ele>
        <time>2013-09-21T10:09:45Z</time>
      </trkpt>
      <trkpt lat="44.16794" lon="6.90392">
        <ele>2169</ele>
        <time>2013-09-21T10:10:02Z</time>
      </trkpt>
      <trkpt lat="44.16783" lon="6.90407">
        <ele>2170</ele>
        <time>2013-09-21T10:10:18Z</time>
      </trkpt>
      <trkpt lat="44.16776" lon="6.90415">
        <ele>2170</ele>
        <time>2013-09-21T10:10:29Z</time>
      </trkpt>
      <trkpt lat="44.16774" lon="6.90425">
        <ele>2171</ele>
        <time>2013-09-21T10:10:39Z</time>
      </trkpt>
      <trkpt lat="44.16767" lon="6.90431">
        <ele>2171</ele>
        <time>2013-09-21T10:10:52Z</time>
      </trkpt>
      <trkpt lat="44.16761" lon="6.9044">
        <ele>2171</ele>
        <time>2013-09-21T10:11:04Z</time>
      </trkpt>
      <trkpt lat="44.16752" lon="6.90446">
        <ele>2171</ele>
        <time>2013-09-21T10:11:16Z</time>
      </trkpt>
      <trkpt lat="44.16745" lon="6.90448">
        <ele>2171</ele>
        <time>2013-09-21T10:11:26Z</time>
      </trkpt>
      <trkpt lat="44.16737" lon="6.90454">
        <ele>2171</ele>
        <time>2013-09-21T10:11:39Z</time>
      </trkpt>
      <trkpt lat="44.16733" lon="6.90459">
        <ele>2171</ele>
        <time>2013-09-21T10:11:48Z</time>
      </trkpt>
      <trkpt lat="44.16726" lon="6.90466">
        <ele>2171</ele>
        <time>2013-09-21T10:12:01Z</time>
      </trkpt>
      <trkpt lat="44.16719" lon="6.90467">
        <ele>2171</ele>
        <time>2013-09-21T10:12:13Z</time>
      </trkpt>
      <trkpt lat="44.16714" lon="6.90469">
        <ele>2171</ele>
        <time>2013-09-21T10:12:23Z</time>
      </trkpt>
      <trkpt lat="44.16703" lon="6.90472">
        <ele>2172</ele>
        <time>2013-09-21T10:12:38Z</time>
      </trkpt>
      <trkpt lat="44.16695" lon="6.9047">
        <ele>2172</ele>
        <time>2013-09-21T10:12:48Z</time>
      </trkpt>
      <trkpt lat="44.16692" lon="6.90472">
        <ele>2172</ele>
        <time>2013-09-21T10:12:52Z</time>
      </trkpt>
      <trkpt lat="44.16687" lon="6.9048">
        <ele>2172</ele>
        <time>2013-09-21T10:13:02Z</time>
      </trkpt>
      <trkpt lat="44.16682" lon="6.90485">
        <ele>2172</ele>
        <time>2013-09-21T10:13:10Z</time>
      </trkpt>
      <trkpt lat="44.16676" lon="6.9049">
        <ele>2173</ele>
        <time>2013-09-21T10:13:21Z</time>
      </trkpt>
      <trkpt lat="44.16671" lon="6.90496">
        <ele>2173</ele>
        <time>2013-09-21T10:13:33Z</time>
      </trkpt>
      <trkpt lat="44.16663" lon="6.90502">
        <ele>2173</ele>
        <time>2013-09-21T10:13:48Z</time>
      </trkpt>
      <trkpt lat="44.16543" lon="6.90491">
        <ele>2194</ele>
        <time>2013-09-21T11:20:23Z</time>
      </trkpt>
      <trkpt lat="44.16547" lon="6.90477">
        <ele>2191</ele>
        <time>2013-09-21T11:20:31Z</time>
      </trkpt>
      <trkpt lat="44.16545" lon="6.90474">
        <ele>2190</ele>
        <time>2013-09-21T11:20:35Z</time>
      </trkpt>
      <trkpt lat="44.16523" lon="6.9049">
        <ele>2188</ele>
        <time>2013-09-21T11:20:43Z</time>
      </trkpt>
      <trkpt lat="44.16518" lon="6.90487">
        <ele>2187</ele>
        <time>2013-09-21T11:20:46Z</time>
      </trkpt>
      <trkpt lat="44.1652" lon="6.90471">
        <ele>2186</ele>
        <time>2013-09-21T11:20:50Z</time>
      </trkpt>
      <trkpt lat="44.16515" lon="6.90471">
        <ele>2185</ele>
        <time>2013-09-21T11:20:53Z</time>
      </trkpt>
      <trkpt lat="44.165" lon="6.90472">
        <ele>2184</ele>
        <time>2013-09-21T11:20:59Z</time>
      </trkpt>
      <trkpt lat="44.16507" lon="6.90458">
        <ele>2182</ele>
        <time>2013-09-21T11:21:05Z</time>
      </trkpt>
      <trkpt lat="44.16502" lon="6.90456">
        <ele>2180</ele>
        <time>2013-09-21T11:21:11Z</time>
      </trkpt>
      <trkpt lat="44.16509" lon="6.90429">
        <ele>2178</ele>
        <time>2013-09-21T11:21:19Z</time>
      </trkpt>
      <trkpt lat="44.16503" lon="6.90427">
        <ele>2175</ele>
        <time>2013-09-21T11:21:27Z</time>
      </trkpt>
      <trkpt lat="44.16499" lon="6.9043">
        <ele>2174</ele>
        <time>2013-09-21T11:21:29Z</time>
      </trkpt>
      <trkpt lat="44.16502" lon="6.90414">
        <ele>2173</ele>
        <time>2013-09-21T11:21:34Z</time>
      </trkpt>
      <trkpt lat="44.16496" lon="6.90416">
        <ele>2172</ele>
        <time>2013-09-21T11:21:37Z</time>
      </trkpt>
      <trkpt lat="44.16494" lon="6.90414">
        <ele>2169</ele>
        <time>2013-09-21T11:21:44Z</time>
      </trkpt>
      <trkpt lat="44.16483" lon="6.90412">
        <ele>2165</ele>
        <time>2013-09-21T11:21:57Z</time>
      </trkpt>
      <trkpt lat="44.16474" lon="6.90408">
        <ele>2164</ele>
        <time>2013-09-21T11:22:01Z</time>
      </trkpt>
      <trkpt lat="44.16483" lon="6.90385">
        <ele>2161</ele>
        <time>2013-09-21T11:22:07Z</time>
      </trkpt>
      <trkpt lat="44.16467" lon="6.90385">
        <ele>2159</ele>
        <time>2013-09-21T11:22:13Z</time>
      </trkpt>
      <trkpt lat="44.16461" lon="6.90384">
        <ele>2157</ele>
        <time>2013-09-21T11:22:19Z</time>
      </trkpt>
      <trkpt lat="44.16468" lon="6.90364">
        <ele>2155</ele>
        <time>2013-09-21T11:22:24Z</time>
      </trkpt>
      <trkpt lat="44.16457" lon="6.90369">
        <ele>2153</ele>
        <time>2013-09-21T11:22:28Z</time>
      </trkpt>
      <trkpt lat="44.16442" lon="6.90383">
        <ele>2150</ele>
        <time>2013-09-21T11:22:36Z</time>
      </trkpt>
      <trkpt lat="44.16444" lon="6.90376">
        <ele>2149</ele>
        <time>2013-09-21T11:22:40Z</time>
      </trkpt>
      <trkpt lat="44.16447" lon="6.90357">
        <ele>2146</ele>
        <time>2013-09-21T11:22:46Z</time>
      </trkpt>
      <trkpt lat="44.16442" lon="6.90367">
        <ele>2144</ele>
        <time>2013-09-21T11:22:50Z</time>
      </trkpt>
      <trkpt lat="44.16431" lon="6.90386">
        <ele>2142</ele>
        <time>2013-09-21T11:22:55Z</time>
      </trkpt>
      <trkpt lat="44.16408" lon="6.90413">
        <ele>2139</ele>
        <time>2013-09-21T11:23:04Z</time>
      </trkpt>
      <trkpt lat="44.16402" lon="6.90423">
        <ele>2137</ele>
        <time>2013-09-21T11:23:08Z</time>
      </trkpt>
      <trkpt lat="44.164" lon="6.90421">
        <ele>2136</ele>
        <time>2013-09-21T11:23:12Z</time>
      </trkpt>
      <trkpt lat="44.16401" lon="6.90416">
        <ele>2131</ele>
        <time>2013-09-21T11:23:23Z</time>
      </trkpt>
      <trkpt lat="44.16394" lon="6.90381">
        <ele>2128</ele>
        <time>2013-09-21T11:23:31Z</time>
      </trkpt>
      <trkpt lat="44.16391" lon="6.90387">
        <ele>2127</ele>
        <time>2013-09-21T11:23:34Z</time>
      </trkpt>
      <trkpt lat="44.16383" lon="6.90398">
        <ele>2125</ele>
        <time>2013-09-21T11:23:39Z</time>
      </trkpt>
      <trkpt lat="44.16379" lon="6.90391">
        <ele>2124</ele>
        <time>2013-09-21T11:23:42Z</time>
      </trkpt>
      <trkpt lat="44.16375" lon="6.90391">
        <ele>2122</ele>
        <time>2013-09-21T11:23:48Z</time>
      </trkpt>
      <trkpt lat="44.16373" lon="6.90386">
        <ele>2121</ele>
        <time>2013-09-21T11:23:50Z</time>
      </trkpt>
      <trkpt lat="44.1637" lon="6.90406">
        <ele>2119</ele>
        <time>2013-09-21T11:23:56Z</time>
      </trkpt>
      <trkpt lat="44.16366" lon="6.90416">
        <ele>2117</ele>
        <time>2013-09-21T11:24:01Z</time>
      </trkpt>
      <trkpt lat="44.16366" lon="6.90416">
        <ele>2112</ele>
        <time>2013-09-21T11:24:13Z</time>
      </trkpt>
      <trkpt lat="44.16365" lon="6.90404">
        <ele>2110</ele>
        <time>2013-09-21T11:24:18Z</time>
      </trkpt>
      <trkpt lat="44.1636" lon="6.90418">
        <ele>2108</ele>
        <time>2013-09-21T11:24:24Z</time>
      </trkpt>
      <trkpt lat="44.16337" lon="6.90442">
        <ele>2105</ele>
        <time>2013-09-21T11:24:32Z</time>
      </trkpt>
      <trkpt lat="44.16308" lon="6.90452">
        <ele>2102</ele>
        <time>2013-09-21T11:24:39Z</time>
      </trkpt>
      <trkpt lat="44.1627" lon="6.90464">
        <ele>2098</ele>
        <time>2013-09-21T11:24:48Z</time>
      </trkpt>
      <trkpt lat="44.16262" lon="6.90476">
        <ele>2097</ele>
        <time>2013-09-21T11:24:51Z</time>
      </trkpt>
      <trkpt lat="44.16244" lon="6.90487">
        <ele>2094</ele>
        <time>2013-09-21T11:24:56Z</time>
      </trkpt>
      <trkpt lat="44.16228" lon="6.90489">
        <ele>2093</ele>
        <time>2013-09-21T11:24:59Z</time>
      </trkpt>
      <trkpt lat="44.16204" lon="6.90484">
        <ele>2090</ele>
        <time>2013-09-21T11:25:04Z</time>
      </trkpt>
      <trkpt lat="44.16187" lon="6.90459">
        <ele>2087</ele>
        <time>2013-09-21T11:25:10Z</time>
      </trkpt>
      <trkpt lat="44.1619" lon="6.90449">
        <ele>2085</ele>
        <time>2013-09-21T11:25:16Z</time>
      </trkpt>
      <trkpt lat="44.16208" lon="6.90442">
        <ele>2082</ele>
        <time>2013-09-21T11:25:21Z</time>
      </trkpt>
      <trkpt lat="44.16212" lon="6.90431">
        <ele>2081</ele>
        <time>2013-09-21T11:25:24Z</time>
      </trkpt>
      <trkpt lat="44.16192" lon="6.90425">
        <ele>2078</ele>
        <time>2013-09-21T11:25:29Z</time>
      </trkpt>
      <trkpt lat="44.16182" lon="6.90415">
        <ele>2077</ele>
        <time>2013-09-21T11:25:32Z</time>
      </trkpt>
      <trkpt lat="44.16148" lon="6.90432">
        <ele>2074</ele>
        <time>2013-09-21T11:25:39Z</time>
      </trkpt>
      <trkpt lat="44.16142" lon="6.90436">
        <ele>2072</ele>
        <time>2013-09-21T11:25:42Z</time>
      </trkpt>
      <trkpt lat="44.16146" lon="6.9044">
        <ele>2065</ele>
        <time>2013-09-21T11:25:57Z</time>
      </trkpt>
      <trkpt lat="44.16153" lon="6.9045">
        <ele>2030</ele>
        <time>2013-09-21T11:27:32Z</time>
      </trkpt>
      <trkpt lat="44.16142" lon="6.90461">
        <ele>2027</ele>
        <time>2013-09-21T11:27:46Z</time>
      </trkpt>
      <trkpt lat="44.16139" lon="6.90464">
        <ele>2026</ele>
        <time>2013-09-21T11:27:53Z</time>
      </trkpt>
      <trkpt lat="44.16126" lon="6.9048">
        <ele>2024</ele>
        <time>2013-09-21T11:28:02Z</time>
      </trkpt>
      <trkpt lat="44.16098" lon="6.90487">
        <ele>2023</ele>
        <time>2013-09-21T11:28:10Z</time>
      </trkpt>
      <trkpt lat="44.1609" lon="6.90484">
        <ele>2022</ele>
        <time>2013-09-21T11:28:14Z</time>
      </trkpt>
      <trkpt lat="44.16084" lon="6.90496">
        <ele>2020</ele>
        <time>2013-09-21T11:28:20Z</time>
      </trkpt>
      <trkpt lat="44.16071" lon="6.90517">
        <ele>2019</ele>
        <time>2013-09-21T11:28:27Z</time>
      </trkpt>
      <trkpt lat="44.16069" lon="6.90507">
        <ele>2017</ele>
        <time>2013-09-21T11:28:38Z</time>
      </trkpt>
      <trkpt lat="44.16073" lon="6.90488">
        <ele>2016</ele>
        <time>2013-09-21T11:28:42Z</time>
      </trkpt>
      <trkpt lat="44.16074" lon="6.90454">
        <ele>2014</ele>
        <time>2013-09-21T11:28:50Z</time>
      </trkpt>
      <trkpt lat="44.16068" lon="6.90462">
        <ele>2013</ele>
        <time>2013-09-21T11:28:54Z</time>
      </trkpt>
      <trkpt lat="44.16048" lon="6.90475">
        <ele>2011</ele>
        <time>2013-09-21T11:29:00Z</time>
      </trkpt>
      <trkpt lat="44.16048" lon="6.90464">
        <ele>2010</ele>
        <time>2013-09-21T11:29:03Z</time>
      </trkpt>
      <trkpt lat="44.16052" lon="6.90452">
        <ele>2008</ele>
        <time>2013-09-21T11:29:08Z</time>
      </trkpt>
      <trkpt lat="44.16048" lon="6.90451">
        <ele>2006</ele>
        <time>2013-09-21T11:29:15Z</time>
      </trkpt>
      <trkpt lat="44.16053" lon="6.90427">
        <ele>2004</ele>
        <time>2013-09-21T11:29:22Z</time>
      </trkpt>
      <trkpt lat="44.16036" lon="6.90442">
        <ele>2002</ele>
        <time>2013-09-21T11:29:28Z</time>
      </trkpt>
      <trkpt lat="44.16034" lon="6.90423">
        <ele>2000</ele>
        <time>2013-09-21T11:29:35Z</time>
      </trkpt>
      <trkpt lat="44.16043" lon="6.90411">
        <ele>1998</ele>
        <time>2013-09-21T11:29:39Z</time>
      </trkpt>
      <trkpt lat="44.16028" lon="6.90415">
        <ele>1996</ele>
        <time>2013-09-21T11:29:44Z</time>
      </trkpt>
      <trkpt lat="44.16005" lon="6.90429">
        <ele>1993</ele>
        <time>2013-09-21T11:29:52Z</time>
      </trkpt>
      <trkpt lat="44.16009" lon="6.90416">
        <ele>1990</ele>
        <time>2013-09-21T11:29:59Z</time>
      </trkpt>
      <trkpt lat="44.16013" lon="6.90408">
        <ele>1989</ele>
        <time>2013-09-21T11:30:02Z</time>
      </trkpt>
      <trkpt lat="44.16004" lon="6.90413">
        <ele>1987</ele>
        <time>2013-09-21T11:30:07Z</time>
      </trkpt>
      <trkpt lat="44.16014" lon="6.90394">
        <ele>1984</ele>
        <time>2013-09-21T11:30:14Z</time>
      </trkpt>
      <trkpt lat="44.16014" lon="6.90385">
        <ele>1981</ele>
        <time>2013-09-21T11:30:21Z</time>
      </trkpt>
      <trkpt lat="44.15991" lon="6.90424">
        <ele>1978</ele>
        <time>2013-09-21T11:30:29Z</time>
      </trkpt>
      <trkpt lat="44.15985" lon="6.90442">
        <ele>1976</ele>
        <time>2013-09-21T11:30:33Z</time>
      </trkpt>
      <trkpt lat="44.15977" lon="6.90455">
        <ele>1975</ele>
        <time>2013-09-21T11:30:37Z</time>
      </trkpt>
      <trkpt lat="44.15968" lon="6.90461">
        <ele>1973</ele>
        <time>2013-09-21T11:30:41Z</time>
      </trkpt>
      <trkpt lat="44.15966" lon="6.90463">
        <ele>1971</ele>
        <time>2013-09-21T11:30:48Z</time>
      </trkpt>
      <trkpt lat="44.15958" lon="6.90466">
        <ele>1965</ele>
        <time>2013-09-21T11:31:06Z</time>
      </trkpt>
      <trkpt lat="44.15942" lon="6.90486">
        <ele>1961</ele>
        <time>2013-09-21T11:31:16Z</time>
      </trkpt>
      <trkpt lat="44.15931" lon="6.90495">
        <ele>1960</ele>
        <time>2013-09-21T11:31:22Z</time>
      </trkpt>
      <trkpt lat="44.15933" lon="6.90487">
        <ele>1958</ele>
        <time>2013-09-21T11:31:26Z</time>
      </trkpt>
      <trkpt lat="44.15932" lon="6.90482">
        <ele>1958</ele>
        <time>2013-09-21T11:31:29Z</time>
      </trkpt>
      <trkpt lat="44.15921" lon="6.90494">
        <ele>1956</ele>
        <time>2013-09-21T11:31:34Z</time>
      </trkpt>
      <trkpt lat="44.15883" lon="6.90511">
        <ele>1953</ele>
        <time>2013-09-21T11:31:42Z</time>
      </trkpt>
      <trkpt lat="44.15876" lon="6.90514">
        <ele>1953</ele>
        <time>2013-09-21T11:31:44Z</time>
      </trkpt>
      <trkpt lat="44.1587" lon="6.90512">
        <ele>1952</ele>
        <time>2013-09-21T11:31:47Z</time>
      </trkpt>
      <trkpt lat="44.15879" lon="6.90502">
        <ele>1950</ele>
        <time>2013-09-21T11:31:53Z</time>
      </trkpt>
      <trkpt lat="44.15874" lon="6.90492">
        <ele>1948</ele>
        <time>2013-09-21T11:31:59Z</time>
      </trkpt>
      <trkpt lat="44.15856" lon="6.90491">
        <ele>1946</ele>
        <time>2013-09-21T11:32:04Z</time>
      </trkpt>
      <trkpt lat="44.1585" lon="6.90488">
        <ele>1944</ele>
        <time>2013-09-21T11:32:10Z</time>
      </trkpt>
      <trkpt lat="44.15854" lon="6.90471">
        <ele>1943</ele>
        <time>2013-09-21T11:32:13Z</time>
      </trkpt>
      <trkpt lat="44.15854" lon="6.90467">
        <ele>1942</ele>
        <time>2013-09-21T11:32:16Z</time>
      </trkpt>
      <trkpt lat="44.15858" lon="6.90474">
        <ele>1923</ele>
        <time>2013-09-21T11:33:16Z</time>
      </trkpt>
      <trkpt lat="44.15854" lon="6.90475">
        <ele>1916</ele>
        <time>2013-09-21T11:33:45Z</time>
      </trkpt>
      <trkpt lat="44.1584" lon="6.90481">
        <ele>1915</ele>
        <time>2013-09-21T11:33:51Z</time>
      </trkpt>
      <trkpt lat="44.15826" lon="6.90493">
        <ele>1914</ele>
        <time>2013-09-21T11:33:57Z</time>
      </trkpt>
      <trkpt lat="44.15828" lon="6.90471">
        <ele>1913</ele>
        <time>2013-09-21T11:34:02Z</time>
      </trkpt>
      <trkpt lat="44.15808" lon="6.90487">
        <ele>1911</ele>
        <time>2013-09-21T11:34:07Z</time>
      </trkpt>
      <trkpt lat="44.15788" lon="6.90505">
        <ele>1910</ele>
        <time>2013-09-21T11:34:13Z</time>
      </trkpt>
      <trkpt lat="44.15787" lon="6.90508">
        <ele>1909</ele>
        <time>2013-09-21T11:34:20Z</time>
      </trkpt>
      <trkpt lat="44.15789" lon="6.9052">
        <ele>1905</ele>
        <time>2013-09-21T11:34:41Z</time>
      </trkpt>
      <trkpt lat="44.15782" lon="6.90523">
        <ele>1904</ele>
        <time>2013-09-21T11:34:53Z</time>
      </trkpt>
      <trkpt lat="44.15775" lon="6.90526">
        <ele>1903</ele>
        <time>2013-09-21T11:35:01Z</time>
      </trkpt>
      <trkpt lat="44.15768" lon="6.90528">
        <ele>1901</ele>
        <time>2013-09-21T11:35:15Z</time>
      </trkpt>
      <trkpt lat="44.1574" lon="6.90534">
        <ele>1900</ele>
        <time>2013-09-21T11:35:23Z</time>
      </trkpt>
      <trkpt lat="44.15712" lon="6.90557">
        <ele>1898</ele>
        <time>2013-09-21T11:35:31Z</time>
      </trkpt>
      <trkpt lat="44.15699" lon="6.90556">
        <ele>1898</ele>
        <time>2013-09-21T11:35:34Z</time>
      </trkpt>
      <trkpt lat="44.15663" lon="6.90575">
        <ele>1896</ele>
        <time>2013-09-21T11:35:42Z</time>
      </trkpt>
      <trkpt lat="44.15651" lon="6.90571">
        <ele>1896</ele>
        <time>2013-09-21T11:35:45Z</time>
      </trkpt>
      <trkpt lat="44.15611" lon="6.90566">
        <ele>1894</ele>
        <time>2013-09-21T11:35:53Z</time>
      </trkpt>
      <trkpt lat="44.15598" lon="6.90581">
        <ele>1893</ele>
        <time>2013-09-21T11:35:57Z</time>
      </trkpt>
      <trkpt lat="44.15591" lon="6.90585">
        <ele>1893</ele>
        <time>2013-09-21T11:36:00Z</time>
      </trkpt>
      <trkpt lat="44.15581" lon="6.90597">
        <ele>1892</ele>
        <time>2013-09-21T11:36:05Z</time>
      </trkpt>
      <trkpt lat="44.15577" lon="6.90602">
        <ele>1891</ele>
        <time>2013-09-21T11:36:07Z</time>
      </trkpt>
      <trkpt lat="44.15567" lon="6.9063">
        <ele>1890</ele>
        <time>2013-09-21T11:36:14Z</time>
      </trkpt>
      <trkpt lat="44.15551" lon="6.90659">
        <ele>1888</ele>
        <time>2013-09-21T11:36:20Z</time>
      </trkpt>
      <trkpt lat="44.15529" lon="6.90658">
        <ele>1887</ele>
        <time>2013-09-21T11:36:25Z</time>
      </trkpt>
      <trkpt lat="44.1551" lon="6.90647">
        <ele>1886</ele>
        <time>2013-09-21T11:36:31Z</time>
      </trkpt>
      <trkpt lat="44.155" lon="6.90641">
        <ele>1885</ele>
        <time>2013-09-21T11:36:35Z</time>
      </trkpt>
      <trkpt lat="44.15503" lon="6.90618">
        <ele>1883</ele>
        <time>2013-09-21T11:36:41Z</time>
      </trkpt>
      <trkpt lat="44.15506" lon="6.90617">
        <ele>1882</ele>
        <time>2013-09-21T11:36:46Z</time>
      </trkpt>
      <trkpt lat="44.15507" lon="6.90612">
        <ele>1881</ele>
        <time>2013-09-21T11:36:49Z</time>
      </trkpt>
      <trkpt lat="44.15509" lon="6.90586">
        <ele>1880</ele>
        <time>2013-09-21T11:36:56Z</time>
      </trkpt>
      <trkpt lat="44.1549" lon="6.90577">
        <ele>1878</ele>
        <time>2013-09-21T11:37:03Z</time>
      </trkpt>
      <trkpt lat="44.15466" lon="6.90573">
        <ele>1877</ele>
        <time>2013-09-21T11:37:07Z</time>
      </trkpt>
      <trkpt lat="44.15436" lon="6.90562">
        <ele>1875</ele>
        <time>2013-09-21T11:37:13Z</time>
      </trkpt>
      <trkpt lat="44.15416" lon="6.90556">
        <ele>1874</ele>
        <time>2013-09-21T11:37:17Z</time>
      </trkpt>
      <trkpt lat="44.15383" lon="6.90561">
        <ele>1873</ele>
        <time>2013-09-21T11:37:23Z</time>
      </trkpt>
      <trkpt lat="44.15367" lon="6.90566">
        <ele>1871</ele>
        <time>2013-09-21T11:37:27Z</time>
      </trkpt>
      <trkpt lat="44.15364" lon="6.90556">
        <ele>1869</ele>
        <time>2013-09-21T11:37:36Z</time>
      </trkpt>
      <trkpt lat="44.15363" lon="6.90555">
        <ele>1868</ele>
        <time>2013-09-21T11:37:40Z</time>
      </trkpt>
      <trkpt lat="44.1537" lon="6.90558">
        <ele>1867</ele>
        <time>2013-09-21T11:37:46Z</time>
      </trkpt>
      <trkpt lat="44.15375" lon="6.90554">
        <ele>1865</ele>
        <time>2013-09-21T11:37:52Z</time>
      </trkpt>
      <trkpt lat="44.15364" lon="6.90551">
        <ele>1863</ele>
        <time>2013-09-21T11:37:59Z</time>
      </trkpt>
      <trkpt lat="44.15339" lon="6.90549">
        <ele>1862</ele>
        <time>2013-09-21T11:38:05Z</time>
      </trkpt>
      <trkpt lat="44.1531" lon="6.90561">
        <ele>1860</ele>
        <time>2013-09-21T11:38:12Z</time>
      </trkpt>
      <trkpt lat="44.15286" lon="6.90562">
        <ele>1859</ele>
        <time>2013-09-21T11:38:18Z</time>
      </trkpt>
      <trkpt lat="44.15268" lon="6.90559">
        <ele>1857</ele>
        <time>2013-09-21T11:38:25Z</time>
      </trkpt>
      <trkpt lat="44.1525" lon="6.90556">
        <ele>1855</ele>
        <time>2013-09-21T11:38:37Z</time>
      </trkpt>
      <trkpt lat="44.15219" lon="6.90565">
        <ele>1853</ele>
        <time>2013-09-21T11:38:47Z</time>
      </trkpt>
      <trkpt lat="44.15178" lon="6.90579">
        <ele>1850</ele>
        <time>2013-09-21T11:38:57Z</time>
      </trkpt>
      <trkpt lat="44.15154" lon="6.90587">
        <ele>1849</ele>
        <time>2013-09-21T11:39:00Z</time>
      </trkpt>
      <trkpt lat="44.15121" lon="6.90598">
        <ele>1848</ele>
        <time>2013-09-21T11:39:05Z</time>
      </trkpt>
      <trkpt lat="44.15095" lon="6.90614">
        <ele>1847</ele>
        <time>2013-09-21T11:39:09Z</time>
      </trkpt>
      <trkpt lat="44.15063" lon="6.90628">
        <ele>1845</ele>
        <time>2013-09-21T11:39:14Z</time>
      </trkpt>
      <trkpt lat="44.15049" lon="6.90638">
        <ele>1844</ele>
        <time>2013-09-21T11:39:17Z</time>
      </trkpt>
      <trkpt lat="44.15016" lon="6.90649">
        <ele>1842</ele>
        <time>2013-09-21T11:39:23Z</time>
      </trkpt>
      <trkpt lat="44.15001" lon="6.90643">
        <ele>1841</ele>
        <time>2013-09-21T11:39:26Z</time>
      </trkpt>
      <trkpt lat="44.14997" lon="6.90639">
        <ele>1840</ele>
        <time>2013-09-21T11:39:29Z</time>
      </trkpt>
      <trkpt lat="44.14991" lon="6.90631">
        <ele>1837</ele>
        <time>2013-09-21T11:39:40Z</time>
      </trkpt>
      <trkpt lat="44.14957" lon="6.90621">
        <ele>1834</ele>
        <time>2013-09-21T11:39:47Z</time>
      </trkpt>
      <trkpt lat="44.14943" lon="6.90632">
        <ele>1833</ele>
        <time>2013-09-21T11:39:50Z</time>
      </trkpt>
      <trkpt lat="44.1493" lon="6.90647">
        <ele>1831</ele>
        <time>2013-09-21T11:39:53Z</time>
      </trkpt>
      <trkpt lat="44.14905" lon="6.90674">
        <ele>1829</ele>
        <time>2013-09-21T11:39:58Z</time>
      </trkpt>
      <trkpt lat="44.14886" lon="6.90678">
        <ele>1827</ele>
        <time>2013-09-21T11:40:02Z</time>
      </trkpt>
      <trkpt lat="44.1489" lon="6.90658">
        <ele>1825</ele>
        <time>2013-09-21T11:40:06Z</time>
      </trkpt>
      <trkpt lat="44.14897" lon="6.90632">
        <ele>1823</ele>
        <time>2013-09-21T11:40:10Z</time>
      </trkpt>
      <trkpt lat="44.14888" lon="6.90633">
        <ele>1822</ele>
        <time>2013-09-21T11:40:12Z</time>
      </trkpt>
      <trkpt lat="44.14856" lon="6.9064">
        <ele>1819</ele>
        <time>2013-09-21T11:40:19Z</time>
      </trkpt>
      <trkpt lat="44.14836" lon="6.90651">
        <ele>1817</ele>
        <time>2013-09-21T11:40:23Z</time>
      </trkpt>
      <trkpt lat="44.14811" lon="6.90665">
        <ele>1813</ele>
        <time>2013-09-21T11:40:29Z</time>
      </trkpt>
      <trkpt lat="44.14806" lon="6.90658">
        <ele>1811</ele>
        <time>2013-09-21T11:40:34Z</time>
      </trkpt>
      <trkpt lat="44.14818" lon="6.90637">
        <ele>1808</ele>
        <time>2013-09-21T11:40:39Z</time>
      </trkpt>
      <trkpt lat="44.14808" lon="6.90638">
        <ele>1806</ele>
        <time>2013-09-21T11:40:43Z</time>
      </trkpt>
      <trkpt lat="44.14781" lon="6.9066">
        <ele>1803</ele>
        <time>2013-09-21T11:40:50Z</time>
      </trkpt>
      <trkpt lat="44.14764" lon="6.90655">
        <ele>1800</ele>
        <time>2013-09-21T11:40:55Z</time>
      </trkpt>
      <trkpt lat="44.14748" lon="6.90655">
        <ele>1797</ele>
        <time>2013-09-21T11:41:00Z</time>
      </trkpt>
      <trkpt lat="44.14723" lon="6.90667">
        <ele>1794</ele>
        <time>2013-09-21T11:41:06Z</time>
      </trkpt>
      <trkpt lat="44.14705" lon="6.90665">
        <ele>1792</ele>
        <time>2013-09-21T11:41:11Z</time>
      </trkpt>
      <trkpt lat="44.14717" lon="6.90638">
        <ele>1788</ele>
        <time>2013-09-21T11:41:17Z</time>
      </trkpt>
      <trkpt lat="44.14705" lon="6.90636">
        <ele>1785</ele>
        <time>2013-09-21T11:41:23Z</time>
      </trkpt>
      <trkpt lat="44.14677" lon="6.90637">
        <ele>1780</ele>
        <time>2013-09-21T11:41:31Z</time>
      </trkpt>
      <trkpt lat="44.14666" lon="6.90636">
        <ele>1778</ele>
        <time>2013-09-21T11:41:35Z</time>
      </trkpt>
      <trkpt lat="44.14685" lon="6.90618">
        <ele>1775</ele>
        <time>2013-09-21T11:41:41Z</time>
      </trkpt>
      <trkpt lat="44.1469" lon="6.90612">
        <ele>1773</ele>
        <time>2013-09-21T11:41:44Z</time>
      </trkpt>
      <trkpt lat="44.14661" lon="6.90607">
        <ele>1769</ele>
        <time>2013-09-21T11:41:51Z</time>
      </trkpt>
      <trkpt lat="44.14649" lon="6.90612">
        <ele>1766</ele>
        <time>2013-09-21T11:41:56Z</time>
      </trkpt>
      <trkpt lat="44.14655" lon="6.90594">
        <ele>1763</ele>
        <time>2013-09-21T11:42:00Z</time>
      </trkpt>
      <trkpt lat="44.14668" lon="6.90587">
        <ele>1762</ele>
        <time>2013-09-21T11:42:03Z</time>
      </trkpt>
      <trkpt lat="44.1467" lon="6.9058">
        <ele>1758</ele>
        <time>2013-09-21T11:42:10Z</time>
      </trkpt>
      <trkpt lat="44.14658" lon="6.90581">
        <ele>1755</ele>
        <time>2013-09-21T11:42:15Z</time>
      </trkpt>
      <trkpt lat="44.1466" lon="6.90582">
        <ele>1748</ele>
        <time>2013-09-21T11:42:27Z</time>
      </trkpt>
      <trkpt lat="44.14671" lon="6.90594">
        <ele>1693</ele>
        <time>2013-09-21T11:45:07Z</time>
      </trkpt>
      <trkpt lat="44.14667" lon="6.90594">
        <ele>1689</ele>
        <time>2013-09-21T11:45:25Z</time>
      </trkpt>
      <trkpt lat="44.14667" lon="6.90581">
        <ele>1688</ele>
        <time>2013-09-21T11:45:29Z</time>
      </trkpt>
      <trkpt lat="44.14668" lon="6.90563">
        <ele>1687</ele>
        <time>2013-09-21T11:45:33Z</time>
      </trkpt>
      <trkpt lat="44.14669" lon="6.90554">
        <ele>1686</ele>
        <time>2013-09-21T11:45:37Z</time>
      </trkpt>
      <trkpt lat="44.14643" lon="6.90548">
        <ele>1685</ele>
        <time>2013-09-21T11:45:44Z</time>
      </trkpt>
      <trkpt lat="44.14621" lon="6.90571">
        <ele>1683</ele>
        <time>2013-09-21T11:45:51Z</time>
      </trkpt>
      <trkpt lat="44.14608" lon="6.90574">
        <ele>1682</ele>
        <time>2013-09-21T11:45:55Z</time>
      </trkpt>
      <trkpt lat="44.14594" lon="6.90565">
        <ele>1681</ele>
        <time>2013-09-21T11:45:58Z</time>
      </trkpt>
      <trkpt lat="44.14585" lon="6.90573">
        <ele>1679</ele>
        <time>2013-09-21T11:46:05Z</time>
      </trkpt>
      <trkpt lat="44.14563" lon="6.90559">
        <ele>1678</ele>
        <time>2013-09-21T11:46:12Z</time>
      </trkpt>
      <trkpt lat="44.14554" lon="6.90536">
        <ele>1676</ele>
        <time>2013-09-21T11:46:19Z</time>
      </trkpt>
      <trkpt lat="44.14562" lon="6.90518">
        <ele>1674</ele>
        <time>2013-09-21T11:46:25Z</time>
      </trkpt>
      <trkpt lat="44.14564" lon="6.90505">
        <ele>1674</ele>
        <time>2013-09-21T11:46:28Z</time>
      </trkpt>
      <trkpt lat="44.14569" lon="6.90502">
        <ele>1673</ele>
        <time>2013-09-21T11:46:31Z</time>
      </trkpt>
      <trkpt lat="44.14559" lon="6.90495">
        <ele>1671</ele>
        <time>2013-09-21T11:46:36Z</time>
      </trkpt>
      <trkpt lat="44.1454" lon="6.90474">
        <ele>1669</ele>
        <time>2013-09-21T11:46:43Z</time>
      </trkpt>
      <trkpt lat="44.14553" lon="6.90464">
        <ele>1668</ele>
        <time>2013-09-21T11:46:47Z</time>
      </trkpt>
      <trkpt lat="44.14559" lon="6.9045">
        <ele>1668</ele>
        <time>2013-09-21T11:46:50Z</time>
      </trkpt>
      <trkpt lat="44.14545" lon="6.90448">
        <ele>1666</ele>
        <time>2013-09-21T11:46:56Z</time>
      </trkpt>
      <trkpt lat="44.14545" lon="6.90439">
        <ele>1665</ele>
        <time>2013-09-21T11:47:00Z</time>
      </trkpt>
      <trkpt lat="44.1456" lon="6.90425">
        <ele>1664</ele>
        <time>2013-09-21T11:47:04Z</time>
      </trkpt>
      <trkpt lat="44.14559" lon="6.90421">
        <ele>1663</ele>
        <time>2013-09-21T11:47:06Z</time>
      </trkpt>
      <trkpt lat="44.14537" lon="6.90428">
        <ele>1662</ele>
        <time>2013-09-21T11:47:11Z</time>
      </trkpt>
      <trkpt lat="44.1452" lon="6.90438">
        <ele>1661</ele>
        <time>2013-09-21T11:47:15Z</time>
      </trkpt>
      <trkpt lat="44.1452" lon="6.90431">
        <ele>1660</ele>
        <time>2013-09-21T11:47:17Z</time>
      </trkpt>
      <trkpt lat="44.14527" lon="6.90416">
        <ele>1659</ele>
        <time>2013-09-21T11:47:20Z</time>
      </trkpt>
      <trkpt lat="44.14539" lon="6.90398">
        <ele>1658</ele>
        <time>2013-09-21T11:47:24Z</time>
      </trkpt>
      <trkpt lat="44.14536" lon="6.90387">
        <ele>1656</ele>
        <time>2013-09-21T11:47:31Z</time>
      </trkpt>
      <trkpt lat="44.14523" lon="6.90383">
        <ele>1654</ele>
        <time>2013-09-21T11:47:36Z</time>
      </trkpt>
      <trkpt lat="44.14538" lon="6.90367">
        <ele>1652</ele>
        <time>2013-09-21T11:47:41Z</time>
      </trkpt>
      <trkpt lat="44.14526" lon="6.90363">
        <ele>1651</ele>
        <time>2013-09-21T11:47:45Z</time>
      </trkpt>
      <trkpt lat="44.14518" lon="6.90378">
        <ele>1650</ele>
        <time>2013-09-21T11:47:48Z</time>
      </trkpt>
      <trkpt lat="44.14506" lon="6.90393">
        <ele>1648</ele>
        <time>2013-09-21T11:47:52Z</time>
      </trkpt>
      <trkpt lat="44.14452" lon="6.90405">
        <ele>1646</ele>
        <time>2013-09-21T11:48:00Z</time>
      </trkpt>
      <trkpt lat="44.14414" lon="6.90406">
        <ele>1643</ele>
        <time>2013-09-21T11:48:07Z</time>
      </trkpt>
      <trkpt lat="44.14414" lon="6.90403">
        <ele>1642</ele>
        <time>2013-09-21T11:48:10Z</time>
      </trkpt>
      <trkpt lat="44.14442" lon="6.90387">
        <ele>1639</ele>
        <time>2013-09-21T11:48:16Z</time>
      </trkpt>
      <trkpt lat="44.14449" lon="6.90381">
        <ele>1638</ele>
        <time>2013-09-21T11:48:19Z</time>
      </trkpt>
      <trkpt lat="44.14437" lon="6.90378">
        <ele>1636</ele>
        <time>2013-09-21T11:48:22Z</time>
      </trkpt>
      <trkpt lat="44.14417" lon="6.90381">
        <ele>1635</ele>
        <time>2013-09-21T11:48:26Z</time>
      </trkpt>
      <trkpt lat="44.1439" lon="6.90389">
        <ele>1632</ele>
        <time>2013-09-21T11:48:31Z</time>
      </trkpt>
      <trkpt lat="44.1437" lon="6.90401">
        <ele>1630</ele>
        <time>2013-09-21T11:48:35Z</time>
      </trkpt>
      <trkpt lat="44.14347" lon="6.90417">
        <ele>1628</ele>
        <time>2013-09-21T11:48:40Z</time>
      </trkpt>
      <trkpt lat="44.14326" lon="6.90431">
        <ele>1625</ele>
        <time>2013-09-21T11:48:46Z</time>
      </trkpt>
      <trkpt lat="44.14305" lon="6.90435">
        <ele>1622</ele>
        <time>2013-09-21T11:48:51Z</time>
      </trkpt>
      <trkpt lat="44.14277" lon="6.90428">
        <ele>1620</ele>
        <time>2013-09-21T11:48:56Z</time>
      </trkpt>
      <trkpt lat="44.14253" lon="6.90454">
        <ele>1617</ele>
        <time>2013-09-21T11:49:01Z</time>
      </trkpt>
      <trkpt lat="44.14228" lon="6.90475">
        <ele>1614</ele>
        <time>2013-09-21T11:49:06Z</time>
      </trkpt>
      <trkpt lat="44.14219" lon="6.90481">
        <ele>1612</ele>
        <time>2013-09-21T11:49:10Z</time>
      </trkpt>
      <trkpt lat="44.14223" lon="6.90489">
        <ele>1609</ele>
        <time>2013-09-21T11:49:14Z</time>
      </trkpt>
      <trkpt lat="44.1424" lon="6.90503">
        <ele>1566</ele>
        <time>2013-09-21T11:50:20Z</time>
      </trkpt>
      <trkpt lat="44.14244" lon="6.90504">
        <ele>1556</ele>
        <time>2013-09-21T11:50:40Z</time>
      </trkpt>
      <trkpt lat="44.14221" lon="6.90519">
        <ele>1534</ele>
        <time>2013-09-21T11:51:43Z</time>
      </trkpt>
      <trkpt lat="44.14194" lon="6.90544">
        <ele>1531</ele>
        <time>2013-09-21T11:51:50Z</time>
      </trkpt>
      <trkpt lat="44.14188" lon="6.90556">
        <ele>1530</ele>
        <time>2013-09-21T11:51:54Z</time>
      </trkpt>
      <trkpt lat="44.14182" lon="6.90562">
        <ele>1529</ele>
        <time>2013-09-21T11:51:58Z</time>
      </trkpt>
      <trkpt lat="44.14153" lon="6.90585">
        <ele>1526</ele>
        <time>2013-09-21T11:52:06Z</time>
      </trkpt>
      <trkpt lat="44.14124" lon="6.90609">
        <ele>1524</ele>
        <time>2013-09-21T11:52:11Z</time>
      </trkpt>
      <trkpt lat="44.14101" lon="6.90639">
        <ele>1522</ele>
        <time>2013-09-21T11:52:15Z</time>
      </trkpt>
      <trkpt lat="44.14083" lon="6.90649">
        <ele>1521</ele>
        <time>2013-09-21T11:52:18Z</time>
      </trkpt>
      <trkpt lat="44.14059" lon="6.90659">
        <ele>1519</ele>
        <time>2013-09-21T11:52:23Z</time>
      </trkpt>
      <trkpt lat="44.14022" lon="6.90683">
        <ele>1516</ele>
        <time>2013-09-21T11:52:29Z</time>
      </trkpt>
      <trkpt lat="44.13999" lon="6.90704">
        <ele>1514</ele>
        <time>2013-09-21T11:52:35Z</time>
      </trkpt>
      <trkpt lat="44.14004" lon="6.90713">
        <ele>1506</ele>
        <time>2013-09-21T11:52:52Z</time>
      </trkpt>
      <trkpt lat="44.14013" lon="6.90735">
        <ele>1501</ele>
        <time>2013-09-21T11:53:04Z</time>
      </trkpt>
      <trkpt lat="44.14007" lon="6.90715">
        <ele>1497</ele>
        <time>2013-09-21T11:53:15Z</time>
      </trkpt>
      <trkpt lat="44.14005" lon="6.90704">
        <ele>1495</ele>
        <time>2013-09-21T11:53:21Z</time>
      </trkpt>
      <trkpt lat="44.13984" lon="6.90707">
        <ele>1492</ele>
        <time>2013-09-21T11:53:29Z</time>
      </trkpt>
      <trkpt lat="44.13942" lon="6.90703">
        <ele>1488</ele>
        <time>2013-09-21T11:53:40Z</time>
      </trkpt>
      <trkpt lat="44.13923" lon="6.90709">
        <ele>1487</ele>
        <time>2013-09-21T11:53:43Z</time>
      </trkpt>
      <trkpt lat="44.13874" lon="6.90718">
        <ele>1485</ele>
        <time>2013-09-21T11:53:51Z</time>
      </trkpt>
      <trkpt lat="44.13858" lon="6.90709">
        <ele>1483</ele>
        <time>2013-09-21T11:53:55Z</time>
      </trkpt>
      <trkpt lat="44.13855" lon="6.90707">
        <ele>1480</ele>
        <time>2013-09-21T11:54:04Z</time>
      </trkpt>
      <trkpt lat="44.13848" lon="6.90704">
        <ele>1478</ele>
        <time>2013-09-21T11:54:11Z</time>
      </trkpt>
      <trkpt lat="44.13832" lon="6.90703">
        <ele>1477</ele>
        <time>2013-09-21T11:54:17Z</time>
      </trkpt>
      <trkpt lat="44.13826" lon="6.90699">
        <ele>1475</ele>
        <time>2013-09-21T11:54:23Z</time>
      </trkpt>
      <trkpt lat="44.13824" lon="6.90702">
        <ele>1471</ele>
        <time>2013-09-21T11:54:42Z</time>
      </trkpt>
      <trkpt lat="44.13821" lon="6.90701">
        <ele>1468</ele>
        <time>2013-09-21T11:54:58Z</time>
      </trkpt>
      <trkpt lat="44.13819" lon="6.90686">
        <ele>1466</ele>
        <time>2013-09-21T11:55:09Z</time>
      </trkpt>
      <trkpt lat="44.13822" lon="6.90656">
        <ele>1465</ele>
        <time>2013-09-21T11:55:20Z</time>
      </trkpt>
      <trkpt lat="44.13821" lon="6.90645">
        <ele>1464</ele>
        <time>2013-09-21T11:55:28Z</time>
      </trkpt>
      <trkpt lat="44.13814" lon="6.90649">
        <ele>1462</ele>
        <time>2013-09-21T11:55:37Z</time>
      </trkpt>
      <trkpt lat="44.13813" lon="6.9065">
        <ele>1459</ele>
        <time>2013-09-21T11:55:52Z</time>
      </trkpt>
      <trkpt lat="44.13812" lon="6.90649">
        <ele>1455</ele>
        <time>2013-09-21T11:56:12Z</time>
      </trkpt>
      <trkpt lat="44.13815" lon="6.90637">
        <ele>1451</ele>
        <time>2013-09-21T11:56:30Z</time>
      </trkpt>
      <trkpt lat="44.13815" lon="6.90631">
        <ele>1450</ele>
        <time>2013-09-21T11:56:39Z</time>
      </trkpt>
      <trkpt lat="44.1382" lon="6.90628">
        <ele>1448</ele>
        <time>2013-09-21T11:56:46Z</time>
      </trkpt>
      <trkpt lat="44.13821" lon="6.9063">
        <ele>1446</ele>
        <time>2013-09-21T11:56:58Z</time>
      </trkpt>
      <trkpt lat="44.13822" lon="6.90631">
        <ele>1444</ele>
        <time>2013-09-21T11:57:10Z</time>
      </trkpt>
      <trkpt lat="44.13828" lon="6.90633">
        <ele>1440</ele>
        <time>2013-09-21T11:57:41Z</time>
      </trkpt>
      <trkpt lat="44.13816" lon="6.9062">
        <ele>1436</ele>
        <time>2013-09-21T12:02:19Z</time>
      </trkpt>
      <trkpt lat="44.13821" lon="6.90629">
        <ele>1437</ele>
        <time>2013-09-21T12:02:43Z</time>
      </trkpt>
      <trkpt lat="44.1382" lon="6.90627">
        <ele>1436</ele>
        <time>2013-09-21T12:02:56Z</time>
      </trkpt>
      <trkpt lat="44.13821" lon="6.90626">
        <ele>1436</ele>
        <time>2013-09-21T12:03:22Z</time>
      </trkpt>
      <trkpt lat="44.1382" lon="6.90623">
        <ele>1436</ele>
        <time>2013-09-21T12:03:33Z</time>
      </trkpt>
      <trkpt lat="44.13816" lon="6.90626">
        <ele>1436</ele>
        <time>2013-09-21T12:03:40Z</time>
      </trkpt>
      <trkpt lat="44.13805" lon="6.90626">
        <ele>1435</ele>
        <time>2013-09-21T12:03:56Z</time>
      </trkpt>
      <trkpt lat="44.13803" lon="6.9062">
        <ele>1435</ele>
        <time>2013-09-21T12:04:20Z</time>
      </trkpt>
      <trkpt lat="44.13804" lon="6.90617">
        <ele>1435</ele>
        <time>2013-09-21T12:04:32Z</time>
      </trkpt>
      <trkpt lat="44.13803" lon="6.90621">
        <ele>1434</ele>
        <time>2013-09-21T12:05:05Z</time>
      </trkpt>
      <trkpt lat="44.13805" lon="6.90636">
        <ele>1433</ele>
        <time>2013-09-21T12:06:35Z</time>
      </trkpt>
      <trkpt lat="44.13802" lon="6.90634">
        <ele>1436</ele>
        <time>2013-09-21T12:07:09Z</time>
      </trkpt>
      <trkpt lat="44.13783" lon="6.90644">
        <ele>1436</ele>
        <time>2013-09-21T12:07:31Z</time>
      </trkpt>
      <trkpt lat="44.13774" lon="6.90653">
        <ele>1436</ele>
        <time>2013-09-21T12:07:38Z</time>
      </trkpt>
      <trkpt lat="44.13745" lon="6.90678">
        <ele>1435</ele>
        <time>2013-09-21T12:07:45Z</time>
      </trkpt>
      <trkpt lat="44.13709" lon="6.90683">
        <ele>1435</ele>
        <time>2013-09-21T12:07:50Z</time>
      </trkpt>
      <trkpt lat="44.1364" lon="6.90694">
        <ele>1434</ele>
        <time>2013-09-21T12:07:59Z</time>
      </trkpt>
      <trkpt lat="44.13611" lon="6.90702">
        <ele>1433</ele>
        <time>2013-09-21T12:08:03Z</time>
      </trkpt>
      <trkpt lat="44.13598" lon="6.9071">
        <ele>1433</ele>
        <time>2013-09-21T12:08:05Z</time>
      </trkpt>
      <trkpt lat="44.13577" lon="6.90718">
        <ele>1432</ele>
        <time>2013-09-21T12:08:10Z</time>
      </trkpt>
      <trkpt lat="44.13574" lon="6.90715">
        <ele>1429</ele>
        <time>2013-09-21T12:08:21Z</time>
      </trkpt>
      <trkpt lat="44.13579" lon="6.90689">
        <ele>1422</ele>
        <time>2013-09-21T12:08:47Z</time>
      </trkpt>
      <trkpt lat="44.13588" lon="6.90688">
        <ele>1406</ele>
        <time>2013-09-21T12:09:42Z</time>
      </trkpt>
      <trkpt lat="44.13589" lon="6.90687">
        <ele>1391</ele>
        <time>2013-09-21T12:11:16Z</time>
      </trkpt>
      <trkpt lat="44.13581" lon="6.90683">
        <ele>1401</ele>
        <time>2013-09-21T12:13:50Z</time>
      </trkpt>
      <trkpt lat="44.13581" lon="6.90685">
        <ele>1402</ele>
        <time>2013-09-21T12:16:22Z</time>
      </trkpt>
      <trkpt lat="44.13585" lon="6.90684">
        <ele>1402</ele>
        <time>2013-09-21T12:16:45Z</time>
      </trkpt>
      <trkpt lat="44.13576" lon="6.9068">
        <ele>1406</ele>
        <time>2013-09-21T12:28:15Z</time>
      </trkpt>
      <trkpt lat="44.13573" lon="6.90669">
        <ele>1406</ele>
        <time>2013-09-21T12:28:22Z</time>
      </trkpt>
      <trkpt lat="44.13562" lon="6.90652">
        <ele>1406</ele>
        <time>2013-09-21T12:28:32Z</time>
      </trkpt>
      <trkpt lat="44.13553" lon="6.90639">
        <ele>1406</ele>
        <time>2013-09-21T12:28:40Z</time>
      </trkpt>
      <trkpt lat="44.13535" lon="6.90618">
        <ele>1405</ele>
        <time>2013-09-21T12:28:51Z</time>
      </trkpt>
      <trkpt lat="44.13534" lon="6.906">
        <ele>1405</ele>
        <time>2013-09-21T12:28:55Z</time>
      </trkpt>
      <trkpt lat="44.13517" lon="6.90584">
        <ele>1405</ele>
        <time>2013-09-21T12:29:01Z</time>
      </trkpt>
      <trkpt lat="44.13489" lon="6.90577">
        <ele>1405</ele>
        <time>2013-09-21T12:29:10Z</time>
      </trkpt>
      <trkpt lat="44.13477" lon="6.90578">
        <ele>1405</ele>
        <time>2013-09-21T12:29:14Z</time>
      </trkpt>
      <trkpt lat="44.1344" lon="6.90594">
        <ele>1404</ele>
        <time>2013-09-21T12:29:23Z</time>
      </trkpt>
      <trkpt lat="44.13401" lon="6.90602">
        <ele>1404</ele>
        <time>2013-09-21T12:29:36Z</time>
      </trkpt>
      <trkpt lat="44.13379" lon="6.90608">
        <ele>1403</ele>
        <time>2013-09-21T12:29:47Z</time>
      </trkpt>
      <trkpt lat="44.13372" lon="6.90609">
        <ele>1403</ele>
        <time>2013-09-21T12:29:50Z</time>
      </trkpt>
      <trkpt lat="44.1332" lon="6.90627">
        <ele>1402</ele>
        <time>2013-09-21T12:30:03Z</time>
      </trkpt>
      <trkpt lat="44.13294" lon="6.90646">
        <ele>1402</ele>
        <time>2013-09-21T12:30:09Z</time>
      </trkpt>
      <trkpt lat="44.13248" lon="6.90677">
        <ele>1401</ele>
        <time>2013-09-21T12:30:19Z</time>
      </trkpt>
      <trkpt lat="44.13223" lon="6.90699">
        <ele>1400</ele>
        <time>2013-09-21T12:30:25Z</time>
      </trkpt>
      <trkpt lat="44.13189" lon="6.90713">
        <ele>1400</ele>
        <time>2013-09-21T12:30:32Z</time>
      </trkpt>
      <trkpt lat="44.13148" lon="6.90728">
        <ele>1399</ele>
        <time>2013-09-21T12:30:43Z</time>
      </trkpt>
      <trkpt lat="44.13113" lon="6.90715">
        <ele>1397</ele>
        <time>2013-09-21T12:30:56Z</time>
      </trkpt>
      <trkpt lat="44.13071" lon="6.90694">
        <ele>1396</ele>
        <time>2013-09-21T12:31:08Z</time>
      </trkpt>
      <trkpt lat="44.13043" lon="6.90649">
        <ele>1395</ele>
        <time>2013-09-21T12:31:18Z</time>
      </trkpt>
      <trkpt lat="44.13039" lon="6.90608">
        <ele>1394</ele>
        <time>2013-09-21T12:31:25Z</time>
      </trkpt>
      <trkpt lat="44.13028" lon="6.90581">
        <ele>1393</ele>
        <time>2013-09-21T12:31:29Z</time>
      </trkpt>
      <trkpt lat="44.12999" lon="6.90584">
        <ele>1393</ele>
        <time>2013-09-21T12:31:34Z</time>
      </trkpt>
      <trkpt lat="44.12959" lon="6.90618">
        <ele>1392</ele>
        <time>2013-09-21T12:31:40Z</time>
      </trkpt>
      <trkpt lat="44.12936" lon="6.9062">
        <ele>1391</ele>
        <time>2013-09-21T12:31:43Z</time>
      </trkpt>
      <trkpt lat="44.12908" lon="6.90603">
        <ele>1391</ele>
        <time>2013-09-21T12:31:47Z</time>
      </trkpt>
      <trkpt lat="44.12834" lon="6.90552">
        <ele>1389</ele>
        <time>2013-09-21T12:31:58Z</time>
      </trkpt>
      <trkpt lat="44.12813" lon="6.90535">
        <ele>1388</ele>
        <time>2013-09-21T12:32:03Z</time>
      </trkpt>
      <trkpt lat="44.1282" lon="6.90552">
        <ele>1387</ele>
        <time>2013-09-21T12:32:07Z</time>
      </trkpt>
      <trkpt lat="44.12842" lon="6.90572">
        <ele>1386</ele>
        <time>2013-09-21T12:32:12Z</time>
      </trkpt>
      <trkpt lat="44.1286" lon="6.90587">
        <ele>1385</ele>
        <time>2013-09-21T12:32:16Z</time>
      </trkpt>
      <trkpt lat="44.12876" lon="6.90607">
        <ele>1385</ele>
        <time>2013-09-21T12:32:20Z</time>
      </trkpt>
      <trkpt lat="44.12893" lon="6.90631">
        <ele>1384</ele>
        <time>2013-09-21T12:32:24Z</time>
      </trkpt>
      <trkpt lat="44.12913" lon="6.90668">
        <ele>1383</ele>
        <time>2013-09-21T12:32:29Z</time>
      </trkpt>
      <trkpt lat="44.12897" lon="6.90706">
        <ele>1382</ele>
        <time>2013-09-21T12:32:34Z</time>
      </trkpt>
      <trkpt lat="44.12878" lon="6.90718">
        <ele>1381</ele>
        <time>2013-09-21T12:32:37Z</time>
      </trkpt>
      <trkpt lat="44.12847" lon="6.90714">
        <ele>1380</ele>
        <time>2013-09-21T12:32:41Z</time>
      </trkpt>
      <trkpt lat="44.12827" lon="6.90697">
        <ele>1379</ele>
        <time>2013-09-21T12:32:44Z</time>
      </trkpt>
      <trkpt lat="44.12765" lon="6.90638">
        <ele>1375</ele>
        <time>2013-09-21T12:32:55Z</time>
      </trkpt>
      <trkpt lat="44.12719" lon="6.90624">
        <ele>1372</ele>
        <time>2013-09-21T12:33:02Z</time>
      </trkpt>
      <trkpt lat="44.12678" lon="6.90619">
        <ele>1369</ele>
        <time>2013-09-21T12:33:09Z</time>
      </trkpt>
      <trkpt lat="44.12663" lon="6.90622">
        <ele>1367</ele>
        <time>2013-09-21T12:33:14Z</time>
      </trkpt>
      <trkpt lat="44.12658" lon="6.90624">
        <ele>1360</ele>
        <time>2013-09-21T12:33:29Z</time>
      </trkpt>
      <trkpt lat="44.12618" lon="6.90614">
        <ele>1357</ele>
        <time>2013-09-21T12:33:37Z</time>
      </trkpt>
      <trkpt lat="44.12588" lon="6.90607">
        <ele>1355</ele>
        <time>2013-09-21T12:33:42Z</time>
      </trkpt>
      <trkpt lat="44.12534" lon="6.90597">
        <ele>1351</ele>
        <time>2013-09-21T12:33:49Z</time>
      </trkpt>
      <trkpt lat="44.12503" lon="6.90601">
        <ele>1349</ele>
        <time>2013-09-21T12:33:54Z</time>
      </trkpt>
      <trkpt lat="44.12472" lon="6.906">
        <ele>1347</ele>
        <time>2013-09-21T12:33:59Z</time>
      </trkpt>
      <trkpt lat="44.12436" lon="6.90622">
        <ele>1344</ele>
        <time>2013-09-21T12:34:05Z</time>
      </trkpt>
      <trkpt lat="44.124" lon="6.90607">
        <ele>1342</ele>
        <time>2013-09-21T12:34:10Z</time>
      </trkpt>
      <trkpt lat="44.12388" lon="6.90554">
        <ele>1339</ele>
        <time>2013-09-21T12:34:15Z</time>
      </trkpt>
      <trkpt lat="44.12364" lon="6.90525">
        <ele>1337</ele>
        <time>2013-09-21T12:34:19Z</time>
      </trkpt>
      <trkpt lat="44.1235" lon="6.90494">
        <ele>1335</ele>
        <time>2013-09-21T12:34:23Z</time>
      </trkpt>
      <trkpt lat="44.1234" lon="6.9042">
        <ele>1331</ele>
        <time>2013-09-21T12:34:33Z</time>
      </trkpt>
      <trkpt lat="44.12328" lon="6.90407">
        <ele>1329</ele>
        <time>2013-09-21T12:34:36Z</time>
      </trkpt>
      <trkpt lat="44.12298" lon="6.90432">
        <ele>1326</ele>
        <time>2013-09-21T12:34:43Z</time>
      </trkpt>
      <trkpt lat="44.12282" lon="6.90463">
        <ele>1324</ele>
        <time>2013-09-21T12:34:49Z</time>
      </trkpt>
      <trkpt lat="44.12252" lon="6.90512">
        <ele>1319</ele>
        <time>2013-09-21T12:35:00Z</time>
      </trkpt>
      <trkpt lat="44.12237" lon="6.90506">
        <ele>1318</ele>
        <time>2013-09-21T12:35:03Z</time>
      </trkpt>
      <trkpt lat="44.12228" lon="6.905">
        <ele>1317</ele>
        <time>2013-09-21T12:35:05Z</time>
      </trkpt>
      <trkpt lat="44.12222" lon="6.90478">
        <ele>1316</ele>
        <time>2013-09-21T12:35:09Z</time>
      </trkpt>
      <trkpt lat="44.12223" lon="6.90458">
        <ele>1313</ele>
        <time>2013-09-21T12:35:16Z</time>
      </trkpt>
      <trkpt lat="44.12223" lon="6.90431">
        <ele>1308</ele>
        <time>2013-09-21T12:35:30Z</time>
      </trkpt>
      <trkpt lat="44.12222" lon="6.9042">
        <ele>1306</ele>
        <time>2013-09-21T12:35:37Z</time>
      </trkpt>
      <trkpt lat="44.12215" lon="6.90396">
        <ele>1302</ele>
        <time>2013-09-21T12:35:53Z</time>
      </trkpt>
      <trkpt lat="44.12212" lon="6.90365">
        <ele>1299</ele>
        <time>2013-09-21T12:36:12Z</time>
      </trkpt>
      <trkpt lat="44.1221" lon="6.9034">
        <ele>1296</ele>
        <time>2013-09-21T12:36:26Z</time>
      </trkpt>
      <trkpt lat="44.12204" lon="6.90316">
        <ele>1294</ele>
        <time>2013-09-21T12:36:41Z</time>
      </trkpt>
      <trkpt lat="44.12199" lon="6.90292">
        <ele>1293</ele>
        <time>2013-09-21T12:36:56Z</time>
      </trkpt>
      <trkpt lat="44.12194" lon="6.90269">
        <ele>1292</ele>
        <time>2013-09-21T12:37:11Z</time>
      </trkpt>
      <trkpt lat="44.1219" lon="6.90264">
        <ele>1292</ele>
        <time>2013-09-21T12:37:17Z</time>
      </trkpt>
      <trkpt lat="44.12178" lon="6.90269">
        <ele>1291</ele>
        <time>2013-09-21T12:37:31Z</time>
      </trkpt>
      <trkpt lat="44.1216" lon="6.9028">
        <ele>1291</ele>
        <time>2013-09-21T12:37:47Z</time>
      </trkpt>
      <trkpt lat="44.12149" lon="6.90306">
        <ele>1291</ele>
        <time>2013-09-21T12:38:04Z</time>
      </trkpt>
      <trkpt lat="44.1214" lon="6.90336">
        <ele>1292</ele>
        <time>2013-09-21T12:38:23Z</time>
      </trkpt>
      <trkpt lat="44.1212" lon="6.9034">
        <ele>1294</ele>
        <time>2013-09-21T12:38:40Z</time>
      </trkpt>
      <trkpt lat="44.12097" lon="6.90332">
        <ele>1295</ele>
        <time>2013-09-21T12:38:59Z</time>
      </trkpt>
      <trkpt lat="44.12082" lon="6.90311">
        <ele>1297</ele>
        <time>2013-09-21T12:39:17Z</time>
      </trkpt>
      <trkpt lat="44.12061" lon="6.90285">
        <ele>1300</ele>
        <time>2013-09-21T12:39:39Z</time>
      </trkpt>
      <trkpt lat="44.12049" lon="6.90258">
        <ele>1302</ele>
        <time>2013-09-21T12:39:54Z</time>
      </trkpt>
      <trkpt lat="44.1203" lon="6.90234">
        <ele>1304</ele>
        <time>2013-09-21T12:40:11Z</time>
      </trkpt>
      <trkpt lat="44.12011" lon="6.90218">
        <ele>1306</ele>
        <time>2013-09-21T12:40:26Z</time>
      </trkpt>
      <trkpt lat="44.12014" lon="6.90206">
        <ele>1307</ele>
        <time>2013-09-21T12:40:32Z</time>
      </trkpt>
      <trkpt lat="44.12037" lon="6.90178">
        <ele>1309</ele>
        <time>2013-09-21T12:40:49Z</time>
      </trkpt>
      <trkpt lat="44.12056" lon="6.9014">
        <ele>1312</ele>
        <time>2013-09-21T12:41:08Z</time>
      </trkpt>
      <trkpt lat="44.12066" lon="6.9009">
        <ele>1315</ele>
        <time>2013-09-21T12:41:29Z</time>
      </trkpt>
      <trkpt lat="44.12077" lon="6.90039">
        <ele>1319</ele>
        <time>2013-09-21T12:41:49Z</time>
      </trkpt>
      <trkpt lat="44.12086" lon="6.89989">
        <ele>1321</ele>
        <time>2013-09-21T12:42:06Z</time>
      </trkpt>
      <trkpt lat="44.12082" lon="6.89936">
        <ele>1325</ele>
        <time>2013-09-21T12:42:26Z</time>
      </trkpt>
      <trkpt lat="44.12064" lon="6.89881">
        <ele>1328</ele>
        <time>2013-09-21T12:42:46Z</time>
      </trkpt>
      <trkpt lat="44.12051" lon="6.89853">
        <ele>1330</ele>
        <time>2013-09-21T12:42:58Z</time>
      </trkpt>
      <trkpt lat="44.12025" lon="6.89867">
        <ele>1331</ele>
        <time>2013-09-21T12:43:11Z</time>
      </trkpt>
      <trkpt lat="44.11987" lon="6.89898">
        <ele>1332</ele>
        <time>2013-09-21T12:43:29Z</time>
      </trkpt>
      <trkpt lat="44.11953" lon="6.8993">
        <ele>1333</ele>
        <time>2013-09-21T12:43:46Z</time>
      </trkpt>
      <trkpt lat="44.11944" lon="6.89927">
        <ele>1334</ele>
        <time>2013-09-21T12:43:51Z</time>
      </trkpt>
      <trkpt lat="44.11965" lon="6.89903">
        <ele>1335</ele>
        <time>2013-09-21T12:44:03Z</time>
      </trkpt>
      <trkpt lat="44.12001" lon="6.89855">
        <ele>1338</ele>
        <time>2013-09-21T12:44:19Z</time>
      </trkpt>
      <trkpt lat="44.12038" lon="6.89818">
        <ele>1340</ele>
        <time>2013-09-21T12:44:34Z</time>
      </trkpt>
      <trkpt lat="44.12078" lon="6.8978">
        <ele>1342</ele>
        <time>2013-09-21T12:44:50Z</time>
      </trkpt>
      <trkpt lat="44.12093" lon="6.89752">
        <ele>1344</ele>
        <time>2013-09-21T12:45:01Z</time>
      </trkpt>
      <trkpt lat="44.12088" lon="6.89748">
        <ele>1344</ele>
        <time>2013-09-21T12:45:04Z</time>
      </trkpt>
      <trkpt lat="44.12077" lon="6.89755">
        <ele>1345</ele>
        <time>2013-09-21T12:45:10Z</time>
      </trkpt>
      <trkpt lat="44.12051" lon="6.89772">
        <ele>1347</ele>
        <time>2013-09-21T12:45:25Z</time>
      </trkpt>
      <trkpt lat="44.12015" lon="6.8979">
        <ele>1349</ele>
        <time>2013-09-21T12:45:42Z</time>
      </trkpt>
      <trkpt lat="44.11977" lon="6.89807">
        <ele>1352</ele>
        <time>2013-09-21T12:46:00Z</time>
      </trkpt>
      <trkpt lat="44.11941" lon="6.89837">
        <ele>1355</ele>
        <time>2013-09-21T12:46:15Z</time>
      </trkpt>
      <trkpt lat="44.11892" lon="6.89852">
        <ele>1357</ele>
        <time>2013-09-21T12:46:27Z</time>
      </trkpt>
      <trkpt lat="44.11875" lon="6.89862">
        <ele>1358</ele>
        <time>2013-09-21T12:46:32Z</time>
      </trkpt>
      <trkpt lat="44.11847" lon="6.89897">
        <ele>1360</ele>
        <time>2013-09-21T12:46:45Z</time>
      </trkpt>
      <trkpt lat="44.11819" lon="6.89928">
        <ele>1362</ele>
        <time>2013-09-21T12:46:57Z</time>
      </trkpt>
      <trkpt lat="44.11812" lon="6.89927">
        <ele>1363</ele>
        <time>2013-09-21T12:47:01Z</time>
      </trkpt>
      <trkpt lat="44.11818" lon="6.89911">
        <ele>1364</ele>
        <time>2013-09-21T12:47:09Z</time>
      </trkpt>
      <trkpt lat="44.11829" lon="6.8989">
        <ele>1365</ele>
        <time>2013-09-21T12:47:19Z</time>
      </trkpt>
      <trkpt lat="44.11843" lon="6.89863">
        <ele>1367</ele>
        <time>2013-09-21T12:47:31Z</time>
      </trkpt>
      <trkpt lat="44.11852" lon="6.89841">
        <ele>1368</ele>
        <time>2013-09-21T12:47:42Z</time>
      </trkpt>
      <trkpt lat="44.11855" lon="6.8981">
        <ele>1370</ele>
        <time>2013-09-21T12:47:57Z</time>
      </trkpt>
      <trkpt lat="44.11857" lon="6.898">
        <ele>1370</ele>
        <time>2013-09-21T12:48:02Z</time>
      </trkpt>
      <trkpt lat="44.11866" lon="6.89786">
        <ele>1371</ele>
        <time>2013-09-21T12:48:10Z</time>
      </trkpt>
      <trkpt lat="44.11877" lon="6.89783">
        <ele>1374</ele>
        <time>2013-09-21T12:48:24Z</time>
      </trkpt>
      <trkpt lat="44.11878" lon="6.89783">
        <ele>1376</ele>
        <time>2013-09-21T12:48:39Z</time>
      </trkpt>
      <trkpt lat="44.11875" lon="6.89777">
        <ele>1382</ele>
        <time>2013-09-21T12:49:20Z</time>
      </trkpt>
      <trkpt lat="44.11873" lon="6.89774">
        <ele>1385</ele>
        <time>2013-09-21T12:50:12Z</time>
      </trkpt>
      <trkpt lat="44.11858" lon="6.8977">
        <ele>1386</ele>
        <time>2013-09-21T12:50:28Z</time>
      </trkpt>
      <trkpt lat="44.11848" lon="6.89756">
        <ele>1388</ele>
        <time>2013-09-21T12:50:46Z</time>
      </trkpt>
      <trkpt lat="44.11839" lon="6.8975">
        <ele>1390</ele>
        <time>2013-09-21T12:51:01Z</time>
      </trkpt>
      <trkpt lat="44.11831" lon="6.89751">
        <ele>1391</ele>
        <time>2013-09-21T12:51:16Z</time>
      </trkpt>
      <trkpt lat="44.11824" lon="6.89754">
        <ele>1393</ele>
        <time>2013-09-21T12:51:32Z</time>
      </trkpt>
      <trkpt lat="44.11818" lon="6.8975">
        <ele>1393</ele>
        <time>2013-09-21T12:51:47Z</time>
      </trkpt>
      <trkpt lat="44.11814" lon="6.89755">
        <ele>1394</ele>
        <time>2013-09-21T12:51:59Z</time>
      </trkpt>
      <trkpt lat="44.11807" lon="6.89759">
        <ele>1394</ele>
        <time>2013-09-21T12:52:11Z</time>
      </trkpt>
      <trkpt lat="44.11802" lon="6.89763">
        <ele>1394</ele>
        <time>2013-09-21T12:52:24Z</time>
      </trkpt>
      <trkpt lat="44.11792" lon="6.89768">
        <ele>1394</ele>
        <time>2013-09-21T12:52:39Z</time>
      </trkpt>
      <trkpt lat="44.11781" lon="6.89776">
        <ele>1393</ele>
        <time>2013-09-21T12:52:54Z</time>
      </trkpt>
      <trkpt lat="44.11769" lon="6.89781">
        <ele>1393</ele>
        <time>2013-09-21T12:53:10Z</time>
      </trkpt>
      <trkpt lat="44.1176" lon="6.89786">
        <ele>1393</ele>
        <time>2013-09-21T12:53:38Z</time>
      </trkpt>
      <trkpt lat="44.11741" lon="6.89789">
        <ele>1392</ele>
        <time>2013-09-21T12:53:51Z</time>
      </trkpt>
      <trkpt lat="44.11731" lon="6.89786">
        <ele>1392</ele>
        <time>2013-09-21T12:53:57Z</time>
      </trkpt>
      <trkpt lat="44.11729" lon="6.89776">
        <ele>1392</ele>
        <time>2013-09-21T12:54:03Z</time>
      </trkpt>
      <trkpt lat="44.11729" lon="6.8976">
        <ele>1392</ele>
        <time>2013-09-21T12:54:13Z</time>
      </trkpt>
      <trkpt lat="44.1172" lon="6.89739">
        <ele>1393</ele>
        <time>2013-09-21T12:54:28Z</time>
      </trkpt>
      <trkpt lat="44.11707" lon="6.89718">
        <ele>1395</ele>
        <time>2013-09-21T12:54:44Z</time>
      </trkpt>
      <trkpt lat="44.11697" lon="6.89704">
        <ele>1396</ele>
        <time>2013-09-21T12:54:55Z</time>
      </trkpt>
      <trkpt lat="44.11697" lon="6.89699">
        <ele>1397</ele>
        <time>2013-09-21T12:55:02Z</time>
      </trkpt>
      <trkpt lat="44.11691" lon="6.89703">
        <ele>1432</ele>
        <time>2013-09-21T12:58:24Z</time>
      </trkpt>
      <trkpt lat="44.11688" lon="6.89691">
        <ele>1433</ele>
        <time>2013-09-21T12:58:32Z</time>
      </trkpt>
      <trkpt lat="44.11682" lon="6.8968">
        <ele>1434</ele>
        <time>2013-09-21T12:58:46Z</time>
      </trkpt>
      <trkpt lat="44.11681" lon="6.89677">
        <ele>1436</ele>
        <time>2013-09-21T12:59:01Z</time>
      </trkpt>
      <trkpt lat="44.11682" lon="6.89679">
        <ele>1441</ele>
        <time>2013-09-21T12:59:55Z</time>
      </trkpt>
      <trkpt lat="44.11682" lon="6.89679">
        <ele>1443</ele>
        <time>2013-09-21T13:00:16Z</time>
      </trkpt>
      <trkpt lat="44.11677" lon="6.89673">
        <ele>1445</ele>
        <time>2013-09-21T13:00:30Z</time>
      </trkpt>
      <trkpt lat="44.11663" lon="6.89666">
        <ele>1445</ele>
        <time>2013-09-21T13:00:43Z</time>
      </trkpt>
      <trkpt lat="44.11647" lon="6.89654">
        <ele>1446</ele>
        <time>2013-09-21T13:00:57Z</time>
      </trkpt>
      <trkpt lat="44.11639" lon="6.89645">
        <ele>1446</ele>
        <time>2013-09-21T13:01:04Z</time>
      </trkpt>
      <trkpt lat="44.11631" lon="6.89633">
        <ele>1446</ele>
        <time>2013-09-21T13:01:12Z</time>
      </trkpt>
      <trkpt lat="44.11615" lon="6.89614">
        <ele>1447</ele>
        <time>2013-09-21T13:01:28Z</time>
      </trkpt>
      <trkpt lat="44.11601" lon="6.89584">
        <ele>1448</ele>
        <time>2013-09-21T13:01:43Z</time>
      </trkpt>
      <trkpt lat="44.11596" lon="6.89541">
        <ele>1449</ele>
        <time>2013-09-21T13:02:01Z</time>
      </trkpt>
      <trkpt lat="44.1159" lon="6.8953">
        <ele>1452</ele>
        <time>2013-09-21T13:02:49Z</time>
      </trkpt>
      <trkpt lat="44.11572" lon="6.89504">
        <ele>1452</ele>
        <time>2013-09-21T13:02:57Z</time>
      </trkpt>
      <trkpt lat="44.11566" lon="6.89472">
        <ele>1451</ele>
        <time>2013-09-21T13:03:05Z</time>
      </trkpt>
      <trkpt lat="44.11572" lon="6.89461">
        <ele>1451</ele>
        <time>2013-09-21T13:03:09Z</time>
      </trkpt>
      <trkpt lat="44.11586" lon="6.89429">
        <ele>1451</ele>
        <time>2013-09-21T13:03:15Z</time>
      </trkpt>
      <trkpt lat="44.11595" lon="6.89402">
        <ele>1450</ele>
        <time>2013-09-21T13:03:22Z</time>
      </trkpt>
      <trkpt lat="44.11599" lon="6.89389">
        <ele>1450</ele>
        <time>2013-09-21T13:03:26Z</time>
      </trkpt>
      <trkpt lat="44.11608" lon="6.89356">
        <ele>1450</ele>
        <time>2013-09-21T13:03:35Z</time>
      </trkpt>
      <trkpt lat="44.11617" lon="6.89329">
        <ele>1450</ele>
        <time>2013-09-21T13:03:43Z</time>
      </trkpt>
      <trkpt lat="44.11617" lon="6.89314">
        <ele>1450</ele>
        <time>2013-09-21T13:03:48Z</time>
      </trkpt>
      <trkpt lat="44.11621" lon="6.89295">
        <ele>1450</ele>
        <time>2013-09-21T13:03:54Z</time>
      </trkpt>
      <trkpt lat="44.11634" lon="6.89263">
        <ele>1450</ele>
        <time>2013-09-21T13:04:02Z</time>
      </trkpt>
      <trkpt lat="44.11643" lon="6.89251">
        <ele>1450</ele>
        <time>2013-09-21T13:04:10Z</time>
      </trkpt>
      <trkpt lat="44.11649" lon="6.89245">
        <ele>1450</ele>
        <time>2013-09-21T13:04:16Z</time>
      </trkpt>
      <trkpt lat="44.11649" lon="6.89237">
        <ele>1450</ele>
        <time>2013-09-21T13:04:22Z</time>
      </trkpt>
      <trkpt lat="44.11653" lon="6.8923">
        <ele>1452</ele>
        <time>2013-09-21T13:04:37Z</time>
      </trkpt>
      <trkpt lat="44.1165" lon="6.8922">
        <ele>1453</ele>
        <time>2013-09-21T13:04:46Z</time>
      </trkpt>
      <trkpt lat="44.11656" lon="6.8922">
        <ele>1454</ele>
        <time>2013-09-21T13:04:56Z</time>
      </trkpt>
      <trkpt lat="44.11666" lon="6.89226">
        <ele>1455</ele>
        <time>2013-09-21T13:05:11Z</time>
      </trkpt>
      <trkpt lat="44.1167" lon="6.89226">
        <ele>1456</ele>
        <time>2013-09-21T13:05:25Z</time>
      </trkpt>
      <trkpt lat="44.11678" lon="6.89224">
        <ele>1457</ele>
        <time>2013-09-21T13:05:36Z</time>
      </trkpt>
      <trkpt lat="44.11679" lon="6.89218">
        <ele>1457</ele>
        <time>2013-09-21T13:05:48Z</time>
      </trkpt>
      <trkpt lat="44.11684" lon="6.89213">
        <ele>1459</ele>
        <time>2013-09-21T13:06:03Z</time>
      </trkpt>
      <trkpt lat="44.11682" lon="6.892">
        <ele>1461</ele>
        <time>2013-09-21T13:06:19Z</time>
      </trkpt>
      <trkpt lat="44.11675" lon="6.8919">
        <ele>1463</ele>
        <time>2013-09-21T13:06:32Z</time>
      </trkpt>
      <trkpt lat="44.11665" lon="6.89169">
        <ele>1464</ele>
        <time>2013-09-21T13:06:39Z</time>
      </trkpt>
      <trkpt lat="44.11658" lon="6.89159">
        <ele>1464</ele>
        <time>2013-09-21T13:06:42Z</time>
      </trkpt>
      <trkpt lat="44.11644" lon="6.89148">
        <ele>1464</ele>
        <time>2013-09-21T13:06:47Z</time>
      </trkpt>
      <trkpt lat="44.11639" lon="6.89144">
        <ele>1464</ele>
        <time>2013-09-21T13:06:50Z</time>
      </trkpt>
      <trkpt lat="44.11634" lon="6.89142">
        <ele>1464</ele>
        <time>2013-09-21T13:06:53Z</time>
      </trkpt>
      <trkpt lat="44.11621" lon="6.89119">
        <ele>1465</ele>
        <time>2013-09-21T13:07:02Z</time>
      </trkpt>
      <trkpt lat="44.11586" lon="6.89074">
        <ele>1465</ele>
        <time>2013-09-21T13:07:12Z</time>
      </trkpt>
      <trkpt lat="44.11553" lon="6.8904">
        <ele>1465</ele>
        <time>2013-09-21T13:07:20Z</time>
      </trkpt>
      <trkpt lat="44.11536" lon="6.89016">
        <ele>1465</ele>
        <time>2013-09-21T13:07:26Z</time>
      </trkpt>
      <trkpt lat="44.11521" lon="6.88975">
        <ele>1464</ele>
        <time>2013-09-21T13:07:33Z</time>
      </trkpt>
      <trkpt lat="44.11514" lon="6.88946">
        <ele>1464</ele>
        <time>2013-09-21T13:07:38Z</time>
      </trkpt>
      <trkpt lat="44.11511" lon="6.88935">
        <ele>1464</ele>
        <time>2013-09-21T13:07:41Z</time>
      </trkpt>
      <trkpt lat="44.11506" lon="6.8891">
        <ele>1464</ele>
        <time>2013-09-21T13:07:46Z</time>
      </trkpt>
      <trkpt lat="44.11502" lon="6.88882">
        <ele>1463</ele>
        <time>2013-09-21T13:07:53Z</time>
      </trkpt>
      <trkpt lat="44.11504" lon="6.88875">
        <ele>1461</ele>
        <time>2013-09-21T13:11:00Z</time>
      </trkpt>
      <trkpt lat="44.1151" lon="6.88866">
        <ele>1462</ele>
        <time>2013-09-21T13:11:39Z</time>
      </trkpt>
      <trkpt lat="44.11509" lon="6.88853">
        <ele>1462</ele>
        <time>2013-09-21T13:11:42Z</time>
      </trkpt>
      <trkpt lat="44.11523" lon="6.88794">
        <ele>1461</ele>
        <time>2013-09-21T13:11:53Z</time>
      </trkpt>
      <trkpt lat="44.11537" lon="6.88769">
        <ele>1461</ele>
        <time>2013-09-21T13:11:59Z</time>
      </trkpt>
      <trkpt lat="44.1155" lon="6.88746">
        <ele>1461</ele>
        <time>2013-09-21T13:12:06Z</time>
      </trkpt>
      <trkpt lat="44.11549" lon="6.88725">
        <ele>1460</ele>
        <time>2013-09-21T13:12:10Z</time>
      </trkpt>
      <trkpt lat="44.1156" lon="6.88707">
        <ele>1460</ele>
        <time>2013-09-21T13:12:14Z</time>
      </trkpt>
      <trkpt lat="44.11559" lon="6.88693">
        <ele>1460</ele>
        <time>2013-09-21T13:12:20Z</time>
      </trkpt>
      <trkpt lat="44.11554" lon="6.88684">
        <ele>1459</ele>
        <time>2013-09-21T13:12:28Z</time>
      </trkpt>
      <trkpt lat="44.11541" lon="6.88666">
        <ele>1459</ele>
        <time>2013-09-21T13:12:51Z</time>
      </trkpt>
      <trkpt lat="44.11529" lon="6.88651">
        <ele>1459</ele>
        <time>2013-09-21T13:13:09Z</time>
      </trkpt>
      <trkpt lat="44.11522" lon="6.88642">
        <ele>1459</ele>
        <time>2013-09-21T13:13:25Z</time>
      </trkpt>
      <trkpt lat="44.11516" lon="6.88641">
        <ele>1459</ele>
        <time>2013-09-21T13:13:30Z</time>
      </trkpt>
      <trkpt lat="44.11508" lon="6.88644">
        <ele>1459</ele>
        <time>2013-09-21T13:13:36Z</time>
      </trkpt>
      <trkpt lat="44.11489" lon="6.88645">
        <ele>1459</ele>
        <time>2013-09-21T13:13:48Z</time>
      </trkpt>
      <trkpt lat="44.11467" lon="6.88644">
        <ele>1460</ele>
        <time>2013-09-21T13:14:01Z</time>
      </trkpt>
      <trkpt lat="44.1146" lon="6.88642">
        <ele>1460</ele>
        <time>2013-09-21T13:14:06Z</time>
      </trkpt>
      <trkpt lat="44.11451" lon="6.88641">
        <ele>1460</ele>
        <time>2013-09-21T13:14:12Z</time>
      </trkpt>
      <trkpt lat="44.11444" lon="6.88639">
        <ele>1460</ele>
        <time>2013-09-21T13:14:17Z</time>
      </trkpt>
      <trkpt lat="44.11433" lon="6.88635">
        <ele>1460</ele>
        <time>2013-09-21T13:14:24Z</time>
      </trkpt>
      <trkpt lat="44.11416" lon="6.88625">
        <ele>1461</ele>
        <time>2013-09-21T13:14:36Z</time>
      </trkpt>
      <trkpt lat="44.11408" lon="6.88622">
        <ele>1462</ele>
        <time>2013-09-21T13:14:42Z</time>
      </trkpt>
      <trkpt lat="44.11395" lon="6.88617">
        <ele>1463</ele>
        <time>2013-09-21T13:14:53Z</time>
      </trkpt>
      <trkpt lat="44.11388" lon="6.88613">
        <ele>1464</ele>
        <time>2013-09-21T13:14:58Z</time>
      </trkpt>
      <trkpt lat="44.1138" lon="6.88613">
        <ele>1465</ele>
        <time>2013-09-21T13:15:03Z</time>
      </trkpt>
      <trkpt lat="44.1137" lon="6.88613">
        <ele>1465</ele>
        <time>2013-09-21T13:15:08Z</time>
      </trkpt>
      <trkpt lat="44.11351" lon="6.88613">
        <ele>1466</ele>
        <time>2013-09-21T13:15:19Z</time>
      </trkpt>
      <trkpt lat="44.11344" lon="6.88611">
        <ele>1466</ele>
        <time>2013-09-21T13:15:23Z</time>
      </trkpt>
      <trkpt lat="44.11322" lon="6.88606">
        <ele>1468</ele>
        <time>2013-09-21T13:15:34Z</time>
      </trkpt>
      <trkpt lat="44.11301" lon="6.88593">
        <ele>1470</ele>
        <time>2013-09-21T13:15:45Z</time>
      </trkpt>
      <trkpt lat="44.11294" lon="6.88586">
        <ele>1470</ele>
        <time>2013-09-21T13:15:49Z</time>
      </trkpt>
      <trkpt lat="44.11267" lon="6.88562">
        <ele>1472</ele>
        <time>2013-09-21T13:16:01Z</time>
      </trkpt>
      <trkpt lat="44.11239" lon="6.88531">
        <ele>1473</ele>
        <time>2013-09-21T13:16:10Z</time>
      </trkpt>
      <trkpt lat="44.11227" lon="6.8848">
        <ele>1473</ele>
        <time>2013-09-21T13:16:18Z</time>
      </trkpt>
      <trkpt lat="44.11227" lon="6.88457">
        <ele>1474</ele>
        <time>2013-09-21T13:16:22Z</time>
      </trkpt>
      <trkpt lat="44.11214" lon="6.88429">
        <ele>1474</ele>
        <time>2013-09-21T13:16:28Z</time>
      </trkpt>
      <trkpt lat="44.11206" lon="6.88417">
        <ele>1474</ele>
        <time>2013-09-21T13:16:31Z</time>
      </trkpt>
      <trkpt lat="44.11198" lon="6.88389">
        <ele>1475</ele>
        <time>2013-09-21T13:16:37Z</time>
      </trkpt>
      <trkpt lat="44.11198" lon="6.88353">
        <ele>1476</ele>
        <time>2013-09-21T13:16:49Z</time>
      </trkpt>
      <trkpt lat="44.11197" lon="6.88316">
        <ele>1477</ele>
        <time>2013-09-21T13:17:02Z</time>
      </trkpt>
      <trkpt lat="44.11196" lon="6.88282">
        <ele>1478</ele>
        <time>2013-09-21T13:17:19Z</time>
      </trkpt>
      <trkpt lat="44.11195" lon="6.88256">
        <ele>1479</ele>
        <time>2013-09-21T13:17:31Z</time>
      </trkpt>
      <trkpt lat="44.11192" lon="6.8823">
        <ele>1480</ele>
        <time>2013-09-21T13:17:44Z</time>
      </trkpt>
      <trkpt lat="44.11195" lon="6.88204">
        <ele>1482</ele>
        <time>2013-09-21T13:17:57Z</time>
      </trkpt>
      <trkpt lat="44.112" lon="6.88176">
        <ele>1484</ele>
        <time>2013-09-21T13:18:12Z</time>
      </trkpt>
      <trkpt lat="44.112" lon="6.88158">
        <ele>1486</ele>
        <time>2013-09-21T13:18:22Z</time>
      </trkpt>
      <trkpt lat="44.11208" lon="6.88128">
        <ele>1488</ele>
        <time>2013-09-21T13:18:38Z</time>
      </trkpt>
      <trkpt lat="44.11213" lon="6.88118">
        <ele>1489</ele>
        <time>2013-09-21T13:18:50Z</time>
      </trkpt>
      <trkpt lat="44.11213" lon="6.88117">
        <ele>1490</ele>
        <time>2013-09-21T13:18:58Z</time>
      </trkpt>
      <trkpt lat="44.11213" lon="6.88114">
        <ele>1494</ele>
        <time>2013-09-21T13:31:49Z</time>
      </trkpt>
      <trkpt lat="44.11226" lon="6.88079">
        <ele>1494</ele>
        <time>2013-09-21T13:31:59Z</time>
      </trkpt>
      <trkpt lat="44.11239" lon="6.8806">
        <ele>1494</ele>
        <time>2013-09-21T13:32:03Z</time>
      </trkpt>
      <trkpt lat="44.11271" lon="6.88015">
        <ele>1494</ele>
        <time>2013-09-21T13:32:10Z</time>
      </trkpt>
      <trkpt lat="44.11295" lon="6.8799">
        <ele>1494</ele>
        <time>2013-09-21T13:32:14Z</time>
      </trkpt>
      <trkpt lat="44.11325" lon="6.87963">
        <ele>1494</ele>
        <time>2013-09-21T13:32:19Z</time>
      </trkpt>
      <trkpt lat="44.11351" lon="6.8796">
        <ele>1493</ele>
        <time>2013-09-21T13:32:23Z</time>
      </trkpt>
      <trkpt lat="44.1139" lon="6.87959">
        <ele>1493</ele>
        <time>2013-09-21T13:32:29Z</time>
      </trkpt>
      <trkpt lat="44.11416" lon="6.87976">
        <ele>1492</ele>
        <time>2013-09-21T13:32:34Z</time>
      </trkpt>
      <trkpt lat="44.11436" lon="6.87992">
        <ele>1492</ele>
        <time>2013-09-21T13:32:39Z</time>
      </trkpt>
      <trkpt lat="44.11446" lon="6.87993">
        <ele>1491</ele>
        <time>2013-09-21T13:32:43Z</time>
      </trkpt>
      <trkpt lat="44.11457" lon="6.87996">
        <ele>1491</ele>
        <time>2013-09-21T13:32:47Z</time>
      </trkpt>
      <trkpt lat="44.11464" lon="6.87994">
        <ele>1490</ele>
        <time>2013-09-21T13:32:51Z</time>
      </trkpt>
      <trkpt lat="44.11485" lon="6.87988">
        <ele>1489</ele>
        <time>2013-09-21T13:32:58Z</time>
      </trkpt>
      <trkpt lat="44.11501" lon="6.87989">
        <ele>1488</ele>
        <time>2013-09-21T13:33:02Z</time>
      </trkpt>
      <trkpt lat="44.11517" lon="6.87987">
        <ele>1487</ele>
        <time>2013-09-21T13:33:07Z</time>
      </trkpt>
      <trkpt lat="44.11529" lon="6.87986">
        <ele>1487</ele>
        <time>2013-09-21T13:33:11Z</time>
      </trkpt>
      <trkpt lat="44.11548" lon="6.87989">
        <ele>1486</ele>
        <time>2013-09-21T13:33:15Z</time>
      </trkpt>
      <trkpt lat="44.11583" lon="6.88011">
        <ele>1484</ele>
        <time>2013-09-21T13:33:23Z</time>
      </trkpt>
      <trkpt lat="44.116" lon="6.88027">
        <ele>1482</ele>
        <time>2013-09-21T13:33:28Z</time>
      </trkpt>
      <trkpt lat="44.11617" lon="6.88035">
        <ele>1481</ele>
        <time>2013-09-21T13:33:32Z</time>
      </trkpt>
      <trkpt lat="44.11638" lon="6.88051">
        <ele>1480</ele>
        <time>2013-09-21T13:33:37Z</time>
      </trkpt>
      <trkpt lat="44.11644" lon="6.88058">
        <ele>1478</ele>
        <time>2013-09-21T13:33:41Z</time>
      </trkpt>
      <trkpt lat="44.11653" lon="6.88064">
        <ele>1472</ele>
        <time>2013-09-21T13:34:03Z</time>
      </trkpt>
      <trkpt lat="44.11678" lon="6.88062">
        <ele>1469</ele>
        <time>2013-09-21T13:34:12Z</time>
      </trkpt>
      <trkpt lat="44.1169" lon="6.88066">
        <ele>1467</ele>
        <time>2013-09-21T13:34:17Z</time>
      </trkpt>
      <trkpt lat="44.117" lon="6.88067">
        <ele>1465</ele>
        <time>2013-09-21T13:34:21Z</time>
      </trkpt>
      <trkpt lat="44.11704" lon="6.88061">
        <ele>1464</ele>
        <time>2013-09-21T13:34:25Z</time>
      </trkpt>
      <trkpt lat="44.11681" lon="6.88033">
        <ele>1461</ele>
        <time>2013-09-21T13:34:33Z</time>
      </trkpt>
      <trkpt lat="44.11676" lon="6.88017">
        <ele>1459</ele>
        <time>2013-09-21T13:34:39Z</time>
      </trkpt>
      <trkpt lat="44.11688" lon="6.88016">
        <ele>1458</ele>
        <time>2013-09-21T13:34:43Z</time>
      </trkpt>
      <trkpt lat="44.11716" lon="6.88013">
        <ele>1455</ele>
        <time>2013-09-21T13:34:50Z</time>
      </trkpt>
      <trkpt lat="44.11721" lon="6.8801">
        <ele>1454</ele>
        <time>2013-09-21T13:34:53Z</time>
      </trkpt>
      <trkpt lat="44.1172" lon="6.87998">
        <ele>1452</ele>
        <time>2013-09-21T13:34:58Z</time>
      </trkpt>
      <trkpt lat="44.11721" lon="6.87996">
        <ele>1451</ele>
        <time>2013-09-21T13:35:01Z</time>
      </trkpt>
      <trkpt lat="44.1172" lon="6.87994">
        <ele>1444</ele>
        <time>2013-09-21T13:35:23Z</time>
      </trkpt>
      <trkpt lat="44.11715" lon="6.87982">
        <ele>1443</ele>
        <time>2013-09-21T13:35:27Z</time>
      </trkpt>
      <trkpt lat="44.11707" lon="6.87973">
        <ele>1441</ele>
        <time>2013-09-21T13:35:31Z</time>
      </trkpt>
      <trkpt lat="44.11686" lon="6.87948">
        <ele>1439</ele>
        <time>2013-09-21T13:35:37Z</time>
      </trkpt>
      <trkpt lat="44.11676" lon="6.87937">
        <ele>1438</ele>
        <time>2013-09-21T13:35:41Z</time>
      </trkpt>
      <trkpt lat="44.11684" lon="6.87929">
        <ele>1436</ele>
        <time>2013-09-21T13:35:46Z</time>
      </trkpt>
      <trkpt lat="44.11694" lon="6.87927">
        <ele>1434</ele>
        <time>2013-09-21T13:35:50Z</time>
      </trkpt>
      <trkpt lat="44.11698" lon="6.8793">
        <ele>1429</ele>
        <time>2013-09-21T13:36:01Z</time>
      </trkpt>
      <trkpt lat="44.11695" lon="6.87921">
        <ele>1425</ele>
        <time>2013-09-21T13:36:11Z</time>
      </trkpt>
      <trkpt lat="44.11681" lon="6.8791">
        <ele>1422</ele>
        <time>2013-09-21T13:36:18Z</time>
      </trkpt>
      <trkpt lat="44.11684" lon="6.87905">
        <ele>1418</ele>
        <time>2013-09-21T13:36:26Z</time>
      </trkpt>
      <trkpt lat="44.1169" lon="6.87904">
        <ele>1415</ele>
        <time>2013-09-21T13:36:32Z</time>
      </trkpt>
      <trkpt lat="44.11689" lon="6.87896">
        <ele>1410</ele>
        <time>2013-09-21T13:36:42Z</time>
      </trkpt>
      <trkpt lat="44.11693" lon="6.87895">
        <ele>1409</ele>
        <time>2013-09-21T13:36:46Z</time>
      </trkpt>
      <trkpt lat="44.11702" lon="6.87901">
        <ele>1404</ele>
        <time>2013-09-21T13:36:55Z</time>
      </trkpt>
      <trkpt lat="44.11706" lon="6.87901">
        <ele>1402</ele>
        <time>2013-09-21T13:37:01Z</time>
      </trkpt>
      <trkpt lat="44.1171" lon="6.87899">
        <ele>1398</ele>
        <time>2013-09-21T13:37:09Z</time>
      </trkpt>
      <trkpt lat="44.1172" lon="6.87897">
        <ele>1394</ele>
        <time>2013-09-21T13:37:17Z</time>
      </trkpt>
      <trkpt lat="44.11725" lon="6.87902">
        <ele>1391</ele>
        <time>2013-09-21T13:37:24Z</time>
      </trkpt>
      <trkpt lat="44.11734" lon="6.87906">
        <ele>1387</ele>
        <time>2013-09-21T13:37:34Z</time>
      </trkpt>
      <trkpt lat="44.1175" lon="6.87912">
        <ele>1385</ele>
        <time>2013-09-21T13:37:40Z</time>
      </trkpt>
      <trkpt lat="44.11759" lon="6.87913">
        <ele>1382</ele>
        <time>2013-09-21T13:37:45Z</time>
      </trkpt>
      <trkpt lat="44.11774" lon="6.87917">
        <ele>1380</ele>
        <time>2013-09-21T13:37:52Z</time>
      </trkpt>
      <trkpt lat="44.1178" lon="6.87917">
        <ele>1378</ele>
        <time>2013-09-21T13:37:57Z</time>
      </trkpt>
      <trkpt lat="44.11782" lon="6.87914">
        <ele>1372</ele>
        <time>2013-09-21T13:38:14Z</time>
      </trkpt>
      <trkpt lat="44.11782" lon="6.87913">
        <ele>1366</ele>
        <time>2013-09-21T13:38:33Z</time>
      </trkpt>
      <trkpt lat="44.11779" lon="6.87903">
        <ele>1364</ele>
        <time>2013-09-21T13:38:42Z</time>
      </trkpt>
      <trkpt lat="44.11783" lon="6.87902">
        <ele>1363</ele>
        <time>2013-09-21T13:38:48Z</time>
      </trkpt>
      <trkpt lat="44.11784" lon="6.87903">
        <ele>1362</ele>
        <time>2013-09-21T13:38:51Z</time>
      </trkpt>
      <trkpt lat="44.11787" lon="6.87901">
        <ele>1361</ele>
        <time>2013-09-21T13:39:01Z</time>
      </trkpt>
      <trkpt lat="44.11791" lon="6.87907">
        <ele>1360</ele>
        <time>2013-09-21T13:39:08Z</time>
      </trkpt>
      <trkpt lat="44.11797" lon="6.8791">
        <ele>1358</ele>
        <time>2013-09-21T13:39:20Z</time>
      </trkpt>
      <trkpt lat="44.118" lon="6.87906">
        <ele>1357</ele>
        <time>2013-09-21T13:39:30Z</time>
      </trkpt>
      <trkpt lat="44.11803" lon="6.87902">
        <ele>1356</ele>
        <time>2013-09-21T13:39:43Z</time>
      </trkpt>
      <trkpt lat="44.11802" lon="6.87888">
        <ele>1355</ele>
        <time>2013-09-21T13:39:58Z</time>
      </trkpt>
      <trkpt lat="44.11806" lon="6.87879">
        <ele>1354</ele>
        <time>2013-09-21T13:40:10Z</time>
      </trkpt>
      <trkpt lat="44.11813" lon="6.87886">
        <ele>1354</ele>
        <time>2013-09-21T13:40:20Z</time>
      </trkpt>
      <trkpt lat="44.11815" lon="6.87889">
        <ele>1354</ele>
        <time>2013-09-21T13:40:25Z</time>
      </trkpt>
      <trkpt lat="44.11818" lon="6.87893">
        <ele>1354</ele>
        <time>2013-09-21T13:40:31Z</time>
      </trkpt>
      <trkpt lat="44.11827" lon="6.87895">
        <ele>1354</ele>
        <time>2013-09-21T13:40:47Z</time>
      </trkpt>
      <trkpt lat="44.11831" lon="6.87888">
        <ele>1356</ele>
        <time>2013-09-21T13:41:04Z</time>
      </trkpt>
      <trkpt lat="44.11834" lon="6.87876">
        <ele>1358</ele>
        <time>2013-09-21T13:41:21Z</time>
      </trkpt>
      <trkpt lat="44.11826" lon="6.87849">
        <ele>1360</ele>
        <time>2013-09-21T13:41:34Z</time>
      </trkpt>
      <trkpt lat="44.1181" lon="6.87814">
        <ele>1363</ele>
        <time>2013-09-21T13:41:50Z</time>
      </trkpt>
      <trkpt lat="44.11811" lon="6.87812">
        <ele>1364</ele>
        <time>2013-09-21T13:42:02Z</time>
      </trkpt>
      <trkpt lat="44.11813" lon="6.87812">
        <ele>1365</ele>
        <time>2013-09-21T13:42:43Z</time>
      </trkpt>
      <trkpt lat="44.11816" lon="6.87813">
        <ele>1366</ele>
        <time>2013-09-21T13:43:23Z</time>
      </trkpt>
      <trkpt lat="44.11819" lon="6.87813">
        <ele>1369</ele>
        <time>2013-09-21T13:44:17Z</time>
      </trkpt>
      <trkpt lat="44.11819" lon="6.87808">
        <ele>1368</ele>
        <time>2013-09-21T13:46:38Z</time>
      </trkpt>
      <trkpt lat="44.118" lon="6.8769">
        <ele>1372</ele>
        <time>2013-09-21T13:50:34Z</time>
      </trkpt>
      <trkpt lat="44.11795" lon="6.87681">
        <ele>1373</ele>
        <time>2013-09-21T13:50:46Z</time>
      </trkpt>
      <trkpt lat="44.11789" lon="6.87673">
        <ele>1374</ele>
        <time>2013-09-21T13:50:57Z</time>
      </trkpt>
      <trkpt lat="44.11781" lon="6.87657">
        <ele>1376</ele>
        <time>2013-09-21T13:51:12Z</time>
      </trkpt>
      <trkpt lat="44.11781" lon="6.87637">
        <ele>1378</ele>
        <time>2013-09-21T13:51:28Z</time>
      </trkpt>
      <trkpt lat="44.11781" lon="6.8761">
        <ele>1380</ele>
        <time>2013-09-21T13:51:49Z</time>
      </trkpt>
      <trkpt lat="44.11784" lon="6.87592">
        <ele>1383</ele>
        <time>2013-09-21T13:52:05Z</time>
      </trkpt>
      <trkpt lat="44.11791" lon="6.87581">
        <ele>1384</ele>
        <time>2013-09-21T13:52:13Z</time>
      </trkpt>
      <trkpt lat="44.11785" lon="6.87575">
        <ele>1385</ele>
        <time>2013-09-21T13:52:18Z</time>
      </trkpt>
      <trkpt lat="44.11784" lon="6.87574">
        <ele>1386</ele>
        <time>2013-09-21T13:52:33Z</time>
      </trkpt>
      <trkpt lat="44.11772" lon="6.87564">
        <ele>1387</ele>
        <time>2013-09-21T13:52:42Z</time>
      </trkpt>
      <trkpt lat="44.11761" lon="6.87549">
        <ele>1387</ele>
        <time>2013-09-21T13:52:49Z</time>
      </trkpt>
      <trkpt lat="44.1176" lon="6.87541">
        <ele>1387</ele>
        <time>2013-09-21T13:52:55Z</time>
      </trkpt>
      <trkpt lat="44.11763" lon="6.87542">
        <ele>1388</ele>
        <time>2013-09-21T13:53:01Z</time>
      </trkpt>
      <trkpt lat="44.11777" lon="6.87557">
        <ele>1389</ele>
        <time>2013-09-21T13:53:19Z</time>
      </trkpt>
      <trkpt lat="44.11782" lon="6.87555">
        <ele>1390</ele>
        <time>2013-09-21T13:53:27Z</time>
      </trkpt>
      <trkpt lat="44.11782" lon="6.87537">
        <ele>1393</ele>
        <time>2013-09-21T13:53:47Z</time>
      </trkpt>
      <trkpt lat="44.11784" lon="6.87516">
        <ele>1395</ele>
        <time>2013-09-21T13:54:05Z</time>
      </trkpt>
      <trkpt lat="44.11791" lon="6.87499">
        <ele>1398</ele>
        <time>2013-09-21T13:54:27Z</time>
      </trkpt>
      <trkpt lat="44.11792" lon="6.87489">
        <ele>1400</ele>
        <time>2013-09-21T13:54:40Z</time>
      </trkpt>
      <trkpt lat="44.11791" lon="6.87465">
        <ele>1401</ele>
        <time>2013-09-21T13:54:51Z</time>
      </trkpt>
      <trkpt lat="44.11793" lon="6.87424">
        <ele>1403</ele>
        <time>2013-09-21T13:55:04Z</time>
      </trkpt>
      <trkpt lat="44.11778" lon="6.87377">
        <ele>1404</ele>
        <time>2013-09-21T13:55:18Z</time>
      </trkpt>
      <trkpt lat="44.11758" lon="6.87337">
        <ele>1405</ele>
        <time>2013-09-21T13:55:32Z</time>
      </trkpt>
      <trkpt lat="44.11755" lon="6.873">
        <ele>1406</ele>
        <time>2013-09-21T13:55:44Z</time>
      </trkpt>
      <trkpt lat="44.11757" lon="6.87292">
        <ele>1407</ele>
        <time>2013-09-21T13:55:47Z</time>
      </trkpt>
      <trkpt lat="44.11746" lon="6.87286">
        <ele>1407</ele>
        <time>2013-09-21T13:55:52Z</time>
      </trkpt>
      <trkpt lat="44.11732" lon="6.87257">
        <ele>1407</ele>
        <time>2013-09-21T13:56:00Z</time>
      </trkpt>
      <trkpt lat="44.11736" lon="6.87212">
        <ele>1408</ele>
        <time>2013-09-21T13:56:10Z</time>
      </trkpt>
      <trkpt lat="44.11744" lon="6.87171">
        <ele>1409</ele>
        <time>2013-09-21T13:56:19Z</time>
      </trkpt>
      <trkpt lat="44.11758" lon="6.87136">
        <ele>1409</ele>
        <time>2013-09-21T13:56:25Z</time>
      </trkpt>
      <trkpt lat="44.11768" lon="6.87122">
        <ele>1409</ele>
        <time>2013-09-21T13:56:29Z</time>
      </trkpt>
      <trkpt lat="44.11789" lon="6.87085">
        <ele>1409</ele>
        <time>2013-09-21T13:56:41Z</time>
      </trkpt>
      <trkpt lat="44.11825" lon="6.87063">
        <ele>1410</ele>
        <time>2013-09-21T13:56:57Z</time>
      </trkpt>
      <trkpt lat="44.11863" lon="6.87047">
        <ele>1412</ele>
        <time>2013-09-21T13:57:14Z</time>
      </trkpt>
      <trkpt lat="44.11898" lon="6.87035">
        <ele>1415</ele>
        <time>2013-09-21T13:57:31Z</time>
      </trkpt>
      <trkpt lat="44.11914" lon="6.87038">
        <ele>1416</ele>
        <time>2013-09-21T13:57:43Z</time>
      </trkpt>
      <trkpt lat="44.11918" lon="6.87037">
        <ele>1417</ele>
        <time>2013-09-21T13:57:47Z</time>
      </trkpt>
      <trkpt lat="44.11921" lon="6.87037">
        <ele>1418</ele>
        <time>2013-09-21T13:58:20Z</time>
      </trkpt>
      <trkpt lat="44.11946" lon="6.87033">
        <ele>1418</ele>
        <time>2013-09-21T13:58:35Z</time>
      </trkpt>
      <trkpt lat="44.11971" lon="6.87047">
        <ele>1418</ele>
        <time>2013-09-21T13:58:42Z</time>
      </trkpt>
      <trkpt lat="44.12006" lon="6.87078">
        <ele>1418</ele>
        <time>2013-09-21T13:58:50Z</time>
      </trkpt>
      <trkpt lat="44.12016" lon="6.87075">
        <ele>1417</ele>
        <time>2013-09-21T13:58:52Z</time>
      </trkpt>
      <trkpt lat="44.1206" lon="6.87094">
        <ele>1417</ele>
        <time>2013-09-21T13:59:00Z</time>
      </trkpt>
      <trkpt lat="44.12075" lon="6.87095">
        <ele>1416</ele>
        <time>2013-09-21T13:59:07Z</time>
      </trkpt>
      <trkpt lat="44.12078" lon="6.87087">
        <ele>1416</ele>
        <time>2013-09-21T13:59:10Z</time>
      </trkpt>
      <trkpt lat="44.12077" lon="6.87058">
        <ele>1415</ele>
        <time>2013-09-21T13:59:17Z</time>
      </trkpt>
      <trkpt lat="44.12077" lon="6.87027">
        <ele>1414</ele>
        <time>2013-09-21T13:59:27Z</time>
      </trkpt>
      <trkpt lat="44.1207" lon="6.86994">
        <ele>1413</ele>
        <time>2013-09-21T13:59:41Z</time>
      </trkpt>
      <trkpt lat="44.1207" lon="6.86959">
        <ele>1413</ele>
        <time>2013-09-21T13:59:49Z</time>
      </trkpt>
      <trkpt lat="44.12072" lon="6.86929">
        <ele>1413</ele>
        <time>2013-09-21T13:59:58Z</time>
      </trkpt>
      <trkpt lat="44.12099" lon="6.86899">
        <ele>1412</ele>
        <time>2013-09-21T14:00:12Z</time>
      </trkpt>
      <trkpt lat="44.12108" lon="6.86887">
        <ele>1412</ele>
        <time>2013-09-21T14:00:18Z</time>
      </trkpt>
      <trkpt lat="44.12116" lon="6.86868">
        <ele>1412</ele>
        <time>2013-09-21T14:00:28Z</time>
      </trkpt>
      <trkpt lat="44.12114" lon="6.86861">
        <ele>1412</ele>
        <time>2013-09-21T14:00:34Z</time>
      </trkpt>
      <trkpt lat="44.12112" lon="6.86857">
        <ele>1412</ele>
        <time>2013-09-21T14:00:37Z</time>
      </trkpt>
      <trkpt lat="44.12107" lon="6.86853">
        <ele>1412</ele>
        <time>2013-09-21T14:00:41Z</time>
      </trkpt>
      <trkpt lat="44.12091" lon="6.86838">
        <ele>1412</ele>
        <time>2013-09-21T14:00:53Z</time>
      </trkpt>
      <trkpt lat="44.12071" lon="6.86803">
        <ele>1413</ele>
        <time>2013-09-21T14:01:11Z</time>
      </trkpt>
      <trkpt lat="44.12063" lon="6.8676">
        <ele>1414</ele>
        <time>2013-09-21T14:01:25Z</time>
      </trkpt>
      <trkpt lat="44.12084" lon="6.86723">
        <ele>1415</ele>
        <time>2013-09-21T14:01:42Z</time>
      </trkpt>
      <trkpt lat="44.12089" lon="6.86726">
        <ele>1415</ele>
        <time>2013-09-21T14:01:45Z</time>
      </trkpt>
      <trkpt lat="44.12085" lon="6.86717">
        <ele>1434</ele>
        <time>2013-09-21T14:07:29Z</time>
      </trkpt>
      <trkpt lat="44.12093" lon="6.86695">
        <ele>1434</ele>
        <time>2013-09-21T14:07:37Z</time>
      </trkpt>
      <trkpt lat="44.12099" lon="6.86681">
        <ele>1434</ele>
        <time>2013-09-21T14:07:45Z</time>
      </trkpt>
      <trkpt lat="44.12095" lon="6.86664">
        <ele>1433</ele>
        <time>2013-09-21T14:07:58Z</time>
      </trkpt>
      <trkpt lat="44.12091" lon="6.86657">
        <ele>1433</ele>
        <time>2013-09-21T14:08:04Z</time>
      </trkpt>
      <trkpt lat="44.12086" lon="6.86647">
        <ele>1433</ele>
        <time>2013-09-21T14:08:12Z</time>
      </trkpt>
      <trkpt lat="44.1208" lon="6.86623">
        <ele>1432</ele>
        <time>2013-09-21T14:08:28Z</time>
      </trkpt>
      <trkpt lat="44.12071" lon="6.86588">
        <ele>1432</ele>
        <time>2013-09-21T14:08:46Z</time>
      </trkpt>
      <trkpt lat="44.12051" lon="6.86553">
        <ele>1431</ele>
        <time>2013-09-21T14:08:58Z</time>
      </trkpt>
      <trkpt lat="44.12011" lon="6.8652">
        <ele>1431</ele>
        <time>2013-09-21T14:09:13Z</time>
      </trkpt>
      <trkpt lat="44.11989" lon="6.86499">
        <ele>1431</ele>
        <time>2013-09-21T14:09:22Z</time>
      </trkpt>
      <trkpt lat="44.1199" lon="6.86495">
        <ele>1431</ele>
        <time>2013-09-21T14:09:26Z</time>
      </trkpt>
      <trkpt lat="44.11975" lon="6.8648">
        <ele>1430</ele>
        <time>2013-09-21T14:09:36Z</time>
      </trkpt>
      <trkpt lat="44.11973" lon="6.86464">
        <ele>1430</ele>
        <time>2013-09-21T14:09:41Z</time>
      </trkpt>
      <trkpt lat="44.11977" lon="6.86456">
        <ele>1430</ele>
        <time>2013-09-21T14:09:47Z</time>
      </trkpt>
      <trkpt lat="44.11978" lon="6.86447">
        <ele>1429</ele>
        <time>2013-09-21T14:11:55Z</time>
      </trkpt>
      <trkpt lat="44.11979" lon="6.86393">
        <ele>1428</ele>
        <time>2013-09-21T14:12:05Z</time>
      </trkpt>
      <trkpt lat="44.11987" lon="6.86348">
        <ele>1428</ele>
        <time>2013-09-21T14:12:11Z</time>
      </trkpt>
      <trkpt lat="44.11995" lon="6.86308">
        <ele>1428</ele>
        <time>2013-09-21T14:12:16Z</time>
      </trkpt>
      <trkpt lat="44.12004" lon="6.86283">
        <ele>1427</ele>
        <time>2013-09-21T14:12:21Z</time>
      </trkpt>
      <trkpt lat="44.12019" lon="6.86256">
        <ele>1427</ele>
        <time>2013-09-21T14:12:29Z</time>
      </trkpt>
      <trkpt lat="44.1202" lon="6.8622">
        <ele>1426</ele>
        <time>2013-09-21T14:12:38Z</time>
      </trkpt>
      <trkpt lat="44.12022" lon="6.86195">
        <ele>1426</ele>
        <time>2013-09-21T14:12:42Z</time>
      </trkpt>
      <trkpt lat="44.1203" lon="6.8619">
        <ele>1425</ele>
        <time>2013-09-21T14:12:49Z</time>
      </trkpt>
      <trkpt lat="44.12059" lon="6.86187">
        <ele>1423</ele>
        <time>2013-09-21T14:13:13Z</time>
      </trkpt>
      <trkpt lat="44.12075" lon="6.86169">
        <ele>1423</ele>
        <time>2013-09-21T14:13:16Z</time>
      </trkpt>
      <trkpt lat="44.12084" lon="6.86122">
        <ele>1422</ele>
        <time>2013-09-21T14:13:20Z</time>
      </trkpt>
      <trkpt lat="44.12119" lon="6.86019">
        <ele>1421</ele>
        <time>2013-09-21T14:13:30Z</time>
      </trkpt>
      <trkpt lat="44.1213" lon="6.85998">
        <ele>1420</ele>
        <time>2013-09-21T14:13:33Z</time>
      </trkpt>
      <trkpt lat="44.12139" lon="6.85986">
        <ele>1420</ele>
        <time>2013-09-21T14:13:37Z</time>
      </trkpt>
      <trkpt lat="44.12141" lon="6.85982">
        <ele>1414</ele>
        <time>2013-09-21T14:14:13Z</time>
      </trkpt>
      <trkpt lat="44.12171" lon="6.85957">
        <ele>1413</ele>
        <time>2013-09-21T14:14:20Z</time>
      </trkpt>
      <trkpt lat="44.1218" lon="6.85937">
        <ele>1412</ele>
        <time>2013-09-21T14:14:24Z</time>
      </trkpt>
      <trkpt lat="44.1219" lon="6.85931">
        <ele>1411</ele>
        <time>2013-09-21T14:14:27Z</time>
      </trkpt>
      <trkpt lat="44.12214" lon="6.85925">
        <ele>1409</ele>
        <time>2013-09-21T14:14:33Z</time>
      </trkpt>
      <trkpt lat="44.12212" lon="6.85921">
        <ele>1408</ele>
        <time>2013-09-21T14:14:37Z</time>
      </trkpt>
      <trkpt lat="44.122" lon="6.85902">
        <ele>1406</ele>
        <time>2013-09-21T14:14:43Z</time>
      </trkpt>
      <trkpt lat="44.1221" lon="6.85903">
        <ele>1405</ele>
        <time>2013-09-21T14:14:46Z</time>
      </trkpt>
      <trkpt lat="44.12238" lon="6.85908">
        <ele>1403</ele>
        <time>2013-09-21T14:14:54Z</time>
      </trkpt>
      <trkpt lat="44.12238" lon="6.85888">
        <ele>1401</ele>
        <time>2013-09-21T14:15:02Z</time>
      </trkpt>
      <trkpt lat="44.12238" lon="6.8588">
        <ele>1399</ele>
        <time>2013-09-21T14:15:11Z</time>
      </trkpt>
      <trkpt lat="44.12237" lon="6.85856">
        <ele>1395</ele>
        <time>2013-09-21T14:15:26Z</time>
      </trkpt>
      <trkpt lat="44.1223" lon="6.85849">
        <ele>1394</ele>
        <time>2013-09-21T14:15:35Z</time>
      </trkpt>
      <trkpt lat="44.12225" lon="6.85834">
        <ele>1393</ele>
        <time>2013-09-21T14:15:41Z</time>
      </trkpt>
      <trkpt lat="44.12222" lon="6.85812">
        <ele>1392</ele>
        <time>2013-09-21T14:15:48Z</time>
      </trkpt>
      <trkpt lat="44.12216" lon="6.85798">
        <ele>1391</ele>
        <time>2013-09-21T14:15:53Z</time>
      </trkpt>
      <trkpt lat="44.12198" lon="6.85766">
        <ele>1390</ele>
        <time>2013-09-21T14:16:00Z</time>
      </trkpt>
      <trkpt lat="44.12198" lon="6.85749">
        <ele>1389</ele>
        <time>2013-09-21T14:16:04Z</time>
      </trkpt>
      <trkpt lat="44.12192" lon="6.85734">
        <ele>1387</ele>
        <time>2013-09-21T14:16:13Z</time>
      </trkpt>
      <trkpt lat="44.12194" lon="6.85723">
        <ele>1386</ele>
        <time>2013-09-21T14:16:19Z</time>
      </trkpt>
      <trkpt lat="44.12198" lon="6.85716">
        <ele>1384</ele>
        <time>2013-09-21T14:16:28Z</time>
      </trkpt>
      <trkpt lat="44.12208" lon="6.85688">
        <ele>1382</ele>
        <time>2013-09-21T14:16:37Z</time>
      </trkpt>
      <trkpt lat="44.12222" lon="6.85684">
        <ele>1381</ele>
        <time>2013-09-21T14:16:41Z</time>
      </trkpt>
      <trkpt lat="44.12225" lon="6.85676">
        <ele>1380</ele>
        <time>2013-09-21T14:16:43Z</time>
      </trkpt>
      <trkpt lat="44.1222" lon="6.85651">
        <ele>1379</ele>
        <time>2013-09-21T14:16:52Z</time>
      </trkpt>
      <trkpt lat="44.12212" lon="6.85641">
        <ele>1378</ele>
        <time>2013-09-21T14:16:56Z</time>
      </trkpt>
      <trkpt lat="44.12209" lon="6.85634">
        <ele>1374</ele>
        <time>2013-09-21T14:17:20Z</time>
      </trkpt>
      <trkpt lat="44.12078" lon="6.85659">
        <ele>1359</ele>
        <time>2013-09-21T14:29:42Z</time>
      </trkpt>
      <trkpt lat="44.12066" lon="6.85662">
        <ele>1359</ele>
        <time>2013-09-21T14:29:48Z</time>
      </trkpt>
      <trkpt lat="44.1203" lon="6.85655">
        <ele>1358</ele>
        <time>2013-09-21T14:29:56Z</time>
      </trkpt>
      <trkpt lat="44.12014" lon="6.8564">
        <ele>1357</ele>
        <time>2013-09-21T14:30:00Z</time>
      </trkpt>
      <trkpt lat="44.12" lon="6.85645">
        <ele>1357</ele>
        <time>2013-09-21T14:30:04Z</time>
      </trkpt>
      <trkpt lat="44.11974" lon="6.85656">
        <ele>1356</ele>
        <time>2013-09-21T14:30:11Z</time>
      </trkpt>
      <trkpt lat="44.11951" lon="6.85657">
        <ele>1356</ele>
        <time>2013-09-21T14:30:18Z</time>
      </trkpt>
      <trkpt lat="44.11937" lon="6.85657">
        <ele>1355</ele>
        <time>2013-09-21T14:30:23Z</time>
      </trkpt>
      <trkpt lat="44.11929" lon="6.85654">
        <ele>1355</ele>
        <time>2013-09-21T14:30:27Z</time>
      </trkpt>
      <trkpt lat="44.11917" lon="6.85652">
        <ele>1354</ele>
        <time>2013-09-21T14:30:35Z</time>
      </trkpt>
      <trkpt lat="44.11909" lon="6.85652">
        <ele>1354</ele>
        <time>2013-09-21T14:30:41Z</time>
      </trkpt>
      <trkpt lat="44.11897" lon="6.85654">
        <ele>1354</ele>
        <time>2013-09-21T14:30:48Z</time>
      </trkpt>
      <trkpt lat="44.1188" lon="6.85653">
        <ele>1353</ele>
        <time>2013-09-21T14:31:00Z</time>
      </trkpt>
      <trkpt lat="44.11863" lon="6.85652">
        <ele>1353</ele>
        <time>2013-09-21T14:31:06Z</time>
      </trkpt>
      <trkpt lat="44.1183" lon="6.85643">
        <ele>1353</ele>
        <time>2013-09-21T14:31:16Z</time>
      </trkpt>
      <trkpt lat="44.11795" lon="6.85644">
        <ele>1352</ele>
        <time>2013-09-21T14:31:25Z</time>
      </trkpt>
      <trkpt lat="44.11759" lon="6.85632">
        <ele>1352</ele>
        <time>2013-09-21T14:31:35Z</time>
      </trkpt>
      <trkpt lat="44.1174" lon="6.85625">
        <ele>1351</ele>
        <time>2013-09-21T14:31:41Z</time>
      </trkpt>
      <trkpt lat="44.11703" lon="6.85615">
        <ele>1351</ele>
        <time>2013-09-21T14:31:49Z</time>
      </trkpt>
      <trkpt lat="44.11682" lon="6.85609">
        <ele>1350</ele>
        <time>2013-09-21T14:31:54Z</time>
      </trkpt>
      <trkpt lat="44.11667" lon="6.85598">
        <ele>1350</ele>
        <time>2013-09-21T14:31:58Z</time>
      </trkpt>
      <trkpt lat="44.11645" lon="6.85567">
        <ele>1349</ele>
        <time>2013-09-21T14:32:04Z</time>
      </trkpt>
      <trkpt lat="44.11633" lon="6.85549">
        <ele>1348</ele>
        <time>2013-09-21T14:32:09Z</time>
      </trkpt>
      <trkpt lat="44.11625" lon="6.85544">
        <ele>1347</ele>
        <time>2013-09-21T14:32:13Z</time>
      </trkpt>
      <trkpt lat="44.11617" lon="6.85535">
        <ele>1345</ele>
        <time>2013-09-21T14:32:21Z</time>
      </trkpt>
      <trkpt lat="44.11596" lon="6.85495">
        <ele>1343</ele>
        <time>2013-09-21T14:32:31Z</time>
      </trkpt>
      <trkpt lat="44.11576" lon="6.85457">
        <ele>1340</ele>
        <time>2013-09-21T14:32:40Z</time>
      </trkpt>
      <trkpt lat="44.11576" lon="6.85437">
        <ele>1338</ele>
        <time>2013-09-21T14:32:46Z</time>
      </trkpt>
      <trkpt lat="44.11572" lon="6.85437">
        <ele>1337</ele>
        <time>2013-09-21T14:32:50Z</time>
      </trkpt>
      <trkpt lat="44.11574" lon="6.85435">
        <ele>1331</ele>
        <time>2013-09-21T14:33:17Z</time>
      </trkpt>
      <trkpt lat="44.11575" lon="6.8544">
        <ele>1328</ele>
        <time>2013-09-21T14:33:31Z</time>
      </trkpt>
      <trkpt lat="44.11574" lon="6.85441">
        <ele>1323</ele>
        <time>2013-09-21T14:34:02Z</time>
      </trkpt>
      <trkpt lat="44.11563" lon="6.85437">
        <ele>1319</ele>
        <time>2013-09-21T14:34:36Z</time>
      </trkpt>
      <trkpt lat="44.11531" lon="6.85454">
        <ele>1317</ele>
        <time>2013-09-21T14:34:47Z</time>
      </trkpt>
      <trkpt lat="44.11504" lon="6.8546">
        <ele>1316</ele>
        <time>2013-09-21T14:34:55Z</time>
      </trkpt>
      <trkpt lat="44.11464" lon="6.85469">
        <ele>1314</ele>
        <time>2013-09-21T14:35:05Z</time>
      </trkpt>
      <trkpt lat="44.11447" lon="6.85482">
        <ele>1312</ele>
        <time>2013-09-21T14:35:10Z</time>
      </trkpt>
      <trkpt lat="44.11427" lon="6.85497">
        <ele>1309</ele>
        <time>2013-09-21T14:35:21Z</time>
      </trkpt>
      <trkpt lat="44.11419" lon="6.85494">
        <ele>1307</ele>
        <time>2013-09-21T14:35:27Z</time>
      </trkpt>
      <trkpt lat="44.11393" lon="6.85474">
        <ele>1305</ele>
        <time>2013-09-21T14:35:36Z</time>
      </trkpt>
      <trkpt lat="44.11388" lon="6.85465">
        <ele>1301</ele>
        <time>2013-09-21T14:35:49Z</time>
      </trkpt>
      <trkpt lat="44.11392" lon="6.85426">
        <ele>1299</ele>
        <time>2013-09-21T14:35:56Z</time>
      </trkpt>
      <trkpt lat="44.11408" lon="6.85396">
        <ele>1297</ele>
        <time>2013-09-21T14:36:02Z</time>
      </trkpt>
      <trkpt lat="44.11421" lon="6.85385">
        <ele>1295</ele>
        <time>2013-09-21T14:36:06Z</time>
      </trkpt>
      <trkpt lat="44.1142" lon="6.85377">
        <ele>1294</ele>
        <time>2013-09-21T14:36:10Z</time>
      </trkpt>
      <trkpt lat="44.11406" lon="6.85368">
        <ele>1292</ele>
        <time>2013-09-21T14:36:16Z</time>
      </trkpt>
      <trkpt lat="44.11401" lon="6.85366">
        <ele>1291</ele>
        <time>2013-09-21T14:36:19Z</time>
      </trkpt>
      <trkpt lat="44.11379" lon="6.8537">
        <ele>1289</ele>
        <time>2013-09-21T14:36:27Z</time>
      </trkpt>
      <trkpt lat="44.11356" lon="6.85367">
        <ele>1286</ele>
        <time>2013-09-21T14:36:34Z</time>
      </trkpt>
      <trkpt lat="44.11353" lon="6.85367">
        <ele>1285</ele>
        <time>2013-09-21T14:36:38Z</time>
      </trkpt>
      <trkpt lat="44.11348" lon="6.85362">
        <ele>1282</ele>
        <time>2013-09-21T14:36:51Z</time>
      </trkpt>
      <trkpt lat="44.11346" lon="6.8536">
        <ele>1281</ele>
        <time>2013-09-21T14:36:55Z</time>
      </trkpt>
      <trkpt lat="44.11326" lon="6.85342">
        <ele>1278</ele>
        <time>2013-09-21T14:37:04Z</time>
      </trkpt>
      <trkpt lat="44.11297" lon="6.85323">
        <ele>1276</ele>
        <time>2013-09-21T14:37:12Z</time>
      </trkpt>
      <trkpt lat="44.11283" lon="6.85313">
        <ele>1275</ele>
        <time>2013-09-21T14:37:16Z</time>
      </trkpt>
      <trkpt lat="44.11269" lon="6.85328">
        <ele>1273</ele>
        <time>2013-09-21T14:37:23Z</time>
      </trkpt>
      <trkpt lat="44.11249" lon="6.85322">
        <ele>1271</ele>
        <time>2013-09-21T14:37:29Z</time>
      </trkpt>
      <trkpt lat="44.11228" lon="6.85311">
        <ele>1270</ele>
        <time>2013-09-21T14:37:34Z</time>
      </trkpt>
      <trkpt lat="44.11212" lon="6.85301">
        <ele>1268</ele>
        <time>2013-09-21T14:37:38Z</time>
      </trkpt>
      <trkpt lat="44.11192" lon="6.85292">
        <ele>1267</ele>
        <time>2013-09-21T14:37:42Z</time>
      </trkpt>
      <trkpt lat="44.11186" lon="6.85293">
        <ele>1266</ele>
        <time>2013-09-21T14:37:45Z</time>
      </trkpt>
      <trkpt lat="44.11171" lon="6.85304">
        <ele>1264</ele>
        <time>2013-09-21T14:37:51Z</time>
      </trkpt>
      <trkpt lat="44.11157" lon="6.85296">
        <ele>1263</ele>
        <time>2013-09-21T14:37:55Z</time>
      </trkpt>
      <trkpt lat="44.11142" lon="6.85275">
        <ele>1260</ele>
        <time>2013-09-21T14:38:02Z</time>
      </trkpt>
      <trkpt lat="44.11133" lon="6.85299">
        <ele>1258</ele>
        <time>2013-09-21T14:38:07Z</time>
      </trkpt>
      <trkpt lat="44.11125" lon="6.85295">
        <ele>1256</ele>
        <time>2013-09-21T14:38:11Z</time>
      </trkpt>
      <trkpt lat="44.11118" lon="6.8527">
        <ele>1254</ele>
        <time>2013-09-21T14:38:16Z</time>
      </trkpt>
      <trkpt lat="44.11109" lon="6.85247">
        <ele>1252</ele>
        <time>2013-09-21T14:38:22Z</time>
      </trkpt>
      <trkpt lat="44.11098" lon="6.85272">
        <ele>1249</ele>
        <time>2013-09-21T14:38:29Z</time>
      </trkpt>
      <trkpt lat="44.11089" lon="6.85296">
        <ele>1246</ele>
        <time>2013-09-21T14:38:35Z</time>
      </trkpt>
      <trkpt lat="44.11081" lon="6.8528">
        <ele>1244</ele>
        <time>2013-09-21T14:38:39Z</time>
      </trkpt>
      <trkpt lat="44.11056" lon="6.85259">
        <ele>1240</ele>
        <time>2013-09-21T14:38:47Z</time>
      </trkpt>
      <trkpt lat="44.11039" lon="6.85246">
        <ele>1238</ele>
        <time>2013-09-21T14:38:51Z</time>
      </trkpt>
      <trkpt lat="44.11022" lon="6.85231">
        <ele>1236</ele>
        <time>2013-09-21T14:38:55Z</time>
      </trkpt>
      <trkpt lat="44.11005" lon="6.85226">
        <ele>1234</ele>
        <time>2013-09-21T14:38:59Z</time>
      </trkpt>
      <trkpt lat="44.10986" lon="6.8523">
        <ele>1232</ele>
        <time>2013-09-21T14:39:03Z</time>
      </trkpt>
      <trkpt lat="44.10964" lon="6.85234">
        <ele>1229</ele>
        <time>2013-09-21T14:39:08Z</time>
      </trkpt>
      <trkpt lat="44.10947" lon="6.85236">
        <ele>1227</ele>
        <time>2013-09-21T14:39:12Z</time>
      </trkpt>
      <trkpt lat="44.10933" lon="6.85224">
        <ele>1223</ele>
        <time>2013-09-21T14:39:18Z</time>
      </trkpt>
      <trkpt lat="44.10912" lon="6.85212">
        <ele>1219</ele>
        <time>2013-09-21T14:39:25Z</time>
      </trkpt>
      <trkpt lat="44.10906" lon="6.85214">
        <ele>1217</ele>
        <time>2013-09-21T14:39:28Z</time>
      </trkpt>
      <trkpt lat="44.10901" lon="6.85219">
        <ele>1215</ele>
        <time>2013-09-21T14:39:31Z</time>
      </trkpt>
      <trkpt lat="44.10897" lon="6.85221">
        <ele>1212</ele>
        <time>2013-09-21T14:39:36Z</time>
      </trkpt>
      <trkpt lat="44.10896" lon="6.85199">
        <ele>1208</ele>
        <time>2013-09-21T14:39:44Z</time>
      </trkpt>
      <trkpt lat="44.10894" lon="6.85194">
        <ele>1206</ele>
        <time>2013-09-21T14:39:48Z</time>
      </trkpt>
      <trkpt lat="44.10879" lon="6.85211">
        <ele>1202</ele>
        <time>2013-09-21T14:39:54Z</time>
      </trkpt>
      <trkpt lat="44.1087" lon="6.85212">
        <ele>1201</ele>
        <time>2013-09-21T14:39:57Z</time>
      </trkpt>
      <trkpt lat="44.10847" lon="6.85214">
        <ele>1197</ele>
        <time>2013-09-21T14:40:03Z</time>
      </trkpt>
      <trkpt lat="44.10823" lon="6.85203">
        <ele>1193</ele>
        <time>2013-09-21T14:40:09Z</time>
      </trkpt>
      <trkpt lat="44.10813" lon="6.85198">
        <ele>1190</ele>
        <time>2013-09-21T14:40:14Z</time>
      </trkpt>
      <trkpt lat="44.10822" lon="6.85189">
        <ele>1188</ele>
        <time>2013-09-21T14:40:18Z</time>
      </trkpt>
      <trkpt lat="44.10819" lon="6.85185">
        <ele>1186</ele>
        <time>2013-09-21T14:40:21Z</time>
      </trkpt>
      <trkpt lat="44.10796" lon="6.85172">
        <ele>1182</ele>
        <time>2013-09-21T14:40:28Z</time>
      </trkpt>
      <trkpt lat="44.10783" lon="6.85167">
        <ele>1178</ele>
        <time>2013-09-21T14:40:33Z</time>
      </trkpt>
      <trkpt lat="44.10781" lon="6.85159">
        <ele>1176</ele>
        <time>2013-09-21T14:40:37Z</time>
      </trkpt>
      <trkpt lat="44.10775" lon="6.85158">
        <ele>1175</ele>
        <time>2013-09-21T14:40:39Z</time>
      </trkpt>
      <trkpt lat="44.10756" lon="6.85167">
        <ele>1172</ele>
        <time>2013-09-21T14:40:44Z</time>
      </trkpt>
      <trkpt lat="44.10743" lon="6.85175">
        <ele>1169</ele>
        <time>2013-09-21T14:40:48Z</time>
      </trkpt>
      <trkpt lat="44.10742" lon="6.85181">
        <ele>1167</ele>
        <time>2013-09-21T14:40:52Z</time>
      </trkpt>
      <trkpt lat="44.10742" lon="6.85178">
        <ele>1157</ele>
        <time>2013-09-21T14:41:09Z</time>
      </trkpt>
      <trkpt lat="44.10738" lon="6.8518">
        <ele>1155</ele>
        <time>2013-09-21T14:41:13Z</time>
      </trkpt>
      <trkpt lat="44.10736" lon="6.85186">
        <ele>1153</ele>
        <time>2013-09-21T14:41:16Z</time>
      </trkpt>
      <trkpt lat="44.10731" lon="6.85184">
        <ele>1149</ele>
        <time>2013-09-21T14:41:23Z</time>
      </trkpt>
      <trkpt lat="44.10732" lon="6.85196">
        <ele>1147</ele>
        <time>2013-09-21T14:41:27Z</time>
      </trkpt>
      <trkpt lat="44.10728" lon="6.85197">
        <ele>1145</ele>
        <time>2013-09-21T14:41:30Z</time>
      </trkpt>
      <trkpt lat="44.1072" lon="6.85159">
        <ele>1140</ele>
        <time>2013-09-21T14:41:39Z</time>
      </trkpt>
      <trkpt lat="44.10722" lon="6.85133">
        <ele>1137</ele>
        <time>2013-09-21T14:41:45Z</time>
      </trkpt>
      <trkpt lat="44.10723" lon="6.85129">
        <ele>1134</ele>
        <time>2013-09-21T14:41:49Z</time>
      </trkpt>
      <trkpt lat="44.10727" lon="6.85128">
        <ele>1131</ele>
        <time>2013-09-21T14:41:54Z</time>
      </trkpt>
      <trkpt lat="44.10725" lon="6.8513">
        <ele>1129</ele>
        <time>2013-09-21T14:41:59Z</time>
      </trkpt>
      <trkpt lat="44.10711" lon="6.85131">
        <ele>1124</ele>
        <time>2013-09-21T14:42:08Z</time>
      </trkpt>
      <trkpt lat="44.10704" lon="6.85144">
        <ele>1122</ele>
        <time>2013-09-21T14:42:12Z</time>
      </trkpt>
      <trkpt lat="44.10691" lon="6.8517">
        <ele>1118</ele>
        <time>2013-09-21T14:42:19Z</time>
      </trkpt>
      <trkpt lat="44.10685" lon="6.85161">
        <ele>1115</ele>
        <time>2013-09-21T14:42:25Z</time>
      </trkpt>
      <trkpt lat="44.10683" lon="6.85133">
        <ele>1112</ele>
        <time>2013-09-21T14:42:30Z</time>
      </trkpt>
      <trkpt lat="44.1068" lon="6.851">
        <ele>1108</ele>
        <time>2013-09-21T14:42:38Z</time>
      </trkpt>
      <trkpt lat="44.10678" lon="6.85102">
        <ele>1106</ele>
        <time>2013-09-21T14:42:42Z</time>
      </trkpt>
      <trkpt lat="44.10678" lon="6.85088">
        <ele>1102</ele>
        <time>2013-09-21T14:42:50Z</time>
      </trkpt>
      <trkpt lat="44.10674" lon="6.85079">
        <ele>1098</ele>
        <time>2013-09-21T14:42:57Z</time>
      </trkpt>
      <trkpt lat="44.10662" lon="6.85096">
        <ele>1095</ele>
        <time>2013-09-21T14:43:03Z</time>
      </trkpt>
      <trkpt lat="44.1066" lon="6.85096">
        <ele>1094</ele>
        <time>2013-09-21T14:43:05Z</time>
      </trkpt>
      <trkpt lat="44.10659" lon="6.85089">
        <ele>1091</ele>
        <time>2013-09-21T14:43:10Z</time>
      </trkpt>
      <trkpt lat="44.1066" lon="6.85075">
        <ele>1089</ele>
        <time>2013-09-21T14:43:14Z</time>
      </trkpt>
      <trkpt lat="44.10669" lon="6.85055">
        <ele>1086</ele>
        <time>2013-09-21T14:43:20Z</time>
      </trkpt>
      <trkpt lat="44.10672" lon="6.8505">
        <ele>1084</ele>
        <time>2013-09-21T14:43:24Z</time>
      </trkpt>
      <trkpt lat="44.10668" lon="6.85052">
        <ele>1078</ele>
        <time>2013-09-21T14:43:36Z</time>
      </trkpt>
      <trkpt lat="44.10648" lon="6.85063">
        <ele>1075</ele>
        <time>2013-09-21T14:43:44Z</time>
      </trkpt>
      <trkpt lat="44.10648" lon="6.8506">
        <ele>1074</ele>
        <time>2013-09-21T14:43:46Z</time>
      </trkpt>
      <trkpt lat="44.10658" lon="6.85039">
        <ele>1071</ele>
        <time>2013-09-21T14:43:52Z</time>
      </trkpt>
      <trkpt lat="44.10666" lon="6.85032">
        <ele>1069</ele>
        <time>2013-09-21T14:43:56Z</time>
      </trkpt>
      <trkpt lat="44.1066" lon="6.85031">
        <ele>1066</ele>
        <time>2013-09-21T14:44:01Z</time>
      </trkpt>
      <trkpt lat="44.10663" lon="6.85024">
        <ele>1060</ele>
        <time>2013-09-21T14:44:14Z</time>
      </trkpt>
      <trkpt lat="44.10664" lon="6.85023">
        <ele>1055</ele>
        <time>2013-09-21T14:44:26Z</time>
      </trkpt>
      <trkpt lat="44.10649" lon="6.85016">
        <ele>1046</ele>
        <time>2013-09-21T14:44:49Z</time>
      </trkpt>
      <trkpt lat="44.10648" lon="6.8501">
        <ele>1045</ele>
        <time>2013-09-21T14:44:53Z</time>
      </trkpt>
      <trkpt lat="44.10654" lon="6.85003">
        <ele>1042</ele>
        <time>2013-09-21T14:44:59Z</time>
      </trkpt>
      <trkpt lat="44.10648" lon="6.85002">
        <ele>1040</ele>
        <time>2013-09-21T14:45:05Z</time>
      </trkpt>
      <trkpt lat="44.10632" lon="6.85001">
        <ele>1037</ele>
        <time>2013-09-21T14:45:11Z</time>
      </trkpt>
      <trkpt lat="44.1063" lon="6.85001">
        <ele>1034</ele>
        <time>2013-09-21T14:45:20Z</time>
      </trkpt>
      <trkpt lat="44.10625" lon="6.85001">
        <ele>1003</ele>
        <time>2013-09-21T14:47:56Z</time>
      </trkpt>
      <trkpt lat="44.10631" lon="6.84994">
        <ele>1002</ele>
        <time>2013-09-21T14:48:07Z</time>
      </trkpt>
      <trkpt lat="44.10634" lon="6.84987">
        <ele>1001</ele>
        <time>2013-09-21T14:48:12Z</time>
      </trkpt>
      <trkpt lat="44.10615" lon="6.84978">
        <ele>999</ele>
        <time>2013-09-21T14:48:22Z</time>
      </trkpt>
      <trkpt lat="44.10608" lon="6.84971">
        <ele>998</ele>
        <time>2013-09-21T14:48:27Z</time>
      </trkpt>
      <trkpt lat="44.10608" lon="6.84965">
        <ele>997</ele>
        <time>2013-09-21T14:48:31Z</time>
      </trkpt>
      <trkpt lat="44.10611" lon="6.84949">
        <ele>996</ele>
        <time>2013-09-21T14:48:36Z</time>
      </trkpt>
      <trkpt lat="44.10598" lon="6.84948">
        <ele>995</ele>
        <time>2013-09-21T14:48:41Z</time>
      </trkpt>
      <trkpt lat="44.10593" lon="6.84943">
        <ele>994</ele>
        <time>2013-09-21T14:48:44Z</time>
      </trkpt>
      <trkpt lat="44.10593" lon="6.84938">
        <ele>994</ele>
        <time>2013-09-21T14:48:47Z</time>
      </trkpt>
      <trkpt lat="44.10598" lon="6.84927">
        <ele>989</ele>
        <time>2013-09-21T14:49:05Z</time>
      </trkpt>
      <trkpt lat="44.1059" lon="6.84929">
        <ele>986</ele>
        <time>2013-09-21T14:49:20Z</time>
      </trkpt>
      <trkpt lat="44.10598" lon="6.84909">
        <ele>984</ele>
        <time>2013-09-21T14:49:31Z</time>
      </trkpt>
      <trkpt lat="44.10593" lon="6.8491">
        <ele>983</ele>
        <time>2013-09-21T14:49:36Z</time>
      </trkpt>
      <trkpt lat="44.10591" lon="6.8491">
        <ele>980</ele>
        <time>2013-09-21T14:49:48Z</time>
      </trkpt>
      <trkpt lat="44.10549" lon="6.84911">
        <ele>978</ele>
        <time>2013-09-21T14:50:01Z</time>
      </trkpt>
      <trkpt lat="44.10547" lon="6.84907">
        <ele>976</ele>
        <time>2013-09-21T14:50:06Z</time>
      </trkpt>
      <trkpt lat="44.10542" lon="6.84904">
        <ele>975</ele>
        <time>2013-09-21T14:50:10Z</time>
      </trkpt>
      <trkpt lat="44.1054" lon="6.84905">
        <ele>973</ele>
        <time>2013-09-21T14:50:21Z</time>
      </trkpt>
      <trkpt lat="44.10518" lon="6.84906">
        <ele>970</ele>
        <time>2013-09-21T14:50:31Z</time>
      </trkpt>
      <trkpt lat="44.10513" lon="6.84905">
        <ele>969</ele>
        <time>2013-09-21T14:50:34Z</time>
      </trkpt>
      <trkpt lat="44.1051" lon="6.84905">
        <ele>967</ele>
        <time>2013-09-21T14:50:40Z</time>
      </trkpt>
      <trkpt lat="44.10514" lon="6.84899">
        <ele>966</ele>
        <time>2013-09-21T14:50:43Z</time>
      </trkpt>
      <trkpt lat="44.1053" lon="6.84872">
        <ele>963</ele>
        <time>2013-09-21T14:50:53Z</time>
      </trkpt>
      <trkpt lat="44.10524" lon="6.84877">
        <ele>962</ele>
        <time>2013-09-21T14:50:57Z</time>
      </trkpt>
      <trkpt lat="44.10491" lon="6.84901">
        <ele>959</ele>
        <time>2013-09-21T14:51:06Z</time>
      </trkpt>
      <trkpt lat="44.10482" lon="6.84918">
        <ele>956</ele>
        <time>2013-09-21T14:51:16Z</time>
      </trkpt>
      <trkpt lat="44.1049" lon="6.84884">
        <ele>953</ele>
        <time>2013-09-21T14:51:25Z</time>
      </trkpt>
      <trkpt lat="44.10495" lon="6.84871">
        <ele>951</ele>
        <time>2013-09-21T14:51:30Z</time>
      </trkpt>
      <trkpt lat="44.10488" lon="6.84877">
        <ele>951</ele>
        <time>2013-09-21T14:51:32Z</time>
      </trkpt>
      <trkpt lat="44.10464" lon="6.84913">
        <ele>947</ele>
        <time>2013-09-21T14:51:43Z</time>
      </trkpt>
      <trkpt lat="44.10463" lon="6.84913">
        <ele>946</ele>
        <time>2013-09-21T14:51:46Z</time>
      </trkpt>
      <trkpt lat="44.10464" lon="6.84903">
        <ele>944</ele>
        <time>2013-09-21T14:51:51Z</time>
      </trkpt>
      <trkpt lat="44.10462" lon="6.84879">
        <ele>942</ele>
        <time>2013-09-21T14:51:58Z</time>
      </trkpt>
      <trkpt lat="44.10457" lon="6.84883">
        <ele>940</ele>
        <time>2013-09-21T14:52:01Z</time>
      </trkpt>
      <trkpt lat="44.1045" lon="6.84883">
        <ele>939</ele>
        <time>2013-09-21T14:52:04Z</time>
      </trkpt>
      <trkpt lat="44.10456" lon="6.84864">
        <ele>937</ele>
        <time>2013-09-21T14:52:10Z</time>
      </trkpt>
      <trkpt lat="44.10474" lon="6.84826">
        <ele>934</ele>
        <time>2013-09-21T14:52:16Z</time>
      </trkpt>
      <trkpt lat="44.10493" lon="6.84787">
        <ele>932</ele>
        <time>2013-09-21T14:52:22Z</time>
      </trkpt>
      <trkpt lat="44.10495" lon="6.84787">
        <ele>929</ele>
        <time>2013-09-21T14:52:30Z</time>
      </trkpt>
      <trkpt lat="44.10501" lon="6.84787">
        <ele>914</ele>
        <time>2013-09-21T14:53:13Z</time>
      </trkpt>
      <trkpt lat="44.1051" lon="6.84781">
        <ele>908</ele>
        <time>2013-09-21T14:53:40Z</time>
      </trkpt>
      <trkpt lat="44.10516" lon="6.84762">
        <ele>907</ele>
        <time>2013-09-21T14:53:44Z</time>
      </trkpt>
      <trkpt lat="44.10527" lon="6.84725">
        <ele>904</ele>
        <time>2013-09-21T14:53:55Z</time>
      </trkpt>
      <trkpt lat="44.10535" lon="6.84718">
        <ele>903</ele>
        <time>2013-09-21T14:53:59Z</time>
      </trkpt>
      <trkpt lat="44.10542" lon="6.84708">
        <ele>902</ele>
        <time>2013-09-21T14:54:04Z</time>
      </trkpt>
      <trkpt lat="44.10534" lon="6.84684">
        <ele>900</ele>
        <time>2013-09-21T14:54:11Z</time>
      </trkpt>
      <trkpt lat="44.10549" lon="6.84668">
        <ele>898</ele>
        <time>2013-09-21T14:54:20Z</time>
      </trkpt>
      <trkpt lat="44.10574" lon="6.84637">
        <ele>895</ele>
        <time>2013-09-21T14:54:34Z</time>
      </trkpt>
      <trkpt lat="44.10589" lon="6.84619">
        <ele>892</ele>
        <time>2013-09-21T14:54:47Z</time>
      </trkpt>
      <trkpt lat="44.10609" lon="6.84574">
        <ele>887</ele>
        <time>2013-09-21T14:55:20Z</time>
      </trkpt>
      <trkpt lat="44.10637" lon="6.84494">
        <ele>885</ele>
        <time>2013-09-21T14:55:36Z</time>
      </trkpt>
      <trkpt lat="44.10654" lon="6.84435">
        <ele>884</ele>
        <time>2013-09-21T14:55:49Z</time>
      </trkpt>
      <trkpt lat="44.1067" lon="6.84399">
        <ele>883</ele>
        <time>2013-09-21T14:55:59Z</time>
      </trkpt>
      <trkpt lat="44.10667" lon="6.84335">
        <ele>881</ele>
        <time>2013-09-21T14:56:12Z</time>
      </trkpt>
      <trkpt lat="44.1071" lon="6.8422">
        <ele>879</ele>
        <time>2013-09-21T14:56:36Z</time>
      </trkpt>
      <trkpt lat="44.10719" lon="6.84183">
        <ele>879</ele>
        <time>2013-09-21T14:56:43Z</time>
      </trkpt>
      <trkpt lat="44.1073" lon="6.84118">
        <ele>878</ele>
        <time>2013-09-21T14:56:55Z</time>
      </trkpt>
      <trkpt lat="44.10756" lon="6.84065">
        <ele>878</ele>
        <time>2013-09-21T14:57:06Z</time>
      </trkpt>
      <trkpt lat="44.10785" lon="6.83984">
        <ele>877</ele>
        <time>2013-09-21T14:57:21Z</time>
      </trkpt>
      <trkpt lat="44.10785" lon="6.83959">
        <ele>877</ele>
        <time>2013-09-21T14:57:25Z</time>
      </trkpt>
      <trkpt lat="44.10788" lon="6.83941">
        <ele>877</ele>
        <time>2013-09-21T14:57:28Z</time>
      </trkpt>
      <trkpt lat="44.10798" lon="6.83917">
        <ele>876</ele>
        <time>2013-09-21T14:57:32Z</time>
      </trkpt>
      <trkpt lat="44.10806" lon="6.83892">
        <ele>876</ele>
        <time>2013-09-21T14:57:36Z</time>
      </trkpt>
      <trkpt lat="44.10809" lon="6.83872">
        <ele>876</ele>
        <time>2013-09-21T14:57:39Z</time>
      </trkpt>
      <trkpt lat="44.10817" lon="6.83853">
        <ele>876</ele>
        <time>2013-09-21T14:57:42Z</time>
      </trkpt>
      <trkpt lat="44.10838" lon="6.83829">
        <ele>876</ele>
        <time>2013-09-21T14:57:47Z</time>
      </trkpt>
      <trkpt lat="44.10868" lon="6.83804">
        <ele>876</ele>
        <time>2013-09-21T14:57:53Z</time>
      </trkpt>
      <trkpt lat="44.10909" lon="6.83784">
        <ele>875</ele>
        <time>2013-09-21T14:58:00Z</time>
      </trkpt>
      <trkpt lat="44.10938" lon="6.83775">
        <ele>875</ele>
        <time>2013-09-21T14:58:04Z</time>
      </trkpt>
      <trkpt lat="44.10995" lon="6.83739">
        <ele>875</ele>
        <time>2013-09-21T14:58:12Z</time>
      </trkpt>
      <trkpt lat="44.11032" lon="6.83716">
        <ele>875</ele>
        <time>2013-09-21T14:58:18Z</time>
      </trkpt>
      <trkpt lat="44.111" lon="6.83699">
        <ele>875</ele>
        <time>2013-09-21T14:58:29Z</time>
      </trkpt>
      <trkpt lat="44.11168" lon="6.83692">
        <ele>875</ele>
        <time>2013-09-21T14:58:40Z</time>
      </trkpt>
      <trkpt lat="44.11205" lon="6.83679">
        <ele>875</ele>
        <time>2013-09-21T14:58:46Z</time>
      </trkpt>
      <trkpt lat="44.11218" lon="6.83641">
        <ele>875</ele>
        <time>2013-09-21T14:58:51Z</time>
      </trkpt>
      <trkpt lat="44.11223" lon="6.8357">
        <ele>875</ele>
        <time>2013-09-21T14:58:59Z</time>
      </trkpt>
      <trkpt lat="44.11209" lon="6.83542">
        <ele>875</ele>
        <time>2013-09-21T14:59:03Z</time>
      </trkpt>
      <trkpt lat="44.11174" lon="6.83496">
        <ele>876</ele>
        <time>2013-09-21T14:59:11Z</time>
      </trkpt>
      <trkpt lat="44.11129" lon="6.83452">
        <ele>877</ele>
        <time>2013-09-21T14:59:22Z</time>
      </trkpt>
      <trkpt lat="44.11111" lon="6.83434">
        <ele>878</ele>
        <time>2013-09-21T14:59:27Z</time>
      </trkpt>
      <trkpt lat="44.11091" lon="6.83418">
        <ele>878</ele>
        <time>2013-09-21T14:59:32Z</time>
      </trkpt>
      <trkpt lat="44.11048" lon="6.83408">
        <ele>879</ele>
        <time>2013-09-21T14:59:42Z</time>
      </trkpt>
      <trkpt lat="44.10992" lon="6.83395">
        <ele>880</ele>
        <time>2013-09-21T14:59:56Z</time>
      </trkpt>
      <trkpt lat="44.10958" lon="6.83373">
        <ele>882</ele>
        <time>2013-09-21T15:00:07Z</time>
      </trkpt>
      <trkpt lat="44.10923" lon="6.83336">
        <ele>883</ele>
        <time>2013-09-21T15:00:21Z</time>
      </trkpt>
      <trkpt lat="44.10904" lon="6.83273">
        <ele>885</ele>
        <time>2013-09-21T15:00:37Z</time>
      </trkpt>
      <trkpt lat="44.10892" lon="6.83192">
        <ele>886</ele>
        <time>2013-09-21T15:00:55Z</time>
      </trkpt>
      <trkpt lat="44.10886" lon="6.83105">
        <ele>886</ele>
        <time>2013-09-21T15:01:12Z</time>
      </trkpt>
      <trkpt lat="44.10895" lon="6.83012">
        <ele>887</ele>
        <time>2013-09-21T15:01:30Z</time>
      </trkpt>
      <trkpt lat="44.10881" lon="6.82937">
        <ele>889</ele>
        <time>2013-09-21T15:01:44Z</time>
      </trkpt>
      <trkpt lat="44.10881" lon="6.82893">
        <ele>889</ele>
        <time>2013-09-21T15:01:52Z</time>
      </trkpt>
      <trkpt lat="44.10888" lon="6.82789">
        <ele>890</ele>
        <time>2013-09-21T15:02:11Z</time>
      </trkpt>
      <trkpt lat="44.10904" lon="6.82732">
        <ele>890</ele>
        <time>2013-09-21T15:02:22Z</time>
      </trkpt>
      <trkpt lat="44.10914" lon="6.82707">
        <ele>891</ele>
        <time>2013-09-21T15:02:27Z</time>
      </trkpt>
      <trkpt lat="44.10926" lon="6.82661">
        <ele>891</ele>
        <time>2013-09-21T15:02:35Z</time>
      </trkpt>
      <trkpt lat="44.10922" lon="6.82637">
        <ele>891</ele>
        <time>2013-09-21T15:02:39Z</time>
      </trkpt>
      <trkpt lat="44.10912" lon="6.82606">
        <ele>892</ele>
        <time>2013-09-21T15:02:44Z</time>
      </trkpt>
      <trkpt lat="44.10908" lon="6.82585">
        <ele>892</ele>
        <time>2013-09-21T15:02:47Z</time>
      </trkpt>
      <trkpt lat="44.10907" lon="6.82526">
        <ele>893</ele>
        <time>2013-09-21T15:02:55Z</time>
      </trkpt>
      <trkpt lat="44.10906" lon="6.82459">
        <ele>894</ele>
        <time>2013-09-21T15:03:03Z</time>
      </trkpt>
      <trkpt lat="44.10915" lon="6.82397">
        <ele>894</ele>
        <time>2013-09-21T15:03:10Z</time>
      </trkpt>
      <trkpt lat="44.10927" lon="6.82354">
        <ele>895</ele>
        <time>2013-09-21T15:03:15Z</time>
      </trkpt>
      <trkpt lat="44.10951" lon="6.82319">
        <ele>895</ele>
        <time>2013-09-21T15:03:20Z</time>
      </trkpt>
      <trkpt lat="44.10979" lon="6.82287">
        <ele>895</ele>
        <time>2013-09-21T15:03:25Z</time>
      </trkpt>
      <trkpt lat="44.11007" lon="6.8227">
        <ele>895</ele>
        <time>2013-09-21T15:03:29Z</time>
      </trkpt>
      <trkpt lat="44.11042" lon="6.82183">
        <ele>895</ele>
        <time>2013-09-21T15:03:38Z</time>
      </trkpt>
      <trkpt lat="44.11056" lon="6.82138">
        <ele>895</ele>
        <time>2013-09-21T15:03:42Z</time>
      </trkpt>
      <trkpt lat="44.11081" lon="6.82097">
        <ele>895</ele>
        <time>2013-09-21T15:03:46Z</time>
      </trkpt>
      <trkpt lat="44.11114" lon="6.82063">
        <ele>895</ele>
        <time>2013-09-21T15:03:50Z</time>
      </trkpt>
      <trkpt lat="44.11157" lon="6.82045">
        <ele>895</ele>
        <time>2013-09-21T15:03:54Z</time>
      </trkpt>
      <trkpt lat="44.11196" lon="6.82016">
        <ele>895</ele>
        <time>2013-09-21T15:03:58Z</time>
      </trkpt>
      <trkpt lat="44.11194" lon="6.8196">
        <ele>894</ele>
        <time>2013-09-21T15:04:02Z</time>
      </trkpt>
      <trkpt lat="44.11187" lon="6.81897">
        <ele>894</ele>
        <time>2013-09-21T15:04:07Z</time>
      </trkpt>
      <trkpt lat="44.11221" lon="6.81853">
        <ele>894</ele>
        <time>2013-09-21T15:04:12Z</time>
      </trkpt>
      <trkpt lat="44.11258" lon="6.81815">
        <ele>894</ele>
        <time>2013-09-21T15:04:17Z</time>
      </trkpt>
      <trkpt lat="44.11332" lon="6.81704">
        <ele>893</ele>
        <time>2013-09-21T15:04:29Z</time>
      </trkpt>
      <trkpt lat="44.11372" lon="6.81609">
        <ele>893</ele>
        <time>2013-09-21T15:04:38Z</time>
      </trkpt>
      <trkpt lat="44.114" lon="6.81495">
        <ele>892</ele>
        <time>2013-09-21T15:04:48Z</time>
      </trkpt>
      <trkpt lat="44.11444" lon="6.81353">
        <ele>892</ele>
        <time>2013-09-21T15:05:02Z</time>
      </trkpt>
      <trkpt lat="44.11459" lon="6.81296">
        <ele>892</ele>
        <time>2013-09-21T15:05:09Z</time>
      </trkpt>
      <trkpt lat="44.1148" lon="6.81202">
        <ele>893</ele>
        <time>2013-09-21T15:05:25Z</time>
      </trkpt>
      <trkpt lat="44.11498" lon="6.81132">
        <ele>895</ele>
        <time>2013-09-21T15:05:41Z</time>
      </trkpt>
      <trkpt lat="44.11509" lon="6.81049">
        <ele>896</ele>
        <time>2013-09-21T15:06:00Z</time>
      </trkpt>
      <trkpt lat="44.11514" lon="6.80986">
        <ele>897</ele>
        <time>2013-09-21T15:06:13Z</time>
      </trkpt>
      <trkpt lat="44.11534" lon="6.80906">
        <ele>899</ele>
        <time>2013-09-21T15:06:29Z</time>
      </trkpt>
      <trkpt lat="44.11575" lon="6.80838">
        <ele>900</ele>
        <time>2013-09-21T15:06:45Z</time>
      </trkpt>
      <trkpt lat="44.11594" lon="6.8076">
        <ele>902</ele>
        <time>2013-09-21T15:06:59Z</time>
      </trkpt>
      <trkpt lat="44.1163" lon="6.80647">
        <ele>905</ele>
        <time>2013-09-21T15:07:18Z</time>
      </trkpt>
      <trkpt lat="44.11644" lon="6.80602">
        <ele>905</ele>
        <time>2013-09-21T15:07:25Z</time>
      </trkpt>
      <trkpt lat="44.11662" lon="6.80576">
        <ele>906</ele>
        <time>2013-09-21T15:07:30Z</time>
      </trkpt>
      <trkpt lat="44.11684" lon="6.80545">
        <ele>906</ele>
        <time>2013-09-21T15:07:36Z</time>
      </trkpt>
      <trkpt lat="44.11703" lon="6.80502">
        <ele>907</ele>
        <time>2013-09-21T15:07:42Z</time>
      </trkpt>
      <trkpt lat="44.11732" lon="6.80459">
        <ele>907</ele>
        <time>2013-09-21T15:07:49Z</time>
      </trkpt>
      <trkpt lat="44.11769" lon="6.80427">
        <ele>908</ele>
        <time>2013-09-21T15:07:56Z</time>
      </trkpt>
      <trkpt lat="44.11832" lon="6.80407">
        <ele>909</ele>
        <time>2013-09-21T15:08:06Z</time>
      </trkpt>
      <trkpt lat="44.11859" lon="6.80379">
        <ele>909</ele>
        <time>2013-09-21T15:08:12Z</time>
      </trkpt>
      <trkpt lat="44.11864" lon="6.80322">
        <ele>910</ele>
        <time>2013-09-21T15:08:20Z</time>
      </trkpt>
      <trkpt lat="44.11854" lon="6.80302">
        <ele>911</ele>
        <time>2013-09-21T15:08:24Z</time>
      </trkpt>
      <trkpt lat="44.11823" lon="6.80275">
        <ele>913</ele>
        <time>2013-09-21T15:08:36Z</time>
      </trkpt>
      <trkpt lat="44.11787" lon="6.80244">
        <ele>915</ele>
        <time>2013-09-21T15:08:51Z</time>
      </trkpt>
      <trkpt lat="44.11788" lon="6.80198">
        <ele>917</ele>
        <time>2013-09-21T15:09:03Z</time>
      </trkpt>
      <trkpt lat="44.11821" lon="6.80122">
        <ele>921</ele>
        <time>2013-09-21T15:09:24Z</time>
      </trkpt>
      <trkpt lat="44.11829" lon="6.80066">
        <ele>923</ele>
        <time>2013-09-21T15:09:37Z</time>
      </trkpt>
      <trkpt lat="44.11812" lon="6.79996">
        <ele>926</ele>
        <time>2013-09-21T15:09:53Z</time>
      </trkpt>
      <trkpt lat="44.1182" lon="6.79906">
        <ele>929</ele>
        <time>2013-09-21T15:10:12Z</time>
      </trkpt>
      <trkpt lat="44.11842" lon="6.79818">
        <ele>933</ele>
        <time>2013-09-21T15:10:32Z</time>
      </trkpt>
      <trkpt lat="44.11879" lon="6.79745">
        <ele>936</ele>
        <time>2013-09-21T15:10:49Z</time>
      </trkpt>
      <trkpt lat="44.1194" lon="6.79669">
        <ele>939</ele>
        <time>2013-09-21T15:11:06Z</time>
      </trkpt>
      <trkpt lat="44.12" lon="6.79591">
        <ele>942</ele>
        <time>2013-09-21T15:11:25Z</time>
      </trkpt>
      <trkpt lat="44.12035" lon="6.79528">
        <ele>944</ele>
        <time>2013-09-21T15:11:37Z</time>
      </trkpt>
      <trkpt lat="44.12079" lon="6.79472">
        <ele>946</ele>
        <time>2013-09-21T15:11:49Z</time>
      </trkpt>
      <trkpt lat="44.12128" lon="6.79392">
        <ele>948</ele>
        <time>2013-09-21T15:12:06Z</time>
      </trkpt>
      <trkpt lat="44.12149" lon="6.7936">
        <ele>948</ele>
        <time>2013-09-21T15:12:14Z</time>
      </trkpt>
      <trkpt lat="44.12178" lon="6.79319">
        <ele>949</ele>
        <time>2013-09-21T15:12:27Z</time>
      </trkpt>
      <trkpt lat="44.12213" lon="6.79278">
        <ele>949</ele>
        <time>2013-09-21T15:12:40Z</time>
      </trkpt>
      <trkpt lat="44.12219" lon="6.79223">
        <ele>949</ele>
        <time>2013-09-21T15:12:51Z</time>
      </trkpt>
      <trkpt lat="44.12225" lon="6.79169">
        <ele>950</ele>
        <time>2013-09-21T15:13:02Z</time>
      </trkpt>
      <trkpt lat="44.12257" lon="6.79125">
        <ele>950</ele>
        <time>2013-09-21T15:13:13Z</time>
      </trkpt>
      <trkpt lat="44.12261" lon="6.79106">
        <ele>950</ele>
        <time>2013-09-21T15:13:16Z</time>
      </trkpt>
      <trkpt lat="44.12268" lon="6.79041">
        <ele>951</ele>
        <time>2013-09-21T15:13:26Z</time>
      </trkpt>
      <trkpt lat="44.1228" lon="6.79006">
        <ele>951</ele>
        <time>2013-09-21T15:13:32Z</time>
      </trkpt>
      <trkpt lat="44.12304" lon="6.78951">
        <ele>952</ele>
        <time>2013-09-21T15:13:42Z</time>
      </trkpt>
      <trkpt lat="44.12303" lon="6.78907">
        <ele>952</ele>
        <time>2013-09-21T15:13:49Z</time>
      </trkpt>
      <trkpt lat="44.12285" lon="6.78861">
        <ele>953</ele>
        <time>2013-09-21T15:13:57Z</time>
      </trkpt>
      <trkpt lat="44.12284" lon="6.78821">
        <ele>953</ele>
        <time>2013-09-21T15:14:03Z</time>
      </trkpt>
      <trkpt lat="44.12289" lon="6.78779">
        <ele>954</ele>
        <time>2013-09-21T15:14:09Z</time>
      </trkpt>
      <trkpt lat="44.12317" lon="6.78754">
        <ele>954</ele>
        <time>2013-09-21T15:14:15Z</time>
      </trkpt>
      <trkpt lat="44.12357" lon="6.78737">
        <ele>955</ele>
        <time>2013-09-21T15:14:23Z</time>
      </trkpt>
      <trkpt lat="44.12373" lon="6.78709">
        <ele>955</ele>
        <time>2013-09-21T15:14:28Z</time>
      </trkpt>
      <trkpt lat="44.12382" lon="6.78651">
        <ele>955</ele>
        <time>2013-09-21T15:14:36Z</time>
      </trkpt>
      <trkpt lat="44.12386" lon="6.78585">
        <ele>955</ele>
        <time>2013-09-21T15:14:45Z</time>
      </trkpt>
      <trkpt lat="44.12391" lon="6.78551">
        <ele>955</ele>
        <time>2013-09-21T15:14:50Z</time>
      </trkpt>
      <trkpt lat="44.12415" lon="6.78507">
        <ele>956</ele>
        <time>2013-09-21T15:14:58Z</time>
      </trkpt>
      <trkpt lat="44.12432" lon="6.78483">
        <ele>956</ele>
        <time>2013-09-21T15:15:03Z</time>
      </trkpt>
      <trkpt lat="44.12445" lon="6.78471">
        <ele>956</ele>
        <time>2013-09-21T15:15:06Z</time>
      </trkpt>
      <trkpt lat="44.12491" lon="6.78455">
        <ele>957</ele>
        <time>2013-09-21T15:15:16Z</time>
      </trkpt>
      <trkpt lat="44.12507" lon="6.78443">
        <ele>957</ele>
        <time>2013-09-21T15:15:20Z</time>
      </trkpt>
      <trkpt lat="44.12522" lon="6.78411">
        <ele>957</ele>
        <time>2013-09-21T15:15:26Z</time>
      </trkpt>
      <trkpt lat="44.1255" lon="6.78345">
        <ele>958</ele>
        <time>2013-09-21T15:15:38Z</time>
      </trkpt>
      <trkpt lat="44.12558" lon="6.78339">
        <ele>958</ele>
        <time>2013-09-21T15:15:40Z</time>
      </trkpt>
      <trkpt lat="44.12583" lon="6.78319">
        <ele>959</ele>
        <time>2013-09-21T15:15:46Z</time>
      </trkpt>
      <trkpt lat="44.12591" lon="6.78298">
        <ele>959</ele>
        <time>2013-09-21T15:15:50Z</time>
      </trkpt>
      <trkpt lat="44.126" lon="6.78275">
        <ele>960</ele>
        <time>2013-09-21T15:15:54Z</time>
      </trkpt>
      <trkpt lat="44.12617" lon="6.78254">
        <ele>960</ele>
        <time>2013-09-21T15:15:59Z</time>
      </trkpt>
      <trkpt lat="44.12635" lon="6.78242">
        <ele>961</ele>
        <time>2013-09-21T15:16:04Z</time>
      </trkpt>
      <trkpt lat="44.12661" lon="6.78235">
        <ele>962</ele>
        <time>2013-09-21T15:16:11Z</time>
      </trkpt>
      <trkpt lat="44.12685" lon="6.78204">
        <ele>963</ele>
        <time>2013-09-21T15:16:21Z</time>
      </trkpt>
      <trkpt lat="44.1268" lon="6.78143">
        <ele>965</ele>
        <time>2013-09-21T15:16:33Z</time>
      </trkpt>
      <trkpt lat="44.12695" lon="6.78089">
        <ele>967</ele>
        <time>2013-09-21T15:16:45Z</time>
      </trkpt>
      <trkpt lat="44.1272" lon="6.78026">
        <ele>970</ele>
        <time>2013-09-21T15:16:59Z</time>
      </trkpt>
      <trkpt lat="44.12732" lon="6.77917">
        <ele>973</ele>
        <time>2013-09-21T15:17:18Z</time>
      </trkpt>
      <trkpt lat="44.12749" lon="6.77824">
        <ele>974</ele>
        <time>2013-09-21T15:17:34Z</time>
      </trkpt>
      <trkpt lat="44.12766" lon="6.77798">
        <ele>975</ele>
        <time>2013-09-21T15:17:40Z</time>
      </trkpt>
      <trkpt lat="44.12785" lon="6.77765">
        <ele>976</ele>
        <time>2013-09-21T15:17:47Z</time>
      </trkpt>
      <trkpt lat="44.12801" lon="6.77737">
        <ele>976</ele>
        <time>2013-09-21T15:17:53Z</time>
      </trkpt>
      <trkpt lat="44.12826" lon="6.77714">
        <ele>977</ele>
        <time>2013-09-21T15:18:00Z</time>
      </trkpt>
      <trkpt lat="44.12844" lon="6.7769">
        <ele>977</ele>
        <time>2013-09-21T15:18:06Z</time>
      </trkpt>
      <trkpt lat="44.12862" lon="6.77653">
        <ele>978</ele>
        <time>2013-09-21T15:18:14Z</time>
      </trkpt>
      <trkpt lat="44.12903" lon="6.77578">
        <ele>980</ele>
        <time>2013-09-21T15:18:30Z</time>
      </trkpt>
      <trkpt lat="44.12936" lon="6.77539">
        <ele>981</ele>
        <time>2013-09-21T15:18:40Z</time>
      </trkpt>
      <trkpt lat="44.1295" lon="6.7751">
        <ele>982</ele>
        <time>2013-09-21T15:18:46Z</time>
      </trkpt>
      <trkpt lat="44.12954" lon="6.77474">
        <ele>982</ele>
        <time>2013-09-21T15:18:52Z</time>
      </trkpt>
      <trkpt lat="44.1296" lon="6.77434">
        <ele>983</ele>
        <time>2013-09-21T15:18:59Z</time>
      </trkpt>
      <trkpt lat="44.12967" lon="6.7742">
        <ele>983</ele>
        <time>2013-09-21T15:19:02Z</time>
      </trkpt>
      <trkpt lat="44.12994" lon="6.77402">
        <ele>984</ele>
        <time>2013-09-21T15:19:10Z</time>
      </trkpt>
      <trkpt lat="44.13044" lon="6.77403">
        <ele>985</ele>
        <time>2013-09-21T15:19:23Z</time>
      </trkpt>
      <trkpt lat="44.1306" lon="6.77407">
        <ele>985</ele>
        <time>2013-09-21T15:19:30Z</time>
      </trkpt>
      <trkpt lat="44.13059" lon="6.77408">
        <ele>993</ele>
        <time>2013-09-21T15:20:21Z</time>
      </trkpt>
      <trkpt lat="44.13074" lon="6.77407">
        <ele>994</ele>
        <time>2013-09-21T15:20:32Z</time>
      </trkpt>
      <trkpt lat="44.13102" lon="6.77412">
        <ele>995</ele>
        <time>2013-09-21T15:20:42Z</time>
      </trkpt>
      <trkpt lat="44.13152" lon="6.77393">
        <ele>995</ele>
        <time>2013-09-21T15:20:54Z</time>
      </trkpt>
      <trkpt lat="44.13177" lon="6.77369">
        <ele>996</ele>
        <time>2013-09-21T15:21:01Z</time>
      </trkpt>
      <trkpt lat="44.13192" lon="6.7734">
        <ele>996</ele>
        <time>2013-09-21T15:21:07Z</time>
      </trkpt>
      <trkpt lat="44.13223" lon="6.77287">
        <ele>997</ele>
        <time>2013-09-21T15:21:19Z</time>
      </trkpt>
      <trkpt lat="44.13248" lon="6.77241">
        <ele>998</ele>
        <time>2013-09-21T15:21:29Z</time>
      </trkpt>
      <trkpt lat="44.13281" lon="6.77147">
        <ele>1000</ele>
        <time>2013-09-21T15:21:47Z</time>
      </trkpt>
      <trkpt lat="44.13316" lon="6.77078">
        <ele>1001</ele>
        <time>2013-09-21T15:22:00Z</time>
      </trkpt>
      <trkpt lat="44.1335" lon="6.77011">
        <ele>1002</ele>
        <time>2013-09-21T15:22:12Z</time>
      </trkpt>
      <trkpt lat="44.13374" lon="6.76967">
        <ele>1003</ele>
        <time>2013-09-21T15:22:20Z</time>
      </trkpt>
      <trkpt lat="44.134" lon="6.76954">
        <ele>1003</ele>
        <time>2013-09-21T15:22:25Z</time>
      </trkpt>
      <trkpt lat="44.13491" lon="6.76919">
        <ele>1004</ele>
        <time>2013-09-21T15:22:41Z</time>
      </trkpt>
      <trkpt lat="44.1351" lon="6.76902">
        <ele>1004</ele>
        <time>2013-09-21T15:22:45Z</time>
      </trkpt>
      <trkpt lat="44.13557" lon="6.76852">
        <ele>1005</ele>
        <time>2013-09-21T15:22:55Z</time>
      </trkpt>
      <trkpt lat="44.13589" lon="6.76831">
        <ele>1005</ele>
        <time>2013-09-21T15:23:01Z</time>
      </trkpt>
      <trkpt lat="44.13616" lon="6.76817">
        <ele>1005</ele>
        <time>2013-09-21T15:23:06Z</time>
      </trkpt>
      <trkpt lat="44.13637" lon="6.76792">
        <ele>1005</ele>
        <time>2013-09-21T15:23:11Z</time>
      </trkpt>
      <trkpt lat="44.13646" lon="6.76774">
        <ele>1005</ele>
        <time>2013-09-21T15:23:14Z</time>
      </trkpt>
      <trkpt lat="44.13696" lon="6.76655">
        <ele>1007</ele>
        <time>2013-09-21T15:23:33Z</time>
      </trkpt>
      <trkpt lat="44.13748" lon="6.76583">
        <ele>1009</ele>
        <time>2013-09-21T15:23:48Z</time>
      </trkpt>
      <trkpt lat="44.1378" lon="6.7655">
        <ele>1010</ele>
        <time>2013-09-21T15:23:56Z</time>
      </trkpt>
      <trkpt lat="44.1384" lon="6.76495">
        <ele>1012</ele>
        <time>2013-09-21T15:24:12Z</time>
      </trkpt>
      <trkpt lat="44.1392" lon="6.76425">
        <ele>1015</ele>
        <time>2013-09-21T15:24:33Z</time>
      </trkpt>
      <trkpt lat="44.13947" lon="6.76395">
        <ele>1016</ele>
        <time>2013-09-21T15:24:41Z</time>
      </trkpt>
      <trkpt lat="44.14012" lon="6.76346">
        <ele>1018</ele>
        <time>2013-09-21T15:24:59Z</time>
      </trkpt>
      <trkpt lat="44.14054" lon="6.76319">
        <ele>1019</ele>
        <time>2013-09-21T15:25:12Z</time>
      </trkpt>
      <trkpt lat="44.14077" lon="6.76329">
        <ele>1020</ele>
        <time>2013-09-21T15:25:21Z</time>
      </trkpt>
      <trkpt lat="44.14079" lon="6.76333">
        <ele>1020</ele>
        <time>2013-09-21T15:25:25Z</time>
      </trkpt>
      <trkpt lat="44.14083" lon="6.76345">
        <ele>1022</ele>
        <time>2013-09-21T15:25:38Z</time>
      </trkpt>
      <trkpt lat="44.14091" lon="6.76359">
        <ele>1025</ele>
        <time>2013-09-21T15:25:54Z</time>
      </trkpt>
      <trkpt lat="44.14101" lon="6.76363">
        <ele>1029</ele>
        <time>2013-09-21T15:26:10Z</time>
      </trkpt>
      <trkpt lat="44.1411" lon="6.76363">
        <ele>1032</ele>
        <time>2013-09-21T15:26:25Z</time>
      </trkpt>
      <trkpt lat="44.14108" lon="6.76348">
        <ele>1035</ele>
        <time>2013-09-21T15:26:40Z</time>
      </trkpt>
      <trkpt lat="44.14114" lon="6.76329">
        <ele>1037</ele>
        <time>2013-09-21T15:26:56Z</time>
      </trkpt>
      <trkpt lat="44.14119" lon="6.76321">
        <ele>1039</ele>
        <time>2013-09-21T15:27:04Z</time>
      </trkpt>
      <trkpt lat="44.14123" lon="6.76309">
        <ele>1040</ele>
        <time>2013-09-21T15:27:13Z</time>
      </trkpt>
      <trkpt lat="44.1413" lon="6.76296">
        <ele>1042</ele>
        <time>2013-09-21T15:27:22Z</time>
      </trkpt>
      <trkpt lat="44.14137" lon="6.76287">
        <ele>1043</ele>
        <time>2013-09-21T15:27:29Z</time>
      </trkpt>
      <trkpt lat="44.14143" lon="6.76276">
        <ele>1044</ele>
        <time>2013-09-21T15:27:38Z</time>
      </trkpt>
      <trkpt lat="44.14162" lon="6.76245">
        <ele>1046</ele>
        <time>2013-09-21T15:27:52Z</time>
      </trkpt>
      <trkpt lat="44.14176" lon="6.76206">
        <ele>1047</ele>
        <time>2013-09-21T15:28:02Z</time>
      </trkpt>
      <trkpt lat="44.14215" lon="6.76167">
        <ele>1050</ele>
        <time>2013-09-21T15:28:19Z</time>
      </trkpt>
      <trkpt lat="44.14241" lon="6.76143">
        <ele>1051</ele>
        <time>2013-09-21T15:28:30Z</time>
      </trkpt>
      <trkpt lat="44.14271" lon="6.76119">
        <ele>1052</ele>
        <time>2013-09-21T15:28:42Z</time>
      </trkpt>
      <trkpt lat="44.14288" lon="6.76099">
        <ele>1053</ele>
        <time>2013-09-21T15:28:56Z</time>
      </trkpt>
      <trkpt lat="44.14308" lon="6.76078">
        <ele>1054</ele>
        <time>2013-09-21T15:29:13Z</time>
      </trkpt>
      <trkpt lat="44.14319" lon="6.76053">
        <ele>1057</ele>
        <time>2013-09-21T15:29:30Z</time>
      </trkpt>
      <trkpt lat="44.14336" lon="6.76026">
        <ele>1060</ele>
        <time>2013-09-21T15:29:50Z</time>
      </trkpt>
      <trkpt lat="44.14349" lon="6.76008">
        <ele>1062</ele>
        <time>2013-09-21T15:30:05Z</time>
      </trkpt>
      <trkpt lat="44.1436" lon="6.75984">
        <ele>1065</ele>
        <time>2013-09-21T15:30:22Z</time>
      </trkpt>
      <trkpt lat="44.14367" lon="6.7598">
        <ele>1066</ele>
        <time>2013-09-21T15:30:28Z</time>
      </trkpt>
      <trkpt lat="44.14382" lon="6.75956">
        <ele>1070</ele>
        <time>2013-09-21T15:30:43Z</time>
      </trkpt>
      <trkpt lat="44.14401" lon="6.75924">
        <ele>1072</ele>
        <time>2013-09-21T15:30:58Z</time>
      </trkpt>
      <trkpt lat="44.1442" lon="6.75904">
        <ele>1073</ele>
        <time>2013-09-21T15:31:08Z</time>
      </trkpt>
    </trkseg>
  </trk>
  <trk>
    <name><![CDATA[j3]]></name>
    <trkseg>
      <trkpt lat="44.14417" lon="6.75902">
        <ele>1087</ele>
        <time>2013-09-22T06:43:32Z</time>
      </trkpt>
      <trkpt lat="44.14411" lon="6.75904">
        <ele>1087</ele>
        <time>2013-09-22T06:43:37Z</time>
      </trkpt>
      <trkpt lat="44.14398" lon="6.75919">
        <ele>1087</ele>
        <time>2013-09-22T06:43:46Z</time>
      </trkpt>
      <trkpt lat="44.14383" lon="6.75947">
        <ele>1087</ele>
        <time>2013-09-22T06:43:58Z</time>
      </trkpt>
      <trkpt lat="44.14361" lon="6.75982">
        <ele>1087</ele>
        <time>2013-09-22T06:44:07Z</time>
      </trkpt>
      <trkpt lat="44.14334" lon="6.76024">
        <ele>1086</ele>
        <time>2013-09-22T06:44:13Z</time>
      </trkpt>
      <trkpt lat="44.143" lon="6.76086">
        <ele>1085</ele>
        <time>2013-09-22T06:44:21Z</time>
      </trkpt>
      <trkpt lat="44.14272" lon="6.76117">
        <ele>1084</ele>
        <time>2013-09-22T06:44:27Z</time>
      </trkpt>
      <trkpt lat="44.14258" lon="6.76127">
        <ele>1083</ele>
        <time>2013-09-22T06:44:31Z</time>
      </trkpt>
      <trkpt lat="44.14249" lon="6.76131">
        <ele>1083</ele>
        <time>2013-09-22T06:44:34Z</time>
      </trkpt>
      <trkpt lat="44.14227" lon="6.76152">
        <ele>1081</ele>
        <time>2013-09-22T06:44:44Z</time>
      </trkpt>
      <trkpt lat="44.14193" lon="6.76188">
        <ele>1079</ele>
        <time>2013-09-22T06:44:59Z</time>
      </trkpt>
      <trkpt lat="44.14165" lon="6.76231">
        <ele>1077</ele>
        <time>2013-09-22T06:45:12Z</time>
      </trkpt>
      <trkpt lat="44.14137" lon="6.76274">
        <ele>1075</ele>
        <time>2013-09-22T06:45:25Z</time>
      </trkpt>
      <trkpt lat="44.14118" lon="6.763">
        <ele>1074</ele>
        <time>2013-09-22T06:45:30Z</time>
      </trkpt>
      <trkpt lat="44.14108" lon="6.76347">
        <ele>1073</ele>
        <time>2013-09-22T06:45:37Z</time>
      </trkpt>
      <trkpt lat="44.14101" lon="6.76364">
        <ele>1072</ele>
        <time>2013-09-22T06:45:43Z</time>
      </trkpt>
      <trkpt lat="44.14085" lon="6.76357">
        <ele>1071</ele>
        <time>2013-09-22T06:45:47Z</time>
      </trkpt>
      <trkpt lat="44.14067" lon="6.76328">
        <ele>1070</ele>
        <time>2013-09-22T06:45:52Z</time>
      </trkpt>
      <trkpt lat="44.14045" lon="6.76316">
        <ele>1069</ele>
        <time>2013-09-22T06:45:56Z</time>
      </trkpt>
      <trkpt lat="44.14037" lon="6.76318">
        <ele>1068</ele>
        <time>2013-09-22T06:46:00Z</time>
      </trkpt>
      <trkpt lat="44.14035" lon="6.76332">
        <ele>1034</ele>
        <time>2013-09-22T06:52:11Z</time>
      </trkpt>
      <trkpt lat="44.14023" lon="6.76335">
        <ele>1034</ele>
        <time>2013-09-22T06:52:19Z</time>
      </trkpt>
      <trkpt lat="44.13995" lon="6.76349">
        <ele>1033</ele>
        <time>2013-09-22T06:52:28Z</time>
      </trkpt>
      <trkpt lat="44.13951" lon="6.76381">
        <ele>1033</ele>
        <time>2013-09-22T06:52:42Z</time>
      </trkpt>
      <trkpt lat="44.139" lon="6.76436">
        <ele>1032</ele>
        <time>2013-09-22T06:52:56Z</time>
      </trkpt>
      <trkpt lat="44.13826" lon="6.76495">
        <ele>1032</ele>
        <time>2013-09-22T06:53:12Z</time>
      </trkpt>
      <trkpt lat="44.13807" lon="6.7651">
        <ele>1032</ele>
        <time>2013-09-22T06:53:16Z</time>
      </trkpt>
      <trkpt lat="44.13784" lon="6.76533">
        <ele>1032</ele>
        <time>2013-09-22T06:53:21Z</time>
      </trkpt>
      <trkpt lat="44.13743" lon="6.76577">
        <ele>1031</ele>
        <time>2013-09-22T06:53:33Z</time>
      </trkpt>
      <trkpt lat="44.1372" lon="6.76592">
        <ele>1031</ele>
        <time>2013-09-22T06:53:40Z</time>
      </trkpt>
      <trkpt lat="44.13683" lon="6.76593">
        <ele>1030</ele>
        <time>2013-09-22T06:53:52Z</time>
      </trkpt>
      <trkpt lat="44.13653" lon="6.76578">
        <ele>1030</ele>
        <time>2013-09-22T06:54:04Z</time>
      </trkpt>
      <trkpt lat="44.13622" lon="6.76576">
        <ele>1029</ele>
        <time>2013-09-22T06:54:18Z</time>
      </trkpt>
      <trkpt lat="44.13596" lon="6.76582">
        <ele>1028</ele>
        <time>2013-09-22T06:54:32Z</time>
      </trkpt>
      <trkpt lat="44.13572" lon="6.76592">
        <ele>1028</ele>
        <time>2013-09-22T06:54:47Z</time>
      </trkpt>
      <trkpt lat="44.13536" lon="6.76578">
        <ele>1028</ele>
        <time>2013-09-22T06:54:58Z</time>
      </trkpt>
      <trkpt lat="44.13516" lon="6.76588">
        <ele>1028</ele>
        <time>2013-09-22T06:55:04Z</time>
      </trkpt>
      <trkpt lat="44.13491" lon="6.76602">
        <ele>1028</ele>
        <time>2013-09-22T06:55:17Z</time>
      </trkpt>
      <trkpt lat="44.13466" lon="6.76615">
        <ele>1028</ele>
        <time>2013-09-22T06:55:34Z</time>
      </trkpt>
      <trkpt lat="44.13441" lon="6.76616">
        <ele>1030</ele>
        <time>2013-09-22T06:55:50Z</time>
      </trkpt>
      <trkpt lat="44.13412" lon="6.76609">
        <ele>1030</ele>
        <time>2013-09-22T06:56:05Z</time>
      </trkpt>
      <trkpt lat="44.13366" lon="6.76597">
        <ele>1031</ele>
        <time>2013-09-22T06:56:17Z</time>
      </trkpt>
      <trkpt lat="44.13329" lon="6.76597">
        <ele>1031</ele>
        <time>2013-09-22T06:56:29Z</time>
      </trkpt>
      <trkpt lat="44.13301" lon="6.766">
        <ele>1030</ele>
        <time>2013-09-22T06:56:36Z</time>
      </trkpt>
      <trkpt lat="44.13294" lon="6.76621">
        <ele>1030</ele>
        <time>2013-09-22T06:56:39Z</time>
      </trkpt>
      <trkpt lat="44.13264" lon="6.76651">
        <ele>1030</ele>
        <time>2013-09-22T06:56:46Z</time>
      </trkpt>
      <trkpt lat="44.13248" lon="6.76667">
        <ele>1030</ele>
        <time>2013-09-22T06:56:51Z</time>
      </trkpt>
      <trkpt lat="44.13231" lon="6.76675">
        <ele>1030</ele>
        <time>2013-09-22T06:56:56Z</time>
      </trkpt>
      <trkpt lat="44.13199" lon="6.76651">
        <ele>1029</ele>
        <time>2013-09-22T06:57:02Z</time>
      </trkpt>
      <trkpt lat="44.13182" lon="6.76646">
        <ele>1029</ele>
        <time>2013-09-22T06:57:06Z</time>
      </trkpt>
      <trkpt lat="44.13172" lon="6.76646">
        <ele>1029</ele>
        <time>2013-09-22T06:57:11Z</time>
      </trkpt>
      <trkpt lat="44.13158" lon="6.76648">
        <ele>1028</ele>
        <time>2013-09-22T06:57:19Z</time>
      </trkpt>
      <trkpt lat="44.13158" lon="6.76648">
        <ele>1027</ele>
        <time>2013-09-22T06:57:33Z</time>
      </trkpt>
      <trkpt lat="44.13152" lon="6.76656">
        <ele>1023</ele>
        <time>2013-09-22T07:00:17Z</time>
      </trkpt>
      <trkpt lat="44.13116" lon="6.76702">
        <ele>1023</ele>
        <time>2013-09-22T07:00:33Z</time>
      </trkpt>
      <trkpt lat="44.13107" lon="6.76754">
        <ele>1023</ele>
        <time>2013-09-22T07:00:47Z</time>
      </trkpt>
      <trkpt lat="44.13102" lon="6.76771">
        <ele>1023</ele>
        <time>2013-09-22T07:00:52Z</time>
      </trkpt>
      <trkpt lat="44.13084" lon="6.76772">
        <ele>1024</ele>
        <time>2013-09-22T07:01:03Z</time>
      </trkpt>
      <trkpt lat="44.13064" lon="6.76761">
        <ele>1024</ele>
        <time>2013-09-22T07:01:19Z</time>
      </trkpt>
      <trkpt lat="44.13057" lon="6.76766">
        <ele>1024</ele>
        <time>2013-09-22T07:01:25Z</time>
      </trkpt>
      <trkpt lat="44.13038" lon="6.76802">
        <ele>1025</ele>
        <time>2013-09-22T07:01:44Z</time>
      </trkpt>
      <trkpt lat="44.13027" lon="6.76826">
        <ele>1027</ele>
        <time>2013-09-22T07:01:57Z</time>
      </trkpt>
      <trkpt lat="44.13024" lon="6.76835">
        <ele>1027</ele>
        <time>2013-09-22T07:02:02Z</time>
      </trkpt>
      <trkpt lat="44.13017" lon="6.7685">
        <ele>1028</ele>
        <time>2013-09-22T07:02:10Z</time>
      </trkpt>
      <trkpt lat="44.13007" lon="6.76886">
        <ele>1030</ele>
        <time>2013-09-22T07:02:25Z</time>
      </trkpt>
      <trkpt lat="44.13006" lon="6.769">
        <ele>1031</ele>
        <time>2013-09-22T07:02:31Z</time>
      </trkpt>
      <trkpt lat="44.12999" lon="6.76932">
        <ele>1032</ele>
        <time>2013-09-22T07:02:46Z</time>
      </trkpt>
      <trkpt lat="44.12986" lon="6.76971">
        <ele>1034</ele>
        <time>2013-09-22T07:03:04Z</time>
      </trkpt>
      <trkpt lat="44.1297" lon="6.76998">
        <ele>1037</ele>
        <time>2013-09-22T07:03:19Z</time>
      </trkpt>
      <trkpt lat="44.12943" lon="6.77005">
        <ele>1039</ele>
        <time>2013-09-22T07:03:38Z</time>
      </trkpt>
      <trkpt lat="44.12907" lon="6.7703">
        <ele>1041</ele>
        <time>2013-09-22T07:03:54Z</time>
      </trkpt>
      <trkpt lat="44.12877" lon="6.77051">
        <ele>1042</ele>
        <time>2013-09-22T07:04:02Z</time>
      </trkpt>
      <trkpt lat="44.12843" lon="6.77056">
        <ele>1043</ele>
        <time>2013-09-22T07:04:10Z</time>
      </trkpt>
      <trkpt lat="44.12818" lon="6.77076">
        <ele>1045</ele>
        <time>2013-09-22T07:04:19Z</time>
      </trkpt>
      <trkpt lat="44.12792" lon="6.77124">
        <ele>1046</ele>
        <time>2013-09-22T07:04:33Z</time>
      </trkpt>
      <trkpt lat="44.12754" lon="6.77142">
        <ele>1048</ele>
        <time>2013-09-22T07:04:48Z</time>
      </trkpt>
      <trkpt lat="44.12725" lon="6.7719">
        <ele>1050</ele>
        <time>2013-09-22T07:05:05Z</time>
      </trkpt>
      <trkpt lat="44.12702" lon="6.77242">
        <ele>1051</ele>
        <time>2013-09-22T07:05:21Z</time>
      </trkpt>
      <trkpt lat="44.12663" lon="6.77266">
        <ele>1052</ele>
        <time>2013-09-22T07:05:37Z</time>
      </trkpt>
      <trkpt lat="44.12637" lon="6.77288">
        <ele>1053</ele>
        <time>2013-09-22T07:05:49Z</time>
      </trkpt>
      <trkpt lat="44.12618" lon="6.773">
        <ele>1054</ele>
        <time>2013-09-22T07:06:01Z</time>
      </trkpt>
      <trkpt lat="44.12589" lon="6.77296">
        <ele>1055</ele>
        <time>2013-09-22T07:06:16Z</time>
      </trkpt>
      <trkpt lat="44.12568" lon="6.77312">
        <ele>1055</ele>
        <time>2013-09-22T07:06:29Z</time>
      </trkpt>
      <trkpt lat="44.12545" lon="6.7733">
        <ele>1056</ele>
        <time>2013-09-22T07:06:43Z</time>
      </trkpt>
      <trkpt lat="44.12515" lon="6.77339">
        <ele>1057</ele>
        <time>2013-09-22T07:06:59Z</time>
      </trkpt>
      <trkpt lat="44.1249" lon="6.7736">
        <ele>1058</ele>
        <time>2013-09-22T07:07:13Z</time>
      </trkpt>
      <trkpt lat="44.12462" lon="6.77385">
        <ele>1060</ele>
        <time>2013-09-22T07:07:29Z</time>
      </trkpt>
      <trkpt lat="44.12435" lon="6.77412">
        <ele>1062</ele>
        <time>2013-09-22T07:07:45Z</time>
      </trkpt>
      <trkpt lat="44.12411" lon="6.77447">
        <ele>1065</ele>
        <time>2013-09-22T07:08:02Z</time>
      </trkpt>
      <trkpt lat="44.12384" lon="6.77478">
        <ele>1068</ele>
        <time>2013-09-22T07:08:20Z</time>
      </trkpt>
      <trkpt lat="44.12363" lon="6.77501">
        <ele>1071</ele>
        <time>2013-09-22T07:08:33Z</time>
      </trkpt>
      <trkpt lat="44.12339" lon="6.77516">
        <ele>1072</ele>
        <time>2013-09-22T07:08:48Z</time>
      </trkpt>
      <trkpt lat="44.12317" lon="6.77536">
        <ele>1074</ele>
        <time>2013-09-22T07:09:03Z</time>
      </trkpt>
      <trkpt lat="44.1231" lon="6.77547">
        <ele>1075</ele>
        <time>2013-09-22T07:09:09Z</time>
      </trkpt>
      <trkpt lat="44.123" lon="6.77559">
        <ele>1076</ele>
        <time>2013-09-22T07:09:16Z</time>
      </trkpt>
      <trkpt lat="44.12291" lon="6.77571">
        <ele>1076</ele>
        <time>2013-09-22T07:09:23Z</time>
      </trkpt>
      <trkpt lat="44.12268" lon="6.77595">
        <ele>1078</ele>
        <time>2013-09-22T07:09:38Z</time>
      </trkpt>
      <trkpt lat="44.12251" lon="6.77624">
        <ele>1080</ele>
        <time>2013-09-22T07:09:52Z</time>
      </trkpt>
      <trkpt lat="44.12236" lon="6.77656">
        <ele>1082</ele>
        <time>2013-09-22T07:10:07Z</time>
      </trkpt>
      <trkpt lat="44.12214" lon="6.77688">
        <ele>1083</ele>
        <time>2013-09-22T07:10:24Z</time>
      </trkpt>
      <trkpt lat="44.12189" lon="6.77703">
        <ele>1085</ele>
        <time>2013-09-22T07:10:38Z</time>
      </trkpt>
      <trkpt lat="44.12162" lon="6.77709">
        <ele>1086</ele>
        <time>2013-09-22T07:10:53Z</time>
      </trkpt>
      <trkpt lat="44.12132" lon="6.77709">
        <ele>1088</ele>
        <time>2013-09-22T07:11:10Z</time>
      </trkpt>
      <trkpt lat="44.12105" lon="6.77721">
        <ele>1090</ele>
        <time>2013-09-22T07:11:25Z</time>
      </trkpt>
      <trkpt lat="44.12075" lon="6.77734">
        <ele>1093</ele>
        <time>2013-09-22T07:11:42Z</time>
      </trkpt>
      <trkpt lat="44.12048" lon="6.77732">
        <ele>1096</ele>
        <time>2013-09-22T07:11:56Z</time>
      </trkpt>
      <trkpt lat="44.1201" lon="6.77729">
        <ele>1099</ele>
        <time>2013-09-22T07:12:13Z</time>
      </trkpt>
      <trkpt lat="44.11988" lon="6.77737">
        <ele>1102</ele>
        <time>2013-09-22T07:12:25Z</time>
      </trkpt>
      <trkpt lat="44.11983" lon="6.77748">
        <ele>1103</ele>
        <time>2013-09-22T07:12:29Z</time>
      </trkpt>
      <trkpt lat="44.11983" lon="6.77761">
        <ele>1104</ele>
        <time>2013-09-22T07:12:33Z</time>
      </trkpt>
      <trkpt lat="44.11993" lon="6.77776">
        <ele>1105</ele>
        <time>2013-09-22T07:12:39Z</time>
      </trkpt>
      <trkpt lat="44.11995" lon="6.778">
        <ele>1106</ele>
        <time>2013-09-22T07:12:47Z</time>
      </trkpt>
      <trkpt lat="44.11983" lon="6.77855">
        <ele>1109</ele>
        <time>2013-09-22T07:13:06Z</time>
      </trkpt>
      <trkpt lat="44.11972" lon="6.77906">
        <ele>1111</ele>
        <time>2013-09-22T07:13:24Z</time>
      </trkpt>
      <trkpt lat="44.11951" lon="6.77951">
        <ele>1112</ele>
        <time>2013-09-22T07:13:42Z</time>
      </trkpt>
      <trkpt lat="44.11917" lon="6.7795">
        <ele>1114</ele>
        <time>2013-09-22T07:13:57Z</time>
      </trkpt>
      <trkpt lat="44.11877" lon="6.77962">
        <ele>1116</ele>
        <time>2013-09-22T07:14:15Z</time>
      </trkpt>
      <trkpt lat="44.11849" lon="6.77979">
        <ele>1118</ele>
        <time>2013-09-22T07:14:30Z</time>
      </trkpt>
      <trkpt lat="44.11837" lon="6.77988">
        <ele>1119</ele>
        <time>2013-09-22T07:14:36Z</time>
      </trkpt>
      <trkpt lat="44.11815" lon="6.78013">
        <ele>1121</ele>
        <time>2013-09-22T07:14:48Z</time>
      </trkpt>
      <trkpt lat="44.11806" lon="6.78028">
        <ele>1122</ele>
        <time>2013-09-22T07:14:54Z</time>
      </trkpt>
      <trkpt lat="44.11786" lon="6.78072">
        <ele>1126</ele>
        <time>2013-09-22T07:15:11Z</time>
      </trkpt>
      <trkpt lat="44.11762" lon="6.78086">
        <ele>1127</ele>
        <time>2013-09-22T07:15:23Z</time>
      </trkpt>
      <trkpt lat="44.11749" lon="6.78086">
        <ele>1128</ele>
        <time>2013-09-22T07:15:29Z</time>
      </trkpt>
      <trkpt lat="44.11728" lon="6.78076">
        <ele>1128</ele>
        <time>2013-09-22T07:15:38Z</time>
      </trkpt>
      <trkpt lat="44.11695" lon="6.78046">
        <ele>1130</ele>
        <time>2013-09-22T07:15:55Z</time>
      </trkpt>
      <trkpt lat="44.11665" lon="6.78019">
        <ele>1132</ele>
        <time>2013-09-22T07:16:10Z</time>
      </trkpt>
      <trkpt lat="44.11634" lon="6.78006">
        <ele>1134</ele>
        <time>2013-09-22T07:16:26Z</time>
      </trkpt>
      <trkpt lat="44.11599" lon="6.7801">
        <ele>1136</ele>
        <time>2013-09-22T07:16:43Z</time>
      </trkpt>
      <trkpt lat="44.11565" lon="6.78015">
        <ele>1139</ele>
        <time>2013-09-22T07:17:01Z</time>
      </trkpt>
      <trkpt lat="44.11533" lon="6.78009">
        <ele>1142</ele>
        <time>2013-09-22T07:17:19Z</time>
      </trkpt>
      <trkpt lat="44.11522" lon="6.77998">
        <ele>1143</ele>
        <time>2013-09-22T07:17:27Z</time>
      </trkpt>
      <trkpt lat="44.11526" lon="6.7799">
        <ele>1144</ele>
        <time>2013-09-22T07:17:32Z</time>
      </trkpt>
      <trkpt lat="44.11533" lon="6.77992">
        <ele>1144</ele>
        <time>2013-09-22T07:17:38Z</time>
      </trkpt>
      <trkpt lat="44.11554" lon="6.77993">
        <ele>1146</ele>
        <time>2013-09-22T07:17:51Z</time>
      </trkpt>
      <trkpt lat="44.11578" lon="6.77986">
        <ele>1148</ele>
        <time>2013-09-22T07:18:05Z</time>
      </trkpt>
      <trkpt lat="44.11605" lon="6.77974">
        <ele>1151</ele>
        <time>2013-09-22T07:18:21Z</time>
      </trkpt>
      <trkpt lat="44.11631" lon="6.77962">
        <ele>1153</ele>
        <time>2013-09-22T07:18:36Z</time>
      </trkpt>
      <trkpt lat="44.11675" lon="6.77963">
        <ele>1156</ele>
        <time>2013-09-22T07:18:57Z</time>
      </trkpt>
      <trkpt lat="44.11705" lon="6.77971">
        <ele>1159</ele>
        <time>2013-09-22T07:19:13Z</time>
      </trkpt>
      <trkpt lat="44.1173" lon="6.77988">
        <ele>1162</ele>
        <time>2013-09-22T07:19:29Z</time>
      </trkpt>
      <trkpt lat="44.11751" lon="6.7797">
        <ele>1165</ele>
        <time>2013-09-22T07:19:44Z</time>
      </trkpt>
      <trkpt lat="44.11766" lon="6.77945">
        <ele>1167</ele>
        <time>2013-09-22T07:20:00Z</time>
      </trkpt>
      <trkpt lat="44.11784" lon="6.77916">
        <ele>1170</ele>
        <time>2013-09-22T07:20:18Z</time>
      </trkpt>
      <trkpt lat="44.11806" lon="6.77888">
        <ele>1174</ele>
        <time>2013-09-22T07:20:36Z</time>
      </trkpt>
      <trkpt lat="44.11832" lon="6.77851">
        <ele>1180</ele>
        <time>2013-09-22T07:20:59Z</time>
      </trkpt>
      <trkpt lat="44.11847" lon="6.77821">
        <ele>1184</ele>
        <time>2013-09-22T07:21:17Z</time>
      </trkpt>
      <trkpt lat="44.1185" lon="6.77809">
        <ele>1185</ele>
        <time>2013-09-22T07:21:23Z</time>
      </trkpt>
      <trkpt lat="44.11851" lon="6.77796">
        <ele>1187</ele>
        <time>2013-09-22T07:21:31Z</time>
      </trkpt>
      <trkpt lat="44.1186" lon="6.77775">
        <ele>1189</ele>
        <time>2013-09-22T07:21:43Z</time>
      </trkpt>
      <trkpt lat="44.11874" lon="6.77746">
        <ele>1193</ele>
        <time>2013-09-22T07:22:00Z</time>
      </trkpt>
      <trkpt lat="44.11867" lon="6.77739">
        <ele>1194</ele>
        <time>2013-09-22T07:22:07Z</time>
      </trkpt>
      <trkpt lat="44.11858" lon="6.77745">
        <ele>1196</ele>
        <time>2013-09-22T07:22:15Z</time>
      </trkpt>
      <trkpt lat="44.11842" lon="6.77763">
        <ele>1199</ele>
        <time>2013-09-22T07:22:31Z</time>
      </trkpt>
      <trkpt lat="44.11823" lon="6.77785">
        <ele>1203</ele>
        <time>2013-09-22T07:22:49Z</time>
      </trkpt>
      <trkpt lat="44.11806" lon="6.77807">
        <ele>1206</ele>
        <time>2013-09-22T07:23:06Z</time>
      </trkpt>
      <trkpt lat="44.11787" lon="6.77833">
        <ele>1208</ele>
        <time>2013-09-22T07:23:25Z</time>
      </trkpt>
      <trkpt lat="44.11769" lon="6.77861">
        <ele>1212</ele>
        <time>2013-09-22T07:23:44Z</time>
      </trkpt>
      <trkpt lat="44.11749" lon="6.77873">
        <ele>1214</ele>
        <time>2013-09-22T07:24:00Z</time>
      </trkpt>
      <trkpt lat="44.11728" lon="6.77878">
        <ele>1217</ele>
        <time>2013-09-22T07:24:16Z</time>
      </trkpt>
      <trkpt lat="44.11704" lon="6.77869">
        <ele>1219</ele>
        <time>2013-09-22T07:24:33Z</time>
      </trkpt>
      <trkpt lat="44.11694" lon="6.77861">
        <ele>1220</ele>
        <time>2013-09-22T07:24:41Z</time>
      </trkpt>
      <trkpt lat="44.11702" lon="6.77848">
        <ele>1222</ele>
        <time>2013-09-22T07:24:50Z</time>
      </trkpt>
      <trkpt lat="44.11712" lon="6.7785">
        <ele>1223</ele>
        <time>2013-09-22T07:24:57Z</time>
      </trkpt>
      <trkpt lat="44.11735" lon="6.77842">
        <ele>1226</ele>
        <time>2013-09-22T07:25:14Z</time>
      </trkpt>
      <trkpt lat="44.11747" lon="6.77825">
        <ele>1229</ele>
        <time>2013-09-22T07:25:25Z</time>
      </trkpt>
      <trkpt lat="44.11755" lon="6.77805">
        <ele>1231</ele>
        <time>2013-09-22T07:25:36Z</time>
      </trkpt>
      <trkpt lat="44.11764" lon="6.77777">
        <ele>1233</ele>
        <time>2013-09-22T07:25:51Z</time>
      </trkpt>
      <trkpt lat="44.11775" lon="6.77748">
        <ele>1237</ele>
        <time>2013-09-22T07:26:08Z</time>
      </trkpt>
      <trkpt lat="44.1179" lon="6.77717">
        <ele>1241</ele>
        <time>2013-09-22T07:26:28Z</time>
      </trkpt>
      <trkpt lat="44.11807" lon="6.77689">
        <ele>1245</ele>
        <time>2013-09-22T07:26:48Z</time>
      </trkpt>
      <trkpt lat="44.11821" lon="6.77671">
        <ele>1248</ele>
        <time>2013-09-22T07:27:02Z</time>
      </trkpt>
      <trkpt lat="44.11826" lon="6.7766">
        <ele>1250</ele>
        <time>2013-09-22T07:27:09Z</time>
      </trkpt>
      <trkpt lat="44.1182" lon="6.77652">
        <ele>1251</ele>
        <time>2013-09-22T07:27:16Z</time>
      </trkpt>
      <trkpt lat="44.11805" lon="6.7767">
        <ele>1254</ele>
        <time>2013-09-22T07:27:29Z</time>
      </trkpt>
      <trkpt lat="44.11783" lon="6.77698">
        <ele>1257</ele>
        <time>2013-09-22T07:27:48Z</time>
      </trkpt>
      <trkpt lat="44.11758" lon="6.77733">
        <ele>1260</ele>
        <time>2013-09-22T07:28:10Z</time>
      </trkpt>
      <trkpt lat="44.11734" lon="6.77768">
        <ele>1262</ele>
        <time>2013-09-22T07:28:31Z</time>
      </trkpt>
      <trkpt lat="44.11716" lon="6.7778">
        <ele>1264</ele>
        <time>2013-09-22T07:28:44Z</time>
      </trkpt>
      <trkpt lat="44.11697" lon="6.77793">
        <ele>1265</ele>
        <time>2013-09-22T07:28:56Z</time>
      </trkpt>
      <trkpt lat="44.11678" lon="6.77818">
        <ele>1267</ele>
        <time>2013-09-22T07:29:12Z</time>
      </trkpt>
      <trkpt lat="44.11657" lon="6.77839">
        <ele>1270</ele>
        <time>2013-09-22T07:29:29Z</time>
      </trkpt>
      <trkpt lat="44.11627" lon="6.77845">
        <ele>1272</ele>
        <time>2013-09-22T07:29:48Z</time>
      </trkpt>
      <trkpt lat="44.11595" lon="6.77849">
        <ele>1276</ele>
        <time>2013-09-22T07:30:09Z</time>
      </trkpt>
      <trkpt lat="44.11567" lon="6.77859">
        <ele>1279</ele>
        <time>2013-09-22T07:30:28Z</time>
      </trkpt>
      <trkpt lat="44.11544" lon="6.77837">
        <ele>1281</ele>
        <time>2013-09-22T07:30:40Z</time>
      </trkpt>
      <trkpt lat="44.11509" lon="6.77834">
        <ele>1282</ele>
        <time>2013-09-22T07:30:50Z</time>
      </trkpt>
      <trkpt lat="44.1147" lon="6.77829">
        <ele>1283</ele>
        <time>2013-09-22T07:31:00Z</time>
      </trkpt>
      <trkpt lat="44.11444" lon="6.77841">
        <ele>1284</ele>
        <time>2013-09-22T07:31:05Z</time>
      </trkpt>
      <trkpt lat="44.11426" lon="6.77824">
        <ele>1284</ele>
        <time>2013-09-22T07:31:10Z</time>
      </trkpt>
      <trkpt lat="44.11404" lon="6.77806">
        <ele>1286</ele>
        <time>2013-09-22T07:31:20Z</time>
      </trkpt>
      <trkpt lat="44.11375" lon="6.77783">
        <ele>1288</ele>
        <time>2013-09-22T07:31:35Z</time>
      </trkpt>
      <trkpt lat="44.11349" lon="6.77786">
        <ele>1290</ele>
        <time>2013-09-22T07:31:49Z</time>
      </trkpt>
      <trkpt lat="44.11322" lon="6.77775">
        <ele>1291</ele>
        <time>2013-09-22T07:32:04Z</time>
      </trkpt>
      <trkpt lat="44.11294" lon="6.77767">
        <ele>1293</ele>
        <time>2013-09-22T07:32:20Z</time>
      </trkpt>
      <trkpt lat="44.11277" lon="6.77773">
        <ele>1294</ele>
        <time>2013-09-22T07:32:29Z</time>
      </trkpt>
      <trkpt lat="44.11243" lon="6.77771">
        <ele>1297</ele>
        <time>2013-09-22T07:32:48Z</time>
      </trkpt>
      <trkpt lat="44.11222" lon="6.77742">
        <ele>1300</ele>
        <time>2013-09-22T07:33:05Z</time>
      </trkpt>
      <trkpt lat="44.11197" lon="6.77707">
        <ele>1302</ele>
        <time>2013-09-22T07:33:25Z</time>
      </trkpt>
      <trkpt lat="44.11179" lon="6.77677">
        <ele>1303</ele>
        <time>2013-09-22T07:33:41Z</time>
      </trkpt>
      <trkpt lat="44.1116" lon="6.7764">
        <ele>1305</ele>
        <time>2013-09-22T07:33:59Z</time>
      </trkpt>
      <trkpt lat="44.11128" lon="6.77615">
        <ele>1309</ele>
        <time>2013-09-22T07:34:19Z</time>
      </trkpt>
      <trkpt lat="44.111" lon="6.77592">
        <ele>1313</ele>
        <time>2013-09-22T07:34:37Z</time>
      </trkpt>
      <trkpt lat="44.11074" lon="6.77573">
        <ele>1315</ele>
        <time>2013-09-22T07:34:53Z</time>
      </trkpt>
      <trkpt lat="44.11051" lon="6.77546">
        <ele>1318</ele>
        <time>2013-09-22T07:35:11Z</time>
      </trkpt>
      <trkpt lat="44.11037" lon="6.77518">
        <ele>1320</ele>
        <time>2013-09-22T07:35:24Z</time>
      </trkpt>
      <trkpt lat="44.11018" lon="6.77527">
        <ele>1322</ele>
        <time>2013-09-22T07:35:36Z</time>
      </trkpt>
      <trkpt lat="44.1101" lon="6.7754">
        <ele>1323</ele>
        <time>2013-09-22T07:35:43Z</time>
      </trkpt>
      <trkpt lat="44.10987" lon="6.77563">
        <ele>1327</ele>
        <time>2013-09-22T07:35:58Z</time>
      </trkpt>
      <trkpt lat="44.10969" lon="6.77541">
        <ele>1330</ele>
        <time>2013-09-22T07:36:11Z</time>
      </trkpt>
      <trkpt lat="44.10951" lon="6.77502">
        <ele>1334</ele>
        <time>2013-09-22T07:36:29Z</time>
      </trkpt>
      <trkpt lat="44.1092" lon="6.77475">
        <ele>1338</ele>
        <time>2013-09-22T07:36:48Z</time>
      </trkpt>
      <trkpt lat="44.10889" lon="6.7746">
        <ele>1341</ele>
        <time>2013-09-22T07:37:06Z</time>
      </trkpt>
      <trkpt lat="44.10859" lon="6.77454">
        <ele>1343</ele>
        <time>2013-09-22T07:37:22Z</time>
      </trkpt>
      <trkpt lat="44.10825" lon="6.77437">
        <ele>1346</ele>
        <time>2013-09-22T07:37:41Z</time>
      </trkpt>
      <trkpt lat="44.10805" lon="6.7742">
        <ele>1348</ele>
        <time>2013-09-22T07:37:56Z</time>
      </trkpt>
      <trkpt lat="44.10776" lon="6.77409">
        <ele>1351</ele>
        <time>2013-09-22T07:38:13Z</time>
      </trkpt>
      <trkpt lat="44.10746" lon="6.77401">
        <ele>1352</ele>
        <time>2013-09-22T07:38:31Z</time>
      </trkpt>
      <trkpt lat="44.10714" lon="6.77384">
        <ele>1354</ele>
        <time>2013-09-22T07:38:48Z</time>
      </trkpt>
      <trkpt lat="44.10706" lon="6.77352">
        <ele>1356</ele>
        <time>2013-09-22T07:38:59Z</time>
      </trkpt>
      <trkpt lat="44.10701" lon="6.77343">
        <ele>1357</ele>
        <time>2013-09-22T07:39:05Z</time>
      </trkpt>
      <trkpt lat="44.10701" lon="6.77343">
        <ele>1359</ele>
        <time>2013-09-22T07:39:19Z</time>
      </trkpt>
      <trkpt lat="44.10707" lon="6.77342">
        <ele>1370</ele>
        <time>2013-09-22T07:40:56Z</time>
      </trkpt>
      <trkpt lat="44.10717" lon="6.77341">
        <ele>1370</ele>
        <time>2013-09-22T07:41:01Z</time>
      </trkpt>
      <trkpt lat="44.10722" lon="6.77345">
        <ele>1372</ele>
        <time>2013-09-22T07:41:33Z</time>
      </trkpt>
      <trkpt lat="44.10725" lon="6.77363">
        <ele>1378</ele>
        <time>2013-09-22T07:49:04Z</time>
      </trkpt>
      <trkpt lat="44.1074" lon="6.77375">
        <ele>1377</ele>
        <time>2013-09-22T07:49:18Z</time>
      </trkpt>
      <trkpt lat="44.10761" lon="6.77373">
        <ele>1378</ele>
        <time>2013-09-22T07:49:34Z</time>
      </trkpt>
      <trkpt lat="44.10782" lon="6.77369">
        <ele>1378</ele>
        <time>2013-09-22T07:49:49Z</time>
      </trkpt>
      <trkpt lat="44.10789" lon="6.77368">
        <ele>1378</ele>
        <time>2013-09-22T07:49:54Z</time>
      </trkpt>
      <trkpt lat="44.10817" lon="6.77366">
        <ele>1378</ele>
        <time>2013-09-22T07:50:10Z</time>
      </trkpt>
      <trkpt lat="44.10844" lon="6.77375">
        <ele>1379</ele>
        <time>2013-09-22T07:50:24Z</time>
      </trkpt>
      <trkpt lat="44.10846" lon="6.77368">
        <ele>1380</ele>
        <time>2013-09-22T07:50:28Z</time>
      </trkpt>
      <trkpt lat="44.10836" lon="6.77359">
        <ele>1380</ele>
        <time>2013-09-22T07:50:35Z</time>
      </trkpt>
      <trkpt lat="44.10818" lon="6.77354">
        <ele>1382</ele>
        <time>2013-09-22T07:50:46Z</time>
      </trkpt>
      <trkpt lat="44.10792" lon="6.77348">
        <ele>1383</ele>
        <time>2013-09-22T07:51:03Z</time>
      </trkpt>
      <trkpt lat="44.10778" lon="6.77318">
        <ele>1384</ele>
        <time>2013-09-22T07:51:17Z</time>
      </trkpt>
      <trkpt lat="44.10771" lon="6.77291">
        <ele>1386</ele>
        <time>2013-09-22T07:51:32Z</time>
      </trkpt>
      <trkpt lat="44.10748" lon="6.77277">
        <ele>1387</ele>
        <time>2013-09-22T07:51:49Z</time>
      </trkpt>
      <trkpt lat="44.10725" lon="6.77268">
        <ele>1388</ele>
        <time>2013-09-22T07:52:03Z</time>
      </trkpt>
      <trkpt lat="44.107" lon="6.77254">
        <ele>1389</ele>
        <time>2013-09-22T07:52:18Z</time>
      </trkpt>
      <trkpt lat="44.10669" lon="6.77215">
        <ele>1391</ele>
        <time>2013-09-22T07:52:37Z</time>
      </trkpt>
      <trkpt lat="44.10638" lon="6.77172">
        <ele>1394</ele>
        <time>2013-09-22T07:52:57Z</time>
      </trkpt>
      <trkpt lat="44.10624" lon="6.77134">
        <ele>1396</ele>
        <time>2013-09-22T07:53:14Z</time>
      </trkpt>
      <trkpt lat="44.10612" lon="6.77096">
        <ele>1398</ele>
        <time>2013-09-22T07:53:30Z</time>
      </trkpt>
      <trkpt lat="44.10602" lon="6.77053">
        <ele>1400</ele>
        <time>2013-09-22T07:53:47Z</time>
      </trkpt>
      <trkpt lat="44.10587" lon="6.7702">
        <ele>1402</ele>
        <time>2013-09-22T07:54:03Z</time>
      </trkpt>
      <trkpt lat="44.10571" lon="6.76996">
        <ele>1404</ele>
        <time>2013-09-22T07:54:17Z</time>
      </trkpt>
      <trkpt lat="44.10538" lon="6.76994">
        <ele>1408</ele>
        <time>2013-09-22T07:54:37Z</time>
      </trkpt>
      <trkpt lat="44.10515" lon="6.76984">
        <ele>1411</ele>
        <time>2013-09-22T07:54:53Z</time>
      </trkpt>
      <trkpt lat="44.10508" lon="6.7698">
        <ele>1412</ele>
        <time>2013-09-22T07:54:59Z</time>
      </trkpt>
      <trkpt lat="44.10499" lon="6.76979">
        <ele>1413</ele>
        <time>2013-09-22T07:55:05Z</time>
      </trkpt>
      <trkpt lat="44.10473" lon="6.76965">
        <ele>1417</ele>
        <time>2013-09-22T07:55:23Z</time>
      </trkpt>
      <trkpt lat="44.10439" lon="6.7696">
        <ele>1421</ele>
        <time>2013-09-22T07:55:43Z</time>
      </trkpt>
      <trkpt lat="44.10431" lon="6.7697">
        <ele>1422</ele>
        <time>2013-09-22T07:55:49Z</time>
      </trkpt>
      <trkpt lat="44.10418" lon="6.76997">
        <ele>1423</ele>
        <time>2013-09-22T07:55:59Z</time>
      </trkpt>
      <trkpt lat="44.10411" lon="6.77008">
        <ele>1423</ele>
        <time>2013-09-22T07:56:03Z</time>
      </trkpt>
      <trkpt lat="44.10394" lon="6.7702">
        <ele>1424</ele>
        <time>2013-09-22T07:56:12Z</time>
      </trkpt>
      <trkpt lat="44.10379" lon="6.76993">
        <ele>1426</ele>
        <time>2013-09-22T07:56:24Z</time>
      </trkpt>
      <trkpt lat="44.10366" lon="6.76965">
        <ele>1427</ele>
        <time>2013-09-22T07:56:38Z</time>
      </trkpt>
      <trkpt lat="44.10365" lon="6.76961">
        <ele>1428</ele>
        <time>2013-09-22T07:57:28Z</time>
      </trkpt>
      <trkpt lat="44.10356" lon="6.76952">
        <ele>1436</ele>
        <time>2013-09-22T07:58:53Z</time>
      </trkpt>
      <trkpt lat="44.10341" lon="6.7691">
        <ele>1436</ele>
        <time>2013-09-22T07:59:09Z</time>
      </trkpt>
      <trkpt lat="44.10327" lon="6.76881">
        <ele>1436</ele>
        <time>2013-09-22T07:59:22Z</time>
      </trkpt>
      <trkpt lat="44.10321" lon="6.7687">
        <ele>1436</ele>
        <time>2013-09-22T07:59:27Z</time>
      </trkpt>
      <trkpt lat="44.10308" lon="6.76857">
        <ele>1437</ele>
        <time>2013-09-22T07:59:35Z</time>
      </trkpt>
      <trkpt lat="44.103" lon="6.76855">
        <ele>1437</ele>
        <time>2013-09-22T07:59:39Z</time>
      </trkpt>
      <trkpt lat="44.10294" lon="6.76855">
        <ele>1437</ele>
        <time>2013-09-22T07:59:42Z</time>
      </trkpt>
      <trkpt lat="44.10275" lon="6.76856">
        <ele>1437</ele>
        <time>2013-09-22T07:59:50Z</time>
      </trkpt>
      <trkpt lat="44.10261" lon="6.7685">
        <ele>1437</ele>
        <time>2013-09-22T07:59:56Z</time>
      </trkpt>
      <trkpt lat="44.10254" lon="6.76839">
        <ele>1437</ele>
        <time>2013-09-22T08:00:02Z</time>
      </trkpt>
      <trkpt lat="44.10245" lon="6.76827">
        <ele>1437</ele>
        <time>2013-09-22T08:00:13Z</time>
      </trkpt>
      <trkpt lat="44.10232" lon="6.76801">
        <ele>1438</ele>
        <time>2013-09-22T08:00:23Z</time>
      </trkpt>
      <trkpt lat="44.10215" lon="6.76764">
        <ele>1438</ele>
        <time>2013-09-22T08:00:36Z</time>
      </trkpt>
      <trkpt lat="44.10203" lon="6.76718">
        <ele>1439</ele>
        <time>2013-09-22T08:00:49Z</time>
      </trkpt>
      <trkpt lat="44.10201" lon="6.76713">
        <ele>1439</ele>
        <time>2013-09-22T08:00:57Z</time>
      </trkpt>
      <trkpt lat="44.102" lon="6.76732">
        <ele>1438</ele>
        <time>2013-09-22T08:01:10Z</time>
      </trkpt>
      <trkpt lat="44.10198" lon="6.7673">
        <ele>1438</ele>
        <time>2013-09-22T08:01:24Z</time>
      </trkpt>
      <trkpt lat="44.10195" lon="6.76725">
        <ele>1439</ele>
        <time>2013-09-22T08:01:47Z</time>
      </trkpt>
      <trkpt lat="44.1019" lon="6.76706">
        <ele>1440</ele>
        <time>2013-09-22T08:01:57Z</time>
      </trkpt>
      <trkpt lat="44.10194" lon="6.76698">
        <ele>1440</ele>
        <time>2013-09-22T08:02:01Z</time>
      </trkpt>
      <trkpt lat="44.10196" lon="6.76692">
        <ele>1440</ele>
        <time>2013-09-22T08:02:13Z</time>
      </trkpt>
      <trkpt lat="44.10188" lon="6.76684">
        <ele>1440</ele>
        <time>2013-09-22T08:02:25Z</time>
      </trkpt>
      <trkpt lat="44.10182" lon="6.76682">
        <ele>1440</ele>
        <time>2013-09-22T08:02:33Z</time>
      </trkpt>
      <trkpt lat="44.10176" lon="6.76685">
        <ele>1440</ele>
        <time>2013-09-22T08:02:44Z</time>
      </trkpt>
      <trkpt lat="44.10176" lon="6.76678">
        <ele>1440</ele>
        <time>2013-09-22T08:03:00Z</time>
      </trkpt>
      <trkpt lat="44.10176" lon="6.76667">
        <ele>1441</ele>
        <time>2013-09-22T08:03:14Z</time>
      </trkpt>
      <trkpt lat="44.10181" lon="6.76655">
        <ele>1442</ele>
        <time>2013-09-22T08:03:28Z</time>
      </trkpt>
      <trkpt lat="44.10186" lon="6.76647">
        <ele>1443</ele>
        <time>2013-09-22T08:03:38Z</time>
      </trkpt>
      <trkpt lat="44.10186" lon="6.76641">
        <ele>1443</ele>
        <time>2013-09-22T08:03:49Z</time>
      </trkpt>
      <trkpt lat="44.10181" lon="6.76641">
        <ele>1445</ele>
        <time>2013-09-22T08:04:06Z</time>
      </trkpt>
      <trkpt lat="44.10178" lon="6.76646">
        <ele>1446</ele>
        <time>2013-09-22T08:04:16Z</time>
      </trkpt>
      <trkpt lat="44.10165" lon="6.76652">
        <ele>1448</ele>
        <time>2013-09-22T08:04:31Z</time>
      </trkpt>
      <trkpt lat="44.10157" lon="6.76655">
        <ele>1450</ele>
        <time>2013-09-22T08:04:40Z</time>
      </trkpt>
      <trkpt lat="44.10148" lon="6.76655">
        <ele>1451</ele>
        <time>2013-09-22T08:04:49Z</time>
      </trkpt>
      <trkpt lat="44.10144" lon="6.76655">
        <ele>1451</ele>
        <time>2013-09-22T08:04:54Z</time>
      </trkpt>
      <trkpt lat="44.10139" lon="6.76653">
        <ele>1452</ele>
        <time>2013-09-22T08:05:05Z</time>
      </trkpt>
      <trkpt lat="44.10132" lon="6.7665">
        <ele>1453</ele>
        <time>2013-09-22T08:05:17Z</time>
      </trkpt>
      <trkpt lat="44.10127" lon="6.76647">
        <ele>1455</ele>
        <time>2013-09-22T08:05:31Z</time>
      </trkpt>
      <trkpt lat="44.10123" lon="6.76644">
        <ele>1456</ele>
        <time>2013-09-22T08:05:42Z</time>
      </trkpt>
      <trkpt lat="44.10118" lon="6.76647">
        <ele>1459</ele>
        <time>2013-09-22T08:05:59Z</time>
      </trkpt>
      <trkpt lat="44.10116" lon="6.76651">
        <ele>1461</ele>
        <time>2013-09-22T08:06:10Z</time>
      </trkpt>
      <trkpt lat="44.10114" lon="6.76654">
        <ele>1462</ele>
        <time>2013-09-22T08:06:21Z</time>
      </trkpt>
      <trkpt lat="44.10106" lon="6.76661">
        <ele>1466</ele>
        <time>2013-09-22T08:06:41Z</time>
      </trkpt>
      <trkpt lat="44.101" lon="6.76671">
        <ele>1469</ele>
        <time>2013-09-22T08:06:55Z</time>
      </trkpt>
      <trkpt lat="44.10095" lon="6.76676">
        <ele>1471</ele>
        <time>2013-09-22T08:07:06Z</time>
      </trkpt>
      <trkpt lat="44.1009" lon="6.76684">
        <ele>1473</ele>
        <time>2013-09-22T08:07:19Z</time>
      </trkpt>
      <trkpt lat="44.10086" lon="6.76691">
        <ele>1474</ele>
        <time>2013-09-22T08:07:30Z</time>
      </trkpt>
      <trkpt lat="44.10081" lon="6.76702">
        <ele>1475</ele>
        <time>2013-09-22T08:07:43Z</time>
      </trkpt>
      <trkpt lat="44.10078" lon="6.76707">
        <ele>1477</ele>
        <time>2013-09-22T08:07:50Z</time>
      </trkpt>
      <trkpt lat="44.10063" lon="6.76723">
        <ele>1478</ele>
        <time>2013-09-22T08:08:06Z</time>
      </trkpt>
      <trkpt lat="44.10053" lon="6.76729">
        <ele>1479</ele>
        <time>2013-09-22T08:08:15Z</time>
      </trkpt>
      <trkpt lat="44.10048" lon="6.76734">
        <ele>1480</ele>
        <time>2013-09-22T08:08:22Z</time>
      </trkpt>
      <trkpt lat="44.10041" lon="6.76738">
        <ele>1481</ele>
        <time>2013-09-22T08:08:34Z</time>
      </trkpt>
      <trkpt lat="44.10032" lon="6.7674">
        <ele>1482</ele>
        <time>2013-09-22T08:08:40Z</time>
      </trkpt>
      <trkpt lat="44.10028" lon="6.76751">
        <ele>1482</ele>
        <time>2013-09-22T08:08:49Z</time>
      </trkpt>
      <trkpt lat="44.10028" lon="6.76757">
        <ele>1483</ele>
        <time>2013-09-22T08:08:55Z</time>
      </trkpt>
      <trkpt lat="44.10025" lon="6.76766">
        <ele>1485</ele>
        <time>2013-09-22T08:09:09Z</time>
      </trkpt>
      <trkpt lat="44.10022" lon="6.76774">
        <ele>1488</ele>
        <time>2013-09-22T08:09:22Z</time>
      </trkpt>
      <trkpt lat="44.10021" lon="6.76781">
        <ele>1490</ele>
        <time>2013-09-22T08:09:32Z</time>
      </trkpt>
      <trkpt lat="44.10021" lon="6.76799">
        <ele>1493</ele>
        <time>2013-09-22T08:09:44Z</time>
      </trkpt>
      <trkpt lat="44.10019" lon="6.76812">
        <ele>1495</ele>
        <time>2013-09-22T08:09:52Z</time>
      </trkpt>
      <trkpt lat="44.10016" lon="6.76816">
        <ele>1496</ele>
        <time>2013-09-22T08:09:57Z</time>
      </trkpt>
      <trkpt lat="44.10004" lon="6.7682">
        <ele>1498</ele>
        <time>2013-09-22T08:10:14Z</time>
      </trkpt>
      <trkpt lat="44.09998" lon="6.76822">
        <ele>1499</ele>
        <time>2013-09-22T08:10:18Z</time>
      </trkpt>
      <trkpt lat="44.0998" lon="6.76829">
        <ele>1499</ele>
        <time>2013-09-22T08:10:28Z</time>
      </trkpt>
      <trkpt lat="44.09966" lon="6.7683">
        <ele>1500</ele>
        <time>2013-09-22T08:10:36Z</time>
      </trkpt>
      <trkpt lat="44.09961" lon="6.76831">
        <ele>1501</ele>
        <time>2013-09-22T08:10:40Z</time>
      </trkpt>
      <trkpt lat="44.09947" lon="6.76833">
        <ele>1502</ele>
        <time>2013-09-22T08:10:48Z</time>
      </trkpt>
      <trkpt lat="44.09939" lon="6.76831">
        <ele>1502</ele>
        <time>2013-09-22T08:10:53Z</time>
      </trkpt>
      <trkpt lat="44.09929" lon="6.76828">
        <ele>1504</ele>
        <time>2013-09-22T08:11:01Z</time>
      </trkpt>
      <trkpt lat="44.09925" lon="6.76825">
        <ele>1505</ele>
        <time>2013-09-22T08:11:05Z</time>
      </trkpt>
      <trkpt lat="44.09919" lon="6.76823">
        <ele>1506</ele>
        <time>2013-09-22T08:11:10Z</time>
      </trkpt>
      <trkpt lat="44.09916" lon="6.76821">
        <ele>1507</ele>
        <time>2013-09-22T08:11:16Z</time>
      </trkpt>
      <trkpt lat="44.09915" lon="6.76825">
        <ele>1508</ele>
        <time>2013-09-22T08:11:19Z</time>
      </trkpt>
      <trkpt lat="44.09913" lon="6.76833">
        <ele>1511</ele>
        <time>2013-09-22T08:11:33Z</time>
      </trkpt>
      <trkpt lat="44.09913" lon="6.76841">
        <ele>1515</ele>
        <time>2013-09-22T08:11:46Z</time>
      </trkpt>
      <trkpt lat="44.09912" lon="6.76848">
        <ele>1518</ele>
        <time>2013-09-22T08:11:58Z</time>
      </trkpt>
      <trkpt lat="44.09909" lon="6.76852">
        <ele>1519</ele>
        <time>2013-09-22T08:12:03Z</time>
      </trkpt>
      <trkpt lat="44.09905" lon="6.76856">
        <ele>1520</ele>
        <time>2013-09-22T08:12:11Z</time>
      </trkpt>
      <trkpt lat="44.09904" lon="6.76861">
        <ele>1521</ele>
        <time>2013-09-22T08:12:19Z</time>
      </trkpt>
      <trkpt lat="44.09901" lon="6.76867">
        <ele>1522</ele>
        <time>2013-09-22T08:12:24Z</time>
      </trkpt>
      <trkpt lat="44.099" lon="6.76871">
        <ele>1523</ele>
        <time>2013-09-22T08:12:27Z</time>
      </trkpt>
      <trkpt lat="44.09897" lon="6.76877">
        <ele>1524</ele>
        <time>2013-09-22T08:12:37Z</time>
      </trkpt>
      <trkpt lat="44.09894" lon="6.76889">
        <ele>1525</ele>
        <time>2013-09-22T08:12:45Z</time>
      </trkpt>
      <trkpt lat="44.09896" lon="6.76901">
        <ele>1526</ele>
        <time>2013-09-22T08:12:51Z</time>
      </trkpt>
      <trkpt lat="44.099" lon="6.76909">
        <ele>1526</ele>
        <time>2013-09-22T08:12:56Z</time>
      </trkpt>
      <trkpt lat="44.099" lon="6.76914">
        <ele>1527</ele>
        <time>2013-09-22T08:12:59Z</time>
      </trkpt>
      <trkpt lat="44.09905" lon="6.76929">
        <ele>1528</ele>
        <time>2013-09-22T08:13:07Z</time>
      </trkpt>
      <trkpt lat="44.09908" lon="6.76937">
        <ele>1529</ele>
        <time>2013-09-22T08:13:11Z</time>
      </trkpt>
      <trkpt lat="44.09908" lon="6.76949">
        <ele>1529</ele>
        <time>2013-09-22T08:13:16Z</time>
      </trkpt>
      <trkpt lat="44.09905" lon="6.76957">
        <ele>1530</ele>
        <time>2013-09-22T08:13:20Z</time>
      </trkpt>
      <trkpt lat="44.09903" lon="6.76965">
        <ele>1530</ele>
        <time>2013-09-22T08:13:24Z</time>
      </trkpt>
      <trkpt lat="44.09901" lon="6.76985">
        <ele>1532</ele>
        <time>2013-09-22T08:13:34Z</time>
      </trkpt>
      <trkpt lat="44.09901" lon="6.76988">
        <ele>1533</ele>
        <time>2013-09-22T08:13:39Z</time>
      </trkpt>
      <trkpt lat="44.09898" lon="6.77011">
        <ele>1544</ele>
        <time>2013-09-22T08:14:41Z</time>
      </trkpt>
      <trkpt lat="44.09821" lon="6.77021">
        <ele>1553</ele>
        <time>2013-09-22T08:20:44Z</time>
      </trkpt>
      <trkpt lat="44.09821" lon="6.77016">
        <ele>1553</ele>
        <time>2013-09-22T08:20:49Z</time>
      </trkpt>
      <trkpt lat="44.098" lon="6.77025">
        <ele>1552</ele>
        <time>2013-09-22T08:20:54Z</time>
      </trkpt>
      <trkpt lat="44.09795" lon="6.7704">
        <ele>1552</ele>
        <time>2013-09-22T08:21:02Z</time>
      </trkpt>
      <trkpt lat="44.09793" lon="6.77048">
        <ele>1551</ele>
        <time>2013-09-22T08:21:06Z</time>
      </trkpt>
      <trkpt lat="44.09792" lon="6.77056">
        <ele>1551</ele>
        <time>2013-09-22T08:21:10Z</time>
      </trkpt>
      <trkpt lat="44.09785" lon="6.77072">
        <ele>1550</ele>
        <time>2013-09-22T08:21:18Z</time>
      </trkpt>
      <trkpt lat="44.09781" lon="6.77076">
        <ele>1549</ele>
        <time>2013-09-22T08:21:22Z</time>
      </trkpt>
      <trkpt lat="44.09778" lon="6.77078">
        <ele>1549</ele>
        <time>2013-09-22T08:21:28Z</time>
      </trkpt>
      <trkpt lat="44.09773" lon="6.77078">
        <ele>1548</ele>
        <time>2013-09-22T08:21:32Z</time>
      </trkpt>
      <trkpt lat="44.09764" lon="6.77082">
        <ele>1547</ele>
        <time>2013-09-22T08:21:43Z</time>
      </trkpt>
      <trkpt lat="44.0976" lon="6.77085">
        <ele>1546</ele>
        <time>2013-09-22T08:21:55Z</time>
      </trkpt>
      <trkpt lat="44.09748" lon="6.77092">
        <ele>1544</ele>
        <time>2013-09-22T08:22:10Z</time>
      </trkpt>
      <trkpt lat="44.09721" lon="6.77099">
        <ele>1543</ele>
        <time>2013-09-22T08:22:17Z</time>
      </trkpt>
      <trkpt lat="44.09692" lon="6.77109">
        <ele>1542</ele>
        <time>2013-09-22T08:22:26Z</time>
      </trkpt>
      <trkpt lat="44.09684" lon="6.77116">
        <ele>1541</ele>
        <time>2013-09-22T08:22:37Z</time>
      </trkpt>
      <trkpt lat="44.09681" lon="6.77119">
        <ele>1541</ele>
        <time>2013-09-22T08:22:43Z</time>
      </trkpt>
      <trkpt lat="44.09676" lon="6.77121">
        <ele>1541</ele>
        <time>2013-09-22T08:22:54Z</time>
      </trkpt>
      <trkpt lat="44.09673" lon="6.77129">
        <ele>1541</ele>
        <time>2013-09-22T08:23:08Z</time>
      </trkpt>
      <trkpt lat="44.09679" lon="6.77136">
        <ele>1541</ele>
        <time>2013-09-22T08:23:20Z</time>
      </trkpt>
      <trkpt lat="44.09686" lon="6.7714">
        <ele>1541</ele>
        <time>2013-09-22T08:23:35Z</time>
      </trkpt>
      <trkpt lat="44.09691" lon="6.77149">
        <ele>1540</ele>
        <time>2013-09-22T08:23:50Z</time>
      </trkpt>
      <trkpt lat="44.09692" lon="6.77149">
        <ele>1540</ele>
        <time>2013-09-22T08:24:01Z</time>
      </trkpt>
      <trkpt lat="44.09697" lon="6.77154">
        <ele>1539</ele>
        <time>2013-09-22T08:24:14Z</time>
      </trkpt>
      <trkpt lat="44.0971" lon="6.77167">
        <ele>1538</ele>
        <time>2013-09-22T08:24:25Z</time>
      </trkpt>
      <trkpt lat="44.09715" lon="6.77171">
        <ele>1538</ele>
        <time>2013-09-22T08:24:28Z</time>
      </trkpt>
      <trkpt lat="44.09718" lon="6.77179">
        <ele>1537</ele>
        <time>2013-09-22T08:24:34Z</time>
      </trkpt>
      <trkpt lat="44.09718" lon="6.77181">
        <ele>1537</ele>
        <time>2013-09-22T08:24:41Z</time>
      </trkpt>
      <trkpt lat="44.09722" lon="6.77185">
        <ele>1537</ele>
        <time>2013-09-22T08:24:46Z</time>
      </trkpt>
      <trkpt lat="44.09726" lon="6.7719">
        <ele>1536</ele>
        <time>2013-09-22T08:24:52Z</time>
      </trkpt>
      <trkpt lat="44.09723" lon="6.77196">
        <ele>1536</ele>
        <time>2013-09-22T08:24:57Z</time>
      </trkpt>
      <trkpt lat="44.09719" lon="6.77206">
        <ele>1536</ele>
        <time>2013-09-22T08:25:00Z</time>
      </trkpt>
      <trkpt lat="44.09709" lon="6.77219">
        <ele>1535</ele>
        <time>2013-09-22T08:25:05Z</time>
      </trkpt>
      <trkpt lat="44.09705" lon="6.77235">
        <ele>1535</ele>
        <time>2013-09-22T08:25:13Z</time>
      </trkpt>
      <trkpt lat="44.09704" lon="6.77243">
        <ele>1534</ele>
        <time>2013-09-22T08:25:19Z</time>
      </trkpt>
      <trkpt lat="44.09703" lon="6.77252">
        <ele>1534</ele>
        <time>2013-09-22T08:25:26Z</time>
      </trkpt>
      <trkpt lat="44.09707" lon="6.77265">
        <ele>1534</ele>
        <time>2013-09-22T08:25:38Z</time>
      </trkpt>
      <trkpt lat="44.09711" lon="6.77278">
        <ele>1534</ele>
        <time>2013-09-22T08:25:43Z</time>
      </trkpt>
      <trkpt lat="44.09718" lon="6.77301">
        <ele>1533</ele>
        <time>2013-09-22T08:25:54Z</time>
      </trkpt>
      <trkpt lat="44.09725" lon="6.7734">
        <ele>1533</ele>
        <time>2013-09-22T08:26:09Z</time>
      </trkpt>
      <trkpt lat="44.0973" lon="6.7735">
        <ele>1533</ele>
        <time>2013-09-22T08:26:16Z</time>
      </trkpt>
      <trkpt lat="44.09744" lon="6.77364">
        <ele>1534</ele>
        <time>2013-09-22T08:26:26Z</time>
      </trkpt>
      <trkpt lat="44.09752" lon="6.77373">
        <ele>1534</ele>
        <time>2013-09-22T08:26:32Z</time>
      </trkpt>
      <trkpt lat="44.09757" lon="6.77386">
        <ele>1534</ele>
        <time>2013-09-22T08:26:39Z</time>
      </trkpt>
      <trkpt lat="44.09758" lon="6.77397">
        <ele>1534</ele>
        <time>2013-09-22T08:26:44Z</time>
      </trkpt>
      <trkpt lat="44.09761" lon="6.77411">
        <ele>1534</ele>
        <time>2013-09-22T08:26:49Z</time>
      </trkpt>
      <trkpt lat="44.09759" lon="6.77425">
        <ele>1534</ele>
        <time>2013-09-22T08:26:53Z</time>
      </trkpt>
      <trkpt lat="44.09754" lon="6.7745">
        <ele>1535</ele>
        <time>2013-09-22T08:27:02Z</time>
      </trkpt>
      <trkpt lat="44.09754" lon="6.77466">
        <ele>1535</ele>
        <time>2013-09-22T08:27:07Z</time>
      </trkpt>
      <trkpt lat="44.09766" lon="6.77492">
        <ele>1537</ele>
        <time>2013-09-22T08:27:17Z</time>
      </trkpt>
      <trkpt lat="44.0977" lon="6.7751">
        <ele>1538</ele>
        <time>2013-09-22T08:27:24Z</time>
      </trkpt>
      <trkpt lat="44.0977" lon="6.77519">
        <ele>1538</ele>
        <time>2013-09-22T08:27:28Z</time>
      </trkpt>
      <trkpt lat="44.09771" lon="6.77534">
        <ele>1539</ele>
        <time>2013-09-22T08:27:35Z</time>
      </trkpt>
      <trkpt lat="44.09771" lon="6.77543">
        <ele>1540</ele>
        <time>2013-09-22T08:27:39Z</time>
      </trkpt>
      <trkpt lat="44.0977" lon="6.77554">
        <ele>1540</ele>
        <time>2013-09-22T08:27:44Z</time>
      </trkpt>
      <trkpt lat="44.09771" lon="6.7756">
        <ele>1541</ele>
        <time>2013-09-22T08:27:48Z</time>
      </trkpt>
      <trkpt lat="44.09769" lon="6.77576">
        <ele>1541</ele>
        <time>2013-09-22T08:27:55Z</time>
      </trkpt>
      <trkpt lat="44.09765" lon="6.7759">
        <ele>1542</ele>
        <time>2013-09-22T08:28:01Z</time>
      </trkpt>
      <trkpt lat="44.09763" lon="6.776">
        <ele>1542</ele>
        <time>2013-09-22T08:28:05Z</time>
      </trkpt>
      <trkpt lat="44.09764" lon="6.77615">
        <ele>1543</ele>
        <time>2013-09-22T08:28:11Z</time>
      </trkpt>
      <trkpt lat="44.09771" lon="6.77629">
        <ele>1544</ele>
        <time>2013-09-22T08:28:17Z</time>
      </trkpt>
      <trkpt lat="44.09782" lon="6.7765">
        <ele>1545</ele>
        <time>2013-09-22T08:28:29Z</time>
      </trkpt>
      <trkpt lat="44.09785" lon="6.77661">
        <ele>1545</ele>
        <time>2013-09-22T08:28:36Z</time>
      </trkpt>
      <trkpt lat="44.09792" lon="6.77669">
        <ele>1545</ele>
        <time>2013-09-22T08:28:42Z</time>
      </trkpt>
      <trkpt lat="44.09798" lon="6.7768">
        <ele>1546</ele>
        <time>2013-09-22T08:28:49Z</time>
      </trkpt>
      <trkpt lat="44.09805" lon="6.77698">
        <ele>1546</ele>
        <time>2013-09-22T08:28:57Z</time>
      </trkpt>
      <trkpt lat="44.09807" lon="6.77707">
        <ele>1546</ele>
        <time>2013-09-22T08:29:01Z</time>
      </trkpt>
      <trkpt lat="44.0981" lon="6.77721">
        <ele>1547</ele>
        <time>2013-09-22T08:29:07Z</time>
      </trkpt>
      <trkpt lat="44.09816" lon="6.77732">
        <ele>1548</ele>
        <time>2013-09-22T08:29:13Z</time>
      </trkpt>
      <trkpt lat="44.09824" lon="6.77743">
        <ele>1550</ele>
        <time>2013-09-22T08:29:20Z</time>
      </trkpt>
      <trkpt lat="44.09832" lon="6.77754">
        <ele>1551</ele>
        <time>2013-09-22T08:29:27Z</time>
      </trkpt>
      <trkpt lat="44.09835" lon="6.77765">
        <ele>1553</ele>
        <time>2013-09-22T08:29:33Z</time>
      </trkpt>
      <trkpt lat="44.09836" lon="6.77769">
        <ele>1553</ele>
        <time>2013-09-22T08:29:35Z</time>
      </trkpt>
      <trkpt lat="44.0984" lon="6.7778">
        <ele>1554</ele>
        <time>2013-09-22T08:29:41Z</time>
      </trkpt>
      <trkpt lat="44.09845" lon="6.77788">
        <ele>1555</ele>
        <time>2013-09-22T08:29:46Z</time>
      </trkpt>
      <trkpt lat="44.09853" lon="6.77814">
        <ele>1558</ele>
        <time>2013-09-22T08:29:59Z</time>
      </trkpt>
      <trkpt lat="44.09856" lon="6.77826">
        <ele>1559</ele>
        <time>2013-09-22T08:30:04Z</time>
      </trkpt>
      <trkpt lat="44.09865" lon="6.77843">
        <ele>1560</ele>
        <time>2013-09-22T08:30:11Z</time>
      </trkpt>
      <trkpt lat="44.09872" lon="6.77855">
        <ele>1561</ele>
        <time>2013-09-22T08:30:16Z</time>
      </trkpt>
      <trkpt lat="44.09881" lon="6.77869">
        <ele>1562</ele>
        <time>2013-09-22T08:30:23Z</time>
      </trkpt>
      <trkpt lat="44.09895" lon="6.77887">
        <ele>1565</ele>
        <time>2013-09-22T08:30:36Z</time>
      </trkpt>
      <trkpt lat="44.09905" lon="6.77905">
        <ele>1567</ele>
        <time>2013-09-22T08:30:48Z</time>
      </trkpt>
      <trkpt lat="44.09908" lon="6.77911">
        <ele>1568</ele>
        <time>2013-09-22T08:30:52Z</time>
      </trkpt>
      <trkpt lat="44.09912" lon="6.77931">
        <ele>1569</ele>
        <time>2013-09-22T08:31:02Z</time>
      </trkpt>
      <trkpt lat="44.09916" lon="6.77963">
        <ele>1570</ele>
        <time>2013-09-22T08:31:13Z</time>
      </trkpt>
      <trkpt lat="44.09915" lon="6.77981">
        <ele>1571</ele>
        <time>2013-09-22T08:31:20Z</time>
      </trkpt>
      <trkpt lat="44.09915" lon="6.77994">
        <ele>1571</ele>
        <time>2013-09-22T08:31:24Z</time>
      </trkpt>
      <trkpt lat="44.09917" lon="6.78026">
        <ele>1572</ele>
        <time>2013-09-22T08:31:33Z</time>
      </trkpt>
      <trkpt lat="44.09917" lon="6.78048">
        <ele>1573</ele>
        <time>2013-09-22T08:31:42Z</time>
      </trkpt>
      <trkpt lat="44.09921" lon="6.78058">
        <ele>1574</ele>
        <time>2013-09-22T08:31:46Z</time>
      </trkpt>
      <trkpt lat="44.09922" lon="6.78065">
        <ele>1575</ele>
        <time>2013-09-22T08:31:49Z</time>
      </trkpt>
      <trkpt lat="44.09925" lon="6.78077">
        <ele>1575</ele>
        <time>2013-09-22T08:31:53Z</time>
      </trkpt>
      <trkpt lat="44.09929" lon="6.781">
        <ele>1576</ele>
        <time>2013-09-22T08:32:01Z</time>
      </trkpt>
      <trkpt lat="44.09931" lon="6.78122">
        <ele>1577</ele>
        <time>2013-09-22T08:32:07Z</time>
      </trkpt>
      <trkpt lat="44.09931" lon="6.78132">
        <ele>1577</ele>
        <time>2013-09-22T08:32:10Z</time>
      </trkpt>
      <trkpt lat="44.09937" lon="6.78148">
        <ele>1577</ele>
        <time>2013-09-22T08:32:16Z</time>
      </trkpt>
      <trkpt lat="44.09946" lon="6.78179">
        <ele>1579</ele>
        <time>2013-09-22T08:32:30Z</time>
      </trkpt>
      <trkpt lat="44.09953" lon="6.78202">
        <ele>1580</ele>
        <time>2013-09-22T08:32:40Z</time>
      </trkpt>
      <trkpt lat="44.09954" lon="6.78216">
        <ele>1581</ele>
        <time>2013-09-22T08:32:47Z</time>
      </trkpt>
      <trkpt lat="44.09948" lon="6.78246">
        <ele>1582</ele>
        <time>2013-09-22T08:33:00Z</time>
      </trkpt>
      <trkpt lat="44.09941" lon="6.78269">
        <ele>1582</ele>
        <time>2013-09-22T08:33:09Z</time>
      </trkpt>
      <trkpt lat="44.09922" lon="6.78288">
        <ele>1584</ele>
        <time>2013-09-22T08:33:23Z</time>
      </trkpt>
      <trkpt lat="44.09903" lon="6.78311">
        <ele>1585</ele>
        <time>2013-09-22T08:33:36Z</time>
      </trkpt>
      <trkpt lat="44.09896" lon="6.78325">
        <ele>1585</ele>
        <time>2013-09-22T08:33:41Z</time>
      </trkpt>
      <trkpt lat="44.09888" lon="6.78341">
        <ele>1585</ele>
        <time>2013-09-22T08:33:46Z</time>
      </trkpt>
      <trkpt lat="44.09873" lon="6.78375">
        <ele>1586</ele>
        <time>2013-09-22T08:33:56Z</time>
      </trkpt>
      <trkpt lat="44.09851" lon="6.78413">
        <ele>1586</ele>
        <time>2013-09-22T08:34:03Z</time>
      </trkpt>
      <trkpt lat="44.09845" lon="6.78432">
        <ele>1586</ele>
        <time>2013-09-22T08:34:06Z</time>
      </trkpt>
      <trkpt lat="44.09838" lon="6.78445">
        <ele>1586</ele>
        <time>2013-09-22T08:34:09Z</time>
      </trkpt>
      <trkpt lat="44.0982" lon="6.78462">
        <ele>1586</ele>
        <time>2013-09-22T08:34:15Z</time>
      </trkpt>
      <trkpt lat="44.09813" lon="6.78473">
        <ele>1586</ele>
        <time>2013-09-22T08:34:23Z</time>
      </trkpt>
      <trkpt lat="44.09693" lon="6.78967">
        <ele>1572</ele>
        <time>2013-09-22T08:47:45Z</time>
      </trkpt>
      <trkpt lat="44.09684" lon="6.7899">
        <ele>1572</ele>
        <time>2013-09-22T08:47:54Z</time>
      </trkpt>
      <trkpt lat="44.09661" lon="6.79001">
        <ele>1572</ele>
        <time>2013-09-22T08:48:02Z</time>
      </trkpt>
      <trkpt lat="44.0963" lon="6.79006">
        <ele>1571</ele>
        <time>2013-09-22T08:48:11Z</time>
      </trkpt>
      <trkpt lat="44.09613" lon="6.79024">
        <ele>1571</ele>
        <time>2013-09-22T08:48:16Z</time>
      </trkpt>
      <trkpt lat="44.096" lon="6.79068">
        <ele>1571</ele>
        <time>2013-09-22T08:48:22Z</time>
      </trkpt>
      <trkpt lat="44.09597" lon="6.79109">
        <ele>1570</ele>
        <time>2013-09-22T08:48:27Z</time>
      </trkpt>
      <trkpt lat="44.096" lon="6.79134">
        <ele>1570</ele>
        <time>2013-09-22T08:48:30Z</time>
      </trkpt>
      <trkpt lat="44.09601" lon="6.79184">
        <ele>1569</ele>
        <time>2013-09-22T08:48:35Z</time>
      </trkpt>
      <trkpt lat="44.09604" lon="6.79216">
        <ele>1569</ele>
        <time>2013-09-22T08:48:38Z</time>
      </trkpt>
      <trkpt lat="44.09605" lon="6.79254">
        <ele>1568</ele>
        <time>2013-09-22T08:48:42Z</time>
      </trkpt>
      <trkpt lat="44.09594" lon="6.79291">
        <ele>1568</ele>
        <time>2013-09-22T08:48:46Z</time>
      </trkpt>
      <trkpt lat="44.09583" lon="6.79321">
        <ele>1567</ele>
        <time>2013-09-22T08:48:49Z</time>
      </trkpt>
      <trkpt lat="44.0956" lon="6.79366">
        <ele>1566</ele>
        <time>2013-09-22T08:48:55Z</time>
      </trkpt>
      <trkpt lat="44.09548" lon="6.79392">
        <ele>1565</ele>
        <time>2013-09-22T08:48:59Z</time>
      </trkpt>
      <trkpt lat="44.09536" lon="6.79412">
        <ele>1565</ele>
        <time>2013-09-22T08:49:03Z</time>
      </trkpt>
      <trkpt lat="44.09512" lon="6.79446">
        <ele>1563</ele>
        <time>2013-09-22T08:49:09Z</time>
      </trkpt>
      <trkpt lat="44.095" lon="6.79468">
        <ele>1562</ele>
        <time>2013-09-22T08:49:13Z</time>
      </trkpt>
      <trkpt lat="44.09485" lon="6.79529">
        <ele>1560</ele>
        <time>2013-09-22T08:49:21Z</time>
      </trkpt>
      <trkpt lat="44.0947" lon="6.79561">
        <ele>1559</ele>
        <time>2013-09-22T08:49:26Z</time>
      </trkpt>
      <trkpt lat="44.0946" lon="6.79596">
        <ele>1557</ele>
        <time>2013-09-22T08:49:31Z</time>
      </trkpt>
      <trkpt lat="44.09438" lon="6.79633">
        <ele>1555</ele>
        <time>2013-09-22T08:49:36Z</time>
      </trkpt>
      <trkpt lat="44.09417" lon="6.79654">
        <ele>1553</ele>
        <time>2013-09-22T08:49:40Z</time>
      </trkpt>
      <trkpt lat="44.09395" lon="6.79673">
        <ele>1551</ele>
        <time>2013-09-22T08:49:44Z</time>
      </trkpt>
      <trkpt lat="44.09385" lon="6.79688">
        <ele>1550</ele>
        <time>2013-09-22T08:49:48Z</time>
      </trkpt>
      <trkpt lat="44.09388" lon="6.7971">
        <ele>1548</ele>
        <time>2013-09-22T08:49:51Z</time>
      </trkpt>
      <trkpt lat="44.09383" lon="6.79728">
        <ele>1546</ele>
        <time>2013-09-22T08:49:55Z</time>
      </trkpt>
      <trkpt lat="44.09369" lon="6.79744">
        <ele>1544</ele>
        <time>2013-09-22T08:49:59Z</time>
      </trkpt>
      <trkpt lat="44.09354" lon="6.79753">
        <ele>1543</ele>
        <time>2013-09-22T08:50:02Z</time>
      </trkpt>
      <trkpt lat="44.09334" lon="6.79763">
        <ele>1541</ele>
        <time>2013-09-22T08:50:06Z</time>
      </trkpt>
      <trkpt lat="44.09327" lon="6.79767">
        <ele>1539</ele>
        <time>2013-09-22T08:50:10Z</time>
      </trkpt>
      <trkpt lat="44.09296" lon="6.79763">
        <ele>1512</ele>
        <time>2013-09-22T08:51:11Z</time>
      </trkpt>
      <trkpt lat="44.09256" lon="6.798">
        <ele>1508</ele>
        <time>2013-09-22T08:51:21Z</time>
      </trkpt>
      <trkpt lat="44.09235" lon="6.79833">
        <ele>1507</ele>
        <time>2013-09-22T08:51:25Z</time>
      </trkpt>
      <trkpt lat="44.09214" lon="6.79864">
        <ele>1505</ele>
        <time>2013-09-22T08:51:29Z</time>
      </trkpt>
      <trkpt lat="44.09194" lon="6.79895">
        <ele>1504</ele>
        <time>2013-09-22T08:51:33Z</time>
      </trkpt>
      <trkpt lat="44.09171" lon="6.79926">
        <ele>1502</ele>
        <time>2013-09-22T08:51:37Z</time>
      </trkpt>
      <trkpt lat="44.09113" lon="6.79961">
        <ele>1497</ele>
        <time>2013-09-22T08:51:47Z</time>
      </trkpt>
      <trkpt lat="44.09101" lon="6.7996">
        <ele>1495</ele>
        <time>2013-09-22T08:51:52Z</time>
      </trkpt>
      <trkpt lat="44.09091" lon="6.79963">
        <ele>1493</ele>
        <time>2013-09-22T08:51:56Z</time>
      </trkpt>
      <trkpt lat="44.09056" lon="6.79966">
        <ele>1487</ele>
        <time>2013-09-22T08:52:09Z</time>
      </trkpt>
      <trkpt lat="44.09029" lon="6.79973">
        <ele>1482</ele>
        <time>2013-09-22T08:52:22Z</time>
      </trkpt>
      <trkpt lat="44.09013" lon="6.79964">
        <ele>1478</ele>
        <time>2013-09-22T08:52:34Z</time>
      </trkpt>
      <trkpt lat="44.08989" lon="6.7994">
        <ele>1467</ele>
        <time>2013-09-22T08:53:07Z</time>
      </trkpt>
      <trkpt lat="44.08945" lon="6.79907">
        <ele>1464</ele>
        <time>2013-09-22T08:53:16Z</time>
      </trkpt>
      <trkpt lat="44.08929" lon="6.79911">
        <ele>1463</ele>
        <time>2013-09-22T08:53:19Z</time>
      </trkpt>
      <trkpt lat="44.08903" lon="6.79916">
        <ele>1460</ele>
        <time>2013-09-22T08:53:25Z</time>
      </trkpt>
      <trkpt lat="44.08891" lon="6.79918">
        <ele>1458</ele>
        <time>2013-09-22T08:53:30Z</time>
      </trkpt>
      <trkpt lat="44.08869" lon="6.79948">
        <ele>1454</ele>
        <time>2013-09-22T08:53:40Z</time>
      </trkpt>
      <trkpt lat="44.08863" lon="6.79975">
        <ele>1451</ele>
        <time>2013-09-22T08:53:49Z</time>
      </trkpt>
      <trkpt lat="44.08862" lon="6.7998">
        <ele>1447</ele>
        <time>2013-09-22T08:54:01Z</time>
      </trkpt>
      <trkpt lat="44.0885" lon="6.80004">
        <ele>1440</ele>
        <time>2013-09-22T08:54:25Z</time>
      </trkpt>
      <trkpt lat="44.08848" lon="6.80008">
        <ele>1435</ele>
        <time>2013-09-22T08:54:39Z</time>
      </trkpt>
      <trkpt lat="44.08845" lon="6.80016">
        <ele>1431</ele>
        <time>2013-09-22T08:54:51Z</time>
      </trkpt>
      <trkpt lat="44.08841" lon="6.80024">
        <ele>1428</ele>
        <time>2013-09-22T08:55:00Z</time>
      </trkpt>
      <trkpt lat="44.0884" lon="6.80031">
        <ele>1426</ele>
        <time>2013-09-22T08:55:07Z</time>
      </trkpt>
      <trkpt lat="44.08847" lon="6.80049">
        <ele>1417</ele>
        <time>2013-09-22T08:55:39Z</time>
      </trkpt>
      <trkpt lat="44.08878" lon="6.80088">
        <ele>1414</ele>
        <time>2013-09-22T08:55:49Z</time>
      </trkpt>
      <trkpt lat="44.08893" lon="6.80119">
        <ele>1413</ele>
        <time>2013-09-22T08:55:55Z</time>
      </trkpt>
      <trkpt lat="44.08905" lon="6.80144">
        <ele>1410</ele>
        <time>2013-09-22T08:56:04Z</time>
      </trkpt>
      <trkpt lat="44.08899" lon="6.80155">
        <ele>1409</ele>
        <time>2013-09-22T08:56:10Z</time>
      </trkpt>
      <trkpt lat="44.08896" lon="6.80165">
        <ele>1407</ele>
        <time>2013-09-22T08:56:16Z</time>
      </trkpt>
      <trkpt lat="44.08895" lon="6.80176">
        <ele>1405</ele>
        <time>2013-09-22T08:56:23Z</time>
      </trkpt>
      <trkpt lat="44.08898" lon="6.80196">
        <ele>1402</ele>
        <time>2013-09-22T08:56:31Z</time>
      </trkpt>
      <trkpt lat="44.08904" lon="6.80211">
        <ele>1401</ele>
        <time>2013-09-22T08:56:36Z</time>
      </trkpt>
      <trkpt lat="44.08907" lon="6.80252">
        <ele>1398</ele>
        <time>2013-09-22T08:56:43Z</time>
      </trkpt>
      <trkpt lat="44.08918" lon="6.80279">
        <ele>1396</ele>
        <time>2013-09-22T08:56:48Z</time>
      </trkpt>
      <trkpt lat="44.08924" lon="6.80292">
        <ele>1395</ele>
        <time>2013-09-22T08:56:51Z</time>
      </trkpt>
      <trkpt lat="44.08938" lon="6.80328">
        <ele>1393</ele>
        <time>2013-09-22T08:56:57Z</time>
      </trkpt>
      <trkpt lat="44.08959" lon="6.80352">
        <ele>1390</ele>
        <time>2013-09-22T08:57:03Z</time>
      </trkpt>
      <trkpt lat="44.0897" lon="6.8036">
        <ele>1389</ele>
        <time>2013-09-22T08:57:06Z</time>
      </trkpt>
      <trkpt lat="44.08976" lon="6.80377">
        <ele>1388</ele>
        <time>2013-09-22T08:57:09Z</time>
      </trkpt>
      <trkpt lat="44.08974" lon="6.80414">
        <ele>1386</ele>
        <time>2013-09-22T08:57:14Z</time>
      </trkpt>
      <trkpt lat="44.08964" lon="6.80438">
        <ele>1385</ele>
        <time>2013-09-22T08:57:18Z</time>
      </trkpt>
      <trkpt lat="44.08955" lon="6.80448">
        <ele>1383</ele>
        <time>2013-09-22T08:57:23Z</time>
      </trkpt>
      <trkpt lat="44.08951" lon="6.80469">
        <ele>1380</ele>
        <time>2013-09-22T08:57:30Z</time>
      </trkpt>
      <trkpt lat="44.08952" lon="6.80478">
        <ele>1378</ele>
        <time>2013-09-22T08:57:34Z</time>
      </trkpt>
      <trkpt lat="44.08942" lon="6.80487">
        <ele>1375</ele>
        <time>2013-09-22T08:57:41Z</time>
      </trkpt>
      <trkpt lat="44.08932" lon="6.80469">
        <ele>1372</ele>
        <time>2013-09-22T08:57:49Z</time>
      </trkpt>
      <trkpt lat="44.08932" lon="6.80466">
        <ele>1370</ele>
        <time>2013-09-22T08:57:53Z</time>
      </trkpt>
      <trkpt lat="44.08928" lon="6.80451">
        <ele>1368</ele>
        <time>2013-09-22T08:58:00Z</time>
      </trkpt>
      <trkpt lat="44.08919" lon="6.80423">
        <ele>1364</ele>
        <time>2013-09-22T08:58:10Z</time>
      </trkpt>
      <trkpt lat="44.08892" lon="6.80381">
        <ele>1360</ele>
        <time>2013-09-22T08:58:23Z</time>
      </trkpt>
      <trkpt lat="44.08869" lon="6.80374">
        <ele>1358</ele>
        <time>2013-09-22T08:58:30Z</time>
      </trkpt>
      <trkpt lat="44.08827" lon="6.80343">
        <ele>1355</ele>
        <time>2013-09-22T08:58:41Z</time>
      </trkpt>
      <trkpt lat="44.08772" lon="6.80322">
        <ele>1352</ele>
        <time>2013-09-22T08:58:51Z</time>
      </trkpt>
      <trkpt lat="44.08759" lon="6.80315">
        <ele>1351</ele>
        <time>2013-09-22T08:58:57Z</time>
      </trkpt>
      <trkpt lat="44.08753" lon="6.80313">
        <ele>1349</ele>
        <time>2013-09-22T08:59:07Z</time>
      </trkpt>
      <trkpt lat="44.08748" lon="6.80327">
        <ele>1345</ele>
        <time>2013-09-22T08:59:24Z</time>
      </trkpt>
      <trkpt lat="44.08729" lon="6.8033">
        <ele>1344</ele>
        <time>2013-09-22T08:59:28Z</time>
      </trkpt>
      <trkpt lat="44.08714" lon="6.80308">
        <ele>1342</ele>
        <time>2013-09-22T08:59:35Z</time>
      </trkpt>
      <trkpt lat="44.08695" lon="6.80284">
        <ele>1341</ele>
        <time>2013-09-22T08:59:41Z</time>
      </trkpt>
      <trkpt lat="44.0869" lon="6.80265">
        <ele>1340</ele>
        <time>2013-09-22T08:59:45Z</time>
      </trkpt>
      <trkpt lat="44.08684" lon="6.80255">
        <ele>1339</ele>
        <time>2013-09-22T08:59:48Z</time>
      </trkpt>
      <trkpt lat="44.08666" lon="6.80259">
        <ele>1338</ele>
        <time>2013-09-22T08:59:55Z</time>
      </trkpt>
      <trkpt lat="44.08658" lon="6.80266">
        <ele>1336</ele>
        <time>2013-09-22T09:00:02Z</time>
      </trkpt>
      <trkpt lat="44.08649" lon="6.80272">
        <ele>1335</ele>
        <time>2013-09-22T09:00:11Z</time>
      </trkpt>
      <trkpt lat="44.08643" lon="6.80281">
        <ele>1334</ele>
        <time>2013-09-22T09:00:17Z</time>
      </trkpt>
      <trkpt lat="44.08638" lon="6.803">
        <ele>1332</ele>
        <time>2013-09-22T09:00:28Z</time>
      </trkpt>
      <trkpt lat="44.08639" lon="6.80306">
        <ele>1331</ele>
        <time>2013-09-22T09:00:33Z</time>
      </trkpt>
      <trkpt lat="44.08639" lon="6.80313">
        <ele>1331</ele>
        <time>2013-09-22T09:00:39Z</time>
      </trkpt>
      <trkpt lat="44.08636" lon="6.80311">
        <ele>1330</ele>
        <time>2013-09-22T09:00:44Z</time>
      </trkpt>
      <trkpt lat="44.08633" lon="6.80301">
        <ele>1328</ele>
        <time>2013-09-22T09:00:56Z</time>
      </trkpt>
      <trkpt lat="44.08632" lon="6.80288">
        <ele>1328</ele>
        <time>2013-09-22T09:01:02Z</time>
      </trkpt>
      <trkpt lat="44.08632" lon="6.80285">
        <ele>1327</ele>
        <time>2013-09-22T09:01:04Z</time>
      </trkpt>
      <trkpt lat="44.08628" lon="6.80269">
        <ele>1326</ele>
        <time>2013-09-22T09:01:14Z</time>
      </trkpt>
      <trkpt lat="44.08627" lon="6.80262">
        <ele>1326</ele>
        <time>2013-09-22T09:01:19Z</time>
      </trkpt>
      <trkpt lat="44.08624" lon="6.80269">
        <ele>1325</ele>
        <time>2013-09-22T09:01:30Z</time>
      </trkpt>
      <trkpt lat="44.08616" lon="6.80292">
        <ele>1324</ele>
        <time>2013-09-22T09:01:45Z</time>
      </trkpt>
      <trkpt lat="44.08614" lon="6.80295">
        <ele>1324</ele>
        <time>2013-09-22T09:01:53Z</time>
      </trkpt>
      <trkpt lat="44.08613" lon="6.80287">
        <ele>1323</ele>
        <time>2013-09-22T09:02:00Z</time>
      </trkpt>
      <trkpt lat="44.08613" lon="6.80282">
        <ele>1323</ele>
        <time>2013-09-22T09:02:11Z</time>
      </trkpt>
      <trkpt lat="44.08614" lon="6.80272">
        <ele>1323</ele>
        <time>2013-09-22T09:02:17Z</time>
      </trkpt>
      <trkpt lat="44.08612" lon="6.80267">
        <ele>1323</ele>
        <time>2013-09-22T09:02:20Z</time>
      </trkpt>
      <trkpt lat="44.08608" lon="6.80252">
        <ele>1323</ele>
        <time>2013-09-22T09:02:29Z</time>
      </trkpt>
      <trkpt lat="44.08608" lon="6.80243">
        <ele>1323</ele>
        <time>2013-09-22T09:02:34Z</time>
      </trkpt>
      <trkpt lat="44.08606" lon="6.80246">
        <ele>1324</ele>
        <time>2013-09-22T09:02:42Z</time>
      </trkpt>
      <trkpt lat="44.08602" lon="6.80257">
        <ele>1324</ele>
        <time>2013-09-22T09:02:50Z</time>
      </trkpt>
      <trkpt lat="44.08601" lon="6.8026">
        <ele>1325</ele>
        <time>2013-09-22T09:02:59Z</time>
      </trkpt>
      <trkpt lat="44.08597" lon="6.80268">
        <ele>1326</ele>
        <time>2013-09-22T09:03:05Z</time>
      </trkpt>
      <trkpt lat="44.0859" lon="6.80277">
        <ele>1329</ele>
        <time>2013-09-22T09:03:21Z</time>
      </trkpt>
      <trkpt lat="44.08587" lon="6.80288">
        <ele>1331</ele>
        <time>2013-09-22T09:03:34Z</time>
      </trkpt>
      <trkpt lat="44.08583" lon="6.80295">
        <ele>1333</ele>
        <time>2013-09-22T09:03:46Z</time>
      </trkpt>
      <trkpt lat="44.08582" lon="6.80299">
        <ele>1334</ele>
        <time>2013-09-22T09:03:51Z</time>
      </trkpt>
      <trkpt lat="44.08577" lon="6.80308">
        <ele>1336</ele>
        <time>2013-09-22T09:04:00Z</time>
      </trkpt>
      <trkpt lat="44.08573" lon="6.80312">
        <ele>1337</ele>
        <time>2013-09-22T09:04:05Z</time>
      </trkpt>
      <trkpt lat="44.08564" lon="6.80312">
        <ele>1339</ele>
        <time>2013-09-22T09:04:15Z</time>
      </trkpt>
      <trkpt lat="44.08566" lon="6.80305">
        <ele>1340</ele>
        <time>2013-09-22T09:04:22Z</time>
      </trkpt>
      <trkpt lat="44.0857" lon="6.803">
        <ele>1341</ele>
        <time>2013-09-22T09:04:29Z</time>
      </trkpt>
      <trkpt lat="44.08569" lon="6.80297">
        <ele>1342</ele>
        <time>2013-09-22T09:04:33Z</time>
      </trkpt>
      <trkpt lat="44.08563" lon="6.8029">
        <ele>1345</ele>
        <time>2013-09-22T09:04:46Z</time>
      </trkpt>
      <trkpt lat="44.08563" lon="6.8028">
        <ele>1348</ele>
        <time>2013-09-22T09:05:02Z</time>
      </trkpt>
      <trkpt lat="44.08558" lon="6.80248">
        <ele>1350</ele>
        <time>2013-09-22T09:05:18Z</time>
      </trkpt>
      <trkpt lat="44.08559" lon="6.80239">
        <ele>1350</ele>
        <time>2013-09-22T09:05:23Z</time>
      </trkpt>
      <trkpt lat="44.08561" lon="6.80213">
        <ele>1352</ele>
        <time>2013-09-22T09:05:35Z</time>
      </trkpt>
      <trkpt lat="44.08561" lon="6.80204">
        <ele>1353</ele>
        <time>2013-09-22T09:05:40Z</time>
      </trkpt>
      <trkpt lat="44.08557" lon="6.8019">
        <ele>1355</ele>
        <time>2013-09-22T09:05:51Z</time>
      </trkpt>
      <trkpt lat="44.08546" lon="6.80176">
        <ele>1357</ele>
        <time>2013-09-22T09:06:04Z</time>
      </trkpt>
      <trkpt lat="44.08543" lon="6.80169">
        <ele>1358</ele>
        <time>2013-09-22T09:06:09Z</time>
      </trkpt>
      <trkpt lat="44.08538" lon="6.8016">
        <ele>1360</ele>
        <time>2013-09-22T09:06:16Z</time>
      </trkpt>
      <trkpt lat="44.08535" lon="6.80141">
        <ele>1362</ele>
        <time>2013-09-22T09:06:29Z</time>
      </trkpt>
      <trkpt lat="44.08525" lon="6.80133">
        <ele>1365</ele>
        <time>2013-09-22T09:06:38Z</time>
      </trkpt>
      <trkpt lat="44.08519" lon="6.80125">
        <ele>1366</ele>
        <time>2013-09-22T09:06:46Z</time>
      </trkpt>
      <trkpt lat="44.08514" lon="6.80119">
        <ele>1367</ele>
        <time>2013-09-22T09:06:52Z</time>
      </trkpt>
      <trkpt lat="44.085" lon="6.80104">
        <ele>1370</ele>
        <time>2013-09-22T09:07:07Z</time>
      </trkpt>
      <trkpt lat="44.08492" lon="6.80096">
        <ele>1371</ele>
        <time>2013-09-22T09:07:14Z</time>
      </trkpt>
      <trkpt lat="44.08482" lon="6.80087">
        <ele>1372</ele>
        <time>2013-09-22T09:07:24Z</time>
      </trkpt>
      <trkpt lat="44.08471" lon="6.80082">
        <ele>1374</ele>
        <time>2013-09-22T09:07:34Z</time>
      </trkpt>
      <trkpt lat="44.08463" lon="6.80079">
        <ele>1374</ele>
        <time>2013-09-22T09:07:40Z</time>
      </trkpt>
      <trkpt lat="44.08444" lon="6.80076">
        <ele>1376</ele>
        <time>2013-09-22T09:07:53Z</time>
      </trkpt>
      <trkpt lat="44.08429" lon="6.80067">
        <ele>1379</ele>
        <time>2013-09-22T09:08:07Z</time>
      </trkpt>
      <trkpt lat="44.0842" lon="6.80051">
        <ele>1381</ele>
        <time>2013-09-22T09:08:21Z</time>
      </trkpt>
      <trkpt lat="44.08415" lon="6.80044">
        <ele>1384</ele>
        <time>2013-09-22T09:08:34Z</time>
      </trkpt>
      <trkpt lat="44.08413" lon="6.80042">
        <ele>1387</ele>
        <time>2013-09-22T09:08:50Z</time>
      </trkpt>
      <trkpt lat="44.08407" lon="6.80034">
        <ele>1389</ele>
        <time>2013-09-22T09:09:02Z</time>
      </trkpt>
      <trkpt lat="44.08405" lon="6.80028">
        <ele>1391</ele>
        <time>2013-09-22T09:09:11Z</time>
      </trkpt>
      <trkpt lat="44.08401" lon="6.8002">
        <ele>1393</ele>
        <time>2013-09-22T09:09:25Z</time>
      </trkpt>
      <trkpt lat="44.08398" lon="6.80018">
        <ele>1394</ele>
        <time>2013-09-22T09:09:33Z</time>
      </trkpt>
      <trkpt lat="44.08384" lon="6.80012">
        <ele>1396</ele>
        <time>2013-09-22T09:09:46Z</time>
      </trkpt>
      <trkpt lat="44.08383" lon="6.80009">
        <ele>1397</ele>
        <time>2013-09-22T09:09:51Z</time>
      </trkpt>
      <trkpt lat="44.08381" lon="6.80005">
        <ele>1398</ele>
        <time>2013-09-22T09:09:58Z</time>
      </trkpt>
      <trkpt lat="44.08375" lon="6.79994">
        <ele>1400</ele>
        <time>2013-09-22T09:10:11Z</time>
      </trkpt>
      <trkpt lat="44.08371" lon="6.79987">
        <ele>1401</ele>
        <time>2013-09-22T09:10:18Z</time>
      </trkpt>
      <trkpt lat="44.08367" lon="6.79985">
        <ele>1402</ele>
        <time>2013-09-22T09:10:23Z</time>
      </trkpt>
      <trkpt lat="44.08361" lon="6.7998">
        <ele>1403</ele>
        <time>2013-09-22T09:10:31Z</time>
      </trkpt>
      <trkpt lat="44.08359" lon="6.7997">
        <ele>1406</ele>
        <time>2013-09-22T09:10:48Z</time>
      </trkpt>
      <trkpt lat="44.08354" lon="6.79961">
        <ele>1408</ele>
        <time>2013-09-22T09:11:01Z</time>
      </trkpt>
      <trkpt lat="44.08344" lon="6.79956">
        <ele>1410</ele>
        <time>2013-09-22T09:11:13Z</time>
      </trkpt>
      <trkpt lat="44.0834" lon="6.79947">
        <ele>1412</ele>
        <time>2013-09-22T09:11:23Z</time>
      </trkpt>
      <trkpt lat="44.08336" lon="6.79948">
        <ele>1412</ele>
        <time>2013-09-22T09:11:27Z</time>
      </trkpt>
      <trkpt lat="44.08333" lon="6.79947">
        <ele>1415</ele>
        <time>2013-09-22T09:11:44Z</time>
      </trkpt>
      <trkpt lat="44.08336" lon="6.7995">
        <ele>1418</ele>
        <time>2013-09-22T09:11:58Z</time>
      </trkpt>
      <trkpt lat="44.08345" lon="6.79947">
        <ele>1423</ele>
        <time>2013-09-22T09:12:31Z</time>
      </trkpt>
      <trkpt lat="44.08334" lon="6.79946">
        <ele>1424</ele>
        <time>2013-09-22T09:12:43Z</time>
      </trkpt>
      <trkpt lat="44.08333" lon="6.79953">
        <ele>1429</ele>
        <time>2013-09-22T09:15:02Z</time>
      </trkpt>
      <trkpt lat="44.0833" lon="6.79955">
        <ele>1430</ele>
        <time>2013-09-22T09:15:24Z</time>
      </trkpt>
      <trkpt lat="44.08329" lon="6.79961">
        <ele>1430</ele>
        <time>2013-09-22T09:15:29Z</time>
      </trkpt>
      <trkpt lat="44.08325" lon="6.79962">
        <ele>1430</ele>
        <time>2013-09-22T09:15:33Z</time>
      </trkpt>
      <trkpt lat="44.0832" lon="6.79964">
        <ele>1431</ele>
        <time>2013-09-22T09:15:43Z</time>
      </trkpt>
      <trkpt lat="44.08306" lon="6.79975">
        <ele>1433</ele>
        <time>2013-09-22T09:16:00Z</time>
      </trkpt>
      <trkpt lat="44.08302" lon="6.79977">
        <ele>1434</ele>
        <time>2013-09-22T09:16:06Z</time>
      </trkpt>
      <trkpt lat="44.08294" lon="6.79978">
        <ele>1435</ele>
        <time>2013-09-22T09:16:21Z</time>
      </trkpt>
      <trkpt lat="44.08287" lon="6.79977">
        <ele>1437</ele>
        <time>2013-09-22T09:16:34Z</time>
      </trkpt>
      <trkpt lat="44.08277" lon="6.7998">
        <ele>1439</ele>
        <time>2013-09-22T09:16:51Z</time>
      </trkpt>
      <trkpt lat="44.08272" lon="6.79982">
        <ele>1440</ele>
        <time>2013-09-22T09:16:56Z</time>
      </trkpt>
      <trkpt lat="44.08271" lon="6.79984">
        <ele>1441</ele>
        <time>2013-09-22T09:16:59Z</time>
      </trkpt>
      <trkpt lat="44.08266" lon="6.7999">
        <ele>1442</ele>
        <time>2013-09-22T09:17:08Z</time>
      </trkpt>
      <trkpt lat="44.08259" lon="6.79995">
        <ele>1443</ele>
        <time>2013-09-22T09:17:14Z</time>
      </trkpt>
      <trkpt lat="44.0825" lon="6.79998">
        <ele>1444</ele>
        <time>2013-09-22T09:17:20Z</time>
      </trkpt>
      <trkpt lat="44.08242" lon="6.80003">
        <ele>1447</ele>
        <time>2013-09-22T09:17:35Z</time>
      </trkpt>
      <trkpt lat="44.08234" lon="6.80005">
        <ele>1449</ele>
        <time>2013-09-22T09:17:45Z</time>
      </trkpt>
      <trkpt lat="44.08231" lon="6.79997">
        <ele>1450</ele>
        <time>2013-09-22T09:17:59Z</time>
      </trkpt>
      <trkpt lat="44.08221" lon="6.79999">
        <ele>1451</ele>
        <time>2013-09-22T09:18:12Z</time>
      </trkpt>
      <trkpt lat="44.08215" lon="6.8">
        <ele>1452</ele>
        <time>2013-09-22T09:18:19Z</time>
      </trkpt>
      <trkpt lat="44.08207" lon="6.79997">
        <ele>1453</ele>
        <time>2013-09-22T09:18:34Z</time>
      </trkpt>
      <trkpt lat="44.08204" lon="6.79993">
        <ele>1454</ele>
        <time>2013-09-22T09:18:45Z</time>
      </trkpt>
      <trkpt lat="44.08195" lon="6.79989">
        <ele>1457</ele>
        <time>2013-09-22T09:19:01Z</time>
      </trkpt>
      <trkpt lat="44.08187" lon="6.79993">
        <ele>1458</ele>
        <time>2013-09-22T09:19:10Z</time>
      </trkpt>
      <trkpt lat="44.08179" lon="6.79999">
        <ele>1458</ele>
        <time>2013-09-22T09:19:14Z</time>
      </trkpt>
      <trkpt lat="44.08169" lon="6.80013">
        <ele>1458</ele>
        <time>2013-09-22T09:19:20Z</time>
      </trkpt>
      <trkpt lat="44.08163" lon="6.80022">
        <ele>1459</ele>
        <time>2013-09-22T09:19:25Z</time>
      </trkpt>
      <trkpt lat="44.08158" lon="6.80024">
        <ele>1459</ele>
        <time>2013-09-22T09:19:28Z</time>
      </trkpt>
      <trkpt lat="44.0815" lon="6.80027">
        <ele>1461</ele>
        <time>2013-09-22T09:19:43Z</time>
      </trkpt>
      <trkpt lat="44.08153" lon="6.80035">
        <ele>1462</ele>
        <time>2013-09-22T09:19:52Z</time>
      </trkpt>
      <trkpt lat="44.0815" lon="6.80039">
        <ele>1463</ele>
        <time>2013-09-22T09:19:57Z</time>
      </trkpt>
      <trkpt lat="44.08145" lon="6.80041">
        <ele>1464</ele>
        <time>2013-09-22T09:20:07Z</time>
      </trkpt>
      <trkpt lat="44.08138" lon="6.80039">
        <ele>1466</ele>
        <time>2013-09-22T09:20:22Z</time>
      </trkpt>
      <trkpt lat="44.08128" lon="6.80049">
        <ele>1468</ele>
        <time>2013-09-22T09:20:35Z</time>
      </trkpt>
      <trkpt lat="44.08128" lon="6.80054">
        <ele>1469</ele>
        <time>2013-09-22T09:20:40Z</time>
      </trkpt>
      <trkpt lat="44.08128" lon="6.80057">
        <ele>1469</ele>
        <time>2013-09-22T09:20:42Z</time>
      </trkpt>
      <trkpt lat="44.08123" lon="6.80066">
        <ele>1471</ele>
        <time>2013-09-22T09:20:52Z</time>
      </trkpt>
      <trkpt lat="44.08116" lon="6.80072">
        <ele>1472</ele>
        <time>2013-09-22T09:21:00Z</time>
      </trkpt>
      <trkpt lat="44.08102" lon="6.80083">
        <ele>1474</ele>
        <time>2013-09-22T09:21:17Z</time>
      </trkpt>
      <trkpt lat="44.08099" lon="6.80085">
        <ele>1474</ele>
        <time>2013-09-22T09:21:22Z</time>
      </trkpt>
      <trkpt lat="44.08089" lon="6.80092">
        <ele>1477</ele>
        <time>2013-09-22T09:21:39Z</time>
      </trkpt>
      <trkpt lat="44.08078" lon="6.80103">
        <ele>1479</ele>
        <time>2013-09-22T09:21:55Z</time>
      </trkpt>
      <trkpt lat="44.08075" lon="6.80107">
        <ele>1480</ele>
        <time>2013-09-22T09:22:01Z</time>
      </trkpt>
      <trkpt lat="44.08064" lon="6.8012">
        <ele>1481</ele>
        <time>2013-09-22T09:22:13Z</time>
      </trkpt>
      <trkpt lat="44.08049" lon="6.80132">
        <ele>1482</ele>
        <time>2013-09-22T09:22:25Z</time>
      </trkpt>
      <trkpt lat="44.08023" lon="6.80153">
        <ele>1483</ele>
        <time>2013-09-22T09:22:39Z</time>
      </trkpt>
      <trkpt lat="44.07998" lon="6.80171">
        <ele>1484</ele>
        <time>2013-09-22T09:22:55Z</time>
      </trkpt>
      <trkpt lat="44.07977" lon="6.80186">
        <ele>1486</ele>
        <time>2013-09-22T09:23:11Z</time>
      </trkpt>
      <trkpt lat="44.07945" lon="6.80199">
        <ele>1489</ele>
        <time>2013-09-22T09:23:32Z</time>
      </trkpt>
      <trkpt lat="44.07917" lon="6.80198">
        <ele>1490</ele>
        <time>2013-09-22T09:23:46Z</time>
      </trkpt>
      <trkpt lat="44.07892" lon="6.80194">
        <ele>1491</ele>
        <time>2013-09-22T09:23:54Z</time>
      </trkpt>
      <trkpt lat="44.07857" lon="6.80194">
        <ele>1492</ele>
        <time>2013-09-22T09:24:03Z</time>
      </trkpt>
      <trkpt lat="44.07836" lon="6.80189">
        <ele>1492</ele>
        <time>2013-09-22T09:24:07Z</time>
      </trkpt>
      <trkpt lat="44.07812" lon="6.80177">
        <ele>1492</ele>
        <time>2013-09-22T09:24:14Z</time>
      </trkpt>
      <trkpt lat="44.07805" lon="6.80176">
        <ele>1492</ele>
        <time>2013-09-22T09:24:19Z</time>
      </trkpt>
      <trkpt lat="44.07803" lon="6.80177">
        <ele>1492</ele>
        <time>2013-09-22T09:24:21Z</time>
      </trkpt>
      <trkpt lat="44.07796" lon="6.80174">
        <ele>1492</ele>
        <time>2013-09-22T09:24:27Z</time>
      </trkpt>
      <trkpt lat="44.07787" lon="6.80173">
        <ele>1492</ele>
        <time>2013-09-22T09:24:33Z</time>
      </trkpt>
      <trkpt lat="44.07781" lon="6.80174">
        <ele>1494</ele>
        <time>2013-09-22T09:24:59Z</time>
      </trkpt>
      <trkpt lat="44.07761" lon="6.80178">
        <ele>1497</ele>
        <time>2013-09-22T09:25:20Z</time>
      </trkpt>
      <trkpt lat="44.07742" lon="6.80173">
        <ele>1501</ele>
        <time>2013-09-22T09:25:42Z</time>
      </trkpt>
      <trkpt lat="44.07731" lon="6.80176">
        <ele>1503</ele>
        <time>2013-09-22T09:25:56Z</time>
      </trkpt>
      <trkpt lat="44.07715" lon="6.8019">
        <ele>1504</ele>
        <time>2013-09-22T09:26:07Z</time>
      </trkpt>
      <trkpt lat="44.0771" lon="6.80187">
        <ele>1505</ele>
        <time>2013-09-22T09:26:11Z</time>
      </trkpt>
      <trkpt lat="44.07699" lon="6.80182">
        <ele>1505</ele>
        <time>2013-09-22T09:26:17Z</time>
      </trkpt>
      <trkpt lat="44.07683" lon="6.80177">
        <ele>1506</ele>
        <time>2013-09-22T09:26:29Z</time>
      </trkpt>
      <trkpt lat="44.07676" lon="6.80177">
        <ele>1507</ele>
        <time>2013-09-22T09:26:35Z</time>
      </trkpt>
      <trkpt lat="44.07666" lon="6.80172">
        <ele>1508</ele>
        <time>2013-09-22T09:26:43Z</time>
      </trkpt>
      <trkpt lat="44.07647" lon="6.80168">
        <ele>1510</ele>
        <time>2013-09-22T09:26:57Z</time>
      </trkpt>
      <trkpt lat="44.07636" lon="6.80169">
        <ele>1512</ele>
        <time>2013-09-22T09:27:10Z</time>
      </trkpt>
      <trkpt lat="44.07624" lon="6.80175">
        <ele>1515</ele>
        <time>2013-09-22T09:27:27Z</time>
      </trkpt>
      <trkpt lat="44.0761" lon="6.80179">
        <ele>1518</ele>
        <time>2013-09-22T09:27:46Z</time>
      </trkpt>
      <trkpt lat="44.07597" lon="6.8018">
        <ele>1521</ele>
        <time>2013-09-22T09:28:02Z</time>
      </trkpt>
      <trkpt lat="44.0758" lon="6.80184">
        <ele>1524</ele>
        <time>2013-09-22T09:28:19Z</time>
      </trkpt>
      <trkpt lat="44.07563" lon="6.80184">
        <ele>1528</ele>
        <time>2013-09-22T09:28:40Z</time>
      </trkpt>
      <trkpt lat="44.07547" lon="6.80188">
        <ele>1531</ele>
        <time>2013-09-22T09:28:57Z</time>
      </trkpt>
      <trkpt lat="44.07542" lon="6.80189">
        <ele>1532</ele>
        <time>2013-09-22T09:29:03Z</time>
      </trkpt>
      <trkpt lat="44.07533" lon="6.80187">
        <ele>1534</ele>
        <time>2013-09-22T09:29:18Z</time>
      </trkpt>
      <trkpt lat="44.07523" lon="6.80183">
        <ele>1537</ele>
        <time>2013-09-22T09:29:32Z</time>
      </trkpt>
      <trkpt lat="44.07518" lon="6.80181">
        <ele>1538</ele>
        <time>2013-09-22T09:29:43Z</time>
      </trkpt>
      <trkpt lat="44.07501" lon="6.8017">
        <ele>1540</ele>
        <time>2013-09-22T09:29:55Z</time>
      </trkpt>
      <trkpt lat="44.07484" lon="6.80147">
        <ele>1541</ele>
        <time>2013-09-22T09:30:09Z</time>
      </trkpt>
      <trkpt lat="44.07479" lon="6.8013">
        <ele>1541</ele>
        <time>2013-09-22T09:30:18Z</time>
      </trkpt>
      <trkpt lat="44.07473" lon="6.80101">
        <ele>1542</ele>
        <time>2013-09-22T09:30:33Z</time>
      </trkpt>
      <trkpt lat="44.07466" lon="6.8009">
        <ele>1543</ele>
        <time>2013-09-22T09:30:39Z</time>
      </trkpt>
      <trkpt lat="44.07454" lon="6.80076">
        <ele>1543</ele>
        <time>2013-09-22T09:30:47Z</time>
      </trkpt>
      <trkpt lat="44.07448" lon="6.8007">
        <ele>1544</ele>
        <time>2013-09-22T09:30:52Z</time>
      </trkpt>
      <trkpt lat="44.07437" lon="6.80059">
        <ele>1545</ele>
        <time>2013-09-22T09:31:01Z</time>
      </trkpt>
      <trkpt lat="44.07433" lon="6.80055">
        <ele>1547</ele>
        <time>2013-09-22T09:31:09Z</time>
      </trkpt>
      <trkpt lat="44.07428" lon="6.8005">
        <ele>1550</ele>
        <time>2013-09-22T09:31:23Z</time>
      </trkpt>
      <trkpt lat="44.07431" lon="6.80041">
        <ele>1552</ele>
        <time>2013-09-22T09:31:35Z</time>
      </trkpt>
      <trkpt lat="44.0743" lon="6.8004">
        <ele>1555</ele>
        <time>2013-09-22T09:31:52Z</time>
      </trkpt>
      <trkpt lat="44.07428" lon="6.80046">
        <ele>1556</ele>
        <time>2013-09-22T09:31:58Z</time>
      </trkpt>
      <trkpt lat="44.07429" lon="6.80045">
        <ele>1561</ele>
        <time>2013-09-22T09:33:04Z</time>
      </trkpt>
      <trkpt lat="44.07433" lon="6.80039">
        <ele>1562</ele>
        <time>2013-09-22T09:35:14Z</time>
      </trkpt>
      <trkpt lat="44.07431" lon="6.80033">
        <ele>1562</ele>
        <time>2013-09-22T09:35:34Z</time>
      </trkpt>
      <trkpt lat="44.07418" lon="6.80009">
        <ele>1562</ele>
        <time>2013-09-22T09:35:44Z</time>
      </trkpt>
      <trkpt lat="44.07407" lon="6.79997">
        <ele>1562</ele>
        <time>2013-09-22T09:35:48Z</time>
      </trkpt>
      <trkpt lat="44.07404" lon="6.79995">
        <ele>1562</ele>
        <time>2013-09-22T09:35:51Z</time>
      </trkpt>
      <trkpt lat="44.07401" lon="6.79993">
        <ele>1561</ele>
        <time>2013-09-22T09:36:04Z</time>
      </trkpt>
      <trkpt lat="44.07386" lon="6.79985">
        <ele>1567</ele>
        <time>2013-09-22T09:42:40Z</time>
      </trkpt>
      <trkpt lat="44.07383" lon="6.79977">
        <ele>1567</ele>
        <time>2013-09-22T09:42:45Z</time>
      </trkpt>
      <trkpt lat="44.07369" lon="6.79954">
        <ele>1567</ele>
        <time>2013-09-22T09:42:57Z</time>
      </trkpt>
      <trkpt lat="44.07363" lon="6.79947">
        <ele>1567</ele>
        <time>2013-09-22T09:43:01Z</time>
      </trkpt>
      <trkpt lat="44.07355" lon="6.79925">
        <ele>1567</ele>
        <time>2013-09-22T09:43:07Z</time>
      </trkpt>
      <trkpt lat="44.07353" lon="6.79917">
        <ele>1567</ele>
        <time>2013-09-22T09:43:32Z</time>
      </trkpt>
      <trkpt lat="44.07338" lon="6.79893">
        <ele>1567</ele>
        <time>2013-09-22T09:43:38Z</time>
      </trkpt>
      <trkpt lat="44.07311" lon="6.7987">
        <ele>1567</ele>
        <time>2013-09-22T09:43:44Z</time>
      </trkpt>
      <trkpt lat="44.07299" lon="6.79848">
        <ele>1567</ele>
        <time>2013-09-22T09:43:48Z</time>
      </trkpt>
      <trkpt lat="44.0729" lon="6.79826">
        <ele>1567</ele>
        <time>2013-09-22T09:43:54Z</time>
      </trkpt>
      <trkpt lat="44.07265" lon="6.79797">
        <ele>1566</ele>
        <time>2013-09-22T09:44:03Z</time>
      </trkpt>
      <trkpt lat="44.07254" lon="6.79798">
        <ele>1566</ele>
        <time>2013-09-22T09:44:06Z</time>
      </trkpt>
      <trkpt lat="44.07236" lon="6.79788">
        <ele>1566</ele>
        <time>2013-09-22T09:44:11Z</time>
      </trkpt>
      <trkpt lat="44.07228" lon="6.7979">
        <ele>1565</ele>
        <time>2013-09-22T09:44:15Z</time>
      </trkpt>
      <trkpt lat="44.07217" lon="6.79794">
        <ele>1565</ele>
        <time>2013-09-22T09:44:22Z</time>
      </trkpt>
      <trkpt lat="44.07212" lon="6.79786">
        <ele>1565</ele>
        <time>2013-09-22T09:44:27Z</time>
      </trkpt>
      <trkpt lat="44.07211" lon="6.79775">
        <ele>1564</ele>
        <time>2013-09-22T09:44:33Z</time>
      </trkpt>
      <trkpt lat="44.07212" lon="6.79769">
        <ele>1564</ele>
        <time>2013-09-22T09:44:38Z</time>
      </trkpt>
      <trkpt lat="44.07213" lon="6.7976">
        <ele>1563</ele>
        <time>2013-09-22T09:44:50Z</time>
      </trkpt>
      <trkpt lat="44.07216" lon="6.79746">
        <ele>1560</ele>
        <time>2013-09-22T09:46:31Z</time>
      </trkpt>
      <trkpt lat="44.0723" lon="6.79688">
        <ele>1560</ele>
        <time>2013-09-22T09:46:42Z</time>
      </trkpt>
      <trkpt lat="44.0723" lon="6.79661">
        <ele>1560</ele>
        <time>2013-09-22T09:46:47Z</time>
      </trkpt>
      <trkpt lat="44.07224" lon="6.79603">
        <ele>1559</ele>
        <time>2013-09-22T09:46:58Z</time>
      </trkpt>
      <trkpt lat="44.07224" lon="6.79574">
        <ele>1558</ele>
        <time>2013-09-22T09:47:07Z</time>
      </trkpt>
      <trkpt lat="44.07225" lon="6.79565">
        <ele>1558</ele>
        <time>2013-09-22T09:47:15Z</time>
      </trkpt>
      <trkpt lat="44.07223" lon="6.79559">
        <ele>1557</ele>
        <time>2013-09-22T09:47:21Z</time>
      </trkpt>
      <trkpt lat="44.0722" lon="6.79553">
        <ele>1557</ele>
        <time>2013-09-22T09:47:25Z</time>
      </trkpt>
      <trkpt lat="44.07219" lon="6.7954">
        <ele>1557</ele>
        <time>2013-09-22T09:47:30Z</time>
      </trkpt>
      <trkpt lat="44.07222" lon="6.79515">
        <ele>1556</ele>
        <time>2013-09-22T09:47:39Z</time>
      </trkpt>
      <trkpt lat="44.07227" lon="6.79508">
        <ele>1555</ele>
        <time>2013-09-22T09:47:46Z</time>
      </trkpt>
      <trkpt lat="44.07222" lon="6.79499">
        <ele>1555</ele>
        <time>2013-09-22T09:47:52Z</time>
      </trkpt>
      <trkpt lat="44.07224" lon="6.79487">
        <ele>1554</ele>
        <time>2013-09-22T09:48:01Z</time>
      </trkpt>
      <trkpt lat="44.07219" lon="6.79483">
        <ele>1553</ele>
        <time>2013-09-22T09:48:08Z</time>
      </trkpt>
      <trkpt lat="44.07209" lon="6.79491">
        <ele>1552</ele>
        <time>2013-09-22T09:48:18Z</time>
      </trkpt>
      <trkpt lat="44.07202" lon="6.79494">
        <ele>1551</ele>
        <time>2013-09-22T09:48:25Z</time>
      </trkpt>
      <trkpt lat="44.0719" lon="6.79495">
        <ele>1550</ele>
        <time>2013-09-22T09:48:36Z</time>
      </trkpt>
      <trkpt lat="44.07181" lon="6.79499">
        <ele>1549</ele>
        <time>2013-09-22T09:48:47Z</time>
      </trkpt>
      <trkpt lat="44.07164" lon="6.79507">
        <ele>1548</ele>
        <time>2013-09-22T09:48:58Z</time>
      </trkpt>
      <trkpt lat="44.07154" lon="6.79512">
        <ele>1547</ele>
        <time>2013-09-22T09:49:09Z</time>
      </trkpt>
      <trkpt lat="44.07145" lon="6.79517">
        <ele>1546</ele>
        <time>2013-09-22T09:49:17Z</time>
      </trkpt>
      <trkpt lat="44.07136" lon="6.79517">
        <ele>1545</ele>
        <time>2013-09-22T09:49:28Z</time>
      </trkpt>
      <trkpt lat="44.07106" lon="6.79511">
        <ele>1544</ele>
        <time>2013-09-22T09:49:39Z</time>
      </trkpt>
      <trkpt lat="44.0707" lon="6.79496">
        <ele>1543</ele>
        <time>2013-09-22T09:49:49Z</time>
      </trkpt>
      <trkpt lat="44.07032" lon="6.79491">
        <ele>1542</ele>
        <time>2013-09-22T09:50:00Z</time>
      </trkpt>
      <trkpt lat="44.07001" lon="6.79481">
        <ele>1541</ele>
        <time>2013-09-22T09:50:10Z</time>
      </trkpt>
      <trkpt lat="44.06998" lon="6.79482">
        <ele>1540</ele>
        <time>2013-09-22T09:50:15Z</time>
      </trkpt>
      <trkpt lat="44.06992" lon="6.79482">
        <ele>1540</ele>
        <time>2013-09-22T09:50:19Z</time>
      </trkpt>
      <trkpt lat="44.06982" lon="6.79479">
        <ele>1539</ele>
        <time>2013-09-22T09:50:29Z</time>
      </trkpt>
      <trkpt lat="44.06972" lon="6.79485">
        <ele>1538</ele>
        <time>2013-09-22T09:50:42Z</time>
      </trkpt>
      <trkpt lat="44.06954" lon="6.79479">
        <ele>1538</ele>
        <time>2013-09-22T09:50:53Z</time>
      </trkpt>
      <trkpt lat="44.06943" lon="6.79483">
        <ele>1538</ele>
        <time>2013-09-22T09:50:57Z</time>
      </trkpt>
      <trkpt lat="44.06936" lon="6.79488">
        <ele>1537</ele>
        <time>2013-09-22T09:51:01Z</time>
      </trkpt>
      <trkpt lat="44.06921" lon="6.79496">
        <ele>1537</ele>
        <time>2013-09-22T09:51:06Z</time>
      </trkpt>
      <trkpt lat="44.06898" lon="6.7949">
        <ele>1537</ele>
        <time>2013-09-22T09:51:16Z</time>
      </trkpt>
      <trkpt lat="44.0687" lon="6.7949">
        <ele>1536</ele>
        <time>2013-09-22T09:51:25Z</time>
      </trkpt>
      <trkpt lat="44.06842" lon="6.79484">
        <ele>1536</ele>
        <time>2013-09-22T09:51:33Z</time>
      </trkpt>
      <trkpt lat="44.06818" lon="6.7948">
        <ele>1535</ele>
        <time>2013-09-22T09:51:41Z</time>
      </trkpt>
      <trkpt lat="44.06799" lon="6.79478">
        <ele>1535</ele>
        <time>2013-09-22T09:51:50Z</time>
      </trkpt>
      <trkpt lat="44.06785" lon="6.7947">
        <ele>1535</ele>
        <time>2013-09-22T09:52:01Z</time>
      </trkpt>
      <trkpt lat="44.06779" lon="6.79472">
        <ele>1535</ele>
        <time>2013-09-22T09:52:07Z</time>
      </trkpt>
      <trkpt lat="44.06763" lon="6.79471">
        <ele>1535</ele>
        <time>2013-09-22T09:52:19Z</time>
      </trkpt>
      <trkpt lat="44.06761" lon="6.79469">
        <ele>1535</ele>
        <time>2013-09-22T09:52:25Z</time>
      </trkpt>
      <trkpt lat="44.06757" lon="6.79468">
        <ele>1535</ele>
        <time>2013-09-22T09:52:30Z</time>
      </trkpt>
      <trkpt lat="44.06747" lon="6.79467">
        <ele>1536</ele>
        <time>2013-09-22T09:52:44Z</time>
      </trkpt>
      <trkpt lat="44.06739" lon="6.79463">
        <ele>1538</ele>
        <time>2013-09-22T09:52:57Z</time>
      </trkpt>
      <trkpt lat="44.06732" lon="6.79457">
        <ele>1539</ele>
        <time>2013-09-22T09:53:10Z</time>
      </trkpt>
      <trkpt lat="44.06722" lon="6.79452">
        <ele>1540</ele>
        <time>2013-09-22T09:53:25Z</time>
      </trkpt>
      <trkpt lat="44.06699" lon="6.79448">
        <ele>1542</ele>
        <time>2013-09-22T09:53:39Z</time>
      </trkpt>
      <trkpt lat="44.0668" lon="6.79445">
        <ele>1542</ele>
        <time>2013-09-22T09:53:47Z</time>
      </trkpt>
      <trkpt lat="44.06656" lon="6.79431">
        <ele>1543</ele>
        <time>2013-09-22T09:53:56Z</time>
      </trkpt>
      <trkpt lat="44.06633" lon="6.79422">
        <ele>1543</ele>
        <time>2013-09-22T09:54:05Z</time>
      </trkpt>
      <trkpt lat="44.06604" lon="6.79412">
        <ele>1543</ele>
        <time>2013-09-22T09:54:14Z</time>
      </trkpt>
      <trkpt lat="44.06575" lon="6.79405">
        <ele>1543</ele>
        <time>2013-09-22T09:54:23Z</time>
      </trkpt>
      <trkpt lat="44.06551" lon="6.79375">
        <ele>1543</ele>
        <time>2013-09-22T09:54:31Z</time>
      </trkpt>
      <trkpt lat="44.0654" lon="6.7936">
        <ele>1543</ele>
        <time>2013-09-22T09:54:34Z</time>
      </trkpt>
      <trkpt lat="44.0653" lon="6.79347">
        <ele>1543</ele>
        <time>2013-09-22T09:54:37Z</time>
      </trkpt>
      <trkpt lat="44.06519" lon="6.79324">
        <ele>1543</ele>
        <time>2013-09-22T09:54:42Z</time>
      </trkpt>
      <trkpt lat="44.06512" lon="6.79309">
        <ele>1543</ele>
        <time>2013-09-22T09:54:45Z</time>
      </trkpt>
      <trkpt lat="44.06499" lon="6.79285">
        <ele>1542</ele>
        <time>2013-09-22T09:54:51Z</time>
      </trkpt>
      <trkpt lat="44.06491" lon="6.79267">
        <ele>1542</ele>
        <time>2013-09-22T09:54:54Z</time>
      </trkpt>
      <trkpt lat="44.06485" lon="6.79263">
        <ele>1542</ele>
        <time>2013-09-22T09:54:57Z</time>
      </trkpt>
      <trkpt lat="44.06476" lon="6.79253">
        <ele>1542</ele>
        <time>2013-09-22T09:55:01Z</time>
      </trkpt>
      <trkpt lat="44.06469" lon="6.79244">
        <ele>1542</ele>
        <time>2013-09-22T09:55:04Z</time>
      </trkpt>
      <trkpt lat="44.06445" lon="6.79235">
        <ele>1541</ele>
        <time>2013-09-22T09:55:11Z</time>
      </trkpt>
      <trkpt lat="44.06416" lon="6.79208">
        <ele>1540</ele>
        <time>2013-09-22T09:55:20Z</time>
      </trkpt>
      <trkpt lat="44.06383" lon="6.79197">
        <ele>1539</ele>
        <time>2013-09-22T09:55:30Z</time>
      </trkpt>
      <trkpt lat="44.06389" lon="6.79211">
        <ele>1538</ele>
        <time>2013-09-22T09:55:37Z</time>
      </trkpt>
      <trkpt lat="44.06393" lon="6.79214">
        <ele>1537</ele>
        <time>2013-09-22T09:55:42Z</time>
      </trkpt>
      <trkpt lat="44.06386" lon="6.79212">
        <ele>1535</ele>
        <time>2013-09-22T09:55:51Z</time>
      </trkpt>
      <trkpt lat="44.06359" lon="6.79209">
        <ele>1533</ele>
        <time>2013-09-22T09:55:59Z</time>
      </trkpt>
      <trkpt lat="44.06345" lon="6.79207">
        <ele>1532</ele>
        <time>2013-09-22T09:56:03Z</time>
      </trkpt>
      <trkpt lat="44.06314" lon="6.79201">
        <ele>1530</ele>
        <time>2013-09-22T09:56:09Z</time>
      </trkpt>
      <trkpt lat="44.06306" lon="6.79208">
        <ele>1530</ele>
        <time>2013-09-22T09:56:12Z</time>
      </trkpt>
      <trkpt lat="44.06291" lon="6.79234">
        <ele>1528</ele>
        <time>2013-09-22T09:56:18Z</time>
      </trkpt>
      <trkpt lat="44.06282" lon="6.79238">
        <ele>1528</ele>
        <time>2013-09-22T09:56:21Z</time>
      </trkpt>
      <trkpt lat="44.06281" lon="6.7924">
        <ele>1516</ele>
        <time>2013-09-22T09:57:12Z</time>
      </trkpt>
      <trkpt lat="44.06269" lon="6.79228">
        <ele>1504</ele>
        <time>2013-09-22T09:58:35Z</time>
      </trkpt>
      <trkpt lat="44.06261" lon="6.79198">
        <ele>1503</ele>
        <time>2013-09-22T09:58:44Z</time>
      </trkpt>
      <trkpt lat="44.06258" lon="6.79192">
        <ele>1503</ele>
        <time>2013-09-22T09:58:48Z</time>
      </trkpt>
      <trkpt lat="44.06255" lon="6.79187">
        <ele>1502</ele>
        <time>2013-09-22T09:58:56Z</time>
      </trkpt>
      <trkpt lat="44.06255" lon="6.79174">
        <ele>1498</ele>
        <time>2013-09-22T09:59:31Z</time>
      </trkpt>
      <trkpt lat="44.06252" lon="6.79174">
        <ele>1496</ele>
        <time>2013-09-22T09:59:47Z</time>
      </trkpt>
      <trkpt lat="44.06247" lon="6.79178">
        <ele>1495</ele>
        <time>2013-09-22T10:00:05Z</time>
      </trkpt>
      <trkpt lat="44.0624" lon="6.79181">
        <ele>1494</ele>
        <time>2013-09-22T10:00:17Z</time>
      </trkpt>
      <trkpt lat="44.0623" lon="6.79202">
        <ele>1492</ele>
        <time>2013-09-22T10:00:43Z</time>
      </trkpt>
      <trkpt lat="44.06216" lon="6.79229">
        <ele>1491</ele>
        <time>2013-09-22T10:00:58Z</time>
      </trkpt>
      <trkpt lat="44.06209" lon="6.7927">
        <ele>1490</ele>
        <time>2013-09-22T10:01:16Z</time>
      </trkpt>
      <trkpt lat="44.06207" lon="6.79295">
        <ele>1490</ele>
        <time>2013-09-22T10:01:26Z</time>
      </trkpt>
      <trkpt lat="44.062" lon="6.79311">
        <ele>1490</ele>
        <time>2013-09-22T10:01:31Z</time>
      </trkpt>
      <trkpt lat="44.06197" lon="6.79325">
        <ele>1490</ele>
        <time>2013-09-22T10:01:35Z</time>
      </trkpt>
      <trkpt lat="44.0619" lon="6.79338">
        <ele>1490</ele>
        <time>2013-09-22T10:01:39Z</time>
      </trkpt>
      <trkpt lat="44.06184" lon="6.79348">
        <ele>1490</ele>
        <time>2013-09-22T10:01:43Z</time>
      </trkpt>
      <trkpt lat="44.06173" lon="6.79375">
        <ele>1490</ele>
        <time>2013-09-22T10:01:53Z</time>
      </trkpt>
      <trkpt lat="44.06171" lon="6.79379">
        <ele>1490</ele>
        <time>2013-09-22T10:01:55Z</time>
      </trkpt>
      <trkpt lat="44.06167" lon="6.79387">
        <ele>1489</ele>
        <time>2013-09-22T10:02:00Z</time>
      </trkpt>
      <trkpt lat="44.06163" lon="6.79394">
        <ele>1489</ele>
        <time>2013-09-22T10:02:05Z</time>
      </trkpt>
      <trkpt lat="44.06156" lon="6.79415">
        <ele>1490</ele>
        <time>2013-09-22T10:02:20Z</time>
      </trkpt>
      <trkpt lat="44.06146" lon="6.79441">
        <ele>1491</ele>
        <time>2013-09-22T10:02:36Z</time>
      </trkpt>
      <trkpt lat="44.06132" lon="6.79459">
        <ele>1492</ele>
        <time>2013-09-22T10:02:50Z</time>
      </trkpt>
      <trkpt lat="44.06116" lon="6.79481">
        <ele>1492</ele>
        <time>2013-09-22T10:03:05Z</time>
      </trkpt>
      <trkpt lat="44.06099" lon="6.79507">
        <ele>1494</ele>
        <time>2013-09-22T10:03:22Z</time>
      </trkpt>
      <trkpt lat="44.06081" lon="6.79531">
        <ele>1496</ele>
        <time>2013-09-22T10:03:37Z</time>
      </trkpt>
      <trkpt lat="44.06066" lon="6.79554">
        <ele>1497</ele>
        <time>2013-09-22T10:03:48Z</time>
      </trkpt>
      <trkpt lat="44.06053" lon="6.79583">
        <ele>1498</ele>
        <time>2013-09-22T10:04:01Z</time>
      </trkpt>
      <trkpt lat="44.06044" lon="6.79617">
        <ele>1500</ele>
        <time>2013-09-22T10:04:17Z</time>
      </trkpt>
      <trkpt lat="44.06043" lon="6.79646">
        <ele>1502</ele>
        <time>2013-09-22T10:04:30Z</time>
      </trkpt>
      <trkpt lat="44.06044" lon="6.79689">
        <ele>1503</ele>
        <time>2013-09-22T10:04:43Z</time>
      </trkpt>
      <trkpt lat="44.06045" lon="6.79737">
        <ele>1504</ele>
        <time>2013-09-22T10:04:58Z</time>
      </trkpt>
      <trkpt lat="44.06038" lon="6.7978">
        <ele>1505</ele>
        <time>2013-09-22T10:05:13Z</time>
      </trkpt>
      <trkpt lat="44.0603" lon="6.79808">
        <ele>1506</ele>
        <time>2013-09-22T10:05:26Z</time>
      </trkpt>
      <trkpt lat="44.0603" lon="6.7984">
        <ele>1507</ele>
        <time>2013-09-22T10:05:40Z</time>
      </trkpt>
      <trkpt lat="44.06025" lon="6.79869">
        <ele>1508</ele>
        <time>2013-09-22T10:05:52Z</time>
      </trkpt>
      <trkpt lat="44.06021" lon="6.79885">
        <ele>1509</ele>
        <time>2013-09-22T10:06:00Z</time>
      </trkpt>
      <trkpt lat="44.06016" lon="6.79903">
        <ele>1510</ele>
        <time>2013-09-22T10:06:09Z</time>
      </trkpt>
      <trkpt lat="44.06014" lon="6.79911">
        <ele>1511</ele>
        <time>2013-09-22T10:06:13Z</time>
      </trkpt>
      <trkpt lat="44.06014" lon="6.79912">
        <ele>1511</ele>
        <time>2013-09-22T10:06:15Z</time>
      </trkpt>
      <trkpt lat="44.06009" lon="6.79923">
        <ele>1519</ele>
        <time>2013-09-22T10:07:16Z</time>
      </trkpt>
      <trkpt lat="44.06011" lon="6.79921">
        <ele>1520</ele>
        <time>2013-09-22T10:07:23Z</time>
      </trkpt>
      <trkpt lat="44.06012" lon="6.7992">
        <ele>1521</ele>
        <time>2013-09-22T10:07:34Z</time>
      </trkpt>
      <trkpt lat="44.06007" lon="6.79928">
        <ele>1527</ele>
        <time>2013-09-22T10:25:28Z</time>
      </trkpt>
      <trkpt lat="44.05994" lon="6.79945">
        <ele>1526</ele>
        <time>2013-09-22T10:25:39Z</time>
      </trkpt>
      <trkpt lat="44.05969" lon="6.79961">
        <ele>1526</ele>
        <time>2013-09-22T10:25:45Z</time>
      </trkpt>
      <trkpt lat="44.05973" lon="6.79977">
        <ele>1526</ele>
        <time>2013-09-22T10:25:51Z</time>
      </trkpt>
      <trkpt lat="44.05975" lon="6.79997">
        <ele>1526</ele>
        <time>2013-09-22T10:26:02Z</time>
      </trkpt>
      <trkpt lat="44.05976" lon="6.80004">
        <ele>1525</ele>
        <time>2013-09-22T10:26:07Z</time>
      </trkpt>
      <trkpt lat="44.05979" lon="6.8002">
        <ele>1525</ele>
        <time>2013-09-22T10:26:19Z</time>
      </trkpt>
      <trkpt lat="44.05979" lon="6.80034">
        <ele>1525</ele>
        <time>2013-09-22T10:26:27Z</time>
      </trkpt>
      <trkpt lat="44.05975" lon="6.80058">
        <ele>1525</ele>
        <time>2013-09-22T10:26:39Z</time>
      </trkpt>
      <trkpt lat="44.05964" lon="6.80076">
        <ele>1526</ele>
        <time>2013-09-22T10:26:52Z</time>
      </trkpt>
      <trkpt lat="44.05964" lon="6.80092">
        <ele>1530</ele>
        <time>2013-09-22T10:27:47Z</time>
      </trkpt>
      <trkpt lat="44.05966" lon="6.80093">
        <ele>1530</ele>
        <time>2013-09-22T10:27:51Z</time>
      </trkpt>
      <trkpt lat="44.05966" lon="6.80102">
        <ele>1530</ele>
        <time>2013-09-22T10:27:56Z</time>
      </trkpt>
      <trkpt lat="44.05961" lon="6.80127">
        <ele>1530</ele>
        <time>2013-09-22T10:28:05Z</time>
      </trkpt>
      <trkpt lat="44.05956" lon="6.80143">
        <ele>1529</ele>
        <time>2013-09-22T10:28:10Z</time>
      </trkpt>
      <trkpt lat="44.05957" lon="6.80148">
        <ele>1529</ele>
        <time>2013-09-22T10:28:13Z</time>
      </trkpt>
      <trkpt lat="44.05967" lon="6.80154">
        <ele>1527</ele>
        <time>2013-09-22T10:28:35Z</time>
      </trkpt>
      <trkpt lat="44.05974" lon="6.80162">
        <ele>1526</ele>
        <time>2013-09-22T10:28:50Z</time>
      </trkpt>
      <trkpt lat="44.05981" lon="6.80181">
        <ele>1525</ele>
        <time>2013-09-22T10:28:55Z</time>
      </trkpt>
      <trkpt lat="44.0599" lon="6.80215">
        <ele>1524</ele>
        <time>2013-09-22T10:29:04Z</time>
      </trkpt>
      <trkpt lat="44.05986" lon="6.80221">
        <ele>1523</ele>
        <time>2013-09-22T10:29:07Z</time>
      </trkpt>
      <trkpt lat="44.05988" lon="6.8022">
        <ele>1522</ele>
        <time>2013-09-22T10:29:15Z</time>
      </trkpt>
      <trkpt lat="44.05995" lon="6.80225">
        <ele>1521</ele>
        <time>2013-09-22T10:29:21Z</time>
      </trkpt>
      <trkpt lat="44.05999" lon="6.80249">
        <ele>1520</ele>
        <time>2013-09-22T10:29:33Z</time>
      </trkpt>
      <trkpt lat="44.05997" lon="6.80273">
        <ele>1519</ele>
        <time>2013-09-22T10:29:42Z</time>
      </trkpt>
      <trkpt lat="44.0599" lon="6.80293">
        <ele>1518</ele>
        <time>2013-09-22T10:29:46Z</time>
      </trkpt>
      <trkpt lat="44.05989" lon="6.80303">
        <ele>1518</ele>
        <time>2013-09-22T10:29:51Z</time>
      </trkpt>
      <trkpt lat="44.05983" lon="6.80318">
        <ele>1517</ele>
        <time>2013-09-22T10:29:57Z</time>
      </trkpt>
      <trkpt lat="44.05973" lon="6.80346">
        <ele>1516</ele>
        <time>2013-09-22T10:30:03Z</time>
      </trkpt>
      <trkpt lat="44.05973" lon="6.80358">
        <ele>1516</ele>
        <time>2013-09-22T10:30:07Z</time>
      </trkpt>
      <trkpt lat="44.05972" lon="6.80372">
        <ele>1515</ele>
        <time>2013-09-22T10:30:11Z</time>
      </trkpt>
      <trkpt lat="44.05968" lon="6.80384">
        <ele>1515</ele>
        <time>2013-09-22T10:30:14Z</time>
      </trkpt>
      <trkpt lat="44.05967" lon="6.80397">
        <ele>1514</ele>
        <time>2013-09-22T10:30:19Z</time>
      </trkpt>
      <trkpt lat="44.05945" lon="6.8041">
        <ele>1513</ele>
        <time>2013-09-22T10:30:28Z</time>
      </trkpt>
      <trkpt lat="44.05924" lon="6.80429">
        <ele>1511</ele>
        <time>2013-09-22T10:30:36Z</time>
      </trkpt>
      <trkpt lat="44.05904" lon="6.80465">
        <ele>1510</ele>
        <time>2013-09-22T10:30:46Z</time>
      </trkpt>
      <trkpt lat="44.05897" lon="6.80487">
        <ele>1508</ele>
        <time>2013-09-22T10:30:55Z</time>
      </trkpt>
      <trkpt lat="44.0589" lon="6.80504">
        <ele>1507</ele>
        <time>2013-09-22T10:31:01Z</time>
      </trkpt>
      <trkpt lat="44.05888" lon="6.80516">
        <ele>1506</ele>
        <time>2013-09-22T10:31:06Z</time>
      </trkpt>
      <trkpt lat="44.05891" lon="6.8052">
        <ele>1505</ele>
        <time>2013-09-22T10:31:14Z</time>
      </trkpt>
      <trkpt lat="44.05896" lon="6.8055">
        <ele>1502</ele>
        <time>2013-09-22T10:31:25Z</time>
      </trkpt>
      <trkpt lat="44.05905" lon="6.80585">
        <ele>1500</ele>
        <time>2013-09-22T10:31:35Z</time>
      </trkpt>
      <trkpt lat="44.05909" lon="6.806">
        <ele>1498</ele>
        <time>2013-09-22T10:31:45Z</time>
      </trkpt>
      <trkpt lat="44.0591" lon="6.80614">
        <ele>1496</ele>
        <time>2013-09-22T10:31:51Z</time>
      </trkpt>
      <trkpt lat="44.05912" lon="6.80652">
        <ele>1494</ele>
        <time>2013-09-22T10:31:59Z</time>
      </trkpt>
      <trkpt lat="44.05906" lon="6.80686">
        <ele>1492</ele>
        <time>2013-09-22T10:32:08Z</time>
      </trkpt>
      <trkpt lat="44.05905" lon="6.807">
        <ele>1490</ele>
        <time>2013-09-22T10:32:14Z</time>
      </trkpt>
      <trkpt lat="44.05906" lon="6.80701">
        <ele>1487</ele>
        <time>2013-09-22T10:32:28Z</time>
      </trkpt>
      <trkpt lat="44.05907" lon="6.80695">
        <ele>1479</ele>
        <time>2013-09-22T10:32:57Z</time>
      </trkpt>
      <trkpt lat="44.05907" lon="6.80688">
        <ele>1478</ele>
        <time>2013-09-22T10:33:03Z</time>
      </trkpt>
      <trkpt lat="44.05911" lon="6.8066">
        <ele>1474</ele>
        <time>2013-09-22T10:33:20Z</time>
      </trkpt>
      <trkpt lat="44.05913" lon="6.80644">
        <ele>1471</ele>
        <time>2013-09-22T10:33:36Z</time>
      </trkpt>
      <trkpt lat="44.05914" lon="6.80632">
        <ele>1468</ele>
        <time>2013-09-22T10:33:50Z</time>
      </trkpt>
      <trkpt lat="44.05911" lon="6.80611">
        <ele>1466</ele>
        <time>2013-09-22T10:34:09Z</time>
      </trkpt>
      <trkpt lat="44.05908" lon="6.80596">
        <ele>1464</ele>
        <time>2013-09-22T10:34:25Z</time>
      </trkpt>
      <trkpt lat="44.05907" lon="6.80587">
        <ele>1463</ele>
        <time>2013-09-22T10:34:37Z</time>
      </trkpt>
      <trkpt lat="44.05903" lon="6.80573">
        <ele>1462</ele>
        <time>2013-09-22T10:34:50Z</time>
      </trkpt>
      <trkpt lat="44.05899" lon="6.80562">
        <ele>1461</ele>
        <time>2013-09-22T10:34:59Z</time>
      </trkpt>
      <trkpt lat="44.05892" lon="6.80541">
        <ele>1460</ele>
        <time>2013-09-22T10:35:15Z</time>
      </trkpt>
      <trkpt lat="44.05889" lon="6.80524">
        <ele>1460</ele>
        <time>2013-09-22T10:35:32Z</time>
      </trkpt>
      <trkpt lat="44.05886" lon="6.80515">
        <ele>1460</ele>
        <time>2013-09-22T10:35:43Z</time>
      </trkpt>
      <trkpt lat="44.05887" lon="6.80506">
        <ele>1460</ele>
        <time>2013-09-22T10:35:51Z</time>
      </trkpt>
      <trkpt lat="44.05888" lon="6.805">
        <ele>1460</ele>
        <time>2013-09-22T10:35:56Z</time>
      </trkpt>
      <trkpt lat="44.05889" lon="6.80492">
        <ele>1461</ele>
        <time>2013-09-22T10:36:04Z</time>
      </trkpt>
      <trkpt lat="44.05892" lon="6.80486">
        <ele>1461</ele>
        <time>2013-09-22T10:36:11Z</time>
      </trkpt>
      <trkpt lat="44.05894" lon="6.80472">
        <ele>1461</ele>
        <time>2013-09-22T10:36:24Z</time>
      </trkpt>
      <trkpt lat="44.05902" lon="6.80449">
        <ele>1462</ele>
        <time>2013-09-22T10:36:41Z</time>
      </trkpt>
      <trkpt lat="44.05909" lon="6.80432">
        <ele>1462</ele>
        <time>2013-09-22T10:36:56Z</time>
      </trkpt>
      <trkpt lat="44.05912" lon="6.80425">
        <ele>1463</ele>
        <time>2013-09-22T10:37:03Z</time>
      </trkpt>
      <trkpt lat="44.05919" lon="6.8041">
        <ele>1464</ele>
        <time>2013-09-22T10:37:19Z</time>
      </trkpt>
      <trkpt lat="44.0592" lon="6.804">
        <ele>1464</ele>
        <time>2013-09-22T10:37:26Z</time>
      </trkpt>
      <trkpt lat="44.05916" lon="6.80397">
        <ele>1465</ele>
        <time>2013-09-22T10:37:35Z</time>
      </trkpt>
      <trkpt lat="44.05914" lon="6.80396">
        <ele>1466</ele>
        <time>2013-09-22T10:37:46Z</time>
      </trkpt>
      <trkpt lat="44.05905" lon="6.8039">
        <ele>1469</ele>
        <time>2013-09-22T10:38:03Z</time>
      </trkpt>
      <trkpt lat="44.05898" lon="6.80389">
        <ele>1470</ele>
        <time>2013-09-22T10:38:11Z</time>
      </trkpt>
      <trkpt lat="44.05889" lon="6.80387">
        <ele>1471</ele>
        <time>2013-09-22T10:38:20Z</time>
      </trkpt>
      <trkpt lat="44.05889" lon="6.80383">
        <ele>1474</ele>
        <time>2013-09-22T10:38:43Z</time>
      </trkpt>
      <trkpt lat="44.05888" lon="6.80374">
        <ele>1475</ele>
        <time>2013-09-22T10:38:50Z</time>
      </trkpt>
      <trkpt lat="44.05889" lon="6.80369">
        <ele>1476</ele>
        <time>2013-09-22T10:38:58Z</time>
      </trkpt>
      <trkpt lat="44.05893" lon="6.8036">
        <ele>1477</ele>
        <time>2013-09-22T10:39:12Z</time>
      </trkpt>
      <trkpt lat="44.05892" lon="6.80361">
        <ele>1477</ele>
        <time>2013-09-22T10:39:22Z</time>
      </trkpt>
      <trkpt lat="44.05896" lon="6.80346">
        <ele>1486</ele>
        <time>2013-09-22T10:41:07Z</time>
      </trkpt>
      <trkpt lat="44.05891" lon="6.80334">
        <ele>1486</ele>
        <time>2013-09-22T10:41:20Z</time>
      </trkpt>
      <trkpt lat="44.05887" lon="6.80327">
        <ele>1486</ele>
        <time>2013-09-22T10:41:32Z</time>
      </trkpt>
      <trkpt lat="44.05879" lon="6.80328">
        <ele>1487</ele>
        <time>2013-09-22T10:41:43Z</time>
      </trkpt>
      <trkpt lat="44.05865" lon="6.80326">
        <ele>1487</ele>
        <time>2013-09-22T10:42:00Z</time>
      </trkpt>
      <trkpt lat="44.0586" lon="6.80318">
        <ele>1488</ele>
        <time>2013-09-22T10:42:15Z</time>
      </trkpt>
      <trkpt lat="44.05859" lon="6.8031">
        <ele>1488</ele>
        <time>2013-09-22T10:42:26Z</time>
      </trkpt>
      <trkpt lat="44.05854" lon="6.80306">
        <ele>1488</ele>
        <time>2013-09-22T10:42:39Z</time>
      </trkpt>
      <trkpt lat="44.05849" lon="6.80313">
        <ele>1488</ele>
        <time>2013-09-22T10:42:50Z</time>
      </trkpt>
      <trkpt lat="44.05845" lon="6.80317">
        <ele>1487</ele>
        <time>2013-09-22T10:43:06Z</time>
      </trkpt>
      <trkpt lat="44.05838" lon="6.80323">
        <ele>1486</ele>
        <time>2013-09-22T10:43:28Z</time>
      </trkpt>
      <trkpt lat="44.05833" lon="6.80322">
        <ele>1486</ele>
        <time>2013-09-22T10:43:42Z</time>
      </trkpt>
      <trkpt lat="44.05824" lon="6.80335">
        <ele>1486</ele>
        <time>2013-09-22T10:43:52Z</time>
      </trkpt>
      <trkpt lat="44.05798" lon="6.80375">
        <ele>1485</ele>
        <time>2013-09-22T10:44:02Z</time>
      </trkpt>
      <trkpt lat="44.05777" lon="6.80393">
        <ele>1484</ele>
        <time>2013-09-22T10:44:08Z</time>
      </trkpt>
      <trkpt lat="44.05762" lon="6.80395">
        <ele>1484</ele>
        <time>2013-09-22T10:44:12Z</time>
      </trkpt>
      <trkpt lat="44.05747" lon="6.80402">
        <ele>1484</ele>
        <time>2013-09-22T10:44:19Z</time>
      </trkpt>
      <trkpt lat="44.05737" lon="6.80413">
        <ele>1483</ele>
        <time>2013-09-22T10:44:25Z</time>
      </trkpt>
      <trkpt lat="44.05718" lon="6.80435">
        <ele>1483</ele>
        <time>2013-09-22T10:44:35Z</time>
      </trkpt>
      <trkpt lat="44.05711" lon="6.80439">
        <ele>1482</ele>
        <time>2013-09-22T10:44:40Z</time>
      </trkpt>
      <trkpt lat="44.05695" lon="6.80457">
        <ele>1482</ele>
        <time>2013-09-22T10:44:51Z</time>
      </trkpt>
      <trkpt lat="44.05677" lon="6.80463">
        <ele>1481</ele>
        <time>2013-09-22T10:45:01Z</time>
      </trkpt>
      <trkpt lat="44.05647" lon="6.8046">
        <ele>1481</ele>
        <time>2013-09-22T10:45:09Z</time>
      </trkpt>
      <trkpt lat="44.05634" lon="6.80455">
        <ele>1481</ele>
        <time>2013-09-22T10:45:13Z</time>
      </trkpt>
      <trkpt lat="44.05605" lon="6.80446">
        <ele>1480</ele>
        <time>2013-09-22T10:45:19Z</time>
      </trkpt>
      <trkpt lat="44.05591" lon="6.80442">
        <ele>1480</ele>
        <time>2013-09-22T10:45:23Z</time>
      </trkpt>
      <trkpt lat="44.05576" lon="6.80445">
        <ele>1479</ele>
        <time>2013-09-22T10:45:29Z</time>
      </trkpt>
      <trkpt lat="44.05556" lon="6.80438">
        <ele>1479</ele>
        <time>2013-09-22T10:45:35Z</time>
      </trkpt>
      <trkpt lat="44.05521" lon="6.80425">
        <ele>1478</ele>
        <time>2013-09-22T10:45:45Z</time>
      </trkpt>
      <trkpt lat="44.05487" lon="6.80401">
        <ele>1476</ele>
        <time>2013-09-22T10:45:54Z</time>
      </trkpt>
      <trkpt lat="44.0547" lon="6.8039">
        <ele>1476</ele>
        <time>2013-09-22T10:45:58Z</time>
      </trkpt>
      <trkpt lat="44.05453" lon="6.80387">
        <ele>1475</ele>
        <time>2013-09-22T10:46:02Z</time>
      </trkpt>
      <trkpt lat="44.05439" lon="6.8038">
        <ele>1475</ele>
        <time>2013-09-22T10:46:07Z</time>
      </trkpt>
      <trkpt lat="44.05423" lon="6.80381">
        <ele>1474</ele>
        <time>2013-09-22T10:46:11Z</time>
      </trkpt>
      <trkpt lat="44.05394" lon="6.80386">
        <ele>1473</ele>
        <time>2013-09-22T10:46:17Z</time>
      </trkpt>
      <trkpt lat="44.05379" lon="6.80398">
        <ele>1473</ele>
        <time>2013-09-22T10:46:21Z</time>
      </trkpt>
      <trkpt lat="44.05362" lon="6.80411">
        <ele>1472</ele>
        <time>2013-09-22T10:46:25Z</time>
      </trkpt>
      <trkpt lat="44.05356" lon="6.8041">
        <ele>1471</ele>
        <time>2013-09-22T10:46:28Z</time>
      </trkpt>
      <trkpt lat="44.05343" lon="6.80415">
        <ele>1471</ele>
        <time>2013-09-22T10:46:31Z</time>
      </trkpt>
      <trkpt lat="44.05317" lon="6.80414">
        <ele>1470</ele>
        <time>2013-09-22T10:46:38Z</time>
      </trkpt>
      <trkpt lat="44.05304" lon="6.8042">
        <ele>1469</ele>
        <time>2013-09-22T10:46:42Z</time>
      </trkpt>
      <trkpt lat="44.05279" lon="6.80427">
        <ele>1468</ele>
        <time>2013-09-22T10:46:49Z</time>
      </trkpt>
      <trkpt lat="44.05276" lon="6.80428">
        <ele>1467</ele>
        <time>2013-09-22T10:46:53Z</time>
      </trkpt>
      <trkpt lat="44.05272" lon="6.80432">
        <ele>1466</ele>
        <time>2013-09-22T10:46:59Z</time>
      </trkpt>
      <trkpt lat="44.05271" lon="6.80432">
        <ele>1466</ele>
        <time>2013-09-22T10:47:01Z</time>
      </trkpt>
      <trkpt lat="44.05262" lon="6.80435">
        <ele>1461</ele>
        <time>2013-09-22T10:47:30Z</time>
      </trkpt>
      <trkpt lat="44.05257" lon="6.80428">
        <ele>1451</ele>
        <time>2013-09-22T10:48:58Z</time>
      </trkpt>
      <trkpt lat="44.05241" lon="6.80427">
        <ele>1450</ele>
        <time>2013-09-22T10:49:04Z</time>
      </trkpt>
      <trkpt lat="44.0523" lon="6.80425">
        <ele>1450</ele>
        <time>2013-09-22T10:49:08Z</time>
      </trkpt>
      <trkpt lat="44.05192" lon="6.80411">
        <ele>1449</ele>
        <time>2013-09-22T10:49:17Z</time>
      </trkpt>
      <trkpt lat="44.0518" lon="6.80399">
        <ele>1448</ele>
        <time>2013-09-22T10:49:21Z</time>
      </trkpt>
      <trkpt lat="44.05169" lon="6.80391">
        <ele>1448</ele>
        <time>2013-09-22T10:49:24Z</time>
      </trkpt>
      <trkpt lat="44.05151" lon="6.80373">
        <ele>1447</ele>
        <time>2013-09-22T10:49:29Z</time>
      </trkpt>
      <trkpt lat="44.05149" lon="6.80371">
        <ele>1447</ele>
        <time>2013-09-22T10:49:35Z</time>
      </trkpt>
      <trkpt lat="44.05143" lon="6.80361">
        <ele>1446</ele>
        <time>2013-09-22T10:49:43Z</time>
      </trkpt>
      <trkpt lat="44.05143" lon="6.80352">
        <ele>1445</ele>
        <time>2013-09-22T10:49:50Z</time>
      </trkpt>
      <trkpt lat="44.05135" lon="6.80347">
        <ele>1444</ele>
        <time>2013-09-22T10:50:02Z</time>
      </trkpt>
      <trkpt lat="44.05133" lon="6.80345">
        <ele>1443</ele>
        <time>2013-09-22T10:50:15Z</time>
      </trkpt>
      <trkpt lat="44.05134" lon="6.80344">
        <ele>1440</ele>
        <time>2013-09-22T10:50:51Z</time>
      </trkpt>
      <trkpt lat="44.05136" lon="6.80348">
        <ele>1439</ele>
        <time>2013-09-22T10:51:01Z</time>
      </trkpt>
      <trkpt lat="44.05135" lon="6.80352">
        <ele>1438</ele>
        <time>2013-09-22T10:51:19Z</time>
      </trkpt>
      <trkpt lat="44.05139" lon="6.8036">
        <ele>1437</ele>
        <time>2013-09-22T10:51:37Z</time>
      </trkpt>
      <trkpt lat="44.05145" lon="6.80375">
        <ele>1436</ele>
        <time>2013-09-22T10:51:48Z</time>
      </trkpt>
      <trkpt lat="44.05154" lon="6.80384">
        <ele>1435</ele>
        <time>2013-09-22T10:51:58Z</time>
      </trkpt>
      <trkpt lat="44.05157" lon="6.80389">
        <ele>1435</ele>
        <time>2013-09-22T10:52:04Z</time>
      </trkpt>
      <trkpt lat="44.05167" lon="6.80395">
        <ele>1434</ele>
        <time>2013-09-22T10:52:17Z</time>
      </trkpt>
      <trkpt lat="44.0518" lon="6.80408">
        <ele>1434</ele>
        <time>2013-09-22T10:52:31Z</time>
      </trkpt>
      <trkpt lat="44.05183" lon="6.8041">
        <ele>1433</ele>
        <time>2013-09-22T10:52:37Z</time>
      </trkpt>
      <trkpt lat="44.05177" lon="6.80414">
        <ele>1432</ele>
        <time>2013-09-22T10:52:56Z</time>
      </trkpt>
      <trkpt lat="44.05169" lon="6.80414">
        <ele>1432</ele>
        <time>2013-09-22T10:52:59Z</time>
      </trkpt>
      <trkpt lat="44.0516" lon="6.80411">
        <ele>1432</ele>
        <time>2013-09-22T10:53:04Z</time>
      </trkpt>
      <trkpt lat="44.05151" lon="6.8041">
        <ele>1431</ele>
        <time>2013-09-22T10:53:10Z</time>
      </trkpt>
      <trkpt lat="44.05133" lon="6.80414">
        <ele>1430</ele>
        <time>2013-09-22T10:53:17Z</time>
      </trkpt>
      <trkpt lat="44.05122" lon="6.80408">
        <ele>1429</ele>
        <time>2013-09-22T10:53:21Z</time>
      </trkpt>
      <trkpt lat="44.05111" lon="6.80412">
        <ele>1429</ele>
        <time>2013-09-22T10:53:25Z</time>
      </trkpt>
      <trkpt lat="44.05101" lon="6.80415">
        <ele>1428</ele>
        <time>2013-09-22T10:53:29Z</time>
      </trkpt>
      <trkpt lat="44.05077" lon="6.80408">
        <ele>1427</ele>
        <time>2013-09-22T10:53:35Z</time>
      </trkpt>
      <trkpt lat="44.05063" lon="6.80423">
        <ele>1425</ele>
        <time>2013-09-22T10:53:42Z</time>
      </trkpt>
      <trkpt lat="44.0505" lon="6.80438">
        <ele>1424</ele>
        <time>2013-09-22T10:53:47Z</time>
      </trkpt>
      <trkpt lat="44.05043" lon="6.80461">
        <ele>1423</ele>
        <time>2013-09-22T10:53:54Z</time>
      </trkpt>
      <trkpt lat="44.05037" lon="6.8048">
        <ele>1420</ele>
        <time>2013-09-22T10:54:09Z</time>
      </trkpt>
      <trkpt lat="44.05032" lon="6.805">
        <ele>1419</ele>
        <time>2013-09-22T10:54:16Z</time>
      </trkpt>
      <trkpt lat="44.05016" lon="6.80546">
        <ele>1412</ele>
        <time>2013-09-22T10:54:59Z</time>
      </trkpt>
      <trkpt lat="44.05013" lon="6.8057">
        <ele>1411</ele>
        <time>2013-09-22T10:55:04Z</time>
      </trkpt>
      <trkpt lat="44.05013" lon="6.80594">
        <ele>1410</ele>
        <time>2013-09-22T10:55:09Z</time>
      </trkpt>
      <trkpt lat="44.05" lon="6.80614">
        <ele>1409</ele>
        <time>2013-09-22T10:55:15Z</time>
      </trkpt>
      <trkpt lat="44.04978" lon="6.80626">
        <ele>1408</ele>
        <time>2013-09-22T10:55:22Z</time>
      </trkpt>
      <trkpt lat="44.04971" lon="6.80631">
        <ele>1407</ele>
        <time>2013-09-22T10:55:24Z</time>
      </trkpt>
      <trkpt lat="44.04958" lon="6.80651">
        <ele>1405</ele>
        <time>2013-09-22T10:55:32Z</time>
      </trkpt>
      <trkpt lat="44.04955" lon="6.80652">
        <ele>1403</ele>
        <time>2013-09-22T10:55:40Z</time>
      </trkpt>
      <trkpt lat="44.04941" lon="6.80693">
        <ele>1392</ele>
        <time>2013-09-22T10:56:22Z</time>
      </trkpt>
      <trkpt lat="44.04934" lon="6.80721">
        <ele>1391</ele>
        <time>2013-09-22T10:56:26Z</time>
      </trkpt>
      <trkpt lat="44.0493" lon="6.80736">
        <ele>1390</ele>
        <time>2013-09-22T10:56:30Z</time>
      </trkpt>
      <trkpt lat="44.04922" lon="6.8075">
        <ele>1389</ele>
        <time>2013-09-22T10:56:35Z</time>
      </trkpt>
      <trkpt lat="44.04908" lon="6.8076">
        <ele>1387</ele>
        <time>2013-09-22T10:56:44Z</time>
      </trkpt>
      <trkpt lat="44.04909" lon="6.80762">
        <ele>1385</ele>
        <time>2013-09-22T10:56:53Z</time>
      </trkpt>
      <trkpt lat="44.04907" lon="6.80765">
        <ele>1379</ele>
        <time>2013-09-22T10:57:23Z</time>
      </trkpt>
      <trkpt lat="44.04899" lon="6.80771">
        <ele>1378</ele>
        <time>2013-09-22T10:57:27Z</time>
      </trkpt>
      <trkpt lat="44.04888" lon="6.80794">
        <ele>1377</ele>
        <time>2013-09-22T10:57:32Z</time>
      </trkpt>
      <trkpt lat="44.0487" lon="6.80825">
        <ele>1375</ele>
        <time>2013-09-22T10:57:40Z</time>
      </trkpt>
      <trkpt lat="44.04857" lon="6.80857">
        <ele>1374</ele>
        <time>2013-09-22T10:57:45Z</time>
      </trkpt>
      <trkpt lat="44.04848" lon="6.80876">
        <ele>1373</ele>
        <time>2013-09-22T10:57:48Z</time>
      </trkpt>
      <trkpt lat="44.04838" lon="6.80895">
        <ele>1371</ele>
        <time>2013-09-22T10:57:53Z</time>
      </trkpt>
      <trkpt lat="44.04814" lon="6.80931">
        <ele>1368</ele>
        <time>2013-09-22T10:58:06Z</time>
      </trkpt>
      <trkpt lat="44.04801" lon="6.80944">
        <ele>1366</ele>
        <time>2013-09-22T10:58:17Z</time>
      </trkpt>
      <trkpt lat="44.048" lon="6.8095">
        <ele>1365</ele>
        <time>2013-09-22T10:58:22Z</time>
      </trkpt>
      <trkpt lat="44.04799" lon="6.80957">
        <ele>1364</ele>
        <time>2013-09-22T10:58:29Z</time>
      </trkpt>
      <trkpt lat="44.04798" lon="6.80965">
        <ele>1362</ele>
        <time>2013-09-22T10:58:41Z</time>
      </trkpt>
      <trkpt lat="44.04801" lon="6.80973">
        <ele>1361</ele>
        <time>2013-09-22T10:58:55Z</time>
      </trkpt>
      <trkpt lat="44.04801" lon="6.80987">
        <ele>1359</ele>
        <time>2013-09-22T10:59:08Z</time>
      </trkpt>
      <trkpt lat="44.04797" lon="6.81004">
        <ele>1359</ele>
        <time>2013-09-22T10:59:22Z</time>
      </trkpt>
      <trkpt lat="44.04797" lon="6.81007">
        <ele>1358</ele>
        <time>2013-09-22T10:59:28Z</time>
      </trkpt>
      <trkpt lat="44.04795" lon="6.81036">
        <ele>1358</ele>
        <time>2013-09-22T10:59:38Z</time>
      </trkpt>
      <trkpt lat="44.04782" lon="6.81059">
        <ele>1357</ele>
        <time>2013-09-22T10:59:45Z</time>
      </trkpt>
      <trkpt lat="44.04777" lon="6.81067">
        <ele>1357</ele>
        <time>2013-09-22T10:59:50Z</time>
      </trkpt>
      <trkpt lat="44.0478" lon="6.8108">
        <ele>1356</ele>
        <time>2013-09-22T11:00:01Z</time>
      </trkpt>
      <trkpt lat="44.04779" lon="6.81082">
        <ele>1356</ele>
        <time>2013-09-22T11:00:05Z</time>
      </trkpt>
      <trkpt lat="44.04782" lon="6.81098">
        <ele>1355</ele>
        <time>2013-09-22T11:00:18Z</time>
      </trkpt>
      <trkpt lat="44.04784" lon="6.81118">
        <ele>1352</ele>
        <time>2013-09-22T11:01:46Z</time>
      </trkpt>
      <trkpt lat="44.04785" lon="6.81129">
        <ele>1352</ele>
        <time>2013-09-22T11:01:50Z</time>
      </trkpt>
      <trkpt lat="44.04783" lon="6.81136">
        <ele>1352</ele>
        <time>2013-09-22T11:01:53Z</time>
      </trkpt>
      <trkpt lat="44.04779" lon="6.81141">
        <ele>1352</ele>
        <time>2013-09-22T11:01:58Z</time>
      </trkpt>
      <trkpt lat="44.0478" lon="6.81144">
        <ele>1352</ele>
        <time>2013-09-22T11:02:05Z</time>
      </trkpt>
      <trkpt lat="44.04783" lon="6.81144">
        <ele>1352</ele>
        <time>2013-09-22T11:02:38Z</time>
      </trkpt>
      <trkpt lat="44.04784" lon="6.81134">
        <ele>1353</ele>
        <time>2013-09-22T11:02:47Z</time>
      </trkpt>
      <trkpt lat="44.04787" lon="6.81119">
        <ele>1354</ele>
        <time>2013-09-22T11:03:02Z</time>
      </trkpt>
      <trkpt lat="44.04788" lon="6.81122">
        <ele>1357</ele>
        <time>2013-09-22T11:03:37Z</time>
      </trkpt>
      <trkpt lat="44.04791" lon="6.81142">
        <ele>1357</ele>
        <time>2013-09-22T11:03:42Z</time>
      </trkpt>
      <trkpt lat="44.04798" lon="6.8116">
        <ele>1357</ele>
        <time>2013-09-22T11:03:47Z</time>
      </trkpt>
      <trkpt lat="44.04804" lon="6.8117">
        <ele>1357</ele>
        <time>2013-09-22T11:03:52Z</time>
      </trkpt>
      <trkpt lat="44.04804" lon="6.81184">
        <ele>1357</ele>
        <time>2013-09-22T11:04:01Z</time>
      </trkpt>
      <trkpt lat="44.04803" lon="6.81193">
        <ele>1356</ele>
        <time>2013-09-22T11:04:55Z</time>
      </trkpt>
      <trkpt lat="44.048" lon="6.81199">
        <ele>1356</ele>
        <time>2013-09-22T11:05:01Z</time>
      </trkpt>
      <trkpt lat="44.04796" lon="6.81208">
        <ele>1355</ele>
        <time>2013-09-22T11:05:15Z</time>
      </trkpt>
      <trkpt lat="44.04794" lon="6.81216">
        <ele>1354</ele>
        <time>2013-09-22T11:05:30Z</time>
      </trkpt>
      <trkpt lat="44.04795" lon="6.81221">
        <ele>1353</ele>
        <time>2013-09-22T11:05:44Z</time>
      </trkpt>
      <trkpt lat="44.04795" lon="6.81231">
        <ele>1350</ele>
        <time>2013-09-22T11:06:09Z</time>
      </trkpt>
      <trkpt lat="44.04797" lon="6.81237">
        <ele>1349</ele>
        <time>2013-09-22T11:06:22Z</time>
      </trkpt>
      <trkpt lat="44.04796" lon="6.81247">
        <ele>1347</ele>
        <time>2013-09-22T11:06:36Z</time>
      </trkpt>
      <trkpt lat="44.04797" lon="6.8126">
        <ele>1346</ele>
        <time>2013-09-22T11:06:51Z</time>
      </trkpt>
      <trkpt lat="44.04799" lon="6.81275">
        <ele>1345</ele>
        <time>2013-09-22T11:06:57Z</time>
      </trkpt>
      <trkpt lat="44.04799" lon="6.81275">
        <ele>1343</ele>
        <time>2013-09-22T11:07:06Z</time>
      </trkpt>
      <trkpt lat="44.04795" lon="6.81286">
        <ele>1341</ele>
        <time>2013-09-22T11:07:23Z</time>
      </trkpt>
      <trkpt lat="44.04797" lon="6.81296">
        <ele>1338</ele>
        <time>2013-09-22T11:07:43Z</time>
      </trkpt>
      <trkpt lat="44.04802" lon="6.81299">
        <ele>1336</ele>
        <time>2013-09-22T11:07:54Z</time>
      </trkpt>
      <trkpt lat="44.04803" lon="6.81302">
        <ele>1334</ele>
        <time>2013-09-22T11:08:02Z</time>
      </trkpt>
      <trkpt lat="44.04808" lon="6.81309">
        <ele>1330</ele>
        <time>2013-09-22T11:08:31Z</time>
      </trkpt>
      <trkpt lat="44.04819" lon="6.81332">
        <ele>1328</ele>
        <time>2013-09-22T11:08:39Z</time>
      </trkpt>
      <trkpt lat="44.04828" lon="6.81352">
        <ele>1326</ele>
        <time>2013-09-22T11:08:45Z</time>
      </trkpt>
      <trkpt lat="44.04831" lon="6.81376">
        <ele>1325</ele>
        <time>2013-09-22T11:08:50Z</time>
      </trkpt>
      <trkpt lat="44.0483" lon="6.81392">
        <ele>1323</ele>
        <time>2013-09-22T11:08:55Z</time>
      </trkpt>
      <trkpt lat="44.04828" lon="6.81389">
        <ele>1305</ele>
        <time>2013-09-22T11:10:15Z</time>
      </trkpt>
      <trkpt lat="44.04845" lon="6.81404">
        <ele>1296</ele>
        <time>2013-09-22T11:11:21Z</time>
      </trkpt>
      <trkpt lat="44.04844" lon="6.81434">
        <ele>1295</ele>
        <time>2013-09-22T11:11:26Z</time>
      </trkpt>
      <trkpt lat="44.04833" lon="6.81457">
        <ele>1294</ele>
        <time>2013-09-22T11:11:33Z</time>
      </trkpt>
      <trkpt lat="44.04816" lon="6.81468">
        <ele>1292</ele>
        <time>2013-09-22T11:11:42Z</time>
      </trkpt>
      <trkpt lat="44.04806" lon="6.8147">
        <ele>1292</ele>
        <time>2013-09-22T11:11:46Z</time>
      </trkpt>
      <trkpt lat="44.04795" lon="6.81479">
        <ele>1290</ele>
        <time>2013-09-22T11:11:53Z</time>
      </trkpt>
      <trkpt lat="44.04793" lon="6.81486">
        <ele>1287</ele>
        <time>2013-09-22T11:12:09Z</time>
      </trkpt>
      <trkpt lat="44.04792" lon="6.81489">
        <ele>1284</ele>
        <time>2013-09-22T11:12:19Z</time>
      </trkpt>
      <trkpt lat="44.04789" lon="6.81494">
        <ele>1279</ele>
        <time>2013-09-22T11:12:45Z</time>
      </trkpt>
      <trkpt lat="44.04781" lon="6.815">
        <ele>1279</ele>
        <time>2013-09-22T11:12:48Z</time>
      </trkpt>
      <trkpt lat="44.04773" lon="6.81516">
        <ele>1278</ele>
        <time>2013-09-22T11:12:53Z</time>
      </trkpt>
      <trkpt lat="44.0477" lon="6.81526">
        <ele>1277</ele>
        <time>2013-09-22T11:12:59Z</time>
      </trkpt>
      <trkpt lat="44.04765" lon="6.81546">
        <ele>1276</ele>
        <time>2013-09-22T11:13:06Z</time>
      </trkpt>
      <trkpt lat="44.04767" lon="6.81562">
        <ele>1275</ele>
        <time>2013-09-22T11:13:12Z</time>
      </trkpt>
      <trkpt lat="44.04765" lon="6.81567">
        <ele>1275</ele>
        <time>2013-09-22T11:13:20Z</time>
      </trkpt>
      <trkpt lat="44.04762" lon="6.81573">
        <ele>1274</ele>
        <time>2013-09-22T11:13:33Z</time>
      </trkpt>
      <trkpt lat="44.04754" lon="6.81579">
        <ele>1273</ele>
        <time>2013-09-22T11:13:49Z</time>
      </trkpt>
      <trkpt lat="44.04744" lon="6.81583">
        <ele>1272</ele>
        <time>2013-09-22T11:14:08Z</time>
      </trkpt>
      <trkpt lat="44.04741" lon="6.81583">
        <ele>1273</ele>
        <time>2013-09-22T11:14:54Z</time>
      </trkpt>
      <trkpt lat="44.04725" lon="6.81601">
        <ele>1275</ele>
        <time>2013-09-22T11:15:15Z</time>
      </trkpt>
      <trkpt lat="44.0471" lon="6.8161">
        <ele>1277</ele>
        <time>2013-09-22T11:15:33Z</time>
      </trkpt>
      <trkpt lat="44.04699" lon="6.81618">
        <ele>1279</ele>
        <time>2013-09-22T11:15:50Z</time>
      </trkpt>
      <trkpt lat="44.04691" lon="6.81628">
        <ele>1280</ele>
        <time>2013-09-22T11:16:01Z</time>
      </trkpt>
      <trkpt lat="44.0466" lon="6.81666">
        <ele>1280</ele>
        <time>2013-09-22T11:16:11Z</time>
      </trkpt>
      <trkpt lat="44.04652" lon="6.8168">
        <ele>1280</ele>
        <time>2013-09-22T11:16:14Z</time>
      </trkpt>
      <trkpt lat="44.04636" lon="6.81701">
        <ele>1280</ele>
        <time>2013-09-22T11:16:19Z</time>
      </trkpt>
      <trkpt lat="44.04622" lon="6.81718">
        <ele>1279</ele>
        <time>2013-09-22T11:16:24Z</time>
      </trkpt>
      <trkpt lat="44.04616" lon="6.81729">
        <ele>1279</ele>
        <time>2013-09-22T11:16:30Z</time>
      </trkpt>
      <trkpt lat="44.0461" lon="6.8174">
        <ele>1278</ele>
        <time>2013-09-22T11:16:36Z</time>
      </trkpt>
      <trkpt lat="44.04593" lon="6.81769">
        <ele>1278</ele>
        <time>2013-09-22T11:16:52Z</time>
      </trkpt>
      <trkpt lat="44.04587" lon="6.81784">
        <ele>1277</ele>
        <time>2013-09-22T11:17:01Z</time>
      </trkpt>
      <trkpt lat="44.04583" lon="6.81787">
        <ele>1277</ele>
        <time>2013-09-22T11:17:06Z</time>
      </trkpt>
      <trkpt lat="44.04577" lon="6.81781">
        <ele>1276</ele>
        <time>2013-09-22T11:18:10Z</time>
      </trkpt>
      <trkpt lat="44.04552" lon="6.81756">
        <ele>1276</ele>
        <time>2013-09-22T11:18:20Z</time>
      </trkpt>
      <trkpt lat="44.04519" lon="6.81754">
        <ele>1275</ele>
        <time>2013-09-22T11:18:31Z</time>
      </trkpt>
      <trkpt lat="44.04492" lon="6.81766">
        <ele>1275</ele>
        <time>2013-09-22T11:18:39Z</time>
      </trkpt>
      <trkpt lat="44.04489" lon="6.81769">
        <ele>1272</ele>
        <time>2013-09-22T11:19:02Z</time>
      </trkpt>
      <trkpt lat="44.0448" lon="6.8177">
        <ele>1272</ele>
        <time>2013-09-22T11:19:08Z</time>
      </trkpt>
      <trkpt lat="44.04473" lon="6.81772">
        <ele>1270</ele>
        <time>2013-09-22T11:19:16Z</time>
      </trkpt>
      <trkpt lat="44.04462" lon="6.81796">
        <ele>1269</ele>
        <time>2013-09-22T11:19:25Z</time>
      </trkpt>
      <trkpt lat="44.04448" lon="6.81828">
        <ele>1267</ele>
        <time>2013-09-22T11:19:38Z</time>
      </trkpt>
      <trkpt lat="44.04448" lon="6.81832">
        <ele>1267</ele>
        <time>2013-09-22T11:19:43Z</time>
      </trkpt>
      <trkpt lat="44.04449" lon="6.81833">
        <ele>1263</ele>
        <time>2013-09-22T11:20:14Z</time>
      </trkpt>
      <trkpt lat="44.04446" lon="6.81834">
        <ele>1258</ele>
        <time>2013-09-22T11:21:03Z</time>
      </trkpt>
      <trkpt lat="44.04432" lon="6.81835">
        <ele>1256</ele>
        <time>2013-09-22T11:21:45Z</time>
      </trkpt>
      <trkpt lat="44.04419" lon="6.8185">
        <ele>1255</ele>
        <time>2013-09-22T11:21:50Z</time>
      </trkpt>
      <trkpt lat="44.04419" lon="6.81851">
        <ele>1255</ele>
        <time>2013-09-22T11:21:52Z</time>
      </trkpt>
      <trkpt lat="44.04413" lon="6.81852">
        <ele>1254</ele>
        <time>2013-09-22T11:22:01Z</time>
      </trkpt>
      <trkpt lat="44.04409" lon="6.81856">
        <ele>1253</ele>
        <time>2013-09-22T11:22:05Z</time>
      </trkpt>
      <trkpt lat="44.04398" lon="6.81866">
        <ele>1252</ele>
        <time>2013-09-22T11:22:09Z</time>
      </trkpt>
      <trkpt lat="44.04382" lon="6.81868">
        <ele>1251</ele>
        <time>2013-09-22T11:22:15Z</time>
      </trkpt>
      <trkpt lat="44.04366" lon="6.81846">
        <ele>1249</ele>
        <time>2013-09-22T11:22:23Z</time>
      </trkpt>
      <trkpt lat="44.0436" lon="6.81838">
        <ele>1248</ele>
        <time>2013-09-22T11:22:28Z</time>
      </trkpt>
      <trkpt lat="44.04358" lon="6.81843">
        <ele>1247</ele>
        <time>2013-09-22T11:22:33Z</time>
      </trkpt>
      <trkpt lat="44.04358" lon="6.81847">
        <ele>1246</ele>
        <time>2013-09-22T11:22:38Z</time>
      </trkpt>
      <trkpt lat="44.04356" lon="6.81854">
        <ele>1243</ele>
        <time>2013-09-22T11:22:49Z</time>
      </trkpt>
      <trkpt lat="44.04352" lon="6.81864">
        <ele>1240</ele>
        <time>2013-09-22T11:23:04Z</time>
      </trkpt>
      <trkpt lat="44.04351" lon="6.81868">
        <ele>1238</ele>
        <time>2013-09-22T11:23:13Z</time>
      </trkpt>
      <trkpt lat="44.04333" lon="6.81794">
        <ele>1216</ele>
        <time>2013-09-22T11:25:51Z</time>
      </trkpt>
      <trkpt lat="44.04338" lon="6.81783">
        <ele>1215</ele>
        <time>2013-09-22T11:26:03Z</time>
      </trkpt>
      <trkpt lat="44.04343" lon="6.81779">
        <ele>1215</ele>
        <time>2013-09-22T11:26:17Z</time>
      </trkpt>
      <trkpt lat="44.04348" lon="6.81772">
        <ele>1214</ele>
        <time>2013-09-22T11:26:31Z</time>
      </trkpt>
      <trkpt lat="44.04358" lon="6.81744">
        <ele>1214</ele>
        <time>2013-09-22T11:26:40Z</time>
      </trkpt>
      <trkpt lat="44.04366" lon="6.81733">
        <ele>1213</ele>
        <time>2013-09-22T11:26:44Z</time>
      </trkpt>
      <trkpt lat="44.0437" lon="6.81725">
        <ele>1213</ele>
        <time>2013-09-22T11:26:48Z</time>
      </trkpt>
      <trkpt lat="44.04375" lon="6.81726">
        <ele>1213</ele>
        <time>2013-09-22T11:27:01Z</time>
      </trkpt>
      <trkpt lat="44.04381" lon="6.81719">
        <ele>1212</ele>
        <time>2013-09-22T11:27:20Z</time>
      </trkpt>
      <trkpt lat="44.04397" lon="6.81694">
        <ele>1212</ele>
        <time>2013-09-22T11:27:30Z</time>
      </trkpt>
      <trkpt lat="44.04398" lon="6.81681">
        <ele>1211</ele>
        <time>2013-09-22T11:27:34Z</time>
      </trkpt>
      <trkpt lat="44.04408" lon="6.81652">
        <ele>1210</ele>
        <time>2013-09-22T11:27:42Z</time>
      </trkpt>
      <trkpt lat="44.04417" lon="6.81628">
        <ele>1209</ele>
        <time>2013-09-22T11:27:50Z</time>
      </trkpt>
      <trkpt lat="44.04417" lon="6.81592">
        <ele>1208</ele>
        <time>2013-09-22T11:27:59Z</time>
      </trkpt>
      <trkpt lat="44.04425" lon="6.81568">
        <ele>1206</ele>
        <time>2013-09-22T11:28:09Z</time>
      </trkpt>
      <trkpt lat="44.04434" lon="6.81537">
        <ele>1205</ele>
        <time>2013-09-22T11:28:19Z</time>
      </trkpt>
      <trkpt lat="44.04431" lon="6.81514">
        <ele>1203</ele>
        <time>2013-09-22T11:28:26Z</time>
      </trkpt>
      <trkpt lat="44.04423" lon="6.81515">
        <ele>1203</ele>
        <time>2013-09-22T11:28:30Z</time>
      </trkpt>
      <trkpt lat="44.04407" lon="6.81519">
        <ele>1201</ele>
        <time>2013-09-22T11:28:38Z</time>
      </trkpt>
      <trkpt lat="44.0438" lon="6.81523">
        <ele>1199</ele>
        <time>2013-09-22T11:28:48Z</time>
      </trkpt>
      <trkpt lat="44.04358" lon="6.81531">
        <ele>1198</ele>
        <time>2013-09-22T11:28:57Z</time>
      </trkpt>
      <trkpt lat="44.04346" lon="6.81538">
        <ele>1196</ele>
        <time>2013-09-22T11:29:04Z</time>
      </trkpt>
      <trkpt lat="44.04346" lon="6.81549">
        <ele>1193</ele>
        <time>2013-09-22T11:29:26Z</time>
      </trkpt>
      <trkpt lat="44.04346" lon="6.81556">
        <ele>1192</ele>
        <time>2013-09-22T11:29:33Z</time>
      </trkpt>
      <trkpt lat="44.04336" lon="6.8156">
        <ele>1189</ele>
        <time>2013-09-22T11:29:48Z</time>
      </trkpt>
      <trkpt lat="44.04316" lon="6.81552">
        <ele>1187</ele>
        <time>2013-09-22T11:30:00Z</time>
      </trkpt>
      <trkpt lat="44.04287" lon="6.81551">
        <ele>1185</ele>
        <time>2013-09-22T11:30:09Z</time>
      </trkpt>
      <trkpt lat="44.04278" lon="6.81548">
        <ele>1184</ele>
        <time>2013-09-22T11:30:13Z</time>
      </trkpt>
      <trkpt lat="44.04259" lon="6.81543">
        <ele>1181</ele>
        <time>2013-09-22T11:30:23Z</time>
      </trkpt>
      <trkpt lat="44.04258" lon="6.81537">
        <ele>1178</ele>
        <time>2013-09-22T11:30:36Z</time>
      </trkpt>
      <trkpt lat="44.0426" lon="6.81527">
        <ele>1177</ele>
        <time>2013-09-22T11:30:40Z</time>
      </trkpt>
      <trkpt lat="44.04261" lon="6.81512">
        <ele>1176</ele>
        <time>2013-09-22T11:30:44Z</time>
      </trkpt>
      <trkpt lat="44.04261" lon="6.81507">
        <ele>1172</ele>
        <time>2013-09-22T11:31:00Z</time>
      </trkpt>
      <trkpt lat="44.04261" lon="6.81502">
        <ele>1170</ele>
        <time>2013-09-22T11:31:08Z</time>
      </trkpt>
      <trkpt lat="44.04255" lon="6.81502">
        <ele>1165</ele>
        <time>2013-09-22T11:31:33Z</time>
      </trkpt>
      <trkpt lat="44.04248" lon="6.81506">
        <ele>1162</ele>
        <time>2013-09-22T11:31:47Z</time>
      </trkpt>
      <trkpt lat="44.04243" lon="6.81517">
        <ele>1159</ele>
        <time>2013-09-22T11:32:01Z</time>
      </trkpt>
      <trkpt lat="44.04233" lon="6.81521">
        <ele>1155</ele>
        <time>2013-09-22T11:32:19Z</time>
      </trkpt>
      <trkpt lat="44.04229" lon="6.81515">
        <ele>1153</ele>
        <time>2013-09-22T11:32:33Z</time>
      </trkpt>
      <trkpt lat="44.04222" lon="6.8152">
        <ele>1151</ele>
        <time>2013-09-22T11:32:43Z</time>
      </trkpt>
      <trkpt lat="44.04219" lon="6.81524">
        <ele>1150</ele>
        <time>2013-09-22T11:32:48Z</time>
      </trkpt>
      <trkpt lat="44.04216" lon="6.81531">
        <ele>1148</ele>
        <time>2013-09-22T11:32:59Z</time>
      </trkpt>
      <trkpt lat="44.04211" lon="6.81543">
        <ele>1144</ele>
        <time>2013-09-22T11:33:14Z</time>
      </trkpt>
      <trkpt lat="44.04205" lon="6.81555">
        <ele>1143</ele>
        <time>2013-09-22T11:33:19Z</time>
      </trkpt>
      <trkpt lat="44.04198" lon="6.81552">
        <ele>1142</ele>
        <time>2013-09-22T11:33:27Z</time>
      </trkpt>
      <trkpt lat="44.04189" lon="6.8155">
        <ele>1140</ele>
        <time>2013-09-22T11:33:32Z</time>
      </trkpt>
      <trkpt lat="44.04191" lon="6.81557">
        <ele>1139</ele>
        <time>2013-09-22T11:33:37Z</time>
      </trkpt>
      <trkpt lat="44.04194" lon="6.81564">
        <ele>1137</ele>
        <time>2013-09-22T11:33:46Z</time>
      </trkpt>
      <trkpt lat="44.04187" lon="6.81564">
        <ele>1134</ele>
        <time>2013-09-22T11:33:57Z</time>
      </trkpt>
      <trkpt lat="44.04182" lon="6.81563">
        <ele>1130</ele>
        <time>2013-09-22T11:34:13Z</time>
      </trkpt>
      <trkpt lat="44.0417" lon="6.81555">
        <ele>1128</ele>
        <time>2013-09-22T11:34:24Z</time>
      </trkpt>
      <trkpt lat="44.04163" lon="6.8155">
        <ele>1125</ele>
        <time>2013-09-22T11:34:35Z</time>
      </trkpt>
      <trkpt lat="44.04159" lon="6.8155">
        <ele>1124</ele>
        <time>2013-09-22T11:34:40Z</time>
      </trkpt>
      <trkpt lat="44.04157" lon="6.81547">
        <ele>1123</ele>
        <time>2013-09-22T11:34:44Z</time>
      </trkpt>
      <trkpt lat="44.04156" lon="6.81542">
        <ele>1118</ele>
        <time>2013-09-22T11:35:10Z</time>
      </trkpt>
      <trkpt lat="44.04152" lon="6.81534">
        <ele>1115</ele>
        <time>2013-09-22T11:35:22Z</time>
      </trkpt>
      <trkpt lat="44.04147" lon="6.81539">
        <ele>1113</ele>
        <time>2013-09-22T11:35:30Z</time>
      </trkpt>
      <trkpt lat="44.04144" lon="6.81544">
        <ele>1112</ele>
        <time>2013-09-22T11:35:37Z</time>
      </trkpt>
      <trkpt lat="44.04138" lon="6.81555">
        <ele>1109</ele>
        <time>2013-09-22T11:35:49Z</time>
      </trkpt>
      <trkpt lat="44.04134" lon="6.81558">
        <ele>1108</ele>
        <time>2013-09-22T11:35:54Z</time>
      </trkpt>
      <trkpt lat="44.04131" lon="6.81554">
        <ele>1106</ele>
        <time>2013-09-22T11:36:00Z</time>
      </trkpt>
      <trkpt lat="44.04127" lon="6.81551">
        <ele>1105</ele>
        <time>2013-09-22T11:36:06Z</time>
      </trkpt>
      <trkpt lat="44.04125" lon="6.81551">
        <ele>1103</ele>
        <time>2013-09-22T11:36:11Z</time>
      </trkpt>
      <trkpt lat="44.04116" lon="6.81554">
        <ele>1100</ele>
        <time>2013-09-22T11:36:24Z</time>
      </trkpt>
      <trkpt lat="44.0411" lon="6.8156">
        <ele>1098</ele>
        <time>2013-09-22T11:36:33Z</time>
      </trkpt>
      <trkpt lat="44.04107" lon="6.8156">
        <ele>1097</ele>
        <time>2013-09-22T11:36:36Z</time>
      </trkpt>
      <trkpt lat="44.04099" lon="6.8156">
        <ele>1094</ele>
        <time>2013-09-22T11:36:46Z</time>
      </trkpt>
      <trkpt lat="44.04097" lon="6.8156">
        <ele>1092</ele>
        <time>2013-09-22T11:36:53Z</time>
      </trkpt>
      <trkpt lat="44.04094" lon="6.81553">
        <ele>1075</ele>
        <time>2013-09-22T11:38:39Z</time>
      </trkpt>
      <trkpt lat="44.04092" lon="6.81539">
        <ele>1074</ele>
        <time>2013-09-22T11:38:51Z</time>
      </trkpt>
      <trkpt lat="44.04088" lon="6.81542">
        <ele>1073</ele>
        <time>2013-09-22T11:38:59Z</time>
      </trkpt>
      <trkpt lat="44.04079" lon="6.81542">
        <ele>1072</ele>
        <time>2013-09-22T11:39:08Z</time>
      </trkpt>
      <trkpt lat="44.0407" lon="6.81546">
        <ele>1071</ele>
        <time>2013-09-22T11:39:13Z</time>
      </trkpt>
      <trkpt lat="44.0405" lon="6.81543">
        <ele>1070</ele>
        <time>2013-09-22T11:39:22Z</time>
      </trkpt>
      <trkpt lat="44.04039" lon="6.81544">
        <ele>1068</ele>
        <time>2013-09-22T11:39:31Z</time>
      </trkpt>
      <trkpt lat="44.04042" lon="6.81549">
        <ele>1067</ele>
        <time>2013-09-22T11:39:44Z</time>
      </trkpt>
      <trkpt lat="44.04039" lon="6.81551">
        <ele>1066</ele>
        <time>2013-09-22T11:39:49Z</time>
      </trkpt>
      <trkpt lat="44.04029" lon="6.81544">
        <ele>1064</ele>
        <time>2013-09-22T11:40:00Z</time>
      </trkpt>
      <trkpt lat="44.0402" lon="6.81539">
        <ele>1063</ele>
        <time>2013-09-22T11:40:07Z</time>
      </trkpt>
      <trkpt lat="44.04007" lon="6.81539">
        <ele>1061</ele>
        <time>2013-09-22T11:40:20Z</time>
      </trkpt>
      <trkpt lat="44.04005" lon="6.81537">
        <ele>1061</ele>
        <time>2013-09-22T11:40:25Z</time>
      </trkpt>
      <trkpt lat="44.04002" lon="6.81534">
        <ele>1058</ele>
        <time>2013-09-22T11:40:46Z</time>
      </trkpt>
      <trkpt lat="44.03996" lon="6.81534">
        <ele>1056</ele>
        <time>2013-09-22T11:40:58Z</time>
      </trkpt>
      <trkpt lat="44.03971" lon="6.81528">
        <ele>1055</ele>
        <time>2013-09-22T11:41:08Z</time>
      </trkpt>
      <trkpt lat="44.0394" lon="6.81512">
        <ele>1053</ele>
        <time>2013-09-22T11:41:19Z</time>
      </trkpt>
      <trkpt lat="44.03915" lon="6.81476">
        <ele>1051</ele>
        <time>2013-09-22T11:41:30Z</time>
      </trkpt>
      <trkpt lat="44.03897" lon="6.81459">
        <ele>1049</ele>
        <time>2013-09-22T11:41:39Z</time>
      </trkpt>
      <trkpt lat="44.03893" lon="6.81458">
        <ele>1047</ele>
        <time>2013-09-22T11:41:49Z</time>
      </trkpt>
      <trkpt lat="44.03888" lon="6.81449">
        <ele>1044</ele>
        <time>2013-09-22T11:42:02Z</time>
      </trkpt>
      <trkpt lat="44.03879" lon="6.81445">
        <ele>1041</ele>
        <time>2013-09-22T11:42:14Z</time>
      </trkpt>
      <trkpt lat="44.03881" lon="6.81435">
        <ele>1039</ele>
        <time>2013-09-22T11:42:24Z</time>
      </trkpt>
      <trkpt lat="44.0388" lon="6.81432">
        <ele>1038</ele>
        <time>2013-09-22T11:42:28Z</time>
      </trkpt>
      <trkpt lat="44.03879" lon="6.81431">
        <ele>1037</ele>
        <time>2013-09-22T11:42:31Z</time>
      </trkpt>
      <trkpt lat="44.03873" lon="6.81427">
        <ele>1034</ele>
        <time>2013-09-22T11:42:44Z</time>
      </trkpt>
      <trkpt lat="44.03867" lon="6.81425">
        <ele>1031</ele>
        <time>2013-09-22T11:42:56Z</time>
      </trkpt>
      <trkpt lat="44.03861" lon="6.81417">
        <ele>1028</ele>
        <time>2013-09-22T11:43:08Z</time>
      </trkpt>
      <trkpt lat="44.03849" lon="6.814">
        <ele>1026</ele>
        <time>2013-09-22T11:43:18Z</time>
      </trkpt>
      <trkpt lat="44.03829" lon="6.81379">
        <ele>1023</ele>
        <time>2013-09-22T11:43:27Z</time>
      </trkpt>
      <trkpt lat="44.03822" lon="6.8137">
        <ele>1022</ele>
        <time>2013-09-22T11:43:31Z</time>
      </trkpt>
      <trkpt lat="44.03811" lon="6.81347">
        <ele>1020</ele>
        <time>2013-09-22T11:43:40Z</time>
      </trkpt>
      <trkpt lat="44.03792" lon="6.81328">
        <ele>1017</ele>
        <time>2013-09-22T11:43:49Z</time>
      </trkpt>
      <trkpt lat="44.03774" lon="6.81304">
        <ele>1013</ele>
        <time>2013-09-22T11:43:58Z</time>
      </trkpt>
      <trkpt lat="44.03753" lon="6.81279">
        <ele>1010</ele>
        <time>2013-09-22T11:44:06Z</time>
      </trkpt>
      <trkpt lat="44.03736" lon="6.81267">
        <ele>1008</ele>
        <time>2013-09-22T11:44:12Z</time>
      </trkpt>
      <trkpt lat="44.03726" lon="6.8125">
        <ele>1006</ele>
        <time>2013-09-22T11:44:17Z</time>
      </trkpt>
      <trkpt lat="44.03699" lon="6.81238">
        <ele>1002</ele>
        <time>2013-09-22T11:44:27Z</time>
      </trkpt>
      <trkpt lat="44.03678" lon="6.81219">
        <ele>999</ele>
        <time>2013-09-22T11:44:38Z</time>
      </trkpt>
      <trkpt lat="44.03656" lon="6.81186">
        <ele>995</ele>
        <time>2013-09-22T11:44:51Z</time>
      </trkpt>
      <trkpt lat="44.03638" lon="6.8116">
        <ele>992</ele>
        <time>2013-09-22T11:45:02Z</time>
      </trkpt>
      <trkpt lat="44.03622" lon="6.81136">
        <ele>988</ele>
        <time>2013-09-22T11:45:15Z</time>
      </trkpt>
      <trkpt lat="44.03623" lon="6.81121">
        <ele>987</ele>
        <time>2013-09-22T11:45:21Z</time>
      </trkpt>
      <trkpt lat="44.03625" lon="6.81117">
        <ele>986</ele>
        <time>2013-09-22T11:45:25Z</time>
      </trkpt>
      <trkpt lat="44.03624" lon="6.81117">
        <ele>985</ele>
        <time>2013-09-22T11:45:31Z</time>
      </trkpt>
      <trkpt lat="44.03623" lon="6.8112">
        <ele>969</ele>
        <time>2013-09-22T11:47:00Z</time>
      </trkpt>
      <trkpt lat="44.03629" lon="6.8112">
        <ele>964</ele>
        <time>2013-09-22T11:47:47Z</time>
      </trkpt>
      <trkpt lat="44.0363" lon="6.81118">
        <ele>962</ele>
        <time>2013-09-22T11:48:03Z</time>
      </trkpt>
      <trkpt lat="44.0363" lon="6.81111">
        <ele>962</ele>
        <time>2013-09-22T11:48:08Z</time>
      </trkpt>
      <trkpt lat="44.03621" lon="6.81098">
        <ele>961</ele>
        <time>2013-09-22T11:48:16Z</time>
      </trkpt>
      <trkpt lat="44.03621" lon="6.81092">
        <ele>960</ele>
        <time>2013-09-22T11:48:24Z</time>
      </trkpt>
      <trkpt lat="44.03608" lon="6.81091">
        <ele>958</ele>
        <time>2013-09-22T11:48:37Z</time>
      </trkpt>
      <trkpt lat="44.036" lon="6.81085">
        <ele>957</ele>
        <time>2013-09-22T11:48:49Z</time>
      </trkpt>
      <trkpt lat="44.03588" lon="6.81074">
        <ele>956</ele>
        <time>2013-09-22T11:48:59Z</time>
      </trkpt>
      <trkpt lat="44.03597" lon="6.81071">
        <ele>955</ele>
        <time>2013-09-22T11:49:12Z</time>
      </trkpt>
      <trkpt lat="44.03603" lon="6.81066">
        <ele>953</ele>
        <time>2013-09-22T11:49:27Z</time>
      </trkpt>
      <trkpt lat="44.03605" lon="6.81064">
        <ele>952</ele>
        <time>2013-09-22T11:49:38Z</time>
      </trkpt>
      <trkpt lat="44.03608" lon="6.81054">
        <ele>951</ele>
        <time>2013-09-22T11:49:52Z</time>
      </trkpt>
      <trkpt lat="44.03613" lon="6.81049">
        <ele>949</ele>
        <time>2013-09-22T11:50:06Z</time>
      </trkpt>
      <trkpt lat="44.03617" lon="6.81044">
        <ele>948</ele>
        <time>2013-09-22T11:50:18Z</time>
      </trkpt>
      <trkpt lat="44.03615" lon="6.81037">
        <ele>947</ele>
        <time>2013-09-22T11:50:37Z</time>
      </trkpt>
      <trkpt lat="44.03592" lon="6.81018">
        <ele>946</ele>
        <time>2013-09-22T11:50:47Z</time>
      </trkpt>
      <trkpt lat="44.03601" lon="6.81004">
        <ele>945</ele>
        <time>2013-09-22T11:50:55Z</time>
      </trkpt>
      <trkpt lat="44.0359" lon="6.80994">
        <ele>944</ele>
        <time>2013-09-22T11:51:02Z</time>
      </trkpt>
      <trkpt lat="44.0359" lon="6.80992">
        <ele>943</ele>
        <time>2013-09-22T11:51:17Z</time>
      </trkpt>
      <trkpt lat="44.0359" lon="6.80987">
        <ele>941</ele>
        <time>2013-09-22T11:51:30Z</time>
      </trkpt>
      <trkpt lat="44.0358" lon="6.80988">
        <ele>939</ele>
        <time>2013-09-22T11:51:41Z</time>
      </trkpt>
      <trkpt lat="44.03578" lon="6.80985">
        <ele>938</ele>
        <time>2013-09-22T11:51:46Z</time>
      </trkpt>
      <trkpt lat="44.0358" lon="6.80979">
        <ele>937</ele>
        <time>2013-09-22T11:51:54Z</time>
      </trkpt>
      <trkpt lat="44.03582" lon="6.80969">
        <ele>935</ele>
        <time>2013-09-22T11:52:07Z</time>
      </trkpt>
      <trkpt lat="44.03576" lon="6.80966">
        <ele>933</ele>
        <time>2013-09-22T11:52:20Z</time>
      </trkpt>
      <trkpt lat="44.03572" lon="6.80964">
        <ele>933</ele>
        <time>2013-09-22T11:52:23Z</time>
      </trkpt>
      <trkpt lat="44.03564" lon="6.8096">
        <ele>932</ele>
        <time>2013-09-22T11:52:28Z</time>
      </trkpt>
      <trkpt lat="44.0356" lon="6.80949">
        <ele>930</ele>
        <time>2013-09-22T11:52:36Z</time>
      </trkpt>
      <trkpt lat="44.03561" lon="6.80941">
        <ele>929</ele>
        <time>2013-09-22T11:52:44Z</time>
      </trkpt>
      <trkpt lat="44.03559" lon="6.8093">
        <ele>928</ele>
        <time>2013-09-22T11:52:49Z</time>
      </trkpt>
      <trkpt lat="44.03548" lon="6.80919">
        <ele>926</ele>
        <time>2013-09-22T11:52:57Z</time>
      </trkpt>
      <trkpt lat="44.03545" lon="6.80919">
        <ele>925</ele>
        <time>2013-09-22T11:53:02Z</time>
      </trkpt>
      <trkpt lat="44.03527" lon="6.80909">
        <ele>923</ele>
        <time>2013-09-22T11:53:10Z</time>
      </trkpt>
      <trkpt lat="44.03519" lon="6.80908">
        <ele>923</ele>
        <time>2013-09-22T11:53:13Z</time>
      </trkpt>
      <trkpt lat="44.03509" lon="6.80901">
        <ele>922</ele>
        <time>2013-09-22T11:53:17Z</time>
      </trkpt>
      <trkpt lat="44.03493" lon="6.80894">
        <ele>920</ele>
        <time>2013-09-22T11:53:23Z</time>
      </trkpt>
      <trkpt lat="44.03478" lon="6.80888">
        <ele>919</ele>
        <time>2013-09-22T11:53:29Z</time>
      </trkpt>
      <trkpt lat="44.03468" lon="6.80885">
        <ele>917</ele>
        <time>2013-09-22T11:53:34Z</time>
      </trkpt>
      <trkpt lat="44.03465" lon="6.80879">
        <ele>916</ele>
        <time>2013-09-22T11:53:37Z</time>
      </trkpt>
      <trkpt lat="44.03463" lon="6.80875">
        <ele>915</ele>
        <time>2013-09-22T11:53:42Z</time>
      </trkpt>
      <trkpt lat="44.03456" lon="6.8087">
        <ele>913</ele>
        <time>2013-09-22T11:53:49Z</time>
      </trkpt>
      <trkpt lat="44.03455" lon="6.80861">
        <ele>911</ele>
        <time>2013-09-22T11:53:53Z</time>
      </trkpt>
      <trkpt lat="44.03454" lon="6.80858">
        <ele>909</ele>
        <time>2013-09-22T11:54:02Z</time>
      </trkpt>
      <trkpt lat="44.03449" lon="6.80862">
        <ele>904</ele>
        <time>2013-09-22T11:54:16Z</time>
      </trkpt>
      <trkpt lat="44.03446" lon="6.8086">
        <ele>903</ele>
        <time>2013-09-22T11:54:21Z</time>
      </trkpt>
      <trkpt lat="44.03446" lon="6.8085">
        <ele>900</ele>
        <time>2013-09-22T11:54:29Z</time>
      </trkpt>
      <trkpt lat="44.03449" lon="6.80838">
        <ele>897</ele>
        <time>2013-09-22T11:54:40Z</time>
      </trkpt>
      <trkpt lat="44.03446" lon="6.80832">
        <ele>895</ele>
        <time>2013-09-22T11:54:44Z</time>
      </trkpt>
      <trkpt lat="44.03442" lon="6.80835">
        <ele>894</ele>
        <time>2013-09-22T11:54:49Z</time>
      </trkpt>
      <trkpt lat="44.03432" lon="6.80846">
        <ele>891</ele>
        <time>2013-09-22T11:54:58Z</time>
      </trkpt>
      <trkpt lat="44.03429" lon="6.80851">
        <ele>890</ele>
        <time>2013-09-22T11:55:03Z</time>
      </trkpt>
      <trkpt lat="44.03416" lon="6.80862">
        <ele>887</ele>
        <time>2013-09-22T11:55:12Z</time>
      </trkpt>
      <trkpt lat="44.03411" lon="6.80865">
        <ele>884</ele>
        <time>2013-09-22T11:55:21Z</time>
      </trkpt>
      <trkpt lat="44.03406" lon="6.80867">
        <ele>880</ele>
        <time>2013-09-22T11:55:32Z</time>
      </trkpt>
      <trkpt lat="44.03399" lon="6.80873">
        <ele>877</ele>
        <time>2013-09-22T11:55:43Z</time>
      </trkpt>
      <trkpt lat="44.03394" lon="6.80873">
        <ele>874</ele>
        <time>2013-09-22T11:55:52Z</time>
      </trkpt>
      <trkpt lat="44.03395" lon="6.80865">
        <ele>872</ele>
        <time>2013-09-22T11:55:59Z</time>
      </trkpt>
      <trkpt lat="44.03397" lon="6.80856">
        <ele>868</ele>
        <time>2013-09-22T11:56:11Z</time>
      </trkpt>
      <trkpt lat="44.03398" lon="6.80843">
        <ele>865</ele>
        <time>2013-09-22T11:56:19Z</time>
      </trkpt>
      <trkpt lat="44.03391" lon="6.8084">
        <ele>861</ele>
        <time>2013-09-22T11:56:34Z</time>
      </trkpt>
      <trkpt lat="44.03394" lon="6.80829">
        <ele>858</ele>
        <time>2013-09-22T11:56:45Z</time>
      </trkpt>
      <trkpt lat="44.03395" lon="6.80823">
        <ele>856</ele>
        <time>2013-09-22T11:56:50Z</time>
      </trkpt>
      <trkpt lat="44.03395" lon="6.80819">
        <ele>855</ele>
        <time>2013-09-22T11:56:55Z</time>
      </trkpt>
      <trkpt lat="44.03391" lon="6.80808">
        <ele>851</ele>
        <time>2013-09-22T11:57:08Z</time>
      </trkpt>
      <trkpt lat="44.03389" lon="6.8081">
        <ele>850</ele>
        <time>2013-09-22T11:57:14Z</time>
      </trkpt>
      <trkpt lat="44.03386" lon="6.80814">
        <ele>848</ele>
        <time>2013-09-22T11:57:20Z</time>
      </trkpt>
      <trkpt lat="44.03379" lon="6.80808">
        <ele>847</ele>
        <time>2013-09-22T11:57:25Z</time>
      </trkpt>
      <trkpt lat="44.03373" lon="6.80807">
        <ele>845</ele>
        <time>2013-09-22T11:57:30Z</time>
      </trkpt>
      <trkpt lat="44.03368" lon="6.80808">
        <ele>844</ele>
        <time>2013-09-22T11:57:35Z</time>
      </trkpt>
      <trkpt lat="44.03368" lon="6.80803">
        <ele>841</ele>
        <time>2013-09-22T11:57:45Z</time>
      </trkpt>
      <trkpt lat="44.03363" lon="6.80768">
        <ele>839</ele>
        <time>2013-09-22T11:57:53Z</time>
      </trkpt>
      <trkpt lat="44.03369" lon="6.80759">
        <ele>835</ele>
        <time>2013-09-22T11:58:09Z</time>
      </trkpt>
      <trkpt lat="44.03371" lon="6.80752">
        <ele>833</ele>
        <time>2013-09-22T11:58:19Z</time>
      </trkpt>
      <trkpt lat="44.0337" lon="6.80743">
        <ele>831</ele>
        <time>2013-09-22T11:58:30Z</time>
      </trkpt>
      <trkpt lat="44.0337" lon="6.80726">
        <ele>828</ele>
        <time>2013-09-22T11:58:43Z</time>
      </trkpt>
      <trkpt lat="44.03371" lon="6.80718">
        <ele>825</ele>
        <time>2013-09-22T11:58:57Z</time>
      </trkpt>
      <trkpt lat="44.0337" lon="6.80711">
        <ele>825</ele>
        <time>2013-09-22T11:59:02Z</time>
      </trkpt>
      <trkpt lat="44.03368" lon="6.80701">
        <ele>823</ele>
        <time>2013-09-22T11:59:10Z</time>
      </trkpt>
      <trkpt lat="44.03366" lon="6.80699">
        <ele>822</ele>
        <time>2013-09-22T11:59:15Z</time>
      </trkpt>
      <trkpt lat="44.03365" lon="6.80696">
        <ele>821</ele>
        <time>2013-09-22T11:59:21Z</time>
      </trkpt>
      <trkpt lat="44.0336" lon="6.80694">
        <ele>816</ele>
        <time>2013-09-22T11:59:53Z</time>
      </trkpt>
      <trkpt lat="44.03365" lon="6.80699">
        <ele>808</ele>
        <time>2013-09-22T12:00:45Z</time>
      </trkpt>
      <trkpt lat="44.03366" lon="6.80706">
        <ele>789</ele>
        <time>2013-09-22T12:04:14Z</time>
      </trkpt>
      <trkpt lat="44.03345" lon="6.80718">
        <ele>788</ele>
        <time>2013-09-22T12:04:25Z</time>
      </trkpt>
      <trkpt lat="44.03329" lon="6.80741">
        <ele>787</ele>
        <time>2013-09-22T12:04:32Z</time>
      </trkpt>
      <trkpt lat="44.03308" lon="6.80764">
        <ele>786</ele>
        <time>2013-09-22T12:04:39Z</time>
      </trkpt>
      <trkpt lat="44.03299" lon="6.80776">
        <ele>785</ele>
        <time>2013-09-22T12:04:44Z</time>
      </trkpt>
      <trkpt lat="44.03297" lon="6.80822">
        <ele>784</ele>
        <time>2013-09-22T12:04:52Z</time>
      </trkpt>
      <trkpt lat="44.03291" lon="6.80831">
        <ele>784</ele>
        <time>2013-09-22T12:04:55Z</time>
      </trkpt>
      <trkpt lat="44.0328" lon="6.80841">
        <ele>783</ele>
        <time>2013-09-22T12:05:01Z</time>
      </trkpt>
      <trkpt lat="44.03265" lon="6.80856">
        <ele>782</ele>
        <time>2013-09-22T12:05:11Z</time>
      </trkpt>
      <trkpt lat="44.0326" lon="6.80857">
        <ele>781</ele>
        <time>2013-09-22T12:05:16Z</time>
      </trkpt>
      <trkpt lat="44.03259" lon="6.80857">
        <ele>780</ele>
        <time>2013-09-22T12:05:22Z</time>
      </trkpt>
      <trkpt lat="44.03238" lon="6.80872">
        <ele>779</ele>
        <time>2013-09-22T12:05:34Z</time>
      </trkpt>
      <trkpt lat="44.03201" lon="6.8089">
        <ele>778</ele>
        <time>2013-09-22T12:05:41Z</time>
      </trkpt>
      <trkpt lat="44.03188" lon="6.80902">
        <ele>777</ele>
        <time>2013-09-22T12:05:44Z</time>
      </trkpt>
      <trkpt lat="44.03162" lon="6.80902">
        <ele>776</ele>
        <time>2013-09-22T12:05:50Z</time>
      </trkpt>
      <trkpt lat="44.03125" lon="6.80886">
        <ele>775</ele>
        <time>2013-09-22T12:05:57Z</time>
      </trkpt>
      <trkpt lat="44.03094" lon="6.80884">
        <ele>774</ele>
        <time>2013-09-22T12:06:07Z</time>
      </trkpt>
      <trkpt lat="44.03064" lon="6.8089">
        <ele>772</ele>
        <time>2013-09-22T12:06:20Z</time>
      </trkpt>
      <trkpt lat="44.03031" lon="6.80879">
        <ele>770</ele>
        <time>2013-09-22T12:06:29Z</time>
      </trkpt>
      <trkpt lat="44.02977" lon="6.80882">
        <ele>769</ele>
        <time>2013-09-22T12:06:39Z</time>
      </trkpt>
      <trkpt lat="44.02948" lon="6.8089">
        <ele>768</ele>
        <time>2013-09-22T12:06:43Z</time>
      </trkpt>
      <trkpt lat="44.02929" lon="6.809">
        <ele>767</ele>
        <time>2013-09-22T12:06:46Z</time>
      </trkpt>
      <trkpt lat="44.02906" lon="6.80909">
        <ele>766</ele>
        <time>2013-09-22T12:06:50Z</time>
      </trkpt>
      <trkpt lat="44.02897" lon="6.80934">
        <ele>765</ele>
        <time>2013-09-22T12:06:55Z</time>
      </trkpt>
      <trkpt lat="44.02872" lon="6.80958">
        <ele>763</ele>
        <time>2013-09-22T12:07:01Z</time>
      </trkpt>
      <trkpt lat="44.02845" lon="6.80967">
        <ele>762</ele>
        <time>2013-09-22T12:07:05Z</time>
      </trkpt>
      <trkpt lat="44.02831" lon="6.80965">
        <ele>761</ele>
        <time>2013-09-22T12:07:08Z</time>
      </trkpt>
      <trkpt lat="44.02809" lon="6.80991">
        <ele>759</ele>
        <time>2013-09-22T12:07:14Z</time>
      </trkpt>
      <trkpt lat="44.02802" lon="6.8102">
        <ele>758</ele>
        <time>2013-09-22T12:07:17Z</time>
      </trkpt>
      <trkpt lat="44.02823" lon="6.81067">
        <ele>755</ele>
        <time>2013-09-22T12:07:23Z</time>
      </trkpt>
      <trkpt lat="44.02857" lon="6.8109">
        <ele>752</ele>
        <time>2013-09-22T12:07:29Z</time>
      </trkpt>
      <trkpt lat="44.02849" lon="6.81099">
        <ele>750</ele>
        <time>2013-09-22T12:07:33Z</time>
      </trkpt>
      <trkpt lat="44.0284" lon="6.81093">
        <ele>749</ele>
        <time>2013-09-22T12:07:35Z</time>
      </trkpt>
      <trkpt lat="44.02801" lon="6.81078">
        <ele>746</ele>
        <time>2013-09-22T12:07:42Z</time>
      </trkpt>
      <trkpt lat="44.02785" lon="6.81104">
        <ele>743</ele>
        <time>2013-09-22T12:07:49Z</time>
      </trkpt>
      <trkpt lat="44.0277" lon="6.81109">
        <ele>741</ele>
        <time>2013-09-22T12:07:53Z</time>
      </trkpt>
      <trkpt lat="44.0271" lon="6.81126">
        <ele>737</ele>
        <time>2013-09-22T12:08:05Z</time>
      </trkpt>
      <trkpt lat="44.02653" lon="6.81153">
        <ele>733</ele>
        <time>2013-09-22T12:08:14Z</time>
      </trkpt>
      <trkpt lat="44.02643" lon="6.8117">
        <ele>732</ele>
        <time>2013-09-22T12:08:18Z</time>
      </trkpt>
      <trkpt lat="44.02639" lon="6.81174">
        <ele>730</ele>
        <time>2013-09-22T12:08:22Z</time>
      </trkpt>
      <trkpt lat="44.0264" lon="6.81176">
        <ele>728</ele>
        <time>2013-09-22T12:08:27Z</time>
      </trkpt>
      <trkpt lat="44.02638" lon="6.81172">
        <ele>713</ele>
        <time>2013-09-22T12:09:13Z</time>
      </trkpt>
      <trkpt lat="44.0262" lon="6.81157">
        <ele>710</ele>
        <time>2013-09-22T12:09:23Z</time>
      </trkpt>
      <trkpt lat="44.02597" lon="6.81174">
        <ele>707</ele>
        <time>2013-09-22T12:09:33Z</time>
      </trkpt>
      <trkpt lat="44.0257" lon="6.81214">
        <ele>704</ele>
        <time>2013-09-22T12:09:46Z</time>
      </trkpt>
      <trkpt lat="44.02554" lon="6.81239">
        <ele>702</ele>
        <time>2013-09-22T12:09:53Z</time>
      </trkpt>
      <trkpt lat="44.02541" lon="6.81242">
        <ele>701</ele>
        <time>2013-09-22T12:09:58Z</time>
      </trkpt>
      <trkpt lat="44.02525" lon="6.81234">
        <ele>700</ele>
        <time>2013-09-22T12:10:03Z</time>
      </trkpt>
      <trkpt lat="44.02483" lon="6.81199">
        <ele>697</ele>
        <time>2013-09-22T12:10:15Z</time>
      </trkpt>
      <trkpt lat="44.02457" lon="6.81175">
        <ele>696</ele>
        <time>2013-09-22T12:10:21Z</time>
      </trkpt>
      <trkpt lat="44.02445" lon="6.81164">
        <ele>695</ele>
        <time>2013-09-22T12:10:24Z</time>
      </trkpt>
      <trkpt lat="44.02425" lon="6.81145">
        <ele>694</ele>
        <time>2013-09-22T12:10:28Z</time>
      </trkpt>
      <trkpt lat="44.02335" lon="6.81094">
        <ele>691</ele>
        <time>2013-09-22T12:10:41Z</time>
      </trkpt>
      <trkpt lat="44.02254" lon="6.81037">
        <ele>688</ele>
        <time>2013-09-22T12:10:52Z</time>
      </trkpt>
      <trkpt lat="44.02207" lon="6.81021">
        <ele>686</ele>
        <time>2013-09-22T12:10:58Z</time>
      </trkpt>
      <trkpt lat="44.02192" lon="6.80969">
        <ele>685</ele>
        <time>2013-09-22T12:11:03Z</time>
      </trkpt>
      <trkpt lat="44.02178" lon="6.80942">
        <ele>684</ele>
        <time>2013-09-22T12:11:06Z</time>
      </trkpt>
      <trkpt lat="44.02106" lon="6.80863">
        <ele>681</ele>
        <time>2013-09-22T12:11:18Z</time>
      </trkpt>
      <trkpt lat="44.02055" lon="6.80859">
        <ele>679</ele>
        <time>2013-09-22T12:11:25Z</time>
      </trkpt>
      <trkpt lat="44.0201" lon="6.80854">
        <ele>678</ele>
        <time>2013-09-22T12:11:31Z</time>
      </trkpt>
      <trkpt lat="44.01943" lon="6.80812">
        <ele>676</ele>
        <time>2013-09-22T12:11:41Z</time>
      </trkpt>
      <trkpt lat="44.01897" lon="6.80806">
        <ele>675</ele>
        <time>2013-09-22T12:11:47Z</time>
      </trkpt>
      <trkpt lat="44.01859" lon="6.80819">
        <ele>674</ele>
        <time>2013-09-22T12:11:52Z</time>
      </trkpt>
      <trkpt lat="44.01821" lon="6.80847">
        <ele>673</ele>
        <time>2013-09-22T12:11:58Z</time>
      </trkpt>
      <trkpt lat="44.01788" lon="6.80817">
        <ele>672</ele>
        <time>2013-09-22T12:12:04Z</time>
      </trkpt>
      <trkpt lat="44.01762" lon="6.80765">
        <ele>671</ele>
        <time>2013-09-22T12:12:09Z</time>
      </trkpt>
      <trkpt lat="44.01732" lon="6.80744">
        <ele>670</ele>
        <time>2013-09-22T12:12:14Z</time>
      </trkpt>
      <trkpt lat="44.01708" lon="6.80703">
        <ele>669</ele>
        <time>2013-09-22T12:12:20Z</time>
      </trkpt>
      <trkpt lat="44.01696" lon="6.80672">
        <ele>668</ele>
        <time>2013-09-22T12:12:24Z</time>
      </trkpt>
      <trkpt lat="44.0167" lon="6.80567">
        <ele>666</ele>
        <time>2013-09-22T12:12:37Z</time>
      </trkpt>
      <trkpt lat="44.01635" lon="6.80513">
        <ele>665</ele>
        <time>2013-09-22T12:12:46Z</time>
      </trkpt>
      <trkpt lat="44.01593" lon="6.80473">
        <ele>663</ele>
        <time>2013-09-22T12:12:56Z</time>
      </trkpt>
      <trkpt lat="44.01572" lon="6.80455">
        <ele>663</ele>
        <time>2013-09-22T12:13:01Z</time>
      </trkpt>
      <trkpt lat="44.01543" lon="6.8041">
        <ele>661</ele>
        <time>2013-09-22T12:13:10Z</time>
      </trkpt>
      <trkpt lat="44.015" lon="6.80372">
        <ele>660</ele>
        <time>2013-09-22T12:13:20Z</time>
      </trkpt>
      <trkpt lat="44.01485" lon="6.80365">
        <ele>660</ele>
        <time>2013-09-22T12:13:23Z</time>
      </trkpt>
      <trkpt lat="44.0146" lon="6.80322">
        <ele>659</ele>
        <time>2013-09-22T12:13:31Z</time>
      </trkpt>
      <trkpt lat="44.01442" lon="6.80295">
        <ele>658</ele>
        <time>2013-09-22T12:13:36Z</time>
      </trkpt>
      <trkpt lat="44.01427" lon="6.80282">
        <ele>658</ele>
        <time>2013-09-22T12:13:39Z</time>
      </trkpt>
      <trkpt lat="44.01373" lon="6.80253">
        <ele>657</ele>
        <time>2013-09-22T12:13:49Z</time>
      </trkpt>
      <trkpt lat="44.01316" lon="6.80209">
        <ele>655</ele>
        <time>2013-09-22T12:14:00Z</time>
      </trkpt>
      <trkpt lat="44.01302" lon="6.8018">
        <ele>655</ele>
        <time>2013-09-22T12:14:04Z</time>
      </trkpt>
      <trkpt lat="44.01295" lon="6.80157">
        <ele>654</ele>
        <time>2013-09-22T12:14:07Z</time>
      </trkpt>
      <trkpt lat="44.01278" lon="6.8012">
        <ele>654</ele>
        <time>2013-09-22T12:14:13Z</time>
      </trkpt>
      <trkpt lat="44.01271" lon="6.80089">
        <ele>653</ele>
        <time>2013-09-22T12:14:18Z</time>
      </trkpt>
      <trkpt lat="44.01264" lon="6.80072">
        <ele>653</ele>
        <time>2013-09-22T12:14:22Z</time>
      </trkpt>
      <trkpt lat="44.01243" lon="6.80033">
        <ele>652</ele>
        <time>2013-09-22T12:14:31Z</time>
      </trkpt>
      <trkpt lat="44.01213" lon="6.7996">
        <ele>650</ele>
        <time>2013-09-22T12:14:48Z</time>
      </trkpt>
      <trkpt lat="44.01184" lon="6.79915">
        <ele>649</ele>
        <time>2013-09-22T12:14:59Z</time>
      </trkpt>
      <trkpt lat="44.01165" lon="6.79886">
        <ele>649</ele>
        <time>2013-09-22T12:15:06Z</time>
      </trkpt>
      <trkpt lat="44.01122" lon="6.79847">
        <ele>648</ele>
        <time>2013-09-22T12:15:18Z</time>
      </trkpt>
      <trkpt lat="44.01071" lon="6.79806">
        <ele>647</ele>
        <time>2013-09-22T12:15:30Z</time>
      </trkpt>
      <trkpt lat="44.01009" lon="6.79732">
        <ele>646</ele>
        <time>2013-09-22T12:15:46Z</time>
      </trkpt>
      <trkpt lat="44.00952" lon="6.79652">
        <ele>645</ele>
        <time>2013-09-22T12:16:01Z</time>
      </trkpt>
      <trkpt lat="44.00908" lon="6.79578">
        <ele>644</ele>
        <time>2013-09-22T12:16:13Z</time>
      </trkpt>
      <trkpt lat="44.00871" lon="6.79528">
        <ele>643</ele>
        <time>2013-09-22T12:16:22Z</time>
      </trkpt>
      <trkpt lat="44.00851" lon="6.79498">
        <ele>643</ele>
        <time>2013-09-22T12:16:27Z</time>
      </trkpt>
      <trkpt lat="44.0079" lon="6.79393">
        <ele>642</ele>
        <time>2013-09-22T12:16:43Z</time>
      </trkpt>
      <trkpt lat="44.00746" lon="6.793">
        <ele>641</ele>
        <time>2013-09-22T12:16:56Z</time>
      </trkpt>
      <trkpt lat="44.00726" lon="6.79256">
        <ele>641</ele>
        <time>2013-09-22T12:17:02Z</time>
      </trkpt>
      <trkpt lat="44.00693" lon="6.79215">
        <ele>640</ele>
        <time>2013-09-22T12:17:09Z</time>
      </trkpt>
      <trkpt lat="44.0066" lon="6.79158">
        <ele>640</ele>
        <time>2013-09-22T12:17:17Z</time>
      </trkpt>
      <trkpt lat="44.00631" lon="6.79089">
        <ele>639</ele>
        <time>2013-09-22T12:17:25Z</time>
      </trkpt>
      <trkpt lat="44.00621" lon="6.79019">
        <ele>638</ele>
        <time>2013-09-22T12:17:32Z</time>
      </trkpt>
      <trkpt lat="44.00583" lon="6.78918">
        <ele>636</ele>
        <time>2013-09-22T12:17:44Z</time>
      </trkpt>
      <trkpt lat="44.00551" lon="6.78839">
        <ele>634</ele>
        <time>2013-09-22T12:17:55Z</time>
      </trkpt>
      <trkpt lat="44.00518" lon="6.78766">
        <ele>633</ele>
        <time>2013-09-22T12:18:05Z</time>
      </trkpt>
      <trkpt lat="44.00476" lon="6.78703">
        <ele>631</ele>
        <time>2013-09-22T12:18:14Z</time>
      </trkpt>
      <trkpt lat="44.00408" lon="6.78626">
        <ele>630</ele>
        <time>2013-09-22T12:18:25Z</time>
      </trkpt>
      <trkpt lat="44.0039" lon="6.78607">
        <ele>629</ele>
        <time>2013-09-22T12:18:28Z</time>
      </trkpt>
      <trkpt lat="44.00347" lon="6.78573">
        <ele>628</ele>
        <time>2013-09-22T12:18:35Z</time>
      </trkpt>
      <trkpt lat="44.00284" lon="6.78516">
        <ele>627</ele>
        <time>2013-09-22T12:18:46Z</time>
      </trkpt>
      <trkpt lat="44.0025" lon="6.7842">
        <ele>625</ele>
        <time>2013-09-22T12:18:56Z</time>
      </trkpt>
      <trkpt lat="44.00201" lon="6.7832">
        <ele>623</ele>
        <time>2013-09-22T12:19:08Z</time>
      </trkpt>
      <trkpt lat="44.00137" lon="6.78272">
        <ele>622</ele>
        <time>2013-09-22T12:19:19Z</time>
      </trkpt>
      <trkpt lat="44.00095" lon="6.78251">
        <ele>621</ele>
        <time>2013-09-22T12:19:26Z</time>
      </trkpt>
      <trkpt lat="44.00047" lon="6.78203">
        <ele>619</ele>
        <time>2013-09-22T12:19:35Z</time>
      </trkpt>
      <trkpt lat="44.00018" lon="6.78127">
        <ele>618</ele>
        <time>2013-09-22T12:19:44Z</time>
      </trkpt>
      <trkpt lat="43.99969" lon="6.78006">
        <ele>616</ele>
        <time>2013-09-22T12:19:58Z</time>
      </trkpt>
      <trkpt lat="43.99933" lon="6.77937">
        <ele>615</ele>
        <time>2013-09-22T12:20:06Z</time>
      </trkpt>
      <trkpt lat="43.99888" lon="6.77835">
        <ele>613</ele>
        <time>2013-09-22T12:20:18Z</time>
      </trkpt>
      <trkpt lat="43.99879" lon="6.77814">
        <ele>612</ele>
        <time>2013-09-22T12:20:24Z</time>
      </trkpt>
      <trkpt lat="43.99876" lon="6.77811">
        <ele>612</ele>
        <time>2013-09-22T12:20:29Z</time>
      </trkpt>
      <trkpt lat="43.99874" lon="6.77808">
        <ele>603</ele>
        <time>2013-09-22T12:22:44Z</time>
      </trkpt>
      <trkpt lat="43.9987" lon="6.77803">
        <ele>603</ele>
        <time>2013-09-22T12:22:47Z</time>
      </trkpt>
      <trkpt lat="43.99839" lon="6.77765">
        <ele>603</ele>
        <time>2013-09-22T12:22:56Z</time>
      </trkpt>
      <trkpt lat="43.99773" lon="6.77686">
        <ele>603</ele>
        <time>2013-09-22T12:23:10Z</time>
      </trkpt>
      <trkpt lat="43.99752" lon="6.77654">
        <ele>602</ele>
        <time>2013-09-22T12:23:15Z</time>
      </trkpt>
      <trkpt lat="43.99731" lon="6.77618">
        <ele>602</ele>
        <time>2013-09-22T12:23:20Z</time>
      </trkpt>
      <trkpt lat="43.99704" lon="6.77576">
        <ele>601</ele>
        <time>2013-09-22T12:23:26Z</time>
      </trkpt>
      <trkpt lat="43.99633" lon="6.77498">
        <ele>600</ele>
        <time>2013-09-22T12:23:38Z</time>
      </trkpt>
      <trkpt lat="43.99583" lon="6.77439">
        <ele>599</ele>
        <time>2013-09-22T12:23:46Z</time>
      </trkpt>
      <trkpt lat="43.99541" lon="6.77393">
        <ele>599</ele>
        <time>2013-09-22T12:23:52Z</time>
      </trkpt>
      <trkpt lat="43.99491" lon="6.77355">
        <ele>598</ele>
        <time>2013-09-22T12:23:58Z</time>
      </trkpt>
      <trkpt lat="43.99425" lon="6.77234">
        <ele>597</ele>
        <time>2013-09-22T12:24:09Z</time>
      </trkpt>
      <trkpt lat="43.99379" lon="6.77082">
        <ele>595</ele>
        <time>2013-09-22T12:24:21Z</time>
      </trkpt>
      <trkpt lat="43.99349" lon="6.76999">
        <ele>594</ele>
        <time>2013-09-22T12:24:28Z</time>
      </trkpt>
      <trkpt lat="43.99337" lon="6.7697">
        <ele>594</ele>
        <time>2013-09-22T12:24:31Z</time>
      </trkpt>
      <trkpt lat="43.99312" lon="6.76943">
        <ele>593</ele>
        <time>2013-09-22T12:24:35Z</time>
      </trkpt>
      <trkpt lat="43.99252" lon="6.76889">
        <ele>592</ele>
        <time>2013-09-22T12:24:45Z</time>
      </trkpt>
      <trkpt lat="43.99185" lon="6.76798">
        <ele>591</ele>
        <time>2013-09-22T12:25:00Z</time>
      </trkpt>
      <trkpt lat="43.99148" lon="6.76756">
        <ele>590</ele>
        <time>2013-09-22T12:25:08Z</time>
      </trkpt>
      <trkpt lat="43.99133" lon="6.76744">
        <ele>590</ele>
        <time>2013-09-22T12:25:11Z</time>
      </trkpt>
      <trkpt lat="43.99107" lon="6.76725">
        <ele>589</ele>
        <time>2013-09-22T12:25:16Z</time>
      </trkpt>
      <trkpt lat="43.99052" lon="6.76688">
        <ele>589</ele>
        <time>2013-09-22T12:25:25Z</time>
      </trkpt>
      <trkpt lat="43.99028" lon="6.7667">
        <ele>588</ele>
        <time>2013-09-22T12:25:29Z</time>
      </trkpt>
      <trkpt lat="43.99012" lon="6.76654">
        <ele>588</ele>
        <time>2013-09-22T12:25:32Z</time>
      </trkpt>
      <trkpt lat="43.98989" lon="6.76633">
        <ele>588</ele>
        <time>2013-09-22T12:25:36Z</time>
      </trkpt>
      <trkpt lat="43.98946" lon="6.76582">
        <ele>587</ele>
        <time>2013-09-22T12:25:45Z</time>
      </trkpt>
      <trkpt lat="43.98911" lon="6.76529">
        <ele>586</ele>
        <time>2013-09-22T12:25:54Z</time>
      </trkpt>
      <trkpt lat="43.98893" lon="6.76501">
        <ele>586</ele>
        <time>2013-09-22T12:25:59Z</time>
      </trkpt>
      <trkpt lat="43.98876" lon="6.76488">
        <ele>586</ele>
        <time>2013-09-22T12:26:02Z</time>
      </trkpt>
      <trkpt lat="43.9884" lon="6.76475">
        <ele>585</ele>
        <time>2013-09-22T12:26:08Z</time>
      </trkpt>
      <trkpt lat="43.9878" lon="6.76461">
        <ele>585</ele>
        <time>2013-09-22T12:26:17Z</time>
      </trkpt>
      <trkpt lat="43.98758" lon="6.76444">
        <ele>584</ele>
        <time>2013-09-22T12:26:21Z</time>
      </trkpt>
      <trkpt lat="43.98713" lon="6.76402">
        <ele>584</ele>
        <time>2013-09-22T12:26:30Z</time>
      </trkpt>
      <trkpt lat="43.98642" lon="6.76386">
        <ele>583</ele>
        <time>2013-09-22T12:26:42Z</time>
      </trkpt>
      <trkpt lat="43.98574" lon="6.76357">
        <ele>582</ele>
        <time>2013-09-22T12:26:55Z</time>
      </trkpt>
      <trkpt lat="43.98501" lon="6.76293">
        <ele>580</ele>
        <time>2013-09-22T12:27:11Z</time>
      </trkpt>
      <trkpt lat="43.98478" lon="6.76264">
        <ele>580</ele>
        <time>2013-09-22T12:27:17Z</time>
      </trkpt>
      <trkpt lat="43.98469" lon="6.76222">
        <ele>579</ele>
        <time>2013-09-22T12:27:23Z</time>
      </trkpt>
      <trkpt lat="43.98466" lon="6.76194">
        <ele>579</ele>
        <time>2013-09-22T12:27:27Z</time>
      </trkpt>
      <trkpt lat="43.98455" lon="6.76159">
        <ele>578</ele>
        <time>2013-09-22T12:27:32Z</time>
      </trkpt>
      <trkpt lat="43.98444" lon="6.76128">
        <ele>578</ele>
        <time>2013-09-22T12:27:36Z</time>
      </trkpt>
      <trkpt lat="43.9841" lon="6.76073">
        <ele>577</ele>
        <time>2013-09-22T12:27:44Z</time>
      </trkpt>
      <trkpt lat="43.98393" lon="6.76023">
        <ele>577</ele>
        <time>2013-09-22T12:27:50Z</time>
      </trkpt>
      <trkpt lat="43.98362" lon="6.75999">
        <ele>576</ele>
        <time>2013-09-22T12:27:55Z</time>
      </trkpt>
      <trkpt lat="43.98326" lon="6.75963">
        <ele>576</ele>
        <time>2013-09-22T12:28:01Z</time>
      </trkpt>
      <trkpt lat="43.98237" lon="6.759">
        <ele>574</ele>
        <time>2013-09-22T12:28:15Z</time>
      </trkpt>
      <trkpt lat="43.98154" lon="6.75827">
        <ele>573</ele>
        <time>2013-09-22T12:28:31Z</time>
      </trkpt>
      <trkpt lat="43.98127" lon="6.75805">
        <ele>572</ele>
        <time>2013-09-22T12:28:36Z</time>
      </trkpt>
      <trkpt lat="43.9808" lon="6.75807">
        <ele>572</ele>
        <time>2013-09-22T12:28:44Z</time>
      </trkpt>
      <trkpt lat="43.98026" lon="6.75826">
        <ele>571</ele>
        <time>2013-09-22T12:28:53Z</time>
      </trkpt>
      <trkpt lat="43.97923" lon="6.75826">
        <ele>569</ele>
        <time>2013-09-22T12:29:09Z</time>
      </trkpt>
      <trkpt lat="43.97845" lon="6.75812">
        <ele>568</ele>
        <time>2013-09-22T12:29:21Z</time>
      </trkpt>
      <trkpt lat="43.97795" lon="6.75813">
        <ele>568</ele>
        <time>2013-09-22T12:29:29Z</time>
      </trkpt>
      <trkpt lat="43.97734" lon="6.75818">
        <ele>567</ele>
        <time>2013-09-22T12:29:38Z</time>
      </trkpt>
      <trkpt lat="43.9766" lon="6.75848">
        <ele>566</ele>
        <time>2013-09-22T12:29:49Z</time>
      </trkpt>
      <trkpt lat="43.97628" lon="6.75872">
        <ele>565</ele>
        <time>2013-09-22T12:29:54Z</time>
      </trkpt>
      <trkpt lat="43.97567" lon="6.75941">
        <ele>564</ele>
        <time>2013-09-22T12:30:04Z</time>
      </trkpt>
      <trkpt lat="43.97525" lon="6.75938">
        <ele>564</ele>
        <time>2013-09-22T12:30:09Z</time>
      </trkpt>
      <trkpt lat="43.97484" lon="6.75937">
        <ele>563</ele>
        <time>2013-09-22T12:30:14Z</time>
      </trkpt>
      <trkpt lat="43.97447" lon="6.7593">
        <ele>562</ele>
        <time>2013-09-22T12:30:19Z</time>
      </trkpt>
      <trkpt lat="43.97433" lon="6.75928">
        <ele>562</ele>
        <time>2013-09-22T12:30:21Z</time>
      </trkpt>
      <trkpt lat="43.97366" lon="6.75898">
        <ele>561</ele>
        <time>2013-09-22T12:30:31Z</time>
      </trkpt>
      <trkpt lat="43.97331" lon="6.7589">
        <ele>561</ele>
        <time>2013-09-22T12:30:36Z</time>
      </trkpt>
      <trkpt lat="43.97294" lon="6.75878">
        <ele>560</ele>
        <time>2013-09-22T12:30:41Z</time>
      </trkpt>
      <trkpt lat="43.97235" lon="6.75852">
        <ele>559</ele>
        <time>2013-09-22T12:30:49Z</time>
      </trkpt>
      <trkpt lat="43.97196" lon="6.7585">
        <ele>559</ele>
        <time>2013-09-22T12:30:54Z</time>
      </trkpt>
      <trkpt lat="43.97166" lon="6.7587">
        <ele>559</ele>
        <time>2013-09-22T12:30:58Z</time>
      </trkpt>
      <trkpt lat="43.97113" lon="6.75914">
        <ele>558</ele>
        <time>2013-09-22T12:31:07Z</time>
      </trkpt>
      <trkpt lat="43.97081" lon="6.7598">
        <ele>557</ele>
        <time>2013-09-22T12:31:19Z</time>
      </trkpt>
      <trkpt lat="43.97081" lon="6.75993">
        <ele>557</ele>
        <time>2013-09-22T12:31:22Z</time>
      </trkpt>
      <trkpt lat="43.97089" lon="6.75997">
        <ele>556</ele>
        <time>2013-09-22T12:31:28Z</time>
      </trkpt>
      <trkpt lat="43.97093" lon="6.75999">
        <ele>552</ele>
        <time>2013-09-22T12:33:01Z</time>
      </trkpt>
      <trkpt lat="43.97095" lon="6.75998">
        <ele>554</ele>
        <time>2013-09-22T12:34:41Z</time>
      </trkpt>
      <trkpt lat="43.971" lon="6.75998">
        <ele>555</ele>
        <time>2013-09-22T12:34:44Z</time>
      </trkpt>
      <trkpt lat="43.97121" lon="6.7602">
        <ele>555</ele>
        <time>2013-09-22T12:34:55Z</time>
      </trkpt>
      <trkpt lat="43.97149" lon="6.76078">
        <ele>554</ele>
        <time>2013-09-22T12:35:06Z</time>
      </trkpt>
      <trkpt lat="43.97158" lon="6.76155">
        <ele>554</ele>
        <time>2013-09-22T12:35:16Z</time>
      </trkpt>
      <trkpt lat="43.97191" lon="6.76286">
        <ele>554</ele>
        <time>2013-09-22T12:35:32Z</time>
      </trkpt>
      <trkpt lat="43.97229" lon="6.76418">
        <ele>553</ele>
        <time>2013-09-22T12:35:47Z</time>
      </trkpt>
      <trkpt lat="43.97246" lon="6.76516">
        <ele>553</ele>
        <time>2013-09-22T12:35:57Z</time>
      </trkpt>
      <trkpt lat="43.97266" lon="6.76628">
        <ele>553</ele>
        <time>2013-09-22T12:36:08Z</time>
      </trkpt>
      <trkpt lat="43.97266" lon="6.76696">
        <ele>552</ele>
        <time>2013-09-22T12:36:15Z</time>
      </trkpt>
      <trkpt lat="43.97249" lon="6.76767">
        <ele>552</ele>
        <time>2013-09-22T12:36:23Z</time>
      </trkpt>
      <trkpt lat="43.97212" lon="6.76894">
        <ele>552</ele>
        <time>2013-09-22T12:36:38Z</time>
      </trkpt>
      <trkpt lat="43.97206" lon="6.77041">
        <ele>551</ele>
        <time>2013-09-22T12:36:54Z</time>
      </trkpt>
      <trkpt lat="43.97216" lon="6.77161">
        <ele>551</ele>
        <time>2013-09-22T12:37:08Z</time>
      </trkpt>
      <trkpt lat="43.97232" lon="6.77281">
        <ele>551</ele>
        <time>2013-09-22T12:37:23Z</time>
      </trkpt>
      <trkpt lat="43.97228" lon="6.77402">
        <ele>549</ele>
        <time>2013-09-22T12:37:39Z</time>
      </trkpt>
      <trkpt lat="43.97213" lon="6.77466">
        <ele>548</ele>
        <time>2013-09-22T12:37:47Z</time>
      </trkpt>
      <trkpt lat="43.97181" lon="6.77527">
        <ele>547</ele>
        <time>2013-09-22T12:37:56Z</time>
      </trkpt>
      <trkpt lat="43.97171" lon="6.77588">
        <ele>546</ele>
        <time>2013-09-22T12:38:03Z</time>
      </trkpt>
      <trkpt lat="43.97165" lon="6.77688">
        <ele>544</ele>
        <time>2013-09-22T12:38:14Z</time>
      </trkpt>
      <trkpt lat="43.97141" lon="6.77763">
        <ele>543</ele>
        <time>2013-09-22T12:38:23Z</time>
      </trkpt>
      <trkpt lat="43.97105" lon="6.77789">
        <ele>541</ele>
        <time>2013-09-22T12:38:29Z</time>
      </trkpt>
      <trkpt lat="43.97056" lon="6.77768">
        <ele>540</ele>
        <time>2013-09-22T12:38:36Z</time>
      </trkpt>
      <trkpt lat="43.97025" lon="6.77728">
        <ele>539</ele>
        <time>2013-09-22T12:38:42Z</time>
      </trkpt>
      <trkpt lat="43.96991" lon="6.77697">
        <ele>537</ele>
        <time>2013-09-22T12:38:48Z</time>
      </trkpt>
      <trkpt lat="43.96962" lon="6.77699">
        <ele>537</ele>
        <time>2013-09-22T12:38:52Z</time>
      </trkpt>
      <trkpt lat="43.96886" lon="6.77715">
        <ele>534</ele>
        <time>2013-09-22T12:39:04Z</time>
      </trkpt>
      <trkpt lat="43.96808" lon="6.7776">
        <ele>532</ele>
        <time>2013-09-22T12:39:16Z</time>
      </trkpt>
      <trkpt lat="43.96761" lon="6.77774">
        <ele>531</ele>
        <time>2013-09-22T12:39:22Z</time>
      </trkpt>
      <trkpt lat="43.96716" lon="6.7779">
        <ele>531</ele>
        <time>2013-09-22T12:39:28Z</time>
      </trkpt>
      <trkpt lat="43.96667" lon="6.77832">
        <ele>530</ele>
        <time>2013-09-22T12:39:36Z</time>
      </trkpt>
      <trkpt lat="43.96618" lon="6.77913">
        <ele>528</ele>
        <time>2013-09-22T12:39:47Z</time>
      </trkpt>
      <trkpt lat="43.96556" lon="6.78018">
        <ele>527</ele>
        <time>2013-09-22T12:40:01Z</time>
      </trkpt>
      <trkpt lat="43.96504" lon="6.78122">
        <ele>526</ele>
        <time>2013-09-22T12:40:14Z</time>
      </trkpt>
      <trkpt lat="43.96452" lon="6.78229">
        <ele>525</ele>
        <time>2013-09-22T12:40:29Z</time>
      </trkpt>
      <trkpt lat="43.9642" lon="6.78273">
        <ele>525</ele>
        <time>2013-09-22T12:40:38Z</time>
      </trkpt>
      <trkpt lat="43.96379" lon="6.78323">
        <ele>524</ele>
        <time>2013-09-22T12:40:48Z</time>
      </trkpt>
      <trkpt lat="43.96335" lon="6.78407">
        <ele>523</ele>
        <time>2013-09-22T12:41:01Z</time>
      </trkpt>
      <trkpt lat="43.96293" lon="6.78461">
        <ele>523</ele>
        <time>2013-09-22T12:41:11Z</time>
      </trkpt>
      <trkpt lat="43.96228" lon="6.78549">
        <ele>522</ele>
        <time>2013-09-22T12:41:27Z</time>
      </trkpt>
      <trkpt lat="43.96208" lon="6.786">
        <ele>522</ele>
        <time>2013-09-22T12:41:34Z</time>
      </trkpt>
      <trkpt lat="43.96176" lon="6.78676">
        <ele>522</ele>
        <time>2013-09-22T12:41:47Z</time>
      </trkpt>
      <trkpt lat="43.96156" lon="6.78739">
        <ele>521</ele>
        <time>2013-09-22T12:41:59Z</time>
      </trkpt>
      <trkpt lat="43.96152" lon="6.7879">
        <ele>521</ele>
        <time>2013-09-22T12:42:07Z</time>
      </trkpt>
      <trkpt lat="43.96144" lon="6.7885">
        <ele>520</ele>
        <time>2013-09-22T12:42:15Z</time>
      </trkpt>
      <trkpt lat="43.9613" lon="6.78885">
        <ele>520</ele>
        <time>2013-09-22T12:42:19Z</time>
      </trkpt>
      <trkpt lat="43.96085" lon="6.7898">
        <ele>518</ele>
        <time>2013-09-22T12:42:30Z</time>
      </trkpt>
      <trkpt lat="43.96027" lon="6.79104">
        <ele>517</ele>
        <time>2013-09-22T12:42:46Z</time>
      </trkpt>
      <trkpt lat="43.95995" lon="6.79176">
        <ele>516</ele>
        <time>2013-09-22T12:42:55Z</time>
      </trkpt>
      <trkpt lat="43.95945" lon="6.79273">
        <ele>515</ele>
        <time>2013-09-22T12:43:08Z</time>
      </trkpt>
      <trkpt lat="43.95939" lon="6.79312">
        <ele>514</ele>
        <time>2013-09-22T12:43:13Z</time>
      </trkpt>
      <trkpt lat="43.9591" lon="6.79443">
        <ele>513</ele>
        <time>2013-09-22T12:43:30Z</time>
      </trkpt>
      <trkpt lat="43.95859" lon="6.79552">
        <ele>511</ele>
        <time>2013-09-22T12:43:47Z</time>
      </trkpt>
      <trkpt lat="43.95832" lon="6.7958">
        <ele>511</ele>
        <time>2013-09-22T12:43:53Z</time>
      </trkpt>
      <trkpt lat="43.95755" lon="6.79626">
        <ele>509</ele>
        <time>2013-09-22T12:44:06Z</time>
      </trkpt>
      <trkpt lat="43.9568" lon="6.79701">
        <ele>508</ele>
        <time>2013-09-22T12:44:18Z</time>
      </trkpt>
      <trkpt lat="43.9563" lon="6.79774">
        <ele>506</ele>
        <time>2013-09-22T12:44:27Z</time>
      </trkpt>
      <trkpt lat="43.95559" lon="6.79904">
        <ele>504</ele>
        <time>2013-09-22T12:44:41Z</time>
      </trkpt>
      <trkpt lat="43.95521" lon="6.79995">
        <ele>502</ele>
        <time>2013-09-22T12:44:50Z</time>
      </trkpt>
      <trkpt lat="43.95493" lon="6.80063">
        <ele>501</ele>
        <time>2013-09-22T12:44:57Z</time>
      </trkpt>
      <trkpt lat="43.95462" lon="6.80177">
        <ele>500</ele>
        <time>2013-09-22T12:45:08Z</time>
      </trkpt>
      <trkpt lat="43.95409" lon="6.80309">
        <ele>498</ele>
        <time>2013-09-22T12:45:21Z</time>
      </trkpt>
      <trkpt lat="43.95382" lon="6.80379">
        <ele>498</ele>
        <time>2013-09-22T12:45:28Z</time>
      </trkpt>
      <trkpt lat="43.95335" lon="6.80498">
        <ele>496</ele>
        <time>2013-09-22T12:45:41Z</time>
      </trkpt>
      <trkpt lat="43.95294" lon="6.80602">
        <ele>495</ele>
        <time>2013-09-22T12:45:53Z</time>
      </trkpt>
      <trkpt lat="43.95266" lon="6.80664">
        <ele>494</ele>
        <time>2013-09-22T12:46:02Z</time>
      </trkpt>
      <trkpt lat="43.95253" lon="6.80681">
        <ele>494</ele>
        <time>2013-09-22T12:46:06Z</time>
      </trkpt>
      <trkpt lat="43.95219" lon="6.80724">
        <ele>493</ele>
        <time>2013-09-22T12:46:16Z</time>
      </trkpt>
      <trkpt lat="43.95202" lon="6.80753">
        <ele>492</ele>
        <time>2013-09-22T12:46:22Z</time>
      </trkpt>
      <trkpt lat="43.9517" lon="6.80816">
        <ele>492</ele>
        <time>2013-09-22T12:46:35Z</time>
      </trkpt>
      <trkpt lat="43.95158" lon="6.8084">
        <ele>491</ele>
        <time>2013-09-22T12:46:39Z</time>
      </trkpt>
      <trkpt lat="43.95135" lon="6.80901">
        <ele>490</ele>
        <time>2013-09-22T12:46:48Z</time>
      </trkpt>
      <trkpt lat="43.95116" lon="6.80938">
        <ele>490</ele>
        <time>2013-09-22T12:46:54Z</time>
      </trkpt>
      <trkpt lat="43.95081" lon="6.80942">
        <ele>489</ele>
        <time>2013-09-22T12:47:01Z</time>
      </trkpt>
      <trkpt lat="43.9506" lon="6.80928">
        <ele>489</ele>
        <time>2013-09-22T12:47:05Z</time>
      </trkpt>
      <trkpt lat="43.9502" lon="6.80906">
        <ele>488</ele>
        <time>2013-09-22T12:47:15Z</time>
      </trkpt>
      <trkpt lat="43.95007" lon="6.80905">
        <ele>488</ele>
        <time>2013-09-22T12:47:18Z</time>
      </trkpt>
      <trkpt lat="43.9499" lon="6.80909">
        <ele>487</ele>
        <time>2013-09-22T12:47:22Z</time>
      </trkpt>
      <trkpt lat="43.9497" lon="6.80923">
        <ele>487</ele>
        <time>2013-09-22T12:47:27Z</time>
      </trkpt>
      <trkpt lat="43.94951" lon="6.80951">
        <ele>487</ele>
        <time>2013-09-22T12:47:34Z</time>
      </trkpt>
      <trkpt lat="43.94927" lon="6.80995">
        <ele>486</ele>
        <time>2013-09-22T12:47:47Z</time>
      </trkpt>
      <trkpt lat="43.94912" lon="6.81026">
        <ele>486</ele>
        <time>2013-09-22T12:47:57Z</time>
      </trkpt>
      <trkpt lat="43.9491" lon="6.81025">
        <ele>486</ele>
        <time>2013-09-22T12:47:58Z</time>
      </trkpt>
    </trkseg>
  </trk>
</gpx>